<?xml version="1.0" encoding="UTF-8"?>
<gpx version="1.1" creator="https://www.youtrack.es" xsi:schemaLocation="http://www.topografix.com/GPX/1/1 http://www.topografix.com/GPX/1/1/gpx.xsd http://www.garmin.com/xmlschemas/GpxExtensions/v3 http://www.garmin.com/xmlschemas/GpxExtensionsv3.xsd http://www.garmin.com/xmlschemas/TrackPointExtension/v1 http://www.garmin.com/xmlschemas/TrackPointExtensionv1.xsd" xmlns:gpxtpx="http://www.garmin.com/xmlschemas/TrackPointExtension/v1" xmlns:gpxx="http://www.garmin.com/xmlschemas/GpxExtensions/v3" xmlns:xsi="http://www.w3.org/2001/XMLSchema-instance">
  <metadata>
    <author>
      <name>Xavier Varias Fernandez</name>
      <email id="xvarias" domain="gmail.com"/>
    </author>
    <link href="https://www.youtrack.es">
      <text>YouTrack.es</text>
    </link>
    <time>2026-05-09T00:08:25Z</time>
  </metadata>
  <trk>
    <src>https://www.youtrack.es</src>
    <link href="https://www.youtrack.es/ruta/30534-gr-177-ronda-del-moianes">
      <text>YouTrack.es</text>
    </link>
    <trkseg>
      <trkpt lat="41.811851" lon="2.097379">
        <ele>714.8</ele>
        <time>2011-08-18T17:56:33Z</time>
      </trkpt>
      <trkpt lat="41.811821" lon="2.097332">
        <ele>714.5</ele>
        <time>2011-08-18T17:56:33Z</time>
      </trkpt>
      <trkpt lat="41.811786" lon="2.097270">
        <ele>714.1</ele>
        <time>2011-08-18T17:56:33Z</time>
      </trkpt>
      <trkpt lat="41.811771" lon="2.097196">
        <ele>714.0</ele>
        <time>2011-08-18T17:56:33Z</time>
      </trkpt>
      <trkpt lat="41.811759" lon="2.097021">
        <ele>714.1</ele>
        <time>2011-08-18T17:56:33Z</time>
      </trkpt>
      <trkpt lat="41.811739" lon="2.096911">
        <ele>714.2</ele>
        <time>2011-08-18T17:56:33Z</time>
      </trkpt>
      <trkpt lat="41.811723" lon="2.096790">
        <ele>714.3</ele>
        <time>2011-08-18T17:56:33Z</time>
      </trkpt>
      <trkpt lat="41.811695" lon="2.096671">
        <ele>714.4</ele>
        <time>2011-08-18T17:56:33Z</time>
      </trkpt>
      <trkpt lat="41.811671" lon="2.096584">
        <ele>714.3</ele>
        <time>2011-08-18T17:56:33Z</time>
      </trkpt>
      <trkpt lat="41.811602" lon="2.096505">
        <ele>713.8</ele>
        <time>2011-08-18T17:56:33Z</time>
      </trkpt>
      <trkpt lat="41.811549" lon="2.096472">
        <ele>713.5</ele>
        <time>2011-08-18T17:56:33Z</time>
      </trkpt>
      <trkpt lat="41.811487" lon="2.096374">
        <ele>713.3</ele>
        <time>2011-08-18T17:56:33Z</time>
      </trkpt>
      <trkpt lat="41.811438" lon="2.096301">
        <ele>713.1</ele>
        <time>2011-08-18T17:56:33Z</time>
      </trkpt>
      <trkpt lat="41.811369" lon="2.096212">
        <ele>712.6</ele>
        <time>2011-08-18T17:56:33Z</time>
      </trkpt>
      <trkpt lat="41.811322" lon="2.096133">
        <ele>712.1</ele>
        <time>2011-08-18T17:56:33Z</time>
      </trkpt>
      <trkpt lat="41.811277" lon="2.096046">
        <ele>712.0</ele>
        <time>2011-08-18T17:56:33Z</time>
      </trkpt>
      <trkpt lat="41.811244" lon="2.095922">
        <ele>712.1</ele>
        <time>2011-08-18T17:56:33Z</time>
      </trkpt>
      <trkpt lat="41.811210" lon="2.095838">
        <ele>712.1</ele>
        <time>2011-08-18T17:56:33Z</time>
      </trkpt>
      <trkpt lat="41.811165" lon="2.095751">
        <ele>711.9</ele>
        <time>2011-08-18T17:56:33Z</time>
      </trkpt>
      <trkpt lat="41.811126" lon="2.095666">
        <ele>711.6</ele>
        <time>2011-08-18T17:56:33Z</time>
      </trkpt>
      <trkpt lat="41.811072" lon="2.095557">
        <ele>711.4</ele>
        <time>2011-08-18T17:56:33Z</time>
      </trkpt>
      <trkpt lat="41.811033" lon="2.095464">
        <ele>710.9</ele>
        <time>2011-08-18T17:56:33Z</time>
      </trkpt>
      <trkpt lat="41.810992" lon="2.095348">
        <ele>710.3</ele>
        <time>2011-08-18T17:56:33Z</time>
      </trkpt>
      <trkpt lat="41.810955" lon="2.095219">
        <ele>709.7</ele>
        <time>2011-08-18T17:56:33Z</time>
      </trkpt>
      <trkpt lat="41.810956" lon="2.095083">
        <ele>709.6</ele>
        <time>2011-08-18T17:56:33Z</time>
      </trkpt>
      <trkpt lat="41.810961" lon="2.094955">
        <ele>709.6</ele>
        <time>2011-08-18T17:56:33Z</time>
      </trkpt>
      <trkpt lat="41.810967" lon="2.094854">
        <ele>709.0</ele>
        <time>2011-08-18T17:56:33Z</time>
      </trkpt>
      <trkpt lat="41.810974" lon="2.094715">
        <ele>708.1</ele>
        <time>2011-08-18T17:56:33Z</time>
      </trkpt>
      <trkpt lat="41.810988" lon="2.094610">
        <ele>707.5</ele>
        <time>2011-08-18T17:56:33Z</time>
      </trkpt>
      <trkpt lat="41.810989" lon="2.094485">
        <ele>706.8</ele>
        <time>2011-08-18T17:56:33Z</time>
      </trkpt>
      <trkpt lat="41.810982" lon="2.094301">
        <ele>705.8</ele>
        <time>2011-08-18T17:56:33Z</time>
      </trkpt>
      <trkpt lat="41.810970" lon="2.094149">
        <ele>705.2</ele>
        <time>2011-08-18T17:56:33Z</time>
      </trkpt>
      <trkpt lat="41.810960" lon="2.093976">
        <ele>704.7</ele>
        <time>2011-08-18T17:56:33Z</time>
      </trkpt>
      <trkpt lat="41.810948" lon="2.093838">
        <ele>704.4</ele>
        <time>2011-08-18T17:56:33Z</time>
      </trkpt>
      <trkpt lat="41.810937" lon="2.093705">
        <ele>704.3</ele>
        <time>2011-08-18T17:56:33Z</time>
      </trkpt>
      <trkpt lat="41.810925" lon="2.093552">
        <ele>704.3</ele>
        <time>2011-08-18T17:56:33Z</time>
      </trkpt>
      <trkpt lat="41.810899" lon="2.093451">
        <ele>704.1</ele>
        <time>2011-08-18T17:56:33Z</time>
      </trkpt>
      <trkpt lat="41.810830" lon="2.093291">
        <ele>703.6</ele>
        <time>2011-08-18T17:56:33Z</time>
      </trkpt>
      <trkpt lat="41.810757" lon="2.093181">
        <ele>703.0</ele>
        <time>2011-08-18T17:56:33Z</time>
      </trkpt>
      <trkpt lat="41.810697" lon="2.093114">
        <ele>702.5</ele>
        <time>2011-08-18T17:56:33Z</time>
      </trkpt>
      <trkpt lat="41.810728" lon="2.093032">
        <ele>702.5</ele>
        <time>2011-08-18T17:56:33Z</time>
      </trkpt>
      <trkpt lat="41.810757" lon="2.092907">
        <ele>702.4</ele>
        <time>2011-08-18T17:56:33Z</time>
      </trkpt>
      <trkpt lat="41.810811" lon="2.092728">
        <ele>702.1</ele>
        <time>2011-08-18T17:56:33Z</time>
      </trkpt>
      <trkpt lat="41.810858" lon="2.092557">
        <ele>701.5</ele>
        <time>2011-08-18T17:56:33Z</time>
      </trkpt>
      <trkpt lat="41.810899" lon="2.092359">
        <ele>701.1</ele>
        <time>2011-08-18T17:56:33Z</time>
      </trkpt>
      <trkpt lat="41.810948" lon="2.092126">
        <ele>701.2</ele>
        <time>2011-08-18T17:56:33Z</time>
      </trkpt>
      <trkpt lat="41.811001" lon="2.091944">
        <ele>701.8</ele>
        <time>2011-08-18T17:56:33Z</time>
      </trkpt>
      <trkpt lat="41.811052" lon="2.091706">
        <ele>702.2</ele>
        <time>2011-08-18T17:56:33Z</time>
      </trkpt>
      <trkpt lat="41.811083" lon="2.091569">
        <ele>702.6</ele>
        <time>2011-08-18T17:56:33Z</time>
      </trkpt>
      <trkpt lat="41.811103" lon="2.091428">
        <ele>703.1</ele>
        <time>2011-08-18T17:56:33Z</time>
      </trkpt>
      <trkpt lat="41.811134" lon="2.091300">
        <ele>703.5</ele>
        <time>2011-08-18T17:56:33Z</time>
      </trkpt>
      <trkpt lat="41.811172" lon="2.091101">
        <ele>704.0</ele>
        <time>2011-08-18T17:56:33Z</time>
      </trkpt>
      <trkpt lat="41.811200" lon="2.090917">
        <ele>704.5</ele>
        <time>2011-08-18T17:56:33Z</time>
      </trkpt>
      <trkpt lat="41.811242" lon="2.090741">
        <ele>704.8</ele>
        <time>2011-08-18T17:56:33Z</time>
      </trkpt>
      <trkpt lat="41.811270" lon="2.090574">
        <ele>704.9</ele>
        <time>2011-08-18T17:56:33Z</time>
      </trkpt>
      <trkpt lat="41.811309" lon="2.090440">
        <ele>705.4</ele>
        <time>2011-08-18T17:56:33Z</time>
      </trkpt>
      <trkpt lat="41.811299" lon="2.090270">
        <ele>704.6</ele>
        <time>2011-08-18T17:56:33Z</time>
      </trkpt>
      <trkpt lat="41.811325" lon="2.090092">
        <ele>704.1</ele>
        <time>2011-08-18T17:56:33Z</time>
      </trkpt>
      <trkpt lat="41.811364" lon="2.089907">
        <ele>703.6</ele>
        <time>2011-08-18T17:56:33Z</time>
      </trkpt>
      <trkpt lat="41.811409" lon="2.089712">
        <ele>703.4</ele>
        <time>2011-08-18T17:56:33Z</time>
      </trkpt>
      <trkpt lat="41.811452" lon="2.089564">
        <ele>703.3</ele>
        <time>2011-08-18T17:56:33Z</time>
      </trkpt>
      <trkpt lat="41.811508" lon="2.089399">
        <ele>703.4</ele>
        <time>2011-08-18T17:56:33Z</time>
      </trkpt>
      <trkpt lat="41.811539" lon="2.089243">
        <ele>703.3</ele>
        <time>2011-08-18T17:56:33Z</time>
      </trkpt>
      <trkpt lat="41.811599" lon="2.089052">
        <ele>703.2</ele>
        <time>2011-08-18T17:56:33Z</time>
      </trkpt>
      <trkpt lat="41.811625" lon="2.088925">
        <ele>703.1</ele>
        <time>2011-08-18T17:56:33Z</time>
      </trkpt>
      <trkpt lat="41.811655" lon="2.088760">
        <ele>702.9</ele>
        <time>2011-08-18T17:56:33Z</time>
      </trkpt>
      <trkpt lat="41.811681" lon="2.088567">
        <ele>702.8</ele>
        <time>2011-08-18T17:56:33Z</time>
      </trkpt>
      <trkpt lat="41.811708" lon="2.088420">
        <ele>702.7</ele>
        <time>2011-08-18T17:56:33Z</time>
      </trkpt>
      <trkpt lat="41.811717" lon="2.088264">
        <ele>702.7</ele>
        <time>2011-08-18T17:56:33Z</time>
      </trkpt>
      <trkpt lat="41.811724" lon="2.088072">
        <ele>702.8</ele>
        <time>2011-08-18T17:56:33Z</time>
      </trkpt>
      <trkpt lat="41.811744" lon="2.087870">
        <ele>703.3</ele>
        <time>2011-08-18T17:56:33Z</time>
      </trkpt>
      <trkpt lat="41.811751" lon="2.087698">
        <ele>703.7</ele>
        <time>2011-08-18T17:56:33Z</time>
      </trkpt>
      <trkpt lat="41.811764" lon="2.087533">
        <ele>703.8</ele>
        <time>2011-08-18T17:56:33Z</time>
      </trkpt>
      <trkpt lat="41.811788" lon="2.087375">
        <ele>704.0</ele>
        <time>2011-08-18T17:56:33Z</time>
      </trkpt>
      <trkpt lat="41.811791" lon="2.087219">
        <ele>704.4</ele>
        <time>2011-08-18T17:56:33Z</time>
      </trkpt>
      <trkpt lat="41.811811" lon="2.087060">
        <ele>705.0</ele>
        <time>2011-08-18T17:56:33Z</time>
      </trkpt>
      <trkpt lat="41.811812" lon="2.086879">
        <ele>705.5</ele>
        <time>2011-08-18T17:56:33Z</time>
      </trkpt>
      <trkpt lat="41.811836" lon="2.086647">
        <ele>706.2</ele>
        <time>2011-08-18T17:56:33Z</time>
      </trkpt>
      <trkpt lat="41.811849" lon="2.086460">
        <ele>706.7</ele>
        <time>2011-08-18T17:56:33Z</time>
      </trkpt>
      <trkpt lat="41.811871" lon="2.086247">
        <ele>707.4</ele>
        <time>2011-08-18T17:56:33Z</time>
      </trkpt>
      <trkpt lat="41.811884" lon="2.086052">
        <ele>707.9</ele>
        <time>2011-08-18T17:56:33Z</time>
      </trkpt>
      <trkpt lat="41.811899" lon="2.085836">
        <ele>708.5</ele>
        <time>2011-08-18T17:56:33Z</time>
      </trkpt>
      <trkpt lat="41.811916" lon="2.085644">
        <ele>709.0</ele>
        <time>2011-08-18T17:56:33Z</time>
      </trkpt>
      <trkpt lat="41.811919" lon="2.085463">
        <ele>709.4</ele>
        <time>2011-08-18T17:56:33Z</time>
      </trkpt>
      <trkpt lat="41.811930" lon="2.085245">
        <ele>710.2</ele>
        <time>2011-08-18T17:56:33Z</time>
      </trkpt>
      <trkpt lat="41.811948" lon="2.085046">
        <ele>710.9</ele>
        <time>2011-08-18T17:56:33Z</time>
      </trkpt>
      <trkpt lat="41.811965" lon="2.084876">
        <ele>711.6</ele>
        <time>2011-08-18T17:56:33Z</time>
      </trkpt>
      <trkpt lat="41.811979" lon="2.084675">
        <ele>711.9</ele>
        <time>2011-08-18T17:56:33Z</time>
      </trkpt>
      <trkpt lat="41.812001" lon="2.084511">
        <ele>712.4</ele>
        <time>2011-08-18T17:56:33Z</time>
      </trkpt>
      <trkpt lat="41.812035" lon="2.084281">
        <ele>712.6</ele>
        <time>2011-08-18T17:56:33Z</time>
      </trkpt>
      <trkpt lat="41.812105" lon="2.084057">
        <ele>713.2</ele>
        <time>2011-08-18T17:56:33Z</time>
      </trkpt>
      <trkpt lat="41.812161" lon="2.083858">
        <ele>713.1</ele>
        <time>2011-08-18T17:56:33Z</time>
      </trkpt>
      <trkpt lat="41.812220" lon="2.083656">
        <ele>713.4</ele>
        <time>2011-08-18T17:56:33Z</time>
      </trkpt>
      <trkpt lat="41.812278" lon="2.083485">
        <ele>714.0</ele>
        <time>2011-08-18T17:56:33Z</time>
      </trkpt>
      <trkpt lat="41.812319" lon="2.083321">
        <ele>713.9</ele>
        <time>2011-08-18T17:56:33Z</time>
      </trkpt>
      <trkpt lat="41.812398" lon="2.083099">
        <ele>713.9</ele>
        <time>2011-08-18T17:56:33Z</time>
      </trkpt>
      <trkpt lat="41.812458" lon="2.082925">
        <ele>714.5</ele>
        <time>2011-08-18T17:56:33Z</time>
      </trkpt>
      <trkpt lat="41.812512" lon="2.082766">
        <ele>715.4</ele>
        <time>2011-08-18T17:56:33Z</time>
      </trkpt>
      <trkpt lat="41.812563" lon="2.082610">
        <ele>716.0</ele>
        <time>2011-08-18T17:56:33Z</time>
      </trkpt>
      <trkpt lat="41.812630" lon="2.082408">
        <ele>716.5</ele>
        <time>2011-08-18T17:56:33Z</time>
      </trkpt>
      <trkpt lat="41.812702" lon="2.082220">
        <ele>717.4</ele>
        <time>2011-08-18T17:56:33Z</time>
      </trkpt>
      <trkpt lat="41.812756" lon="2.082007">
        <ele>718.6</ele>
        <time>2011-08-18T17:56:33Z</time>
      </trkpt>
      <trkpt lat="41.812817" lon="2.081803">
        <ele>719.0</ele>
        <time>2011-08-18T17:56:33Z</time>
      </trkpt>
      <trkpt lat="41.812860" lon="2.081598">
        <ele>718.9</ele>
        <time>2011-08-18T17:56:33Z</time>
      </trkpt>
      <trkpt lat="41.812888" lon="2.081417">
        <ele>719.5</ele>
        <time>2011-08-18T17:56:33Z</time>
      </trkpt>
      <trkpt lat="41.812910" lon="2.081238">
        <ele>720.1</ele>
        <time>2011-08-18T17:56:33Z</time>
      </trkpt>
      <trkpt lat="41.812932" lon="2.081057">
        <ele>719.7</ele>
        <time>2011-08-18T17:56:33Z</time>
      </trkpt>
      <trkpt lat="41.812950" lon="2.080901">
        <ele>719.1</ele>
        <time>2011-08-18T17:56:33Z</time>
      </trkpt>
      <trkpt lat="41.812963" lon="2.080739">
        <ele>717.7</ele>
        <time>2011-08-18T17:56:33Z</time>
      </trkpt>
      <trkpt lat="41.812941" lon="2.080641">
        <ele>717.0</ele>
        <time>2011-08-18T17:56:33Z</time>
      </trkpt>
      <trkpt lat="41.812888" lon="2.080545">
        <ele>716.8</ele>
        <time>2011-08-18T17:56:33Z</time>
      </trkpt>
      <trkpt lat="41.812802" lon="2.080456">
        <ele>716.9</ele>
        <time>2011-08-18T17:56:33Z</time>
      </trkpt>
      <trkpt lat="41.812719" lon="2.080352">
        <ele>717.3</ele>
        <time>2011-08-18T17:56:33Z</time>
      </trkpt>
      <trkpt lat="41.812631" lon="2.080252">
        <ele>717.9</ele>
        <time>2011-08-18T17:56:33Z</time>
      </trkpt>
      <trkpt lat="41.812518" lon="2.080160">
        <ele>719.0</ele>
        <time>2011-08-18T17:56:33Z</time>
      </trkpt>
      <trkpt lat="41.812410" lon="2.080096">
        <ele>719.5</ele>
        <time>2011-08-18T17:56:33Z</time>
      </trkpt>
      <trkpt lat="41.812286" lon="2.080016">
        <ele>720.0</ele>
        <time>2011-08-18T17:56:33Z</time>
      </trkpt>
      <trkpt lat="41.812149" lon="2.079976">
        <ele>720.2</ele>
        <time>2011-08-18T17:56:33Z</time>
      </trkpt>
      <trkpt lat="41.812034" lon="2.079972">
        <ele>720.7</ele>
        <time>2011-08-18T17:56:33Z</time>
      </trkpt>
      <trkpt lat="41.811981" lon="2.079981">
        <ele>721.1</ele>
        <time>2011-08-18T17:56:33Z</time>
      </trkpt>
      <trkpt lat="41.811878" lon="2.079974">
        <ele>721.5</ele>
        <time>2011-08-18T17:56:33Z</time>
      </trkpt>
      <trkpt lat="41.811731" lon="2.079959">
        <ele>722.1</ele>
        <time>2011-08-18T17:56:33Z</time>
      </trkpt>
      <trkpt lat="41.811613" lon="2.079918">
        <ele>722.5</ele>
        <time>2011-08-18T17:56:33Z</time>
      </trkpt>
      <trkpt lat="41.811409" lon="2.079850">
        <ele>723.4</ele>
        <time>2011-08-18T17:56:33Z</time>
      </trkpt>
      <trkpt lat="41.811269" lon="2.079801">
        <ele>724.4</ele>
        <time>2011-08-18T17:56:33Z</time>
      </trkpt>
      <trkpt lat="41.811109" lon="2.079733">
        <ele>725.0</ele>
        <time>2011-08-18T17:56:33Z</time>
      </trkpt>
      <trkpt lat="41.810992" lon="2.079678">
        <ele>725.2</ele>
        <time>2011-08-18T17:56:33Z</time>
      </trkpt>
      <trkpt lat="41.810884" lon="2.079612">
        <ele>725.1</ele>
        <time>2011-08-18T17:56:33Z</time>
      </trkpt>
      <trkpt lat="41.810756" lon="2.079532">
        <ele>725.3</ele>
        <time>2011-08-18T17:56:33Z</time>
      </trkpt>
      <trkpt lat="41.810646" lon="2.079462">
        <ele>725.6</ele>
        <time>2011-08-18T17:56:33Z</time>
      </trkpt>
      <trkpt lat="41.810527" lon="2.079393">
        <ele>725.9</ele>
        <time>2011-08-18T17:56:33Z</time>
      </trkpt>
      <trkpt lat="41.810429" lon="2.079352">
        <ele>726.4</ele>
        <time>2011-08-18T17:56:33Z</time>
      </trkpt>
      <trkpt lat="41.810329" lon="2.079292">
        <ele>726.5</ele>
        <time>2011-08-18T17:56:33Z</time>
      </trkpt>
      <trkpt lat="41.810208" lon="2.079237">
        <ele>726.9</ele>
        <time>2011-08-18T17:56:33Z</time>
      </trkpt>
      <trkpt lat="41.810044" lon="2.079177">
        <ele>727.7</ele>
        <time>2011-08-18T17:56:33Z</time>
      </trkpt>
      <trkpt lat="41.809896" lon="2.079176">
        <ele>728.2</ele>
        <time>2011-08-18T17:56:33Z</time>
      </trkpt>
      <trkpt lat="41.809778" lon="2.079223">
        <ele>729.1</ele>
        <time>2011-08-18T17:56:33Z</time>
      </trkpt>
      <trkpt lat="41.809694" lon="2.079258">
        <ele>729.5</ele>
        <time>2011-08-18T17:56:33Z</time>
      </trkpt>
      <trkpt lat="41.809590" lon="2.079251">
        <ele>729.4</ele>
        <time>2011-08-18T17:56:33Z</time>
      </trkpt>
      <trkpt lat="41.809509" lon="2.079198">
        <ele>729.2</ele>
        <time>2011-08-18T17:56:33Z</time>
      </trkpt>
      <trkpt lat="41.809424" lon="2.079163">
        <ele>729.6</ele>
        <time>2011-08-18T17:56:33Z</time>
      </trkpt>
      <trkpt lat="41.809330" lon="2.079113">
        <ele>729.9</ele>
        <time>2011-08-18T17:56:33Z</time>
      </trkpt>
      <trkpt lat="41.809223" lon="2.079115">
        <ele>730.9</ele>
        <time>2011-08-18T17:56:33Z</time>
      </trkpt>
      <trkpt lat="41.809100" lon="2.079114">
        <ele>731.7</ele>
        <time>2011-08-18T17:56:33Z</time>
      </trkpt>
      <trkpt lat="41.808988" lon="2.079144">
        <ele>732.8</ele>
        <time>2011-08-18T17:56:33Z</time>
      </trkpt>
      <trkpt lat="41.808867" lon="2.079188">
        <ele>733.8</ele>
        <time>2011-08-18T17:56:33Z</time>
      </trkpt>
      <trkpt lat="41.808760" lon="2.079226">
        <ele>734.9</ele>
        <time>2011-08-18T17:56:33Z</time>
      </trkpt>
      <trkpt lat="41.808650" lon="2.079270">
        <ele>735.3</ele>
        <time>2011-08-18T17:56:33Z</time>
      </trkpt>
      <trkpt lat="41.808606" lon="2.079356">
        <ele>736.5</ele>
        <time>2011-08-18T17:56:33Z</time>
      </trkpt>
      <trkpt lat="41.808490" lon="2.079431">
        <ele>737.6</ele>
        <time>2011-08-18T17:56:33Z</time>
      </trkpt>
      <trkpt lat="41.808400" lon="2.079514">
        <ele>737.6</ele>
        <time>2011-08-18T17:56:33Z</time>
      </trkpt>
      <trkpt lat="41.808333" lon="2.079614">
        <ele>738.0</ele>
        <time>2011-08-18T17:56:33Z</time>
      </trkpt>
      <trkpt lat="41.808277" lon="2.079708">
        <ele>738.4</ele>
        <time>2011-08-18T17:56:33Z</time>
      </trkpt>
      <trkpt lat="41.808187" lon="2.079840">
        <ele>738.9</ele>
        <time>2011-08-18T17:56:33Z</time>
      </trkpt>
      <trkpt lat="41.808091" lon="2.080011">
        <ele>740.6</ele>
        <time>2011-08-18T17:56:33Z</time>
      </trkpt>
      <trkpt lat="41.807990" lon="2.080131">
        <ele>741.5</ele>
        <time>2011-08-18T17:56:33Z</time>
      </trkpt>
      <trkpt lat="41.807868" lon="2.080212">
        <ele>741.6</ele>
        <time>2011-08-18T17:56:33Z</time>
      </trkpt>
      <trkpt lat="41.807743" lon="2.080254">
        <ele>741.1</ele>
        <time>2011-08-18T17:56:33Z</time>
      </trkpt>
      <trkpt lat="41.807665" lon="2.080286">
        <ele>741.1</ele>
        <time>2011-08-18T17:56:33Z</time>
      </trkpt>
      <trkpt lat="41.807549" lon="2.080341">
        <ele>741.4</ele>
        <time>2011-08-18T17:56:33Z</time>
      </trkpt>
      <trkpt lat="41.807451" lon="2.080456">
        <ele>743.2</ele>
        <time>2011-08-18T17:56:33Z</time>
      </trkpt>
      <trkpt lat="41.807356" lon="2.080553">
        <ele>744.2</ele>
        <time>2011-08-18T17:56:33Z</time>
      </trkpt>
      <trkpt lat="41.807254" lon="2.080702">
        <ele>745.0</ele>
        <time>2011-08-18T17:56:33Z</time>
      </trkpt>
      <trkpt lat="41.807181" lon="2.080822">
        <ele>745.9</ele>
        <time>2011-08-18T17:56:33Z</time>
      </trkpt>
      <trkpt lat="41.807129" lon="2.080939">
        <ele>747.0</ele>
        <time>2011-08-18T17:56:33Z</time>
      </trkpt>
      <trkpt lat="41.807069" lon="2.081098">
        <ele>748.2</ele>
        <time>2011-08-18T17:56:33Z</time>
      </trkpt>
      <trkpt lat="41.807014" lon="2.081215">
        <ele>749.1</ele>
        <time>2011-08-18T17:56:33Z</time>
      </trkpt>
      <trkpt lat="41.806939" lon="2.081369">
        <ele>750.4</ele>
        <time>2011-08-18T17:56:33Z</time>
      </trkpt>
      <trkpt lat="41.806881" lon="2.081494">
        <ele>751.4</ele>
        <time>2011-08-18T17:56:33Z</time>
      </trkpt>
      <trkpt lat="41.806768" lon="2.081657">
        <ele>752.3</ele>
        <time>2011-08-18T17:56:33Z</time>
      </trkpt>
      <trkpt lat="41.806684" lon="2.081754">
        <ele>752.7</ele>
        <time>2011-08-18T17:56:33Z</time>
      </trkpt>
      <trkpt lat="41.806569" lon="2.081886">
        <ele>753.8</ele>
        <time>2011-08-18T17:56:33Z</time>
      </trkpt>
      <trkpt lat="41.806483" lon="2.081978">
        <ele>755.1</ele>
        <time>2011-08-18T17:56:33Z</time>
      </trkpt>
      <trkpt lat="41.806384" lon="2.082053">
        <ele>756.2</ele>
        <time>2011-08-18T17:56:33Z</time>
      </trkpt>
      <trkpt lat="41.806232" lon="2.082114">
        <ele>757.2</ele>
        <time>2011-08-18T17:56:33Z</time>
      </trkpt>
      <trkpt lat="41.806126" lon="2.082153">
        <ele>757.9</ele>
        <time>2011-08-18T17:56:33Z</time>
      </trkpt>
      <trkpt lat="41.806027" lon="2.082197">
        <ele>758.6</ele>
        <time>2011-08-18T17:56:33Z</time>
      </trkpt>
      <trkpt lat="41.805911" lon="2.082261">
        <ele>759.2</ele>
        <time>2011-08-18T17:56:33Z</time>
      </trkpt>
      <trkpt lat="41.805800" lon="2.082327">
        <ele>759.7</ele>
        <time>2011-08-18T17:56:33Z</time>
      </trkpt>
      <trkpt lat="41.805739" lon="2.082430">
        <ele>760.1</ele>
        <time>2011-08-18T17:56:33Z</time>
      </trkpt>
      <trkpt lat="41.805649" lon="2.082539">
        <ele>760.4</ele>
        <time>2011-08-18T17:56:33Z</time>
      </trkpt>
      <trkpt lat="41.805548" lon="2.082611">
        <ele>760.6</ele>
        <time>2011-08-18T17:56:33Z</time>
      </trkpt>
      <trkpt lat="41.805421" lon="2.082661">
        <ele>760.3</ele>
        <time>2011-08-18T17:56:33Z</time>
      </trkpt>
      <trkpt lat="41.805282" lon="2.082688">
        <ele>759.9</ele>
        <time>2011-08-18T17:56:33Z</time>
      </trkpt>
      <trkpt lat="41.805121" lon="2.082727">
        <ele>758.8</ele>
        <time>2011-08-18T17:56:33Z</time>
      </trkpt>
      <trkpt lat="41.804963" lon="2.082778">
        <ele>757.7</ele>
        <time>2011-08-18T17:56:33Z</time>
      </trkpt>
      <trkpt lat="41.804883" lon="2.082787">
        <ele>757.4</ele>
        <time>2011-08-18T17:56:33Z</time>
      </trkpt>
      <trkpt lat="41.804764" lon="2.082772">
        <ele>757.1</ele>
        <time>2011-08-18T17:56:33Z</time>
      </trkpt>
      <trkpt lat="41.804647" lon="2.082737">
        <ele>757.2</ele>
        <time>2011-08-18T17:56:33Z</time>
      </trkpt>
      <trkpt lat="41.804539" lon="2.082659">
        <ele>757.6</ele>
        <time>2011-08-18T17:56:33Z</time>
      </trkpt>
      <trkpt lat="41.804468" lon="2.082555">
        <ele>757.9</ele>
        <time>2011-08-18T17:56:33Z</time>
      </trkpt>
      <trkpt lat="41.804365" lon="2.082413">
        <ele>759.6</ele>
        <time>2011-08-18T17:56:33Z</time>
      </trkpt>
      <trkpt lat="41.804256" lon="2.082239">
        <ele>761.3</ele>
        <time>2011-08-18T17:56:33Z</time>
      </trkpt>
      <trkpt lat="41.804151" lon="2.082054">
        <ele>762.4</ele>
        <time>2011-08-18T17:56:33Z</time>
      </trkpt>
      <trkpt lat="41.804065" lon="2.081933">
        <ele>763.1</ele>
        <time>2011-08-18T17:56:33Z</time>
      </trkpt>
      <trkpt lat="41.803992" lon="2.081863">
        <ele>763.7</ele>
        <time>2011-08-18T17:56:33Z</time>
      </trkpt>
      <trkpt lat="41.803945" lon="2.081734">
        <ele>763.7</ele>
        <time>2011-08-18T17:56:33Z</time>
      </trkpt>
      <trkpt lat="41.803874" lon="2.081642">
        <ele>764.2</ele>
        <time>2011-08-18T17:56:33Z</time>
      </trkpt>
      <trkpt lat="41.803759" lon="2.081541">
        <ele>765.0</ele>
        <time>2011-08-18T17:56:33Z</time>
      </trkpt>
      <trkpt lat="41.803640" lon="2.081447">
        <ele>765.6</ele>
        <time>2011-08-18T17:56:33Z</time>
      </trkpt>
      <trkpt lat="41.803529" lon="2.081352">
        <ele>766.3</ele>
        <time>2011-08-18T17:56:33Z</time>
      </trkpt>
      <trkpt lat="41.803452" lon="2.081268">
        <ele>766.5</ele>
        <time>2011-08-18T17:56:33Z</time>
      </trkpt>
      <trkpt lat="41.803363" lon="2.081188">
        <ele>766.8</ele>
        <time>2011-08-18T17:56:33Z</time>
      </trkpt>
      <trkpt lat="41.803267" lon="2.081104">
        <ele>767.1</ele>
        <time>2011-08-18T17:56:33Z</time>
      </trkpt>
      <trkpt lat="41.803166" lon="2.081004">
        <ele>767.4</ele>
        <time>2011-08-18T17:56:33Z</time>
      </trkpt>
      <trkpt lat="41.803108" lon="2.080897">
        <ele>767.6</ele>
        <time>2011-08-18T17:56:33Z</time>
      </trkpt>
      <trkpt lat="41.803045" lon="2.080660">
        <ele>767.7</ele>
        <time>2011-08-18T17:56:33Z</time>
      </trkpt>
      <trkpt lat="41.803005" lon="2.080449">
        <ele>767.7</ele>
        <time>2011-08-18T17:56:33Z</time>
      </trkpt>
      <trkpt lat="41.802970" lon="2.080291">
        <ele>767.8</ele>
        <time>2011-08-18T17:56:33Z</time>
      </trkpt>
      <trkpt lat="41.802919" lon="2.080031">
        <ele>768.2</ele>
        <time>2011-08-18T17:56:33Z</time>
      </trkpt>
      <trkpt lat="41.802871" lon="2.079772">
        <ele>768.5</ele>
        <time>2011-08-18T17:56:33Z</time>
      </trkpt>
      <trkpt lat="41.802799" lon="2.079561">
        <ele>769.2</ele>
        <time>2011-08-18T17:56:33Z</time>
      </trkpt>
      <trkpt lat="41.802741" lon="2.079414">
        <ele>769.4</ele>
        <time>2011-08-18T17:56:33Z</time>
      </trkpt>
      <trkpt lat="41.802678" lon="2.079285">
        <ele>769.7</ele>
        <time>2011-08-18T17:56:33Z</time>
      </trkpt>
      <trkpt lat="41.802598" lon="2.079091">
        <ele>770.0</ele>
        <time>2011-08-18T17:56:33Z</time>
      </trkpt>
      <trkpt lat="41.802527" lon="2.078942">
        <ele>770.4</ele>
        <time>2011-08-18T17:56:33Z</time>
      </trkpt>
      <trkpt lat="41.802441" lon="2.078779">
        <ele>770.5</ele>
        <time>2011-08-18T17:56:33Z</time>
      </trkpt>
      <trkpt lat="41.802363" lon="2.078560">
        <ele>769.8</ele>
        <time>2011-08-18T17:56:33Z</time>
      </trkpt>
      <trkpt lat="41.802262" lon="2.078340">
        <ele>769.6</ele>
        <time>2011-08-18T17:56:33Z</time>
      </trkpt>
      <trkpt lat="41.802195" lon="2.078152">
        <ele>769.6</ele>
        <time>2011-08-18T17:56:33Z</time>
      </trkpt>
      <trkpt lat="41.802134" lon="2.077986">
        <ele>769.1</ele>
        <time>2011-08-18T17:56:33Z</time>
      </trkpt>
      <trkpt lat="41.802050" lon="2.077763">
        <ele>768.4</ele>
        <time>2011-08-18T17:56:33Z</time>
      </trkpt>
      <trkpt lat="41.801979" lon="2.077595">
        <ele>768.6</ele>
        <time>2011-08-18T17:56:33Z</time>
      </trkpt>
      <trkpt lat="41.801929" lon="2.077392">
        <ele>768.6</ele>
        <time>2011-08-18T17:56:33Z</time>
      </trkpt>
      <trkpt lat="41.801906" lon="2.077194">
        <ele>768.3</ele>
        <time>2011-08-18T17:56:33Z</time>
      </trkpt>
      <trkpt lat="41.801892" lon="2.077056">
        <ele>768.0</ele>
        <time>2011-08-18T17:56:33Z</time>
      </trkpt>
      <trkpt lat="41.801874" lon="2.076883">
        <ele>767.8</ele>
        <time>2011-08-18T17:56:33Z</time>
      </trkpt>
      <trkpt lat="41.801853" lon="2.076703">
        <ele>767.5</ele>
        <time>2011-08-18T17:56:33Z</time>
      </trkpt>
      <trkpt lat="41.801809" lon="2.076491">
        <ele>767.5</ele>
        <time>2011-08-18T17:56:33Z</time>
      </trkpt>
      <trkpt lat="41.801778" lon="2.076290">
        <ele>767.4</ele>
        <time>2011-08-18T17:56:33Z</time>
      </trkpt>
      <trkpt lat="41.801736" lon="2.076113">
        <ele>767.7</ele>
        <time>2011-08-18T17:56:33Z</time>
      </trkpt>
      <trkpt lat="41.801667" lon="2.075938">
        <ele>768.1</ele>
        <time>2011-08-18T17:56:33Z</time>
      </trkpt>
      <trkpt lat="41.801588" lon="2.075818">
        <ele>768.3</ele>
        <time>2011-08-18T17:56:33Z</time>
      </trkpt>
      <trkpt lat="41.801517" lon="2.075678">
        <ele>768.2</ele>
        <time>2011-08-18T17:56:33Z</time>
      </trkpt>
      <trkpt lat="41.801478" lon="2.075539">
        <ele>767.8</ele>
        <time>2011-08-18T17:56:33Z</time>
      </trkpt>
      <trkpt lat="41.801474" lon="2.075370">
        <ele>766.9</ele>
        <time>2011-08-18T17:56:33Z</time>
      </trkpt>
      <trkpt lat="41.801485" lon="2.075123">
        <ele>765.7</ele>
        <time>2011-08-18T17:56:33Z</time>
      </trkpt>
      <trkpt lat="41.801505" lon="2.074951">
        <ele>764.8</ele>
        <time>2011-08-18T17:56:33Z</time>
      </trkpt>
      <trkpt lat="41.801514" lon="2.074809">
        <ele>764.0</ele>
        <time>2011-08-18T17:56:33Z</time>
      </trkpt>
      <trkpt lat="41.801543" lon="2.074695">
        <ele>763.4</ele>
        <time>2011-08-18T17:56:33Z</time>
      </trkpt>
      <trkpt lat="41.801586" lon="2.074551">
        <ele>762.4</ele>
        <time>2011-08-18T17:56:33Z</time>
      </trkpt>
      <trkpt lat="41.801655" lon="2.074388">
        <ele>761.1</ele>
        <time>2011-08-18T17:56:33Z</time>
      </trkpt>
      <trkpt lat="41.801726" lon="2.074280">
        <ele>760.0</ele>
        <time>2011-08-18T17:56:33Z</time>
      </trkpt>
      <trkpt lat="41.801771" lon="2.074143">
        <ele>758.8</ele>
        <time>2011-08-18T17:56:33Z</time>
      </trkpt>
      <trkpt lat="41.801751" lon="2.074013">
        <ele>758.1</ele>
        <time>2011-08-18T17:56:33Z</time>
      </trkpt>
      <trkpt lat="41.801687" lon="2.073935">
        <ele>757.9</ele>
        <time>2011-08-18T17:56:33Z</time>
      </trkpt>
      <trkpt lat="41.801572" lon="2.073900">
        <ele>757.7</ele>
        <time>2011-08-18T17:56:33Z</time>
      </trkpt>
      <trkpt lat="41.801422" lon="2.073882">
        <ele>757.6</ele>
        <time>2011-08-18T17:56:33Z</time>
      </trkpt>
      <trkpt lat="41.801320" lon="2.073892">
        <ele>757.4</ele>
        <time>2011-08-18T17:56:33Z</time>
      </trkpt>
      <trkpt lat="41.801255" lon="2.073896">
        <ele>757.3</ele>
        <time>2011-08-18T17:56:33Z</time>
      </trkpt>
      <trkpt lat="41.801187" lon="2.073894">
        <ele>757.1</ele>
        <time>2011-08-18T17:56:33Z</time>
      </trkpt>
      <trkpt lat="41.801094" lon="2.073890">
        <ele>756.5</ele>
        <time>2011-08-18T17:56:33Z</time>
      </trkpt>
      <trkpt lat="41.800956" lon="2.073892">
        <ele>755.5</ele>
        <time>2011-08-18T17:56:33Z</time>
      </trkpt>
      <trkpt lat="41.800859" lon="2.073890">
        <ele>754.7</ele>
        <time>2011-08-18T17:56:33Z</time>
      </trkpt>
      <trkpt lat="41.800711" lon="2.073878">
        <ele>753.8</ele>
        <time>2011-08-18T17:56:33Z</time>
      </trkpt>
      <trkpt lat="41.800582" lon="2.073906">
        <ele>753.6</ele>
        <time>2011-08-18T17:56:33Z</time>
      </trkpt>
      <trkpt lat="41.800446" lon="2.073922">
        <ele>753.6</ele>
        <time>2011-08-18T17:56:33Z</time>
      </trkpt>
      <trkpt lat="41.800345" lon="2.073949">
        <ele>753.5</ele>
        <time>2011-08-18T17:56:33Z</time>
      </trkpt>
      <trkpt lat="41.800233" lon="2.073928">
        <ele>752.0</ele>
        <time>2011-08-18T17:56:33Z</time>
      </trkpt>
      <trkpt lat="41.800152" lon="2.073906">
        <ele>750.9</ele>
        <time>2011-08-18T17:56:33Z</time>
      </trkpt>
      <trkpt lat="41.800069" lon="2.073854">
        <ele>750.0</ele>
        <time>2011-08-18T17:56:33Z</time>
      </trkpt>
      <trkpt lat="41.799975" lon="2.073784">
        <ele>749.4</ele>
        <time>2011-08-18T17:56:33Z</time>
      </trkpt>
      <trkpt lat="41.799845" lon="2.073696">
        <ele>748.9</ele>
        <time>2011-08-18T17:56:33Z</time>
      </trkpt>
      <trkpt lat="41.799735" lon="2.073627">
        <ele>748.3</ele>
        <time>2011-08-18T17:56:33Z</time>
      </trkpt>
      <trkpt lat="41.799650" lon="2.073554">
        <ele>747.9</ele>
        <time>2011-08-18T17:56:33Z</time>
      </trkpt>
      <trkpt lat="41.799586" lon="2.073499">
        <ele>747.8</ele>
        <time>2011-08-18T17:56:33Z</time>
      </trkpt>
      <trkpt lat="41.799500" lon="2.073438">
        <ele>747.9</ele>
        <time>2011-08-18T17:56:33Z</time>
      </trkpt>
      <trkpt lat="41.799415" lon="2.073377">
        <ele>747.5</ele>
        <time>2011-08-18T17:56:33Z</time>
      </trkpt>
      <trkpt lat="41.799334" lon="2.073324">
        <ele>747.2</ele>
        <time>2011-08-18T17:56:33Z</time>
      </trkpt>
      <trkpt lat="41.799243" lon="2.073260">
        <ele>747.0</ele>
        <time>2011-08-18T17:56:33Z</time>
      </trkpt>
      <trkpt lat="41.799149" lon="2.073185">
        <ele>747.2</ele>
        <time>2011-08-18T17:56:33Z</time>
      </trkpt>
      <trkpt lat="41.799047" lon="2.073096">
        <ele>747.9</ele>
        <time>2011-08-18T17:56:33Z</time>
      </trkpt>
      <trkpt lat="41.798955" lon="2.073015">
        <ele>747.8</ele>
        <time>2011-08-18T17:56:33Z</time>
      </trkpt>
      <trkpt lat="41.798863" lon="2.072895">
        <ele>747.5</ele>
        <time>2011-08-18T17:56:33Z</time>
      </trkpt>
      <trkpt lat="41.798788" lon="2.072766">
        <ele>747.8</ele>
        <time>2011-08-18T17:56:33Z</time>
      </trkpt>
      <trkpt lat="41.798683" lon="2.072660">
        <ele>747.6</ele>
        <time>2011-08-18T17:56:33Z</time>
      </trkpt>
      <trkpt lat="41.798596" lon="2.072571">
        <ele>746.8</ele>
        <time>2011-08-18T17:56:33Z</time>
      </trkpt>
      <trkpt lat="41.798528" lon="2.072498">
        <ele>746.3</ele>
        <time>2011-08-18T17:56:33Z</time>
      </trkpt>
      <trkpt lat="41.798461" lon="2.072406">
        <ele>746.1</ele>
        <time>2011-08-18T17:56:33Z</time>
      </trkpt>
      <trkpt lat="41.798401" lon="2.072299">
        <ele>745.6</ele>
        <time>2011-08-18T17:56:33Z</time>
      </trkpt>
      <trkpt lat="41.798322" lon="2.072176">
        <ele>745.1</ele>
        <time>2011-08-18T17:56:33Z</time>
      </trkpt>
      <trkpt lat="41.798236" lon="2.072072">
        <ele>744.9</ele>
        <time>2011-08-18T17:56:33Z</time>
      </trkpt>
      <trkpt lat="41.798169" lon="2.071940">
        <ele>744.4</ele>
        <time>2011-08-18T17:56:33Z</time>
      </trkpt>
      <trkpt lat="41.798109" lon="2.071805">
        <ele>743.0</ele>
        <time>2011-08-18T17:56:33Z</time>
      </trkpt>
      <trkpt lat="41.798060" lon="2.071699">
        <ele>742.2</ele>
        <time>2011-08-18T17:56:33Z</time>
      </trkpt>
      <trkpt lat="41.797955" lon="2.071567">
        <ele>741.6</ele>
        <time>2011-08-18T17:56:33Z</time>
      </trkpt>
      <trkpt lat="41.797846" lon="2.071450">
        <ele>740.8</ele>
        <time>2011-08-18T17:56:33Z</time>
      </trkpt>
      <trkpt lat="41.797758" lon="2.071321">
        <ele>739.6</ele>
        <time>2011-08-18T17:56:33Z</time>
      </trkpt>
      <trkpt lat="41.797672" lon="2.071147">
        <ele>739.6</ele>
        <time>2011-08-18T17:56:33Z</time>
      </trkpt>
      <trkpt lat="41.797574" lon="2.071013">
        <ele>739.9</ele>
        <time>2011-08-18T17:56:33Z</time>
      </trkpt>
      <trkpt lat="41.797462" lon="2.070887">
        <ele>739.6</ele>
        <time>2011-08-18T17:56:33Z</time>
      </trkpt>
      <trkpt lat="41.797396" lon="2.070792">
        <ele>740.2</ele>
        <time>2011-08-18T17:56:33Z</time>
      </trkpt>
      <trkpt lat="41.797306" lon="2.070669">
        <ele>740.9</ele>
        <time>2011-08-18T17:56:33Z</time>
      </trkpt>
      <trkpt lat="41.797220" lon="2.070520">
        <ele>740.7</ele>
        <time>2011-08-18T17:56:33Z</time>
      </trkpt>
      <trkpt lat="41.797136" lon="2.070360">
        <ele>739.9</ele>
        <time>2011-08-18T17:56:33Z</time>
      </trkpt>
      <trkpt lat="41.797074" lon="2.070222">
        <ele>739.4</ele>
        <time>2011-08-18T17:56:33Z</time>
      </trkpt>
      <trkpt lat="41.797026" lon="2.070076">
        <ele>738.8</ele>
        <time>2011-08-18T17:56:33Z</time>
      </trkpt>
      <trkpt lat="41.796993" lon="2.069887">
        <ele>739.0</ele>
        <time>2011-08-18T17:56:33Z</time>
      </trkpt>
      <trkpt lat="41.796996" lon="2.069748">
        <ele>738.5</ele>
        <time>2011-08-18T17:56:33Z</time>
      </trkpt>
      <trkpt lat="41.797012" lon="2.069618">
        <ele>738.3</ele>
        <time>2011-08-18T17:56:33Z</time>
      </trkpt>
      <trkpt lat="41.797019" lon="2.069476">
        <ele>737.8</ele>
        <time>2011-08-18T17:56:33Z</time>
      </trkpt>
      <trkpt lat="41.797028" lon="2.069281">
        <ele>737.5</ele>
        <time>2011-08-18T17:56:33Z</time>
      </trkpt>
      <trkpt lat="41.797027" lon="2.069094">
        <ele>737.2</ele>
        <time>2011-08-18T17:56:33Z</time>
      </trkpt>
      <trkpt lat="41.796983" lon="2.068911">
        <ele>736.2</ele>
        <time>2011-08-18T17:56:33Z</time>
      </trkpt>
      <trkpt lat="41.796947" lon="2.068733">
        <ele>735.5</ele>
        <time>2011-08-18T17:56:33Z</time>
      </trkpt>
      <trkpt lat="41.796899" lon="2.068533">
        <ele>734.7</ele>
        <time>2011-08-18T17:56:33Z</time>
      </trkpt>
      <trkpt lat="41.796860" lon="2.068364">
        <ele>734.3</ele>
        <time>2011-08-18T17:56:33Z</time>
      </trkpt>
      <trkpt lat="41.796810" lon="2.068183">
        <ele>734.1</ele>
        <time>2011-08-18T17:56:33Z</time>
      </trkpt>
      <trkpt lat="41.796732" lon="2.068018">
        <ele>733.1</ele>
        <time>2011-08-18T17:56:33Z</time>
      </trkpt>
      <trkpt lat="41.796637" lon="2.067829">
        <ele>732.4</ele>
        <time>2011-08-18T17:56:33Z</time>
      </trkpt>
      <trkpt lat="41.796511" lon="2.067630">
        <ele>732.1</ele>
        <time>2011-08-18T17:56:33Z</time>
      </trkpt>
      <trkpt lat="41.796406" lon="2.067459">
        <ele>731.0</ele>
        <time>2011-08-18T17:56:33Z</time>
      </trkpt>
      <trkpt lat="41.796335" lon="2.067330">
        <ele>730.4</ele>
        <time>2011-08-18T17:56:33Z</time>
      </trkpt>
      <trkpt lat="41.796258" lon="2.067210">
        <ele>729.1</ele>
        <time>2011-08-18T17:56:33Z</time>
      </trkpt>
      <trkpt lat="41.796183" lon="2.067083">
        <ele>728.1</ele>
        <time>2011-08-18T17:56:33Z</time>
      </trkpt>
      <trkpt lat="41.796125" lon="2.067002">
        <ele>727.4</ele>
        <time>2011-08-18T17:56:33Z</time>
      </trkpt>
      <trkpt lat="41.796022" lon="2.066908">
        <ele>726.0</ele>
        <time>2011-08-18T17:56:33Z</time>
      </trkpt>
      <trkpt lat="41.795886" lon="2.066819">
        <ele>724.2</ele>
        <time>2011-08-18T17:56:33Z</time>
      </trkpt>
      <trkpt lat="41.795805" lon="2.066724">
        <ele>723.4</ele>
        <time>2011-08-18T17:56:33Z</time>
      </trkpt>
      <trkpt lat="41.795745" lon="2.066586">
        <ele>723.0</ele>
        <time>2011-08-18T17:56:33Z</time>
      </trkpt>
      <trkpt lat="41.795734" lon="2.066383">
        <ele>722.7</ele>
        <time>2011-08-18T17:56:33Z</time>
      </trkpt>
      <trkpt lat="41.795775" lon="2.066210">
        <ele>723.2</ele>
        <time>2011-08-18T17:56:33Z</time>
      </trkpt>
      <trkpt lat="41.795806" lon="2.066022">
        <ele>722.1</ele>
        <time>2011-08-18T17:56:33Z</time>
      </trkpt>
      <trkpt lat="41.795853" lon="2.065804">
        <ele>722.0</ele>
        <time>2011-08-18T17:56:33Z</time>
      </trkpt>
      <trkpt lat="41.795853" lon="2.065629">
        <ele>721.4</ele>
        <time>2011-08-18T17:56:33Z</time>
      </trkpt>
      <trkpt lat="41.795833" lon="2.065453">
        <ele>720.3</ele>
        <time>2011-08-18T17:56:33Z</time>
      </trkpt>
      <trkpt lat="41.795795" lon="2.065250">
        <ele>718.9</ele>
        <time>2011-08-18T17:56:33Z</time>
      </trkpt>
      <trkpt lat="41.795741" lon="2.065096">
        <ele>717.3</ele>
        <time>2011-08-18T17:56:33Z</time>
      </trkpt>
      <trkpt lat="41.795714" lon="2.064960">
        <ele>716.9</ele>
        <time>2011-08-18T17:56:33Z</time>
      </trkpt>
      <trkpt lat="41.795696" lon="2.064825">
        <ele>716.7</ele>
        <time>2011-08-18T17:56:33Z</time>
      </trkpt>
      <trkpt lat="41.795699" lon="2.064641">
        <ele>715.0</ele>
        <time>2011-08-18T17:56:33Z</time>
      </trkpt>
      <trkpt lat="41.795713" lon="2.064476">
        <ele>713.6</ele>
        <time>2011-08-18T17:56:33Z</time>
      </trkpt>
      <trkpt lat="41.795717" lon="2.064290">
        <ele>711.9</ele>
        <time>2011-08-18T17:56:33Z</time>
      </trkpt>
      <trkpt lat="41.795718" lon="2.064117">
        <ele>710.3</ele>
        <time>2011-08-18T17:56:33Z</time>
      </trkpt>
      <trkpt lat="41.795723" lon="2.063950">
        <ele>708.9</ele>
        <time>2011-08-18T17:56:33Z</time>
      </trkpt>
      <trkpt lat="41.795737" lon="2.063817">
        <ele>707.9</ele>
        <time>2011-08-18T17:56:33Z</time>
      </trkpt>
      <trkpt lat="41.795742" lon="2.063678">
        <ele>707.5</ele>
        <time>2011-08-18T17:56:33Z</time>
      </trkpt>
      <trkpt lat="41.795754" lon="2.063548">
        <ele>707.8</ele>
        <time>2011-08-18T17:56:33Z</time>
      </trkpt>
      <trkpt lat="41.795748" lon="2.063384">
        <ele>708.1</ele>
        <time>2011-08-18T17:56:33Z</time>
      </trkpt>
      <trkpt lat="41.795721" lon="2.063226">
        <ele>708.6</ele>
        <time>2011-08-18T17:56:33Z</time>
      </trkpt>
      <trkpt lat="41.795716" lon="2.063065">
        <ele>709.3</ele>
        <time>2011-08-18T17:56:33Z</time>
      </trkpt>
      <trkpt lat="41.795683" lon="2.062918">
        <ele>710.1</ele>
        <time>2011-08-18T17:56:33Z</time>
      </trkpt>
      <trkpt lat="41.795637" lon="2.062797">
        <ele>710.9</ele>
        <time>2011-08-18T17:56:33Z</time>
      </trkpt>
      <trkpt lat="41.795583" lon="2.062651">
        <ele>711.5</ele>
        <time>2011-08-18T17:56:33Z</time>
      </trkpt>
      <trkpt lat="41.795523" lon="2.062530">
        <ele>711.6</ele>
        <time>2011-08-18T17:56:33Z</time>
      </trkpt>
      <trkpt lat="41.795455" lon="2.062441">
        <ele>712.0</ele>
        <time>2011-08-18T17:56:33Z</time>
      </trkpt>
      <trkpt lat="41.795384" lon="2.062314">
        <ele>713.9</ele>
        <time>2011-08-18T17:56:33Z</time>
      </trkpt>
      <trkpt lat="41.795328" lon="2.062193">
        <ele>713.2</ele>
        <time>2011-08-18T17:56:33Z</time>
      </trkpt>
      <trkpt lat="41.795254" lon="2.062013">
        <ele>713.5</ele>
        <time>2011-08-18T17:56:33Z</time>
      </trkpt>
      <trkpt lat="41.795141" lon="2.061916">
        <ele>714.2</ele>
        <time>2011-08-18T17:56:33Z</time>
      </trkpt>
      <trkpt lat="41.795046" lon="2.061850">
        <ele>714.6</ele>
        <time>2011-08-18T17:56:33Z</time>
      </trkpt>
      <trkpt lat="41.794943" lon="2.061775">
        <ele>715.5</ele>
        <time>2011-08-18T17:56:33Z</time>
      </trkpt>
      <trkpt lat="41.794839" lon="2.061694">
        <ele>717.5</ele>
        <time>2011-08-18T17:56:33Z</time>
      </trkpt>
      <trkpt lat="41.794733" lon="2.061634">
        <ele>718.1</ele>
        <time>2011-08-18T17:56:33Z</time>
      </trkpt>
      <trkpt lat="41.794647" lon="2.061584">
        <ele>718.2</ele>
        <time>2011-08-18T17:56:33Z</time>
      </trkpt>
      <trkpt lat="41.794600" lon="2.061514">
        <ele>718.4</ele>
        <time>2011-08-18T17:56:33Z</time>
      </trkpt>
      <trkpt lat="41.794572" lon="2.061390">
        <ele>719.5</ele>
        <time>2011-08-18T17:56:33Z</time>
      </trkpt>
      <trkpt lat="41.794509" lon="2.061261">
        <ele>719.3</ele>
        <time>2011-08-18T17:56:33Z</time>
      </trkpt>
      <trkpt lat="41.794451" lon="2.061148">
        <ele>719.0</ele>
        <time>2011-08-18T17:56:33Z</time>
      </trkpt>
      <trkpt lat="41.794402" lon="2.061053">
        <ele>719.2</ele>
        <time>2011-08-18T17:56:33Z</time>
      </trkpt>
      <trkpt lat="41.794352" lon="2.060963">
        <ele>719.7</ele>
        <time>2011-08-18T17:56:33Z</time>
      </trkpt>
      <trkpt lat="41.794277" lon="2.060865">
        <ele>720.2</ele>
        <time>2011-08-18T17:56:33Z</time>
      </trkpt>
      <trkpt lat="41.794194" lon="2.060807">
        <ele>719.9</ele>
        <time>2011-08-18T17:56:33Z</time>
      </trkpt>
      <trkpt lat="41.794114" lon="2.060763">
        <ele>719.1</ele>
        <time>2011-08-18T17:56:33Z</time>
      </trkpt>
      <trkpt lat="41.794060" lon="2.060693">
        <ele>719.1</ele>
        <time>2011-08-18T17:56:33Z</time>
      </trkpt>
      <trkpt lat="41.793998" lon="2.060586">
        <ele>719.2</ele>
        <time>2011-08-18T17:56:33Z</time>
      </trkpt>
      <trkpt lat="41.793974" lon="2.060465">
        <ele>719.3</ele>
        <time>2011-08-18T17:56:33Z</time>
      </trkpt>
      <trkpt lat="41.793955" lon="2.060259">
        <ele>718.1</ele>
        <time>2011-08-18T17:56:33Z</time>
      </trkpt>
      <trkpt lat="41.793952" lon="2.060126">
        <ele>717.4</ele>
        <time>2011-08-18T17:56:33Z</time>
      </trkpt>
      <trkpt lat="41.793938" lon="2.059982">
        <ele>716.3</ele>
        <time>2011-08-18T17:56:33Z</time>
      </trkpt>
      <trkpt lat="41.793917" lon="2.059795">
        <ele>714.8</ele>
        <time>2011-08-18T17:56:33Z</time>
      </trkpt>
      <trkpt lat="41.793869" lon="2.059573">
        <ele>714.3</ele>
        <time>2011-08-18T17:56:33Z</time>
      </trkpt>
      <trkpt lat="41.793816" lon="2.059373">
        <ele>713.6</ele>
        <time>2011-08-18T17:56:33Z</time>
      </trkpt>
      <trkpt lat="41.793750" lon="2.059215">
        <ele>712.8</ele>
        <time>2011-08-18T17:56:33Z</time>
      </trkpt>
      <trkpt lat="41.793672" lon="2.059047">
        <ele>712.5</ele>
        <time>2011-08-18T17:56:33Z</time>
      </trkpt>
      <trkpt lat="41.793588" lon="2.058844">
        <ele>712.2</ele>
        <time>2011-08-18T17:56:33Z</time>
      </trkpt>
      <trkpt lat="41.793506" lon="2.058687">
        <ele>712.0</ele>
        <time>2011-08-18T17:56:33Z</time>
      </trkpt>
      <trkpt lat="41.793390" lon="2.058490">
        <ele>711.0</ele>
        <time>2011-08-18T17:56:33Z</time>
      </trkpt>
      <trkpt lat="41.793296" lon="2.058342">
        <ele>710.9</ele>
        <time>2011-08-18T17:56:33Z</time>
      </trkpt>
      <trkpt lat="41.793232" lon="2.058255">
        <ele>710.8</ele>
        <time>2011-08-18T17:56:33Z</time>
      </trkpt>
      <trkpt lat="41.793176" lon="2.058143">
        <ele>711.0</ele>
        <time>2011-08-18T17:56:33Z</time>
      </trkpt>
      <trkpt lat="41.793141" lon="2.058039">
        <ele>711.2</ele>
        <time>2011-08-18T17:56:33Z</time>
      </trkpt>
      <trkpt lat="41.793087" lon="2.057898">
        <ele>711.8</ele>
        <time>2011-08-18T17:56:33Z</time>
      </trkpt>
      <trkpt lat="41.793035" lon="2.057755">
        <ele>712.4</ele>
        <time>2011-08-18T17:56:33Z</time>
      </trkpt>
      <trkpt lat="41.793002" lon="2.057611">
        <ele>713.2</ele>
        <time>2011-08-18T17:56:33Z</time>
      </trkpt>
      <trkpt lat="41.792952" lon="2.057447">
        <ele>714.7</ele>
        <time>2011-08-18T17:56:33Z</time>
      </trkpt>
      <trkpt lat="41.792893" lon="2.057276">
        <ele>716.0</ele>
        <time>2011-08-18T17:56:33Z</time>
      </trkpt>
      <trkpt lat="41.792845" lon="2.057124">
        <ele>715.4</ele>
        <time>2011-08-18T17:56:33Z</time>
      </trkpt>
      <trkpt lat="41.792804" lon="2.057003">
        <ele>714.6</ele>
        <time>2011-08-18T17:56:33Z</time>
      </trkpt>
      <trkpt lat="41.792756" lon="2.056825">
        <ele>712.8</ele>
        <time>2011-08-18T17:56:33Z</time>
      </trkpt>
      <trkpt lat="41.792734" lon="2.056681">
        <ele>711.0</ele>
        <time>2011-08-18T17:56:33Z</time>
      </trkpt>
      <trkpt lat="41.792694" lon="2.056509">
        <ele>709.1</ele>
        <time>2011-08-18T17:56:33Z</time>
      </trkpt>
      <trkpt lat="41.792638" lon="2.056335">
        <ele>707.7</ele>
        <time>2011-08-18T17:56:33Z</time>
      </trkpt>
      <trkpt lat="41.792576" lon="2.056220">
        <ele>706.7</ele>
        <time>2011-08-18T17:56:33Z</time>
      </trkpt>
      <trkpt lat="41.792505" lon="2.056122">
        <ele>705.9</ele>
        <time>2011-08-18T17:56:33Z</time>
      </trkpt>
      <trkpt lat="41.792417" lon="2.056024">
        <ele>705.2</ele>
        <time>2011-08-18T17:56:33Z</time>
      </trkpt>
      <trkpt lat="41.792341" lon="2.055957">
        <ele>704.9</ele>
        <time>2011-08-18T17:56:33Z</time>
      </trkpt>
      <trkpt lat="41.792270" lon="2.055924">
        <ele>704.1</ele>
        <time>2011-08-18T17:56:33Z</time>
      </trkpt>
      <trkpt lat="41.792176" lon="2.055829">
        <ele>703.1</ele>
        <time>2011-08-18T17:56:33Z</time>
      </trkpt>
      <trkpt lat="41.792117" lon="2.055751">
        <ele>702.7</ele>
        <time>2011-08-18T17:56:33Z</time>
      </trkpt>
      <trkpt lat="41.792063" lon="2.055667">
        <ele>702.4</ele>
        <time>2011-08-18T17:56:33Z</time>
      </trkpt>
      <trkpt lat="41.792030" lon="2.055535">
        <ele>702.4</ele>
        <time>2011-08-18T17:56:33Z</time>
      </trkpt>
      <trkpt lat="41.792033" lon="2.055404">
        <ele>701.3</ele>
        <time>2011-08-18T17:56:33Z</time>
      </trkpt>
      <trkpt lat="41.792030" lon="2.055212">
        <ele>698.8</ele>
        <time>2011-08-18T17:56:33Z</time>
      </trkpt>
      <trkpt lat="41.792011" lon="2.055079">
        <ele>697.4</ele>
        <time>2011-08-18T17:56:33Z</time>
      </trkpt>
      <trkpt lat="41.791989" lon="2.054913">
        <ele>696.2</ele>
        <time>2011-08-18T17:56:33Z</time>
      </trkpt>
      <trkpt lat="41.791962" lon="2.054744">
        <ele>695.5</ele>
        <time>2011-08-18T17:56:33Z</time>
      </trkpt>
      <trkpt lat="41.791918" lon="2.054577">
        <ele>696.1</ele>
        <time>2011-08-18T17:56:33Z</time>
      </trkpt>
      <trkpt lat="41.791862" lon="2.054423">
        <ele>696.7</ele>
        <time>2011-08-18T17:56:33Z</time>
      </trkpt>
      <trkpt lat="41.791787" lon="2.054265">
        <ele>699.0</ele>
        <time>2011-08-18T17:56:33Z</time>
      </trkpt>
      <trkpt lat="41.791714" lon="2.054119">
        <ele>700.3</ele>
        <time>2011-08-18T17:56:33Z</time>
      </trkpt>
      <trkpt lat="41.791631" lon="2.054010">
        <ele>700.9</ele>
        <time>2011-08-18T17:56:33Z</time>
      </trkpt>
      <trkpt lat="41.791580" lon="2.053901">
        <ele>702.0</ele>
        <time>2011-08-18T17:56:33Z</time>
      </trkpt>
      <trkpt lat="41.791519" lon="2.053838">
        <ele>702.7</ele>
        <time>2011-08-18T17:56:33Z</time>
      </trkpt>
      <trkpt lat="41.791460" lon="2.053761">
        <ele>703.0</ele>
        <time>2011-08-18T17:56:33Z</time>
      </trkpt>
      <trkpt lat="41.791377" lon="2.053625">
        <ele>702.8</ele>
        <time>2011-08-18T17:56:33Z</time>
      </trkpt>
      <trkpt lat="41.791312" lon="2.053542">
        <ele>702.3</ele>
        <time>2011-08-18T17:56:33Z</time>
      </trkpt>
      <trkpt lat="41.791257" lon="2.053429">
        <ele>702.4</ele>
        <time>2011-08-18T17:56:33Z</time>
      </trkpt>
      <trkpt lat="41.791237" lon="2.053312">
        <ele>702.9</ele>
        <time>2011-08-18T17:56:33Z</time>
      </trkpt>
      <trkpt lat="41.791248" lon="2.053161">
        <ele>703.0</ele>
        <time>2011-08-18T17:56:33Z</time>
      </trkpt>
      <trkpt lat="41.791251" lon="2.053015">
        <ele>703.1</ele>
        <time>2011-08-18T17:56:33Z</time>
      </trkpt>
      <trkpt lat="41.791267" lon="2.052853">
        <ele>703.0</ele>
        <time>2011-08-18T17:56:33Z</time>
      </trkpt>
      <trkpt lat="41.791278" lon="2.052727">
        <ele>702.9</ele>
        <time>2011-08-18T17:56:33Z</time>
      </trkpt>
      <trkpt lat="41.791254" lon="2.052633">
        <ele>702.3</ele>
        <time>2011-08-18T17:56:33Z</time>
      </trkpt>
      <trkpt lat="41.791216" lon="2.052488">
        <ele>702.4</ele>
        <time>2011-08-18T17:56:33Z</time>
      </trkpt>
      <trkpt lat="41.791173" lon="2.052391">
        <ele>702.2</ele>
        <time>2011-08-18T17:56:33Z</time>
      </trkpt>
      <trkpt lat="41.791126" lon="2.052289">
        <ele>701.9</ele>
        <time>2011-08-18T17:56:33Z</time>
      </trkpt>
      <trkpt lat="41.791075" lon="2.052161">
        <ele>701.0</ele>
        <time>2011-08-18T17:56:33Z</time>
      </trkpt>
      <trkpt lat="41.791022" lon="2.052016">
        <ele>700.0</ele>
        <time>2011-08-18T17:56:33Z</time>
      </trkpt>
      <trkpt lat="41.791012" lon="2.051916">
        <ele>699.9</ele>
        <time>2011-08-18T17:56:33Z</time>
      </trkpt>
      <trkpt lat="41.791007" lon="2.051779">
        <ele>699.1</ele>
        <time>2011-08-18T17:56:33Z</time>
      </trkpt>
      <trkpt lat="41.791025" lon="2.051679">
        <ele>698.9</ele>
        <time>2011-08-18T17:56:33Z</time>
      </trkpt>
      <trkpt lat="41.791055" lon="2.051575">
        <ele>698.9</ele>
        <time>2011-08-18T17:56:33Z</time>
      </trkpt>
      <trkpt lat="41.791090" lon="2.051485">
        <ele>699.0</ele>
        <time>2011-08-18T17:56:33Z</time>
      </trkpt>
      <trkpt lat="41.791121" lon="2.051384">
        <ele>698.9</ele>
        <time>2011-08-18T17:56:33Z</time>
      </trkpt>
      <trkpt lat="41.791153" lon="2.051269">
        <ele>698.9</ele>
        <time>2011-08-18T17:56:33Z</time>
      </trkpt>
      <trkpt lat="41.791159" lon="2.051140">
        <ele>698.3</ele>
        <time>2011-08-18T17:56:33Z</time>
      </trkpt>
      <trkpt lat="41.791159" lon="2.050970">
        <ele>697.4</ele>
        <time>2011-08-18T17:56:33Z</time>
      </trkpt>
      <trkpt lat="41.791139" lon="2.050828">
        <ele>696.1</ele>
        <time>2011-08-18T17:56:33Z</time>
      </trkpt>
      <trkpt lat="41.791132" lon="2.050700">
        <ele>695.7</ele>
        <time>2011-08-18T17:56:33Z</time>
      </trkpt>
      <trkpt lat="41.791101" lon="2.050530">
        <ele>694.9</ele>
        <time>2011-08-18T17:56:33Z</time>
      </trkpt>
      <trkpt lat="41.791079" lon="2.050399">
        <ele>694.5</ele>
        <time>2011-08-18T17:56:33Z</time>
      </trkpt>
      <trkpt lat="41.791045" lon="2.050262">
        <ele>694.4</ele>
        <time>2011-08-18T17:56:33Z</time>
      </trkpt>
      <trkpt lat="41.791013" lon="2.050176">
        <ele>694.4</ele>
        <time>2011-08-18T17:56:33Z</time>
      </trkpt>
      <trkpt lat="41.790972" lon="2.050102">
        <ele>694.2</ele>
        <time>2011-08-18T17:56:33Z</time>
      </trkpt>
      <trkpt lat="41.790923" lon="2.049974">
        <ele>693.4</ele>
        <time>2011-08-18T17:56:33Z</time>
      </trkpt>
      <trkpt lat="41.790887" lon="2.049877">
        <ele>692.4</ele>
        <time>2011-08-18T17:56:33Z</time>
      </trkpt>
      <trkpt lat="41.790852" lon="2.049757">
        <ele>691.5</ele>
        <time>2011-08-18T17:56:33Z</time>
      </trkpt>
      <trkpt lat="41.790810" lon="2.049615">
        <ele>690.8</ele>
        <time>2011-08-18T17:56:33Z</time>
      </trkpt>
      <trkpt lat="41.790742" lon="2.049541">
        <ele>689.6</ele>
        <time>2011-08-18T17:56:33Z</time>
      </trkpt>
      <trkpt lat="41.790640" lon="2.049375">
        <ele>688.7</ele>
        <time>2011-08-18T17:56:33Z</time>
      </trkpt>
      <trkpt lat="41.790547" lon="2.049242">
        <ele>686.0</ele>
        <time>2011-08-18T17:56:33Z</time>
      </trkpt>
      <trkpt lat="41.790471" lon="2.049134">
        <ele>684.6</ele>
        <time>2011-08-18T17:56:33Z</time>
      </trkpt>
      <trkpt lat="41.790408" lon="2.049029">
        <ele>684.1</ele>
        <time>2011-08-18T17:56:33Z</time>
      </trkpt>
      <trkpt lat="41.790353" lon="2.048955">
        <ele>682.9</ele>
        <time>2011-08-18T17:56:33Z</time>
      </trkpt>
      <trkpt lat="41.790329" lon="2.048869">
        <ele>683.0</ele>
        <time>2011-08-18T17:56:33Z</time>
      </trkpt>
      <trkpt lat="41.790282" lon="2.048766">
        <ele>682.8</ele>
        <time>2011-08-18T17:56:33Z</time>
      </trkpt>
      <trkpt lat="41.790191" lon="2.048672">
        <ele>681.6</ele>
        <time>2011-08-18T17:56:33Z</time>
      </trkpt>
      <trkpt lat="41.790099" lon="2.048607">
        <ele>680.3</ele>
        <time>2011-08-18T17:56:33Z</time>
      </trkpt>
      <trkpt lat="41.790013" lon="2.048527">
        <ele>680.1</ele>
        <time>2011-08-18T17:56:33Z</time>
      </trkpt>
      <trkpt lat="41.789920" lon="2.048464">
        <ele>679.8</ele>
        <time>2011-08-18T17:56:33Z</time>
      </trkpt>
      <trkpt lat="41.789840" lon="2.048429">
        <ele>679.4</ele>
        <time>2011-08-18T17:56:33Z</time>
      </trkpt>
      <trkpt lat="41.789771" lon="2.048374">
        <ele>679.5</ele>
        <time>2011-08-18T17:56:33Z</time>
      </trkpt>
      <trkpt lat="41.789696" lon="2.048336">
        <ele>678.9</ele>
        <time>2011-08-18T17:56:33Z</time>
      </trkpt>
      <trkpt lat="41.789622" lon="2.048293">
        <ele>678.4</ele>
        <time>2011-08-18T17:56:33Z</time>
      </trkpt>
      <trkpt lat="41.789530" lon="2.048230">
        <ele>677.9</ele>
        <time>2011-08-18T17:56:33Z</time>
      </trkpt>
      <trkpt lat="41.789458" lon="2.048153">
        <ele>677.5</ele>
        <time>2011-08-18T17:56:33Z</time>
      </trkpt>
      <trkpt lat="41.789370" lon="2.048112">
        <ele>675.3</ele>
        <time>2011-08-18T17:56:33Z</time>
      </trkpt>
      <trkpt lat="41.789284" lon="2.048094">
        <ele>673.0</ele>
        <time>2011-08-18T17:56:33Z</time>
      </trkpt>
      <trkpt lat="41.789229" lon="2.048025">
        <ele>673.0</ele>
        <time>2011-08-18T17:56:33Z</time>
      </trkpt>
      <trkpt lat="41.789176" lon="2.047947">
        <ele>673.0</ele>
        <time>2011-08-18T17:56:33Z</time>
      </trkpt>
      <trkpt lat="41.789119" lon="2.047881">
        <ele>671.8</ele>
        <time>2011-08-18T17:56:33Z</time>
      </trkpt>
      <trkpt lat="41.789029" lon="2.047899">
        <ele>670.7</ele>
        <time>2011-08-18T17:56:33Z</time>
      </trkpt>
      <trkpt lat="41.788978" lon="2.047942">
        <ele>670.9</ele>
        <time>2011-08-18T17:56:33Z</time>
      </trkpt>
      <trkpt lat="41.788934" lon="2.048023">
        <ele>670.2</ele>
        <time>2011-08-18T17:56:33Z</time>
      </trkpt>
      <trkpt lat="41.788885" lon="2.048122">
        <ele>669.0</ele>
        <time>2011-08-18T17:56:33Z</time>
      </trkpt>
      <trkpt lat="41.788821" lon="2.048226">
        <ele>668.0</ele>
        <time>2011-08-18T17:56:33Z</time>
      </trkpt>
      <trkpt lat="41.788740" lon="2.048328">
        <ele>667.3</ele>
        <time>2011-08-18T17:56:33Z</time>
      </trkpt>
      <trkpt lat="41.788674" lon="2.048424">
        <ele>665.7</ele>
        <time>2011-08-18T17:56:33Z</time>
      </trkpt>
      <trkpt lat="41.788598" lon="2.048498">
        <ele>665.2</ele>
        <time>2011-08-18T17:56:33Z</time>
      </trkpt>
      <trkpt lat="41.788538" lon="2.048563">
        <ele>664.9</ele>
        <time>2011-08-18T17:56:33Z</time>
      </trkpt>
      <trkpt lat="41.788480" lon="2.048639">
        <ele>664.6</ele>
        <time>2011-08-18T17:56:33Z</time>
      </trkpt>
      <trkpt lat="41.788418" lon="2.048715">
        <ele>664.6</ele>
        <time>2011-08-18T17:56:33Z</time>
      </trkpt>
      <trkpt lat="41.788351" lon="2.048789">
        <ele>664.4</ele>
        <time>2011-08-18T17:56:33Z</time>
      </trkpt>
      <trkpt lat="41.788292" lon="2.048910">
        <ele>662.9</ele>
        <time>2011-08-18T17:56:33Z</time>
      </trkpt>
      <trkpt lat="41.788230" lon="2.048983">
        <ele>663.0</ele>
        <time>2011-08-18T17:56:33Z</time>
      </trkpt>
      <trkpt lat="41.788153" lon="2.049063">
        <ele>662.7</ele>
        <time>2011-08-18T17:56:33Z</time>
      </trkpt>
      <trkpt lat="41.788084" lon="2.049106">
        <ele>662.7</ele>
        <time>2011-08-18T17:56:33Z</time>
      </trkpt>
      <trkpt lat="41.788007" lon="2.049137">
        <ele>663.3</ele>
        <time>2011-08-18T17:56:33Z</time>
      </trkpt>
      <trkpt lat="41.787960" lon="2.049205">
        <ele>661.9</ele>
        <time>2011-08-18T17:56:33Z</time>
      </trkpt>
      <trkpt lat="41.787908" lon="2.049301">
        <ele>659.9</ele>
        <time>2011-08-18T17:56:33Z</time>
      </trkpt>
      <trkpt lat="41.787868" lon="2.049416">
        <ele>657.2</ele>
        <time>2011-08-18T17:56:33Z</time>
      </trkpt>
      <trkpt lat="41.787822" lon="2.049520">
        <ele>655.2</ele>
        <time>2011-08-18T17:56:33Z</time>
      </trkpt>
      <trkpt lat="41.787763" lon="2.049627">
        <ele>653.4</ele>
        <time>2011-08-18T17:56:33Z</time>
      </trkpt>
      <trkpt lat="41.787738" lon="2.049716">
        <ele>651.2</ele>
        <time>2011-08-18T17:56:33Z</time>
      </trkpt>
      <trkpt lat="41.787672" lon="2.049829">
        <ele>648.7</ele>
        <time>2011-08-18T17:56:33Z</time>
      </trkpt>
      <trkpt lat="41.787634" lon="2.049941">
        <ele>645.8</ele>
        <time>2011-08-18T17:56:33Z</time>
      </trkpt>
      <trkpt lat="41.787612" lon="2.050068">
        <ele>642.7</ele>
        <time>2011-08-18T17:56:33Z</time>
      </trkpt>
      <trkpt lat="41.787600" lon="2.050126">
        <ele>641.3</ele>
        <time>2011-08-18T17:56:33Z</time>
      </trkpt>
      <trkpt lat="41.787546" lon="2.050183">
        <ele>640.4</ele>
        <time>2011-08-18T17:56:33Z</time>
      </trkpt>
      <trkpt lat="41.787478" lon="2.050256">
        <ele>639.5</ele>
        <time>2011-08-18T17:56:33Z</time>
      </trkpt>
      <trkpt lat="41.787447" lon="2.050369">
        <ele>637.7</ele>
        <time>2011-08-18T17:56:33Z</time>
      </trkpt>
      <trkpt lat="41.787440" lon="2.050497">
        <ele>635.3</ele>
        <time>2011-08-18T17:56:33Z</time>
      </trkpt>
      <trkpt lat="41.787463" lon="2.050583">
        <ele>633.8</ele>
        <time>2011-08-18T17:56:33Z</time>
      </trkpt>
      <trkpt lat="41.787522" lon="2.050602">
        <ele>632.5</ele>
        <time>2011-08-18T17:56:33Z</time>
      </trkpt>
      <trkpt lat="41.787603" lon="2.050578">
        <ele>631.3</ele>
        <time>2011-08-18T17:56:33Z</time>
      </trkpt>
      <trkpt lat="41.787674" lon="2.050522">
        <ele>631.2</ele>
        <time>2011-08-18T17:56:33Z</time>
      </trkpt>
      <trkpt lat="41.787786" lon="2.050428">
        <ele>630.6</ele>
        <time>2011-08-18T17:56:33Z</time>
      </trkpt>
      <trkpt lat="41.787900" lon="2.050337">
        <ele>629.2</ele>
        <time>2011-08-18T17:56:33Z</time>
      </trkpt>
      <trkpt lat="41.787998" lon="2.050243">
        <ele>628.3</ele>
        <time>2011-08-18T17:56:33Z</time>
      </trkpt>
      <trkpt lat="41.788099" lon="2.050164">
        <ele>627.7</ele>
        <time>2011-08-18T17:56:33Z</time>
      </trkpt>
      <trkpt lat="41.788201" lon="2.050089">
        <ele>627.4</ele>
        <time>2011-08-18T17:56:33Z</time>
      </trkpt>
      <trkpt lat="41.788305" lon="2.050057">
        <ele>626.3</ele>
        <time>2011-08-18T17:56:33Z</time>
      </trkpt>
      <trkpt lat="41.788382" lon="2.050028">
        <ele>626.0</ele>
        <time>2011-08-18T17:56:33Z</time>
      </trkpt>
      <trkpt lat="41.788562" lon="2.049998">
        <ele>624.7</ele>
        <time>2011-08-18T17:56:33Z</time>
      </trkpt>
      <trkpt lat="41.788671" lon="2.050002">
        <ele>624.5</ele>
        <time>2011-08-18T17:56:33Z</time>
      </trkpt>
      <trkpt lat="41.788756" lon="2.050000">
        <ele>624.5</ele>
        <time>2011-08-18T17:56:33Z</time>
      </trkpt>
      <trkpt lat="41.788818" lon="2.050080">
        <ele>624.1</ele>
        <time>2011-08-18T17:56:33Z</time>
      </trkpt>
      <trkpt lat="41.788848" lon="2.050175">
        <ele>624.6</ele>
        <time>2011-08-18T17:56:33Z</time>
      </trkpt>
      <trkpt lat="41.788834" lon="2.050295">
        <ele>625.5</ele>
        <time>2011-08-18T17:56:33Z</time>
      </trkpt>
      <trkpt lat="41.788781" lon="2.050444">
        <ele>625.4</ele>
        <time>2011-08-18T17:56:33Z</time>
      </trkpt>
      <trkpt lat="41.788724" lon="2.050623">
        <ele>626.0</ele>
        <time>2011-08-18T17:56:33Z</time>
      </trkpt>
      <trkpt lat="41.788675" lon="2.050808">
        <ele>626.9</ele>
        <time>2011-08-18T17:56:33Z</time>
      </trkpt>
      <trkpt lat="41.788648" lon="2.051015">
        <ele>627.9</ele>
        <time>2011-08-18T17:56:33Z</time>
      </trkpt>
      <trkpt lat="41.788654" lon="2.051214">
        <ele>629.7</ele>
        <time>2011-08-18T17:56:33Z</time>
      </trkpt>
      <trkpt lat="41.788659" lon="2.051373">
        <ele>629.4</ele>
        <time>2011-08-18T17:56:33Z</time>
      </trkpt>
      <trkpt lat="41.788677" lon="2.051498">
        <ele>629.7</ele>
        <time>2011-08-18T17:56:33Z</time>
      </trkpt>
      <trkpt lat="41.788701" lon="2.051596">
        <ele>630.2</ele>
        <time>2011-08-18T17:56:33Z</time>
      </trkpt>
      <trkpt lat="41.788735" lon="2.051729">
        <ele>630.2</ele>
        <time>2011-08-18T17:56:33Z</time>
      </trkpt>
      <trkpt lat="41.788795" lon="2.051882">
        <ele>630.4</ele>
        <time>2011-08-18T17:56:33Z</time>
      </trkpt>
      <trkpt lat="41.788863" lon="2.051984">
        <ele>629.1</ele>
        <time>2011-08-18T17:56:33Z</time>
      </trkpt>
      <trkpt lat="41.788923" lon="2.051983">
        <ele>629.5</ele>
        <time>2011-08-18T17:56:33Z</time>
      </trkpt>
      <trkpt lat="41.789025" lon="2.051970">
        <ele>630.5</ele>
        <time>2011-08-18T17:56:33Z</time>
      </trkpt>
      <trkpt lat="41.789132" lon="2.051958">
        <ele>632.1</ele>
        <time>2011-08-18T17:56:33Z</time>
      </trkpt>
      <trkpt lat="41.789205" lon="2.051979">
        <ele>632.7</ele>
        <time>2011-08-18T17:56:33Z</time>
      </trkpt>
      <trkpt lat="41.789285" lon="2.052042">
        <ele>632.6</ele>
        <time>2011-08-18T17:56:33Z</time>
      </trkpt>
      <trkpt lat="41.789355" lon="2.052119">
        <ele>632.6</ele>
        <time>2011-08-18T17:56:33Z</time>
      </trkpt>
      <trkpt lat="41.789426" lon="2.052177">
        <ele>634.1</ele>
        <time>2011-08-18T17:56:33Z</time>
      </trkpt>
      <trkpt lat="41.789513" lon="2.052259">
        <ele>635.7</ele>
        <time>2011-08-18T17:56:33Z</time>
      </trkpt>
      <trkpt lat="41.789570" lon="2.052348">
        <ele>636.3</ele>
        <time>2011-08-18T17:56:33Z</time>
      </trkpt>
      <trkpt lat="41.789600" lon="2.052462">
        <ele>635.8</ele>
        <time>2011-08-18T17:56:33Z</time>
      </trkpt>
      <trkpt lat="41.789633" lon="2.052598">
        <ele>635.4</ele>
        <time>2011-08-18T17:56:33Z</time>
      </trkpt>
      <trkpt lat="41.789621" lon="2.052746">
        <ele>634.9</ele>
        <time>2011-08-18T17:56:33Z</time>
      </trkpt>
      <trkpt lat="41.789585" lon="2.052887">
        <ele>634.3</ele>
        <time>2011-08-18T17:56:33Z</time>
      </trkpt>
      <trkpt lat="41.789552" lon="2.053029">
        <ele>633.8</ele>
        <time>2011-08-18T17:56:33Z</time>
      </trkpt>
      <trkpt lat="41.789508" lon="2.053172">
        <ele>632.6</ele>
        <time>2011-08-18T17:56:33Z</time>
      </trkpt>
      <trkpt lat="41.789471" lon="2.053321">
        <ele>631.7</ele>
        <time>2011-08-18T17:56:33Z</time>
      </trkpt>
      <trkpt lat="41.789439" lon="2.053430">
        <ele>630.5</ele>
        <time>2011-08-18T17:56:33Z</time>
      </trkpt>
      <trkpt lat="41.789394" lon="2.053576">
        <ele>628.9</ele>
        <time>2011-08-18T17:56:33Z</time>
      </trkpt>
      <trkpt lat="41.789358" lon="2.053725">
        <ele>627.9</ele>
        <time>2011-08-18T17:56:33Z</time>
      </trkpt>
      <trkpt lat="41.789338" lon="2.053839">
        <ele>626.9</ele>
        <time>2011-08-18T17:56:33Z</time>
      </trkpt>
      <trkpt lat="41.789359" lon="2.053951">
        <ele>627.4</ele>
        <time>2011-08-18T17:56:33Z</time>
      </trkpt>
      <trkpt lat="41.789417" lon="2.054059">
        <ele>629.4</ele>
        <time>2011-08-18T17:56:33Z</time>
      </trkpt>
      <trkpt lat="41.789433" lon="2.054195">
        <ele>629.2</ele>
        <time>2011-08-18T17:56:33Z</time>
      </trkpt>
      <trkpt lat="41.789436" lon="2.054374">
        <ele>628.2</ele>
        <time>2011-08-18T17:56:33Z</time>
      </trkpt>
      <trkpt lat="41.789445" lon="2.054494">
        <ele>627.7</ele>
        <time>2011-08-18T17:56:33Z</time>
      </trkpt>
      <trkpt lat="41.789451" lon="2.054614">
        <ele>627.0</ele>
        <time>2011-08-18T17:56:33Z</time>
      </trkpt>
      <trkpt lat="41.789485" lon="2.054748">
        <ele>626.8</ele>
        <time>2011-08-18T17:56:33Z</time>
      </trkpt>
      <trkpt lat="41.789527" lon="2.054814">
        <ele>626.9</ele>
        <time>2011-08-18T17:56:33Z</time>
      </trkpt>
      <trkpt lat="41.789509" lon="2.054906">
        <ele>623.1</ele>
        <time>2011-08-18T17:56:33Z</time>
      </trkpt>
      <trkpt lat="41.789462" lon="2.054960">
        <ele>620.2</ele>
        <time>2011-08-18T17:56:33Z</time>
      </trkpt>
      <trkpt lat="41.789380" lon="2.054956">
        <ele>618.8</ele>
        <time>2011-08-18T17:56:33Z</time>
      </trkpt>
      <trkpt lat="41.789309" lon="2.054907">
        <ele>618.8</ele>
        <time>2011-08-18T17:56:33Z</time>
      </trkpt>
      <trkpt lat="41.789243" lon="2.054824">
        <ele>620.5</ele>
        <time>2011-08-18T17:56:33Z</time>
      </trkpt>
      <trkpt lat="41.789190" lon="2.054743">
        <ele>619.5</ele>
        <time>2011-08-18T17:56:33Z</time>
      </trkpt>
      <trkpt lat="41.789154" lon="2.054649">
        <ele>618.6</ele>
        <time>2011-08-18T17:56:33Z</time>
      </trkpt>
      <trkpt lat="41.789120" lon="2.054510">
        <ele>617.7</ele>
        <time>2011-08-18T17:56:33Z</time>
      </trkpt>
      <trkpt lat="41.789121" lon="2.054418">
        <ele>617.8</ele>
        <time>2011-08-18T17:56:33Z</time>
      </trkpt>
      <trkpt lat="41.789114" lon="2.054303">
        <ele>617.7</ele>
        <time>2011-08-18T17:56:33Z</time>
      </trkpt>
      <trkpt lat="41.789050" lon="2.054176">
        <ele>615.5</ele>
        <time>2011-08-18T17:56:33Z</time>
      </trkpt>
      <trkpt lat="41.789012" lon="2.054096">
        <ele>613.8</ele>
        <time>2011-08-18T17:56:33Z</time>
      </trkpt>
      <trkpt lat="41.788946" lon="2.054013">
        <ele>611.0</ele>
        <time>2011-08-18T17:56:33Z</time>
      </trkpt>
      <trkpt lat="41.788912" lon="2.053927">
        <ele>609.5</ele>
        <time>2011-08-18T17:56:33Z</time>
      </trkpt>
      <trkpt lat="41.788882" lon="2.053832">
        <ele>608.0</ele>
        <time>2011-08-18T17:56:33Z</time>
      </trkpt>
      <trkpt lat="41.788906" lon="2.053717">
        <ele>608.7</ele>
        <time>2011-08-18T17:56:33Z</time>
      </trkpt>
      <trkpt lat="41.788943" lon="2.053594">
        <ele>608.6</ele>
        <time>2011-08-18T17:56:33Z</time>
      </trkpt>
      <trkpt lat="41.789013" lon="2.053465">
        <ele>609.7</ele>
        <time>2011-08-18T17:56:33Z</time>
      </trkpt>
      <trkpt lat="41.789066" lon="2.053346">
        <ele>610.1</ele>
        <time>2011-08-18T17:56:33Z</time>
      </trkpt>
      <trkpt lat="41.789103" lon="2.053245">
        <ele>611.0</ele>
        <time>2011-08-18T17:56:33Z</time>
      </trkpt>
      <trkpt lat="41.789122" lon="2.053055">
        <ele>610.7</ele>
        <time>2011-08-18T17:56:33Z</time>
      </trkpt>
      <trkpt lat="41.789142" lon="2.052901">
        <ele>611.5</ele>
        <time>2011-08-18T17:56:33Z</time>
      </trkpt>
      <trkpt lat="41.789114" lon="2.052773">
        <ele>609.8</ele>
        <time>2011-08-18T17:56:33Z</time>
      </trkpt>
      <trkpt lat="41.789077" lon="2.052651">
        <ele>608.1</ele>
        <time>2011-08-18T17:56:33Z</time>
      </trkpt>
      <trkpt lat="41.789012" lon="2.052596">
        <ele>609.9</ele>
        <time>2011-08-18T17:56:33Z</time>
      </trkpt>
      <trkpt lat="41.788903" lon="2.052603">
        <ele>609.3</ele>
        <time>2011-08-18T17:56:33Z</time>
      </trkpt>
      <trkpt lat="41.788810" lon="2.052652">
        <ele>607.2</ele>
        <time>2011-08-18T17:56:33Z</time>
      </trkpt>
      <trkpt lat="41.788682" lon="2.052651">
        <ele>607.3</ele>
        <time>2011-08-18T17:56:33Z</time>
      </trkpt>
      <trkpt lat="41.788579" lon="2.052625">
        <ele>608.1</ele>
        <time>2011-08-18T17:56:33Z</time>
      </trkpt>
      <trkpt lat="41.788516" lon="2.052564">
        <ele>609.0</ele>
        <time>2011-08-18T17:56:33Z</time>
      </trkpt>
      <trkpt lat="41.788434" lon="2.052445">
        <ele>608.6</ele>
        <time>2011-08-18T17:56:33Z</time>
      </trkpt>
      <trkpt lat="41.788343" lon="2.052293">
        <ele>608.1</ele>
        <time>2011-08-18T17:56:33Z</time>
      </trkpt>
      <trkpt lat="41.788294" lon="2.052191">
        <ele>607.1</ele>
        <time>2011-08-18T17:56:33Z</time>
      </trkpt>
      <trkpt lat="41.788245" lon="2.052055">
        <ele>606.5</ele>
        <time>2011-08-18T17:56:33Z</time>
      </trkpt>
      <trkpt lat="41.788202" lon="2.051907">
        <ele>606.2</ele>
        <time>2011-08-18T17:56:33Z</time>
      </trkpt>
      <trkpt lat="41.788183" lon="2.051740">
        <ele>606.0</ele>
        <time>2011-08-18T17:56:33Z</time>
      </trkpt>
      <trkpt lat="41.788157" lon="2.051559">
        <ele>605.6</ele>
        <time>2011-08-18T17:56:33Z</time>
      </trkpt>
      <trkpt lat="41.788166" lon="2.051363">
        <ele>606.9</ele>
        <time>2011-08-18T17:56:33Z</time>
      </trkpt>
      <trkpt lat="41.788167" lon="2.051224">
        <ele>607.7</ele>
        <time>2011-08-18T17:56:33Z</time>
      </trkpt>
      <trkpt lat="41.788141" lon="2.051151">
        <ele>607.7</ele>
        <time>2011-08-18T17:56:33Z</time>
      </trkpt>
      <trkpt lat="41.788086" lon="2.051119">
        <ele>606.7</ele>
        <time>2011-08-18T17:56:33Z</time>
      </trkpt>
      <trkpt lat="41.788022" lon="2.051167">
        <ele>603.8</ele>
        <time>2011-08-18T17:56:33Z</time>
      </trkpt>
      <trkpt lat="41.787969" lon="2.051263">
        <ele>601.4</ele>
        <time>2011-08-18T17:56:33Z</time>
      </trkpt>
      <trkpt lat="41.787927" lon="2.051330">
        <ele>602.1</ele>
        <time>2011-08-18T17:56:33Z</time>
      </trkpt>
      <trkpt lat="41.787880" lon="2.051437">
        <ele>602.0</ele>
        <time>2011-08-18T17:56:33Z</time>
      </trkpt>
      <trkpt lat="41.787819" lon="2.051567">
        <ele>601.0</ele>
        <time>2011-08-18T17:56:33Z</time>
      </trkpt>
      <trkpt lat="41.787765" lon="2.051671">
        <ele>600.1</ele>
        <time>2011-08-18T17:56:33Z</time>
      </trkpt>
      <trkpt lat="41.787711" lon="2.051750">
        <ele>599.8</ele>
        <time>2011-08-18T17:56:33Z</time>
      </trkpt>
      <trkpt lat="41.787662" lon="2.051848">
        <ele>600.9</ele>
        <time>2011-08-18T17:56:33Z</time>
      </trkpt>
      <trkpt lat="41.787615" lon="2.051966">
        <ele>601.4</ele>
        <time>2011-08-18T17:56:33Z</time>
      </trkpt>
      <trkpt lat="41.787570" lon="2.052087">
        <ele>602.2</ele>
        <time>2011-08-18T17:56:33Z</time>
      </trkpt>
      <trkpt lat="41.787519" lon="2.052210">
        <ele>603.3</ele>
        <time>2011-08-18T17:56:33Z</time>
      </trkpt>
      <trkpt lat="41.787459" lon="2.052343">
        <ele>604.1</ele>
        <time>2011-08-18T17:56:33Z</time>
      </trkpt>
      <trkpt lat="41.787383" lon="2.052433">
        <ele>604.1</ele>
        <time>2011-08-18T17:56:33Z</time>
      </trkpt>
      <trkpt lat="41.787308" lon="2.052484">
        <ele>604.7</ele>
        <time>2011-08-18T17:56:33Z</time>
      </trkpt>
      <trkpt lat="41.787245" lon="2.052516">
        <ele>605.5</ele>
        <time>2011-08-18T17:56:33Z</time>
      </trkpt>
      <trkpt lat="41.787106" lon="2.052546">
        <ele>606.0</ele>
        <time>2011-08-18T17:56:33Z</time>
      </trkpt>
      <trkpt lat="41.787012" lon="2.052606">
        <ele>605.0</ele>
        <time>2011-08-18T17:56:33Z</time>
      </trkpt>
      <trkpt lat="41.786950" lon="2.052671">
        <ele>604.7</ele>
        <time>2011-08-18T17:56:33Z</time>
      </trkpt>
      <trkpt lat="41.786886" lon="2.052750">
        <ele>602.4</ele>
        <time>2011-08-18T17:56:33Z</time>
      </trkpt>
      <trkpt lat="41.786792" lon="2.052791">
        <ele>600.0</ele>
        <time>2011-08-18T17:56:33Z</time>
      </trkpt>
      <trkpt lat="41.786698" lon="2.052801">
        <ele>598.7</ele>
        <time>2011-08-18T17:56:33Z</time>
      </trkpt>
      <trkpt lat="41.786591" lon="2.052755">
        <ele>597.5</ele>
        <time>2011-08-18T17:56:33Z</time>
      </trkpt>
      <trkpt lat="41.786499" lon="2.052700">
        <ele>596.0</ele>
        <time>2011-08-18T17:56:33Z</time>
      </trkpt>
      <trkpt lat="41.786388" lon="2.052674">
        <ele>593.0</ele>
        <time>2011-08-18T17:56:33Z</time>
      </trkpt>
      <trkpt lat="41.786281" lon="2.052692">
        <ele>590.1</ele>
        <time>2011-08-18T17:56:33Z</time>
      </trkpt>
      <trkpt lat="41.786236" lon="2.052763">
        <ele>588.3</ele>
        <time>2011-08-18T17:56:33Z</time>
      </trkpt>
      <trkpt lat="41.786212" lon="2.052841">
        <ele>587.2</ele>
        <time>2011-08-18T17:56:33Z</time>
      </trkpt>
      <trkpt lat="41.786216" lon="2.052922">
        <ele>586.8</ele>
        <time>2011-08-18T17:56:33Z</time>
      </trkpt>
      <trkpt lat="41.786253" lon="2.052997">
        <ele>587.1</ele>
        <time>2011-08-18T17:56:33Z</time>
      </trkpt>
      <trkpt lat="41.786326" lon="2.053041">
        <ele>588.1</ele>
        <time>2011-08-18T17:56:33Z</time>
      </trkpt>
      <trkpt lat="41.786415" lon="2.053126">
        <ele>587.3</ele>
        <time>2011-08-18T17:56:33Z</time>
      </trkpt>
      <trkpt lat="41.786486" lon="2.053228">
        <ele>585.5</ele>
        <time>2011-08-18T17:56:33Z</time>
      </trkpt>
      <trkpt lat="41.786575" lon="2.053297">
        <ele>585.4</ele>
        <time>2011-08-18T17:56:33Z</time>
      </trkpt>
      <trkpt lat="41.786663" lon="2.053334">
        <ele>586.0</ele>
        <time>2011-08-18T17:56:33Z</time>
      </trkpt>
      <trkpt lat="41.786766" lon="2.053375">
        <ele>583.8</ele>
        <time>2011-08-18T17:56:33Z</time>
      </trkpt>
      <trkpt lat="41.786887" lon="2.053384">
        <ele>582.2</ele>
        <time>2011-08-18T17:56:33Z</time>
      </trkpt>
      <trkpt lat="41.787049" lon="2.053315">
        <ele>581.7</ele>
        <time>2011-08-18T17:56:33Z</time>
      </trkpt>
      <trkpt lat="41.787176" lon="2.053260">
        <ele>581.1</ele>
        <time>2011-08-18T17:56:33Z</time>
      </trkpt>
      <trkpt lat="41.787264" lon="2.053225">
        <ele>580.7</ele>
        <time>2011-08-18T17:56:33Z</time>
      </trkpt>
      <trkpt lat="41.787351" lon="2.053201">
        <ele>580.0</ele>
        <time>2011-08-18T17:56:33Z</time>
      </trkpt>
      <trkpt lat="41.787470" lon="2.053175">
        <ele>578.9</ele>
        <time>2011-08-18T17:56:33Z</time>
      </trkpt>
      <trkpt lat="41.787575" lon="2.053170">
        <ele>577.2</ele>
        <time>2011-08-18T17:56:33Z</time>
      </trkpt>
      <trkpt lat="41.787648" lon="2.053144">
        <ele>576.5</ele>
        <time>2011-08-18T17:56:33Z</time>
      </trkpt>
      <trkpt lat="41.787771" lon="2.053103">
        <ele>575.7</ele>
        <time>2011-08-18T17:56:33Z</time>
      </trkpt>
      <trkpt lat="41.787871" lon="2.053104">
        <ele>575.7</ele>
        <time>2011-08-18T17:56:33Z</time>
      </trkpt>
      <trkpt lat="41.787936" lon="2.053176">
        <ele>575.3</ele>
        <time>2011-08-18T17:56:33Z</time>
      </trkpt>
      <trkpt lat="41.787956" lon="2.053340">
        <ele>574.4</ele>
        <time>2011-08-18T17:56:33Z</time>
      </trkpt>
      <trkpt lat="41.787945" lon="2.053475">
        <ele>575.3</ele>
        <time>2011-08-18T17:56:33Z</time>
      </trkpt>
      <trkpt lat="41.787879" lon="2.053604">
        <ele>575.7</ele>
        <time>2011-08-18T17:56:33Z</time>
      </trkpt>
      <trkpt lat="41.787805" lon="2.053686">
        <ele>574.5</ele>
        <time>2011-08-18T17:56:33Z</time>
      </trkpt>
      <trkpt lat="41.787750" lon="2.053715">
        <ele>573.1</ele>
        <time>2011-08-18T17:56:33Z</time>
      </trkpt>
      <trkpt lat="41.787699" lon="2.053796">
        <ele>572.9</ele>
        <time>2011-08-18T17:56:33Z</time>
      </trkpt>
      <trkpt lat="41.787630" lon="2.053859">
        <ele>572.2</ele>
        <time>2011-08-18T17:56:33Z</time>
      </trkpt>
      <trkpt lat="41.787562" lon="2.053927">
        <ele>571.1</ele>
        <time>2011-08-18T17:56:33Z</time>
      </trkpt>
      <trkpt lat="41.787489" lon="2.053923">
        <ele>568.5</ele>
        <time>2011-08-18T17:56:33Z</time>
      </trkpt>
      <trkpt lat="41.787420" lon="2.053887">
        <ele>566.7</ele>
        <time>2011-08-18T17:56:33Z</time>
      </trkpt>
      <trkpt lat="41.787350" lon="2.053827">
        <ele>565.5</ele>
        <time>2011-08-18T17:56:33Z</time>
      </trkpt>
      <trkpt lat="41.787254" lon="2.053814">
        <ele>564.4</ele>
        <time>2011-08-18T17:56:33Z</time>
      </trkpt>
      <trkpt lat="41.787162" lon="2.053827">
        <ele>564.3</ele>
        <time>2011-08-18T17:56:33Z</time>
      </trkpt>
      <trkpt lat="41.787104" lon="2.053886">
        <ele>564.3</ele>
        <time>2011-08-18T17:56:33Z</time>
      </trkpt>
      <trkpt lat="41.787046" lon="2.053937">
        <ele>563.9</ele>
        <time>2011-08-18T17:56:33Z</time>
      </trkpt>
      <trkpt lat="41.786975" lon="2.053980">
        <ele>563.1</ele>
        <time>2011-08-18T17:56:33Z</time>
      </trkpt>
      <trkpt lat="41.786902" lon="2.053984">
        <ele>563.1</ele>
        <time>2011-08-18T17:56:33Z</time>
      </trkpt>
      <trkpt lat="41.786817" lon="2.054033">
        <ele>562.1</ele>
        <time>2011-08-18T17:56:33Z</time>
      </trkpt>
      <trkpt lat="41.786748" lon="2.054067">
        <ele>561.4</ele>
        <time>2011-08-18T17:56:33Z</time>
      </trkpt>
      <trkpt lat="41.786652" lon="2.054111">
        <ele>560.6</ele>
        <time>2011-08-18T17:56:33Z</time>
      </trkpt>
      <trkpt lat="41.786571" lon="2.054115">
        <ele>559.8</ele>
        <time>2011-08-18T17:56:33Z</time>
      </trkpt>
      <trkpt lat="41.786487" lon="2.054088">
        <ele>559.7</ele>
        <time>2011-08-18T17:56:33Z</time>
      </trkpt>
      <trkpt lat="41.786416" lon="2.054025">
        <ele>560.2</ele>
        <time>2011-08-18T17:56:33Z</time>
      </trkpt>
      <trkpt lat="41.786353" lon="2.053981">
        <ele>560.1</ele>
        <time>2011-08-18T17:56:33Z</time>
      </trkpt>
      <trkpt lat="41.786283" lon="2.053924">
        <ele>560.0</ele>
        <time>2011-08-18T17:56:33Z</time>
      </trkpt>
      <trkpt lat="41.786205" lon="2.053838">
        <ele>559.9</ele>
        <time>2011-08-18T17:56:33Z</time>
      </trkpt>
      <trkpt lat="41.786127" lon="2.053767">
        <ele>559.6</ele>
        <time>2011-08-18T17:56:33Z</time>
      </trkpt>
      <trkpt lat="41.786035" lon="2.053729">
        <ele>559.6</ele>
        <time>2011-08-18T17:56:33Z</time>
      </trkpt>
      <trkpt lat="41.785943" lon="2.053766">
        <ele>557.9</ele>
        <time>2011-08-18T17:56:33Z</time>
      </trkpt>
      <trkpt lat="41.785854" lon="2.053824">
        <ele>556.6</ele>
        <time>2011-08-18T17:56:33Z</time>
      </trkpt>
      <trkpt lat="41.785773" lon="2.053867">
        <ele>555.7</ele>
        <time>2011-08-18T17:56:33Z</time>
      </trkpt>
      <trkpt lat="41.785712" lon="2.053884">
        <ele>555.3</ele>
        <time>2011-08-18T17:56:33Z</time>
      </trkpt>
      <trkpt lat="41.785672" lon="2.053857">
        <ele>555.3</ele>
        <time>2011-08-18T17:56:33Z</time>
      </trkpt>
      <trkpt lat="41.785638" lon="2.053765">
        <ele>555.4</ele>
        <time>2011-08-18T17:56:33Z</time>
      </trkpt>
      <trkpt lat="41.785619" lon="2.053665">
        <ele>554.8</ele>
        <time>2011-08-18T17:56:33Z</time>
      </trkpt>
      <trkpt lat="41.785609" lon="2.053570">
        <ele>554.3</ele>
        <time>2011-08-18T17:56:33Z</time>
      </trkpt>
      <trkpt lat="41.785597" lon="2.053378">
        <ele>553.5</ele>
        <time>2011-08-18T17:56:33Z</time>
      </trkpt>
      <trkpt lat="41.785577" lon="2.053155">
        <ele>553.2</ele>
        <time>2011-08-18T17:56:33Z</time>
      </trkpt>
      <trkpt lat="41.785550" lon="2.052963">
        <ele>552.4</ele>
        <time>2011-08-18T17:56:33Z</time>
      </trkpt>
      <trkpt lat="41.785509" lon="2.052796">
        <ele>551.4</ele>
        <time>2011-08-18T17:56:33Z</time>
      </trkpt>
      <trkpt lat="41.785479" lon="2.052670">
        <ele>550.4</ele>
        <time>2011-08-18T17:56:33Z</time>
      </trkpt>
      <trkpt lat="41.785474" lon="2.052576">
        <ele>549.5</ele>
        <time>2011-08-18T17:56:33Z</time>
      </trkpt>
      <trkpt lat="41.785500" lon="2.052444">
        <ele>548.9</ele>
        <time>2011-08-18T17:56:33Z</time>
      </trkpt>
      <trkpt lat="41.785541" lon="2.052334">
        <ele>548.6</ele>
        <time>2011-08-18T17:56:33Z</time>
      </trkpt>
      <trkpt lat="41.785596" lon="2.052233">
        <ele>549.1</ele>
        <time>2011-08-18T17:56:33Z</time>
      </trkpt>
      <trkpt lat="41.785648" lon="2.052107">
        <ele>549.3</ele>
        <time>2011-08-18T17:56:33Z</time>
      </trkpt>
      <trkpt lat="41.785699" lon="2.051961">
        <ele>548.9</ele>
        <time>2011-08-18T17:56:33Z</time>
      </trkpt>
      <trkpt lat="41.785741" lon="2.051835">
        <ele>549.0</ele>
        <time>2011-08-18T17:56:33Z</time>
      </trkpt>
      <trkpt lat="41.785765" lon="2.051703">
        <ele>548.5</ele>
        <time>2011-08-18T17:56:33Z</time>
      </trkpt>
      <trkpt lat="41.785792" lon="2.051582">
        <ele>548.3</ele>
        <time>2011-08-18T17:56:33Z</time>
      </trkpt>
      <trkpt lat="41.785782" lon="2.051437">
        <ele>548.2</ele>
        <time>2011-08-18T17:56:33Z</time>
      </trkpt>
      <trkpt lat="41.785754" lon="2.051312">
        <ele>547.7</ele>
        <time>2011-08-18T17:56:33Z</time>
      </trkpt>
      <trkpt lat="41.785688" lon="2.051179">
        <ele>548.0</ele>
        <time>2011-08-18T17:56:33Z</time>
      </trkpt>
      <trkpt lat="41.785635" lon="2.051130">
        <ele>548.2</ele>
        <time>2011-08-18T17:56:33Z</time>
      </trkpt>
      <trkpt lat="41.785532" lon="2.051073">
        <ele>547.8</ele>
        <time>2011-08-18T17:56:33Z</time>
      </trkpt>
      <trkpt lat="41.785390" lon="2.051008">
        <ele>546.1</ele>
        <time>2011-08-18T17:56:33Z</time>
      </trkpt>
      <trkpt lat="41.785297" lon="2.050942">
        <ele>544.9</ele>
        <time>2011-08-18T17:56:33Z</time>
      </trkpt>
      <trkpt lat="41.785228" lon="2.050854">
        <ele>545.0</ele>
        <time>2011-08-18T17:56:33Z</time>
      </trkpt>
      <trkpt lat="41.785143" lon="2.050743">
        <ele>545.4</ele>
        <time>2011-08-18T17:56:33Z</time>
      </trkpt>
      <trkpt lat="41.785073" lon="2.050635">
        <ele>545.6</ele>
        <time>2011-08-18T17:56:33Z</time>
      </trkpt>
      <trkpt lat="41.785010" lon="2.050525">
        <ele>545.7</ele>
        <time>2011-08-18T17:56:33Z</time>
      </trkpt>
      <trkpt lat="41.784946" lon="2.050414">
        <ele>546.2</ele>
        <time>2011-08-18T17:56:33Z</time>
      </trkpt>
      <trkpt lat="41.784893" lon="2.050317">
        <ele>546.4</ele>
        <time>2011-08-18T17:56:33Z</time>
      </trkpt>
      <trkpt lat="41.784821" lon="2.050176">
        <ele>546.3</ele>
        <time>2011-08-18T17:56:33Z</time>
      </trkpt>
      <trkpt lat="41.784770" lon="2.050090">
        <ele>545.2</ele>
        <time>2011-08-18T17:56:33Z</time>
      </trkpt>
      <trkpt lat="41.784727" lon="2.049970">
        <ele>544.8</ele>
        <time>2011-08-18T17:56:33Z</time>
      </trkpt>
      <trkpt lat="41.784687" lon="2.049854">
        <ele>544.8</ele>
        <time>2011-08-18T17:56:33Z</time>
      </trkpt>
      <trkpt lat="41.784631" lon="2.049704">
        <ele>545.5</ele>
        <time>2011-08-18T17:56:33Z</time>
      </trkpt>
      <trkpt lat="41.784569" lon="2.049596">
        <ele>545.4</ele>
        <time>2011-08-18T17:56:33Z</time>
      </trkpt>
      <trkpt lat="41.784485" lon="2.049525">
        <ele>543.8</ele>
        <time>2011-08-18T17:56:33Z</time>
      </trkpt>
      <trkpt lat="41.784395" lon="2.049464">
        <ele>543.1</ele>
        <time>2011-08-18T17:56:33Z</time>
      </trkpt>
      <trkpt lat="41.784307" lon="2.049410">
        <ele>543.4</ele>
        <time>2011-08-18T17:56:33Z</time>
      </trkpt>
      <trkpt lat="41.784237" lon="2.049369">
        <ele>543.5</ele>
        <time>2011-08-18T17:56:33Z</time>
      </trkpt>
      <trkpt lat="41.784162" lon="2.049309">
        <ele>544.1</ele>
        <time>2011-08-18T17:56:33Z</time>
      </trkpt>
      <trkpt lat="41.784080" lon="2.049265">
        <ele>544.2</ele>
        <time>2011-08-18T17:56:33Z</time>
      </trkpt>
      <trkpt lat="41.783996" lon="2.049205">
        <ele>544.4</ele>
        <time>2011-08-18T17:56:33Z</time>
      </trkpt>
      <trkpt lat="41.783905" lon="2.049142">
        <ele>544.3</ele>
        <time>2011-08-18T17:56:33Z</time>
      </trkpt>
      <trkpt lat="41.783790" lon="2.049066">
        <ele>544.8</ele>
        <time>2011-08-18T17:56:33Z</time>
      </trkpt>
      <trkpt lat="41.783683" lon="2.048992">
        <ele>545.0</ele>
        <time>2011-08-18T17:56:33Z</time>
      </trkpt>
      <trkpt lat="41.783600" lon="2.048904">
        <ele>545.2</ele>
        <time>2011-08-18T17:56:33Z</time>
      </trkpt>
      <trkpt lat="41.783510" lon="2.048805">
        <ele>544.7</ele>
        <time>2011-08-18T17:56:33Z</time>
      </trkpt>
      <trkpt lat="41.783425" lon="2.048691">
        <ele>545.2</ele>
        <time>2011-08-18T17:56:33Z</time>
      </trkpt>
      <trkpt lat="41.783328" lon="2.048556">
        <ele>545.6</ele>
        <time>2011-08-18T17:56:33Z</time>
      </trkpt>
      <trkpt lat="41.783277" lon="2.048476">
        <ele>545.7</ele>
        <time>2011-08-18T17:56:33Z</time>
      </trkpt>
      <trkpt lat="41.783232" lon="2.048373">
        <ele>546.4</ele>
        <time>2011-08-18T17:56:33Z</time>
      </trkpt>
      <trkpt lat="41.783179" lon="2.048237">
        <ele>547.6</ele>
        <time>2011-08-18T17:56:33Z</time>
      </trkpt>
      <trkpt lat="41.783126" lon="2.048123">
        <ele>547.8</ele>
        <time>2011-08-18T17:56:33Z</time>
      </trkpt>
      <trkpt lat="41.783062" lon="2.048002">
        <ele>548.0</ele>
        <time>2011-08-18T17:56:33Z</time>
      </trkpt>
      <trkpt lat="41.782994" lon="2.047894">
        <ele>548.4</ele>
        <time>2011-08-18T17:56:33Z</time>
      </trkpt>
      <trkpt lat="41.782939" lon="2.047822">
        <ele>548.0</ele>
        <time>2011-08-18T17:56:33Z</time>
      </trkpt>
      <trkpt lat="41.782870" lon="2.047733">
        <ele>547.2</ele>
        <time>2011-08-18T17:56:33Z</time>
      </trkpt>
      <trkpt lat="41.782804" lon="2.047651">
        <ele>545.9</ele>
        <time>2011-08-18T17:56:33Z</time>
      </trkpt>
      <trkpt lat="41.782745" lon="2.047562">
        <ele>545.4</ele>
        <time>2011-08-18T17:56:33Z</time>
      </trkpt>
      <trkpt lat="41.782675" lon="2.047482">
        <ele>544.8</ele>
        <time>2011-08-18T17:56:33Z</time>
      </trkpt>
      <trkpt lat="41.782618" lon="2.047411">
        <ele>544.8</ele>
        <time>2011-08-18T17:56:33Z</time>
      </trkpt>
      <trkpt lat="41.782521" lon="2.047317">
        <ele>544.9</ele>
        <time>2011-08-18T17:56:33Z</time>
      </trkpt>
      <trkpt lat="41.782448" lon="2.047251">
        <ele>544.9</ele>
        <time>2011-08-18T17:56:33Z</time>
      </trkpt>
      <trkpt lat="41.782361" lon="2.047160">
        <ele>544.8</ele>
        <time>2011-08-18T17:56:33Z</time>
      </trkpt>
      <trkpt lat="41.782306" lon="2.047069">
        <ele>544.9</ele>
        <time>2011-08-18T17:56:33Z</time>
      </trkpt>
      <trkpt lat="41.782278" lon="2.046975">
        <ele>545.0</ele>
        <time>2011-08-18T17:56:33Z</time>
      </trkpt>
      <trkpt lat="41.782273" lon="2.046849">
        <ele>544.3</ele>
        <time>2011-08-18T17:56:33Z</time>
      </trkpt>
      <trkpt lat="41.782299" lon="2.046726">
        <ele>543.7</ele>
        <time>2011-08-18T17:56:33Z</time>
      </trkpt>
      <trkpt lat="41.782363" lon="2.046596">
        <ele>543.1</ele>
        <time>2011-08-18T17:56:33Z</time>
      </trkpt>
      <trkpt lat="41.782419" lon="2.046520">
        <ele>542.2</ele>
        <time>2011-08-18T17:56:33Z</time>
      </trkpt>
      <trkpt lat="41.782512" lon="2.046390">
        <ele>540.8</ele>
        <time>2011-08-18T17:56:33Z</time>
      </trkpt>
      <trkpt lat="41.782586" lon="2.046289">
        <ele>540.2</ele>
        <time>2011-08-18T17:56:33Z</time>
      </trkpt>
      <trkpt lat="41.782652" lon="2.046176">
        <ele>540.4</ele>
        <time>2011-08-18T17:56:33Z</time>
      </trkpt>
      <trkpt lat="41.782668" lon="2.046047">
        <ele>540.3</ele>
        <time>2011-08-18T17:56:33Z</time>
      </trkpt>
      <trkpt lat="41.782654" lon="2.045972">
        <ele>539.9</ele>
        <time>2011-08-18T17:56:33Z</time>
      </trkpt>
      <trkpt lat="41.782601" lon="2.045867">
        <ele>539.1</ele>
        <time>2011-08-18T17:56:33Z</time>
      </trkpt>
      <trkpt lat="41.782505" lon="2.045782">
        <ele>539.0</ele>
        <time>2011-08-18T17:56:33Z</time>
      </trkpt>
      <trkpt lat="41.782387" lon="2.045711">
        <ele>539.5</ele>
        <time>2011-08-18T17:56:33Z</time>
      </trkpt>
      <trkpt lat="41.782259" lon="2.045674">
        <ele>539.6</ele>
        <time>2011-08-18T17:56:33Z</time>
      </trkpt>
      <trkpt lat="41.782123" lon="2.045642">
        <ele>539.6</ele>
        <time>2011-08-18T17:56:33Z</time>
      </trkpt>
      <trkpt lat="41.782012" lon="2.045613">
        <ele>539.9</ele>
        <time>2011-08-18T17:56:33Z</time>
      </trkpt>
      <trkpt lat="41.781878" lon="2.045579">
        <ele>540.2</ele>
        <time>2011-08-18T17:56:33Z</time>
      </trkpt>
      <trkpt lat="41.781792" lon="2.045544">
        <ele>541.1</ele>
        <time>2011-08-18T17:56:33Z</time>
      </trkpt>
      <trkpt lat="41.781700" lon="2.045489">
        <ele>541.2</ele>
        <time>2011-08-18T17:56:33Z</time>
      </trkpt>
      <trkpt lat="41.781638" lon="2.045423">
        <ele>541.1</ele>
        <time>2011-08-18T17:56:33Z</time>
      </trkpt>
      <trkpt lat="41.781598" lon="2.045346">
        <ele>541.6</ele>
        <time>2011-08-18T17:56:33Z</time>
      </trkpt>
      <trkpt lat="41.781547" lon="2.045240">
        <ele>542.8</ele>
        <time>2011-08-18T17:56:33Z</time>
      </trkpt>
      <trkpt lat="41.781482" lon="2.045213">
        <ele>542.7</ele>
        <time>2011-08-18T17:56:33Z</time>
      </trkpt>
      <trkpt lat="41.781396" lon="2.045209">
        <ele>542.7</ele>
        <time>2011-08-18T17:56:33Z</time>
      </trkpt>
      <trkpt lat="41.781252" lon="2.045186">
        <ele>543.8</ele>
        <time>2011-08-18T17:56:33Z</time>
      </trkpt>
      <trkpt lat="41.781145" lon="2.045143">
        <ele>544.6</ele>
        <time>2011-08-18T17:56:33Z</time>
      </trkpt>
      <trkpt lat="41.781084" lon="2.045091">
        <ele>545.2</ele>
        <time>2011-08-18T17:56:33Z</time>
      </trkpt>
      <trkpt lat="41.781020" lon="2.044977">
        <ele>546.6</ele>
        <time>2011-08-18T17:56:33Z</time>
      </trkpt>
      <trkpt lat="41.780963" lon="2.044867">
        <ele>547.9</ele>
        <time>2011-08-18T17:56:33Z</time>
      </trkpt>
      <trkpt lat="41.780899" lon="2.044706">
        <ele>549.6</ele>
        <time>2011-08-18T17:56:33Z</time>
      </trkpt>
      <trkpt lat="41.780833" lon="2.044545">
        <ele>550.9</ele>
        <time>2011-08-18T17:56:33Z</time>
      </trkpt>
      <trkpt lat="41.780760" lon="2.044375">
        <ele>552.3</ele>
        <time>2011-08-18T17:56:33Z</time>
      </trkpt>
      <trkpt lat="41.780642" lon="2.044263">
        <ele>552.1</ele>
        <time>2011-08-18T17:56:33Z</time>
      </trkpt>
      <trkpt lat="41.780542" lon="2.044225">
        <ele>552.2</ele>
        <time>2011-08-18T17:56:33Z</time>
      </trkpt>
      <trkpt lat="41.780416" lon="2.044182">
        <ele>552.4</ele>
        <time>2011-08-18T17:56:33Z</time>
      </trkpt>
      <trkpt lat="41.780307" lon="2.044162">
        <ele>552.7</ele>
        <time>2011-08-18T17:56:33Z</time>
      </trkpt>
      <trkpt lat="41.780180" lon="2.044152">
        <ele>553.3</ele>
        <time>2011-08-18T17:56:33Z</time>
      </trkpt>
      <trkpt lat="41.780100" lon="2.044151">
        <ele>553.6</ele>
        <time>2011-08-18T17:56:33Z</time>
      </trkpt>
      <trkpt lat="41.780056" lon="2.044140">
        <ele>553.7</ele>
        <time>2011-08-18T17:56:33Z</time>
      </trkpt>
      <trkpt lat="41.780006" lon="2.044063">
        <ele>554.0</ele>
        <time>2011-08-18T17:56:33Z</time>
      </trkpt>
      <trkpt lat="41.779965" lon="2.043977">
        <ele>554.2</ele>
        <time>2011-08-18T17:56:33Z</time>
      </trkpt>
      <trkpt lat="41.779939" lon="2.043891">
        <ele>554.3</ele>
        <time>2011-08-18T17:56:33Z</time>
      </trkpt>
      <trkpt lat="41.779978" lon="2.043801">
        <ele>555.2</ele>
        <time>2011-08-18T17:56:33Z</time>
      </trkpt>
      <trkpt lat="41.779996" lon="2.043711">
        <ele>555.6</ele>
        <time>2011-08-18T17:56:33Z</time>
      </trkpt>
      <trkpt lat="41.779985" lon="2.043605">
        <ele>555.4</ele>
        <time>2011-08-18T17:56:33Z</time>
      </trkpt>
      <trkpt lat="41.779952" lon="2.043458">
        <ele>554.6</ele>
        <time>2011-08-18T17:56:33Z</time>
      </trkpt>
      <trkpt lat="41.779928" lon="2.043310">
        <ele>553.5</ele>
        <time>2011-08-18T17:56:33Z</time>
      </trkpt>
      <trkpt lat="41.779923" lon="2.043157">
        <ele>552.6</ele>
        <time>2011-08-18T17:56:33Z</time>
      </trkpt>
      <trkpt lat="41.779947" lon="2.042997">
        <ele>552.8</ele>
        <time>2011-08-18T17:56:33Z</time>
      </trkpt>
      <trkpt lat="41.779981" lon="2.042840">
        <ele>553.2</ele>
        <time>2011-08-18T17:56:33Z</time>
      </trkpt>
      <trkpt lat="41.780006" lon="2.042667">
        <ele>553.3</ele>
        <time>2011-08-18T17:56:33Z</time>
      </trkpt>
      <trkpt lat="41.780036" lon="2.042499">
        <ele>554.5</ele>
        <time>2011-08-18T17:56:33Z</time>
      </trkpt>
      <trkpt lat="41.780004" lon="2.042343">
        <ele>553.3</ele>
        <time>2011-08-18T17:56:33Z</time>
      </trkpt>
      <trkpt lat="41.779965" lon="2.042221">
        <ele>553.0</ele>
        <time>2011-08-18T17:56:33Z</time>
      </trkpt>
      <trkpt lat="41.779910" lon="2.042071">
        <ele>552.7</ele>
        <time>2011-08-18T17:56:33Z</time>
      </trkpt>
      <trkpt lat="41.779850" lon="2.041988">
        <ele>551.4</ele>
        <time>2011-08-18T17:56:33Z</time>
      </trkpt>
      <trkpt lat="41.779758" lon="2.041908">
        <ele>550.5</ele>
        <time>2011-08-18T17:56:33Z</time>
      </trkpt>
      <trkpt lat="41.779674" lon="2.041848">
        <ele>550.9</ele>
        <time>2011-08-18T17:56:33Z</time>
      </trkpt>
      <trkpt lat="41.779600" lon="2.041735">
        <ele>552.3</ele>
        <time>2011-08-18T17:56:33Z</time>
      </trkpt>
      <trkpt lat="41.779542" lon="2.041624">
        <ele>553.7</ele>
        <time>2011-08-18T17:56:33Z</time>
      </trkpt>
      <trkpt lat="41.779481" lon="2.041552">
        <ele>554.6</ele>
        <time>2011-08-18T17:56:33Z</time>
      </trkpt>
      <trkpt lat="41.779413" lon="2.041447">
        <ele>555.4</ele>
        <time>2011-08-18T17:56:33Z</time>
      </trkpt>
      <trkpt lat="41.779383" lon="2.041314">
        <ele>555.8</ele>
        <time>2011-08-18T17:56:33Z</time>
      </trkpt>
      <trkpt lat="41.779380" lon="2.041194">
        <ele>556.1</ele>
        <time>2011-08-18T17:56:33Z</time>
      </trkpt>
      <trkpt lat="41.779379" lon="2.041076">
        <ele>556.2</ele>
        <time>2011-08-18T17:56:33Z</time>
      </trkpt>
      <trkpt lat="41.779355" lon="2.040954">
        <ele>556.3</ele>
        <time>2011-08-18T17:56:33Z</time>
      </trkpt>
      <trkpt lat="41.779343" lon="2.040845">
        <ele>556.4</ele>
        <time>2011-08-18T17:56:33Z</time>
      </trkpt>
      <trkpt lat="41.779336" lon="2.040731">
        <ele>556.4</ele>
        <time>2011-08-18T17:56:33Z</time>
      </trkpt>
      <trkpt lat="41.779322" lon="2.040572">
        <ele>556.5</ele>
        <time>2011-08-18T17:56:33Z</time>
      </trkpt>
      <trkpt lat="41.779273" lon="2.040405">
        <ele>556.6</ele>
        <time>2011-08-18T17:56:33Z</time>
      </trkpt>
      <trkpt lat="41.779239" lon="2.040339">
        <ele>556.4</ele>
        <time>2011-08-18T17:56:33Z</time>
      </trkpt>
      <trkpt lat="41.779186" lon="2.040272">
        <ele>555.9</ele>
        <time>2011-08-18T17:56:33Z</time>
      </trkpt>
      <trkpt lat="41.779129" lon="2.040173">
        <ele>555.6</ele>
        <time>2011-08-18T17:56:33Z</time>
      </trkpt>
      <trkpt lat="41.779099" lon="2.040076">
        <ele>555.6</ele>
        <time>2011-08-18T17:56:33Z</time>
      </trkpt>
      <trkpt lat="41.779083" lon="2.039939">
        <ele>555.8</ele>
        <time>2011-08-18T17:56:33Z</time>
      </trkpt>
      <trkpt lat="41.779088" lon="2.039841">
        <ele>556.2</ele>
        <time>2011-08-18T17:56:33Z</time>
      </trkpt>
      <trkpt lat="41.779079" lon="2.039702">
        <ele>556.3</ele>
        <time>2011-08-18T17:56:33Z</time>
      </trkpt>
      <trkpt lat="41.779057" lon="2.039593">
        <ele>556.1</ele>
        <time>2011-08-18T17:56:33Z</time>
      </trkpt>
      <trkpt lat="41.779042" lon="2.039501">
        <ele>556.0</ele>
        <time>2011-08-18T17:56:33Z</time>
      </trkpt>
      <trkpt lat="41.779034" lon="2.039381">
        <ele>555.6</ele>
        <time>2011-08-18T17:56:33Z</time>
      </trkpt>
      <trkpt lat="41.779018" lon="2.039214">
        <ele>554.6</ele>
        <time>2011-08-18T17:56:33Z</time>
      </trkpt>
      <trkpt lat="41.779007" lon="2.039114">
        <ele>553.9</ele>
        <time>2011-08-18T17:56:33Z</time>
      </trkpt>
      <trkpt lat="41.779000" lon="2.039022">
        <ele>553.4</ele>
        <time>2011-08-18T17:56:33Z</time>
      </trkpt>
      <trkpt lat="41.778992" lon="2.038857">
        <ele>552.7</ele>
        <time>2011-08-18T17:56:33Z</time>
      </trkpt>
      <trkpt lat="41.778975" lon="2.038723">
        <ele>552.1</ele>
        <time>2011-08-18T17:56:33Z</time>
      </trkpt>
      <trkpt lat="41.778930" lon="2.038618">
        <ele>552.0</ele>
        <time>2011-08-18T17:56:33Z</time>
      </trkpt>
      <trkpt lat="41.778871" lon="2.038560">
        <ele>551.8</ele>
        <time>2011-08-18T17:56:33Z</time>
      </trkpt>
      <trkpt lat="41.778801" lon="2.038491">
        <ele>551.4</ele>
        <time>2011-08-18T17:56:33Z</time>
      </trkpt>
      <trkpt lat="41.778732" lon="2.038414">
        <ele>551.2</ele>
        <time>2011-08-18T17:56:33Z</time>
      </trkpt>
      <trkpt lat="41.778646" lon="2.038346">
        <ele>550.8</ele>
        <time>2011-08-18T17:56:33Z</time>
      </trkpt>
      <trkpt lat="41.778563" lon="2.038266">
        <ele>550.6</ele>
        <time>2011-08-18T17:56:33Z</time>
      </trkpt>
      <trkpt lat="41.778452" lon="2.038173">
        <ele>549.9</ele>
        <time>2011-08-18T17:56:33Z</time>
      </trkpt>
      <trkpt lat="41.778359" lon="2.038090">
        <ele>549.1</ele>
        <time>2011-08-18T17:56:33Z</time>
      </trkpt>
      <trkpt lat="41.778268" lon="2.038008">
        <ele>548.4</ele>
        <time>2011-08-18T17:56:33Z</time>
      </trkpt>
      <trkpt lat="41.778176" lon="2.037934">
        <ele>547.8</ele>
        <time>2011-08-18T17:56:33Z</time>
      </trkpt>
      <trkpt lat="41.778096" lon="2.037879">
        <ele>547.5</ele>
        <time>2011-08-18T17:56:33Z</time>
      </trkpt>
      <trkpt lat="41.778012" lon="2.037811">
        <ele>547.3</ele>
        <time>2011-08-18T17:56:33Z</time>
      </trkpt>
      <trkpt lat="41.777934" lon="2.037756">
        <ele>547.1</ele>
        <time>2011-08-18T17:56:33Z</time>
      </trkpt>
      <trkpt lat="41.777877" lon="2.037687">
        <ele>546.9</ele>
        <time>2011-08-18T17:56:33Z</time>
      </trkpt>
      <trkpt lat="41.777837" lon="2.037610">
        <ele>546.6</ele>
        <time>2011-08-18T17:56:33Z</time>
      </trkpt>
      <trkpt lat="41.777830" lon="2.037501">
        <ele>546.2</ele>
        <time>2011-08-18T17:56:33Z</time>
      </trkpt>
      <trkpt lat="41.777824" lon="2.037322">
        <ele>545.7</ele>
        <time>2011-08-18T17:56:33Z</time>
      </trkpt>
      <trkpt lat="41.777839" lon="2.037127">
        <ele>544.8</ele>
        <time>2011-08-18T17:56:33Z</time>
      </trkpt>
      <trkpt lat="41.777867" lon="2.036975">
        <ele>544.2</ele>
        <time>2011-08-18T17:56:33Z</time>
      </trkpt>
      <trkpt lat="41.777891" lon="2.036858">
        <ele>543.7</ele>
        <time>2011-08-18T17:56:33Z</time>
      </trkpt>
      <trkpt lat="41.777907" lon="2.036704">
        <ele>542.8</ele>
        <time>2011-08-18T17:56:33Z</time>
      </trkpt>
      <trkpt lat="41.777876" lon="2.036576">
        <ele>541.2</ele>
        <time>2011-08-18T17:56:33Z</time>
      </trkpt>
      <trkpt lat="41.777835" lon="2.036426">
        <ele>540.2</ele>
        <time>2011-08-18T17:56:33Z</time>
      </trkpt>
      <trkpt lat="41.777786" lon="2.036284">
        <ele>538.7</ele>
        <time>2011-08-18T17:56:33Z</time>
      </trkpt>
      <trkpt lat="41.777764" lon="2.036181">
        <ele>537.6</ele>
        <time>2011-08-18T17:56:33Z</time>
      </trkpt>
      <trkpt lat="41.777741" lon="2.036095">
        <ele>536.7</ele>
        <time>2011-08-18T17:56:33Z</time>
      </trkpt>
      <trkpt lat="41.777735" lon="2.035964">
        <ele>536.1</ele>
        <time>2011-08-18T17:56:33Z</time>
      </trkpt>
      <trkpt lat="41.777794" lon="2.035798">
        <ele>535.8</ele>
        <time>2011-08-18T17:56:33Z</time>
      </trkpt>
      <trkpt lat="41.777862" lon="2.035602">
        <ele>535.0</ele>
        <time>2011-08-18T17:56:33Z</time>
      </trkpt>
      <trkpt lat="41.777873" lon="2.035454">
        <ele>534.0</ele>
        <time>2011-08-18T17:56:33Z</time>
      </trkpt>
      <trkpt lat="41.777870" lon="2.035286">
        <ele>533.0</ele>
        <time>2011-08-18T17:56:33Z</time>
      </trkpt>
      <trkpt lat="41.777837" lon="2.035103">
        <ele>531.5</ele>
        <time>2011-08-18T17:56:33Z</time>
      </trkpt>
      <trkpt lat="41.777838" lon="2.034971">
        <ele>530.5</ele>
        <time>2011-08-18T17:56:33Z</time>
      </trkpt>
      <trkpt lat="41.777874" lon="2.034817">
        <ele>529.6</ele>
        <time>2011-08-18T17:56:33Z</time>
      </trkpt>
      <trkpt lat="41.777883" lon="2.034675">
        <ele>528.6</ele>
        <time>2011-08-18T17:56:33Z</time>
      </trkpt>
      <trkpt lat="41.777874" lon="2.034566">
        <ele>527.6</ele>
        <time>2011-08-18T17:56:33Z</time>
      </trkpt>
      <trkpt lat="41.777867" lon="2.034418">
        <ele>526.4</ele>
        <time>2011-08-18T17:56:33Z</time>
      </trkpt>
      <trkpt lat="41.777880" lon="2.034273">
        <ele>526.3</ele>
        <time>2011-08-18T17:56:33Z</time>
      </trkpt>
      <trkpt lat="41.777874" lon="2.034103">
        <ele>526.2</ele>
        <time>2011-08-18T17:56:33Z</time>
      </trkpt>
      <trkpt lat="41.777827" lon="2.033925">
        <ele>525.1</ele>
        <time>2011-08-18T17:56:33Z</time>
      </trkpt>
      <trkpt lat="41.777786" lon="2.033816">
        <ele>524.3</ele>
        <time>2011-08-18T17:56:33Z</time>
      </trkpt>
      <trkpt lat="41.777765" lon="2.033752">
        <ele>523.9</ele>
        <time>2011-08-18T17:56:33Z</time>
      </trkpt>
      <trkpt lat="41.777759" lon="2.033613">
        <ele>523.2</ele>
        <time>2011-08-18T17:56:33Z</time>
      </trkpt>
      <trkpt lat="41.777792" lon="2.033509">
        <ele>522.5</ele>
        <time>2011-08-18T17:56:33Z</time>
      </trkpt>
      <trkpt lat="41.777871" lon="2.033475">
        <ele>522.1</ele>
        <time>2011-08-18T17:56:33Z</time>
      </trkpt>
      <trkpt lat="41.777963" lon="2.033470">
        <ele>521.8</ele>
        <time>2011-08-18T17:56:33Z</time>
      </trkpt>
      <trkpt lat="41.778082" lon="2.033404">
        <ele>520.8</ele>
        <time>2011-08-18T17:56:33Z</time>
      </trkpt>
      <trkpt lat="41.778158" lon="2.033325">
        <ele>520.2</ele>
        <time>2011-08-18T17:56:33Z</time>
      </trkpt>
      <trkpt lat="41.778268" lon="2.033167">
        <ele>519.1</ele>
        <time>2011-08-18T17:56:33Z</time>
      </trkpt>
      <trkpt lat="41.778354" lon="2.033012">
        <ele>517.6</ele>
        <time>2011-08-18T17:56:33Z</time>
      </trkpt>
      <trkpt lat="41.778437" lon="2.032902">
        <ele>516.3</ele>
        <time>2011-08-18T17:56:33Z</time>
      </trkpt>
      <trkpt lat="41.778530" lon="2.032853">
        <ele>515.9</ele>
        <time>2011-08-18T17:56:33Z</time>
      </trkpt>
      <trkpt lat="41.778626" lon="2.032824">
        <ele>515.9</ele>
        <time>2011-08-18T17:56:33Z</time>
      </trkpt>
      <trkpt lat="41.778695" lon="2.032789">
        <ele>515.5</ele>
        <time>2011-08-18T17:56:33Z</time>
      </trkpt>
      <trkpt lat="41.778746" lon="2.032688">
        <ele>514.4</ele>
        <time>2011-08-18T17:56:33Z</time>
      </trkpt>
      <trkpt lat="41.778793" lon="2.032539">
        <ele>513.1</ele>
        <time>2011-08-18T17:56:33Z</time>
      </trkpt>
      <trkpt lat="41.778813" lon="2.032422">
        <ele>512.3</ele>
        <time>2011-08-18T17:56:33Z</time>
      </trkpt>
      <trkpt lat="41.778770" lon="2.032325">
        <ele>511.7</ele>
        <time>2011-08-18T17:56:33Z</time>
      </trkpt>
      <trkpt lat="41.778707" lon="2.032259">
        <ele>511.2</ele>
        <time>2011-08-18T17:56:33Z</time>
      </trkpt>
      <trkpt lat="41.778665" lon="2.032198">
        <ele>510.9</ele>
        <time>2011-08-18T17:56:33Z</time>
      </trkpt>
      <trkpt lat="41.778618" lon="2.032093">
        <ele>510.6</ele>
        <time>2011-08-18T17:56:33Z</time>
      </trkpt>
      <trkpt lat="41.778600" lon="2.031984">
        <ele>510.3</ele>
        <time>2011-08-18T17:56:33Z</time>
      </trkpt>
      <trkpt lat="41.778633" lon="2.031872">
        <ele>510.0</ele>
        <time>2011-08-18T17:56:33Z</time>
      </trkpt>
      <trkpt lat="41.778682" lon="2.031762">
        <ele>509.4</ele>
        <time>2011-08-18T17:56:33Z</time>
      </trkpt>
      <trkpt lat="41.778746" lon="2.031661">
        <ele>508.6</ele>
        <time>2011-08-18T17:56:33Z</time>
      </trkpt>
      <trkpt lat="41.778828" lon="2.031517">
        <ele>506.9</ele>
        <time>2011-08-18T17:56:33Z</time>
      </trkpt>
      <trkpt lat="41.778876" lon="2.031416">
        <ele>505.6</ele>
        <time>2011-08-18T17:56:33Z</time>
      </trkpt>
      <trkpt lat="41.778944" lon="2.031303">
        <ele>504.0</ele>
        <time>2011-08-18T17:56:33Z</time>
      </trkpt>
      <trkpt lat="41.779014" lon="2.031188">
        <ele>502.6</ele>
        <time>2011-08-18T17:56:33Z</time>
      </trkpt>
      <trkpt lat="41.779076" lon="2.031083">
        <ele>501.3</ele>
        <time>2011-08-18T17:56:33Z</time>
      </trkpt>
      <trkpt lat="41.779137" lon="2.030976">
        <ele>500.3</ele>
        <time>2011-08-18T17:56:33Z</time>
      </trkpt>
      <trkpt lat="41.779203" lon="2.030864">
        <ele>499.4</ele>
        <time>2011-08-18T17:56:33Z</time>
      </trkpt>
      <trkpt lat="41.779262" lon="2.030704">
        <ele>498.7</ele>
        <time>2011-08-18T17:56:33Z</time>
      </trkpt>
      <trkpt lat="41.779226" lon="2.030609">
        <ele>498.2</ele>
        <time>2011-08-18T17:56:33Z</time>
      </trkpt>
      <trkpt lat="41.779200" lon="2.030520">
        <ele>497.7</ele>
        <time>2011-08-18T17:56:33Z</time>
      </trkpt>
      <trkpt lat="41.779195" lon="2.030412">
        <ele>497.0</ele>
        <time>2011-08-18T17:56:33Z</time>
      </trkpt>
      <trkpt lat="41.779244" lon="2.030221">
        <ele>495.1</ele>
        <time>2011-08-18T17:56:33Z</time>
      </trkpt>
      <trkpt lat="41.779308" lon="2.030133">
        <ele>494.9</ele>
        <time>2011-08-18T17:56:33Z</time>
      </trkpt>
      <trkpt lat="41.779380" lon="2.030010">
        <ele>494.9</ele>
        <time>2011-08-18T17:56:33Z</time>
      </trkpt>
      <trkpt lat="41.779452" lon="2.029902">
        <ele>495.2</ele>
        <time>2011-08-18T17:56:33Z</time>
      </trkpt>
      <trkpt lat="41.779510" lon="2.029804">
        <ele>494.9</ele>
        <time>2011-08-18T17:56:33Z</time>
      </trkpt>
      <trkpt lat="41.779565" lon="2.029649">
        <ele>494.1</ele>
        <time>2011-08-18T17:56:33Z</time>
      </trkpt>
      <trkpt lat="41.779600" lon="2.029546">
        <ele>493.3</ele>
        <time>2011-08-18T17:56:33Z</time>
      </trkpt>
      <trkpt lat="41.779665" lon="2.029427">
        <ele>492.6</ele>
        <time>2011-08-18T17:56:33Z</time>
      </trkpt>
      <trkpt lat="41.779733" lon="2.029295">
        <ele>491.7</ele>
        <time>2011-08-18T17:56:33Z</time>
      </trkpt>
      <trkpt lat="41.779805" lon="2.029157">
        <ele>490.4</ele>
        <time>2011-08-18T17:56:33Z</time>
      </trkpt>
      <trkpt lat="41.779865" lon="2.029036">
        <ele>489.9</ele>
        <time>2011-08-18T17:56:33Z</time>
      </trkpt>
      <trkpt lat="41.779920" lon="2.028890">
        <ele>489.6</ele>
        <time>2011-08-18T17:56:33Z</time>
      </trkpt>
      <trkpt lat="41.779954" lon="2.028753">
        <ele>489.1</ele>
        <time>2011-08-18T17:56:33Z</time>
      </trkpt>
      <trkpt lat="41.780012" lon="2.028596">
        <ele>488.3</ele>
        <time>2011-08-18T17:56:33Z</time>
      </trkpt>
      <trkpt lat="41.780067" lon="2.028436">
        <ele>487.1</ele>
        <time>2011-08-18T17:56:33Z</time>
      </trkpt>
      <trkpt lat="41.780109" lon="2.028298">
        <ele>486.4</ele>
        <time>2011-08-18T17:56:33Z</time>
      </trkpt>
      <trkpt lat="41.780131" lon="2.028161">
        <ele>485.5</ele>
        <time>2011-08-18T17:56:33Z</time>
      </trkpt>
      <trkpt lat="41.780170" lon="2.028027">
        <ele>485.1</ele>
        <time>2011-08-18T17:56:33Z</time>
      </trkpt>
      <trkpt lat="41.780216" lon="2.027870">
        <ele>484.7</ele>
        <time>2011-08-18T17:56:33Z</time>
      </trkpt>
      <trkpt lat="41.780264" lon="2.027763">
        <ele>483.9</ele>
        <time>2011-08-18T17:56:33Z</time>
      </trkpt>
      <trkpt lat="41.780317" lon="2.027664">
        <ele>483.1</ele>
        <time>2011-08-18T17:56:33Z</time>
      </trkpt>
      <trkpt lat="41.780369" lon="2.027568">
        <ele>482.4</ele>
        <time>2011-08-18T17:56:33Z</time>
      </trkpt>
      <trkpt lat="41.780418" lon="2.027504">
        <ele>482.1</ele>
        <time>2011-08-18T17:56:33Z</time>
      </trkpt>
      <trkpt lat="41.780522" lon="2.027421">
        <ele>481.5</ele>
        <time>2011-08-18T17:56:33Z</time>
      </trkpt>
      <trkpt lat="41.780624" lon="2.027378">
        <ele>480.8</ele>
        <time>2011-08-18T17:56:33Z</time>
      </trkpt>
      <trkpt lat="41.780756" lon="2.027378">
        <ele>480.9</ele>
        <time>2011-08-18T17:56:33Z</time>
      </trkpt>
      <trkpt lat="41.780822" lon="2.027355">
        <ele>480.9</ele>
        <time>2011-08-18T17:56:33Z</time>
      </trkpt>
      <trkpt lat="41.780891" lon="2.027270">
        <ele>480.2</ele>
        <time>2011-08-18T17:56:33Z</time>
      </trkpt>
      <trkpt lat="41.780936" lon="2.027203">
        <ele>479.7</ele>
        <time>2011-08-18T17:56:33Z</time>
      </trkpt>
      <trkpt lat="41.781002" lon="2.027104">
        <ele>479.6</ele>
        <time>2011-08-18T17:56:33Z</time>
      </trkpt>
      <trkpt lat="41.781047" lon="2.027019">
        <ele>479.8</ele>
        <time>2011-08-18T17:56:33Z</time>
      </trkpt>
      <trkpt lat="41.781107" lon="2.026935">
        <ele>479.9</ele>
        <time>2011-08-18T17:56:33Z</time>
      </trkpt>
      <trkpt lat="41.781132" lon="2.026851">
        <ele>479.7</ele>
        <time>2011-08-18T17:56:33Z</time>
      </trkpt>
      <trkpt lat="41.781098" lon="2.026787">
        <ele>479.3</ele>
        <time>2011-08-18T17:56:33Z</time>
      </trkpt>
      <trkpt lat="41.781024" lon="2.026771">
        <ele>479.2</ele>
        <time>2011-08-18T17:56:33Z</time>
      </trkpt>
      <trkpt lat="41.780943" lon="2.026831">
        <ele>479.5</ele>
        <time>2011-08-18T17:56:33Z</time>
      </trkpt>
      <trkpt lat="41.780825" lon="2.026878">
        <ele>479.8</ele>
        <time>2011-08-18T17:56:33Z</time>
      </trkpt>
      <trkpt lat="41.780716" lon="2.026902">
        <ele>479.9</ele>
        <time>2011-08-18T17:56:33Z</time>
      </trkpt>
      <trkpt lat="41.780576" lon="2.026881">
        <ele>480.9</ele>
        <time>2011-08-18T17:56:33Z</time>
      </trkpt>
      <trkpt lat="41.780428" lon="2.026878">
        <ele>481.7</ele>
        <time>2011-08-18T17:56:33Z</time>
      </trkpt>
      <trkpt lat="41.780352" lon="2.026876">
        <ele>481.9</ele>
        <time>2011-08-18T17:56:33Z</time>
      </trkpt>
      <trkpt lat="41.780252" lon="2.026878">
        <ele>482.2</ele>
        <time>2011-08-18T17:56:33Z</time>
      </trkpt>
      <trkpt lat="41.780122" lon="2.026874">
        <ele>483.3</ele>
        <time>2011-08-18T17:56:33Z</time>
      </trkpt>
      <trkpt lat="41.779997" lon="2.026859">
        <ele>484.7</ele>
        <time>2011-08-18T17:56:33Z</time>
      </trkpt>
      <trkpt lat="41.779855" lon="2.026862">
        <ele>485.7</ele>
        <time>2011-08-18T17:56:33Z</time>
      </trkpt>
      <trkpt lat="41.779719" lon="2.026858">
        <ele>486.6</ele>
        <time>2011-08-18T17:56:33Z</time>
      </trkpt>
      <trkpt lat="41.779575" lon="2.026843">
        <ele>488.3</ele>
        <time>2011-08-18T17:56:33Z</time>
      </trkpt>
      <trkpt lat="41.779447" lon="2.026812">
        <ele>490.3</ele>
        <time>2011-08-18T17:56:33Z</time>
      </trkpt>
      <trkpt lat="41.779326" lon="2.026803">
        <ele>491.0</ele>
        <time>2011-08-18T17:56:33Z</time>
      </trkpt>
      <trkpt lat="41.779221" lon="2.026757">
        <ele>491.9</ele>
        <time>2011-08-18T17:56:33Z</time>
      </trkpt>
      <trkpt lat="41.779126" lon="2.026708">
        <ele>492.9</ele>
        <time>2011-08-18T17:56:33Z</time>
      </trkpt>
      <trkpt lat="41.779036" lon="2.026642">
        <ele>493.7</ele>
        <time>2011-08-18T17:56:33Z</time>
      </trkpt>
      <trkpt lat="41.778962" lon="2.026602">
        <ele>494.0</ele>
        <time>2011-08-18T17:56:33Z</time>
      </trkpt>
      <trkpt lat="41.778901" lon="2.026552">
        <ele>494.2</ele>
        <time>2011-08-18T17:56:33Z</time>
      </trkpt>
      <trkpt lat="41.778832" lon="2.026492">
        <ele>494.2</ele>
        <time>2011-08-18T17:56:33Z</time>
      </trkpt>
      <trkpt lat="41.778731" lon="2.026423">
        <ele>494.0</ele>
        <time>2011-08-18T17:56:33Z</time>
      </trkpt>
      <trkpt lat="41.778638" lon="2.026363">
        <ele>493.9</ele>
        <time>2011-08-18T17:56:33Z</time>
      </trkpt>
      <trkpt lat="41.778542" lon="2.026287">
        <ele>493.9</ele>
        <time>2011-08-18T17:56:33Z</time>
      </trkpt>
      <trkpt lat="41.778453" lon="2.026190">
        <ele>494.1</ele>
        <time>2011-08-18T17:56:33Z</time>
      </trkpt>
      <trkpt lat="41.778354" lon="2.026097">
        <ele>493.5</ele>
        <time>2011-08-18T17:56:33Z</time>
      </trkpt>
      <trkpt lat="41.778272" lon="2.025995">
        <ele>494.7</ele>
        <time>2011-08-18T17:56:33Z</time>
      </trkpt>
      <trkpt lat="41.778181" lon="2.025899">
        <ele>495.6</ele>
        <time>2011-08-18T17:56:33Z</time>
      </trkpt>
      <trkpt lat="41.778116" lon="2.025827">
        <ele>495.9</ele>
        <time>2011-08-18T17:56:33Z</time>
      </trkpt>
      <trkpt lat="41.778075" lon="2.025747">
        <ele>496.4</ele>
        <time>2011-08-18T17:56:33Z</time>
      </trkpt>
      <trkpt lat="41.778108" lon="2.025679">
        <ele>498.8</ele>
        <time>2011-08-18T17:56:33Z</time>
      </trkpt>
      <trkpt lat="41.778183" lon="2.025672">
        <ele>500.0</ele>
        <time>2011-08-18T17:56:33Z</time>
      </trkpt>
      <trkpt lat="41.778269" lon="2.025668">
        <ele>501.3</ele>
        <time>2011-08-18T17:56:33Z</time>
      </trkpt>
      <trkpt lat="41.778372" lon="2.025686">
        <ele>502.4</ele>
        <time>2011-08-18T17:56:33Z</time>
      </trkpt>
      <trkpt lat="41.778474" lon="2.025732">
        <ele>503.0</ele>
        <time>2011-08-18T17:56:33Z</time>
      </trkpt>
      <trkpt lat="41.778588" lon="2.025772">
        <ele>504.2</ele>
        <time>2011-08-18T17:56:33Z</time>
      </trkpt>
      <trkpt lat="41.778707" lon="2.025762">
        <ele>506.1</ele>
        <time>2011-08-18T17:56:33Z</time>
      </trkpt>
      <trkpt lat="41.778780" lon="2.025742">
        <ele>507.6</ele>
        <time>2011-08-18T17:56:33Z</time>
      </trkpt>
      <trkpt lat="41.778858" lon="2.025673">
        <ele>511.1</ele>
        <time>2011-08-18T17:56:33Z</time>
      </trkpt>
      <trkpt lat="41.778862" lon="2.025626">
        <ele>512.8</ele>
        <time>2011-08-18T17:56:33Z</time>
      </trkpt>
      <trkpt lat="41.778809" lon="2.025565">
        <ele>514.0</ele>
        <time>2011-08-18T17:56:33Z</time>
      </trkpt>
      <trkpt lat="41.778734" lon="2.025508">
        <ele>514.2</ele>
        <time>2011-08-18T17:56:33Z</time>
      </trkpt>
      <trkpt lat="41.778654" lon="2.025445">
        <ele>514.0</ele>
        <time>2011-08-18T17:56:33Z</time>
      </trkpt>
      <trkpt lat="41.778567" lon="2.025368">
        <ele>514.0</ele>
        <time>2011-08-18T17:56:33Z</time>
      </trkpt>
      <trkpt lat="41.778443" lon="2.025286">
        <ele>515.7</ele>
        <time>2011-08-18T17:56:33Z</time>
      </trkpt>
      <trkpt lat="41.778351" lon="2.025232">
        <ele>516.4</ele>
        <time>2011-08-18T17:56:33Z</time>
      </trkpt>
      <trkpt lat="41.778267" lon="2.025194">
        <ele>516.5</ele>
        <time>2011-08-18T17:56:33Z</time>
      </trkpt>
      <trkpt lat="41.778196" lon="2.025167">
        <ele>516.4</ele>
        <time>2011-08-18T17:56:33Z</time>
      </trkpt>
      <trkpt lat="41.778112" lon="2.025121">
        <ele>516.8</ele>
        <time>2011-08-18T17:56:33Z</time>
      </trkpt>
      <trkpt lat="41.778001" lon="2.025089">
        <ele>516.2</ele>
        <time>2011-08-18T17:56:33Z</time>
      </trkpt>
      <trkpt lat="41.777896" lon="2.025049">
        <ele>516.1</ele>
        <time>2011-08-18T17:56:33Z</time>
      </trkpt>
      <trkpt lat="41.777781" lon="2.025003">
        <ele>516.0</ele>
        <time>2011-08-18T17:56:33Z</time>
      </trkpt>
      <trkpt lat="41.777670" lon="2.024957">
        <ele>516.3</ele>
        <time>2011-08-18T17:56:33Z</time>
      </trkpt>
      <trkpt lat="41.777550" lon="2.024906">
        <ele>516.5</ele>
        <time>2011-08-18T17:56:33Z</time>
      </trkpt>
      <trkpt lat="41.777433" lon="2.024869">
        <ele>515.9</ele>
        <time>2011-08-18T17:56:33Z</time>
      </trkpt>
      <trkpt lat="41.777311" lon="2.024803">
        <ele>516.0</ele>
        <time>2011-08-18T17:56:33Z</time>
      </trkpt>
      <trkpt lat="41.777212" lon="2.024713">
        <ele>516.8</ele>
        <time>2011-08-18T17:56:33Z</time>
      </trkpt>
      <trkpt lat="41.777125" lon="2.024614">
        <ele>518.2</ele>
        <time>2011-08-18T17:56:33Z</time>
      </trkpt>
      <trkpt lat="41.777028" lon="2.024531">
        <ele>519.2</ele>
        <time>2011-08-18T17:56:33Z</time>
      </trkpt>
      <trkpt lat="41.776944" lon="2.024466">
        <ele>519.6</ele>
        <time>2011-08-18T17:56:33Z</time>
      </trkpt>
      <trkpt lat="41.776862" lon="2.024400">
        <ele>520.1</ele>
        <time>2011-08-18T17:56:33Z</time>
      </trkpt>
      <trkpt lat="41.776812" lon="2.024345">
        <ele>520.6</ele>
        <time>2011-08-18T17:56:33Z</time>
      </trkpt>
      <trkpt lat="41.776742" lon="2.024279">
        <ele>521.1</ele>
        <time>2011-08-18T17:56:33Z</time>
      </trkpt>
      <trkpt lat="41.776626" lon="2.024188">
        <ele>521.8</ele>
        <time>2011-08-18T17:56:33Z</time>
      </trkpt>
      <trkpt lat="41.776522" lon="2.024137">
        <ele>521.7</ele>
        <time>2011-08-18T17:56:33Z</time>
      </trkpt>
      <trkpt lat="41.776429" lon="2.024063">
        <ele>522.5</ele>
        <time>2011-08-18T17:56:33Z</time>
      </trkpt>
      <trkpt lat="41.776301" lon="2.023973">
        <ele>523.1</ele>
        <time>2011-08-18T17:56:33Z</time>
      </trkpt>
      <trkpt lat="41.776217" lon="2.023915">
        <ele>523.0</ele>
        <time>2011-08-18T17:56:33Z</time>
      </trkpt>
      <trkpt lat="41.776143" lon="2.023847">
        <ele>523.4</ele>
        <time>2011-08-18T17:56:33Z</time>
      </trkpt>
      <trkpt lat="41.776088" lon="2.023761">
        <ele>524.5</ele>
        <time>2011-08-18T17:56:33Z</time>
      </trkpt>
      <trkpt lat="41.776064" lon="2.023667">
        <ele>526.2</ele>
        <time>2011-08-18T17:56:33Z</time>
      </trkpt>
      <trkpt lat="41.776106" lon="2.023635">
        <ele>527.2</ele>
        <time>2011-08-18T17:56:33Z</time>
      </trkpt>
      <trkpt lat="41.776208" lon="2.023667">
        <ele>527.2</ele>
        <time>2011-08-18T17:56:33Z</time>
      </trkpt>
      <trkpt lat="41.776305" lon="2.023752">
        <ele>526.5</ele>
        <time>2011-08-18T17:56:33Z</time>
      </trkpt>
      <trkpt lat="41.776416" lon="2.023812">
        <ele>526.7</ele>
        <time>2011-08-18T17:56:33Z</time>
      </trkpt>
      <trkpt lat="41.776523" lon="2.023838">
        <ele>527.3</ele>
        <time>2011-08-18T17:56:33Z</time>
      </trkpt>
      <trkpt lat="41.776626" lon="2.023867">
        <ele>528.2</ele>
        <time>2011-08-18T17:56:33Z</time>
      </trkpt>
      <trkpt lat="41.776750" lon="2.023905">
        <ele>529.1</ele>
        <time>2011-08-18T17:56:33Z</time>
      </trkpt>
      <trkpt lat="41.776856" lon="2.023942">
        <ele>530.1</ele>
        <time>2011-08-18T17:56:33Z</time>
      </trkpt>
      <trkpt lat="41.776982" lon="2.023982">
        <ele>530.4</ele>
        <time>2011-08-18T17:56:33Z</time>
      </trkpt>
      <trkpt lat="41.777083" lon="2.024014">
        <ele>529.8</ele>
        <time>2011-08-18T17:56:33Z</time>
      </trkpt>
      <trkpt lat="41.777202" lon="2.024057">
        <ele>529.6</ele>
        <time>2011-08-18T17:56:33Z</time>
      </trkpt>
      <trkpt lat="41.777280" lon="2.024075">
        <ele>530.0</ele>
        <time>2011-08-18T17:56:33Z</time>
      </trkpt>
      <trkpt lat="41.777336" lon="2.024100">
        <ele>530.5</ele>
        <time>2011-08-18T17:56:33Z</time>
      </trkpt>
      <trkpt lat="41.777418" lon="2.024121">
        <ele>531.3</ele>
        <time>2011-08-18T17:56:33Z</time>
      </trkpt>
      <trkpt lat="41.777520" lon="2.024147">
        <ele>532.4</ele>
        <time>2011-08-18T17:56:33Z</time>
      </trkpt>
      <trkpt lat="41.777613" lon="2.024168">
        <ele>533.3</ele>
        <time>2011-08-18T17:56:33Z</time>
      </trkpt>
      <trkpt lat="41.777743" lon="2.024239">
        <ele>535.6</ele>
        <time>2011-08-18T17:56:33Z</time>
      </trkpt>
      <trkpt lat="41.777890" lon="2.024331">
        <ele>537.0</ele>
        <time>2011-08-18T17:56:33Z</time>
      </trkpt>
      <trkpt lat="41.778003" lon="2.024394">
        <ele>536.9</ele>
        <time>2011-08-18T17:56:33Z</time>
      </trkpt>
      <trkpt lat="41.778135" lon="2.024448">
        <ele>537.6</ele>
        <time>2011-08-18T17:56:33Z</time>
      </trkpt>
      <trkpt lat="41.778292" lon="2.024484">
        <ele>538.9</ele>
        <time>2011-08-18T17:56:33Z</time>
      </trkpt>
      <trkpt lat="41.778374" lon="2.024461">
        <ele>540.4</ele>
        <time>2011-08-18T17:56:33Z</time>
      </trkpt>
      <trkpt lat="41.778511" lon="2.024406">
        <ele>542.8</ele>
        <time>2011-08-18T17:56:33Z</time>
      </trkpt>
      <trkpt lat="41.778638" lon="2.024359">
        <ele>545.0</ele>
        <time>2011-08-18T17:56:33Z</time>
      </trkpt>
      <trkpt lat="41.778719" lon="2.024321">
        <ele>546.5</ele>
        <time>2011-08-18T17:56:33Z</time>
      </trkpt>
      <trkpt lat="41.778826" lon="2.024264">
        <ele>548.2</ele>
        <time>2011-08-18T17:56:33Z</time>
      </trkpt>
      <trkpt lat="41.778886" lon="2.024193">
        <ele>548.7</ele>
        <time>2011-08-18T17:56:33Z</time>
      </trkpt>
      <trkpt lat="41.778931" lon="2.024073">
        <ele>548.4</ele>
        <time>2011-08-18T17:56:33Z</time>
      </trkpt>
      <trkpt lat="41.778963" lon="2.023938">
        <ele>547.7</ele>
        <time>2011-08-18T17:56:33Z</time>
      </trkpt>
      <trkpt lat="41.778991" lon="2.023798">
        <ele>546.8</ele>
        <time>2011-08-18T17:56:33Z</time>
      </trkpt>
      <trkpt lat="41.779032" lon="2.023716">
        <ele>547.1</ele>
        <time>2011-08-18T17:56:33Z</time>
      </trkpt>
      <trkpt lat="41.779088" lon="2.023688">
        <ele>548.5</ele>
        <time>2011-08-18T17:56:33Z</time>
      </trkpt>
      <trkpt lat="41.779118" lon="2.023752">
        <ele>550.5</ele>
        <time>2011-08-18T17:56:33Z</time>
      </trkpt>
      <trkpt lat="41.779107" lon="2.023880">
        <ele>552.2</ele>
        <time>2011-08-18T17:56:33Z</time>
      </trkpt>
      <trkpt lat="41.779081" lon="2.024026">
        <ele>552.8</ele>
        <time>2011-08-18T17:56:33Z</time>
      </trkpt>
      <trkpt lat="41.779048" lon="2.024171">
        <ele>553.2</ele>
        <time>2011-08-18T17:56:33Z</time>
      </trkpt>
      <trkpt lat="41.779002" lon="2.024326">
        <ele>552.9</ele>
        <time>2011-08-18T17:56:33Z</time>
      </trkpt>
      <trkpt lat="41.778971" lon="2.024457">
        <ele>551.9</ele>
        <time>2011-08-18T17:56:33Z</time>
      </trkpt>
      <trkpt lat="41.778987" lon="2.024546">
        <ele>551.8</ele>
        <time>2011-08-18T17:56:33Z</time>
      </trkpt>
      <trkpt lat="41.779054" lon="2.024579">
        <ele>552.2</ele>
        <time>2011-08-18T17:56:33Z</time>
      </trkpt>
      <trkpt lat="41.779146" lon="2.024563">
        <ele>552.8</ele>
        <time>2011-08-18T17:56:33Z</time>
      </trkpt>
      <trkpt lat="41.779254" lon="2.024531">
        <ele>553.1</ele>
        <time>2011-08-18T17:56:33Z</time>
      </trkpt>
      <trkpt lat="41.779379" lon="2.024485">
        <ele>554.2</ele>
        <time>2011-08-18T17:56:33Z</time>
      </trkpt>
      <trkpt lat="41.779471" lon="2.024441">
        <ele>555.0</ele>
        <time>2011-08-18T17:56:33Z</time>
      </trkpt>
      <trkpt lat="41.779581" lon="2.024400">
        <ele>555.5</ele>
        <time>2011-08-18T17:56:33Z</time>
      </trkpt>
      <trkpt lat="41.779677" lon="2.024410">
        <ele>554.6</ele>
        <time>2011-08-18T17:56:33Z</time>
      </trkpt>
      <trkpt lat="41.779780" lon="2.024400">
        <ele>553.9</ele>
        <time>2011-08-18T17:56:33Z</time>
      </trkpt>
      <trkpt lat="41.779884" lon="2.024365">
        <ele>553.8</ele>
        <time>2011-08-18T17:56:33Z</time>
      </trkpt>
      <trkpt lat="41.779990" lon="2.024305">
        <ele>554.0</ele>
        <time>2011-08-18T17:56:33Z</time>
      </trkpt>
      <trkpt lat="41.780100" lon="2.024233">
        <ele>554.3</ele>
        <time>2011-08-18T17:56:33Z</time>
      </trkpt>
      <trkpt lat="41.780225" lon="2.024170">
        <ele>554.4</ele>
        <time>2011-08-18T17:56:33Z</time>
      </trkpt>
      <trkpt lat="41.780357" lon="2.024179">
        <ele>554.3</ele>
        <time>2011-08-18T17:56:33Z</time>
      </trkpt>
      <trkpt lat="41.780511" lon="2.024216">
        <ele>553.7</ele>
        <time>2011-08-18T17:56:33Z</time>
      </trkpt>
      <trkpt lat="41.780643" lon="2.024248">
        <ele>553.7</ele>
        <time>2011-08-18T17:56:33Z</time>
      </trkpt>
      <trkpt lat="41.780767" lon="2.024296">
        <ele>553.4</ele>
        <time>2011-08-18T17:56:33Z</time>
      </trkpt>
      <trkpt lat="41.780853" lon="2.024328">
        <ele>552.5</ele>
        <time>2011-08-18T17:56:33Z</time>
      </trkpt>
      <trkpt lat="41.780970" lon="2.024386">
        <ele>552.0</ele>
        <time>2011-08-18T17:56:33Z</time>
      </trkpt>
      <trkpt lat="41.781069" lon="2.024434">
        <ele>551.5</ele>
        <time>2011-08-18T17:56:33Z</time>
      </trkpt>
      <trkpt lat="41.781172" lon="2.024500">
        <ele>551.1</ele>
        <time>2011-08-18T17:56:33Z</time>
      </trkpt>
      <trkpt lat="41.781277" lon="2.024562">
        <ele>551.0</ele>
        <time>2011-08-18T17:56:33Z</time>
      </trkpt>
      <trkpt lat="41.781415" lon="2.024622">
        <ele>550.2</ele>
        <time>2011-08-18T17:56:33Z</time>
      </trkpt>
      <trkpt lat="41.781554" lon="2.024664">
        <ele>547.9</ele>
        <time>2011-08-18T17:56:33Z</time>
      </trkpt>
      <trkpt lat="41.781696" lon="2.024682">
        <ele>547.4</ele>
        <time>2011-08-18T17:56:33Z</time>
      </trkpt>
      <trkpt lat="41.781917" lon="2.024673">
        <ele>548.1</ele>
        <time>2011-08-18T17:56:33Z</time>
      </trkpt>
      <trkpt lat="41.782005" lon="2.024657">
        <ele>549.1</ele>
        <time>2011-08-18T17:56:33Z</time>
      </trkpt>
      <trkpt lat="41.782122" lon="2.024653">
        <ele>550.2</ele>
        <time>2011-08-18T17:56:33Z</time>
      </trkpt>
      <trkpt lat="41.782259" lon="2.024631">
        <ele>552.7</ele>
        <time>2011-08-18T17:56:33Z</time>
      </trkpt>
      <trkpt lat="41.782380" lon="2.024576">
        <ele>554.9</ele>
        <time>2011-08-18T17:56:33Z</time>
      </trkpt>
      <trkpt lat="41.782492" lon="2.024513">
        <ele>555.1</ele>
        <time>2011-08-18T17:56:33Z</time>
      </trkpt>
      <trkpt lat="41.782626" lon="2.024455">
        <ele>555.5</ele>
        <time>2011-08-18T17:56:33Z</time>
      </trkpt>
      <trkpt lat="41.782747" lon="2.024442">
        <ele>556.2</ele>
        <time>2011-08-18T17:56:33Z</time>
      </trkpt>
      <trkpt lat="41.782895" lon="2.024446">
        <ele>557.6</ele>
        <time>2011-08-18T17:56:33Z</time>
      </trkpt>
      <trkpt lat="41.782992" lon="2.024466">
        <ele>558.5</ele>
        <time>2011-08-18T17:56:33Z</time>
      </trkpt>
      <trkpt lat="41.783084" lon="2.024496">
        <ele>559.7</ele>
        <time>2011-08-18T17:56:33Z</time>
      </trkpt>
      <trkpt lat="41.783195" lon="2.024519">
        <ele>560.7</ele>
        <time>2011-08-18T17:56:33Z</time>
      </trkpt>
      <trkpt lat="41.783322" lon="2.024534">
        <ele>561.8</ele>
        <time>2011-08-18T17:56:33Z</time>
      </trkpt>
      <trkpt lat="41.783477" lon="2.024535">
        <ele>562.9</ele>
        <time>2011-08-18T17:56:33Z</time>
      </trkpt>
      <trkpt lat="41.783621" lon="2.024516">
        <ele>564.1</ele>
        <time>2011-08-18T17:56:33Z</time>
      </trkpt>
      <trkpt lat="41.783719" lon="2.024453">
        <ele>563.4</ele>
        <time>2011-08-18T17:56:33Z</time>
      </trkpt>
      <trkpt lat="41.783810" lon="2.024443">
        <ele>563.3</ele>
        <time>2011-08-18T17:56:33Z</time>
      </trkpt>
      <trkpt lat="41.783965" lon="2.024471">
        <ele>564.7</ele>
        <time>2011-08-18T17:56:33Z</time>
      </trkpt>
      <trkpt lat="41.784147" lon="2.024510">
        <ele>566.4</ele>
        <time>2011-08-18T17:56:33Z</time>
      </trkpt>
      <trkpt lat="41.784292" lon="2.024544">
        <ele>567.4</ele>
        <time>2011-08-18T17:56:33Z</time>
      </trkpt>
      <trkpt lat="41.784386" lon="2.024579">
        <ele>567.9</ele>
        <time>2011-08-18T17:56:33Z</time>
      </trkpt>
      <trkpt lat="41.784516" lon="2.024628">
        <ele>569.1</ele>
        <time>2011-08-18T17:56:33Z</time>
      </trkpt>
      <trkpt lat="41.784675" lon="2.024676">
        <ele>571.3</ele>
        <time>2011-08-18T17:56:33Z</time>
      </trkpt>
      <trkpt lat="41.784834" lon="2.024673">
        <ele>572.5</ele>
        <time>2011-08-18T17:56:33Z</time>
      </trkpt>
      <trkpt lat="41.784972" lon="2.024640">
        <ele>573.6</ele>
        <time>2011-08-18T17:56:33Z</time>
      </trkpt>
      <trkpt lat="41.785059" lon="2.024575">
        <ele>572.7</ele>
        <time>2011-08-18T17:56:33Z</time>
      </trkpt>
      <trkpt lat="41.785155" lon="2.024509">
        <ele>573.5</ele>
        <time>2011-08-18T17:56:33Z</time>
      </trkpt>
      <trkpt lat="41.785240" lon="2.024446">
        <ele>573.9</ele>
        <time>2011-08-18T17:56:33Z</time>
      </trkpt>
      <trkpt lat="41.785352" lon="2.024386">
        <ele>574.6</ele>
        <time>2011-08-18T17:56:33Z</time>
      </trkpt>
      <trkpt lat="41.785465" lon="2.024340">
        <ele>574.9</ele>
        <time>2011-08-18T17:56:33Z</time>
      </trkpt>
      <trkpt lat="41.785573" lon="2.024302">
        <ele>575.5</ele>
        <time>2011-08-18T17:56:33Z</time>
      </trkpt>
      <trkpt lat="41.785715" lon="2.024286">
        <ele>576.6</ele>
        <time>2011-08-18T17:56:33Z</time>
      </trkpt>
      <trkpt lat="41.785844" lon="2.024270">
        <ele>577.3</ele>
        <time>2011-08-18T17:56:33Z</time>
      </trkpt>
      <trkpt lat="41.785967" lon="2.024248">
        <ele>577.8</ele>
        <time>2011-08-18T17:56:33Z</time>
      </trkpt>
      <trkpt lat="41.786103" lon="2.024229">
        <ele>578.7</ele>
        <time>2011-08-18T17:56:33Z</time>
      </trkpt>
      <trkpt lat="41.786254" lon="2.024252">
        <ele>580.4</ele>
        <time>2011-08-18T17:56:33Z</time>
      </trkpt>
      <trkpt lat="41.786402" lon="2.024286">
        <ele>582.1</ele>
        <time>2011-08-18T17:56:33Z</time>
      </trkpt>
      <trkpt lat="41.786547" lon="2.024312">
        <ele>582.6</ele>
        <time>2011-08-18T17:56:33Z</time>
      </trkpt>
      <trkpt lat="41.786674" lon="2.024335">
        <ele>582.7</ele>
        <time>2011-08-18T17:56:33Z</time>
      </trkpt>
      <trkpt lat="41.786773" lon="2.024395">
        <ele>583.0</ele>
        <time>2011-08-18T17:56:33Z</time>
      </trkpt>
      <trkpt lat="41.786872" lon="2.024450">
        <ele>583.1</ele>
        <time>2011-08-18T17:56:33Z</time>
      </trkpt>
      <trkpt lat="41.787052" lon="2.024539">
        <ele>583.5</ele>
        <time>2011-08-18T17:56:33Z</time>
      </trkpt>
      <trkpt lat="41.787191" lon="2.024632">
        <ele>585.2</ele>
        <time>2011-08-18T17:56:33Z</time>
      </trkpt>
      <trkpt lat="41.787311" lon="2.024694">
        <ele>586.1</ele>
        <time>2011-08-18T17:56:33Z</time>
      </trkpt>
      <trkpt lat="41.787461" lon="2.024734">
        <ele>586.0</ele>
        <time>2011-08-18T17:56:33Z</time>
      </trkpt>
      <trkpt lat="41.787646" lon="2.024770">
        <ele>587.6</ele>
        <time>2011-08-18T17:56:33Z</time>
      </trkpt>
      <trkpt lat="41.787821" lon="2.024820">
        <ele>590.6</ele>
        <time>2011-08-18T17:56:33Z</time>
      </trkpt>
      <trkpt lat="41.787924" lon="2.024866">
        <ele>593.8</ele>
        <time>2011-08-18T17:56:33Z</time>
      </trkpt>
      <trkpt lat="41.788065" lon="2.024920">
        <ele>597.1</ele>
        <time>2011-08-18T17:56:33Z</time>
      </trkpt>
      <trkpt lat="41.788186" lon="2.024974">
        <ele>599.7</ele>
        <time>2011-08-18T17:56:33Z</time>
      </trkpt>
      <trkpt lat="41.788312" lon="2.025020">
        <ele>602.6</ele>
        <time>2011-08-18T17:56:33Z</time>
      </trkpt>
      <trkpt lat="41.788404" lon="2.025021">
        <ele>605.1</ele>
        <time>2011-08-18T17:56:33Z</time>
      </trkpt>
      <trkpt lat="41.788483" lon="2.025000">
        <ele>606.7</ele>
        <time>2011-08-18T17:56:33Z</time>
      </trkpt>
      <trkpt lat="41.788569" lon="2.024971">
        <ele>608.2</ele>
        <time>2011-08-18T17:56:33Z</time>
      </trkpt>
      <trkpt lat="41.788717" lon="2.024963">
        <ele>610.9</ele>
        <time>2011-08-18T17:56:33Z</time>
      </trkpt>
      <trkpt lat="41.788871" lon="2.024950">
        <ele>613.2</ele>
        <time>2011-08-18T17:56:33Z</time>
      </trkpt>
      <trkpt lat="41.788980" lon="2.024965">
        <ele>614.3</ele>
        <time>2011-08-18T17:56:33Z</time>
      </trkpt>
      <trkpt lat="41.789087" lon="2.024980">
        <ele>615.3</ele>
        <time>2011-08-18T17:56:33Z</time>
      </trkpt>
      <trkpt lat="41.789196" lon="2.024987">
        <ele>615.9</ele>
        <time>2011-08-18T17:56:33Z</time>
      </trkpt>
      <trkpt lat="41.789321" lon="2.025010">
        <ele>616.9</ele>
        <time>2011-08-18T17:56:33Z</time>
      </trkpt>
      <trkpt lat="41.789462" lon="2.025058">
        <ele>618.1</ele>
        <time>2011-08-18T17:56:33Z</time>
      </trkpt>
      <trkpt lat="41.789571" lon="2.025112">
        <ele>618.9</ele>
        <time>2011-08-18T17:56:33Z</time>
      </trkpt>
      <trkpt lat="41.789659" lon="2.025144">
        <ele>619.2</ele>
        <time>2011-08-18T17:56:33Z</time>
      </trkpt>
      <trkpt lat="41.789734" lon="2.025101">
        <ele>618.6</ele>
        <time>2011-08-18T17:56:33Z</time>
      </trkpt>
      <trkpt lat="41.789811" lon="2.025044">
        <ele>617.8</ele>
        <time>2011-08-18T17:56:33Z</time>
      </trkpt>
      <trkpt lat="41.789892" lon="2.024987">
        <ele>617.0</ele>
        <time>2011-08-18T17:56:33Z</time>
      </trkpt>
      <trkpt lat="41.790020" lon="2.024918">
        <ele>616.1</ele>
        <time>2011-08-18T17:56:33Z</time>
      </trkpt>
      <trkpt lat="41.790114" lon="2.024856">
        <ele>615.3</ele>
        <time>2011-08-18T17:56:33Z</time>
      </trkpt>
      <trkpt lat="41.790209" lon="2.024753">
        <ele>614.1</ele>
        <time>2011-08-18T17:56:33Z</time>
      </trkpt>
      <trkpt lat="41.790305" lon="2.024693">
        <ele>613.3</ele>
        <time>2011-08-18T17:56:33Z</time>
      </trkpt>
      <trkpt lat="41.790409" lon="2.024661">
        <ele>612.7</ele>
        <time>2011-08-18T17:56:33Z</time>
      </trkpt>
      <trkpt lat="41.790526" lon="2.024648">
        <ele>612.4</ele>
        <time>2011-08-18T17:56:33Z</time>
      </trkpt>
      <trkpt lat="41.790616" lon="2.024616">
        <ele>611.7</ele>
        <time>2011-08-18T17:56:33Z</time>
      </trkpt>
      <trkpt lat="41.790682" lon="2.024529">
        <ele>610.2</ele>
        <time>2011-08-18T17:56:33Z</time>
      </trkpt>
      <trkpt lat="41.790718" lon="2.024408">
        <ele>609.0</ele>
        <time>2011-08-18T17:56:33Z</time>
      </trkpt>
      <trkpt lat="41.790717" lon="2.024268">
        <ele>609.0</ele>
        <time>2011-08-18T17:56:33Z</time>
      </trkpt>
      <trkpt lat="41.790665" lon="2.024113">
        <ele>608.8</ele>
        <time>2011-08-18T17:56:33Z</time>
      </trkpt>
      <trkpt lat="41.790610" lon="2.023991">
        <ele>610.1</ele>
        <time>2011-08-18T17:56:33Z</time>
      </trkpt>
      <trkpt lat="41.790549" lon="2.023908">
        <ele>610.5</ele>
        <time>2011-08-18T17:56:33Z</time>
      </trkpt>
      <trkpt lat="41.790481" lon="2.023825">
        <ele>610.6</ele>
        <time>2011-08-18T17:56:33Z</time>
      </trkpt>
      <trkpt lat="41.790397" lon="2.023771">
        <ele>609.9</ele>
        <time>2011-08-18T17:56:33Z</time>
      </trkpt>
      <trkpt lat="41.790338" lon="2.023702">
        <ele>609.8</ele>
        <time>2011-08-18T17:56:33Z</time>
      </trkpt>
      <trkpt lat="41.790298" lon="2.023610">
        <ele>610.1</ele>
        <time>2011-08-18T17:56:33Z</time>
      </trkpt>
      <trkpt lat="41.790261" lon="2.023452">
        <ele>610.7</ele>
        <time>2011-08-18T17:56:33Z</time>
      </trkpt>
      <trkpt lat="41.790210" lon="2.023355">
        <ele>610.2</ele>
        <time>2011-08-18T17:56:33Z</time>
      </trkpt>
      <trkpt lat="41.790138" lon="2.023320">
        <ele>610.2</ele>
        <time>2011-08-18T17:56:33Z</time>
      </trkpt>
      <trkpt lat="41.790015" lon="2.023327">
        <ele>610.7</ele>
        <time>2011-08-18T17:56:33Z</time>
      </trkpt>
      <trkpt lat="41.789863" lon="2.023352">
        <ele>610.4</ele>
        <time>2011-08-18T17:56:33Z</time>
      </trkpt>
      <trkpt lat="41.789773" lon="2.023347">
        <ele>609.8</ele>
        <time>2011-08-18T17:56:33Z</time>
      </trkpt>
      <trkpt lat="41.789687" lon="2.023271">
        <ele>610.5</ele>
        <time>2011-08-18T17:56:33Z</time>
      </trkpt>
      <trkpt lat="41.789615" lon="2.023160">
        <ele>611.7</ele>
        <time>2011-08-18T17:56:33Z</time>
      </trkpt>
      <trkpt lat="41.789543" lon="2.023072">
        <ele>612.7</ele>
        <time>2011-08-18T17:56:33Z</time>
      </trkpt>
      <trkpt lat="41.789455" lon="2.023012">
        <ele>613.2</ele>
        <time>2011-08-18T17:56:33Z</time>
      </trkpt>
      <trkpt lat="41.789342" lon="2.023002">
        <ele>612.9</ele>
        <time>2011-08-18T17:56:33Z</time>
      </trkpt>
      <trkpt lat="41.789275" lon="2.023003">
        <ele>613.2</ele>
        <time>2011-08-18T17:56:33Z</time>
      </trkpt>
      <trkpt lat="41.789181" lon="2.023002">
        <ele>613.7</ele>
        <time>2011-08-18T17:56:33Z</time>
      </trkpt>
      <trkpt lat="41.789091" lon="2.022992">
        <ele>614.3</ele>
        <time>2011-08-18T17:56:33Z</time>
      </trkpt>
      <trkpt lat="41.788986" lon="2.022949">
        <ele>614.6</ele>
        <time>2011-08-18T17:56:33Z</time>
      </trkpt>
      <trkpt lat="41.788886" lon="2.022908">
        <ele>614.9</ele>
        <time>2011-08-18T17:56:33Z</time>
      </trkpt>
      <trkpt lat="41.788808" lon="2.022854">
        <ele>615.7</ele>
        <time>2011-08-18T17:56:33Z</time>
      </trkpt>
      <trkpt lat="41.788734" lon="2.022785">
        <ele>616.9</ele>
        <time>2011-08-18T17:56:33Z</time>
      </trkpt>
      <trkpt lat="41.788667" lon="2.022736">
        <ele>617.6</ele>
        <time>2011-08-18T17:56:33Z</time>
      </trkpt>
      <trkpt lat="41.788585" lon="2.022723">
        <ele>617.4</ele>
        <time>2011-08-18T17:56:33Z</time>
      </trkpt>
      <trkpt lat="41.788470" lon="2.022717">
        <ele>617.4</ele>
        <time>2011-08-18T17:56:33Z</time>
      </trkpt>
      <trkpt lat="41.788326" lon="2.022727">
        <ele>617.1</ele>
        <time>2011-08-18T17:56:33Z</time>
      </trkpt>
      <trkpt lat="41.788196" lon="2.022718">
        <ele>617.4</ele>
        <time>2011-08-18T17:56:33Z</time>
      </trkpt>
      <trkpt lat="41.788079" lon="2.022686">
        <ele>618.2</ele>
        <time>2011-08-18T17:56:33Z</time>
      </trkpt>
      <trkpt lat="41.787999" lon="2.022626">
        <ele>618.8</ele>
        <time>2011-08-18T17:56:33Z</time>
      </trkpt>
      <trkpt lat="41.787936" lon="2.022566">
        <ele>618.5</ele>
        <time>2011-08-18T17:56:33Z</time>
      </trkpt>
      <trkpt lat="41.787881" lon="2.022491">
        <ele>618.8</ele>
        <time>2011-08-18T17:56:33Z</time>
      </trkpt>
      <trkpt lat="41.787799" lon="2.022409">
        <ele>618.8</ele>
        <time>2011-08-18T17:56:33Z</time>
      </trkpt>
      <trkpt lat="41.787746" lon="2.022348">
        <ele>619.0</ele>
        <time>2011-08-18T17:56:33Z</time>
      </trkpt>
      <trkpt lat="41.787706" lon="2.022273">
        <ele>618.8</ele>
        <time>2011-08-18T17:56:33Z</time>
      </trkpt>
      <trkpt lat="41.787718" lon="2.022223">
        <ele>619.1</ele>
        <time>2011-08-18T17:56:33Z</time>
      </trkpt>
      <trkpt lat="41.787772" lon="2.022213">
        <ele>619.8</ele>
        <time>2011-08-18T17:56:33Z</time>
      </trkpt>
      <trkpt lat="41.787851" lon="2.022207">
        <ele>620.8</ele>
        <time>2011-08-18T17:56:33Z</time>
      </trkpt>
      <trkpt lat="41.787905" lon="2.022150">
        <ele>621.6</ele>
        <time>2011-08-18T17:56:33Z</time>
      </trkpt>
      <trkpt lat="41.787970" lon="2.022110">
        <ele>622.5</ele>
        <time>2011-08-18T17:56:33Z</time>
      </trkpt>
      <trkpt lat="41.788089" lon="2.022164">
        <ele>624.0</ele>
        <time>2011-08-18T17:56:33Z</time>
      </trkpt>
      <trkpt lat="41.788207" lon="2.022238">
        <ele>625.7</ele>
        <time>2011-08-18T17:56:33Z</time>
      </trkpt>
      <trkpt lat="41.788305" lon="2.022258">
        <ele>626.9</ele>
        <time>2011-08-18T17:56:33Z</time>
      </trkpt>
      <trkpt lat="41.788435" lon="2.022223">
        <ele>627.9</ele>
        <time>2011-08-18T17:56:33Z</time>
      </trkpt>
      <trkpt lat="41.788534" lon="2.022166">
        <ele>629.2</ele>
        <time>2011-08-18T17:56:33Z</time>
      </trkpt>
      <trkpt lat="41.788580" lon="2.022115">
        <ele>630.0</ele>
        <time>2011-08-18T17:56:33Z</time>
      </trkpt>
      <trkpt lat="41.788650" lon="2.022041">
        <ele>631.1</ele>
        <time>2011-08-18T17:56:33Z</time>
      </trkpt>
      <trkpt lat="41.788721" lon="2.021984">
        <ele>632.1</ele>
        <time>2011-08-18T17:56:33Z</time>
      </trkpt>
      <trkpt lat="41.788798" lon="2.021947">
        <ele>632.7</ele>
        <time>2011-08-18T17:56:33Z</time>
      </trkpt>
      <trkpt lat="41.788885" lon="2.021912">
        <ele>632.7</ele>
        <time>2011-08-18T17:56:33Z</time>
      </trkpt>
      <trkpt lat="41.789012" lon="2.021868">
        <ele>632.7</ele>
        <time>2011-08-18T17:56:33Z</time>
      </trkpt>
      <trkpt lat="41.789112" lon="2.021825">
        <ele>632.6</ele>
        <time>2011-08-18T17:56:33Z</time>
      </trkpt>
      <trkpt lat="41.789244" lon="2.021789">
        <ele>632.2</ele>
        <time>2011-08-18T17:56:33Z</time>
      </trkpt>
      <trkpt lat="41.789350" lon="2.021771">
        <ele>632.0</ele>
        <time>2011-08-18T17:56:33Z</time>
      </trkpt>
      <trkpt lat="41.789483" lon="2.021727">
        <ele>632.3</ele>
        <time>2011-08-18T17:56:33Z</time>
      </trkpt>
      <trkpt lat="41.789588" lon="2.021686">
        <ele>632.6</ele>
        <time>2011-08-18T17:56:33Z</time>
      </trkpt>
      <trkpt lat="41.789675" lon="2.021637">
        <ele>633.0</ele>
        <time>2011-08-18T17:56:33Z</time>
      </trkpt>
      <trkpt lat="41.789737" lon="2.021567">
        <ele>633.3</ele>
        <time>2011-08-18T17:56:33Z</time>
      </trkpt>
      <trkpt lat="41.789805" lon="2.021448">
        <ele>633.6</ele>
        <time>2011-08-18T17:56:33Z</time>
      </trkpt>
      <trkpt lat="41.789823" lon="2.021336">
        <ele>633.8</ele>
        <time>2011-08-18T17:56:33Z</time>
      </trkpt>
      <trkpt lat="41.789828" lon="2.021238">
        <ele>634.0</ele>
        <time>2011-08-18T17:56:33Z</time>
      </trkpt>
      <trkpt lat="41.789840" lon="2.021157">
        <ele>633.3</ele>
        <time>2011-08-18T17:56:33Z</time>
      </trkpt>
      <trkpt lat="41.789872" lon="2.021023">
        <ele>632.3</ele>
        <time>2011-08-18T17:56:33Z</time>
      </trkpt>
      <trkpt lat="41.789907" lon="2.020913">
        <ele>631.6</ele>
        <time>2011-08-18T17:56:33Z</time>
      </trkpt>
      <trkpt lat="41.789961" lon="2.020832">
        <ele>631.3</ele>
        <time>2011-08-18T17:56:33Z</time>
      </trkpt>
      <trkpt lat="41.790035" lon="2.020758">
        <ele>631.1</ele>
        <time>2011-08-18T17:56:33Z</time>
      </trkpt>
      <trkpt lat="41.790116" lon="2.020701">
        <ele>631.2</ele>
        <time>2011-08-18T17:56:33Z</time>
      </trkpt>
      <trkpt lat="41.790179" lon="2.020669">
        <ele>631.4</ele>
        <time>2011-08-18T17:56:33Z</time>
      </trkpt>
      <trkpt lat="41.790226" lon="2.020615">
        <ele>631.1</ele>
        <time>2011-08-18T17:56:33Z</time>
      </trkpt>
      <trkpt lat="41.790303" lon="2.020536">
        <ele>630.9</ele>
        <time>2011-08-18T17:56:33Z</time>
      </trkpt>
      <trkpt lat="41.790365" lon="2.020524">
        <ele>631.5</ele>
        <time>2011-08-18T17:56:33Z</time>
      </trkpt>
      <trkpt lat="41.790445" lon="2.020593">
        <ele>632.9</ele>
        <time>2011-08-18T17:56:33Z</time>
      </trkpt>
      <trkpt lat="41.790515" lon="2.020712">
        <ele>634.7</ele>
        <time>2011-08-18T17:56:33Z</time>
      </trkpt>
      <trkpt lat="41.790579" lon="2.020808">
        <ele>635.7</ele>
        <time>2011-08-18T17:56:33Z</time>
      </trkpt>
      <trkpt lat="41.790644" lon="2.020888">
        <ele>636.2</ele>
        <time>2011-08-18T17:56:33Z</time>
      </trkpt>
      <trkpt lat="41.790722" lon="2.020965">
        <ele>636.6</ele>
        <time>2011-08-18T17:56:33Z</time>
      </trkpt>
      <trkpt lat="41.790798" lon="2.021028">
        <ele>637.1</ele>
        <time>2011-08-18T17:56:33Z</time>
      </trkpt>
      <trkpt lat="41.790876" lon="2.021100">
        <ele>637.5</ele>
        <time>2011-08-18T17:56:33Z</time>
      </trkpt>
      <trkpt lat="41.790968" lon="2.021149">
        <ele>638.3</ele>
        <time>2011-08-18T17:56:33Z</time>
      </trkpt>
      <trkpt lat="41.791079" lon="2.021158">
        <ele>639.2</ele>
        <time>2011-08-18T17:56:33Z</time>
      </trkpt>
      <trkpt lat="41.791207" lon="2.021170">
        <ele>640.3</ele>
        <time>2011-08-18T17:56:33Z</time>
      </trkpt>
      <trkpt lat="41.791272" lon="2.021211">
        <ele>641.2</ele>
        <time>2011-08-18T17:56:33Z</time>
      </trkpt>
      <trkpt lat="41.791356" lon="2.021280">
        <ele>642.0</ele>
        <time>2011-08-18T17:56:33Z</time>
      </trkpt>
      <trkpt lat="41.791492" lon="2.021275">
        <ele>643.3</ele>
        <time>2011-08-18T17:56:33Z</time>
      </trkpt>
      <trkpt lat="41.791609" lon="2.021251">
        <ele>644.7</ele>
        <time>2011-08-18T17:56:33Z</time>
      </trkpt>
      <trkpt lat="41.791742" lon="2.021235">
        <ele>646.6</ele>
        <time>2011-08-18T17:56:33Z</time>
      </trkpt>
      <trkpt lat="41.791838" lon="2.021155">
        <ele>647.0</ele>
        <time>2011-08-18T17:56:33Z</time>
      </trkpt>
      <trkpt lat="41.791847" lon="2.021007">
        <ele>646.0</ele>
        <time>2011-08-18T17:56:33Z</time>
      </trkpt>
      <trkpt lat="41.791869" lon="2.020872">
        <ele>645.2</ele>
        <time>2011-08-18T17:56:33Z</time>
      </trkpt>
      <trkpt lat="41.791903" lon="2.020713">
        <ele>643.9</ele>
        <time>2011-08-18T17:56:33Z</time>
      </trkpt>
      <trkpt lat="41.791931" lon="2.020590">
        <ele>643.0</ele>
        <time>2011-08-18T17:56:33Z</time>
      </trkpt>
      <trkpt lat="41.791991" lon="2.020443">
        <ele>642.6</ele>
        <time>2011-08-18T17:56:33Z</time>
      </trkpt>
      <trkpt lat="41.792062" lon="2.020238">
        <ele>642.1</ele>
        <time>2011-08-18T17:56:33Z</time>
      </trkpt>
      <trkpt lat="41.792123" lon="2.020106">
        <ele>641.2</ele>
        <time>2011-08-18T17:56:33Z</time>
      </trkpt>
      <trkpt lat="41.792172" lon="2.019977">
        <ele>640.9</ele>
        <time>2011-08-18T17:56:33Z</time>
      </trkpt>
      <trkpt lat="41.792194" lon="2.019795">
        <ele>640.3</ele>
        <time>2011-08-18T17:56:33Z</time>
      </trkpt>
      <trkpt lat="41.792221" lon="2.019672">
        <ele>639.8</ele>
        <time>2011-08-18T17:56:33Z</time>
      </trkpt>
      <trkpt lat="41.792249" lon="2.019551">
        <ele>639.3</ele>
        <time>2011-08-18T17:56:33Z</time>
      </trkpt>
      <trkpt lat="41.792266" lon="2.019384">
        <ele>638.4</ele>
        <time>2011-08-18T17:56:33Z</time>
      </trkpt>
      <trkpt lat="41.792309" lon="2.019264">
        <ele>637.9</ele>
        <time>2011-08-18T17:56:33Z</time>
      </trkpt>
      <trkpt lat="41.792326" lon="2.019102">
        <ele>636.6</ele>
        <time>2011-08-18T17:56:33Z</time>
      </trkpt>
      <trkpt lat="41.792329" lon="2.018952">
        <ele>635.8</ele>
        <time>2011-08-18T17:56:33Z</time>
      </trkpt>
      <trkpt lat="41.792315" lon="2.018760">
        <ele>635.2</ele>
        <time>2011-08-18T17:56:33Z</time>
      </trkpt>
      <trkpt lat="41.792307" lon="2.018585">
        <ele>634.5</ele>
        <time>2011-08-18T17:56:33Z</time>
      </trkpt>
      <trkpt lat="41.792285" lon="2.018440">
        <ele>633.4</ele>
        <time>2011-08-18T17:56:33Z</time>
      </trkpt>
      <trkpt lat="41.792258" lon="2.018254">
        <ele>632.0</ele>
        <time>2011-08-18T17:56:33Z</time>
      </trkpt>
      <trkpt lat="41.792244" lon="2.018062">
        <ele>631.3</ele>
        <time>2011-08-18T17:56:33Z</time>
      </trkpt>
      <trkpt lat="41.792249" lon="2.017862">
        <ele>630.6</ele>
        <time>2011-08-18T17:56:33Z</time>
      </trkpt>
      <trkpt lat="41.792256" lon="2.017722">
        <ele>630.0</ele>
        <time>2011-08-18T17:56:33Z</time>
      </trkpt>
      <trkpt lat="41.792259" lon="2.017544">
        <ele>629.2</ele>
        <time>2011-08-18T17:56:33Z</time>
      </trkpt>
      <trkpt lat="41.792260" lon="2.017441">
        <ele>629.0</ele>
        <time>2011-08-18T17:56:33Z</time>
      </trkpt>
      <trkpt lat="41.792257" lon="2.017347">
        <ele>628.7</ele>
        <time>2011-08-18T17:56:33Z</time>
      </trkpt>
      <trkpt lat="41.792264" lon="2.017193">
        <ele>628.5</ele>
        <time>2011-08-18T17:56:33Z</time>
      </trkpt>
      <trkpt lat="41.792277" lon="2.017043">
        <ele>628.7</ele>
        <time>2011-08-18T17:56:33Z</time>
      </trkpt>
      <trkpt lat="41.792299" lon="2.016881">
        <ele>629.0</ele>
        <time>2011-08-18T17:56:33Z</time>
      </trkpt>
      <trkpt lat="41.792339" lon="2.016699">
        <ele>628.5</ele>
        <time>2011-08-18T17:56:33Z</time>
      </trkpt>
      <trkpt lat="41.792373" lon="2.016532">
        <ele>628.1</ele>
        <time>2011-08-18T17:56:33Z</time>
      </trkpt>
      <trkpt lat="41.792413" lon="2.016331">
        <ele>627.1</ele>
        <time>2011-08-18T17:56:33Z</time>
      </trkpt>
      <trkpt lat="41.792449" lon="2.016216">
        <ele>626.4</ele>
        <time>2011-08-18T17:56:33Z</time>
      </trkpt>
      <trkpt lat="41.792490" lon="2.016068">
        <ele>625.7</ele>
        <time>2011-08-18T17:56:33Z</time>
      </trkpt>
      <trkpt lat="41.792526" lon="2.015934">
        <ele>625.3</ele>
        <time>2011-08-18T17:56:33Z</time>
      </trkpt>
      <trkpt lat="41.792525" lon="2.015773">
        <ele>624.8</ele>
        <time>2011-08-18T17:56:33Z</time>
      </trkpt>
      <trkpt lat="41.792547" lon="2.015705">
        <ele>624.6</ele>
        <time>2011-08-18T17:56:33Z</time>
      </trkpt>
      <trkpt lat="41.792575" lon="2.015605">
        <ele>623.9</ele>
        <time>2011-08-18T17:56:33Z</time>
      </trkpt>
      <trkpt lat="41.792597" lon="2.015446">
        <ele>623.0</ele>
        <time>2011-08-18T17:56:33Z</time>
      </trkpt>
      <trkpt lat="41.792596" lon="2.015351">
        <ele>622.6</ele>
        <time>2011-08-18T17:56:33Z</time>
      </trkpt>
      <trkpt lat="41.792589" lon="2.015251">
        <ele>622.2</ele>
        <time>2011-08-18T17:56:33Z</time>
      </trkpt>
      <trkpt lat="41.792586" lon="2.015165">
        <ele>621.8</ele>
        <time>2011-08-18T17:56:33Z</time>
      </trkpt>
      <trkpt lat="41.792614" lon="2.015067">
        <ele>621.6</ele>
        <time>2011-08-18T17:56:33Z</time>
      </trkpt>
      <trkpt lat="41.792660" lon="2.015011">
        <ele>622.0</ele>
        <time>2011-08-18T17:56:33Z</time>
      </trkpt>
      <trkpt lat="41.792735" lon="2.014995">
        <ele>622.7</ele>
        <time>2011-08-18T17:56:33Z</time>
      </trkpt>
      <trkpt lat="41.792827" lon="2.015022">
        <ele>623.1</ele>
        <time>2011-08-18T17:56:33Z</time>
      </trkpt>
      <trkpt lat="41.792927" lon="2.015062">
        <ele>622.2</ele>
        <time>2011-08-18T17:56:33Z</time>
      </trkpt>
      <trkpt lat="41.793031" lon="2.015074">
        <ele>621.4</ele>
        <time>2011-08-18T17:56:33Z</time>
      </trkpt>
      <trkpt lat="41.793124" lon="2.015034">
        <ele>620.7</ele>
        <time>2011-08-18T17:56:33Z</time>
      </trkpt>
      <trkpt lat="41.793218" lon="2.014969">
        <ele>620.4</ele>
        <time>2011-08-18T17:56:33Z</time>
      </trkpt>
      <trkpt lat="41.793302" lon="2.014881">
        <ele>620.2</ele>
        <time>2011-08-18T17:56:33Z</time>
      </trkpt>
      <trkpt lat="41.793377" lon="2.014802">
        <ele>619.5</ele>
        <time>2011-08-18T17:56:33Z</time>
      </trkpt>
      <trkpt lat="41.793436" lon="2.014687">
        <ele>619.1</ele>
        <time>2011-08-18T17:56:33Z</time>
      </trkpt>
      <trkpt lat="41.793479" lon="2.014600">
        <ele>618.8</ele>
        <time>2011-08-18T17:56:33Z</time>
      </trkpt>
      <trkpt lat="41.793528" lon="2.014466">
        <ele>618.5</ele>
        <time>2011-08-18T17:56:33Z</time>
      </trkpt>
      <trkpt lat="41.793583" lon="2.014359">
        <ele>617.2</ele>
        <time>2011-08-18T17:56:33Z</time>
      </trkpt>
      <trkpt lat="41.793651" lon="2.014247">
        <ele>615.9</ele>
        <time>2011-08-18T17:56:33Z</time>
      </trkpt>
      <trkpt lat="41.793704" lon="2.014154">
        <ele>615.4</ele>
        <time>2011-08-18T17:56:33Z</time>
      </trkpt>
      <trkpt lat="41.793754" lon="2.014081">
        <ele>614.8</ele>
        <time>2011-08-18T17:56:33Z</time>
      </trkpt>
      <trkpt lat="41.793803" lon="2.013988">
        <ele>614.0</ele>
        <time>2011-08-18T17:56:33Z</time>
      </trkpt>
      <trkpt lat="41.793863" lon="2.013884">
        <ele>613.2</ele>
        <time>2011-08-18T17:56:33Z</time>
      </trkpt>
      <trkpt lat="41.793903" lon="2.013786">
        <ele>613.0</ele>
        <time>2011-08-18T17:56:33Z</time>
      </trkpt>
      <trkpt lat="41.793954" lon="2.013677">
        <ele>612.8</ele>
        <time>2011-08-18T17:56:33Z</time>
      </trkpt>
      <trkpt lat="41.794004" lon="2.013587">
        <ele>612.3</ele>
        <time>2011-08-18T17:56:33Z</time>
      </trkpt>
      <trkpt lat="41.794057" lon="2.013469">
        <ele>611.1</ele>
        <time>2011-08-18T17:56:33Z</time>
      </trkpt>
      <trkpt lat="41.794095" lon="2.013357">
        <ele>610.3</ele>
        <time>2011-08-18T17:56:33Z</time>
      </trkpt>
      <trkpt lat="41.794119" lon="2.013229">
        <ele>609.7</ele>
        <time>2011-08-18T17:56:33Z</time>
      </trkpt>
      <trkpt lat="41.794125" lon="2.013126">
        <ele>609.5</ele>
        <time>2011-08-18T17:56:33Z</time>
      </trkpt>
      <trkpt lat="41.794132" lon="2.012992">
        <ele>609.3</ele>
        <time>2011-08-18T17:56:33Z</time>
      </trkpt>
      <trkpt lat="41.794125" lon="2.012875">
        <ele>609.4</ele>
        <time>2011-08-18T17:56:33Z</time>
      </trkpt>
      <trkpt lat="41.794123" lon="2.012739">
        <ele>608.7</ele>
        <time>2011-08-18T17:56:33Z</time>
      </trkpt>
      <trkpt lat="41.794116" lon="2.012625">
        <ele>608.2</ele>
        <time>2011-08-18T17:56:33Z</time>
      </trkpt>
      <trkpt lat="41.794115" lon="2.012477">
        <ele>607.3</ele>
        <time>2011-08-18T17:56:33Z</time>
      </trkpt>
      <trkpt lat="41.794126" lon="2.012341">
        <ele>606.3</ele>
        <time>2011-08-18T17:56:33Z</time>
      </trkpt>
      <trkpt lat="41.794146" lon="2.012229">
        <ele>605.5</ele>
        <time>2011-08-18T17:56:33Z</time>
      </trkpt>
      <trkpt lat="41.794176" lon="2.012081">
        <ele>604.0</ele>
        <time>2011-08-18T17:56:33Z</time>
      </trkpt>
      <trkpt lat="41.794196" lon="2.011944">
        <ele>602.6</ele>
        <time>2011-08-18T17:56:33Z</time>
      </trkpt>
      <trkpt lat="41.794219" lon="2.011791">
        <ele>601.1</ele>
        <time>2011-08-18T17:56:33Z</time>
      </trkpt>
      <trkpt lat="41.794252" lon="2.011671">
        <ele>599.6</ele>
        <time>2011-08-18T17:56:33Z</time>
      </trkpt>
      <trkpt lat="41.794297" lon="2.011584">
        <ele>598.8</ele>
        <time>2011-08-18T17:56:33Z</time>
      </trkpt>
      <trkpt lat="41.794352" lon="2.011502">
        <ele>598.3</ele>
        <time>2011-08-18T17:56:33Z</time>
      </trkpt>
      <trkpt lat="41.794408" lon="2.011415">
        <ele>598.0</ele>
        <time>2011-08-18T17:56:33Z</time>
      </trkpt>
      <trkpt lat="41.794474" lon="2.011358">
        <ele>595.8</ele>
        <time>2011-08-18T17:56:33Z</time>
      </trkpt>
      <trkpt lat="41.794542" lon="2.011321">
        <ele>594.2</ele>
        <time>2011-08-18T17:56:33Z</time>
      </trkpt>
      <trkpt lat="41.794611" lon="2.011328">
        <ele>593.4</ele>
        <time>2011-08-18T17:56:33Z</time>
      </trkpt>
      <trkpt lat="41.794647" lon="2.011409">
        <ele>593.5</ele>
        <time>2011-08-18T17:56:33Z</time>
      </trkpt>
      <trkpt lat="41.794657" lon="2.011525">
        <ele>593.4</ele>
        <time>2011-08-18T17:56:33Z</time>
      </trkpt>
      <trkpt lat="41.794662" lon="2.011645">
        <ele>593.4</ele>
        <time>2011-08-18T17:56:33Z</time>
      </trkpt>
      <trkpt lat="41.794661" lon="2.011745">
        <ele>593.5</ele>
        <time>2011-08-18T17:56:33Z</time>
      </trkpt>
      <trkpt lat="41.794653" lon="2.011843">
        <ele>593.8</ele>
        <time>2011-08-18T17:56:33Z</time>
      </trkpt>
      <trkpt lat="41.794646" lon="2.011982">
        <ele>594.1</ele>
        <time>2011-08-18T17:56:33Z</time>
      </trkpt>
      <trkpt lat="41.794641" lon="2.012096">
        <ele>594.3</ele>
        <time>2011-08-18T17:56:33Z</time>
      </trkpt>
      <trkpt lat="41.794646" lon="2.012258">
        <ele>594.6</ele>
        <time>2011-08-18T17:56:33Z</time>
      </trkpt>
      <trkpt lat="41.794662" lon="2.012416">
        <ele>594.6</ele>
        <time>2011-08-18T17:56:33Z</time>
      </trkpt>
      <trkpt lat="41.794693" lon="2.012555">
        <ele>593.7</ele>
        <time>2011-08-18T17:56:33Z</time>
      </trkpt>
      <trkpt lat="41.794715" lon="2.012694">
        <ele>593.0</ele>
        <time>2011-08-18T17:56:33Z</time>
      </trkpt>
      <trkpt lat="41.794747" lon="2.012852">
        <ele>592.0</ele>
        <time>2011-08-18T17:56:33Z</time>
      </trkpt>
      <trkpt lat="41.794769" lon="2.012988">
        <ele>591.3</ele>
        <time>2011-08-18T17:56:33Z</time>
      </trkpt>
      <trkpt lat="41.794791" lon="2.013099">
        <ele>590.6</ele>
        <time>2011-08-18T17:56:33Z</time>
      </trkpt>
      <trkpt lat="41.794811" lon="2.013207">
        <ele>590.0</ele>
        <time>2011-08-18T17:56:33Z</time>
      </trkpt>
      <trkpt lat="41.794823" lon="2.013380">
        <ele>589.7</ele>
        <time>2011-08-18T17:56:33Z</time>
      </trkpt>
      <trkpt lat="41.794820" lon="2.013541">
        <ele>589.8</ele>
        <time>2011-08-18T17:56:33Z</time>
      </trkpt>
      <trkpt lat="41.794809" lon="2.013683">
        <ele>589.5</ele>
        <time>2011-08-18T17:56:33Z</time>
      </trkpt>
      <trkpt lat="41.794793" lon="2.013834">
        <ele>588.9</ele>
        <time>2011-08-18T17:56:33Z</time>
      </trkpt>
      <trkpt lat="41.794803" lon="2.013956">
        <ele>588.0</ele>
        <time>2011-08-18T17:56:33Z</time>
      </trkpt>
      <trkpt lat="41.794812" lon="2.014067">
        <ele>587.8</ele>
        <time>2011-08-18T17:56:33Z</time>
      </trkpt>
      <trkpt lat="41.794840" lon="2.014164">
        <ele>587.4</ele>
        <time>2011-08-18T17:56:33Z</time>
      </trkpt>
      <trkpt lat="41.794884" lon="2.014269">
        <ele>586.9</ele>
        <time>2011-08-18T17:56:33Z</time>
      </trkpt>
      <trkpt lat="41.794933" lon="2.014344">
        <ele>586.9</ele>
        <time>2011-08-18T17:56:33Z</time>
      </trkpt>
      <trkpt lat="41.794994" lon="2.014387">
        <ele>586.6</ele>
        <time>2011-08-18T17:56:33Z</time>
      </trkpt>
      <trkpt lat="41.795067" lon="2.014414">
        <ele>586.1</ele>
        <time>2011-08-18T17:56:33Z</time>
      </trkpt>
      <trkpt lat="41.795113" lon="2.014405">
        <ele>585.6</ele>
        <time>2011-08-18T17:56:33Z</time>
      </trkpt>
      <trkpt lat="41.795200" lon="2.014359">
        <ele>584.6</ele>
        <time>2011-08-18T17:56:33Z</time>
      </trkpt>
      <trkpt lat="41.795251" lon="2.014303">
        <ele>584.2</ele>
        <time>2011-08-18T17:56:33Z</time>
      </trkpt>
      <trkpt lat="41.795301" lon="2.014227">
        <ele>584.6</ele>
        <time>2011-08-18T17:56:33Z</time>
      </trkpt>
      <trkpt lat="41.795364" lon="2.014095">
        <ele>585.0</ele>
        <time>2011-08-18T17:56:33Z</time>
      </trkpt>
      <trkpt lat="41.795413" lon="2.013947">
        <ele>585.3</ele>
        <time>2011-08-18T17:56:33Z</time>
      </trkpt>
      <trkpt lat="41.795454" lon="2.013849">
        <ele>585.6</ele>
        <time>2011-08-18T17:56:33Z</time>
      </trkpt>
      <trkpt lat="41.795501" lon="2.013745">
        <ele>585.9</ele>
        <time>2011-08-18T17:56:33Z</time>
      </trkpt>
      <trkpt lat="41.795558" lon="2.013602">
        <ele>586.8</ele>
        <time>2011-08-18T17:56:33Z</time>
      </trkpt>
      <trkpt lat="41.795609" lon="2.013448">
        <ele>587.6</ele>
        <time>2011-08-18T17:56:33Z</time>
      </trkpt>
      <trkpt lat="41.795653" lon="2.013306">
        <ele>588.4</ele>
        <time>2011-08-18T17:56:33Z</time>
      </trkpt>
      <trkpt lat="41.795675" lon="2.013180">
        <ele>588.7</ele>
        <time>2011-08-18T17:56:33Z</time>
      </trkpt>
      <trkpt lat="41.795701" lon="2.012996">
        <ele>588.7</ele>
        <time>2011-08-18T17:56:33Z</time>
      </trkpt>
      <trkpt lat="41.795722" lon="2.012859">
        <ele>588.7</ele>
        <time>2011-08-18T17:56:33Z</time>
      </trkpt>
      <trkpt lat="41.795742" lon="2.012717">
        <ele>588.3</ele>
        <time>2011-08-18T17:56:33Z</time>
      </trkpt>
      <trkpt lat="41.795749" lon="2.012608">
        <ele>587.7</ele>
        <time>2011-08-18T17:56:33Z</time>
      </trkpt>
      <trkpt lat="41.795765" lon="2.012474">
        <ele>587.0</ele>
        <time>2011-08-18T17:56:33Z</time>
      </trkpt>
      <trkpt lat="41.795776" lon="2.012341">
        <ele>585.7</ele>
        <time>2011-08-18T17:56:33Z</time>
      </trkpt>
      <trkpt lat="41.795833" lon="2.012200">
        <ele>585.1</ele>
        <time>2011-08-18T17:56:33Z</time>
      </trkpt>
      <trkpt lat="41.795893" lon="2.012105">
        <ele>584.8</ele>
        <time>2011-08-18T17:56:33Z</time>
      </trkpt>
      <trkpt lat="41.795952" lon="2.012015">
        <ele>583.9</ele>
        <time>2011-08-18T17:56:33Z</time>
      </trkpt>
      <trkpt lat="41.795977" lon="2.011925">
        <ele>582.5</ele>
        <time>2011-08-18T17:56:33Z</time>
      </trkpt>
      <trkpt lat="41.795999" lon="2.011803">
        <ele>580.5</ele>
        <time>2011-08-18T17:56:33Z</time>
      </trkpt>
      <trkpt lat="41.796027" lon="2.011691">
        <ele>578.8</ele>
        <time>2011-08-18T17:56:33Z</time>
      </trkpt>
      <trkpt lat="41.796080" lon="2.011604">
        <ele>578.3</ele>
        <time>2011-08-18T17:56:33Z</time>
      </trkpt>
      <trkpt lat="41.796132" lon="2.011511">
        <ele>577.6</ele>
        <time>2011-08-18T17:56:33Z</time>
      </trkpt>
      <trkpt lat="41.796170" lon="2.011394">
        <ele>576.3</ele>
        <time>2011-08-18T17:56:33Z</time>
      </trkpt>
      <trkpt lat="41.796198" lon="2.011290">
        <ele>575.3</ele>
        <time>2011-08-18T17:56:33Z</time>
      </trkpt>
      <trkpt lat="41.796214" lon="2.011170">
        <ele>573.6</ele>
        <time>2011-08-18T17:56:33Z</time>
      </trkpt>
      <trkpt lat="41.796265" lon="2.011036">
        <ele>571.9</ele>
        <time>2011-08-18T17:56:33Z</time>
      </trkpt>
      <trkpt lat="41.796301" lon="2.010938">
        <ele>571.2</ele>
        <time>2011-08-18T17:56:33Z</time>
      </trkpt>
      <trkpt lat="41.796336" lon="2.010854">
        <ele>570.6</ele>
        <time>2011-08-18T17:56:33Z</time>
      </trkpt>
      <trkpt lat="41.796352" lon="2.010787">
        <ele>569.9</ele>
        <time>2011-08-18T17:56:33Z</time>
      </trkpt>
      <trkpt lat="41.796312" lon="2.010707">
        <ele>568.7</ele>
        <time>2011-08-18T17:56:33Z</time>
      </trkpt>
      <trkpt lat="41.796251" lon="2.010599">
        <ele>567.7</ele>
        <time>2011-08-18T17:56:33Z</time>
      </trkpt>
      <trkpt lat="41.796212" lon="2.010502">
        <ele>567.3</ele>
        <time>2011-08-18T17:56:33Z</time>
      </trkpt>
      <trkpt lat="41.796168" lon="2.010380">
        <ele>566.8</ele>
        <time>2011-08-18T17:56:33Z</time>
      </trkpt>
      <trkpt lat="41.796121" lon="2.010272">
        <ele>566.2</ele>
        <time>2011-08-18T17:56:33Z</time>
      </trkpt>
      <trkpt lat="41.796074" lon="2.010142">
        <ele>565.8</ele>
        <time>2011-08-18T17:56:33Z</time>
      </trkpt>
      <trkpt lat="41.796021" lon="2.010023">
        <ele>565.1</ele>
        <time>2011-08-18T17:56:33Z</time>
      </trkpt>
      <trkpt lat="41.795983" lon="2.009946">
        <ele>565.0</ele>
        <time>2011-08-18T17:56:33Z</time>
      </trkpt>
      <trkpt lat="41.795921" lon="2.009850">
        <ele>565.4</ele>
        <time>2011-08-18T17:56:33Z</time>
      </trkpt>
      <trkpt lat="41.795870" lon="2.009747">
        <ele>565.5</ele>
        <time>2011-08-18T17:56:33Z</time>
      </trkpt>
      <trkpt lat="41.795830" lon="2.009687">
        <ele>565.2</ele>
        <time>2011-08-18T17:56:33Z</time>
      </trkpt>
      <trkpt lat="41.795790" lon="2.009557">
        <ele>564.8</ele>
        <time>2011-08-18T17:56:33Z</time>
      </trkpt>
      <trkpt lat="41.795762" lon="2.009462">
        <ele>564.7</ele>
        <time>2011-08-18T17:56:33Z</time>
      </trkpt>
      <trkpt lat="41.795734" lon="2.009329">
        <ele>564.7</ele>
        <time>2011-08-18T17:56:33Z</time>
      </trkpt>
      <trkpt lat="41.795693" lon="2.009213">
        <ele>564.7</ele>
        <time>2011-08-18T17:56:33Z</time>
      </trkpt>
      <trkpt lat="41.795669" lon="2.009132">
        <ele>564.9</ele>
        <time>2011-08-18T17:56:33Z</time>
      </trkpt>
      <trkpt lat="41.795668" lon="2.009030">
        <ele>565.3</ele>
        <time>2011-08-18T17:56:33Z</time>
      </trkpt>
      <trkpt lat="41.795659" lon="2.008924">
        <ele>565.6</ele>
        <time>2011-08-18T17:56:33Z</time>
      </trkpt>
      <trkpt lat="41.795631" lon="2.008802">
        <ele>566.3</ele>
        <time>2011-08-18T17:56:33Z</time>
      </trkpt>
      <trkpt lat="41.795584" lon="2.008699">
        <ele>566.8</ele>
        <time>2011-08-18T17:56:33Z</time>
      </trkpt>
      <trkpt lat="41.795533" lon="2.008556">
        <ele>567.7</ele>
        <time>2011-08-18T17:56:33Z</time>
      </trkpt>
      <trkpt lat="41.795491" lon="2.008464">
        <ele>568.4</ele>
        <time>2011-08-18T17:56:33Z</time>
      </trkpt>
      <trkpt lat="41.795446" lon="2.008373">
        <ele>569.4</ele>
        <time>2011-08-18T17:56:33Z</time>
      </trkpt>
      <trkpt lat="41.795396" lon="2.008299">
        <ele>570.1</ele>
        <time>2011-08-18T17:56:33Z</time>
      </trkpt>
      <trkpt lat="41.795337" lon="2.008233">
        <ele>570.5</ele>
        <time>2011-08-18T17:56:33Z</time>
      </trkpt>
      <trkpt lat="41.795290" lon="2.008206">
        <ele>570.4</ele>
        <time>2011-08-18T17:56:33Z</time>
      </trkpt>
      <trkpt lat="41.795284" lon="2.008139">
        <ele>571.6</ele>
        <time>2011-08-18T17:56:33Z</time>
      </trkpt>
      <trkpt lat="41.795344" lon="2.008110">
        <ele>573.1</ele>
        <time>2011-08-18T17:56:33Z</time>
      </trkpt>
      <trkpt lat="41.795406" lon="2.008129">
        <ele>573.6</ele>
        <time>2011-08-18T17:56:33Z</time>
      </trkpt>
      <trkpt lat="41.795480" lon="2.008192">
        <ele>573.4</ele>
        <time>2011-08-18T17:56:33Z</time>
      </trkpt>
      <trkpt lat="41.795576" lon="2.008274">
        <ele>573.4</ele>
        <time>2011-08-18T17:56:33Z</time>
      </trkpt>
      <trkpt lat="41.795677" lon="2.008319">
        <ele>574.2</ele>
        <time>2011-08-18T17:56:33Z</time>
      </trkpt>
      <trkpt lat="41.795773" lon="2.008357">
        <ele>575.1</ele>
        <time>2011-08-18T17:56:33Z</time>
      </trkpt>
      <trkpt lat="41.795867" lon="2.008439">
        <ele>575.4</ele>
        <time>2011-08-18T17:56:33Z</time>
      </trkpt>
      <trkpt lat="41.795968" lon="2.008552">
        <ele>575.9</ele>
        <time>2011-08-18T17:56:33Z</time>
      </trkpt>
      <trkpt lat="41.796034" lon="2.008640">
        <ele>576.4</ele>
        <time>2011-08-18T17:56:33Z</time>
      </trkpt>
      <trkpt lat="41.796106" lon="2.008739">
        <ele>577.1</ele>
        <time>2011-08-18T17:56:33Z</time>
      </trkpt>
      <trkpt lat="41.796175" lon="2.008838">
        <ele>577.9</ele>
        <time>2011-08-18T17:56:33Z</time>
      </trkpt>
      <trkpt lat="41.796230" lon="2.008870">
        <ele>578.9</ele>
        <time>2011-08-18T17:56:33Z</time>
      </trkpt>
      <trkpt lat="41.796294" lon="2.008864">
        <ele>580.3</ele>
        <time>2011-08-18T17:56:33Z</time>
      </trkpt>
      <trkpt lat="41.796318" lon="2.008800">
        <ele>581.1</ele>
        <time>2011-08-18T17:56:33Z</time>
      </trkpt>
      <trkpt lat="41.796334" lon="2.008660">
        <ele>582.2</ele>
        <time>2011-08-18T17:56:33Z</time>
      </trkpt>
      <trkpt lat="41.796352" lon="2.008526">
        <ele>583.3</ele>
        <time>2011-08-18T17:56:33Z</time>
      </trkpt>
      <trkpt lat="41.796377" lon="2.008389">
        <ele>584.4</ele>
        <time>2011-08-18T17:56:33Z</time>
      </trkpt>
      <trkpt lat="41.796401" lon="2.008258">
        <ele>585.4</ele>
        <time>2011-08-18T17:56:33Z</time>
      </trkpt>
      <trkpt lat="41.796423" lon="2.008138">
        <ele>586.3</ele>
        <time>2011-08-18T17:56:33Z</time>
      </trkpt>
      <trkpt lat="41.796403" lon="2.008022">
        <ele>586.8</ele>
        <time>2011-08-18T17:56:33Z</time>
      </trkpt>
      <trkpt lat="41.796378" lon="2.007947">
        <ele>587.1</ele>
        <time>2011-08-18T17:56:33Z</time>
      </trkpt>
      <trkpt lat="41.796341" lon="2.007822">
        <ele>587.8</ele>
        <time>2011-08-18T17:56:33Z</time>
      </trkpt>
      <trkpt lat="41.796326" lon="2.007697">
        <ele>588.4</ele>
        <time>2011-08-18T17:56:33Z</time>
      </trkpt>
      <trkpt lat="41.796356" lon="2.007610">
        <ele>588.6</ele>
        <time>2011-08-18T17:56:33Z</time>
      </trkpt>
      <trkpt lat="41.796366" lon="2.007507">
        <ele>588.8</ele>
        <time>2011-08-18T17:56:33Z</time>
      </trkpt>
      <trkpt lat="41.796369" lon="2.007399">
        <ele>589.0</ele>
        <time>2011-08-18T17:56:33Z</time>
      </trkpt>
      <trkpt lat="41.796328" lon="2.007235">
        <ele>588.8</ele>
        <time>2011-08-18T17:56:33Z</time>
      </trkpt>
      <trkpt lat="41.796274" lon="2.007072">
        <ele>588.9</ele>
        <time>2011-08-18T17:56:33Z</time>
      </trkpt>
      <trkpt lat="41.796259" lon="2.006960">
        <ele>588.5</ele>
        <time>2011-08-18T17:56:33Z</time>
      </trkpt>
      <trkpt lat="41.796229" lon="2.006886">
        <ele>588.5</ele>
        <time>2011-08-18T17:56:33Z</time>
      </trkpt>
      <trkpt lat="41.796196" lon="2.006725">
        <ele>588.1</ele>
        <time>2011-08-18T17:56:33Z</time>
      </trkpt>
      <trkpt lat="41.796158" lon="2.006592">
        <ele>587.6</ele>
        <time>2011-08-18T17:56:33Z</time>
      </trkpt>
      <trkpt lat="41.796128" lon="2.006484">
        <ele>587.2</ele>
        <time>2011-08-18T17:56:33Z</time>
      </trkpt>
      <trkpt lat="41.796097" lon="2.006362">
        <ele>586.6</ele>
        <time>2011-08-18T17:56:33Z</time>
      </trkpt>
      <trkpt lat="41.796044" lon="2.006231">
        <ele>586.3</ele>
        <time>2011-08-18T17:56:33Z</time>
      </trkpt>
      <trkpt lat="41.795989" lon="2.006054">
        <ele>585.6</ele>
        <time>2011-08-18T17:56:33Z</time>
      </trkpt>
      <trkpt lat="41.795950" lon="2.005957">
        <ele>585.3</ele>
        <time>2011-08-18T17:56:33Z</time>
      </trkpt>
      <trkpt lat="41.795908" lon="2.005863">
        <ele>585.1</ele>
        <time>2011-08-18T17:56:33Z</time>
      </trkpt>
      <trkpt lat="41.795865" lon="2.005761">
        <ele>584.9</ele>
        <time>2011-08-18T17:56:33Z</time>
      </trkpt>
      <trkpt lat="41.795839" lon="2.005653">
        <ele>584.4</ele>
        <time>2011-08-18T17:56:33Z</time>
      </trkpt>
      <trkpt lat="41.795824" lon="2.005542">
        <ele>583.8</ele>
        <time>2011-08-18T17:56:33Z</time>
      </trkpt>
      <trkpt lat="41.795812" lon="2.005414">
        <ele>583.0</ele>
        <time>2011-08-18T17:56:33Z</time>
      </trkpt>
      <trkpt lat="41.795805" lon="2.005286">
        <ele>582.1</ele>
        <time>2011-08-18T17:56:33Z</time>
      </trkpt>
      <trkpt lat="41.795795" lon="2.005147">
        <ele>581.1</ele>
        <time>2011-08-18T17:56:33Z</time>
      </trkpt>
      <trkpt lat="41.795792" lon="2.005050">
        <ele>580.3</ele>
        <time>2011-08-18T17:56:33Z</time>
      </trkpt>
      <trkpt lat="41.795796" lon="2.004952">
        <ele>579.5</ele>
        <time>2011-08-18T17:56:33Z</time>
      </trkpt>
      <trkpt lat="41.795810" lon="2.004893">
        <ele>578.8</ele>
        <time>2011-08-18T17:56:33Z</time>
      </trkpt>
      <trkpt lat="41.795853" lon="2.004851">
        <ele>577.8</ele>
        <time>2011-08-18T17:56:33Z</time>
      </trkpt>
      <trkpt lat="41.795951" lon="2.004858">
        <ele>576.9</ele>
        <time>2011-08-18T17:56:33Z</time>
      </trkpt>
      <trkpt lat="41.796103" lon="2.004883">
        <ele>576.5</ele>
        <time>2011-08-18T17:56:33Z</time>
      </trkpt>
      <trkpt lat="41.796226" lon="2.004862">
        <ele>575.9</ele>
        <time>2011-08-18T17:56:33Z</time>
      </trkpt>
      <trkpt lat="41.796359" lon="2.004774">
        <ele>577.0</ele>
        <time>2011-08-18T17:56:33Z</time>
      </trkpt>
      <trkpt lat="41.796391" lon="2.004662">
        <ele>577.2</ele>
        <time>2011-08-18T17:56:33Z</time>
      </trkpt>
      <trkpt lat="41.796399" lon="2.004559">
        <ele>577.1</ele>
        <time>2011-08-18T17:56:33Z</time>
      </trkpt>
      <trkpt lat="41.796358" lon="2.004414">
        <ele>576.1</ele>
        <time>2011-08-18T17:56:33Z</time>
      </trkpt>
      <trkpt lat="41.796302" lon="2.004298">
        <ele>575.1</ele>
        <time>2011-08-18T17:56:33Z</time>
      </trkpt>
      <trkpt lat="41.796258" lon="2.004174">
        <ele>574.3</ele>
        <time>2011-08-18T17:56:33Z</time>
      </trkpt>
      <trkpt lat="41.796207" lon="2.004058">
        <ele>573.6</ele>
        <time>2011-08-18T17:56:33Z</time>
      </trkpt>
      <trkpt lat="41.796166" lon="2.003936">
        <ele>573.0</ele>
        <time>2011-08-18T17:56:33Z</time>
      </trkpt>
      <trkpt lat="41.796109" lon="2.003798">
        <ele>572.2</ele>
        <time>2011-08-18T17:56:33Z</time>
      </trkpt>
      <trkpt lat="41.796045" lon="2.003648">
        <ele>571.6</ele>
        <time>2011-08-18T17:56:33Z</time>
      </trkpt>
      <trkpt lat="41.795985" lon="2.003516">
        <ele>571.1</ele>
        <time>2011-08-18T17:56:33Z</time>
      </trkpt>
      <trkpt lat="41.795917" lon="2.003364">
        <ele>570.9</ele>
        <time>2011-08-18T17:56:33Z</time>
      </trkpt>
      <trkpt lat="41.795877" lon="2.003242">
        <ele>571.3</ele>
        <time>2011-08-18T17:56:33Z</time>
      </trkpt>
      <trkpt lat="41.795855" lon="2.003131">
        <ele>571.9</ele>
        <time>2011-08-18T17:56:33Z</time>
      </trkpt>
      <trkpt lat="41.795848" lon="2.003008">
        <ele>572.4</ele>
        <time>2011-08-18T17:56:33Z</time>
      </trkpt>
      <trkpt lat="41.795851" lon="2.002863">
        <ele>572.7</ele>
        <time>2011-08-18T17:56:33Z</time>
      </trkpt>
      <trkpt lat="41.795854" lon="2.002738">
        <ele>573.0</ele>
        <time>2011-08-18T17:56:33Z</time>
      </trkpt>
      <trkpt lat="41.795855" lon="2.002613">
        <ele>572.4</ele>
        <time>2011-08-18T17:56:33Z</time>
      </trkpt>
      <trkpt lat="41.795845" lon="2.002474">
        <ele>571.7</ele>
        <time>2011-08-18T17:56:33Z</time>
      </trkpt>
      <trkpt lat="41.795829" lon="2.002346">
        <ele>571.2</ele>
        <time>2011-08-18T17:56:33Z</time>
      </trkpt>
      <trkpt lat="41.795836" lon="2.002218">
        <ele>570.3</ele>
        <time>2011-08-18T17:56:33Z</time>
      </trkpt>
      <trkpt lat="41.795823" lon="2.002093">
        <ele>569.5</ele>
        <time>2011-08-18T17:56:33Z</time>
      </trkpt>
      <trkpt lat="41.795824" lon="2.001973">
        <ele>568.7</ele>
        <time>2011-08-18T17:56:33Z</time>
      </trkpt>
      <trkpt lat="41.795806" lon="2.001831">
        <ele>567.6</ele>
        <time>2011-08-18T17:56:33Z</time>
      </trkpt>
      <trkpt lat="41.795790" lon="2.001673">
        <ele>566.4</ele>
        <time>2011-08-18T17:56:33Z</time>
      </trkpt>
      <trkpt lat="41.795766" lon="2.001534">
        <ele>565.5</ele>
        <time>2011-08-18T17:56:33Z</time>
      </trkpt>
      <trkpt lat="41.795734" lon="2.001409">
        <ele>564.7</ele>
        <time>2011-08-18T17:56:33Z</time>
      </trkpt>
      <trkpt lat="41.795703" lon="2.001251">
        <ele>563.7</ele>
        <time>2011-08-18T17:56:33Z</time>
      </trkpt>
      <trkpt lat="41.795704" lon="2.001106">
        <ele>562.9</ele>
        <time>2011-08-18T17:56:33Z</time>
      </trkpt>
      <trkpt lat="41.795678" lon="2.001004">
        <ele>562.4</ele>
        <time>2011-08-18T17:56:33Z</time>
      </trkpt>
      <trkpt lat="41.795625" lon="2.000863">
        <ele>561.7</ele>
        <time>2011-08-18T17:56:33Z</time>
      </trkpt>
      <trkpt lat="41.795591" lon="2.000755">
        <ele>561.0</ele>
        <time>2011-08-18T17:56:33Z</time>
      </trkpt>
      <trkpt lat="41.795537" lon="2.000630">
        <ele>560.4</ele>
        <time>2011-08-18T17:56:33Z</time>
      </trkpt>
      <trkpt lat="41.795493" lon="2.000517">
        <ele>559.9</ele>
        <time>2011-08-18T17:56:33Z</time>
      </trkpt>
      <trkpt lat="41.795433" lon="2.000392">
        <ele>559.3</ele>
        <time>2011-08-18T17:56:33Z</time>
      </trkpt>
      <trkpt lat="41.795399" lon="2.000298">
        <ele>558.8</ele>
        <time>2011-08-18T17:56:33Z</time>
      </trkpt>
      <trkpt lat="41.795337" lon="2.000163">
        <ele>557.9</ele>
        <time>2011-08-18T17:56:33Z</time>
      </trkpt>
      <trkpt lat="41.795286" lon="2.000052">
        <ele>557.4</ele>
        <time>2011-08-18T17:56:33Z</time>
      </trkpt>
      <trkpt lat="41.795248" lon="1.999955">
        <ele>556.8</ele>
        <time>2011-08-18T17:56:33Z</time>
      </trkpt>
      <trkpt lat="41.795216" lon="1.999856">
        <ele>556.1</ele>
        <time>2011-08-18T17:56:33Z</time>
      </trkpt>
      <trkpt lat="41.795173" lon="1.999734">
        <ele>555.4</ele>
        <time>2011-08-18T17:56:33Z</time>
      </trkpt>
      <trkpt lat="41.795135" lon="1.999643">
        <ele>554.9</ele>
        <time>2011-08-18T17:56:33Z</time>
      </trkpt>
      <trkpt lat="41.795101" lon="1.999551">
        <ele>554.4</ele>
        <time>2011-08-18T17:56:33Z</time>
      </trkpt>
      <trkpt lat="41.795056" lon="1.999402">
        <ele>553.8</ele>
        <time>2011-08-18T17:56:33Z</time>
      </trkpt>
      <trkpt lat="41.795030" lon="1.999291">
        <ele>553.3</ele>
        <time>2011-08-18T17:56:33Z</time>
      </trkpt>
      <trkpt lat="41.795019" lon="1.999188">
        <ele>552.9</ele>
        <time>2011-08-18T17:56:33Z</time>
      </trkpt>
      <trkpt lat="41.795005" lon="1.999052">
        <ele>552.2</ele>
        <time>2011-08-18T17:56:33Z</time>
      </trkpt>
      <trkpt lat="41.794977" lon="1.998938">
        <ele>551.5</ele>
        <time>2011-08-18T17:56:33Z</time>
      </trkpt>
      <trkpt lat="41.794943" lon="1.998827">
        <ele>550.9</ele>
        <time>2011-08-18T17:56:33Z</time>
      </trkpt>
      <trkpt lat="41.794923" lon="1.998722">
        <ele>550.6</ele>
        <time>2011-08-18T17:56:33Z</time>
      </trkpt>
      <trkpt lat="41.794905" lon="1.998611">
        <ele>550.3</ele>
        <time>2011-08-18T17:56:33Z</time>
      </trkpt>
      <trkpt lat="41.794885" lon="1.998441">
        <ele>550.0</ele>
        <time>2011-08-18T17:56:33Z</time>
      </trkpt>
      <trkpt lat="41.794825" lon="1.998289">
        <ele>549.9</ele>
        <time>2011-08-18T17:56:33Z</time>
      </trkpt>
      <trkpt lat="41.794752" lon="1.998195">
        <ele>549.6</ele>
        <time>2011-08-18T17:56:33Z</time>
      </trkpt>
      <trkpt lat="41.794671" lon="1.998146">
        <ele>549.5</ele>
        <time>2011-08-18T17:56:33Z</time>
      </trkpt>
      <trkpt lat="41.794600" lon="1.998105">
        <ele>549.6</ele>
        <time>2011-08-18T17:56:33Z</time>
      </trkpt>
      <trkpt lat="41.794530" lon="1.998065">
        <ele>549.5</ele>
        <time>2011-08-18T17:56:33Z</time>
      </trkpt>
      <trkpt lat="41.794430" lon="1.997991">
        <ele>548.8</ele>
        <time>2011-08-18T17:56:33Z</time>
      </trkpt>
      <trkpt lat="41.794350" lon="1.997914">
        <ele>548.6</ele>
        <time>2011-08-18T17:56:33Z</time>
      </trkpt>
      <trkpt lat="41.794268" lon="1.997843">
        <ele>548.6</ele>
        <time>2011-08-18T17:56:33Z</time>
      </trkpt>
      <trkpt lat="41.794166" lon="1.997785">
        <ele>548.7</ele>
        <time>2011-08-18T17:56:33Z</time>
      </trkpt>
      <trkpt lat="41.794080" lon="1.997722">
        <ele>549.0</ele>
        <time>2011-08-18T17:56:33Z</time>
      </trkpt>
      <trkpt lat="41.794000" lon="1.997650">
        <ele>549.0</ele>
        <time>2011-08-18T17:56:33Z</time>
      </trkpt>
      <trkpt lat="41.793939" lon="1.997589">
        <ele>548.8</ele>
        <time>2011-08-18T17:56:33Z</time>
      </trkpt>
      <trkpt lat="41.793877" lon="1.997520">
        <ele>548.7</ele>
        <time>2011-08-18T17:56:33Z</time>
      </trkpt>
      <trkpt lat="41.793832" lon="1.997466">
        <ele>548.7</ele>
        <time>2011-08-18T17:56:33Z</time>
      </trkpt>
      <trkpt lat="41.793777" lon="1.997389">
        <ele>548.9</ele>
        <time>2011-08-18T17:56:33Z</time>
      </trkpt>
      <trkpt lat="41.793718" lon="1.997289">
        <ele>548.8</ele>
        <time>2011-08-18T17:56:33Z</time>
      </trkpt>
      <trkpt lat="41.793623" lon="1.997179">
        <ele>548.5</ele>
        <time>2011-08-18T17:56:33Z</time>
      </trkpt>
      <trkpt lat="41.793525" lon="1.997056">
        <ele>548.7</ele>
        <time>2011-08-18T17:56:33Z</time>
      </trkpt>
      <trkpt lat="41.793443" lon="1.996963">
        <ele>548.9</ele>
        <time>2011-08-18T17:56:33Z</time>
      </trkpt>
      <trkpt lat="41.793341" lon="1.996879">
        <ele>548.7</ele>
        <time>2011-08-18T17:56:33Z</time>
      </trkpt>
      <trkpt lat="41.793238" lon="1.996788">
        <ele>548.6</ele>
        <time>2011-08-18T17:56:33Z</time>
      </trkpt>
      <trkpt lat="41.793161" lon="1.996701">
        <ele>548.8</ele>
        <time>2011-08-18T17:56:33Z</time>
      </trkpt>
      <trkpt lat="41.793071" lon="1.996598">
        <ele>549.0</ele>
        <time>2011-08-18T17:56:33Z</time>
      </trkpt>
      <trkpt lat="41.792988" lon="1.996501">
        <ele>549.0</ele>
        <time>2011-08-18T17:56:33Z</time>
      </trkpt>
      <trkpt lat="41.792886" lon="1.996370">
        <ele>549.1</ele>
        <time>2011-08-18T17:56:33Z</time>
      </trkpt>
      <trkpt lat="41.792826" lon="1.996309">
        <ele>549.4</ele>
        <time>2011-08-18T17:56:33Z</time>
      </trkpt>
      <trkpt lat="41.792714" lon="1.996204">
        <ele>548.7</ele>
        <time>2011-08-19T10:19:26Z</time>
      </trkpt>
      <trkpt lat="41.792611" lon="1.996089">
        <ele>547.4</ele>
        <time>2011-08-19T10:19:26Z</time>
      </trkpt>
      <trkpt lat="41.792490" lon="1.995954">
        <ele>545.5</ele>
        <time>2011-08-19T10:19:26Z</time>
      </trkpt>
      <trkpt lat="41.792374" lon="1.995823">
        <ele>545.1</ele>
        <time>2011-08-19T10:19:26Z</time>
      </trkpt>
      <trkpt lat="41.792283" lon="1.995722">
        <ele>546.8</ele>
        <time>2011-08-19T10:19:26Z</time>
      </trkpt>
      <trkpt lat="41.792162" lon="1.995603">
        <ele>549.0</ele>
        <time>2011-08-19T10:19:26Z</time>
      </trkpt>
      <trkpt lat="41.792082" lon="1.995506">
        <ele>549.2</ele>
        <time>2011-08-19T10:19:26Z</time>
      </trkpt>
      <trkpt lat="41.791984" lon="1.995398">
        <ele>548.7</ele>
        <time>2011-08-19T10:19:26Z</time>
      </trkpt>
      <trkpt lat="41.791960" lon="1.995270">
        <ele>549.5</ele>
        <time>2011-08-19T10:19:26Z</time>
      </trkpt>
      <trkpt lat="41.791874" lon="1.995177">
        <ele>549.5</ele>
        <time>2011-08-19T10:19:26Z</time>
      </trkpt>
      <trkpt lat="41.791806" lon="1.995143">
        <ele>549.6</ele>
        <time>2011-08-19T10:19:26Z</time>
      </trkpt>
      <trkpt lat="41.791753" lon="1.995120">
        <ele>549.7</ele>
        <time>2011-08-19T10:19:26Z</time>
      </trkpt>
      <trkpt lat="41.791659" lon="1.995071">
        <ele>549.8</ele>
        <time>2011-08-19T10:19:26Z</time>
      </trkpt>
      <trkpt lat="41.791559" lon="1.995010">
        <ele>549.9</ele>
        <time>2011-08-19T10:19:26Z</time>
      </trkpt>
      <trkpt lat="41.791457" lon="1.994980">
        <ele>550.0</ele>
        <time>2011-08-19T10:19:26Z</time>
      </trkpt>
      <trkpt lat="41.791395" lon="1.994977">
        <ele>550.1</ele>
        <time>2011-08-19T10:19:26Z</time>
      </trkpt>
      <trkpt lat="41.791319" lon="1.994998">
        <ele>550.3</ele>
        <time>2011-08-19T10:19:26Z</time>
      </trkpt>
      <trkpt lat="41.791235" lon="1.995023">
        <ele>550.6</ele>
        <time>2011-08-19T10:19:26Z</time>
      </trkpt>
      <trkpt lat="41.791109" lon="1.995040">
        <ele>550.9</ele>
        <time>2011-08-19T10:19:26Z</time>
      </trkpt>
      <trkpt lat="41.791016" lon="1.995069">
        <ele>551.2</ele>
        <time>2011-08-19T10:19:26Z</time>
      </trkpt>
      <trkpt lat="41.790939" lon="1.995075">
        <ele>551.3</ele>
        <time>2011-08-19T10:19:26Z</time>
      </trkpt>
      <trkpt lat="41.790979" lon="1.994961">
        <ele>550.7</ele>
        <time>2011-08-19T10:19:26Z</time>
      </trkpt>
      <trkpt lat="41.790996" lon="1.994874">
        <ele>550.2</ele>
        <time>2011-08-19T10:19:26Z</time>
      </trkpt>
      <trkpt lat="41.790888" lon="1.994841">
        <ele>550.4</ele>
        <time>2011-08-19T10:19:26Z</time>
      </trkpt>
      <trkpt lat="41.790782" lon="1.994819">
        <ele>550.6</ele>
        <time>2011-08-19T10:19:26Z</time>
      </trkpt>
      <trkpt lat="41.790673" lon="1.994770">
        <ele>550.3</ele>
        <time>2011-08-19T10:19:26Z</time>
      </trkpt>
      <trkpt lat="41.790503" lon="1.994714">
        <ele>550.1</ele>
        <time>2011-08-19T10:19:26Z</time>
      </trkpt>
      <trkpt lat="41.790368" lon="1.994638">
        <ele>550.0</ele>
        <time>2011-08-19T10:19:26Z</time>
      </trkpt>
      <trkpt lat="41.790235" lon="1.994546">
        <ele>550.0</ele>
        <time>2011-08-19T10:19:26Z</time>
      </trkpt>
      <trkpt lat="41.790121" lon="1.994462">
        <ele>550.3</ele>
        <time>2011-08-19T10:19:26Z</time>
      </trkpt>
      <trkpt lat="41.790035" lon="1.994412">
        <ele>550.5</ele>
        <time>2011-08-19T10:19:26Z</time>
      </trkpt>
      <trkpt lat="41.789917" lon="1.994343">
        <ele>550.7</ele>
        <time>2011-08-19T10:19:26Z</time>
      </trkpt>
      <trkpt lat="41.789815" lon="1.994275">
        <ele>550.8</ele>
        <time>2011-08-19T10:19:26Z</time>
      </trkpt>
      <trkpt lat="41.789712" lon="1.994229">
        <ele>550.8</ele>
        <time>2011-08-19T10:19:26Z</time>
      </trkpt>
      <trkpt lat="41.789576" lon="1.994138">
        <ele>551.2</ele>
        <time>2011-08-19T10:19:26Z</time>
      </trkpt>
      <trkpt lat="41.789473" lon="1.994045">
        <ele>551.1</ele>
        <time>2011-08-19T10:19:26Z</time>
      </trkpt>
      <trkpt lat="41.789384" lon="1.993941">
        <ele>550.9</ele>
        <time>2011-08-19T10:19:26Z</time>
      </trkpt>
      <trkpt lat="41.789316" lon="1.993848">
        <ele>550.9</ele>
        <time>2011-08-19T10:19:26Z</time>
      </trkpt>
      <trkpt lat="41.789245" lon="1.993732">
        <ele>551.4</ele>
        <time>2011-08-19T10:19:26Z</time>
      </trkpt>
      <trkpt lat="41.789206" lon="1.993616">
        <ele>551.3</ele>
        <time>2011-08-19T10:19:26Z</time>
      </trkpt>
      <trkpt lat="41.789176" lon="1.993510">
        <ele>551.3</ele>
        <time>2011-08-19T10:19:26Z</time>
      </trkpt>
      <trkpt lat="41.789177" lon="1.993327">
        <ele>550.1</ele>
        <time>2011-08-19T10:19:26Z</time>
      </trkpt>
      <trkpt lat="41.789144" lon="1.993179">
        <ele>551.0</ele>
        <time>2011-08-19T10:19:26Z</time>
      </trkpt>
      <trkpt lat="41.789116" lon="1.993058">
        <ele>551.8</ele>
        <time>2011-08-19T10:19:26Z</time>
      </trkpt>
      <trkpt lat="41.789086" lon="1.992913">
        <ele>552.2</ele>
        <time>2011-08-19T10:19:26Z</time>
      </trkpt>
      <trkpt lat="41.789073" lon="1.992785">
        <ele>552.2</ele>
        <time>2011-08-19T10:19:26Z</time>
      </trkpt>
      <trkpt lat="41.789089" lon="1.992628">
        <ele>551.8</ele>
        <time>2011-08-19T10:19:26Z</time>
      </trkpt>
      <trkpt lat="41.789099" lon="1.992495">
        <ele>551.4</ele>
        <time>2011-08-19T10:19:26Z</time>
      </trkpt>
      <trkpt lat="41.789128" lon="1.992369">
        <ele>551.0</ele>
        <time>2011-08-19T10:19:26Z</time>
      </trkpt>
      <trkpt lat="41.789217" lon="1.992239">
        <ele>551.2</ele>
        <time>2011-08-19T10:19:26Z</time>
      </trkpt>
      <trkpt lat="41.789284" lon="1.992191">
        <ele>551.2</ele>
        <time>2011-08-19T10:19:26Z</time>
      </trkpt>
      <trkpt lat="41.789324" lon="1.992085">
        <ele>551.1</ele>
        <time>2011-08-19T10:19:26Z</time>
      </trkpt>
      <trkpt lat="41.789367" lon="1.991955">
        <ele>551.0</ele>
        <time>2011-08-19T10:19:26Z</time>
      </trkpt>
      <trkpt lat="41.789412" lon="1.991810">
        <ele>550.9</ele>
        <time>2011-08-19T10:19:26Z</time>
      </trkpt>
      <trkpt lat="41.789435" lon="1.991661">
        <ele>551.0</ele>
        <time>2011-08-19T10:19:26Z</time>
      </trkpt>
      <trkpt lat="41.789451" lon="1.991563">
        <ele>551.4</ele>
        <time>2011-08-19T10:19:26Z</time>
      </trkpt>
      <trkpt lat="41.789471" lon="1.991476">
        <ele>551.9</ele>
        <time>2011-08-19T10:19:26Z</time>
      </trkpt>
      <trkpt lat="41.789400" lon="1.991391">
        <ele>552.3</ele>
        <time>2011-08-19T10:19:26Z</time>
      </trkpt>
      <trkpt lat="41.789303" lon="1.991342">
        <ele>552.0</ele>
        <time>2011-08-19T10:19:26Z</time>
      </trkpt>
      <trkpt lat="41.789203" lon="1.991281">
        <ele>551.2</ele>
        <time>2011-08-19T10:19:26Z</time>
      </trkpt>
      <trkpt lat="41.789106" lon="1.991197">
        <ele>552.3</ele>
        <time>2011-08-19T10:19:26Z</time>
      </trkpt>
      <trkpt lat="41.789009" lon="1.991136">
        <ele>552.1</ele>
        <time>2011-08-19T10:19:26Z</time>
      </trkpt>
      <trkpt lat="41.788938" lon="1.991078">
        <ele>551.9</ele>
        <time>2011-08-19T10:19:26Z</time>
      </trkpt>
      <trkpt lat="41.788870" lon="1.990981">
        <ele>552.2</ele>
        <time>2011-08-19T10:19:26Z</time>
      </trkpt>
      <trkpt lat="41.788839" lon="1.990845">
        <ele>553.5</ele>
        <time>2011-08-19T10:19:26Z</time>
      </trkpt>
      <trkpt lat="41.788782" lon="1.990678">
        <ele>554.1</ele>
        <time>2011-08-19T10:19:26Z</time>
      </trkpt>
      <trkpt lat="41.788737" lon="1.990510">
        <ele>553.8</ele>
        <time>2011-08-19T10:19:26Z</time>
      </trkpt>
      <trkpt lat="41.788680" lon="1.990382">
        <ele>551.6</ele>
        <time>2011-08-19T10:19:26Z</time>
      </trkpt>
      <trkpt lat="41.788623" lon="1.990203">
        <ele>549.5</ele>
        <time>2011-08-19T10:19:26Z</time>
      </trkpt>
      <trkpt lat="41.788601" lon="1.990047">
        <ele>547.4</ele>
        <time>2011-08-19T10:19:26Z</time>
      </trkpt>
      <trkpt lat="41.788634" lon="1.989851">
        <ele>546.5</ele>
        <time>2011-08-19T10:19:26Z</time>
      </trkpt>
      <trkpt lat="41.788674" lon="1.989690">
        <ele>545.6</ele>
        <time>2011-08-19T10:19:26Z</time>
      </trkpt>
      <trkpt lat="41.788731" lon="1.989544">
        <ele>545.1</ele>
        <time>2011-08-19T10:19:26Z</time>
      </trkpt>
      <trkpt lat="41.788803" lon="1.989402">
        <ele>545.0</ele>
        <time>2011-08-19T10:19:26Z</time>
      </trkpt>
      <trkpt lat="41.788864" lon="1.989304">
        <ele>545.8</ele>
        <time>2011-08-19T10:19:26Z</time>
      </trkpt>
      <trkpt lat="41.788927" lon="1.989138">
        <ele>545.4</ele>
        <time>2011-08-19T10:19:26Z</time>
      </trkpt>
      <trkpt lat="41.788966" lon="1.988950">
        <ele>544.5</ele>
        <time>2011-08-19T10:19:26Z</time>
      </trkpt>
      <trkpt lat="41.789014" lon="1.988773">
        <ele>543.9</ele>
        <time>2011-08-19T10:19:26Z</time>
      </trkpt>
      <trkpt lat="41.789050" lon="1.988569">
        <ele>543.1</ele>
        <time>2011-08-19T10:19:26Z</time>
      </trkpt>
      <trkpt lat="41.789095" lon="1.988358">
        <ele>542.2</ele>
        <time>2011-08-19T10:19:26Z</time>
      </trkpt>
      <trkpt lat="41.789149" lon="1.988177">
        <ele>541.6</ele>
        <time>2011-08-19T10:19:26Z</time>
      </trkpt>
      <trkpt lat="41.789198" lon="1.988043">
        <ele>541.1</ele>
        <time>2011-08-19T10:19:26Z</time>
      </trkpt>
      <trkpt lat="41.789222" lon="1.987832">
        <ele>540.2</ele>
        <time>2011-08-19T10:19:26Z</time>
      </trkpt>
      <trkpt lat="41.789232" lon="1.987636">
        <ele>539.4</ele>
        <time>2011-08-19T10:19:26Z</time>
      </trkpt>
      <trkpt lat="41.789207" lon="1.987441">
        <ele>538.2</ele>
        <time>2011-08-19T10:19:26Z</time>
      </trkpt>
      <trkpt lat="41.789190" lon="1.987148">
        <ele>536.6</ele>
        <time>2011-08-19T10:19:26Z</time>
      </trkpt>
      <trkpt lat="41.789194" lon="1.986995">
        <ele>535.8</ele>
        <time>2011-08-19T10:19:26Z</time>
      </trkpt>
      <trkpt lat="41.789182" lon="1.986894">
        <ele>535.1</ele>
        <time>2011-08-19T10:19:26Z</time>
      </trkpt>
      <trkpt lat="41.789117" lon="1.986875">
        <ele>534.4</ele>
        <time>2011-08-19T10:19:26Z</time>
      </trkpt>
      <trkpt lat="41.789027" lon="1.986861">
        <ele>533.6</ele>
        <time>2011-08-19T10:19:26Z</time>
      </trkpt>
      <trkpt lat="41.788947" lon="1.986823">
        <ele>533.4</ele>
        <time>2011-08-19T10:19:26Z</time>
      </trkpt>
      <trkpt lat="41.788865" lon="1.986781">
        <ele>533.4</ele>
        <time>2011-08-19T10:19:26Z</time>
      </trkpt>
      <trkpt lat="41.788747" lon="1.986736">
        <ele>533.6</ele>
        <time>2011-08-19T10:19:26Z</time>
      </trkpt>
      <trkpt lat="41.788618" lon="1.986707">
        <ele>533.4</ele>
        <time>2011-08-19T10:19:26Z</time>
      </trkpt>
      <trkpt lat="41.788530" lon="1.986689">
        <ele>533.4</ele>
        <time>2011-08-19T10:19:26Z</time>
      </trkpt>
      <trkpt lat="41.788475" lon="1.986670">
        <ele>533.3</ele>
        <time>2011-08-19T10:19:26Z</time>
      </trkpt>
      <trkpt lat="41.788392" lon="1.986640">
        <ele>533.0</ele>
        <time>2011-08-19T10:19:26Z</time>
      </trkpt>
      <trkpt lat="41.788290" lon="1.986587">
        <ele>532.6</ele>
        <time>2011-08-19T10:19:26Z</time>
      </trkpt>
      <trkpt lat="41.788204" lon="1.986518">
        <ele>533.1</ele>
        <time>2011-08-19T10:19:26Z</time>
      </trkpt>
      <trkpt lat="41.788130" lon="1.986445">
        <ele>533.5</ele>
        <time>2011-08-19T10:19:26Z</time>
      </trkpt>
      <trkpt lat="41.788054" lon="1.986380">
        <ele>533.6</ele>
        <time>2011-08-19T10:19:26Z</time>
      </trkpt>
      <trkpt lat="41.787939" lon="1.986288">
        <ele>533.6</ele>
        <time>2011-08-19T10:19:26Z</time>
      </trkpt>
      <trkpt lat="41.787842" lon="1.986238">
        <ele>533.1</ele>
        <time>2011-08-19T10:19:26Z</time>
      </trkpt>
      <trkpt lat="41.787733" lon="1.986205">
        <ele>532.4</ele>
        <time>2011-08-19T10:19:26Z</time>
      </trkpt>
      <trkpt lat="41.787566" lon="1.986149">
        <ele>532.4</ele>
        <time>2011-08-19T10:19:26Z</time>
      </trkpt>
      <trkpt lat="41.787445" lon="1.986108">
        <ele>532.6</ele>
        <time>2011-08-19T10:19:26Z</time>
      </trkpt>
      <trkpt lat="41.787287" lon="1.986114">
        <ele>531.1</ele>
        <time>2011-08-19T10:19:26Z</time>
      </trkpt>
      <trkpt lat="41.787200" lon="1.986115">
        <ele>530.3</ele>
        <time>2011-08-19T10:19:26Z</time>
      </trkpt>
      <trkpt lat="41.787097" lon="1.986109">
        <ele>529.5</ele>
        <time>2011-08-19T10:19:26Z</time>
      </trkpt>
      <trkpt lat="41.787030" lon="1.986106">
        <ele>528.9</ele>
        <time>2011-08-19T10:19:26Z</time>
      </trkpt>
      <trkpt lat="41.786954" lon="1.986107">
        <ele>528.1</ele>
        <time>2011-08-19T10:19:26Z</time>
      </trkpt>
      <trkpt lat="41.786888" lon="1.986108">
        <ele>527.4</ele>
        <time>2011-08-19T10:19:26Z</time>
      </trkpt>
      <trkpt lat="41.786816" lon="1.986124">
        <ele>527.0</ele>
        <time>2011-08-19T10:19:26Z</time>
      </trkpt>
      <trkpt lat="41.786751" lon="1.986120">
        <ele>526.9</ele>
        <time>2011-08-19T10:19:26Z</time>
      </trkpt>
      <trkpt lat="41.786672" lon="1.986121">
        <ele>526.7</ele>
        <time>2011-08-19T10:19:26Z</time>
      </trkpt>
      <trkpt lat="41.786575" lon="1.986128">
        <ele>526.4</ele>
        <time>2011-08-19T10:19:26Z</time>
      </trkpt>
      <trkpt lat="41.786478" lon="1.986130">
        <ele>526.1</ele>
        <time>2011-08-19T10:19:26Z</time>
      </trkpt>
      <trkpt lat="41.786395" lon="1.986138">
        <ele>525.8</ele>
        <time>2011-08-19T10:19:26Z</time>
      </trkpt>
      <trkpt lat="41.786305" lon="1.986145">
        <ele>525.3</ele>
        <time>2011-08-19T10:19:26Z</time>
      </trkpt>
      <trkpt lat="41.786229" lon="1.986146">
        <ele>524.6</ele>
        <time>2011-08-19T10:19:26Z</time>
      </trkpt>
      <trkpt lat="41.786141" lon="1.986137">
        <ele>524.0</ele>
        <time>2011-08-19T10:19:26Z</time>
      </trkpt>
      <trkpt lat="41.786076" lon="1.986126">
        <ele>523.7</ele>
        <time>2011-08-19T10:19:26Z</time>
      </trkpt>
      <trkpt lat="41.785984" lon="1.986115">
        <ele>523.1</ele>
        <time>2011-08-19T10:19:26Z</time>
      </trkpt>
      <trkpt lat="41.785898" lon="1.986106">
        <ele>522.5</ele>
        <time>2011-08-19T10:19:26Z</time>
      </trkpt>
      <trkpt lat="41.785848" lon="1.986075">
        <ele>522.6</ele>
        <time>2011-08-19T10:19:26Z</time>
      </trkpt>
      <trkpt lat="41.785778" lon="1.986036">
        <ele>522.4</ele>
        <time>2011-08-19T10:19:26Z</time>
      </trkpt>
      <trkpt lat="41.785733" lon="1.985949">
        <ele>523.0</ele>
        <time>2011-08-19T10:19:26Z</time>
      </trkpt>
      <trkpt lat="41.785701" lon="1.985890">
        <ele>523.4</ele>
        <time>2011-08-19T10:19:26Z</time>
      </trkpt>
      <trkpt lat="41.785663" lon="1.985826">
        <ele>523.8</ele>
        <time>2011-08-19T10:19:26Z</time>
      </trkpt>
      <trkpt lat="41.785621" lon="1.985787">
        <ele>523.7</ele>
        <time>2011-08-19T10:19:26Z</time>
      </trkpt>
      <trkpt lat="41.785547" lon="1.985766">
        <ele>522.7</ele>
        <time>2011-08-19T10:19:26Z</time>
      </trkpt>
      <trkpt lat="41.785470" lon="1.985787">
        <ele>521.7</ele>
        <time>2011-08-19T10:19:26Z</time>
      </trkpt>
      <trkpt lat="41.785366" lon="1.985841">
        <ele>520.0</ele>
        <time>2011-08-19T10:19:26Z</time>
      </trkpt>
      <trkpt lat="41.785266" lon="1.985894">
        <ele>518.4</ele>
        <time>2011-08-19T10:19:26Z</time>
      </trkpt>
      <trkpt lat="41.785190" lon="1.985953">
        <ele>518.0</ele>
        <time>2011-08-19T10:19:26Z</time>
      </trkpt>
      <trkpt lat="41.785118" lon="1.986019">
        <ele>517.5</ele>
        <time>2011-08-19T10:19:26Z</time>
      </trkpt>
      <trkpt lat="41.785040" lon="1.986065">
        <ele>517.6</ele>
        <time>2011-08-19T10:19:26Z</time>
      </trkpt>
      <trkpt lat="41.784955" lon="1.986104">
        <ele>517.7</ele>
        <time>2011-08-19T10:19:26Z</time>
      </trkpt>
      <trkpt lat="41.784860" lon="1.986133">
        <ele>517.6</ele>
        <time>2011-08-19T10:19:26Z</time>
      </trkpt>
      <trkpt lat="41.784785" lon="1.986114">
        <ele>518.2</ele>
        <time>2011-08-19T10:19:26Z</time>
      </trkpt>
      <trkpt lat="41.784714" lon="1.986085">
        <ele>518.8</ele>
        <time>2011-08-19T10:19:26Z</time>
      </trkpt>
      <trkpt lat="41.784598" lon="1.986062">
        <ele>518.5</ele>
        <time>2011-08-19T10:19:26Z</time>
      </trkpt>
      <trkpt lat="41.784550" lon="1.986053">
        <ele>518.4</ele>
        <time>2011-08-19T10:19:26Z</time>
      </trkpt>
      <trkpt lat="41.784506" lon="1.986014">
        <ele>518.9</ele>
        <time>2011-08-19T10:19:26Z</time>
      </trkpt>
      <trkpt lat="41.784467" lon="1.985954">
        <ele>519.7</ele>
        <time>2011-08-19T10:19:26Z</time>
      </trkpt>
      <trkpt lat="41.784405" lon="1.985933">
        <ele>518.7</ele>
        <time>2011-08-19T10:19:26Z</time>
      </trkpt>
      <trkpt lat="41.784349" lon="1.985907">
        <ele>517.3</ele>
        <time>2011-08-19T10:19:26Z</time>
      </trkpt>
      <trkpt lat="41.784261" lon="1.985883">
        <ele>515.1</ele>
        <time>2011-08-19T10:19:26Z</time>
      </trkpt>
      <trkpt lat="41.784199" lon="1.985879">
        <ele>513.5</ele>
        <time>2011-08-19T10:19:26Z</time>
      </trkpt>
      <trkpt lat="41.784164" lon="1.985847">
        <ele>513.0</ele>
        <time>2011-08-19T10:19:26Z</time>
      </trkpt>
      <trkpt lat="41.784092" lon="1.985784">
        <ele>512.6</ele>
        <time>2011-08-19T10:19:26Z</time>
      </trkpt>
      <trkpt lat="41.783991" lon="1.985698">
        <ele>512.7</ele>
        <time>2011-08-19T10:19:26Z</time>
      </trkpt>
      <trkpt lat="41.783866" lon="1.985672">
        <ele>513.2</ele>
        <time>2011-08-19T10:19:26Z</time>
      </trkpt>
      <trkpt lat="41.783736" lon="1.985722">
        <ele>513.5</ele>
        <time>2011-08-19T10:19:26Z</time>
      </trkpt>
      <trkpt lat="41.783650" lon="1.985758">
        <ele>513.6</ele>
        <time>2011-08-19T10:19:26Z</time>
      </trkpt>
      <trkpt lat="41.783574" lon="1.985807">
        <ele>512.9</ele>
        <time>2011-08-19T10:19:26Z</time>
      </trkpt>
      <trkpt lat="41.783479" lon="1.985843">
        <ele>512.5</ele>
        <time>2011-08-19T10:19:26Z</time>
      </trkpt>
      <trkpt lat="41.783384" lon="1.985867">
        <ele>512.3</ele>
        <time>2011-08-19T10:19:26Z</time>
      </trkpt>
      <trkpt lat="41.783269" lon="1.985874">
        <ele>511.4</ele>
        <time>2011-08-19T10:19:26Z</time>
      </trkpt>
      <trkpt lat="41.783133" lon="1.985866">
        <ele>510.4</ele>
        <time>2011-08-19T10:19:26Z</time>
      </trkpt>
      <trkpt lat="41.783028" lon="1.985818">
        <ele>510.0</ele>
        <time>2011-08-19T10:19:26Z</time>
      </trkpt>
      <trkpt lat="41.782900" lon="1.985750">
        <ele>509.6</ele>
        <time>2011-08-19T10:19:26Z</time>
      </trkpt>
      <trkpt lat="41.782794" lon="1.985699">
        <ele>509.0</ele>
        <time>2011-08-19T10:19:26Z</time>
      </trkpt>
      <trkpt lat="41.782696" lon="1.985651">
        <ele>508.3</ele>
        <time>2011-08-19T10:19:26Z</time>
      </trkpt>
      <trkpt lat="41.782619" lon="1.985607">
        <ele>507.8</ele>
        <time>2011-08-19T10:19:26Z</time>
      </trkpt>
      <trkpt lat="41.782561" lon="1.985566">
        <ele>507.3</ele>
        <time>2011-08-19T10:19:26Z</time>
      </trkpt>
      <trkpt lat="41.782516" lon="1.985529">
        <ele>507.2</ele>
        <time>2011-08-19T10:19:26Z</time>
      </trkpt>
      <trkpt lat="41.782465" lon="1.985478">
        <ele>507.1</ele>
        <time>2011-08-19T10:19:26Z</time>
      </trkpt>
      <trkpt lat="41.782416" lon="1.985431">
        <ele>506.9</ele>
        <time>2011-08-19T10:19:26Z</time>
      </trkpt>
      <trkpt lat="41.782373" lon="1.985412">
        <ele>506.5</ele>
        <time>2011-08-19T10:19:26Z</time>
      </trkpt>
      <trkpt lat="41.782325" lon="1.985435">
        <ele>505.9</ele>
        <time>2011-08-19T10:19:26Z</time>
      </trkpt>
      <trkpt lat="41.782335" lon="1.985530">
        <ele>505.6</ele>
        <time>2011-08-19T10:19:26Z</time>
      </trkpt>
      <trkpt lat="41.782313" lon="1.985577">
        <ele>505.3</ele>
        <time>2011-08-19T10:19:26Z</time>
      </trkpt>
      <trkpt lat="41.782240" lon="1.985671">
        <ele>504.3</ele>
        <time>2011-08-19T10:19:26Z</time>
      </trkpt>
      <trkpt lat="41.782162" lon="1.985722">
        <ele>503.7</ele>
        <time>2011-08-19T10:19:26Z</time>
      </trkpt>
      <trkpt lat="41.782085" lon="1.985733">
        <ele>503.6</ele>
        <time>2011-08-19T10:19:26Z</time>
      </trkpt>
      <trkpt lat="41.782050" lon="1.985796">
        <ele>502.9</ele>
        <time>2011-08-19T10:19:26Z</time>
      </trkpt>
      <trkpt lat="41.781991" lon="1.985859">
        <ele>502.3</ele>
        <time>2011-08-19T10:19:26Z</time>
      </trkpt>
      <trkpt lat="41.781893" lon="1.985928">
        <ele>501.9</ele>
        <time>2011-08-19T10:19:26Z</time>
      </trkpt>
      <trkpt lat="41.781809" lon="1.985962">
        <ele>501.9</ele>
        <time>2011-08-19T10:19:26Z</time>
      </trkpt>
      <trkpt lat="41.781686" lon="1.985966">
        <ele>501.3</ele>
        <time>2011-08-19T10:19:26Z</time>
      </trkpt>
      <trkpt lat="41.781597" lon="1.985947">
        <ele>500.6</ele>
        <time>2011-08-19T10:19:26Z</time>
      </trkpt>
      <trkpt lat="41.781501" lon="1.985914">
        <ele>500.2</ele>
        <time>2011-08-19T10:19:26Z</time>
      </trkpt>
      <trkpt lat="41.781428" lon="1.985903">
        <ele>499.8</ele>
        <time>2011-08-19T10:19:26Z</time>
      </trkpt>
      <trkpt lat="41.781365" lon="1.985879">
        <ele>499.6</ele>
        <time>2011-08-19T10:19:26Z</time>
      </trkpt>
      <trkpt lat="41.781301" lon="1.985870">
        <ele>499.3</ele>
        <time>2011-08-19T10:19:26Z</time>
      </trkpt>
      <trkpt lat="41.781277" lon="1.985855">
        <ele>499.4</ele>
        <time>2011-08-19T10:19:26Z</time>
      </trkpt>
      <trkpt lat="41.781228" lon="1.985831">
        <ele>499.5</ele>
        <time>2011-08-19T10:19:26Z</time>
      </trkpt>
      <trkpt lat="41.781180" lon="1.985827">
        <ele>499.0</ele>
        <time>2011-08-19T10:19:26Z</time>
      </trkpt>
      <trkpt lat="41.781120" lon="1.985815">
        <ele>498.4</ele>
        <time>2011-08-19T10:19:26Z</time>
      </trkpt>
      <trkpt lat="41.781100" lon="1.985838">
        <ele>497.5</ele>
        <time>2011-08-19T10:19:26Z</time>
      </trkpt>
      <trkpt lat="41.781087" lon="1.985871">
        <ele>496.5</ele>
        <time>2011-08-19T10:19:26Z</time>
      </trkpt>
      <trkpt lat="41.781117" lon="1.985922">
        <ele>495.7</ele>
        <time>2011-08-19T10:19:26Z</time>
      </trkpt>
      <trkpt lat="41.781162" lon="1.985947">
        <ele>495.9</ele>
        <time>2011-08-19T10:19:26Z</time>
      </trkpt>
      <trkpt lat="41.781211" lon="1.985968">
        <ele>496.3</ele>
        <time>2011-08-19T10:19:26Z</time>
      </trkpt>
      <trkpt lat="41.781269" lon="1.985992">
        <ele>496.2</ele>
        <time>2011-08-19T10:19:26Z</time>
      </trkpt>
      <trkpt lat="41.781312" lon="1.986014">
        <ele>495.7</ele>
        <time>2011-08-19T10:19:26Z</time>
      </trkpt>
      <trkpt lat="41.781346" lon="1.986068">
        <ele>493.8</ele>
        <time>2011-08-19T10:19:26Z</time>
      </trkpt>
      <trkpt lat="41.781311" lon="1.986084">
        <ele>492.8</ele>
        <time>2011-08-19T10:19:26Z</time>
      </trkpt>
      <trkpt lat="41.781245" lon="1.986075">
        <ele>492.5</ele>
        <time>2011-08-19T10:19:26Z</time>
      </trkpt>
      <trkpt lat="41.781191" lon="1.986071">
        <ele>492.0</ele>
        <time>2011-08-19T10:19:26Z</time>
      </trkpt>
      <trkpt lat="41.781143" lon="1.986092">
        <ele>490.5</ele>
        <time>2011-08-19T10:19:26Z</time>
      </trkpt>
      <trkpt lat="41.781094" lon="1.986077">
        <ele>490.3</ele>
        <time>2011-08-19T10:19:26Z</time>
      </trkpt>
      <trkpt lat="41.781049" lon="1.986061">
        <ele>490.2</ele>
        <time>2011-08-19T10:19:26Z</time>
      </trkpt>
      <trkpt lat="41.781010" lon="1.986051">
        <ele>489.9</ele>
        <time>2011-08-19T10:19:26Z</time>
      </trkpt>
      <trkpt lat="41.780960" lon="1.986055">
        <ele>489.0</ele>
        <time>2011-08-19T10:19:26Z</time>
      </trkpt>
      <trkpt lat="41.780925" lon="1.986085">
        <ele>487.5</ele>
        <time>2011-08-19T10:19:26Z</time>
      </trkpt>
      <trkpt lat="41.780882" lon="1.986106">
        <ele>486.3</ele>
        <time>2011-08-19T10:19:26Z</time>
      </trkpt>
      <trkpt lat="41.780851" lon="1.986151">
        <ele>484.5</ele>
        <time>2011-08-19T10:19:26Z</time>
      </trkpt>
      <trkpt lat="41.780801" lon="1.986179">
        <ele>483.1</ele>
        <time>2011-08-19T10:19:26Z</time>
      </trkpt>
      <trkpt lat="41.780745" lon="1.986193">
        <ele>482.1</ele>
        <time>2011-08-19T10:19:26Z</time>
      </trkpt>
      <trkpt lat="41.780687" lon="1.986203">
        <ele>481.2</ele>
        <time>2011-08-19T10:19:26Z</time>
      </trkpt>
      <trkpt lat="41.780656" lon="1.986241">
        <ele>480.3</ele>
        <time>2011-08-19T10:19:26Z</time>
      </trkpt>
      <trkpt lat="41.780624" lon="1.986274">
        <ele>479.7</ele>
        <time>2011-08-19T10:19:26Z</time>
      </trkpt>
      <trkpt lat="41.780567" lon="1.986295">
        <ele>479.6</ele>
        <time>2011-08-19T10:19:26Z</time>
      </trkpt>
      <trkpt lat="41.780526" lon="1.986333">
        <ele>478.8</ele>
        <time>2011-08-19T10:19:26Z</time>
      </trkpt>
      <trkpt lat="41.780511" lon="1.986396">
        <ele>476.9</ele>
        <time>2011-08-19T10:19:26Z</time>
      </trkpt>
      <trkpt lat="41.780475" lon="1.986438">
        <ele>475.8</ele>
        <time>2011-08-19T10:19:26Z</time>
      </trkpt>
      <trkpt lat="41.780445" lon="1.986514">
        <ele>473.5</ele>
        <time>2011-08-19T10:19:26Z</time>
      </trkpt>
      <trkpt lat="41.780414" lon="1.986571">
        <ele>471.8</ele>
        <time>2011-08-19T10:19:26Z</time>
      </trkpt>
      <trkpt lat="41.780377" lon="1.986599">
        <ele>471.2</ele>
        <time>2011-08-19T10:19:26Z</time>
      </trkpt>
      <trkpt lat="41.780340" lon="1.986627">
        <ele>470.5</ele>
        <time>2011-08-19T10:19:26Z</time>
      </trkpt>
      <trkpt lat="41.780292" lon="1.986643">
        <ele>470.3</ele>
        <time>2011-08-19T10:19:26Z</time>
      </trkpt>
      <trkpt lat="41.780253" lon="1.986671">
        <ele>469.5</ele>
        <time>2011-08-19T10:19:26Z</time>
      </trkpt>
      <trkpt lat="41.780261" lon="1.986731">
        <ele>467.1</ele>
        <time>2011-08-19T10:19:26Z</time>
      </trkpt>
      <trkpt lat="41.780332" lon="1.986720">
        <ele>467.3</ele>
        <time>2011-08-19T10:19:26Z</time>
      </trkpt>
      <trkpt lat="41.780405" lon="1.986739">
        <ele>466.2</ele>
        <time>2011-08-19T10:19:26Z</time>
      </trkpt>
      <trkpt lat="41.780483" lon="1.986740">
        <ele>465.6</ele>
        <time>2011-08-19T10:19:26Z</time>
      </trkpt>
      <trkpt lat="41.780550" lon="1.986731">
        <ele>465.4</ele>
        <time>2011-08-19T10:19:26Z</time>
      </trkpt>
      <trkpt lat="41.780608" lon="1.986725">
        <ele>465.2</ele>
        <time>2011-08-19T10:19:26Z</time>
      </trkpt>
      <trkpt lat="41.780690" lon="1.986722">
        <ele>464.8</ele>
        <time>2011-08-19T10:19:26Z</time>
      </trkpt>
      <trkpt lat="41.780761" lon="1.986745">
        <ele>464.4</ele>
        <time>2011-08-19T10:19:26Z</time>
      </trkpt>
      <trkpt lat="41.780845" lon="1.986796">
        <ele>463.1</ele>
        <time>2011-08-19T10:19:26Z</time>
      </trkpt>
      <trkpt lat="41.780916" lon="1.986825">
        <ele>462.6</ele>
        <time>2011-08-19T10:19:26Z</time>
      </trkpt>
      <trkpt lat="41.780984" lon="1.986859">
        <ele>461.8</ele>
        <time>2011-08-19T10:19:26Z</time>
      </trkpt>
      <trkpt lat="41.781055" lon="1.986878">
        <ele>461.4</ele>
        <time>2011-08-19T10:19:26Z</time>
      </trkpt>
      <trkpt lat="41.781111" lon="1.986904">
        <ele>460.8</ele>
        <time>2011-08-19T10:19:26Z</time>
      </trkpt>
      <trkpt lat="41.781171" lon="1.986921">
        <ele>460.6</ele>
        <time>2011-08-19T10:19:26Z</time>
      </trkpt>
      <trkpt lat="41.781219" lon="1.986925">
        <ele>460.7</ele>
        <time>2011-08-19T10:19:26Z</time>
      </trkpt>
      <trkpt lat="41.781286" lon="1.986929">
        <ele>460.9</ele>
        <time>2011-08-19T10:19:26Z</time>
      </trkpt>
      <trkpt lat="41.781357" lon="1.986940">
        <ele>460.8</ele>
        <time>2011-08-19T10:19:26Z</time>
      </trkpt>
      <trkpt lat="41.781415" lon="1.986944">
        <ele>460.9</ele>
        <time>2011-08-19T10:19:26Z</time>
      </trkpt>
      <trkpt lat="41.781462" lon="1.986956">
        <ele>460.7</ele>
        <time>2011-08-19T10:19:26Z</time>
      </trkpt>
      <trkpt lat="41.781503" lon="1.986985">
        <ele>459.8</ele>
        <time>2011-08-19T10:19:26Z</time>
      </trkpt>
      <trkpt lat="41.781440" lon="1.987039">
        <ele>457.7</ele>
        <time>2011-08-19T10:19:26Z</time>
      </trkpt>
      <trkpt lat="41.781388" lon="1.987022">
        <ele>458.1</ele>
        <time>2011-08-19T10:19:26Z</time>
      </trkpt>
      <trkpt lat="41.781330" lon="1.987023">
        <ele>457.8</ele>
        <time>2011-08-19T10:19:26Z</time>
      </trkpt>
      <trkpt lat="41.781265" lon="1.987029">
        <ele>457.4</ele>
        <time>2011-08-19T10:19:26Z</time>
      </trkpt>
      <trkpt lat="41.781198" lon="1.987025">
        <ele>457.2</ele>
        <time>2011-08-19T10:19:26Z</time>
      </trkpt>
      <trkpt lat="41.781121" lon="1.987016">
        <ele>457.0</ele>
        <time>2011-08-19T10:19:26Z</time>
      </trkpt>
      <trkpt lat="41.781063" lon="1.987010">
        <ele>456.9</ele>
        <time>2011-08-19T10:19:26Z</time>
      </trkpt>
      <trkpt lat="41.781020" lon="1.986995">
        <ele>457.1</ele>
        <time>2011-08-19T10:19:26Z</time>
      </trkpt>
      <trkpt lat="41.780953" lon="1.986974">
        <ele>457.5</ele>
        <time>2011-08-19T10:19:26Z</time>
      </trkpt>
      <trkpt lat="41.780890" lon="1.986963">
        <ele>457.5</ele>
        <time>2011-08-19T10:19:26Z</time>
      </trkpt>
      <trkpt lat="41.780828" lon="1.986964">
        <ele>457.0</ele>
        <time>2011-08-19T10:19:26Z</time>
      </trkpt>
      <trkpt lat="41.780791" lon="1.986992">
        <ele>455.7</ele>
        <time>2011-08-19T10:19:26Z</time>
      </trkpt>
      <trkpt lat="41.780864" lon="1.987078">
        <ele>453.1</ele>
        <time>2011-08-19T10:19:26Z</time>
      </trkpt>
      <trkpt lat="41.780930" lon="1.987111">
        <ele>452.2</ele>
        <time>2011-08-19T10:19:26Z</time>
      </trkpt>
      <trkpt lat="41.781001" lon="1.987130">
        <ele>452.0</ele>
        <time>2011-08-19T10:19:26Z</time>
      </trkpt>
      <trkpt lat="41.781085" lon="1.987169">
        <ele>451.2</ele>
        <time>2011-08-19T10:19:26Z</time>
      </trkpt>
      <trkpt lat="41.781168" lon="1.987202">
        <ele>450.6</ele>
        <time>2011-08-19T10:19:26Z</time>
      </trkpt>
      <trkpt lat="41.781235" lon="1.987231">
        <ele>450.1</ele>
        <time>2011-08-19T10:19:26Z</time>
      </trkpt>
      <trkpt lat="41.781300" lon="1.987253">
        <ele>449.5</ele>
        <time>2011-08-19T10:19:26Z</time>
      </trkpt>
      <trkpt lat="41.781375" lon="1.987281">
        <ele>448.7</ele>
        <time>2011-08-19T10:19:26Z</time>
      </trkpt>
      <trkpt lat="41.781448" lon="1.987302">
        <ele>448.2</ele>
        <time>2011-08-19T10:19:26Z</time>
      </trkpt>
      <trkpt lat="41.781510" lon="1.987334">
        <ele>447.1</ele>
        <time>2011-08-19T10:19:26Z</time>
      </trkpt>
      <trkpt lat="41.781581" lon="1.987350">
        <ele>446.1</ele>
        <time>2011-08-19T10:19:26Z</time>
      </trkpt>
      <trkpt lat="41.781645" lon="1.987382">
        <ele>444.4</ele>
        <time>2011-08-19T10:19:26Z</time>
      </trkpt>
      <trkpt lat="41.781666" lon="1.987436">
        <ele>442.3</ele>
        <time>2011-08-19T10:19:26Z</time>
      </trkpt>
      <trkpt lat="41.781640" lon="1.987484">
        <ele>441.1</ele>
        <time>2011-08-19T10:19:26Z</time>
      </trkpt>
      <trkpt lat="41.781580" lon="1.987485">
        <ele>441.6</ele>
        <time>2011-08-19T10:19:26Z</time>
      </trkpt>
      <trkpt lat="41.781534" lon="1.987468">
        <ele>442.5</ele>
        <time>2011-08-19T10:19:26Z</time>
      </trkpt>
      <trkpt lat="41.781470" lon="1.987452">
        <ele>443.2</ele>
        <time>2011-08-19T10:19:26Z</time>
      </trkpt>
      <trkpt lat="41.781405" lon="1.987468">
        <ele>442.5</ele>
        <time>2011-08-19T10:19:26Z</time>
      </trkpt>
      <trkpt lat="41.781348" lon="1.987503">
        <ele>441.4</ele>
        <time>2011-08-19T10:19:26Z</time>
      </trkpt>
      <trkpt lat="41.781297" lon="1.987534">
        <ele>440.3</ele>
        <time>2011-08-19T10:19:26Z</time>
      </trkpt>
      <trkpt lat="41.781232" lon="1.987558">
        <ele>439.4</ele>
        <time>2011-08-19T10:19:26Z</time>
      </trkpt>
      <trkpt lat="41.781150" lon="1.987561">
        <ele>438.6</ele>
        <time>2011-08-19T10:19:26Z</time>
      </trkpt>
      <trkpt lat="41.781104" lon="1.987545">
        <ele>438.6</ele>
        <time>2011-08-19T10:19:26Z</time>
      </trkpt>
      <trkpt lat="41.781020" lon="1.987568">
        <ele>437.2</ele>
        <time>2011-08-19T10:19:26Z</time>
      </trkpt>
      <trkpt lat="41.780942" lon="1.987602">
        <ele>435.6</ele>
        <time>2011-08-19T10:19:26Z</time>
      </trkpt>
      <trkpt lat="41.780882" lon="1.987603">
        <ele>435.0</ele>
        <time>2011-08-19T10:19:26Z</time>
      </trkpt>
      <trkpt lat="41.780806" lon="1.987607">
        <ele>434.3</ele>
        <time>2011-08-19T10:19:26Z</time>
      </trkpt>
      <trkpt lat="41.780729" lon="1.987610">
        <ele>433.5</ele>
        <time>2011-08-19T10:19:26Z</time>
      </trkpt>
      <trkpt lat="41.780659" lon="1.987621">
        <ele>432.8</ele>
        <time>2011-08-19T10:19:26Z</time>
      </trkpt>
      <trkpt lat="41.780608" lon="1.987655">
        <ele>432.0</ele>
        <time>2011-08-19T10:19:26Z</time>
      </trkpt>
      <trkpt lat="41.780560" lon="1.987688">
        <ele>431.1</ele>
        <time>2011-08-19T10:19:26Z</time>
      </trkpt>
      <trkpt lat="41.780497" lon="1.987719">
        <ele>430.2</ele>
        <time>2011-08-19T10:19:26Z</time>
      </trkpt>
      <trkpt lat="41.780402" lon="1.987723">
        <ele>429.9</ele>
        <time>2011-08-19T10:19:26Z</time>
      </trkpt>
      <trkpt lat="41.780326" lon="1.987724">
        <ele>429.7</ele>
        <time>2011-08-19T10:19:26Z</time>
      </trkpt>
      <trkpt lat="41.780229" lon="1.987740">
        <ele>429.0</ele>
        <time>2011-08-19T10:19:26Z</time>
      </trkpt>
      <trkpt lat="41.780164" lon="1.987766">
        <ele>428.1</ele>
        <time>2011-08-19T10:19:26Z</time>
      </trkpt>
      <trkpt lat="41.780108" lon="1.987824">
        <ele>427.7</ele>
        <time>2011-08-19T10:19:26Z</time>
      </trkpt>
      <trkpt lat="41.780073" lon="1.987885">
        <ele>427.5</ele>
        <time>2011-08-19T10:19:26Z</time>
      </trkpt>
      <trkpt lat="41.780039" lon="1.987965">
        <ele>426.7</ele>
        <time>2011-08-19T10:19:26Z</time>
      </trkpt>
      <trkpt lat="41.780012" lon="1.988082">
        <ele>424.9</ele>
        <time>2011-08-19T10:19:26Z</time>
      </trkpt>
      <trkpt lat="41.780002" lon="1.988187">
        <ele>422.8</ele>
        <time>2011-08-19T10:19:26Z</time>
      </trkpt>
      <trkpt lat="41.779985" lon="1.988257">
        <ele>421.6</ele>
        <time>2011-08-19T10:19:26Z</time>
      </trkpt>
      <trkpt lat="41.779924" lon="1.988316">
        <ele>421.2</ele>
        <time>2011-08-19T10:19:26Z</time>
      </trkpt>
      <trkpt lat="41.779869" lon="1.988346">
        <ele>421.2</ele>
        <time>2011-08-19T10:19:26Z</time>
      </trkpt>
      <trkpt lat="41.779788" lon="1.988345">
        <ele>421.5</ele>
        <time>2011-08-19T10:19:26Z</time>
      </trkpt>
      <trkpt lat="41.779707" lon="1.988381">
        <ele>420.9</ele>
        <time>2011-08-19T10:19:26Z</time>
      </trkpt>
      <trkpt lat="41.779655" lon="1.988402">
        <ele>420.6</ele>
        <time>2011-08-19T10:19:26Z</time>
      </trkpt>
      <trkpt lat="41.779608" lon="1.988450">
        <ele>419.5</ele>
        <time>2011-08-19T10:19:26Z</time>
      </trkpt>
      <trkpt lat="41.779573" lon="1.988483">
        <ele>419.1</ele>
        <time>2011-08-19T10:19:26Z</time>
      </trkpt>
      <trkpt lat="41.779525" lon="1.988544">
        <ele>418.2</ele>
        <time>2011-08-19T10:19:26Z</time>
      </trkpt>
      <trkpt lat="41.779487" lon="1.988592">
        <ele>417.6</ele>
        <time>2011-08-19T10:19:26Z</time>
      </trkpt>
      <trkpt lat="41.779414" lon="1.988635">
        <ele>417.5</ele>
        <time>2011-08-19T10:19:26Z</time>
      </trkpt>
      <trkpt lat="41.779347" lon="1.988673">
        <ele>417.3</ele>
        <time>2011-08-19T10:19:26Z</time>
      </trkpt>
      <trkpt lat="41.779297" lon="1.988707">
        <ele>417.2</ele>
        <time>2011-08-19T10:19:26Z</time>
      </trkpt>
      <trkpt lat="41.779261" lon="1.988775">
        <ele>415.9</ele>
        <time>2011-08-19T10:19:26Z</time>
      </trkpt>
      <trkpt lat="41.779226" lon="1.988817">
        <ele>415.3</ele>
        <time>2011-08-19T10:19:26Z</time>
      </trkpt>
      <trkpt lat="41.779164" lon="1.988838">
        <ele>415.7</ele>
        <time>2011-08-19T10:19:26Z</time>
      </trkpt>
      <trkpt lat="41.779103" lon="1.988887">
        <ele>415.2</ele>
        <time>2011-08-19T10:19:26Z</time>
      </trkpt>
      <trkpt lat="41.779059" lon="1.988925">
        <ele>414.9</ele>
        <time>2011-08-19T10:19:26Z</time>
      </trkpt>
      <trkpt lat="41.779016" lon="1.988973">
        <ele>414.6</ele>
        <time>2011-08-19T10:19:26Z</time>
      </trkpt>
      <trkpt lat="41.778948" lon="1.989019">
        <ele>414.7</ele>
        <time>2011-08-19T10:19:26Z</time>
      </trkpt>
      <trkpt lat="41.778885" lon="1.989052">
        <ele>414.9</ele>
        <time>2011-08-19T10:19:26Z</time>
      </trkpt>
      <trkpt lat="41.778835" lon="1.989085">
        <ele>414.7</ele>
        <time>2011-08-19T10:19:26Z</time>
      </trkpt>
      <trkpt lat="41.778779" lon="1.989133">
        <ele>414.3</ele>
        <time>2011-08-19T10:19:26Z</time>
      </trkpt>
      <trkpt lat="41.778742" lon="1.989194">
        <ele>413.1</ele>
        <time>2011-08-19T10:19:26Z</time>
      </trkpt>
      <trkpt lat="41.778689" lon="1.989234">
        <ele>413.0</ele>
        <time>2011-08-19T10:19:26Z</time>
      </trkpt>
      <trkpt lat="41.778644" lon="1.989287">
        <ele>412.3</ele>
        <time>2011-08-19T10:19:26Z</time>
      </trkpt>
      <trkpt lat="41.778604" lon="1.989343">
        <ele>411.8</ele>
        <time>2011-08-19T10:19:26Z</time>
      </trkpt>
      <trkpt lat="41.778563" lon="1.989393">
        <ele>411.3</ele>
        <time>2011-08-19T10:19:26Z</time>
      </trkpt>
      <trkpt lat="41.778539" lon="1.989453">
        <ele>410.2</ele>
        <time>2011-08-19T10:19:26Z</time>
      </trkpt>
      <trkpt lat="41.778518" lon="1.989524">
        <ele>409.0</ele>
        <time>2011-08-19T10:19:26Z</time>
      </trkpt>
      <trkpt lat="41.778460" lon="1.989559">
        <ele>410.0</ele>
        <time>2011-08-19T10:19:26Z</time>
      </trkpt>
      <trkpt lat="41.778412" lon="1.989615">
        <ele>410.1</ele>
        <time>2011-08-19T10:19:26Z</time>
      </trkpt>
      <trkpt lat="41.778370" lon="1.989690">
        <ele>409.1</ele>
        <time>2011-08-19T10:19:26Z</time>
      </trkpt>
      <trkpt lat="41.778329" lon="1.989728">
        <ele>409.1</ele>
        <time>2011-08-19T10:19:26Z</time>
      </trkpt>
      <trkpt lat="41.778293" lon="1.989799">
        <ele>407.8</ele>
        <time>2011-08-19T10:19:26Z</time>
      </trkpt>
      <trkpt lat="41.778263" lon="1.989856">
        <ele>406.7</ele>
        <time>2011-08-19T10:19:26Z</time>
      </trkpt>
      <trkpt lat="41.778219" lon="1.989882">
        <ele>407.7</ele>
        <time>2011-08-19T10:19:26Z</time>
      </trkpt>
      <trkpt lat="41.778180" lon="1.989947">
        <ele>406.9</ele>
        <time>2011-08-19T10:19:26Z</time>
      </trkpt>
      <trkpt lat="41.778156" lon="1.990003">
        <ele>405.9</ele>
        <time>2011-08-19T10:19:26Z</time>
      </trkpt>
      <trkpt lat="41.778116" lon="1.990071">
        <ele>405.8</ele>
        <time>2011-08-19T10:19:26Z</time>
      </trkpt>
      <trkpt lat="41.778087" lon="1.990136">
        <ele>405.2</ele>
        <time>2011-08-19T10:19:26Z</time>
      </trkpt>
      <trkpt lat="41.778048" lon="1.990219">
        <ele>404.5</ele>
        <time>2011-08-19T10:19:26Z</time>
      </trkpt>
      <trkpt lat="41.778028" lon="1.990296">
        <ele>403.2</ele>
        <time>2011-08-19T10:19:26Z</time>
      </trkpt>
      <trkpt lat="41.778011" lon="1.990383">
        <ele>401.6</ele>
        <time>2011-08-19T10:19:26Z</time>
      </trkpt>
      <trkpt lat="41.778017" lon="1.990456">
        <ele>400.1</ele>
        <time>2011-08-19T10:19:26Z</time>
      </trkpt>
      <trkpt lat="41.778012" lon="1.990536">
        <ele>398.7</ele>
        <time>2011-08-19T10:19:26Z</time>
      </trkpt>
      <trkpt lat="41.777990" lon="1.990611">
        <ele>398.7</ele>
        <time>2011-08-19T10:19:26Z</time>
      </trkpt>
      <trkpt lat="41.777993" lon="1.990683">
        <ele>397.3</ele>
        <time>2011-08-19T10:19:26Z</time>
      </trkpt>
      <trkpt lat="41.777973" lon="1.990760">
        <ele>397.8</ele>
        <time>2011-08-19T10:19:26Z</time>
      </trkpt>
      <trkpt lat="41.777957" lon="1.990830">
        <ele>398.9</ele>
        <time>2011-08-19T10:19:26Z</time>
      </trkpt>
      <trkpt lat="41.777965" lon="1.990922">
        <ele>398.2</ele>
        <time>2011-08-19T10:19:26Z</time>
      </trkpt>
      <trkpt lat="41.777973" lon="1.991017">
        <ele>397.4</ele>
        <time>2011-08-19T10:19:26Z</time>
      </trkpt>
      <trkpt lat="41.777983" lon="1.991111">
        <ele>396.7</ele>
        <time>2011-08-19T10:19:26Z</time>
      </trkpt>
      <trkpt lat="41.777999" lon="1.991196">
        <ele>396.1</ele>
        <time>2011-08-19T10:19:26Z</time>
      </trkpt>
      <trkpt lat="41.778015" lon="1.991298">
        <ele>395.4</ele>
        <time>2011-08-19T10:19:26Z</time>
      </trkpt>
      <trkpt lat="41.778032" lon="1.991385">
        <ele>395.2</ele>
        <time>2011-08-19T10:19:26Z</time>
      </trkpt>
      <trkpt lat="41.778059" lon="1.991476">
        <ele>395.1</ele>
        <time>2011-08-19T10:19:26Z</time>
      </trkpt>
      <trkpt lat="41.778088" lon="1.991586">
        <ele>396.0</ele>
        <time>2011-08-19T10:19:26Z</time>
      </trkpt>
      <trkpt lat="41.778130" lon="1.991704">
        <ele>396.0</ele>
        <time>2011-08-19T10:19:26Z</time>
      </trkpt>
      <trkpt lat="41.778148" lon="1.991769">
        <ele>396.0</ele>
        <time>2011-08-19T10:19:26Z</time>
      </trkpt>
      <trkpt lat="41.778180" lon="1.991858">
        <ele>395.0</ele>
        <time>2011-08-19T10:19:26Z</time>
      </trkpt>
      <trkpt lat="41.778219" lon="1.991975">
        <ele>393.4</ele>
        <time>2011-08-19T10:19:26Z</time>
      </trkpt>
      <trkpt lat="41.778258" lon="1.992064">
        <ele>391.6</ele>
        <time>2011-08-19T10:19:26Z</time>
      </trkpt>
      <trkpt lat="41.778300" lon="1.992175">
        <ele>390.0</ele>
        <time>2011-08-19T10:19:26Z</time>
      </trkpt>
      <trkpt lat="41.778327" lon="1.992267">
        <ele>389.7</ele>
        <time>2011-08-19T10:19:26Z</time>
      </trkpt>
      <trkpt lat="41.778330" lon="1.992399">
        <ele>389.9</ele>
        <time>2011-08-19T10:19:26Z</time>
      </trkpt>
      <trkpt lat="41.778333" lon="1.992524">
        <ele>390.1</ele>
        <time>2011-08-19T10:19:26Z</time>
      </trkpt>
      <trkpt lat="41.778319" lon="1.992613">
        <ele>390.0</ele>
        <time>2011-08-19T10:19:26Z</time>
      </trkpt>
      <trkpt lat="41.778333" lon="1.992718">
        <ele>389.1</ele>
        <time>2011-08-19T10:19:26Z</time>
      </trkpt>
      <trkpt lat="41.778317" lon="1.992815">
        <ele>389.0</ele>
        <time>2011-08-19T10:19:26Z</time>
      </trkpt>
      <trkpt lat="41.778277" lon="1.992873">
        <ele>389.4</ele>
        <time>2011-08-19T10:19:26Z</time>
      </trkpt>
      <trkpt lat="41.778221" lon="1.992901">
        <ele>389.8</ele>
        <time>2011-08-19T10:19:26Z</time>
      </trkpt>
      <trkpt lat="41.778132" lon="1.992898">
        <ele>390.8</ele>
        <time>2011-08-19T10:19:26Z</time>
      </trkpt>
      <trkpt lat="41.778076" lon="1.992896">
        <ele>391.4</ele>
        <time>2011-08-19T10:19:26Z</time>
      </trkpt>
      <trkpt lat="41.777997" lon="1.992895">
        <ele>391.8</ele>
        <time>2011-08-19T10:19:26Z</time>
      </trkpt>
      <trkpt lat="41.777913" lon="1.992904">
        <ele>391.4</ele>
        <time>2011-08-19T10:19:26Z</time>
      </trkpt>
      <trkpt lat="41.777792" lon="1.992898">
        <ele>391.1</ele>
        <time>2011-08-19T10:19:26Z</time>
      </trkpt>
      <trkpt lat="41.777715" lon="1.992879">
        <ele>391.7</ele>
        <time>2011-08-19T10:19:26Z</time>
      </trkpt>
      <trkpt lat="41.777607" lon="1.992889">
        <ele>391.5</ele>
        <time>2011-08-19T10:19:26Z</time>
      </trkpt>
      <trkpt lat="41.777507" lon="1.992910">
        <ele>390.8</ele>
        <time>2011-08-19T10:19:26Z</time>
      </trkpt>
      <trkpt lat="41.777427" lon="1.992916">
        <ele>390.8</ele>
        <time>2011-08-19T10:19:26Z</time>
      </trkpt>
      <trkpt lat="41.777343" lon="1.992918">
        <ele>390.8</ele>
        <time>2011-08-19T10:19:26Z</time>
      </trkpt>
      <trkpt lat="41.777220" lon="1.992920">
        <ele>390.8</ele>
        <time>2011-08-19T10:19:26Z</time>
      </trkpt>
      <trkpt lat="41.777134" lon="1.992906">
        <ele>391.0</ele>
        <time>2011-08-19T10:19:26Z</time>
      </trkpt>
      <trkpt lat="41.777059" lon="1.992887">
        <ele>392.1</ele>
        <time>2011-08-19T10:19:26Z</time>
      </trkpt>
      <trkpt lat="41.776955" lon="1.992874">
        <ele>393.0</ele>
        <time>2011-08-19T10:19:26Z</time>
      </trkpt>
      <trkpt lat="41.776865" lon="1.992868">
        <ele>393.2</ele>
        <time>2011-08-19T10:19:26Z</time>
      </trkpt>
      <trkpt lat="41.776753" lon="1.992862">
        <ele>393.2</ele>
        <time>2011-08-19T10:19:26Z</time>
      </trkpt>
      <trkpt lat="41.776680" lon="1.992861">
        <ele>393.0</ele>
        <time>2011-08-19T10:19:26Z</time>
      </trkpt>
      <trkpt lat="41.776589" lon="1.992867">
        <ele>392.4</ele>
        <time>2011-08-19T10:19:26Z</time>
      </trkpt>
      <trkpt lat="41.776485" lon="1.992871">
        <ele>391.8</ele>
        <time>2011-08-19T10:19:26Z</time>
      </trkpt>
      <trkpt lat="41.776408" lon="1.992875">
        <ele>391.3</ele>
        <time>2011-08-19T10:19:26Z</time>
      </trkpt>
      <trkpt lat="41.776326" lon="1.992864">
        <ele>391.1</ele>
        <time>2011-08-19T10:19:26Z</time>
      </trkpt>
      <trkpt lat="41.776214" lon="1.992838">
        <ele>391.2</ele>
        <time>2011-08-19T10:19:26Z</time>
      </trkpt>
      <trkpt lat="41.776121" lon="1.992820">
        <ele>391.1</ele>
        <time>2011-08-19T10:19:26Z</time>
      </trkpt>
      <trkpt lat="41.776035" lon="1.992791">
        <ele>391.2</ele>
        <time>2011-08-19T10:19:26Z</time>
      </trkpt>
      <trkpt lat="41.775971" lon="1.992765">
        <ele>391.4</ele>
        <time>2011-08-19T10:19:26Z</time>
      </trkpt>
      <trkpt lat="41.775890" lon="1.992734">
        <ele>391.4</ele>
        <time>2011-08-19T10:19:26Z</time>
      </trkpt>
      <trkpt lat="41.775802" lon="1.992698">
        <ele>391.3</ele>
        <time>2011-08-19T10:19:26Z</time>
      </trkpt>
      <trkpt lat="41.775731" lon="1.992656">
        <ele>391.5</ele>
        <time>2011-08-19T10:19:26Z</time>
      </trkpt>
      <trkpt lat="41.775641" lon="1.992620">
        <ele>390.7</ele>
        <time>2011-08-19T10:19:26Z</time>
      </trkpt>
      <trkpt lat="41.775568" lon="1.992587">
        <ele>389.9</ele>
        <time>2011-08-19T10:19:26Z</time>
      </trkpt>
      <trkpt lat="41.775467" lon="1.992546">
        <ele>388.9</ele>
        <time>2011-08-19T10:19:26Z</time>
      </trkpt>
      <trkpt lat="41.775394" lon="1.992512">
        <ele>388.2</ele>
        <time>2011-08-19T10:19:26Z</time>
      </trkpt>
      <trkpt lat="41.775308" lon="1.992469">
        <ele>387.4</ele>
        <time>2011-08-19T10:19:26Z</time>
      </trkpt>
      <trkpt lat="41.775235" lon="1.992390">
        <ele>388.1</ele>
        <time>2011-08-19T10:19:26Z</time>
      </trkpt>
      <trkpt lat="41.775169" lon="1.992331">
        <ele>388.0</ele>
        <time>2011-08-19T10:19:26Z</time>
      </trkpt>
      <trkpt lat="41.775122" lon="1.992285">
        <ele>387.7</ele>
        <time>2011-08-19T10:19:26Z</time>
      </trkpt>
      <trkpt lat="41.775071" lon="1.992241">
        <ele>387.1</ele>
        <time>2011-08-19T10:19:26Z</time>
      </trkpt>
      <trkpt lat="41.774991" lon="1.992215">
        <ele>386.3</ele>
        <time>2011-08-19T10:19:26Z</time>
      </trkpt>
      <trkpt lat="41.774912" lon="1.992171">
        <ele>386.0</ele>
        <time>2011-08-19T10:19:26Z</time>
      </trkpt>
      <trkpt lat="41.774867" lon="1.992114">
        <ele>386.2</ele>
        <time>2011-08-19T10:19:26Z</time>
      </trkpt>
      <trkpt lat="41.774814" lon="1.992053">
        <ele>386.3</ele>
        <time>2011-08-19T10:19:26Z</time>
      </trkpt>
      <trkpt lat="41.774780" lon="1.991989">
        <ele>386.6</ele>
        <time>2011-08-19T10:19:26Z</time>
      </trkpt>
      <trkpt lat="41.774751" lon="1.991912">
        <ele>387.3</ele>
        <time>2011-08-19T10:19:26Z</time>
      </trkpt>
      <trkpt lat="41.774697" lon="1.991900">
        <ele>387.3</ele>
        <time>2011-08-19T10:19:26Z</time>
      </trkpt>
      <trkpt lat="41.774632" lon="1.991931">
        <ele>386.7</ele>
        <time>2011-08-19T10:19:26Z</time>
      </trkpt>
      <trkpt lat="41.774577" lon="1.992002">
        <ele>385.7</ele>
        <time>2011-08-19T10:19:26Z</time>
      </trkpt>
      <trkpt lat="41.774497" lon="1.992105">
        <ele>384.4</ele>
        <time>2011-08-19T10:19:26Z</time>
      </trkpt>
      <trkpt lat="41.774427" lon="1.992193">
        <ele>384.0</ele>
        <time>2011-08-19T10:19:26Z</time>
      </trkpt>
      <trkpt lat="41.774361" lon="1.992252">
        <ele>383.8</ele>
        <time>2011-08-19T10:19:26Z</time>
      </trkpt>
      <trkpt lat="41.774288" lon="1.992280">
        <ele>383.7</ele>
        <time>2011-08-19T10:19:26Z</time>
      </trkpt>
      <trkpt lat="41.774204" lon="1.992292">
        <ele>383.9</ele>
        <time>2011-08-19T10:19:26Z</time>
      </trkpt>
      <trkpt lat="41.774096" lon="1.992281">
        <ele>384.2</ele>
        <time>2011-08-19T10:19:26Z</time>
      </trkpt>
      <trkpt lat="41.773975" lon="1.992270">
        <ele>384.5</ele>
        <time>2011-08-19T10:19:26Z</time>
      </trkpt>
      <trkpt lat="41.773880" lon="1.992264">
        <ele>383.9</ele>
        <time>2011-08-19T10:19:26Z</time>
      </trkpt>
      <trkpt lat="41.773785" lon="1.992263">
        <ele>383.3</ele>
        <time>2011-08-19T10:19:26Z</time>
      </trkpt>
      <trkpt lat="41.773688" lon="1.992247">
        <ele>382.8</ele>
        <time>2011-08-19T10:19:26Z</time>
      </trkpt>
      <trkpt lat="41.773602" lon="1.992224">
        <ele>382.8</ele>
        <time>2011-08-19T10:19:26Z</time>
      </trkpt>
      <trkpt lat="41.773534" lon="1.992215">
        <ele>382.6</ele>
        <time>2011-08-19T10:19:26Z</time>
      </trkpt>
      <trkpt lat="41.773463" lon="1.992199">
        <ele>382.6</ele>
        <time>2011-08-19T10:19:26Z</time>
      </trkpt>
      <trkpt lat="41.773394" lon="1.992167">
        <ele>382.4</ele>
        <time>2011-08-19T10:19:26Z</time>
      </trkpt>
      <trkpt lat="41.773328" lon="1.992129">
        <ele>382.1</ele>
        <time>2011-08-19T10:19:26Z</time>
      </trkpt>
      <trkpt lat="41.773270" lon="1.992080">
        <ele>382.0</ele>
        <time>2011-08-19T10:19:26Z</time>
      </trkpt>
      <trkpt lat="41.773204" lon="1.991999">
        <ele>382.2</ele>
        <time>2011-08-19T10:19:26Z</time>
      </trkpt>
      <trkpt lat="41.773134" lon="1.991902">
        <ele>382.3</ele>
        <time>2011-08-19T10:19:26Z</time>
      </trkpt>
      <trkpt lat="41.773080" lon="1.991821">
        <ele>381.5</ele>
        <time>2011-08-19T10:19:26Z</time>
      </trkpt>
      <trkpt lat="41.773034" lon="1.991715">
        <ele>380.9</ele>
        <time>2011-08-19T10:19:26Z</time>
      </trkpt>
      <trkpt lat="41.772998" lon="1.991631">
        <ele>380.6</ele>
        <time>2011-08-19T10:19:26Z</time>
      </trkpt>
      <trkpt lat="41.772962" lon="1.991549">
        <ele>380.3</ele>
        <time>2011-08-19T10:19:26Z</time>
      </trkpt>
      <trkpt lat="41.772912" lon="1.991440">
        <ele>380.2</ele>
        <time>2011-08-19T10:19:26Z</time>
      </trkpt>
      <trkpt lat="41.772872" lon="1.991376">
        <ele>380.0</ele>
        <time>2011-08-19T10:19:26Z</time>
      </trkpt>
      <trkpt lat="41.772838" lon="1.991302">
        <ele>379.9</ele>
        <time>2011-08-19T10:19:26Z</time>
      </trkpt>
      <trkpt lat="41.772800" lon="1.991208">
        <ele>379.9</ele>
        <time>2011-08-19T10:19:26Z</time>
      </trkpt>
      <trkpt lat="41.772766" lon="1.991126">
        <ele>379.5</ele>
        <time>2011-08-19T10:19:26Z</time>
      </trkpt>
      <trkpt lat="41.772731" lon="1.991007">
        <ele>379.1</ele>
        <time>2011-08-19T10:19:26Z</time>
      </trkpt>
      <trkpt lat="41.772714" lon="1.990942">
        <ele>378.9</ele>
        <time>2011-08-19T10:19:26Z</time>
      </trkpt>
      <trkpt lat="41.772693" lon="1.990856">
        <ele>378.7</ele>
        <time>2011-08-19T10:19:26Z</time>
      </trkpt>
      <trkpt lat="41.772681" lon="1.990761">
        <ele>378.7</ele>
        <time>2011-08-19T10:19:26Z</time>
      </trkpt>
      <trkpt lat="41.772665" lon="1.990659">
        <ele>378.6</ele>
        <time>2011-08-19T10:19:26Z</time>
      </trkpt>
      <trkpt lat="41.772636" lon="1.990540">
        <ele>378.3</ele>
        <time>2011-08-19T10:19:26Z</time>
      </trkpt>
      <trkpt lat="41.772556" lon="1.990409">
        <ele>377.1</ele>
        <time>2011-08-19T10:19:26Z</time>
      </trkpt>
      <trkpt lat="41.772485" lon="1.990353">
        <ele>375.8</ele>
        <time>2011-08-19T10:19:26Z</time>
      </trkpt>
      <trkpt lat="41.772391" lon="1.990300">
        <ele>374.0</ele>
        <time>2011-08-19T10:19:26Z</time>
      </trkpt>
      <trkpt lat="41.772335" lon="1.990243">
        <ele>373.0</ele>
        <time>2011-08-19T10:19:26Z</time>
      </trkpt>
      <trkpt lat="41.772293" lon="1.990149">
        <ele>372.7</ele>
        <time>2011-08-19T10:19:26Z</time>
      </trkpt>
      <trkpt lat="41.772238" lon="1.990065">
        <ele>372.3</ele>
        <time>2011-08-19T10:19:26Z</time>
      </trkpt>
      <trkpt lat="41.772153" lon="1.989955">
        <ele>371.8</ele>
        <time>2011-08-19T10:19:26Z</time>
      </trkpt>
      <trkpt lat="41.772069" lon="1.989916">
        <ele>371.1</ele>
        <time>2011-08-19T10:19:26Z</time>
      </trkpt>
      <trkpt lat="41.771990" lon="1.989903">
        <ele>371.6</ele>
        <time>2011-08-19T10:19:26Z</time>
      </trkpt>
      <trkpt lat="41.771934" lon="1.989883">
        <ele>372.0</ele>
        <time>2011-08-19T10:19:26Z</time>
      </trkpt>
      <trkpt lat="41.771895" lon="1.989837">
        <ele>372.1</ele>
        <time>2011-08-19T10:19:26Z</time>
      </trkpt>
      <trkpt lat="41.771863" lon="1.989772">
        <ele>371.9</ele>
        <time>2011-08-19T10:19:26Z</time>
      </trkpt>
      <trkpt lat="41.771830" lon="1.989701">
        <ele>371.8</ele>
        <time>2011-08-19T10:19:26Z</time>
      </trkpt>
      <trkpt lat="41.771790" lon="1.989627">
        <ele>371.7</ele>
        <time>2011-08-19T10:19:26Z</time>
      </trkpt>
      <trkpt lat="41.771730" lon="1.989520">
        <ele>371.6</ele>
        <time>2011-08-19T10:19:26Z</time>
      </trkpt>
      <trkpt lat="41.771651" lon="1.989447">
        <ele>371.4</ele>
        <time>2011-08-19T10:19:26Z</time>
      </trkpt>
      <trkpt lat="41.771582" lon="1.989443">
        <ele>371.5</ele>
        <time>2011-08-19T10:19:26Z</time>
      </trkpt>
      <trkpt lat="41.771520" lon="1.989457">
        <ele>371.8</ele>
        <time>2011-08-19T10:19:26Z</time>
      </trkpt>
      <trkpt lat="41.771489" lon="1.989522">
        <ele>372.4</ele>
        <time>2011-08-19T10:19:26Z</time>
      </trkpt>
      <trkpt lat="41.771471" lon="1.989602">
        <ele>373.2</ele>
        <time>2011-08-19T10:19:26Z</time>
      </trkpt>
      <trkpt lat="41.771446" lon="1.989699">
        <ele>374.0</ele>
        <time>2011-08-19T10:19:26Z</time>
      </trkpt>
      <trkpt lat="41.771413" lon="1.989815">
        <ele>374.8</ele>
        <time>2011-08-19T10:19:26Z</time>
      </trkpt>
      <trkpt lat="41.771414" lon="1.989924">
        <ele>375.9</ele>
        <time>2011-08-19T10:19:26Z</time>
      </trkpt>
      <trkpt lat="41.771432" lon="1.990018">
        <ele>376.8</ele>
        <time>2011-08-19T10:19:26Z</time>
      </trkpt>
      <trkpt lat="41.771451" lon="1.990095">
        <ele>377.6</ele>
        <time>2011-08-19T10:19:26Z</time>
      </trkpt>
      <trkpt lat="41.771432" lon="1.990223">
        <ele>378.6</ele>
        <time>2011-08-19T10:19:26Z</time>
      </trkpt>
      <trkpt lat="41.771400" lon="1.990355">
        <ele>379.6</ele>
        <time>2011-08-19T10:19:26Z</time>
      </trkpt>
      <trkpt lat="41.771397" lon="1.990492">
        <ele>380.7</ele>
        <time>2011-08-19T10:19:26Z</time>
      </trkpt>
      <trkpt lat="41.771406" lon="1.990629">
        <ele>381.9</ele>
        <time>2011-08-19T10:19:26Z</time>
      </trkpt>
      <trkpt lat="41.771392" lon="1.990754">
        <ele>382.9</ele>
        <time>2011-08-19T10:19:26Z</time>
      </trkpt>
      <trkpt lat="41.771389" lon="1.990849">
        <ele>383.6</ele>
        <time>2011-08-19T10:19:26Z</time>
      </trkpt>
      <trkpt lat="41.771368" lon="1.990946">
        <ele>384.1</ele>
        <time>2011-08-19T10:19:26Z</time>
      </trkpt>
      <trkpt lat="41.771350" lon="1.991086">
        <ele>385.0</ele>
        <time>2011-08-19T10:19:26Z</time>
      </trkpt>
      <trkpt lat="41.771340" lon="1.991191">
        <ele>385.7</ele>
        <time>2011-08-19T10:19:26Z</time>
      </trkpt>
      <trkpt lat="41.771345" lon="1.991300">
        <ele>386.1</ele>
        <time>2011-08-19T10:19:26Z</time>
      </trkpt>
      <trkpt lat="41.771364" lon="1.991395">
        <ele>386.4</ele>
        <time>2011-08-19T10:19:26Z</time>
      </trkpt>
      <trkpt lat="41.771404" lon="1.991528">
        <ele>386.9</ele>
        <time>2011-08-19T10:19:26Z</time>
      </trkpt>
      <trkpt lat="41.771419" lon="1.991668">
        <ele>388.1</ele>
        <time>2011-08-19T10:19:26Z</time>
      </trkpt>
      <trkpt lat="41.771379" lon="1.991785">
        <ele>389.2</ele>
        <time>2011-08-19T10:19:26Z</time>
      </trkpt>
      <trkpt lat="41.771331" lon="1.991918">
        <ele>390.3</ele>
        <time>2011-08-19T10:19:26Z</time>
      </trkpt>
      <trkpt lat="41.771299" lon="1.992071">
        <ele>391.4</ele>
        <time>2011-08-19T10:19:26Z</time>
      </trkpt>
      <trkpt lat="41.771266" lon="1.992186">
        <ele>392.2</ele>
        <time>2011-08-19T10:19:26Z</time>
      </trkpt>
      <trkpt lat="41.771217" lon="1.992276">
        <ele>393.0</ele>
        <time>2011-08-19T10:19:26Z</time>
      </trkpt>
      <trkpt lat="41.771150" lon="1.992349">
        <ele>394.0</ele>
        <time>2011-08-19T10:19:26Z</time>
      </trkpt>
      <trkpt lat="41.771086" lon="1.992418">
        <ele>394.9</ele>
        <time>2011-08-19T10:19:26Z</time>
      </trkpt>
      <trkpt lat="41.771025" lon="1.992503">
        <ele>396.1</ele>
        <time>2011-08-19T10:19:26Z</time>
      </trkpt>
      <trkpt lat="41.770977" lon="1.992606">
        <ele>397.1</ele>
        <time>2011-08-19T10:19:26Z</time>
      </trkpt>
      <trkpt lat="41.770949" lon="1.992721">
        <ele>397.5</ele>
        <time>2011-08-19T10:19:26Z</time>
      </trkpt>
      <trkpt lat="41.770959" lon="1.992831">
        <ele>398.0</ele>
        <time>2011-08-19T10:19:26Z</time>
      </trkpt>
      <trkpt lat="41.770973" lon="1.992950">
        <ele>398.6</ele>
        <time>2011-08-19T10:19:26Z</time>
      </trkpt>
      <trkpt lat="41.770998" lon="1.993042">
        <ele>398.9</ele>
        <time>2011-08-19T10:19:26Z</time>
      </trkpt>
      <trkpt lat="41.771047" lon="1.993083">
        <ele>399.3</ele>
        <time>2011-08-19T10:19:26Z</time>
      </trkpt>
      <trkpt lat="41.771131" lon="1.993129">
        <ele>400.2</ele>
        <time>2011-08-19T10:19:26Z</time>
      </trkpt>
      <trkpt lat="41.771171" lon="1.993206">
        <ele>400.9</ele>
        <time>2011-08-19T10:19:26Z</time>
      </trkpt>
      <trkpt lat="41.771230" lon="1.993282">
        <ele>401.9</ele>
        <time>2011-08-19T10:19:26Z</time>
      </trkpt>
      <trkpt lat="41.771282" lon="1.993346">
        <ele>402.9</ele>
        <time>2011-08-19T10:19:26Z</time>
      </trkpt>
      <trkpt lat="41.771343" lon="1.993435">
        <ele>403.5</ele>
        <time>2011-08-19T10:19:26Z</time>
      </trkpt>
      <trkpt lat="41.771388" lon="1.993516">
        <ele>404.0</ele>
        <time>2011-08-19T10:19:26Z</time>
      </trkpt>
      <trkpt lat="41.771411" lon="1.993616">
        <ele>404.5</ele>
        <time>2011-08-19T10:19:26Z</time>
      </trkpt>
      <trkpt lat="41.771410" lon="1.993698">
        <ele>404.9</ele>
        <time>2011-08-19T10:19:26Z</time>
      </trkpt>
      <trkpt lat="41.771385" lon="1.993813">
        <ele>405.5</ele>
        <time>2011-08-19T10:19:26Z</time>
      </trkpt>
      <trkpt lat="41.771356" lon="1.993911">
        <ele>406.1</ele>
        <time>2011-08-19T10:19:26Z</time>
      </trkpt>
      <trkpt lat="41.771308" lon="1.993936">
        <ele>406.0</ele>
        <time>2011-08-19T10:19:26Z</time>
      </trkpt>
      <trkpt lat="41.771206" lon="1.993950">
        <ele>405.6</ele>
        <time>2011-08-19T10:19:26Z</time>
      </trkpt>
      <trkpt lat="41.771122" lon="1.993952">
        <ele>405.2</ele>
        <time>2011-08-19T10:19:26Z</time>
      </trkpt>
      <trkpt lat="41.771034" lon="1.993931">
        <ele>404.5</ele>
        <time>2011-08-19T10:19:26Z</time>
      </trkpt>
      <trkpt lat="41.770953" lon="1.993880">
        <ele>403.2</ele>
        <time>2011-08-19T10:19:26Z</time>
      </trkpt>
      <trkpt lat="41.770887" lon="1.993826">
        <ele>401.8</ele>
        <time>2011-08-19T10:19:26Z</time>
      </trkpt>
      <trkpt lat="41.770777" lon="1.993753">
        <ele>399.7</ele>
        <time>2011-08-19T10:19:26Z</time>
      </trkpt>
      <trkpt lat="41.770699" lon="1.993664">
        <ele>397.7</ele>
        <time>2011-08-19T10:19:26Z</time>
      </trkpt>
      <trkpt lat="41.770638" lon="1.993610">
        <ele>396.3</ele>
        <time>2011-08-19T10:19:26Z</time>
      </trkpt>
      <trkpt lat="41.770595" lon="1.993561">
        <ele>395.0</ele>
        <time>2011-08-19T10:19:26Z</time>
      </trkpt>
      <trkpt lat="41.770516" lon="1.993544">
        <ele>393.9</ele>
        <time>2011-08-19T10:19:26Z</time>
      </trkpt>
      <trkpt lat="41.770434" lon="1.993546">
        <ele>393.0</ele>
        <time>2011-08-19T10:19:26Z</time>
      </trkpt>
      <trkpt lat="41.770368" lon="1.993584">
        <ele>392.8</ele>
        <time>2011-08-19T10:19:26Z</time>
      </trkpt>
      <trkpt lat="41.770289" lon="1.993654">
        <ele>392.6</ele>
        <time>2011-08-19T10:19:26Z</time>
      </trkpt>
      <trkpt lat="41.770201" lon="1.993730">
        <ele>391.9</ele>
        <time>2011-08-19T10:19:26Z</time>
      </trkpt>
      <trkpt lat="41.770101" lon="1.993796">
        <ele>391.4</ele>
        <time>2011-08-19T10:19:26Z</time>
      </trkpt>
      <trkpt lat="41.770012" lon="1.993817">
        <ele>390.4</ele>
        <time>2011-08-19T10:19:26Z</time>
      </trkpt>
      <trkpt lat="41.769931" lon="1.993811">
        <ele>389.4</ele>
        <time>2011-08-19T10:19:26Z</time>
      </trkpt>
      <trkpt lat="41.769860" lon="1.993763">
        <ele>389.9</ele>
        <time>2011-08-19T10:19:26Z</time>
      </trkpt>
      <trkpt lat="41.769824" lon="1.993694">
        <ele>389.9</ele>
        <time>2011-08-19T10:19:26Z</time>
      </trkpt>
      <trkpt lat="41.769768" lon="1.993593">
        <ele>389.7</ele>
        <time>2011-08-19T10:19:26Z</time>
      </trkpt>
      <trkpt lat="41.769743" lon="1.993505">
        <ele>389.3</ele>
        <time>2011-08-19T10:19:26Z</time>
      </trkpt>
      <trkpt lat="41.769707" lon="1.993401">
        <ele>388.8</ele>
        <time>2011-08-19T10:19:26Z</time>
      </trkpt>
      <trkpt lat="41.769677" lon="1.993315">
        <ele>387.9</ele>
        <time>2011-08-19T10:19:26Z</time>
      </trkpt>
      <trkpt lat="41.769642" lon="1.993207">
        <ele>387.1</ele>
        <time>2011-08-19T10:19:26Z</time>
      </trkpt>
      <trkpt lat="41.769599" lon="1.993099">
        <ele>386.6</ele>
        <time>2011-08-19T10:19:26Z</time>
      </trkpt>
      <trkpt lat="41.769542" lon="1.992983">
        <ele>385.2</ele>
        <time>2011-08-19T10:19:26Z</time>
      </trkpt>
      <trkpt lat="41.769479" lon="1.992930">
        <ele>384.8</ele>
        <time>2011-08-19T10:19:26Z</time>
      </trkpt>
      <trkpt lat="41.769393" lon="1.992882">
        <ele>385.0</ele>
        <time>2011-08-19T10:19:26Z</time>
      </trkpt>
      <trkpt lat="41.769317" lon="1.992848">
        <ele>384.9</ele>
        <time>2011-08-19T10:19:26Z</time>
      </trkpt>
      <trkpt lat="41.769209" lon="1.992828">
        <ele>385.7</ele>
        <time>2011-08-19T10:19:26Z</time>
      </trkpt>
      <trkpt lat="41.769124" lon="1.992822">
        <ele>386.6</ele>
        <time>2011-08-19T10:19:26Z</time>
      </trkpt>
      <trkpt lat="41.769050" lon="1.992791">
        <ele>386.4</ele>
        <time>2011-08-19T10:19:26Z</time>
      </trkpt>
      <trkpt lat="41.768968" lon="1.992782">
        <ele>386.8</ele>
        <time>2011-08-19T10:19:26Z</time>
      </trkpt>
      <trkpt lat="41.768860" lon="1.992764">
        <ele>387.1</ele>
        <time>2011-08-19T10:19:26Z</time>
      </trkpt>
      <trkpt lat="41.768784" lon="1.992740">
        <ele>387.5</ele>
        <time>2011-08-19T10:19:26Z</time>
      </trkpt>
      <trkpt lat="41.768701" lon="1.992700">
        <ele>387.7</ele>
        <time>2011-08-19T10:19:26Z</time>
      </trkpt>
      <trkpt lat="41.768595" lon="1.992662">
        <ele>388.1</ele>
        <time>2011-08-19T10:19:26Z</time>
      </trkpt>
      <trkpt lat="41.768519" lon="1.992690">
        <ele>389.4</ele>
        <time>2011-08-19T10:19:26Z</time>
      </trkpt>
      <trkpt lat="41.768425" lon="1.992721">
        <ele>390.2</ele>
        <time>2011-08-19T10:19:26Z</time>
      </trkpt>
      <trkpt lat="41.768339" lon="1.992695">
        <ele>390.0</ele>
        <time>2011-08-19T10:19:26Z</time>
      </trkpt>
      <trkpt lat="41.768278" lon="1.992662">
        <ele>389.9</ele>
        <time>2011-08-19T10:19:26Z</time>
      </trkpt>
      <trkpt lat="41.768194" lon="1.992611">
        <ele>390.2</ele>
        <time>2011-08-19T10:19:26Z</time>
      </trkpt>
      <trkpt lat="41.768101" lon="1.992543">
        <ele>390.7</ele>
        <time>2011-08-19T10:19:26Z</time>
      </trkpt>
      <trkpt lat="41.768012" lon="1.992498">
        <ele>391.5</ele>
        <time>2011-08-19T10:19:26Z</time>
      </trkpt>
      <trkpt lat="41.767965" lon="1.992464">
        <ele>391.5</ele>
        <time>2011-08-19T10:19:26Z</time>
      </trkpt>
      <trkpt lat="41.767915" lon="1.992415">
        <ele>391.3</ele>
        <time>2011-08-19T10:19:26Z</time>
      </trkpt>
      <trkpt lat="41.767890" lon="1.992359">
        <ele>390.8</ele>
        <time>2011-08-19T10:19:26Z</time>
      </trkpt>
      <trkpt lat="41.767886" lon="1.992292">
        <ele>390.1</ele>
        <time>2011-08-19T10:19:26Z</time>
      </trkpt>
      <trkpt lat="41.767876" lon="1.992198">
        <ele>389.0</ele>
        <time>2011-08-19T10:19:26Z</time>
      </trkpt>
      <trkpt lat="41.767853" lon="1.992114">
        <ele>388.1</ele>
        <time>2011-08-19T10:19:26Z</time>
      </trkpt>
      <trkpt lat="41.767815" lon="1.992011">
        <ele>387.1</ele>
        <time>2011-08-19T10:19:26Z</time>
      </trkpt>
      <trkpt lat="41.767755" lon="1.991908">
        <ele>386.3</ele>
        <time>2011-08-19T10:19:26Z</time>
      </trkpt>
      <trkpt lat="41.767687" lon="1.991837">
        <ele>386.8</ele>
        <time>2011-08-19T10:19:26Z</time>
      </trkpt>
      <trkpt lat="41.767621" lon="1.991724">
        <ele>386.7</ele>
        <time>2011-08-19T10:19:26Z</time>
      </trkpt>
      <trkpt lat="41.767574" lon="1.991634">
        <ele>386.6</ele>
        <time>2011-08-19T10:19:26Z</time>
      </trkpt>
      <trkpt lat="41.767507" lon="1.991523">
        <ele>386.8</ele>
        <time>2011-08-19T10:19:26Z</time>
      </trkpt>
      <trkpt lat="41.767469" lon="1.991442">
        <ele>386.8</ele>
        <time>2011-08-19T10:19:26Z</time>
      </trkpt>
      <trkpt lat="41.767422" lon="1.991329">
        <ele>386.7</ele>
        <time>2011-08-19T10:19:26Z</time>
      </trkpt>
      <trkpt lat="41.767395" lon="1.991263">
        <ele>386.6</ele>
        <time>2011-08-19T10:19:26Z</time>
      </trkpt>
      <trkpt lat="41.767352" lon="1.991138">
        <ele>386.9</ele>
        <time>2011-08-19T10:19:26Z</time>
      </trkpt>
      <trkpt lat="41.767325" lon="1.991083">
        <ele>387.1</ele>
        <time>2011-08-19T10:19:26Z</time>
      </trkpt>
      <trkpt lat="41.767282" lon="1.990993">
        <ele>387.4</ele>
        <time>2011-08-19T10:19:26Z</time>
      </trkpt>
      <trkpt lat="41.767237" lon="1.990919">
        <ele>387.7</ele>
        <time>2011-08-19T10:19:26Z</time>
      </trkpt>
      <trkpt lat="41.767196" lon="1.990873">
        <ele>388.1</ele>
        <time>2011-08-19T10:19:26Z</time>
      </trkpt>
      <trkpt lat="41.767133" lon="1.990765">
        <ele>388.2</ele>
        <time>2011-08-19T10:19:26Z</time>
      </trkpt>
      <trkpt lat="41.767066" lon="1.990699">
        <ele>388.4</ele>
        <time>2011-08-19T10:19:26Z</time>
      </trkpt>
      <trkpt lat="41.766986" lon="1.990671">
        <ele>388.8</ele>
        <time>2011-08-19T10:19:26Z</time>
      </trkpt>
      <trkpt lat="41.766886" lon="1.990648">
        <ele>388.9</ele>
        <time>2011-08-19T10:19:26Z</time>
      </trkpt>
      <trkpt lat="41.766809" lon="1.990676">
        <ele>389.3</ele>
        <time>2011-08-19T10:19:26Z</time>
      </trkpt>
      <trkpt lat="41.766733" lon="1.990709">
        <ele>389.7</ele>
        <time>2011-08-19T10:19:26Z</time>
      </trkpt>
      <trkpt lat="41.766633" lon="1.990733">
        <ele>390.2</ele>
        <time>2011-08-19T10:19:26Z</time>
      </trkpt>
      <trkpt lat="41.766546" lon="1.990732">
        <ele>390.5</ele>
        <time>2011-08-19T10:19:26Z</time>
      </trkpt>
      <trkpt lat="41.766485" lon="1.990713">
        <ele>390.6</ele>
        <time>2011-08-19T10:19:26Z</time>
      </trkpt>
      <trkpt lat="41.766408" lon="1.990680">
        <ele>390.7</ele>
        <time>2011-08-19T10:19:26Z</time>
      </trkpt>
      <trkpt lat="41.766318" lon="1.990659">
        <ele>391.3</ele>
        <time>2011-08-19T10:19:26Z</time>
      </trkpt>
      <trkpt lat="41.766241" lon="1.990640">
        <ele>391.9</ele>
        <time>2011-08-19T10:19:26Z</time>
      </trkpt>
      <trkpt lat="41.766202" lon="1.990624">
        <ele>392.1</ele>
        <time>2011-08-19T10:19:26Z</time>
      </trkpt>
      <trkpt lat="41.766121" lon="1.990588">
        <ele>392.4</ele>
        <time>2011-08-19T10:19:26Z</time>
      </trkpt>
      <trkpt lat="41.766046" lon="1.990544">
        <ele>392.2</ele>
        <time>2011-08-19T10:19:26Z</time>
      </trkpt>
      <trkpt lat="41.765972" lon="1.990504">
        <ele>391.9</ele>
        <time>2011-08-19T10:19:26Z</time>
      </trkpt>
      <trkpt lat="41.765905" lon="1.990458">
        <ele>391.7</ele>
        <time>2011-08-19T10:19:26Z</time>
      </trkpt>
      <trkpt lat="41.765847" lon="1.990404">
        <ele>391.3</ele>
        <time>2011-08-19T10:19:26Z</time>
      </trkpt>
      <trkpt lat="41.765791" lon="1.990338">
        <ele>391.0</ele>
        <time>2011-08-19T10:19:26Z</time>
      </trkpt>
      <trkpt lat="41.765742" lon="1.990255">
        <ele>390.6</ele>
        <time>2011-08-19T10:19:26Z</time>
      </trkpt>
      <trkpt lat="41.765715" lon="1.990156">
        <ele>390.9</ele>
        <time>2011-08-19T10:19:26Z</time>
      </trkpt>
      <trkpt lat="41.765729" lon="1.990074">
        <ele>391.5</ele>
        <time>2011-08-19T10:19:26Z</time>
      </trkpt>
      <trkpt lat="41.765767" lon="1.989982">
        <ele>391.9</ele>
        <time>2011-08-19T10:19:26Z</time>
      </trkpt>
      <trkpt lat="41.765818" lon="1.989905">
        <ele>391.8</ele>
        <time>2011-08-19T10:19:26Z</time>
      </trkpt>
      <trkpt lat="41.765882" lon="1.989810">
        <ele>391.9</ele>
        <time>2011-08-19T10:19:26Z</time>
      </trkpt>
      <trkpt lat="41.765945" lon="1.989752">
        <ele>392.1</ele>
        <time>2011-08-19T10:19:26Z</time>
      </trkpt>
      <trkpt lat="41.766003" lon="1.989692">
        <ele>392.4</ele>
        <time>2011-08-19T10:19:26Z</time>
      </trkpt>
      <trkpt lat="41.766047" lon="1.989622">
        <ele>393.1</ele>
        <time>2011-08-19T10:19:26Z</time>
      </trkpt>
      <trkpt lat="41.766088" lon="1.989567">
        <ele>393.6</ele>
        <time>2011-08-19T10:19:26Z</time>
      </trkpt>
      <trkpt lat="41.766105" lon="1.989487">
        <ele>394.8</ele>
        <time>2011-08-19T10:19:26Z</time>
      </trkpt>
      <trkpt lat="41.766077" lon="1.989433">
        <ele>395.3</ele>
        <time>2011-08-19T10:19:26Z</time>
      </trkpt>
      <trkpt lat="41.766012" lon="1.989382">
        <ele>395.7</ele>
        <time>2011-08-19T10:19:26Z</time>
      </trkpt>
      <trkpt lat="41.765934" lon="1.989336">
        <ele>396.3</ele>
        <time>2011-08-19T10:19:26Z</time>
      </trkpt>
      <trkpt lat="41.765859" lon="1.989296">
        <ele>396.9</ele>
        <time>2011-08-19T10:19:26Z</time>
      </trkpt>
      <trkpt lat="41.765787" lon="1.989242">
        <ele>397.5</ele>
        <time>2011-08-19T10:19:26Z</time>
      </trkpt>
      <trkpt lat="41.765699" lon="1.989169">
        <ele>398.1</ele>
        <time>2011-08-19T10:19:26Z</time>
      </trkpt>
      <trkpt lat="41.765654" lon="1.989116">
        <ele>398.4</ele>
        <time>2011-08-19T10:19:26Z</time>
      </trkpt>
      <trkpt lat="41.765598" lon="1.989050">
        <ele>398.4</ele>
        <time>2011-08-19T10:19:26Z</time>
      </trkpt>
      <trkpt lat="41.765569" lon="1.988988">
        <ele>398.3</ele>
        <time>2011-08-19T10:19:26Z</time>
      </trkpt>
      <trkpt lat="41.765536" lon="1.988927">
        <ele>398.4</ele>
        <time>2011-08-19T10:19:26Z</time>
      </trkpt>
      <trkpt lat="41.765500" lon="1.988866">
        <ele>398.5</ele>
        <time>2011-08-19T10:19:26Z</time>
      </trkpt>
      <trkpt lat="41.765464" lon="1.988750">
        <ele>398.5</ele>
        <time>2011-08-19T10:19:26Z</time>
      </trkpt>
      <trkpt lat="41.765446" lon="1.988654">
        <ele>398.5</ele>
        <time>2011-08-19T10:19:26Z</time>
      </trkpt>
      <trkpt lat="41.765430" lon="1.988543">
        <ele>398.4</ele>
        <time>2011-08-19T10:19:26Z</time>
      </trkpt>
      <trkpt lat="41.765418" lon="1.988424">
        <ele>398.2</ele>
        <time>2011-08-19T10:19:26Z</time>
      </trkpt>
      <trkpt lat="41.765410" lon="1.988330">
        <ele>398.2</ele>
        <time>2011-08-19T10:19:26Z</time>
      </trkpt>
      <trkpt lat="41.765390" lon="1.988200">
        <ele>398.3</ele>
        <time>2011-08-19T10:19:26Z</time>
      </trkpt>
      <trkpt lat="41.765367" lon="1.988101">
        <ele>398.6</ele>
        <time>2011-08-19T10:19:26Z</time>
      </trkpt>
      <trkpt lat="41.765331" lon="1.987971">
        <ele>399.0</ele>
        <time>2011-08-19T10:19:26Z</time>
      </trkpt>
      <trkpt lat="41.765280" lon="1.987838">
        <ele>399.6</ele>
        <time>2011-08-19T10:19:26Z</time>
      </trkpt>
      <trkpt lat="41.765238" lon="1.987729">
        <ele>399.9</ele>
        <time>2011-08-19T10:19:26Z</time>
      </trkpt>
      <trkpt lat="41.765192" lon="1.987602">
        <ele>400.2</ele>
        <time>2011-08-19T10:19:26Z</time>
      </trkpt>
      <trkpt lat="41.765141" lon="1.987456">
        <ele>400.8</ele>
        <time>2011-08-19T10:19:26Z</time>
      </trkpt>
      <trkpt lat="41.765116" lon="1.987353">
        <ele>401.1</ele>
        <time>2011-08-19T10:19:26Z</time>
      </trkpt>
      <trkpt lat="41.765089" lon="1.987240">
        <ele>402.0</ele>
        <time>2011-08-19T10:19:26Z</time>
      </trkpt>
      <trkpt lat="41.765068" lon="1.987136">
        <ele>403.0</ele>
        <time>2011-08-19T10:19:26Z</time>
      </trkpt>
      <trkpt lat="41.765054" lon="1.987025">
        <ele>403.8</ele>
        <time>2011-08-19T10:19:26Z</time>
      </trkpt>
      <trkpt lat="41.765023" lon="1.986884">
        <ele>405.0</ele>
        <time>2011-08-19T10:19:26Z</time>
      </trkpt>
      <trkpt lat="41.765007" lon="1.986761">
        <ele>405.6</ele>
        <time>2011-08-19T10:19:26Z</time>
      </trkpt>
      <trkpt lat="41.764997" lon="1.986605">
        <ele>406.3</ele>
        <time>2011-08-19T10:19:26Z</time>
      </trkpt>
      <trkpt lat="41.764985" lon="1.986499">
        <ele>406.9</ele>
        <time>2011-08-19T10:19:26Z</time>
      </trkpt>
      <trkpt lat="41.764979" lon="1.986346">
        <ele>407.5</ele>
        <time>2011-08-19T10:19:26Z</time>
      </trkpt>
      <trkpt lat="41.764982" lon="1.986229">
        <ele>407.8</ele>
        <time>2011-08-19T10:19:26Z</time>
      </trkpt>
      <trkpt lat="41.764994" lon="1.986118">
        <ele>408.0</ele>
        <time>2011-08-19T10:19:26Z</time>
      </trkpt>
      <trkpt lat="41.765021" lon="1.985991">
        <ele>407.9</ele>
        <time>2011-08-19T10:19:26Z</time>
      </trkpt>
      <trkpt lat="41.765029" lon="1.985865">
        <ele>408.4</ele>
        <time>2011-08-19T10:19:26Z</time>
      </trkpt>
      <trkpt lat="41.765052" lon="1.985721">
        <ele>408.9</ele>
        <time>2011-08-19T10:19:26Z</time>
      </trkpt>
      <trkpt lat="41.765079" lon="1.985622">
        <ele>408.8</ele>
        <time>2011-08-19T10:19:26Z</time>
      </trkpt>
      <trkpt lat="41.765098" lon="1.985528">
        <ele>408.9</ele>
        <time>2011-08-19T10:19:26Z</time>
      </trkpt>
      <trkpt lat="41.765121" lon="1.985446">
        <ele>408.8</ele>
        <time>2011-08-19T10:19:26Z</time>
      </trkpt>
      <trkpt lat="41.765143" lon="1.985361">
        <ele>408.7</ele>
        <time>2011-08-19T10:19:26Z</time>
      </trkpt>
      <trkpt lat="41.765106" lon="1.985317">
        <ele>410.1</ele>
        <time>2011-08-19T10:19:26Z</time>
      </trkpt>
      <trkpt lat="41.765037" lon="1.985370">
        <ele>411.7</ele>
        <time>2011-08-19T10:19:26Z</time>
      </trkpt>
      <trkpt lat="41.764984" lon="1.985416">
        <ele>413.1</ele>
        <time>2011-08-19T10:19:26Z</time>
      </trkpt>
      <trkpt lat="41.764894" lon="1.985479">
        <ele>416.8</ele>
        <time>2011-08-19T10:19:26Z</time>
      </trkpt>
      <trkpt lat="41.764828" lon="1.985564">
        <ele>419.0</ele>
        <time>2011-08-19T10:19:26Z</time>
      </trkpt>
      <trkpt lat="41.764764" lon="1.985661">
        <ele>420.6</ele>
        <time>2011-08-19T10:19:26Z</time>
      </trkpt>
      <trkpt lat="41.764691" lon="1.985767">
        <ele>422.4</ele>
        <time>2011-08-19T10:19:26Z</time>
      </trkpt>
      <trkpt lat="41.764616" lon="1.985874">
        <ele>424.2</ele>
        <time>2011-08-19T10:19:26Z</time>
      </trkpt>
      <trkpt lat="41.764552" lon="1.985959">
        <ele>426.1</ele>
        <time>2011-08-19T10:19:26Z</time>
      </trkpt>
      <trkpt lat="41.764501" lon="1.986027">
        <ele>427.4</ele>
        <time>2011-08-19T10:19:26Z</time>
      </trkpt>
      <trkpt lat="41.764446" lon="1.986089">
        <ele>429.0</ele>
        <time>2011-08-19T10:19:26Z</time>
      </trkpt>
      <trkpt lat="41.764381" lon="1.986152">
        <ele>431.2</ele>
        <time>2011-08-19T10:19:26Z</time>
      </trkpt>
      <trkpt lat="41.764304" lon="1.986238">
        <ele>433.3</ele>
        <time>2011-08-19T10:19:26Z</time>
      </trkpt>
      <trkpt lat="41.764259" lon="1.986320">
        <ele>434.1</ele>
        <time>2011-08-19T10:19:26Z</time>
      </trkpt>
      <trkpt lat="41.764189" lon="1.986380">
        <ele>436.2</ele>
        <time>2011-08-19T10:19:26Z</time>
      </trkpt>
      <trkpt lat="41.764117" lon="1.986443">
        <ele>439.3</ele>
        <time>2011-08-19T10:19:26Z</time>
      </trkpt>
      <trkpt lat="41.764033" lon="1.986551">
        <ele>442.6</ele>
        <time>2011-08-19T10:19:26Z</time>
      </trkpt>
      <trkpt lat="41.763991" lon="1.986636">
        <ele>444.0</ele>
        <time>2011-08-19T10:19:26Z</time>
      </trkpt>
      <trkpt lat="41.763939" lon="1.986783">
        <ele>446.0</ele>
        <time>2011-08-19T10:19:26Z</time>
      </trkpt>
      <trkpt lat="41.763904" lon="1.986872">
        <ele>447.2</ele>
        <time>2011-08-19T10:19:26Z</time>
      </trkpt>
      <trkpt lat="41.763870" lon="1.986984">
        <ele>448.2</ele>
        <time>2011-08-19T10:19:26Z</time>
      </trkpt>
      <trkpt lat="41.763836" lon="1.987094">
        <ele>448.4</ele>
        <time>2011-08-19T10:19:26Z</time>
      </trkpt>
      <trkpt lat="41.763802" lon="1.987213">
        <ele>448.3</ele>
        <time>2011-08-19T10:19:26Z</time>
      </trkpt>
      <trkpt lat="41.763758" lon="1.987305">
        <ele>449.3</ele>
        <time>2011-08-19T10:19:26Z</time>
      </trkpt>
      <trkpt lat="41.763674" lon="1.987400">
        <ele>451.8</ele>
        <time>2011-08-19T10:19:26Z</time>
      </trkpt>
      <trkpt lat="41.763589" lon="1.987471">
        <ele>453.1</ele>
        <time>2011-08-19T10:19:26Z</time>
      </trkpt>
      <trkpt lat="41.763499" lon="1.987552">
        <ele>454.6</ele>
        <time>2011-08-19T10:19:26Z</time>
      </trkpt>
      <trkpt lat="41.763414" lon="1.987610">
        <ele>456.8</ele>
        <time>2011-08-19T10:19:26Z</time>
      </trkpt>
      <trkpt lat="41.763351" lon="1.987712">
        <ele>457.7</ele>
        <time>2011-08-19T10:19:26Z</time>
      </trkpt>
      <trkpt lat="41.763298" lon="1.987809">
        <ele>459.7</ele>
        <time>2011-08-19T10:19:26Z</time>
      </trkpt>
      <trkpt lat="41.763269" lon="1.987926">
        <ele>461.3</ele>
        <time>2011-08-19T10:19:26Z</time>
      </trkpt>
      <trkpt lat="41.763248" lon="1.988038">
        <ele>462.8</ele>
        <time>2011-08-19T10:19:26Z</time>
      </trkpt>
      <trkpt lat="41.763219" lon="1.988167">
        <ele>464.9</ele>
        <time>2011-08-19T10:19:26Z</time>
      </trkpt>
      <trkpt lat="41.763165" lon="1.988269">
        <ele>468.5</ele>
        <time>2011-08-19T10:19:26Z</time>
      </trkpt>
      <trkpt lat="41.763104" lon="1.988364">
        <ele>471.7</ele>
        <time>2011-08-19T10:19:26Z</time>
      </trkpt>
      <trkpt lat="41.763066" lon="1.988451">
        <ele>473.4</ele>
        <time>2011-08-19T10:19:26Z</time>
      </trkpt>
      <trkpt lat="41.763051" lon="1.988590">
        <ele>474.3</ele>
        <time>2011-08-19T10:19:26Z</time>
      </trkpt>
      <trkpt lat="41.763035" lon="1.988702">
        <ele>475.3</ele>
        <time>2011-08-19T10:19:26Z</time>
      </trkpt>
      <trkpt lat="41.763025" lon="1.988821">
        <ele>476.1</ele>
        <time>2011-08-19T10:19:26Z</time>
      </trkpt>
      <trkpt lat="41.763030" lon="1.988942">
        <ele>475.9</ele>
        <time>2011-08-19T10:19:26Z</time>
      </trkpt>
      <trkpt lat="41.763038" lon="1.989075">
        <ele>475.5</ele>
        <time>2011-08-19T10:19:26Z</time>
      </trkpt>
      <trkpt lat="41.763008" lon="1.989194">
        <ele>476.6</ele>
        <time>2011-08-19T10:19:26Z</time>
      </trkpt>
      <trkpt lat="41.762974" lon="1.989289">
        <ele>476.9</ele>
        <time>2011-08-19T10:19:26Z</time>
      </trkpt>
      <trkpt lat="41.762950" lon="1.989351">
        <ele>477.2</ele>
        <time>2011-08-19T10:19:26Z</time>
      </trkpt>
      <trkpt lat="41.762864" lon="1.989466">
        <ele>480.3</ele>
        <time>2011-08-19T10:19:26Z</time>
      </trkpt>
      <trkpt lat="41.762785" lon="1.989574">
        <ele>482.8</ele>
        <time>2011-08-19T10:19:26Z</time>
      </trkpt>
      <trkpt lat="41.762737" lon="1.989713">
        <ele>482.3</ele>
        <time>2011-08-19T10:19:26Z</time>
      </trkpt>
      <trkpt lat="41.762688" lon="1.989840">
        <ele>483.3</ele>
        <time>2011-08-19T10:19:26Z</time>
      </trkpt>
      <trkpt lat="41.762644" lon="1.989969">
        <ele>484.3</ele>
        <time>2011-08-19T10:19:26Z</time>
      </trkpt>
      <trkpt lat="41.762594" lon="1.990094">
        <ele>485.7</ele>
        <time>2011-08-19T10:19:26Z</time>
      </trkpt>
      <trkpt lat="41.762541" lon="1.990204">
        <ele>486.7</ele>
        <time>2011-08-19T10:19:26Z</time>
      </trkpt>
      <trkpt lat="41.762473" lon="1.990306">
        <ele>488.9</ele>
        <time>2011-08-19T10:19:26Z</time>
      </trkpt>
      <trkpt lat="41.762411" lon="1.990399">
        <ele>491.3</ele>
        <time>2011-08-19T10:19:26Z</time>
      </trkpt>
      <trkpt lat="41.762375" lon="1.990520">
        <ele>491.7</ele>
        <time>2011-08-19T10:19:26Z</time>
      </trkpt>
      <trkpt lat="41.762345" lon="1.990637">
        <ele>492.1</ele>
        <time>2011-08-19T10:19:26Z</time>
      </trkpt>
      <trkpt lat="41.762312" lon="1.990727">
        <ele>492.7</ele>
        <time>2011-08-19T10:19:26Z</time>
      </trkpt>
      <trkpt lat="41.762291" lon="1.990856">
        <ele>492.0</ele>
        <time>2011-08-19T10:19:26Z</time>
      </trkpt>
      <trkpt lat="41.762279" lon="1.990977">
        <ele>490.9</ele>
        <time>2011-08-19T10:19:26Z</time>
      </trkpt>
      <trkpt lat="41.762275" lon="1.991093">
        <ele>490.0</ele>
        <time>2011-08-19T10:19:26Z</time>
      </trkpt>
      <trkpt lat="41.762253" lon="1.991207">
        <ele>490.5</ele>
        <time>2011-08-19T10:19:26Z</time>
      </trkpt>
      <trkpt lat="41.762221" lon="1.991292">
        <ele>492.3</ele>
        <time>2011-08-19T10:19:26Z</time>
      </trkpt>
      <trkpt lat="41.762142" lon="1.991382">
        <ele>496.0</ele>
        <time>2011-08-19T10:19:26Z</time>
      </trkpt>
      <trkpt lat="41.762041" lon="1.991456">
        <ele>499.5</ele>
        <time>2011-08-19T10:19:26Z</time>
      </trkpt>
      <trkpt lat="41.761973" lon="1.991501">
        <ele>501.5</ele>
        <time>2011-08-19T10:19:26Z</time>
      </trkpt>
      <trkpt lat="41.761884" lon="1.991584">
        <ele>503.3</ele>
        <time>2011-08-19T10:19:26Z</time>
      </trkpt>
      <trkpt lat="41.761811" lon="1.991665">
        <ele>504.7</ele>
        <time>2011-08-19T10:19:26Z</time>
      </trkpt>
      <trkpt lat="41.761741" lon="1.991735">
        <ele>505.0</ele>
        <time>2011-08-19T10:19:26Z</time>
      </trkpt>
      <trkpt lat="41.761659" lon="1.991808">
        <ele>506.9</ele>
        <time>2011-08-19T10:19:26Z</time>
      </trkpt>
      <trkpt lat="41.761596" lon="1.991893">
        <ele>508.3</ele>
        <time>2011-08-19T10:19:26Z</time>
      </trkpt>
      <trkpt lat="41.761544" lon="1.992017">
        <ele>509.1</ele>
        <time>2011-08-19T10:19:26Z</time>
      </trkpt>
      <trkpt lat="41.761519" lon="1.992119">
        <ele>508.8</ele>
        <time>2011-08-19T10:19:26Z</time>
      </trkpt>
      <trkpt lat="41.761529" lon="1.992238">
        <ele>509.3</ele>
        <time>2011-08-19T10:19:26Z</time>
      </trkpt>
      <trkpt lat="41.761571" lon="1.992403">
        <ele>507.1</ele>
        <time>2011-08-19T10:19:26Z</time>
      </trkpt>
      <trkpt lat="41.761606" lon="1.992536">
        <ele>505.7</ele>
        <time>2011-08-19T10:19:26Z</time>
      </trkpt>
      <trkpt lat="41.761610" lon="1.992600">
        <ele>506.5</ele>
        <time>2011-08-19T10:19:26Z</time>
      </trkpt>
      <trkpt lat="41.761600" lon="1.992712">
        <ele>509.6</ele>
        <time>2011-08-19T10:19:26Z</time>
      </trkpt>
      <trkpt lat="41.761629" lon="1.992815">
        <ele>509.1</ele>
        <time>2011-08-19T10:19:26Z</time>
      </trkpt>
      <trkpt lat="41.761676" lon="1.992960">
        <ele>509.3</ele>
        <time>2011-08-19T10:19:26Z</time>
      </trkpt>
      <trkpt lat="41.761725" lon="1.993088">
        <ele>509.7</ele>
        <time>2011-08-19T10:19:26Z</time>
      </trkpt>
      <trkpt lat="41.761771" lon="1.993177">
        <ele>509.0</ele>
        <time>2011-08-19T10:19:26Z</time>
      </trkpt>
      <trkpt lat="41.761808" lon="1.993270">
        <ele>507.7</ele>
        <time>2011-08-19T10:19:26Z</time>
      </trkpt>
      <trkpt lat="41.761813" lon="1.993413">
        <ele>509.4</ele>
        <time>2011-08-19T10:19:26Z</time>
      </trkpt>
      <trkpt lat="41.761783" lon="1.993545">
        <ele>512.2</ele>
        <time>2011-08-19T10:19:26Z</time>
      </trkpt>
      <trkpt lat="41.761736" lon="1.993669">
        <ele>513.8</ele>
        <time>2011-08-19T10:19:26Z</time>
      </trkpt>
      <trkpt lat="41.761689" lon="1.993796">
        <ele>515.2</ele>
        <time>2011-08-19T10:19:26Z</time>
      </trkpt>
      <trkpt lat="41.761655" lon="1.993888">
        <ele>516.4</ele>
        <time>2011-08-19T10:19:26Z</time>
      </trkpt>
      <trkpt lat="41.761613" lon="1.993998">
        <ele>519.2</ele>
        <time>2011-08-19T10:19:26Z</time>
      </trkpt>
      <trkpt lat="41.761580" lon="1.994097">
        <ele>521.4</ele>
        <time>2011-08-19T10:19:26Z</time>
      </trkpt>
      <trkpt lat="41.761555" lon="1.994174">
        <ele>522.8</ele>
        <time>2011-08-19T10:19:26Z</time>
      </trkpt>
      <trkpt lat="41.761482" lon="1.994306">
        <ele>523.9</ele>
        <time>2011-08-19T10:19:26Z</time>
      </trkpt>
      <trkpt lat="41.761444" lon="1.994435">
        <ele>525.3</ele>
        <time>2011-08-19T10:19:26Z</time>
      </trkpt>
      <trkpt lat="41.761398" lon="1.994578">
        <ele>526.6</ele>
        <time>2011-08-19T10:19:26Z</time>
      </trkpt>
      <trkpt lat="41.761348" lon="1.994677">
        <ele>527.3</ele>
        <time>2011-08-19T10:19:26Z</time>
      </trkpt>
      <trkpt lat="41.761268" lon="1.994748">
        <ele>527.8</ele>
        <time>2011-08-19T10:19:26Z</time>
      </trkpt>
      <trkpt lat="41.761184" lon="1.994789">
        <ele>528.5</ele>
        <time>2011-08-19T10:19:26Z</time>
      </trkpt>
      <trkpt lat="41.761108" lon="1.994780">
        <ele>528.7</ele>
        <time>2011-08-19T10:19:26Z</time>
      </trkpt>
      <trkpt lat="41.761060" lon="1.994749">
        <ele>528.5</ele>
        <time>2011-08-19T10:19:26Z</time>
      </trkpt>
      <trkpt lat="41.761022" lon="1.994704">
        <ele>528.2</ele>
        <time>2011-08-19T10:19:26Z</time>
      </trkpt>
      <trkpt lat="41.760966" lon="1.994642">
        <ele>528.2</ele>
        <time>2011-08-19T10:19:26Z</time>
      </trkpt>
      <trkpt lat="41.760870" lon="1.994579">
        <ele>528.3</ele>
        <time>2011-08-19T10:19:26Z</time>
      </trkpt>
      <trkpt lat="41.760800" lon="1.994572">
        <ele>528.9</ele>
        <time>2011-08-19T10:19:26Z</time>
      </trkpt>
      <trkpt lat="41.760736" lon="1.994573">
        <ele>529.4</ele>
        <time>2011-08-19T10:19:26Z</time>
      </trkpt>
      <trkpt lat="41.760658" lon="1.994582">
        <ele>529.8</ele>
        <time>2011-08-19T10:19:26Z</time>
      </trkpt>
      <trkpt lat="41.760585" lon="1.994596">
        <ele>530.4</ele>
        <time>2011-08-19T10:19:26Z</time>
      </trkpt>
      <trkpt lat="41.760497" lon="1.994625">
        <ele>531.2</ele>
        <time>2011-08-19T10:19:26Z</time>
      </trkpt>
      <trkpt lat="41.760426" lon="1.994661">
        <ele>531.7</ele>
        <time>2011-08-19T10:19:26Z</time>
      </trkpt>
      <trkpt lat="41.760382" lon="1.994702">
        <ele>532.0</ele>
        <time>2011-08-19T10:19:26Z</time>
      </trkpt>
      <trkpt lat="41.760356" lon="1.994752">
        <ele>532.4</ele>
        <time>2011-08-19T10:19:26Z</time>
      </trkpt>
      <trkpt lat="41.760338" lon="1.994830">
        <ele>533.0</ele>
        <time>2011-08-19T10:19:26Z</time>
      </trkpt>
      <trkpt lat="41.760335" lon="1.994930">
        <ele>533.8</ele>
        <time>2011-08-19T10:19:26Z</time>
      </trkpt>
      <trkpt lat="41.760336" lon="1.995033">
        <ele>534.3</ele>
        <time>2011-08-19T10:19:26Z</time>
      </trkpt>
      <trkpt lat="41.760374" lon="1.995170">
        <ele>535.4</ele>
        <time>2011-08-19T10:19:26Z</time>
      </trkpt>
      <trkpt lat="41.760388" lon="1.995277">
        <ele>536.0</ele>
        <time>2011-08-19T10:19:26Z</time>
      </trkpt>
      <trkpt lat="41.760389" lon="1.995335">
        <ele>536.1</ele>
        <time>2011-08-19T10:19:26Z</time>
      </trkpt>
      <trkpt lat="41.760399" lon="1.995430">
        <ele>537.2</ele>
        <time>2011-08-19T10:19:26Z</time>
      </trkpt>
      <trkpt lat="41.760400" lon="1.995515">
        <ele>538.0</ele>
        <time>2011-08-19T10:19:26Z</time>
      </trkpt>
      <trkpt lat="41.760382" lon="1.995598">
        <ele>538.4</ele>
        <time>2011-08-19T10:19:26Z</time>
      </trkpt>
      <trkpt lat="41.760321" lon="1.995686">
        <ele>538.4</ele>
        <time>2011-08-19T10:19:26Z</time>
      </trkpt>
      <trkpt lat="41.760250" lon="1.995755">
        <ele>538.2</ele>
        <time>2011-08-19T10:19:26Z</time>
      </trkpt>
      <trkpt lat="41.760172" lon="1.995789">
        <ele>538.5</ele>
        <time>2011-08-19T10:19:26Z</time>
      </trkpt>
      <trkpt lat="41.760078" lon="1.995835">
        <ele>539.6</ele>
        <time>2011-08-19T10:19:26Z</time>
      </trkpt>
      <trkpt lat="41.760004" lon="1.995879">
        <ele>540.7</ele>
        <time>2011-08-19T10:19:26Z</time>
      </trkpt>
      <trkpt lat="41.759938" lon="1.995875">
        <ele>540.9</ele>
        <time>2011-08-19T10:19:26Z</time>
      </trkpt>
      <trkpt lat="41.759858" lon="1.995889">
        <ele>541.3</ele>
        <time>2011-08-19T10:19:26Z</time>
      </trkpt>
      <trkpt lat="41.759760" lon="1.995918">
        <ele>541.8</ele>
        <time>2011-08-19T10:19:26Z</time>
      </trkpt>
      <trkpt lat="41.759703" lon="1.995966">
        <ele>542.6</ele>
        <time>2011-08-19T10:19:26Z</time>
      </trkpt>
      <trkpt lat="41.759647" lon="1.996067">
        <ele>544.0</ele>
        <time>2011-08-19T10:19:26Z</time>
      </trkpt>
      <trkpt lat="41.759613" lon="1.996175">
        <ele>545.0</ele>
        <time>2011-08-19T10:19:26Z</time>
      </trkpt>
      <trkpt lat="41.759587" lon="1.996259">
        <ele>545.5</ele>
        <time>2011-08-19T10:19:26Z</time>
      </trkpt>
      <trkpt lat="41.759560" lon="1.996344">
        <ele>546.0</ele>
        <time>2011-08-19T10:19:26Z</time>
      </trkpt>
      <trkpt lat="41.759551" lon="1.996429">
        <ele>546.5</ele>
        <time>2011-08-19T10:19:26Z</time>
      </trkpt>
      <trkpt lat="41.759551" lon="1.996582">
        <ele>546.9</ele>
        <time>2011-08-19T10:19:26Z</time>
      </trkpt>
      <trkpt lat="41.759570" lon="1.996679">
        <ele>547.4</ele>
        <time>2011-08-19T10:19:26Z</time>
      </trkpt>
      <trkpt lat="41.759601" lon="1.996754">
        <ele>548.2</ele>
        <time>2011-08-19T10:19:26Z</time>
      </trkpt>
      <trkpt lat="41.759634" lon="1.996876">
        <ele>549.2</ele>
        <time>2011-08-19T10:19:26Z</time>
      </trkpt>
      <trkpt lat="41.759613" lon="1.997022">
        <ele>549.5</ele>
        <time>2011-08-19T10:19:26Z</time>
      </trkpt>
      <trkpt lat="41.759582" lon="1.997147">
        <ele>549.7</ele>
        <time>2011-08-19T10:19:26Z</time>
      </trkpt>
      <trkpt lat="41.759549" lon="1.997228">
        <ele>550.4</ele>
        <time>2011-08-19T10:19:26Z</time>
      </trkpt>
      <trkpt lat="41.759497" lon="1.997314">
        <ele>551.2</ele>
        <time>2011-08-19T10:19:26Z</time>
      </trkpt>
      <trkpt lat="41.759442" lon="1.997405">
        <ele>552.3</ele>
        <time>2011-08-19T10:19:26Z</time>
      </trkpt>
      <trkpt lat="41.759394" lon="1.997511">
        <ele>553.9</ele>
        <time>2011-08-19T10:19:26Z</time>
      </trkpt>
      <trkpt lat="41.759361" lon="1.997634">
        <ele>554.7</ele>
        <time>2011-08-19T10:19:26Z</time>
      </trkpt>
      <trkpt lat="41.759345" lon="1.997729">
        <ele>555.2</ele>
        <time>2011-08-19T10:19:26Z</time>
      </trkpt>
      <trkpt lat="41.759339" lon="1.997842">
        <ele>555.8</ele>
        <time>2011-08-19T10:19:26Z</time>
      </trkpt>
      <trkpt lat="41.759343" lon="1.997942">
        <ele>556.3</ele>
        <time>2011-08-19T10:19:26Z</time>
      </trkpt>
      <trkpt lat="41.759365" lon="1.998024">
        <ele>556.9</ele>
        <time>2011-08-19T10:19:26Z</time>
      </trkpt>
      <trkpt lat="41.759401" lon="1.998116">
        <ele>557.8</ele>
        <time>2011-08-19T10:19:26Z</time>
      </trkpt>
      <trkpt lat="41.759439" lon="1.998196">
        <ele>558.9</ele>
        <time>2011-08-19T10:19:26Z</time>
      </trkpt>
      <trkpt lat="41.759440" lon="1.998271">
        <ele>559.2</ele>
        <time>2011-08-19T10:19:26Z</time>
      </trkpt>
      <trkpt lat="41.759403" lon="1.998379">
        <ele>559.0</ele>
        <time>2011-08-19T10:19:26Z</time>
      </trkpt>
      <trkpt lat="41.759359" lon="1.998455">
        <ele>559.0</ele>
        <time>2011-08-19T10:19:26Z</time>
      </trkpt>
      <trkpt lat="41.759281" lon="1.998576">
        <ele>559.8</ele>
        <time>2011-08-19T10:19:26Z</time>
      </trkpt>
      <trkpt lat="41.759226" lon="1.998650">
        <ele>560.9</ele>
        <time>2011-08-19T10:19:26Z</time>
      </trkpt>
      <trkpt lat="41.759146" lon="1.998709">
        <ele>561.9</ele>
        <time>2011-08-19T10:19:26Z</time>
      </trkpt>
      <trkpt lat="41.759093" lon="1.998724">
        <ele>562.2</ele>
        <time>2011-08-19T10:19:26Z</time>
      </trkpt>
      <trkpt lat="41.759039" lon="1.998735">
        <ele>562.5</ele>
        <time>2011-08-19T10:19:26Z</time>
      </trkpt>
      <trkpt lat="41.758968" lon="1.998741">
        <ele>562.8</ele>
        <time>2011-08-19T10:19:26Z</time>
      </trkpt>
      <trkpt lat="41.758893" lon="1.998767">
        <ele>563.2</ele>
        <time>2011-08-19T10:19:26Z</time>
      </trkpt>
      <trkpt lat="41.758830" lon="1.998814">
        <ele>563.7</ele>
        <time>2011-08-19T10:19:26Z</time>
      </trkpt>
      <trkpt lat="41.758795" lon="1.998902">
        <ele>564.5</ele>
        <time>2011-08-19T10:19:26Z</time>
      </trkpt>
      <trkpt lat="41.758777" lon="1.998997">
        <ele>565.1</ele>
        <time>2011-08-19T10:19:26Z</time>
      </trkpt>
      <trkpt lat="41.758776" lon="1.999137">
        <ele>564.9</ele>
        <time>2011-08-19T10:19:26Z</time>
      </trkpt>
      <trkpt lat="41.758779" lon="1.999232">
        <ele>564.8</ele>
        <time>2011-08-19T10:19:26Z</time>
      </trkpt>
      <trkpt lat="41.758807" lon="1.999367">
        <ele>564.9</ele>
        <time>2011-08-19T10:19:26Z</time>
      </trkpt>
      <trkpt lat="41.758845" lon="1.999489">
        <ele>564.8</ele>
        <time>2011-08-19T10:19:26Z</time>
      </trkpt>
      <trkpt lat="41.758900" lon="1.999606">
        <ele>565.3</ele>
        <time>2011-08-19T10:19:26Z</time>
      </trkpt>
      <trkpt lat="41.758965" lon="1.999702">
        <ele>566.0</ele>
        <time>2011-08-19T10:19:26Z</time>
      </trkpt>
      <trkpt lat="41.759024" lon="1.999819">
        <ele>566.2</ele>
        <time>2011-08-19T10:19:26Z</time>
      </trkpt>
      <trkpt lat="41.759081" lon="1.999914">
        <ele>566.5</ele>
        <time>2011-08-19T10:19:26Z</time>
      </trkpt>
      <trkpt lat="41.759151" lon="2.000000">
        <ele>566.9</ele>
        <time>2011-08-19T10:19:26Z</time>
      </trkpt>
      <trkpt lat="41.759220" lon="2.000132">
        <ele>567.7</ele>
        <time>2011-08-19T10:19:26Z</time>
      </trkpt>
      <trkpt lat="41.759240" lon="2.000232">
        <ele>568.1</ele>
        <time>2011-08-19T10:19:26Z</time>
      </trkpt>
      <trkpt lat="41.759248" lon="2.000329">
        <ele>568.2</ele>
        <time>2011-08-19T10:19:26Z</time>
      </trkpt>
      <trkpt lat="41.759238" lon="2.000459">
        <ele>568.5</ele>
        <time>2011-08-19T10:19:26Z</time>
      </trkpt>
      <trkpt lat="41.759220" lon="2.000575">
        <ele>569.4</ele>
        <time>2011-08-19T10:19:26Z</time>
      </trkpt>
      <trkpt lat="41.759174" lon="2.000636">
        <ele>569.6</ele>
        <time>2011-08-19T10:19:26Z</time>
      </trkpt>
      <trkpt lat="41.759082" lon="2.000672">
        <ele>570.0</ele>
        <time>2011-08-19T10:19:26Z</time>
      </trkpt>
      <trkpt lat="41.758987" lon="2.000701">
        <ele>570.6</ele>
        <time>2011-08-19T10:19:26Z</time>
      </trkpt>
      <trkpt lat="41.758910" lon="2.000725">
        <ele>571.1</ele>
        <time>2011-08-19T10:19:26Z</time>
      </trkpt>
      <trkpt lat="41.758822" lon="2.000774">
        <ele>572.4</ele>
        <time>2011-08-19T10:19:26Z</time>
      </trkpt>
      <trkpt lat="41.758746" lon="2.000787">
        <ele>572.8</ele>
        <time>2011-08-19T10:19:26Z</time>
      </trkpt>
      <trkpt lat="41.758643" lon="2.000827">
        <ele>573.7</ele>
        <time>2011-08-19T10:19:26Z</time>
      </trkpt>
      <trkpt lat="41.758561" lon="2.000858">
        <ele>573.8</ele>
        <time>2011-08-19T10:19:26Z</time>
      </trkpt>
      <trkpt lat="41.758473" lon="2.000914">
        <ele>574.3</ele>
        <time>2011-08-19T10:19:26Z</time>
      </trkpt>
      <trkpt lat="41.758425" lon="2.000985">
        <ele>575.1</ele>
        <time>2011-08-19T10:19:26Z</time>
      </trkpt>
      <trkpt lat="41.758428" lon="2.001085">
        <ele>576.5</ele>
        <time>2011-08-19T10:19:26Z</time>
      </trkpt>
      <trkpt lat="41.758449" lon="2.001182">
        <ele>577.4</ele>
        <time>2011-08-19T10:19:26Z</time>
      </trkpt>
      <trkpt lat="41.758501" lon="2.001257">
        <ele>577.9</ele>
        <time>2011-08-19T10:19:26Z</time>
      </trkpt>
      <trkpt lat="41.758559" lon="2.001303">
        <ele>578.6</ele>
        <time>2011-08-19T10:19:26Z</time>
      </trkpt>
      <trkpt lat="41.758623" lon="2.001396">
        <ele>579.8</ele>
        <time>2011-08-19T10:19:26Z</time>
      </trkpt>
      <trkpt lat="41.758656" lon="2.001455">
        <ele>580.7</ele>
        <time>2011-08-19T10:19:26Z</time>
      </trkpt>
      <trkpt lat="41.758673" lon="2.001534">
        <ele>581.6</ele>
        <time>2011-08-19T10:19:26Z</time>
      </trkpt>
      <trkpt lat="41.758674" lon="2.001655">
        <ele>582.7</ele>
        <time>2011-08-19T10:19:26Z</time>
      </trkpt>
      <trkpt lat="41.758686" lon="2.001761">
        <ele>583.9</ele>
        <time>2011-08-19T10:19:26Z</time>
      </trkpt>
      <trkpt lat="41.758713" lon="2.001926">
        <ele>585.7</ele>
        <time>2011-08-19T10:19:26Z</time>
      </trkpt>
      <trkpt lat="41.758733" lon="2.002059">
        <ele>586.5</ele>
        <time>2011-08-19T10:19:26Z</time>
      </trkpt>
      <trkpt lat="41.758754" lon="2.002175">
        <ele>587.4</ele>
        <time>2011-08-19T10:19:26Z</time>
      </trkpt>
      <trkpt lat="41.758763" lon="2.002308">
        <ele>587.9</ele>
        <time>2011-08-19T10:19:26Z</time>
      </trkpt>
      <trkpt lat="41.758760" lon="2.002427">
        <ele>588.0</ele>
        <time>2011-08-19T10:19:26Z</time>
      </trkpt>
      <trkpt lat="41.758744" lon="2.002538">
        <ele>588.2</ele>
        <time>2011-08-19T10:19:26Z</time>
      </trkpt>
      <trkpt lat="41.758716" lon="2.002664">
        <ele>587.8</ele>
        <time>2011-08-19T10:19:26Z</time>
      </trkpt>
      <trkpt lat="41.758676" lon="2.002784">
        <ele>587.4</ele>
        <time>2011-08-19T10:19:26Z</time>
      </trkpt>
      <trkpt lat="41.758616" lon="2.002908">
        <ele>587.6</ele>
        <time>2011-08-19T10:19:26Z</time>
      </trkpt>
      <trkpt lat="41.758554" lon="2.002948">
        <ele>588.2</ele>
        <time>2011-08-19T10:19:26Z</time>
      </trkpt>
      <trkpt lat="41.758460" lon="2.002984">
        <ele>589.1</ele>
        <time>2011-08-19T10:19:26Z</time>
      </trkpt>
      <trkpt lat="41.758353" lon="2.002984">
        <ele>590.1</ele>
        <time>2011-08-19T10:19:26Z</time>
      </trkpt>
      <trkpt lat="41.758205" lon="2.003016">
        <ele>590.6</ele>
        <time>2011-08-19T10:19:26Z</time>
      </trkpt>
      <trkpt lat="41.758157" lon="2.003014">
        <ele>590.9</ele>
        <time>2011-08-19T10:19:26Z</time>
      </trkpt>
      <trkpt lat="41.758065" lon="2.003057">
        <ele>591.4</ele>
        <time>2011-08-19T10:19:26Z</time>
      </trkpt>
      <trkpt lat="41.757989" lon="2.003095">
        <ele>591.8</ele>
        <time>2011-08-19T10:19:26Z</time>
      </trkpt>
      <trkpt lat="41.757888" lon="2.003166">
        <ele>592.2</ele>
        <time>2011-08-19T10:19:26Z</time>
      </trkpt>
      <trkpt lat="41.757811" lon="2.003219">
        <ele>592.8</ele>
        <time>2011-08-19T10:19:26Z</time>
      </trkpt>
      <trkpt lat="41.757752" lon="2.003257">
        <ele>593.4</ele>
        <time>2011-08-19T10:19:26Z</time>
      </trkpt>
      <trkpt lat="41.757675" lon="2.003315">
        <ele>594.0</ele>
        <time>2011-08-19T10:19:26Z</time>
      </trkpt>
      <trkpt lat="41.757594" lon="2.003356">
        <ele>593.4</ele>
        <time>2011-08-19T10:19:26Z</time>
      </trkpt>
      <trkpt lat="41.757504" lon="2.003414">
        <ele>593.5</ele>
        <time>2011-08-19T10:19:26Z</time>
      </trkpt>
      <trkpt lat="41.757408" lon="2.003477">
        <ele>594.0</ele>
        <time>2011-08-19T10:19:26Z</time>
      </trkpt>
      <trkpt lat="41.757313" lon="2.003528">
        <ele>595.4</ele>
        <time>2011-08-19T10:19:26Z</time>
      </trkpt>
      <trkpt lat="41.757222" lon="2.003562">
        <ele>596.5</ele>
        <time>2011-08-19T10:19:26Z</time>
      </trkpt>
      <trkpt lat="41.757148" lon="2.003638">
        <ele>597.3</ele>
        <time>2011-08-19T10:19:26Z</time>
      </trkpt>
      <trkpt lat="41.757180" lon="2.003763">
        <ele>593.3</ele>
        <time>2011-08-19T10:19:26Z</time>
      </trkpt>
      <trkpt lat="41.757170" lon="2.003866">
        <ele>590.7</ele>
        <time>2011-08-19T10:19:26Z</time>
      </trkpt>
      <trkpt lat="41.757182" lon="2.003968">
        <ele>587.1</ele>
        <time>2011-08-19T10:19:26Z</time>
      </trkpt>
      <trkpt lat="41.757203" lon="2.004074">
        <ele>582.8</ele>
        <time>2011-08-19T10:19:26Z</time>
      </trkpt>
      <trkpt lat="41.757196" lon="2.004250">
        <ele>577.4</ele>
        <time>2011-08-19T10:19:26Z</time>
      </trkpt>
      <trkpt lat="41.757169" lon="2.004402">
        <ele>573.6</ele>
        <time>2011-08-19T10:19:26Z</time>
      </trkpt>
      <trkpt lat="41.757153" lon="2.004532">
        <ele>571.7</ele>
        <time>2011-08-19T10:19:26Z</time>
      </trkpt>
      <trkpt lat="41.757142" lon="2.004654">
        <ele>569.8</ele>
        <time>2011-08-19T10:19:26Z</time>
      </trkpt>
      <trkpt lat="41.757126" lon="2.004779">
        <ele>568.1</ele>
        <time>2011-08-19T10:19:26Z</time>
      </trkpt>
      <trkpt lat="41.757096" lon="2.004879">
        <ele>567.4</ele>
        <time>2011-08-19T10:19:26Z</time>
      </trkpt>
      <trkpt lat="41.757068" lon="2.004955">
        <ele>566.7</ele>
        <time>2011-08-19T10:19:26Z</time>
      </trkpt>
      <trkpt lat="41.757120" lon="2.005011">
        <ele>564.2</ele>
        <time>2011-08-19T10:19:26Z</time>
      </trkpt>
      <trkpt lat="41.757115" lon="2.005107">
        <ele>562.6</ele>
        <time>2011-08-19T10:19:26Z</time>
      </trkpt>
      <trkpt lat="41.757064" lon="2.005180">
        <ele>561.7</ele>
        <time>2011-08-19T10:19:26Z</time>
      </trkpt>
      <trkpt lat="41.757017" lon="2.005257">
        <ele>561.4</ele>
        <time>2011-08-19T10:19:26Z</time>
      </trkpt>
      <trkpt lat="41.756980" lon="2.005345">
        <ele>560.7</ele>
        <time>2011-08-19T10:19:26Z</time>
      </trkpt>
      <trkpt lat="41.756961" lon="2.005447">
        <ele>559.2</ele>
        <time>2011-08-19T10:19:26Z</time>
      </trkpt>
      <trkpt lat="41.756945" lon="2.005596">
        <ele>557.2</ele>
        <time>2011-08-19T10:19:26Z</time>
      </trkpt>
      <trkpt lat="41.756918" lon="2.005730">
        <ele>556.2</ele>
        <time>2011-08-19T10:19:26Z</time>
      </trkpt>
      <trkpt lat="41.756911" lon="2.005844">
        <ele>554.8</ele>
        <time>2011-08-19T10:19:26Z</time>
      </trkpt>
      <trkpt lat="41.756915" lon="2.005992">
        <ele>552.8</ele>
        <time>2011-08-19T10:19:26Z</time>
      </trkpt>
      <trkpt lat="41.756896" lon="2.006118">
        <ele>552.3</ele>
        <time>2011-08-19T10:19:26Z</time>
      </trkpt>
      <trkpt lat="41.756877" lon="2.006274">
        <ele>551.9</ele>
        <time>2011-08-19T10:19:26Z</time>
      </trkpt>
      <trkpt lat="41.756861" lon="2.006389">
        <ele>552.3</ele>
        <time>2011-08-19T10:19:26Z</time>
      </trkpt>
      <trkpt lat="41.756842" lon="2.006507">
        <ele>552.7</ele>
        <time>2011-08-19T10:19:26Z</time>
      </trkpt>
      <trkpt lat="41.756823" lon="2.006636">
        <ele>552.8</ele>
        <time>2011-08-19T10:19:26Z</time>
      </trkpt>
      <trkpt lat="41.756898" lon="2.006738">
        <ele>549.6</ele>
        <time>2011-08-19T10:19:26Z</time>
      </trkpt>
      <trkpt lat="41.756928" lon="2.006836">
        <ele>548.7</ele>
        <time>2011-08-19T10:19:26Z</time>
      </trkpt>
      <trkpt lat="41.757043" lon="2.006949">
        <ele>546.8</ele>
        <time>2011-08-19T10:19:26Z</time>
      </trkpt>
      <trkpt lat="41.757092" lon="2.007043">
        <ele>546.6</ele>
        <time>2011-08-19T10:19:26Z</time>
      </trkpt>
      <trkpt lat="41.757158" lon="2.007114">
        <ele>544.1</ele>
        <time>2011-08-19T10:19:26Z</time>
      </trkpt>
      <trkpt lat="41.757227" lon="2.007174">
        <ele>541.5</ele>
        <time>2011-08-19T10:19:26Z</time>
      </trkpt>
      <trkpt lat="41.757276" lon="2.007280">
        <ele>540.5</ele>
        <time>2011-08-19T10:19:26Z</time>
      </trkpt>
      <trkpt lat="41.757331" lon="2.007370">
        <ele>539.4</ele>
        <time>2011-08-19T10:19:26Z</time>
      </trkpt>
      <trkpt lat="41.757372" lon="2.007465">
        <ele>539.0</ele>
        <time>2011-08-19T10:19:26Z</time>
      </trkpt>
      <trkpt lat="41.757424" lon="2.007567">
        <ele>537.9</ele>
        <time>2011-08-19T10:19:26Z</time>
      </trkpt>
      <trkpt lat="41.757516" lon="2.007691">
        <ele>534.2</ele>
        <time>2011-08-19T10:19:26Z</time>
      </trkpt>
      <trkpt lat="41.757565" lon="2.007793">
        <ele>531.8</ele>
        <time>2011-08-19T10:19:26Z</time>
      </trkpt>
      <trkpt lat="41.757600" lon="2.007872">
        <ele>530.1</ele>
        <time>2011-08-19T10:19:26Z</time>
      </trkpt>
      <trkpt lat="41.757624" lon="2.007970">
        <ele>529.1</ele>
        <time>2011-08-19T10:19:26Z</time>
      </trkpt>
      <trkpt lat="41.757639" lon="2.008103">
        <ele>527.7</ele>
        <time>2011-08-19T10:19:26Z</time>
      </trkpt>
      <trkpt lat="41.757694" lon="2.008182">
        <ele>525.4</ele>
        <time>2011-08-19T10:19:26Z</time>
      </trkpt>
      <trkpt lat="41.757734" lon="2.008136">
        <ele>524.7</ele>
        <time>2011-08-19T10:19:26Z</time>
      </trkpt>
      <trkpt lat="41.757798" lon="2.008059">
        <ele>523.6</ele>
        <time>2011-08-19T10:19:26Z</time>
      </trkpt>
      <trkpt lat="41.757852" lon="2.008016">
        <ele>522.3</ele>
        <time>2011-08-19T10:19:26Z</time>
      </trkpt>
      <trkpt lat="41.757909" lon="2.007997">
        <ele>520.7</ele>
        <time>2011-08-19T10:19:26Z</time>
      </trkpt>
      <trkpt lat="41.757970" lon="2.007847">
        <ele>518.8</ele>
        <time>2011-08-19T10:19:26Z</time>
      </trkpt>
      <trkpt lat="41.758021" lon="2.007789">
        <ele>517.4</ele>
        <time>2011-08-19T10:19:26Z</time>
      </trkpt>
      <trkpt lat="41.758083" lon="2.007735">
        <ele>515.6</ele>
        <time>2011-08-19T10:19:26Z</time>
      </trkpt>
      <trkpt lat="41.758160" lon="2.007738">
        <ele>513.7</ele>
        <time>2011-08-19T10:19:26Z</time>
      </trkpt>
      <trkpt lat="41.758266" lon="2.007805">
        <ele>510.4</ele>
        <time>2011-08-19T10:19:26Z</time>
      </trkpt>
      <trkpt lat="41.758346" lon="2.007876">
        <ele>508.4</ele>
        <time>2011-08-19T10:19:26Z</time>
      </trkpt>
      <trkpt lat="41.758424" lon="2.007985">
        <ele>507.3</ele>
        <time>2011-08-19T10:19:26Z</time>
      </trkpt>
      <trkpt lat="41.758499" lon="2.008075">
        <ele>504.2</ele>
        <time>2011-08-19T10:19:26Z</time>
      </trkpt>
      <trkpt lat="41.758577" lon="2.008154">
        <ele>501.3</ele>
        <time>2011-08-19T10:19:26Z</time>
      </trkpt>
      <trkpt lat="41.758640" lon="2.008191">
        <ele>499.7</ele>
        <time>2011-08-19T10:19:26Z</time>
      </trkpt>
      <trkpt lat="41.758717" lon="2.008239">
        <ele>497.8</ele>
        <time>2011-08-19T10:19:26Z</time>
      </trkpt>
      <trkpt lat="41.758789" lon="2.008291">
        <ele>496.3</ele>
        <time>2011-08-19T10:19:26Z</time>
      </trkpt>
      <trkpt lat="41.758855" lon="2.008340">
        <ele>495.1</ele>
        <time>2011-08-19T10:19:26Z</time>
      </trkpt>
      <trkpt lat="41.758926" lon="2.008411">
        <ele>492.7</ele>
        <time>2011-08-19T10:19:26Z</time>
      </trkpt>
      <trkpt lat="41.758933" lon="2.008490">
        <ele>490.4</ele>
        <time>2011-08-19T10:19:26Z</time>
      </trkpt>
      <trkpt lat="41.758853" lon="2.008526">
        <ele>489.4</ele>
        <time>2011-08-19T10:19:26Z</time>
      </trkpt>
      <trkpt lat="41.758751" lon="2.008512">
        <ele>489.8</ele>
        <time>2011-08-19T10:19:26Z</time>
      </trkpt>
      <trkpt lat="41.758631" lon="2.008510">
        <ele>490.8</ele>
        <time>2011-08-19T10:19:26Z</time>
      </trkpt>
      <trkpt lat="41.758540" lon="2.008542">
        <ele>490.6</ele>
        <time>2011-08-19T10:19:26Z</time>
      </trkpt>
      <trkpt lat="41.758458" lon="2.008578">
        <ele>490.2</ele>
        <time>2011-08-19T10:19:26Z</time>
      </trkpt>
      <trkpt lat="41.758376" lon="2.008625">
        <ele>491.1</ele>
        <time>2011-08-19T10:19:26Z</time>
      </trkpt>
      <trkpt lat="41.758322" lon="2.008690">
        <ele>490.6</ele>
        <time>2011-08-19T10:19:26Z</time>
      </trkpt>
      <trkpt lat="41.758252" lon="2.008794">
        <ele>488.7</ele>
        <time>2011-08-19T10:19:26Z</time>
      </trkpt>
      <trkpt lat="41.758187" lon="2.008905">
        <ele>485.9</ele>
        <time>2011-08-19T10:19:26Z</time>
      </trkpt>
      <trkpt lat="41.758114" lon="2.008994">
        <ele>484.6</ele>
        <time>2011-08-19T10:19:26Z</time>
      </trkpt>
      <trkpt lat="41.758035" lon="2.009090">
        <ele>483.0</ele>
        <time>2011-08-19T10:19:26Z</time>
      </trkpt>
      <trkpt lat="41.757953" lon="2.009209">
        <ele>481.3</ele>
        <time>2011-08-19T10:19:26Z</time>
      </trkpt>
      <trkpt lat="41.757871" lon="2.009279">
        <ele>481.1</ele>
        <time>2011-08-19T10:19:26Z</time>
      </trkpt>
      <trkpt lat="41.757789" lon="2.009337">
        <ele>481.3</ele>
        <time>2011-08-19T10:19:26Z</time>
      </trkpt>
      <trkpt lat="41.757745" lon="2.009425">
        <ele>479.4</ele>
        <time>2011-08-19T10:19:26Z</time>
      </trkpt>
      <trkpt lat="41.757689" lon="2.009582">
        <ele>477.5</ele>
        <time>2011-08-19T10:19:26Z</time>
      </trkpt>
      <trkpt lat="41.757656" lon="2.009689">
        <ele>476.8</ele>
        <time>2011-08-19T10:19:26Z</time>
      </trkpt>
      <trkpt lat="41.757629" lon="2.009865">
        <ele>474.1</ele>
        <time>2011-08-19T10:19:26Z</time>
      </trkpt>
      <trkpt lat="41.757596" lon="2.009975">
        <ele>472.4</ele>
        <time>2011-08-19T10:19:26Z</time>
      </trkpt>
      <trkpt lat="41.757531" lon="2.010083">
        <ele>472.3</ele>
        <time>2011-08-19T10:19:26Z</time>
      </trkpt>
      <trkpt lat="41.757478" lon="2.010198">
        <ele>471.8</ele>
        <time>2011-08-19T10:19:26Z</time>
      </trkpt>
      <trkpt lat="41.757431" lon="2.010362">
        <ele>472.2</ele>
        <time>2011-08-19T10:19:26Z</time>
      </trkpt>
      <trkpt lat="41.757435" lon="2.010507">
        <ele>470.3</ele>
        <time>2011-08-19T10:19:26Z</time>
      </trkpt>
      <trkpt lat="41.757459" lon="2.010674">
        <ele>468.7</ele>
        <time>2011-08-19T10:19:26Z</time>
      </trkpt>
      <trkpt lat="41.757452" lon="2.010849">
        <ele>469.1</ele>
        <time>2011-08-19T10:19:26Z</time>
      </trkpt>
      <trkpt lat="41.757477" lon="2.011035">
        <ele>468.5</ele>
        <time>2011-08-19T10:19:26Z</time>
      </trkpt>
      <trkpt lat="41.757503" lon="2.011175">
        <ele>467.7</ele>
        <time>2011-08-19T10:19:26Z</time>
      </trkpt>
      <trkpt lat="41.757530" lon="2.011327">
        <ele>466.9</ele>
        <time>2011-08-19T10:19:26Z</time>
      </trkpt>
      <trkpt lat="41.757569" lon="2.011490">
        <ele>466.0</ele>
        <time>2011-08-19T10:19:26Z</time>
      </trkpt>
      <trkpt lat="41.757610" lon="2.011634">
        <ele>465.3</ele>
        <time>2011-08-19T10:19:26Z</time>
      </trkpt>
      <trkpt lat="41.757656" lon="2.011758">
        <ele>464.3</ele>
        <time>2011-08-19T10:19:26Z</time>
      </trkpt>
      <trkpt lat="41.757729" lon="2.011871">
        <ele>462.5</ele>
        <time>2011-08-19T10:19:26Z</time>
      </trkpt>
      <trkpt lat="41.757789" lon="2.011954">
        <ele>461.5</ele>
        <time>2011-08-19T10:19:26Z</time>
      </trkpt>
      <trkpt lat="41.757887" lon="2.012040">
        <ele>459.1</ele>
        <time>2011-08-19T10:19:26Z</time>
      </trkpt>
      <trkpt lat="41.757973" lon="2.012161">
        <ele>457.7</ele>
        <time>2011-08-19T10:19:26Z</time>
      </trkpt>
      <trkpt lat="41.758054" lon="2.012251">
        <ele>456.3</ele>
        <time>2011-08-19T10:19:26Z</time>
      </trkpt>
      <trkpt lat="41.758097" lon="2.012353">
        <ele>456.1</ele>
        <time>2011-08-19T10:19:26Z</time>
      </trkpt>
      <trkpt lat="41.758155" lon="2.012428">
        <ele>454.2</ele>
        <time>2011-08-19T10:19:26Z</time>
      </trkpt>
      <trkpt lat="41.758224" lon="2.012526">
        <ele>452.6</ele>
        <time>2011-08-19T10:19:26Z</time>
      </trkpt>
      <trkpt lat="41.758290" lon="2.012585">
        <ele>451.1</ele>
        <time>2011-08-19T10:19:26Z</time>
      </trkpt>
      <trkpt lat="41.758359" lon="2.012683">
        <ele>450.2</ele>
        <time>2011-08-19T10:19:26Z</time>
      </trkpt>
      <trkpt lat="41.758430" lon="2.012659">
        <ele>448.7</ele>
        <time>2011-08-19T10:19:26Z</time>
      </trkpt>
      <trkpt lat="41.758467" lon="2.012587">
        <ele>447.2</ele>
        <time>2011-08-19T10:19:26Z</time>
      </trkpt>
      <trkpt lat="41.758420" lon="2.012462">
        <ele>447.1</ele>
        <time>2011-08-19T10:19:26Z</time>
      </trkpt>
      <trkpt lat="41.758371" lon="2.012356">
        <ele>447.7</ele>
        <time>2011-08-19T10:19:26Z</time>
      </trkpt>
      <trkpt lat="41.758327" lon="2.012265">
        <ele>448.1</ele>
        <time>2011-08-19T10:19:26Z</time>
      </trkpt>
      <trkpt lat="41.758272" lon="2.012148">
        <ele>447.9</ele>
        <time>2011-08-19T10:19:26Z</time>
      </trkpt>
      <trkpt lat="41.758228" lon="2.012016">
        <ele>446.5</ele>
        <time>2011-08-19T10:19:26Z</time>
      </trkpt>
      <trkpt lat="41.758227" lon="2.011902">
        <ele>445.1</ele>
        <time>2011-08-19T10:19:26Z</time>
      </trkpt>
      <trkpt lat="41.758298" lon="2.011893">
        <ele>443.9</ele>
        <time>2011-08-19T10:19:26Z</time>
      </trkpt>
      <trkpt lat="41.758319" lon="2.011954">
        <ele>444.2</ele>
        <time>2011-08-19T10:19:26Z</time>
      </trkpt>
      <trkpt lat="41.758342" lon="2.012033">
        <ele>444.8</ele>
        <time>2011-08-19T10:19:26Z</time>
      </trkpt>
      <trkpt lat="41.758403" lon="2.012146">
        <ele>444.7</ele>
        <time>2011-08-19T10:19:26Z</time>
      </trkpt>
      <trkpt lat="41.758461" lon="2.012271">
        <ele>444.1</ele>
        <time>2011-08-19T10:19:26Z</time>
      </trkpt>
      <trkpt lat="41.758519" lon="2.012373">
        <ele>444.0</ele>
        <time>2011-08-19T10:19:26Z</time>
      </trkpt>
      <trkpt lat="41.758574" lon="2.012490">
        <ele>444.3</ele>
        <time>2011-08-19T10:19:26Z</time>
      </trkpt>
      <trkpt lat="41.758612" lon="2.012607">
        <ele>444.5</ele>
        <time>2011-08-19T10:19:26Z</time>
      </trkpt>
      <trkpt lat="41.758636" lon="2.012786">
        <ele>443.8</ele>
        <time>2011-08-19T10:19:26Z</time>
      </trkpt>
      <trkpt lat="41.758598" lon="2.012916">
        <ele>443.3</ele>
        <time>2011-08-19T10:19:26Z</time>
      </trkpt>
      <trkpt lat="41.758559" lon="2.013000">
        <ele>442.9</ele>
        <time>2011-08-19T10:19:26Z</time>
      </trkpt>
      <trkpt lat="41.758515" lon="2.013175">
        <ele>442.5</ele>
        <time>2011-08-19T10:19:26Z</time>
      </trkpt>
      <trkpt lat="41.758522" lon="2.013377">
        <ele>442.1</ele>
        <time>2011-08-19T10:19:26Z</time>
      </trkpt>
      <trkpt lat="41.758594" lon="2.013463">
        <ele>442.5</ele>
        <time>2011-08-19T10:19:26Z</time>
      </trkpt>
      <trkpt lat="41.758719" lon="2.013477">
        <ele>442.6</ele>
        <time>2011-08-19T10:19:26Z</time>
      </trkpt>
      <trkpt lat="41.758905" lon="2.013508">
        <ele>442.0</ele>
        <time>2011-08-19T10:19:26Z</time>
      </trkpt>
      <trkpt lat="41.759090" lon="2.013528">
        <ele>441.4</ele>
        <time>2011-08-19T10:19:26Z</time>
      </trkpt>
      <trkpt lat="41.759289" lon="2.013529">
        <ele>441.1</ele>
        <time>2011-08-19T10:19:26Z</time>
      </trkpt>
      <trkpt lat="41.759380" lon="2.013524">
        <ele>441.4</ele>
        <time>2011-08-19T10:19:26Z</time>
      </trkpt>
      <trkpt lat="41.759477" lon="2.013526">
        <ele>441.8</ele>
        <time>2011-08-19T10:19:26Z</time>
      </trkpt>
      <trkpt lat="41.759591" lon="2.013535">
        <ele>442.3</ele>
        <time>2011-08-19T10:19:26Z</time>
      </trkpt>
      <trkpt lat="41.759708" lon="2.013545">
        <ele>442.6</ele>
        <time>2011-08-19T10:19:26Z</time>
      </trkpt>
      <trkpt lat="41.759856" lon="2.013431">
        <ele>442.1</ele>
        <time>2011-08-19T10:19:26Z</time>
      </trkpt>
      <trkpt lat="41.760007" lon="2.013413">
        <ele>440.8</ele>
        <time>2011-08-19T10:19:26Z</time>
      </trkpt>
      <trkpt lat="41.760168" lon="2.013302">
        <ele>441.0</ele>
        <time>2011-08-19T10:19:26Z</time>
      </trkpt>
      <trkpt lat="41.760305" lon="2.013241">
        <ele>443.8</ele>
        <time>2011-08-19T10:19:26Z</time>
      </trkpt>
      <trkpt lat="41.760388" lon="2.013206">
        <ele>446.2</ele>
        <time>2011-08-19T10:19:26Z</time>
      </trkpt>
      <trkpt lat="41.760474" lon="2.013254">
        <ele>447.3</ele>
        <time>2011-08-19T10:19:26Z</time>
      </trkpt>
      <trkpt lat="41.760559" lon="2.013330">
        <ele>447.3</ele>
        <time>2011-08-19T10:19:26Z</time>
      </trkpt>
      <trkpt lat="41.760638" lon="2.013394">
        <ele>447.8</ele>
        <time>2011-08-19T10:19:26Z</time>
      </trkpt>
      <trkpt lat="41.760716" lon="2.013508">
        <ele>449.4</ele>
        <time>2011-08-19T10:19:26Z</time>
      </trkpt>
      <trkpt lat="41.760747" lon="2.013579">
        <ele>449.7</ele>
        <time>2011-08-19T10:19:26Z</time>
      </trkpt>
      <trkpt lat="41.760687" lon="2.013713">
        <ele>447.8</ele>
        <time>2011-08-19T10:19:26Z</time>
      </trkpt>
      <trkpt lat="41.760615" lon="2.013900">
        <ele>447.2</ele>
        <time>2011-08-19T10:19:26Z</time>
      </trkpt>
      <trkpt lat="41.760530" lon="2.014081">
        <ele>446.6</ele>
        <time>2011-08-19T10:19:26Z</time>
      </trkpt>
      <trkpt lat="41.760460" lon="2.014253">
        <ele>446.0</ele>
        <time>2011-08-19T10:19:26Z</time>
      </trkpt>
      <trkpt lat="41.760396" lon="2.014409">
        <ele>445.8</ele>
        <time>2011-08-19T10:19:26Z</time>
      </trkpt>
      <trkpt lat="41.760326" lon="2.014556">
        <ele>445.7</ele>
        <time>2011-08-19T10:19:26Z</time>
      </trkpt>
      <trkpt lat="41.760244" lon="2.014789">
        <ele>446.1</ele>
        <time>2011-08-19T10:19:26Z</time>
      </trkpt>
      <trkpt lat="41.760261" lon="2.014874">
        <ele>446.8</ele>
        <time>2011-08-19T10:19:26Z</time>
      </trkpt>
      <trkpt lat="41.760220" lon="2.014986">
        <ele>447.1</ele>
        <time>2011-08-19T10:19:26Z</time>
      </trkpt>
      <trkpt lat="41.760124" lon="2.015155">
        <ele>447.7</ele>
        <time>2011-08-19T10:19:26Z</time>
      </trkpt>
      <trkpt lat="41.760063" lon="2.015248">
        <ele>447.6</ele>
        <time>2011-08-19T10:19:26Z</time>
      </trkpt>
      <trkpt lat="41.759993" lon="2.015377">
        <ele>447.6</ele>
        <time>2011-08-19T10:19:26Z</time>
      </trkpt>
      <trkpt lat="41.759925" lon="2.015524">
        <ele>447.8</ele>
        <time>2011-08-19T10:19:26Z</time>
      </trkpt>
      <trkpt lat="41.759937" lon="2.015534">
        <ele>448.1</ele>
        <time>2011-08-19T10:19:26Z</time>
      </trkpt>
      <trkpt lat="41.759827" lon="2.015721">
        <ele>448.9</ele>
        <time>2011-08-19T10:19:26Z</time>
      </trkpt>
      <trkpt lat="41.759749" lon="2.015859">
        <ele>449.4</ele>
        <time>2011-08-19T10:19:26Z</time>
      </trkpt>
      <trkpt lat="41.759664" lon="2.016030">
        <ele>449.4</ele>
        <time>2011-08-19T10:19:26Z</time>
      </trkpt>
      <trkpt lat="41.759649" lon="2.016164">
        <ele>450.2</ele>
        <time>2011-08-19T10:19:26Z</time>
      </trkpt>
      <trkpt lat="41.759632" lon="2.016326">
        <ele>451.0</ele>
        <time>2011-08-19T10:19:26Z</time>
      </trkpt>
      <trkpt lat="41.759614" lon="2.016450">
        <ele>451.4</ele>
        <time>2011-08-19T10:19:26Z</time>
      </trkpt>
      <trkpt lat="41.759555" lon="2.016578">
        <ele>450.7</ele>
        <time>2011-08-19T10:19:26Z</time>
      </trkpt>
      <trkpt lat="41.759504" lon="2.016706">
        <ele>450.7</ele>
        <time>2011-08-19T10:19:26Z</time>
      </trkpt>
      <trkpt lat="41.759512" lon="2.016734">
        <ele>451.3</ele>
        <time>2011-08-19T10:19:26Z</time>
      </trkpt>
      <trkpt lat="41.759467" lon="2.016828">
        <ele>451.5</ele>
        <time>2011-08-19T10:19:26Z</time>
      </trkpt>
      <trkpt lat="41.759389" lon="2.016954">
        <ele>451.6</ele>
        <time>2011-08-19T10:19:26Z</time>
      </trkpt>
      <trkpt lat="41.759327" lon="2.017069">
        <ele>452.5</ele>
        <time>2011-08-19T10:19:26Z</time>
      </trkpt>
      <trkpt lat="41.759263" lon="2.017187">
        <ele>453.7</ele>
        <time>2011-08-19T10:19:26Z</time>
      </trkpt>
      <trkpt lat="41.759192" lon="2.017344">
        <ele>455.1</ele>
        <time>2011-08-19T10:19:26Z</time>
      </trkpt>
      <trkpt lat="41.759149" lon="2.017437">
        <ele>456.1</ele>
        <time>2011-08-19T10:19:26Z</time>
      </trkpt>
      <trkpt lat="41.759011" lon="2.017607">
        <ele>457.9</ele>
        <time>2011-08-19T10:19:26Z</time>
      </trkpt>
      <trkpt lat="41.758832" lon="2.017771">
        <ele>459.7</ele>
        <time>2011-08-19T10:19:26Z</time>
      </trkpt>
      <trkpt lat="41.758707" lon="2.017906">
        <ele>461.8</ele>
        <time>2011-08-19T10:19:26Z</time>
      </trkpt>
      <trkpt lat="41.758647" lon="2.017969">
        <ele>462.8</ele>
        <time>2011-08-19T10:19:26Z</time>
      </trkpt>
      <trkpt lat="41.758488" lon="2.018068">
        <ele>463.2</ele>
        <time>2011-08-19T10:19:26Z</time>
      </trkpt>
      <trkpt lat="41.758384" lon="2.018138">
        <ele>462.9</ele>
        <time>2011-08-19T10:19:26Z</time>
      </trkpt>
      <trkpt lat="41.758262" lon="2.018223">
        <ele>462.8</ele>
        <time>2011-08-19T10:19:26Z</time>
      </trkpt>
      <trkpt lat="41.758130" lon="2.018306">
        <ele>461.5</ele>
        <time>2011-08-19T10:19:26Z</time>
      </trkpt>
      <trkpt lat="41.758000" lon="2.018358">
        <ele>459.5</ele>
        <time>2011-08-19T10:19:26Z</time>
      </trkpt>
      <trkpt lat="41.757890" lon="2.018443">
        <ele>459.0</ele>
        <time>2011-08-19T10:19:26Z</time>
      </trkpt>
      <trkpt lat="41.757784" lon="2.018550">
        <ele>458.2</ele>
        <time>2011-08-19T10:19:26Z</time>
      </trkpt>
      <trkpt lat="41.757701" lon="2.018678">
        <ele>458.9</ele>
        <time>2011-08-19T10:19:26Z</time>
      </trkpt>
      <trkpt lat="41.757597" lon="2.018693">
        <ele>457.5</ele>
        <time>2011-08-19T10:19:26Z</time>
      </trkpt>
      <trkpt lat="41.757446" lon="2.018744">
        <ele>455.7</ele>
        <time>2011-08-19T10:19:26Z</time>
      </trkpt>
      <trkpt lat="41.757268" lon="2.018837">
        <ele>456.3</ele>
        <time>2011-08-19T10:19:26Z</time>
      </trkpt>
      <trkpt lat="41.757143" lon="2.018916">
        <ele>457.3</ele>
        <time>2011-08-19T10:19:26Z</time>
      </trkpt>
      <trkpt lat="41.757032" lon="2.018980">
        <ele>457.7</ele>
        <time>2011-08-19T10:19:26Z</time>
      </trkpt>
      <trkpt lat="41.756889" lon="2.019082">
        <ele>458.2</ele>
        <time>2011-08-19T10:19:26Z</time>
      </trkpt>
      <trkpt lat="41.756785" lon="2.019152">
        <ele>458.8</ele>
        <time>2011-08-19T10:19:26Z</time>
      </trkpt>
      <trkpt lat="41.756630" lon="2.019219">
        <ele>459.2</ele>
        <time>2011-08-19T10:19:26Z</time>
      </trkpt>
      <trkpt lat="41.756505" lon="2.019293">
        <ele>460.5</ele>
        <time>2011-08-19T10:19:26Z</time>
      </trkpt>
      <trkpt lat="41.756418" lon="2.019390">
        <ele>461.4</ele>
        <time>2011-08-19T10:19:26Z</time>
      </trkpt>
      <trkpt lat="41.756307" lon="2.019475">
        <ele>461.2</ele>
        <time>2011-08-19T10:19:26Z</time>
      </trkpt>
      <trkpt lat="41.756255" lon="2.019547">
        <ele>461.4</ele>
        <time>2011-08-19T10:19:26Z</time>
      </trkpt>
      <trkpt lat="41.756206" lon="2.019635">
        <ele>462.2</ele>
        <time>2011-08-19T10:19:26Z</time>
      </trkpt>
      <trkpt lat="41.756166" lon="2.019754">
        <ele>463.6</ele>
        <time>2011-08-19T10:19:26Z</time>
      </trkpt>
      <trkpt lat="41.756113" lon="2.019885">
        <ele>464.4</ele>
        <time>2011-08-19T10:19:26Z</time>
      </trkpt>
      <trkpt lat="41.756073" lon="2.020006">
        <ele>464.6</ele>
        <time>2011-08-19T10:19:26Z</time>
      </trkpt>
      <trkpt lat="41.756041" lon="2.020140">
        <ele>464.9</ele>
        <time>2011-08-19T10:19:26Z</time>
      </trkpt>
      <trkpt lat="41.756013" lon="2.020317">
        <ele>465.5</ele>
        <time>2011-08-19T10:19:26Z</time>
      </trkpt>
      <trkpt lat="41.756000" lon="2.020448">
        <ele>465.8</ele>
        <time>2011-08-19T10:19:26Z</time>
      </trkpt>
      <trkpt lat="41.755999" lon="2.020612">
        <ele>466.5</ele>
        <time>2011-08-19T10:19:26Z</time>
      </trkpt>
      <trkpt lat="41.755998" lon="2.020755">
        <ele>466.9</ele>
        <time>2011-08-19T10:19:26Z</time>
      </trkpt>
      <trkpt lat="41.756006" lon="2.020900">
        <ele>467.8</ele>
        <time>2011-08-19T10:19:26Z</time>
      </trkpt>
      <trkpt lat="41.756005" lon="2.021093">
        <ele>468.3</ele>
        <time>2011-08-19T10:19:26Z</time>
      </trkpt>
      <trkpt lat="41.756004" lon="2.021237">
        <ele>468.7</ele>
        <time>2011-08-19T10:19:26Z</time>
      </trkpt>
      <trkpt lat="41.756006" lon="2.021320">
        <ele>469.1</ele>
        <time>2011-08-19T10:19:26Z</time>
      </trkpt>
      <trkpt lat="41.756007" lon="2.021410">
        <ele>469.3</ele>
        <time>2011-08-19T10:19:26Z</time>
      </trkpt>
      <trkpt lat="41.756017" lon="2.021504">
        <ele>469.3</ele>
        <time>2011-08-19T10:19:26Z</time>
      </trkpt>
      <trkpt lat="41.756022" lon="2.021614">
        <ele>469.1</ele>
        <time>2011-08-19T10:19:26Z</time>
      </trkpt>
      <trkpt lat="41.756036" lon="2.021684">
        <ele>469.0</ele>
        <time>2011-08-19T10:19:26Z</time>
      </trkpt>
      <trkpt lat="41.756085" lon="2.021746">
        <ele>468.8</ele>
        <time>2011-08-19T10:19:26Z</time>
      </trkpt>
      <trkpt lat="41.756142" lon="2.021712">
        <ele>469.4</ele>
        <time>2011-08-19T10:19:26Z</time>
      </trkpt>
      <trkpt lat="41.756230" lon="2.021683">
        <ele>470.1</ele>
        <time>2011-08-19T10:19:26Z</time>
      </trkpt>
      <trkpt lat="41.756314" lon="2.021680">
        <ele>470.3</ele>
        <time>2011-08-19T10:19:26Z</time>
      </trkpt>
      <trkpt lat="41.756398" lon="2.021671">
        <ele>470.7</ele>
        <time>2011-08-19T10:19:26Z</time>
      </trkpt>
      <trkpt lat="41.756525" lon="2.021679">
        <ele>470.9</ele>
        <time>2011-08-19T10:19:26Z</time>
      </trkpt>
      <trkpt lat="41.756664" lon="2.021679">
        <ele>471.3</ele>
        <time>2011-08-19T10:19:26Z</time>
      </trkpt>
      <trkpt lat="41.756768" lon="2.021670">
        <ele>471.7</ele>
        <time>2011-08-19T10:19:26Z</time>
      </trkpt>
      <trkpt lat="41.756851" lon="2.021676">
        <ele>471.4</ele>
        <time>2011-08-19T10:19:26Z</time>
      </trkpt>
      <trkpt lat="41.756940" lon="2.021663">
        <ele>472.0</ele>
        <time>2011-08-19T10:19:26Z</time>
      </trkpt>
      <trkpt lat="41.756991" lon="2.021667">
        <ele>471.8</ele>
        <time>2011-08-19T10:19:26Z</time>
      </trkpt>
      <trkpt lat="41.756967" lon="2.021730">
        <ele>469.0</ele>
        <time>2011-08-19T10:19:26Z</time>
      </trkpt>
      <trkpt lat="41.756966" lon="2.021822">
        <ele>468.0</ele>
        <time>2011-08-19T10:19:26Z</time>
      </trkpt>
      <trkpt lat="41.756981" lon="2.021899">
        <ele>467.1</ele>
        <time>2011-08-19T10:19:26Z</time>
      </trkpt>
      <trkpt lat="41.757012" lon="2.021994">
        <ele>466.1</ele>
        <time>2011-08-19T10:19:26Z</time>
      </trkpt>
      <trkpt lat="41.757077" lon="2.022073">
        <ele>465.2</ele>
        <time>2011-08-19T10:19:26Z</time>
      </trkpt>
      <trkpt lat="41.757133" lon="2.022139">
        <ele>464.7</ele>
        <time>2011-08-19T10:19:26Z</time>
      </trkpt>
      <trkpt lat="41.757162" lon="2.022216">
        <ele>464.3</ele>
        <time>2011-08-19T10:19:26Z</time>
      </trkpt>
      <trkpt lat="41.757152" lon="2.022287">
        <ele>463.9</ele>
        <time>2011-08-19T10:19:26Z</time>
      </trkpt>
      <trkpt lat="41.757081" lon="2.022322">
        <ele>463.7</ele>
        <time>2011-08-19T10:19:26Z</time>
      </trkpt>
      <trkpt lat="41.756976" lon="2.022336">
        <ele>463.6</ele>
        <time>2011-08-19T10:19:26Z</time>
      </trkpt>
      <trkpt lat="41.756894" lon="2.022366">
        <ele>463.4</ele>
        <time>2011-08-19T10:19:26Z</time>
      </trkpt>
      <trkpt lat="41.756841" lon="2.022384">
        <ele>463.1</ele>
        <time>2011-08-19T10:19:26Z</time>
      </trkpt>
      <trkpt lat="41.756753" lon="2.022416">
        <ele>462.6</ele>
        <time>2011-08-19T10:19:26Z</time>
      </trkpt>
      <trkpt lat="41.756646" lon="2.022454">
        <ele>462.0</ele>
        <time>2011-08-19T10:19:26Z</time>
      </trkpt>
      <trkpt lat="41.756534" lon="2.022479">
        <ele>462.4</ele>
        <time>2011-08-19T10:19:26Z</time>
      </trkpt>
      <trkpt lat="41.756436" lon="2.022488">
        <ele>462.6</ele>
        <time>2011-08-19T10:19:26Z</time>
      </trkpt>
      <trkpt lat="41.756348" lon="2.022489">
        <ele>462.6</ele>
        <time>2011-08-19T10:19:26Z</time>
      </trkpt>
      <trkpt lat="41.756258" lon="2.022490">
        <ele>462.6</ele>
        <time>2011-08-19T10:19:26Z</time>
      </trkpt>
      <trkpt lat="41.756178" lon="2.022499">
        <ele>462.7</ele>
        <time>2011-08-19T10:19:26Z</time>
      </trkpt>
      <trkpt lat="41.756105" lon="2.022485">
        <ele>462.3</ele>
        <time>2011-08-19T10:19:26Z</time>
      </trkpt>
      <trkpt lat="41.756038" lon="2.022524">
        <ele>462.7</ele>
        <time>2011-08-19T10:19:26Z</time>
      </trkpt>
      <trkpt lat="41.755931" lon="2.022544">
        <ele>462.4</ele>
        <time>2011-08-19T10:19:26Z</time>
      </trkpt>
      <trkpt lat="41.755853" lon="2.022576">
        <ele>462.5</ele>
        <time>2011-08-19T10:19:26Z</time>
      </trkpt>
      <trkpt lat="41.755773" lon="2.022625">
        <ele>463.0</ele>
        <time>2011-08-19T10:19:26Z</time>
      </trkpt>
      <trkpt lat="41.755713" lon="2.022698">
        <ele>463.9</ele>
        <time>2011-08-19T10:19:26Z</time>
      </trkpt>
      <trkpt lat="41.755656" lon="2.022804">
        <ele>465.5</ele>
        <time>2011-08-19T10:19:26Z</time>
      </trkpt>
      <trkpt lat="41.755609" lon="2.022919">
        <ele>467.4</ele>
        <time>2011-08-19T10:19:26Z</time>
      </trkpt>
      <trkpt lat="41.755539" lon="2.022989">
        <ele>468.8</ele>
        <time>2011-08-19T10:19:26Z</time>
      </trkpt>
      <trkpt lat="41.755471" lon="2.023024">
        <ele>469.9</ele>
        <time>2011-08-19T10:19:26Z</time>
      </trkpt>
      <trkpt lat="41.755377" lon="2.023030">
        <ele>470.5</ele>
        <time>2011-08-19T10:19:26Z</time>
      </trkpt>
      <trkpt lat="41.755270" lon="2.023024">
        <ele>471.3</ele>
        <time>2011-08-19T10:19:26Z</time>
      </trkpt>
      <trkpt lat="41.755178" lon="2.023028">
        <ele>472.4</ele>
        <time>2011-08-19T10:19:26Z</time>
      </trkpt>
      <trkpt lat="41.755067" lon="2.023032">
        <ele>473.7</ele>
        <time>2011-08-19T10:19:26Z</time>
      </trkpt>
      <trkpt lat="41.754965" lon="2.023024">
        <ele>474.3</ele>
        <time>2011-08-19T10:19:26Z</time>
      </trkpt>
      <trkpt lat="41.754889" lon="2.023025">
        <ele>475.0</ele>
        <time>2011-08-19T10:19:26Z</time>
      </trkpt>
      <trkpt lat="41.754814" lon="2.023031">
        <ele>475.8</ele>
        <time>2011-08-19T10:19:26Z</time>
      </trkpt>
      <trkpt lat="41.754713" lon="2.023035">
        <ele>476.6</ele>
        <time>2011-08-19T10:19:26Z</time>
      </trkpt>
      <trkpt lat="41.754625" lon="2.023039">
        <ele>477.3</ele>
        <time>2011-08-19T10:19:26Z</time>
      </trkpt>
      <trkpt lat="41.754551" lon="2.023071">
        <ele>478.0</ele>
        <time>2011-08-19T10:19:26Z</time>
      </trkpt>
      <trkpt lat="41.754511" lon="2.023123">
        <ele>478.6</ele>
        <time>2011-08-19T10:19:26Z</time>
      </trkpt>
      <trkpt lat="41.754477" lon="2.023192">
        <ele>479.6</ele>
        <time>2011-08-19T10:19:26Z</time>
      </trkpt>
      <trkpt lat="41.754449" lon="2.023277">
        <ele>480.7</ele>
        <time>2011-08-19T10:19:26Z</time>
      </trkpt>
      <trkpt lat="41.754406" lon="2.023395">
        <ele>482.2</ele>
        <time>2011-08-19T10:19:26Z</time>
      </trkpt>
      <trkpt lat="41.754373" lon="2.023508">
        <ele>483.3</ele>
        <time>2011-08-19T10:19:26Z</time>
      </trkpt>
      <trkpt lat="41.754332" lon="2.023634">
        <ele>484.6</ele>
        <time>2011-08-19T10:19:26Z</time>
      </trkpt>
      <trkpt lat="41.754275" lon="2.023747">
        <ele>485.8</ele>
        <time>2011-08-19T10:19:26Z</time>
      </trkpt>
      <trkpt lat="41.754230" lon="2.023837">
        <ele>486.7</ele>
        <time>2011-08-19T10:19:26Z</time>
      </trkpt>
      <trkpt lat="41.754177" lon="2.023920">
        <ele>487.8</ele>
        <time>2011-08-19T10:19:26Z</time>
      </trkpt>
      <trkpt lat="41.754137" lon="2.023961">
        <ele>488.5</ele>
        <time>2011-08-19T10:19:26Z</time>
      </trkpt>
      <trkpt lat="41.754063" lon="2.024016">
        <ele>489.6</ele>
        <time>2011-08-19T10:19:26Z</time>
      </trkpt>
      <trkpt lat="41.754006" lon="2.024055">
        <ele>490.2</ele>
        <time>2011-08-19T10:19:26Z</time>
      </trkpt>
      <trkpt lat="41.753960" lon="2.024102">
        <ele>490.8</ele>
        <time>2011-08-19T10:19:26Z</time>
      </trkpt>
      <trkpt lat="41.753898" lon="2.024159">
        <ele>491.8</ele>
        <time>2011-08-19T10:19:26Z</time>
      </trkpt>
      <trkpt lat="41.753830" lon="2.024221">
        <ele>492.7</ele>
        <time>2011-08-19T10:19:26Z</time>
      </trkpt>
      <trkpt lat="41.753759" lon="2.024289">
        <ele>493.5</ele>
        <time>2011-08-19T10:19:26Z</time>
      </trkpt>
      <trkpt lat="41.753697" lon="2.024336">
        <ele>494.5</ele>
        <time>2011-08-19T10:19:26Z</time>
      </trkpt>
      <trkpt lat="41.753613" lon="2.024363">
        <ele>496.0</ele>
        <time>2011-08-19T10:19:26Z</time>
      </trkpt>
      <trkpt lat="41.753532" lon="2.024326">
        <ele>497.3</ele>
        <time>2011-08-19T10:19:26Z</time>
      </trkpt>
      <trkpt lat="41.753465" lon="2.024288">
        <ele>498.7</ele>
        <time>2011-08-19T10:19:26Z</time>
      </trkpt>
      <trkpt lat="41.753334" lon="2.024244">
        <ele>502.1</ele>
        <time>2011-08-19T10:19:26Z</time>
      </trkpt>
      <trkpt lat="41.753244" lon="2.024187">
        <ele>504.6</ele>
        <time>2011-08-19T10:19:26Z</time>
      </trkpt>
      <trkpt lat="41.753161" lon="2.024160">
        <ele>506.8</ele>
        <time>2011-08-19T10:19:26Z</time>
      </trkpt>
      <trkpt lat="41.753079" lon="2.024148">
        <ele>509.1</ele>
        <time>2011-08-19T10:19:26Z</time>
      </trkpt>
      <trkpt lat="41.753016" lon="2.024144">
        <ele>510.9</ele>
        <time>2011-08-19T10:19:26Z</time>
      </trkpt>
      <trkpt lat="41.752947" lon="2.024138">
        <ele>512.8</ele>
        <time>2011-08-19T10:19:26Z</time>
      </trkpt>
      <trkpt lat="41.752894" lon="2.024244">
        <ele>514.3</ele>
        <time>2011-08-19T10:19:26Z</time>
      </trkpt>
      <trkpt lat="41.752885" lon="2.024301">
        <ele>514.6</ele>
        <time>2011-08-19T10:19:26Z</time>
      </trkpt>
      <trkpt lat="41.752871" lon="2.024432">
        <ele>514.4</ele>
        <time>2011-08-19T10:19:26Z</time>
      </trkpt>
      <trkpt lat="41.752831" lon="2.024550">
        <ele>515.1</ele>
        <time>2011-08-19T10:19:26Z</time>
      </trkpt>
      <trkpt lat="41.752761" lon="2.024634">
        <ele>517.1</ele>
        <time>2011-08-19T10:19:26Z</time>
      </trkpt>
      <trkpt lat="41.752692" lon="2.024712">
        <ele>518.8</ele>
        <time>2011-08-19T10:19:26Z</time>
      </trkpt>
      <trkpt lat="41.752620" lon="2.024810">
        <ele>520.4</ele>
        <time>2011-08-19T10:19:26Z</time>
      </trkpt>
      <trkpt lat="41.752552" lon="2.024934">
        <ele>521.9</ele>
        <time>2011-08-19T10:19:26Z</time>
      </trkpt>
      <trkpt lat="41.752511" lon="2.025017">
        <ele>522.6</ele>
        <time>2011-08-19T10:19:26Z</time>
      </trkpt>
      <trkpt lat="41.752465" lon="2.025115">
        <ele>523.3</ele>
        <time>2011-08-19T10:19:26Z</time>
      </trkpt>
      <trkpt lat="41.752418" lon="2.025219">
        <ele>523.9</ele>
        <time>2011-08-19T10:19:26Z</time>
      </trkpt>
      <trkpt lat="41.752361" lon="2.025317">
        <ele>524.7</ele>
        <time>2011-08-19T10:19:26Z</time>
      </trkpt>
      <trkpt lat="41.752312" lon="2.025395">
        <ele>525.3</ele>
        <time>2011-08-19T10:19:26Z</time>
      </trkpt>
      <trkpt lat="41.752238" lon="2.025481">
        <ele>526.1</ele>
        <time>2011-08-19T10:19:26Z</time>
      </trkpt>
      <trkpt lat="41.752163" lon="2.025528">
        <ele>527.5</ele>
        <time>2011-08-19T10:19:26Z</time>
      </trkpt>
      <trkpt lat="41.752064" lon="2.025581">
        <ele>528.9</ele>
        <time>2011-08-19T10:19:26Z</time>
      </trkpt>
      <trkpt lat="41.751983" lon="2.025610">
        <ele>529.4</ele>
        <time>2011-08-19T10:19:26Z</time>
      </trkpt>
      <trkpt lat="41.751899" lon="2.025637">
        <ele>530.1</ele>
        <time>2011-08-19T10:19:26Z</time>
      </trkpt>
      <trkpt lat="41.751816" lon="2.025615">
        <ele>531.8</ele>
        <time>2011-08-19T10:19:26Z</time>
      </trkpt>
      <trkpt lat="41.751731" lon="2.025586">
        <ele>533.2</ele>
        <time>2011-08-19T10:19:26Z</time>
      </trkpt>
      <trkpt lat="41.751656" lon="2.025582">
        <ele>533.9</ele>
        <time>2011-08-19T10:19:26Z</time>
      </trkpt>
      <trkpt lat="41.751597" lon="2.025634">
        <ele>533.7</ele>
        <time>2011-08-19T10:19:26Z</time>
      </trkpt>
      <trkpt lat="41.751531" lon="2.025699">
        <ele>533.9</ele>
        <time>2011-08-19T10:19:26Z</time>
      </trkpt>
      <trkpt lat="41.751460" lon="2.025795">
        <ele>534.2</ele>
        <time>2011-08-19T10:19:26Z</time>
      </trkpt>
      <trkpt lat="41.751348" lon="2.025861">
        <ele>536.0</ele>
        <time>2011-08-19T10:19:26Z</time>
      </trkpt>
      <trkpt lat="41.751266" lon="2.025926">
        <ele>537.3</ele>
        <time>2011-08-19T10:19:26Z</time>
      </trkpt>
      <trkpt lat="41.751204" lon="2.025960">
        <ele>538.5</ele>
        <time>2011-08-19T10:19:26Z</time>
      </trkpt>
      <trkpt lat="41.751143" lon="2.025967">
        <ele>540.0</ele>
        <time>2011-08-19T10:19:26Z</time>
      </trkpt>
      <trkpt lat="41.751062" lon="2.025981">
        <ele>541.8</ele>
        <time>2011-08-19T10:19:26Z</time>
      </trkpt>
      <trkpt lat="41.750985" lon="2.025979">
        <ele>543.8</ele>
        <time>2011-08-19T10:19:26Z</time>
      </trkpt>
      <trkpt lat="41.750903" lon="2.026002">
        <ele>545.3</ele>
        <time>2011-08-19T10:19:26Z</time>
      </trkpt>
      <trkpt lat="41.750837" lon="2.026013">
        <ele>546.6</ele>
        <time>2011-08-19T10:19:26Z</time>
      </trkpt>
      <trkpt lat="41.750770" lon="2.026004">
        <ele>548.4</ele>
        <time>2011-08-19T10:19:26Z</time>
      </trkpt>
      <trkpt lat="41.750725" lon="2.025963">
        <ele>550.8</ele>
        <time>2011-08-19T10:19:26Z</time>
      </trkpt>
      <trkpt lat="41.750689" lon="2.025901">
        <ele>553.3</ele>
        <time>2011-08-19T10:19:26Z</time>
      </trkpt>
      <trkpt lat="41.750641" lon="2.025860">
        <ele>555.6</ele>
        <time>2011-08-19T10:19:26Z</time>
      </trkpt>
      <trkpt lat="41.750578" lon="2.025769">
        <ele>559.6</ele>
        <time>2011-08-19T10:19:26Z</time>
      </trkpt>
      <trkpt lat="41.750523" lon="2.025694">
        <ele>563.7</ele>
        <time>2011-08-19T10:19:26Z</time>
      </trkpt>
      <trkpt lat="41.750463" lon="2.025628">
        <ele>567.7</ele>
        <time>2011-08-19T10:19:26Z</time>
      </trkpt>
      <trkpt lat="41.750434" lon="2.025559">
        <ele>571.0</ele>
        <time>2011-08-19T10:19:26Z</time>
      </trkpt>
      <trkpt lat="41.750386" lon="2.025487">
        <ele>574.8</ele>
        <time>2011-08-19T10:19:26Z</time>
      </trkpt>
      <trkpt lat="41.750329" lon="2.025437">
        <ele>578.0</ele>
        <time>2011-08-19T10:19:26Z</time>
      </trkpt>
      <trkpt lat="41.750302" lon="2.025396">
        <ele>580.1</ele>
        <time>2011-08-19T10:19:26Z</time>
      </trkpt>
      <trkpt lat="41.750290" lon="2.025326">
        <ele>582.8</ele>
        <time>2011-08-19T10:19:26Z</time>
      </trkpt>
      <trkpt lat="41.750256" lon="2.025244">
        <ele>586.7</ele>
        <time>2011-08-19T10:19:26Z</time>
      </trkpt>
      <trkpt lat="41.750212" lon="2.025188">
        <ele>590.0</ele>
        <time>2011-08-19T10:19:26Z</time>
      </trkpt>
      <trkpt lat="41.750162" lon="2.025157">
        <ele>592.9</ele>
        <time>2011-08-19T10:19:26Z</time>
      </trkpt>
      <trkpt lat="41.750117" lon="2.025148">
        <ele>594.9</ele>
        <time>2011-08-19T10:19:26Z</time>
      </trkpt>
      <trkpt lat="41.750039" lon="2.025162">
        <ele>597.2</ele>
        <time>2011-08-19T10:19:26Z</time>
      </trkpt>
      <trkpt lat="41.749970" lon="2.025173">
        <ele>599.2</ele>
        <time>2011-08-19T10:19:26Z</time>
      </trkpt>
      <trkpt lat="41.749918" lon="2.025196">
        <ele>600.3</ele>
        <time>2011-08-19T10:19:26Z</time>
      </trkpt>
      <trkpt lat="41.749823" lon="2.025210">
        <ele>603.7</ele>
        <time>2011-08-19T10:19:26Z</time>
      </trkpt>
      <trkpt lat="41.749757" lon="2.025236">
        <ele>605.5</ele>
        <time>2011-08-19T10:19:26Z</time>
      </trkpt>
      <trkpt lat="41.749689" lon="2.025279">
        <ele>606.8</ele>
        <time>2011-08-19T10:19:26Z</time>
      </trkpt>
      <trkpt lat="41.749620" lon="2.025302">
        <ele>608.6</ele>
        <time>2011-08-19T10:19:26Z</time>
      </trkpt>
      <trkpt lat="41.749566" lon="2.025360">
        <ele>608.8</ele>
        <time>2011-08-19T10:19:26Z</time>
      </trkpt>
      <trkpt lat="41.749480" lon="2.025374">
        <ele>612.0</ele>
        <time>2011-08-19T10:19:26Z</time>
      </trkpt>
      <trkpt lat="41.749390" lon="2.025366">
        <ele>615.1</ele>
        <time>2011-08-19T10:19:26Z</time>
      </trkpt>
      <trkpt lat="41.749322" lon="2.025436">
        <ele>612.4</ele>
        <time>2011-08-19T10:19:26Z</time>
      </trkpt>
      <trkpt lat="41.749272" lon="2.025497">
        <ele>611.8</ele>
        <time>2011-08-19T10:19:26Z</time>
      </trkpt>
      <trkpt lat="41.749216" lon="2.025549">
        <ele>611.9</ele>
        <time>2011-08-19T10:19:26Z</time>
      </trkpt>
      <trkpt lat="41.749164" lon="2.025619">
        <ele>613.1</ele>
        <time>2011-08-19T10:19:26Z</time>
      </trkpt>
      <trkpt lat="41.749129" lon="2.025693">
        <ele>615.0</ele>
        <time>2011-08-19T10:19:26Z</time>
      </trkpt>
      <trkpt lat="41.749101" lon="2.025760">
        <ele>615.7</ele>
        <time>2011-08-19T10:19:26Z</time>
      </trkpt>
      <trkpt lat="41.749060" lon="2.025865">
        <ele>617.4</ele>
        <time>2011-08-19T10:19:26Z</time>
      </trkpt>
      <trkpt lat="41.749032" lon="2.025945">
        <ele>619.4</ele>
        <time>2011-08-19T10:19:26Z</time>
      </trkpt>
      <trkpt lat="41.748985" lon="2.026018">
        <ele>621.1</ele>
        <time>2011-08-19T10:19:26Z</time>
      </trkpt>
      <trkpt lat="41.748921" lon="2.026042">
        <ele>620.5</ele>
        <time>2011-08-19T10:19:26Z</time>
      </trkpt>
      <trkpt lat="41.748840" lon="2.026046">
        <ele>618.0</ele>
        <time>2011-08-19T10:19:26Z</time>
      </trkpt>
      <trkpt lat="41.748776" lon="2.026085">
        <ele>616.4</ele>
        <time>2011-08-19T10:19:26Z</time>
      </trkpt>
      <trkpt lat="41.748720" lon="2.026162">
        <ele>617.1</ele>
        <time>2011-08-19T10:19:26Z</time>
      </trkpt>
      <trkpt lat="41.748690" lon="2.026245">
        <ele>618.0</ele>
        <time>2011-08-19T10:19:26Z</time>
      </trkpt>
      <trkpt lat="41.748679" lon="2.026362">
        <ele>620.2</ele>
        <time>2011-08-19T10:19:26Z</time>
      </trkpt>
      <trkpt lat="41.748661" lon="2.026455">
        <ele>621.6</ele>
        <time>2011-08-19T10:19:26Z</time>
      </trkpt>
      <trkpt lat="41.748645" lon="2.026550">
        <ele>623.2</ele>
        <time>2011-08-19T10:19:26Z</time>
      </trkpt>
      <trkpt lat="41.748658" lon="2.026658">
        <ele>624.5</ele>
        <time>2011-08-19T10:19:26Z</time>
      </trkpt>
      <trkpt lat="41.748633" lon="2.026772">
        <ele>624.8</ele>
        <time>2011-08-19T10:19:26Z</time>
      </trkpt>
      <trkpt lat="41.748595" lon="2.026833">
        <ele>624.8</ele>
        <time>2011-08-19T10:19:26Z</time>
      </trkpt>
      <trkpt lat="41.748548" lon="2.026878">
        <ele>624.7</ele>
        <time>2011-08-19T10:19:26Z</time>
      </trkpt>
      <trkpt lat="41.748492" lon="2.026949">
        <ele>626.4</ele>
        <time>2011-08-19T10:19:26Z</time>
      </trkpt>
      <trkpt lat="41.748409" lon="2.027001">
        <ele>627.8</ele>
        <time>2011-08-19T10:19:26Z</time>
      </trkpt>
      <trkpt lat="41.748319" lon="2.027008">
        <ele>627.4</ele>
        <time>2011-08-19T10:19:26Z</time>
      </trkpt>
      <trkpt lat="41.748238" lon="2.027025">
        <ele>627.3</ele>
        <time>2011-08-19T10:19:26Z</time>
      </trkpt>
      <trkpt lat="41.748191" lon="2.027051">
        <ele>628.0</ele>
        <time>2011-08-19T10:19:26Z</time>
      </trkpt>
      <trkpt lat="41.748132" lon="2.027100">
        <ele>629.4</ele>
        <time>2011-08-19T10:19:26Z</time>
      </trkpt>
      <trkpt lat="41.748061" lon="2.027117">
        <ele>629.3</ele>
        <time>2011-08-19T10:19:26Z</time>
      </trkpt>
      <trkpt lat="41.747969" lon="2.027169">
        <ele>630.5</ele>
        <time>2011-08-19T10:19:26Z</time>
      </trkpt>
      <trkpt lat="41.747917" lon="2.027249">
        <ele>632.0</ele>
        <time>2011-08-19T10:19:26Z</time>
      </trkpt>
      <trkpt lat="41.747892" lon="2.027370">
        <ele>633.3</ele>
        <time>2011-08-19T10:19:26Z</time>
      </trkpt>
      <trkpt lat="41.747898" lon="2.027500">
        <ele>635.3</ele>
        <time>2011-08-19T10:19:26Z</time>
      </trkpt>
      <trkpt lat="41.747868" lon="2.027586">
        <ele>635.0</ele>
        <time>2011-08-19T10:19:26Z</time>
      </trkpt>
      <trkpt lat="41.747815" lon="2.027723">
        <ele>634.2</ele>
        <time>2011-08-19T10:19:26Z</time>
      </trkpt>
      <trkpt lat="41.747784" lon="2.027806">
        <ele>633.9</ele>
        <time>2011-08-19T10:19:26Z</time>
      </trkpt>
      <trkpt lat="41.747771" lon="2.027895">
        <ele>634.7</ele>
        <time>2011-08-19T10:19:26Z</time>
      </trkpt>
      <trkpt lat="41.747758" lon="2.028003">
        <ele>635.7</ele>
        <time>2011-08-19T10:19:26Z</time>
      </trkpt>
      <trkpt lat="41.747735" lon="2.028117">
        <ele>635.8</ele>
        <time>2011-08-19T10:19:26Z</time>
      </trkpt>
      <trkpt lat="41.747709" lon="2.028210">
        <ele>635.8</ele>
        <time>2011-08-19T10:19:26Z</time>
      </trkpt>
      <trkpt lat="41.747684" lon="2.028289">
        <ele>635.9</ele>
        <time>2011-08-19T10:19:26Z</time>
      </trkpt>
      <trkpt lat="41.747654" lon="2.028343">
        <ele>635.6</ele>
        <time>2011-08-19T10:19:26Z</time>
      </trkpt>
      <trkpt lat="41.747595" lon="2.028386">
        <ele>634.7</ele>
        <time>2011-08-19T10:19:26Z</time>
      </trkpt>
      <trkpt lat="41.747485" lon="2.028371">
        <ele>632.7</ele>
        <time>2011-08-19T10:19:26Z</time>
      </trkpt>
      <trkpt lat="41.747397" lon="2.028354">
        <ele>633.0</ele>
        <time>2011-08-19T10:19:26Z</time>
      </trkpt>
      <trkpt lat="41.747302" lon="2.028317">
        <ele>632.6</ele>
        <time>2011-08-19T10:19:26Z</time>
      </trkpt>
      <trkpt lat="41.747209" lon="2.028277">
        <ele>632.7</ele>
        <time>2011-08-19T10:19:26Z</time>
      </trkpt>
      <trkpt lat="41.747106" lon="2.028231">
        <ele>633.5</ele>
        <time>2011-08-19T10:19:26Z</time>
      </trkpt>
      <trkpt lat="41.747038" lon="2.028213">
        <ele>634.6</ele>
        <time>2011-08-19T10:19:26Z</time>
      </trkpt>
      <trkpt lat="41.746978" lon="2.028208">
        <ele>635.8</ele>
        <time>2011-08-19T10:19:26Z</time>
      </trkpt>
      <trkpt lat="41.746881" lon="2.028222">
        <ele>638.5</ele>
        <time>2011-08-19T10:19:26Z</time>
      </trkpt>
      <trkpt lat="41.746781" lon="2.028224">
        <ele>640.7</ele>
        <time>2011-08-19T10:19:26Z</time>
      </trkpt>
      <trkpt lat="41.746703" lon="2.028231">
        <ele>641.6</ele>
        <time>2011-08-19T10:19:26Z</time>
      </trkpt>
      <trkpt lat="41.746661" lon="2.028377">
        <ele>642.4</ele>
        <time>2011-08-19T10:19:26Z</time>
      </trkpt>
      <trkpt lat="41.746617" lon="2.028505">
        <ele>642.9</ele>
        <time>2011-08-19T10:19:26Z</time>
      </trkpt>
      <trkpt lat="41.746575" lon="2.028598">
        <ele>642.3</ele>
        <time>2011-08-19T10:19:26Z</time>
      </trkpt>
      <trkpt lat="41.746536" lon="2.028738">
        <ele>641.9</ele>
        <time>2011-08-19T10:19:26Z</time>
      </trkpt>
      <trkpt lat="41.746542" lon="2.028871">
        <ele>641.2</ele>
        <time>2011-08-19T10:19:26Z</time>
      </trkpt>
      <trkpt lat="41.746552" lon="2.028981">
        <ele>640.9</ele>
        <time>2011-08-19T10:19:26Z</time>
      </trkpt>
      <trkpt lat="41.746582" lon="2.029076">
        <ele>642.2</ele>
        <time>2011-08-19T10:19:26Z</time>
      </trkpt>
      <trkpt lat="41.746602" lon="2.029203">
        <ele>641.9</ele>
        <time>2011-08-19T10:19:26Z</time>
      </trkpt>
      <trkpt lat="41.746624" lon="2.029320">
        <ele>641.5</ele>
        <time>2011-08-19T10:19:26Z</time>
      </trkpt>
      <trkpt lat="41.746671" lon="2.029465">
        <ele>642.1</ele>
        <time>2011-08-19T10:19:26Z</time>
      </trkpt>
      <trkpt lat="41.746674" lon="2.029607">
        <ele>641.3</ele>
        <time>2011-08-19T10:19:26Z</time>
      </trkpt>
      <trkpt lat="41.746661" lon="2.029731">
        <ele>639.7</ele>
        <time>2011-08-19T10:19:26Z</time>
      </trkpt>
      <trkpt lat="41.746641" lon="2.029878">
        <ele>638.5</ele>
        <time>2011-08-19T10:19:26Z</time>
      </trkpt>
      <trkpt lat="41.746611" lon="2.030002">
        <ele>638.5</ele>
        <time>2011-08-19T10:19:26Z</time>
      </trkpt>
      <trkpt lat="41.746524" lon="2.030057">
        <ele>636.5</ele>
        <time>2011-08-19T10:19:26Z</time>
      </trkpt>
      <trkpt lat="41.746424" lon="2.030068">
        <ele>634.2</ele>
        <time>2011-08-19T10:19:26Z</time>
      </trkpt>
      <trkpt lat="41.746341" lon="2.030107">
        <ele>633.7</ele>
        <time>2011-08-19T10:19:26Z</time>
      </trkpt>
      <trkpt lat="41.746294" lon="2.030184">
        <ele>635.2</ele>
        <time>2011-08-19T10:19:26Z</time>
      </trkpt>
      <trkpt lat="41.746276" lon="2.030276">
        <ele>636.8</ele>
        <time>2011-08-19T10:19:26Z</time>
      </trkpt>
      <trkpt lat="41.746246" lon="2.030356">
        <ele>638.0</ele>
        <time>2011-08-19T10:19:26Z</time>
      </trkpt>
      <trkpt lat="41.746199" lon="2.030414">
        <ele>638.9</ele>
        <time>2011-08-19T10:19:26Z</time>
      </trkpt>
      <trkpt lat="41.746116" lon="2.030482">
        <ele>639.3</ele>
        <time>2011-08-19T10:19:26Z</time>
      </trkpt>
      <trkpt lat="41.746031" lon="2.030533">
        <ele>640.0</ele>
        <time>2011-08-19T10:19:26Z</time>
      </trkpt>
      <trkpt lat="41.745946" lon="2.030576">
        <ele>640.5</ele>
        <time>2011-08-19T10:19:26Z</time>
      </trkpt>
      <trkpt lat="41.745849" lon="2.030606">
        <ele>640.8</ele>
        <time>2011-08-19T10:19:26Z</time>
      </trkpt>
      <trkpt lat="41.745778" lon="2.030620">
        <ele>640.9</ele>
        <time>2011-08-19T10:19:26Z</time>
      </trkpt>
      <trkpt lat="41.745699" lon="2.030599">
        <ele>640.1</ele>
        <time>2011-08-19T10:19:26Z</time>
      </trkpt>
      <trkpt lat="41.745619" lon="2.030587">
        <ele>640.1</ele>
        <time>2011-08-19T10:19:26Z</time>
      </trkpt>
      <trkpt lat="41.745533" lon="2.030611">
        <ele>641.5</ele>
        <time>2011-08-19T10:19:26Z</time>
      </trkpt>
      <trkpt lat="41.745513" lon="2.030687">
        <ele>643.4</ele>
        <time>2011-08-19T10:19:26Z</time>
      </trkpt>
      <trkpt lat="41.745547" lon="2.030759">
        <ele>644.7</ele>
        <time>2011-08-19T10:19:26Z</time>
      </trkpt>
      <trkpt lat="41.745611" lon="2.030790">
        <ele>645.0</ele>
        <time>2011-08-19T10:19:26Z</time>
      </trkpt>
      <trkpt lat="41.745689" lon="2.030808">
        <ele>645.2</ele>
        <time>2011-08-19T10:19:26Z</time>
      </trkpt>
      <trkpt lat="41.745782" lon="2.030813">
        <ele>645.5</ele>
        <time>2011-08-19T10:19:26Z</time>
      </trkpt>
      <trkpt lat="41.745841" lon="2.030818">
        <ele>645.7</ele>
        <time>2011-08-19T10:19:26Z</time>
      </trkpt>
      <trkpt lat="41.745932" lon="2.030858">
        <ele>646.7</ele>
        <time>2011-08-19T10:19:26Z</time>
      </trkpt>
      <trkpt lat="41.745989" lon="2.030892">
        <ele>647.3</ele>
        <time>2011-08-19T10:19:26Z</time>
      </trkpt>
      <trkpt lat="41.746061" lon="2.030952">
        <ele>648.0</ele>
        <time>2011-08-19T10:19:26Z</time>
      </trkpt>
      <trkpt lat="41.746076" lon="2.031046">
        <ele>649.3</ele>
        <time>2011-08-19T10:19:26Z</time>
      </trkpt>
      <trkpt lat="41.745972" lon="2.031076">
        <ele>650.4</ele>
        <time>2011-08-19T10:19:26Z</time>
      </trkpt>
      <trkpt lat="41.745861" lon="2.031138">
        <ele>651.8</ele>
        <time>2011-08-19T10:19:26Z</time>
      </trkpt>
      <trkpt lat="41.745773" lon="2.031162">
        <ele>652.4</ele>
        <time>2011-08-19T10:19:26Z</time>
      </trkpt>
      <trkpt lat="41.745669" lon="2.031202">
        <ele>653.4</ele>
        <time>2011-08-19T10:19:26Z</time>
      </trkpt>
      <trkpt lat="41.745586" lon="2.031244">
        <ele>654.5</ele>
        <time>2011-08-19T10:19:26Z</time>
      </trkpt>
      <trkpt lat="41.745456" lon="2.031306">
        <ele>656.1</ele>
        <time>2011-08-19T10:19:26Z</time>
      </trkpt>
      <trkpt lat="41.745383" lon="2.031367">
        <ele>657.2</ele>
        <time>2011-08-19T10:19:26Z</time>
      </trkpt>
      <trkpt lat="41.745317" lon="2.031422">
        <ele>658.2</ele>
        <time>2011-08-19T10:19:26Z</time>
      </trkpt>
      <trkpt lat="41.745227" lon="2.031462">
        <ele>659.1</ele>
        <time>2011-08-19T10:19:26Z</time>
      </trkpt>
      <trkpt lat="41.745166" lon="2.031532">
        <ele>659.9</ele>
        <time>2011-08-19T10:19:26Z</time>
      </trkpt>
      <trkpt lat="41.745110" lon="2.031619">
        <ele>660.7</ele>
        <time>2011-08-19T10:19:26Z</time>
      </trkpt>
      <trkpt lat="41.745042" lon="2.031699">
        <ele>661.5</ele>
        <time>2011-08-19T10:19:26Z</time>
      </trkpt>
      <trkpt lat="41.744976" lon="2.031780">
        <ele>662.4</ele>
        <time>2011-08-19T10:19:26Z</time>
      </trkpt>
      <trkpt lat="41.744910" lon="2.031838">
        <ele>663.0</ele>
        <time>2011-08-19T10:19:26Z</time>
      </trkpt>
      <trkpt lat="41.744825" lon="2.031896">
        <ele>663.8</ele>
        <time>2011-08-19T10:19:26Z</time>
      </trkpt>
      <trkpt lat="41.744752" lon="2.031960">
        <ele>664.7</ele>
        <time>2011-08-19T10:19:26Z</time>
      </trkpt>
      <trkpt lat="41.744702" lon="2.032018">
        <ele>665.6</ele>
        <time>2011-08-19T10:19:26Z</time>
      </trkpt>
      <trkpt lat="41.744692" lon="2.032145">
        <ele>667.2</ele>
        <time>2011-08-19T10:19:26Z</time>
      </trkpt>
      <trkpt lat="41.744666" lon="2.032241">
        <ele>668.4</ele>
        <time>2011-08-19T10:19:26Z</time>
      </trkpt>
      <trkpt lat="41.744612" lon="2.032346">
        <ele>669.6</ele>
        <time>2011-08-19T10:19:26Z</time>
      </trkpt>
      <trkpt lat="41.744556" lon="2.032417">
        <ele>670.8</ele>
        <time>2011-08-19T10:19:26Z</time>
      </trkpt>
      <trkpt lat="41.744497" lon="2.032471">
        <ele>671.8</ele>
        <time>2011-08-19T10:19:26Z</time>
      </trkpt>
      <trkpt lat="41.744436" lon="2.032536">
        <ele>672.8</ele>
        <time>2011-08-19T10:19:26Z</time>
      </trkpt>
      <trkpt lat="41.744370" lon="2.032603">
        <ele>673.6</ele>
        <time>2011-08-19T10:19:26Z</time>
      </trkpt>
      <trkpt lat="41.744314" lon="2.032677">
        <ele>674.2</ele>
        <time>2011-08-19T10:19:26Z</time>
      </trkpt>
      <trkpt lat="41.744262" lon="2.032764">
        <ele>675.0</ele>
        <time>2011-08-19T10:19:26Z</time>
      </trkpt>
      <trkpt lat="41.744220" lon="2.032853">
        <ele>676.1</ele>
        <time>2011-08-19T10:19:26Z</time>
      </trkpt>
      <trkpt lat="41.744160" lon="2.032977">
        <ele>677.4</ele>
        <time>2011-08-19T10:19:26Z</time>
      </trkpt>
      <trkpt lat="41.744094" lon="2.033093">
        <ele>678.2</ele>
        <time>2011-08-19T10:19:26Z</time>
      </trkpt>
      <trkpt lat="41.744014" lon="2.033217">
        <ele>679.6</ele>
        <time>2011-08-19T10:19:26Z</time>
      </trkpt>
      <trkpt lat="41.743954" lon="2.033336">
        <ele>681.3</ele>
        <time>2011-08-19T10:19:26Z</time>
      </trkpt>
      <trkpt lat="41.743881" lon="2.033432">
        <ele>682.6</ele>
        <time>2011-08-19T10:19:26Z</time>
      </trkpt>
      <trkpt lat="41.743825" lon="2.033534">
        <ele>683.6</ele>
        <time>2011-08-19T10:19:26Z</time>
      </trkpt>
      <trkpt lat="41.743754" lon="2.033618">
        <ele>683.8</ele>
        <time>2011-08-19T10:19:26Z</time>
      </trkpt>
      <trkpt lat="41.743701" lon="2.033771">
        <ele>683.9</ele>
        <time>2011-08-19T10:19:26Z</time>
      </trkpt>
      <trkpt lat="41.743688" lon="2.033910">
        <ele>683.2</ele>
        <time>2011-08-19T10:19:26Z</time>
      </trkpt>
      <trkpt lat="41.743708" lon="2.034024">
        <ele>682.6</ele>
        <time>2011-08-19T10:19:26Z</time>
      </trkpt>
      <trkpt lat="41.743747" lon="2.034128">
        <ele>683.1</ele>
        <time>2011-08-19T10:19:26Z</time>
      </trkpt>
      <trkpt lat="41.743797" lon="2.034241">
        <ele>684.0</ele>
        <time>2011-08-19T10:19:26Z</time>
      </trkpt>
      <trkpt lat="41.743850" lon="2.034304">
        <ele>684.1</ele>
        <time>2011-08-19T10:19:26Z</time>
      </trkpt>
      <trkpt lat="41.743919" lon="2.034354">
        <ele>685.2</ele>
        <time>2011-08-19T10:19:26Z</time>
      </trkpt>
      <trkpt lat="41.744030" lon="2.034476">
        <ele>687.7</ele>
        <time>2011-08-19T10:19:26Z</time>
      </trkpt>
      <trkpt lat="41.744118" lon="2.034528">
        <ele>690.2</ele>
        <time>2011-08-19T10:19:26Z</time>
      </trkpt>
      <trkpt lat="41.744192" lon="2.034616">
        <ele>691.3</ele>
        <time>2011-08-19T10:19:26Z</time>
      </trkpt>
      <trkpt lat="41.744259" lon="2.034688">
        <ele>692.3</ele>
        <time>2011-08-19T10:19:26Z</time>
      </trkpt>
      <trkpt lat="41.744353" lon="2.034791">
        <ele>693.5</ele>
        <time>2011-08-19T10:19:26Z</time>
      </trkpt>
      <trkpt lat="41.744354" lon="2.034924">
        <ele>692.1</ele>
        <time>2011-08-19T10:19:26Z</time>
      </trkpt>
      <trkpt lat="41.744400" lon="2.035025">
        <ele>692.3</ele>
        <time>2011-08-19T10:19:26Z</time>
      </trkpt>
      <trkpt lat="41.744448" lon="2.035132">
        <ele>692.0</ele>
        <time>2011-08-19T10:19:26Z</time>
      </trkpt>
      <trkpt lat="41.744480" lon="2.035220">
        <ele>691.1</ele>
        <time>2011-08-19T10:19:26Z</time>
      </trkpt>
      <trkpt lat="41.744495" lon="2.035328">
        <ele>690.3</ele>
        <time>2011-08-19T10:19:26Z</time>
      </trkpt>
      <trkpt lat="41.744453" lon="2.035446">
        <ele>690.1</ele>
        <time>2011-08-19T10:19:26Z</time>
      </trkpt>
      <trkpt lat="41.744407" lon="2.035539">
        <ele>690.3</ele>
        <time>2011-08-19T10:19:26Z</time>
      </trkpt>
      <trkpt lat="41.744369" lon="2.035609">
        <ele>690.8</ele>
        <time>2011-08-19T10:19:26Z</time>
      </trkpt>
      <trkpt lat="41.744320" lon="2.035698">
        <ele>691.3</ele>
        <time>2011-08-19T10:19:26Z</time>
      </trkpt>
      <trkpt lat="41.744264" lon="2.035775">
        <ele>691.7</ele>
        <time>2011-08-19T10:19:26Z</time>
      </trkpt>
      <trkpt lat="41.744200" lon="2.035852">
        <ele>692.3</ele>
        <time>2011-08-19T10:19:26Z</time>
      </trkpt>
      <trkpt lat="41.744122" lon="2.035920">
        <ele>693.1</ele>
        <time>2011-08-19T10:19:26Z</time>
      </trkpt>
      <trkpt lat="41.744059" lon="2.035975">
        <ele>693.7</ele>
        <time>2011-08-19T10:19:26Z</time>
      </trkpt>
      <trkpt lat="41.743976" lon="2.036027">
        <ele>694.3</ele>
        <time>2011-08-19T10:19:26Z</time>
      </trkpt>
      <trkpt lat="41.743891" lon="2.036079">
        <ele>694.8</ele>
        <time>2011-08-19T10:19:26Z</time>
      </trkpt>
      <trkpt lat="41.743830" lon="2.036147">
        <ele>695.6</ele>
        <time>2011-08-19T10:19:26Z</time>
      </trkpt>
      <trkpt lat="41.743783" lon="2.036239">
        <ele>696.5</ele>
        <time>2011-08-19T10:19:26Z</time>
      </trkpt>
      <trkpt lat="41.743775" lon="2.036337">
        <ele>697.6</ele>
        <time>2011-08-19T10:19:26Z</time>
      </trkpt>
      <trkpt lat="41.743773" lon="2.036461">
        <ele>698.4</ele>
        <time>2011-08-19T10:19:26Z</time>
      </trkpt>
      <trkpt lat="41.743760" lon="2.036604">
        <ele>699.1</ele>
        <time>2011-08-19T10:19:26Z</time>
      </trkpt>
      <trkpt lat="41.743745" lon="2.036750">
        <ele>699.8</ele>
        <time>2011-08-19T10:19:26Z</time>
      </trkpt>
      <trkpt lat="41.743732" lon="2.036858">
        <ele>699.9</ele>
        <time>2011-08-19T10:19:26Z</time>
      </trkpt>
      <trkpt lat="41.743737" lon="2.036963">
        <ele>700.1</ele>
        <time>2011-08-19T10:19:26Z</time>
      </trkpt>
      <trkpt lat="41.743721" lon="2.037080">
        <ele>700.2</ele>
        <time>2011-08-19T10:19:26Z</time>
      </trkpt>
      <trkpt lat="41.743694" lon="2.037163">
        <ele>700.0</ele>
        <time>2011-08-19T10:19:26Z</time>
      </trkpt>
      <trkpt lat="41.743666" lon="2.037230">
        <ele>699.8</ele>
        <time>2011-08-19T10:19:26Z</time>
      </trkpt>
      <trkpt lat="41.743621" lon="2.037272">
        <ele>699.5</ele>
        <time>2011-08-19T10:19:26Z</time>
      </trkpt>
      <trkpt lat="41.743576" lon="2.037323">
        <ele>699.1</ele>
        <time>2011-08-19T10:19:26Z</time>
      </trkpt>
      <trkpt lat="41.743550" lon="2.037352">
        <ele>698.8</ele>
        <time>2011-08-19T10:19:26Z</time>
      </trkpt>
      <trkpt lat="41.743539" lon="2.037432">
        <ele>698.4</ele>
        <time>2011-08-19T10:19:26Z</time>
      </trkpt>
      <trkpt lat="41.743513" lon="2.037457">
        <ele>697.3</ele>
        <time>2011-08-19T10:19:26Z</time>
      </trkpt>
      <trkpt lat="41.743490" lon="2.037480">
        <ele>696.2</ele>
        <time>2011-08-19T10:19:26Z</time>
      </trkpt>
      <trkpt lat="41.743481" lon="2.037531">
        <ele>695.1</ele>
        <time>2011-08-19T10:19:26Z</time>
      </trkpt>
      <trkpt lat="41.743534" lon="2.037650">
        <ele>694.1</ele>
        <time>2011-08-19T10:19:26Z</time>
      </trkpt>
      <trkpt lat="41.743496" lon="2.037692">
        <ele>692.8</ele>
        <time>2011-08-19T10:19:26Z</time>
      </trkpt>
      <trkpt lat="41.743428" lon="2.037719">
        <ele>691.5</ele>
        <time>2011-08-19T10:19:26Z</time>
      </trkpt>
      <trkpt lat="41.743373" lon="2.037761">
        <ele>690.7</ele>
        <time>2011-08-19T10:19:26Z</time>
      </trkpt>
      <trkpt lat="41.743312" lon="2.037758">
        <ele>690.2</ele>
        <time>2011-08-19T10:19:26Z</time>
      </trkpt>
      <trkpt lat="41.743248" lon="2.037775">
        <ele>689.6</ele>
        <time>2011-08-19T10:19:26Z</time>
      </trkpt>
      <trkpt lat="41.743191" lon="2.037817">
        <ele>689.2</ele>
        <time>2011-08-19T10:19:26Z</time>
      </trkpt>
      <trkpt lat="41.743168" lon="2.037884">
        <ele>686.9</ele>
        <time>2011-08-19T10:19:26Z</time>
      </trkpt>
      <trkpt lat="41.743150" lon="2.037986">
        <ele>683.8</ele>
        <time>2011-08-19T10:19:26Z</time>
      </trkpt>
      <trkpt lat="41.743093" lon="2.038019">
        <ele>683.4</ele>
        <time>2011-08-19T10:19:26Z</time>
      </trkpt>
      <trkpt lat="41.743027" lon="2.038057">
        <ele>683.3</ele>
        <time>2011-08-19T10:19:26Z</time>
      </trkpt>
      <trkpt lat="41.742973" lon="2.038128">
        <ele>682.4</ele>
        <time>2011-08-19T10:19:26Z</time>
      </trkpt>
      <trkpt lat="41.742931" lon="2.038192">
        <ele>681.5</ele>
        <time>2011-08-19T10:19:26Z</time>
      </trkpt>
      <trkpt lat="41.742886" lon="2.038272">
        <ele>679.1</ele>
        <time>2011-08-19T10:19:26Z</time>
      </trkpt>
      <trkpt lat="41.742841" lon="2.038292">
        <ele>678.8</ele>
        <time>2011-08-19T10:19:26Z</time>
      </trkpt>
      <trkpt lat="41.742755" lon="2.038239">
        <ele>681.7</ele>
        <time>2011-08-19T10:19:26Z</time>
      </trkpt>
      <trkpt lat="41.742686" lon="2.038218">
        <ele>682.1</ele>
        <time>2011-08-19T10:19:26Z</time>
      </trkpt>
      <trkpt lat="41.742603" lon="2.038241">
        <ele>680.5</ele>
        <time>2011-08-19T10:19:26Z</time>
      </trkpt>
      <trkpt lat="41.742542" lon="2.038264">
        <ele>679.1</ele>
        <time>2011-08-19T10:19:26Z</time>
      </trkpt>
      <trkpt lat="41.742466" lon="2.038291">
        <ele>677.9</ele>
        <time>2011-08-19T10:19:26Z</time>
      </trkpt>
      <trkpt lat="41.742407" lon="2.038349">
        <ele>676.6</ele>
        <time>2011-08-19T10:19:26Z</time>
      </trkpt>
      <trkpt lat="41.742356" lon="2.038410">
        <ele>675.2</ele>
        <time>2011-08-19T10:19:26Z</time>
      </trkpt>
      <trkpt lat="41.742292" lon="2.038531">
        <ele>672.0</ele>
        <time>2011-08-19T10:19:26Z</time>
      </trkpt>
      <trkpt lat="41.742267" lon="2.038579">
        <ele>670.9</ele>
        <time>2011-08-19T10:19:26Z</time>
      </trkpt>
      <trkpt lat="41.742220" lon="2.038656">
        <ele>669.4</ele>
        <time>2011-08-19T10:19:26Z</time>
      </trkpt>
      <trkpt lat="41.742168" lon="2.038755">
        <ele>667.5</ele>
        <time>2011-08-19T10:19:26Z</time>
      </trkpt>
      <trkpt lat="41.742110" lon="2.038842">
        <ele>666.2</ele>
        <time>2011-08-19T10:19:26Z</time>
      </trkpt>
      <trkpt lat="41.742039" lon="2.038909">
        <ele>665.8</ele>
        <time>2011-08-19T10:19:26Z</time>
      </trkpt>
      <trkpt lat="41.741983" lon="2.038970">
        <ele>665.3</ele>
        <time>2011-08-19T10:19:26Z</time>
      </trkpt>
      <trkpt lat="41.741943" lon="2.039034">
        <ele>664.2</ele>
        <time>2011-08-19T10:19:26Z</time>
      </trkpt>
      <trkpt lat="41.741899" lon="2.039130">
        <ele>661.9</ele>
        <time>2011-08-19T10:19:26Z</time>
      </trkpt>
      <trkpt lat="41.741847" lon="2.039226">
        <ele>660.0</ele>
        <time>2011-08-19T10:19:26Z</time>
      </trkpt>
      <trkpt lat="41.741801" lon="2.039341">
        <ele>657.4</ele>
        <time>2011-08-19T10:19:26Z</time>
      </trkpt>
      <trkpt lat="41.741761" lon="2.039411">
        <ele>656.2</ele>
        <time>2011-08-19T10:19:26Z</time>
      </trkpt>
      <trkpt lat="41.741711" lon="2.039472">
        <ele>655.5</ele>
        <time>2011-08-19T10:19:26Z</time>
      </trkpt>
      <trkpt lat="41.741658" lon="2.039552">
        <ele>654.3</ele>
        <time>2011-08-19T10:19:26Z</time>
      </trkpt>
      <trkpt lat="41.741613" lon="2.039629">
        <ele>653.2</ele>
        <time>2011-08-19T10:19:26Z</time>
      </trkpt>
      <trkpt lat="41.741568" lon="2.039680">
        <ele>652.8</ele>
        <time>2011-08-19T10:19:26Z</time>
      </trkpt>
      <trkpt lat="41.741502" lon="2.039742">
        <ele>652.6</ele>
        <time>2011-08-19T10:19:26Z</time>
      </trkpt>
      <trkpt lat="41.741422" lon="2.039816">
        <ele>652.1</ele>
        <time>2011-08-19T10:19:26Z</time>
      </trkpt>
      <trkpt lat="41.741354" lon="2.039893">
        <ele>650.6</ele>
        <time>2011-08-19T10:19:26Z</time>
      </trkpt>
      <trkpt lat="41.741236" lon="2.039961">
        <ele>650.1</ele>
        <time>2011-08-19T10:19:26Z</time>
      </trkpt>
      <trkpt lat="41.741127" lon="2.040029">
        <ele>650.0</ele>
        <time>2011-08-19T10:19:26Z</time>
      </trkpt>
      <trkpt lat="41.741024" lon="2.040167">
        <ele>649.4</ele>
        <time>2011-08-19T10:19:26Z</time>
      </trkpt>
      <trkpt lat="41.741008" lon="2.040227">
        <ele>648.1</ele>
        <time>2011-08-19T10:19:26Z</time>
      </trkpt>
      <trkpt lat="41.740992" lon="2.040339">
        <ele>645.4</ele>
        <time>2011-08-19T10:19:26Z</time>
      </trkpt>
      <trkpt lat="41.740945" lon="2.040409">
        <ele>645.5</ele>
        <time>2011-08-19T10:19:26Z</time>
      </trkpt>
      <trkpt lat="41.740903" lon="2.040457">
        <ele>646.1</ele>
        <time>2011-08-19T10:19:26Z</time>
      </trkpt>
      <trkpt lat="41.740846" lon="2.040490">
        <ele>646.5</ele>
        <time>2011-08-19T10:19:26Z</time>
      </trkpt>
      <trkpt lat="41.740780" lon="2.040538">
        <ele>645.9</ele>
        <time>2011-08-19T10:19:26Z</time>
      </trkpt>
      <trkpt lat="41.740731" lon="2.040593">
        <ele>644.9</ele>
        <time>2011-08-19T10:19:26Z</time>
      </trkpt>
      <trkpt lat="41.740700" lon="2.040673">
        <ele>643.1</ele>
        <time>2011-08-19T10:19:26Z</time>
      </trkpt>
      <trkpt lat="41.740668" lon="2.040756">
        <ele>641.3</ele>
        <time>2011-08-19T10:19:26Z</time>
      </trkpt>
      <trkpt lat="41.740616" lon="2.040801">
        <ele>641.3</ele>
        <time>2011-08-19T10:19:26Z</time>
      </trkpt>
      <trkpt lat="41.740583" lon="2.040858">
        <ele>639.7</ele>
        <time>2011-08-19T10:19:26Z</time>
      </trkpt>
      <trkpt lat="41.740558" lon="2.040932">
        <ele>638.2</ele>
        <time>2011-08-19T10:19:26Z</time>
      </trkpt>
      <trkpt lat="41.740530" lon="2.041030">
        <ele>636.6</ele>
        <time>2011-08-19T10:19:26Z</time>
      </trkpt>
      <trkpt lat="41.740512" lon="2.041129">
        <ele>635.3</ele>
        <time>2011-08-19T10:19:26Z</time>
      </trkpt>
      <trkpt lat="41.740480" lon="2.041240">
        <ele>633.6</ele>
        <time>2011-08-19T10:19:26Z</time>
      </trkpt>
      <trkpt lat="41.740454" lon="2.041307">
        <ele>632.9</ele>
        <time>2011-08-19T10:19:26Z</time>
      </trkpt>
      <trkpt lat="41.740405" lon="2.041368">
        <ele>632.6</ele>
        <time>2011-08-19T10:19:26Z</time>
      </trkpt>
      <trkpt lat="41.740367" lon="2.041435">
        <ele>632.8</ele>
        <time>2011-08-19T10:19:26Z</time>
      </trkpt>
      <trkpt lat="41.740318" lon="2.041530">
        <ele>632.1</ele>
        <time>2011-08-19T10:19:26Z</time>
      </trkpt>
      <trkpt lat="41.740261" lon="2.041600">
        <ele>631.7</ele>
        <time>2011-08-19T10:19:26Z</time>
      </trkpt>
      <trkpt lat="41.740202" lon="2.041636">
        <ele>632.2</ele>
        <time>2011-08-19T10:19:26Z</time>
      </trkpt>
      <trkpt lat="41.740123" lon="2.041689">
        <ele>633.4</ele>
        <time>2011-08-19T10:19:26Z</time>
      </trkpt>
      <trkpt lat="41.740033" lon="2.041713">
        <ele>634.1</ele>
        <time>2011-08-19T10:19:26Z</time>
      </trkpt>
      <trkpt lat="41.739916" lon="2.041777">
        <ele>634.2</ele>
        <time>2011-08-19T10:19:26Z</time>
      </trkpt>
      <trkpt lat="41.739838" lon="2.041837">
        <ele>635.0</ele>
        <time>2011-08-19T10:19:26Z</time>
      </trkpt>
      <trkpt lat="41.739737" lon="2.041915">
        <ele>634.4</ele>
        <time>2011-08-19T10:19:26Z</time>
      </trkpt>
      <trkpt lat="41.739661" lon="2.042017">
        <ele>634.3</ele>
        <time>2011-08-19T10:19:26Z</time>
      </trkpt>
      <trkpt lat="41.739608" lon="2.042102">
        <ele>634.8</ele>
        <time>2011-08-19T10:19:26Z</time>
      </trkpt>
      <trkpt lat="41.739569" lon="2.042226">
        <ele>635.3</ele>
        <time>2011-08-19T10:19:26Z</time>
      </trkpt>
      <trkpt lat="41.739504" lon="2.042378">
        <ele>635.0</ele>
        <time>2011-08-19T10:19:26Z</time>
      </trkpt>
      <trkpt lat="41.739450" lon="2.042541">
        <ele>635.4</ele>
        <time>2011-08-19T10:19:26Z</time>
      </trkpt>
      <trkpt lat="41.739432" lon="2.042685">
        <ele>634.8</ele>
        <time>2011-08-19T10:19:26Z</time>
      </trkpt>
      <trkpt lat="41.739418" lon="2.042808">
        <ele>634.3</ele>
        <time>2011-08-19T10:19:26Z</time>
      </trkpt>
      <trkpt lat="41.739407" lon="2.042916">
        <ele>633.9</ele>
        <time>2011-08-19T10:19:26Z</time>
      </trkpt>
      <trkpt lat="41.739366" lon="2.043081">
        <ele>632.6</ele>
        <time>2011-08-19T10:19:26Z</time>
      </trkpt>
      <trkpt lat="41.739273" lon="2.043169">
        <ele>635.1</ele>
        <time>2011-08-19T10:19:26Z</time>
      </trkpt>
      <trkpt lat="41.739198" lon="2.043222">
        <ele>635.9</ele>
        <time>2011-08-19T10:19:26Z</time>
      </trkpt>
      <trkpt lat="41.739105" lon="2.043292">
        <ele>636.8</ele>
        <time>2011-08-19T10:19:26Z</time>
      </trkpt>
      <trkpt lat="41.739017" lon="2.043360">
        <ele>637.1</ele>
        <time>2011-08-19T10:19:26Z</time>
      </trkpt>
      <trkpt lat="41.738942" lon="2.043433">
        <ele>636.8</ele>
        <time>2011-08-19T10:19:26Z</time>
      </trkpt>
      <trkpt lat="41.738864" lon="2.043504">
        <ele>637.3</ele>
        <time>2011-08-19T10:19:26Z</time>
      </trkpt>
      <trkpt lat="41.738803" lon="2.043566">
        <ele>638.1</ele>
        <time>2011-08-19T10:19:26Z</time>
      </trkpt>
      <trkpt lat="41.738762" lon="2.043657">
        <ele>638.4</ele>
        <time>2011-08-19T10:19:26Z</time>
      </trkpt>
      <trkpt lat="41.738722" lon="2.043729">
        <ele>638.1</ele>
        <time>2011-08-19T10:19:26Z</time>
      </trkpt>
      <trkpt lat="41.738664" lon="2.043863">
        <ele>637.5</ele>
        <time>2011-08-19T10:19:26Z</time>
      </trkpt>
      <trkpt lat="41.738619" lon="2.044008">
        <ele>637.4</ele>
        <time>2011-08-19T10:19:26Z</time>
      </trkpt>
      <trkpt lat="41.738562" lon="2.044104">
        <ele>638.0</ele>
        <time>2011-08-19T10:19:26Z</time>
      </trkpt>
      <trkpt lat="41.738482" lon="2.044202">
        <ele>639.4</ele>
        <time>2011-08-19T10:19:26Z</time>
      </trkpt>
      <trkpt lat="41.738417" lon="2.044272">
        <ele>639.9</ele>
        <time>2011-08-19T10:19:26Z</time>
      </trkpt>
      <trkpt lat="41.738346" lon="2.044340">
        <ele>641.2</ele>
        <time>2011-08-19T10:19:26Z</time>
      </trkpt>
      <trkpt lat="41.738261" lon="2.044408">
        <ele>643.3</ele>
        <time>2011-08-19T10:19:26Z</time>
      </trkpt>
      <trkpt lat="41.738167" lon="2.044440">
        <ele>644.7</ele>
        <time>2011-08-19T10:19:26Z</time>
      </trkpt>
      <trkpt lat="41.738055" lon="2.044457">
        <ele>645.3</ele>
        <time>2011-08-19T10:19:26Z</time>
      </trkpt>
      <trkpt lat="41.737948" lon="2.044487">
        <ele>646.4</ele>
        <time>2011-08-19T10:19:26Z</time>
      </trkpt>
      <trkpt lat="41.737830" lon="2.044553">
        <ele>646.6</ele>
        <time>2011-08-19T10:19:26Z</time>
      </trkpt>
      <trkpt lat="41.737715" lon="2.044660">
        <ele>648.1</ele>
        <time>2011-08-19T10:19:26Z</time>
      </trkpt>
      <trkpt lat="41.737649" lon="2.044764">
        <ele>649.6</ele>
        <time>2011-08-19T10:19:26Z</time>
      </trkpt>
      <trkpt lat="41.737613" lon="2.044851">
        <ele>649.7</ele>
        <time>2011-08-19T10:19:26Z</time>
      </trkpt>
      <trkpt lat="41.737594" lon="2.044952">
        <ele>650.4</ele>
        <time>2011-08-19T10:19:26Z</time>
      </trkpt>
      <trkpt lat="41.737593" lon="2.045065">
        <ele>651.6</ele>
        <time>2011-08-19T10:19:26Z</time>
      </trkpt>
      <trkpt lat="41.737564" lon="2.045219">
        <ele>652.1</ele>
        <time>2011-08-19T10:19:26Z</time>
      </trkpt>
      <trkpt lat="41.737550" lon="2.045347">
        <ele>652.7</ele>
        <time>2011-08-19T10:19:26Z</time>
      </trkpt>
      <trkpt lat="41.737533" lon="2.045474">
        <ele>653.4</ele>
        <time>2011-08-19T10:19:26Z</time>
      </trkpt>
      <trkpt lat="41.737529" lon="2.045612">
        <ele>654.2</ele>
        <time>2011-08-19T10:19:26Z</time>
      </trkpt>
      <trkpt lat="41.737536" lon="2.045761">
        <ele>655.1</ele>
        <time>2011-08-19T10:19:26Z</time>
      </trkpt>
      <trkpt lat="41.737527" lon="2.045889">
        <ele>656.3</ele>
        <time>2011-08-19T10:19:26Z</time>
      </trkpt>
      <trkpt lat="41.737490" lon="2.045982">
        <ele>658.1</ele>
        <time>2011-08-19T10:19:26Z</time>
      </trkpt>
      <trkpt lat="41.737414" lon="2.046073">
        <ele>661.2</ele>
        <time>2011-08-19T10:19:26Z</time>
      </trkpt>
      <trkpt lat="41.737328" lon="2.046141">
        <ele>661.6</ele>
        <time>2011-08-19T10:19:26Z</time>
      </trkpt>
      <trkpt lat="41.737238" lon="2.046212">
        <ele>662.1</ele>
        <time>2011-08-19T10:19:26Z</time>
      </trkpt>
      <trkpt lat="41.737204" lon="2.046271">
        <ele>662.3</ele>
        <time>2011-08-19T10:19:26Z</time>
      </trkpt>
      <trkpt lat="41.737174" lon="2.046367">
        <ele>663.0</ele>
        <time>2011-08-19T10:19:26Z</time>
      </trkpt>
      <trkpt lat="41.737190" lon="2.046474">
        <ele>664.3</ele>
        <time>2011-08-19T10:19:26Z</time>
      </trkpt>
      <trkpt lat="41.737216" lon="2.046597">
        <ele>665.4</ele>
        <time>2011-08-19T10:19:26Z</time>
      </trkpt>
      <trkpt lat="41.737217" lon="2.046741">
        <ele>666.0</ele>
        <time>2011-08-19T10:19:26Z</time>
      </trkpt>
      <trkpt lat="41.737169" lon="2.046880">
        <ele>667.4</ele>
        <time>2011-08-19T10:19:26Z</time>
      </trkpt>
      <trkpt lat="41.737127" lon="2.046996">
        <ele>668.3</ele>
        <time>2011-08-19T10:19:26Z</time>
      </trkpt>
      <trkpt lat="41.737059" lon="2.047105">
        <ele>668.8</ele>
        <time>2011-08-19T10:19:26Z</time>
      </trkpt>
      <trkpt lat="41.736971" lon="2.047204">
        <ele>670.1</ele>
        <time>2011-08-19T10:19:26Z</time>
      </trkpt>
      <trkpt lat="41.736903" lon="2.047258">
        <ele>671.2</ele>
        <time>2011-08-19T10:19:26Z</time>
      </trkpt>
      <trkpt lat="41.736824" lon="2.047295">
        <ele>671.9</ele>
        <time>2011-08-19T10:19:26Z</time>
      </trkpt>
      <trkpt lat="41.736742" lon="2.047322">
        <ele>672.0</ele>
        <time>2011-08-19T10:19:26Z</time>
      </trkpt>
      <trkpt lat="41.736676" lon="2.047346">
        <ele>672.0</ele>
        <time>2011-08-19T10:19:26Z</time>
      </trkpt>
      <trkpt lat="41.736639" lon="2.047401">
        <ele>672.4</ele>
        <time>2011-08-19T10:19:26Z</time>
      </trkpt>
      <trkpt lat="41.736607" lon="2.047548">
        <ele>673.5</ele>
        <time>2011-08-19T10:19:26Z</time>
      </trkpt>
      <trkpt lat="41.736611" lon="2.047614">
        <ele>674.3</ele>
        <time>2011-08-19T10:19:26Z</time>
      </trkpt>
      <trkpt lat="41.736649" lon="2.047724">
        <ele>675.5</ele>
        <time>2011-08-19T10:19:26Z</time>
      </trkpt>
      <trkpt lat="41.736690" lon="2.047811">
        <ele>676.5</ele>
        <time>2011-08-19T10:19:26Z</time>
      </trkpt>
      <trkpt lat="41.736722" lon="2.047931">
        <ele>677.7</ele>
        <time>2011-08-19T10:19:26Z</time>
      </trkpt>
      <trkpt lat="41.736726" lon="2.048046">
        <ele>678.6</ele>
        <time>2011-08-19T10:19:26Z</time>
      </trkpt>
      <trkpt lat="41.736714" lon="2.048175">
        <ele>680.0</ele>
        <time>2011-08-19T10:19:26Z</time>
      </trkpt>
      <trkpt lat="41.736679" lon="2.048303">
        <ele>680.7</ele>
        <time>2011-08-19T10:19:26Z</time>
      </trkpt>
      <trkpt lat="41.736627" lon="2.048376">
        <ele>680.2</ele>
        <time>2011-08-19T10:19:26Z</time>
      </trkpt>
      <trkpt lat="41.736549" lon="2.048464">
        <ele>680.1</ele>
        <time>2011-08-19T10:19:26Z</time>
      </trkpt>
      <trkpt lat="41.736500" lon="2.048542">
        <ele>680.1</ele>
        <time>2011-08-19T10:19:26Z</time>
      </trkpt>
      <trkpt lat="41.736460" lon="2.048635">
        <ele>680.3</ele>
        <time>2011-08-19T10:19:26Z</time>
      </trkpt>
      <trkpt lat="41.736469" lon="2.048730">
        <ele>682.1</ele>
        <time>2011-08-19T10:19:26Z</time>
      </trkpt>
      <trkpt lat="41.736500" lon="2.048837">
        <ele>683.3</ele>
        <time>2011-08-19T10:19:26Z</time>
      </trkpt>
      <trkpt lat="41.736540" lon="2.048934">
        <ele>684.7</ele>
        <time>2011-08-19T10:19:26Z</time>
      </trkpt>
      <trkpt lat="41.736577" lon="2.049028">
        <ele>686.1</ele>
        <time>2011-08-19T10:19:26Z</time>
      </trkpt>
      <trkpt lat="41.736582" lon="2.049169">
        <ele>687.3</ele>
        <time>2011-08-19T10:19:26Z</time>
      </trkpt>
      <trkpt lat="41.736572" lon="2.049295">
        <ele>688.7</ele>
        <time>2011-08-19T10:19:26Z</time>
      </trkpt>
      <trkpt lat="41.736540" lon="2.049411">
        <ele>689.3</ele>
        <time>2011-08-19T10:19:26Z</time>
      </trkpt>
      <trkpt lat="41.736493" lon="2.049497">
        <ele>689.2</ele>
        <time>2011-08-19T10:19:26Z</time>
      </trkpt>
      <trkpt lat="41.736411" lon="2.049618">
        <ele>689.4</ele>
        <time>2011-08-19T10:19:26Z</time>
      </trkpt>
      <trkpt lat="41.736335" lon="2.049707">
        <ele>689.4</ele>
        <time>2011-08-19T10:19:26Z</time>
      </trkpt>
      <trkpt lat="41.736289" lon="2.049792">
        <ele>690.3</ele>
        <time>2011-08-19T10:19:26Z</time>
      </trkpt>
      <trkpt lat="41.736267" lon="2.049926">
        <ele>691.0</ele>
        <time>2011-08-19T10:19:26Z</time>
      </trkpt>
      <trkpt lat="41.736270" lon="2.050044">
        <ele>691.7</ele>
        <time>2011-08-19T10:19:26Z</time>
      </trkpt>
      <trkpt lat="41.736291" lon="2.050192">
        <ele>693.1</ele>
        <time>2011-08-19T10:19:26Z</time>
      </trkpt>
      <trkpt lat="41.736353" lon="2.050310">
        <ele>694.7</ele>
        <time>2011-08-19T10:19:26Z</time>
      </trkpt>
      <trkpt lat="41.736392" lon="2.050383">
        <ele>695.5</ele>
        <time>2011-08-19T10:19:26Z</time>
      </trkpt>
      <trkpt lat="41.736432" lon="2.050490">
        <ele>695.9</ele>
        <time>2011-08-19T10:19:26Z</time>
      </trkpt>
      <trkpt lat="41.736485" lon="2.050638">
        <ele>696.6</ele>
        <time>2011-08-19T10:19:26Z</time>
      </trkpt>
      <trkpt lat="41.736522" lon="2.050733">
        <ele>697.0</ele>
        <time>2011-08-19T10:19:26Z</time>
      </trkpt>
      <trkpt lat="41.736561" lon="2.050827">
        <ele>697.2</ele>
        <time>2011-08-19T10:19:26Z</time>
      </trkpt>
      <trkpt lat="41.736589" lon="2.050958">
        <ele>697.2</ele>
        <time>2011-08-19T10:19:26Z</time>
      </trkpt>
      <trkpt lat="41.736588" lon="2.051086">
        <ele>697.3</ele>
        <time>2011-08-19T10:19:26Z</time>
      </trkpt>
      <trkpt lat="41.736562" lon="2.051207">
        <ele>697.5</ele>
        <time>2011-08-19T10:19:26Z</time>
      </trkpt>
      <trkpt lat="41.736515" lon="2.051336">
        <ele>697.7</ele>
        <time>2011-08-19T10:19:26Z</time>
      </trkpt>
      <trkpt lat="41.736457" lon="2.051439">
        <ele>698.2</ele>
        <time>2011-08-19T10:19:26Z</time>
      </trkpt>
      <trkpt lat="41.736384" lon="2.051523">
        <ele>699.6</ele>
        <time>2011-08-19T10:19:26Z</time>
      </trkpt>
      <trkpt lat="41.736295" lon="2.051580">
        <ele>700.0</ele>
        <time>2011-08-19T10:19:26Z</time>
      </trkpt>
      <trkpt lat="41.736226" lon="2.051625">
        <ele>700.6</ele>
        <time>2011-08-19T10:19:26Z</time>
      </trkpt>
      <trkpt lat="41.736120" lon="2.051665">
        <ele>700.5</ele>
        <time>2011-08-19T10:19:26Z</time>
      </trkpt>
      <trkpt lat="41.736049" lon="2.051689">
        <ele>700.9</ele>
        <time>2011-08-19T10:19:26Z</time>
      </trkpt>
      <trkpt lat="41.735950" lon="2.051732">
        <ele>701.7</ele>
        <time>2011-08-19T10:19:26Z</time>
      </trkpt>
      <trkpt lat="41.735879" lon="2.051774">
        <ele>702.5</ele>
        <time>2011-08-19T10:19:26Z</time>
      </trkpt>
      <trkpt lat="41.735789" lon="2.051837">
        <ele>703.2</ele>
        <time>2011-08-19T10:19:26Z</time>
      </trkpt>
      <trkpt lat="41.735694" lon="2.051933">
        <ele>704.5</ele>
        <time>2011-08-19T10:19:26Z</time>
      </trkpt>
      <trkpt lat="41.735589" lon="2.052019">
        <ele>706.5</ele>
        <time>2011-08-19T10:19:26Z</time>
      </trkpt>
      <trkpt lat="41.735480" lon="2.052103">
        <ele>706.3</ele>
        <time>2011-08-19T10:19:26Z</time>
      </trkpt>
      <trkpt lat="41.735404" lon="2.052145">
        <ele>706.8</ele>
        <time>2011-08-19T10:19:26Z</time>
      </trkpt>
      <trkpt lat="41.735345" lon="2.052218">
        <ele>707.8</ele>
        <time>2011-08-19T10:19:26Z</time>
      </trkpt>
      <trkpt lat="41.735301" lon="2.052313">
        <ele>709.4</ele>
        <time>2011-08-19T10:19:26Z</time>
      </trkpt>
      <trkpt lat="41.735249" lon="2.052458">
        <ele>709.1</ele>
        <time>2011-08-19T10:19:26Z</time>
      </trkpt>
      <trkpt lat="41.735198" lon="2.052572">
        <ele>709.1</ele>
        <time>2011-08-19T10:19:26Z</time>
      </trkpt>
      <trkpt lat="41.735152" lon="2.052665">
        <ele>709.9</ele>
        <time>2011-08-19T10:19:26Z</time>
      </trkpt>
      <trkpt lat="41.735095" lon="2.052765">
        <ele>711.0</ele>
        <time>2011-08-19T10:19:26Z</time>
      </trkpt>
      <trkpt lat="41.735044" lon="2.052861">
        <ele>711.9</ele>
        <time>2011-08-19T10:19:26Z</time>
      </trkpt>
      <trkpt lat="41.735001" lon="2.052957">
        <ele>711.6</ele>
        <time>2011-08-19T10:19:26Z</time>
      </trkpt>
      <trkpt lat="41.734931" lon="2.053053">
        <ele>711.7</ele>
        <time>2011-08-19T10:19:26Z</time>
      </trkpt>
      <trkpt lat="41.734857" lon="2.053164">
        <ele>712.4</ele>
        <time>2011-08-19T10:19:26Z</time>
      </trkpt>
      <trkpt lat="41.734794" lon="2.053268">
        <ele>714.1</ele>
        <time>2011-08-19T10:19:26Z</time>
      </trkpt>
      <trkpt lat="41.734734" lon="2.053381">
        <ele>715.7</ele>
        <time>2011-08-19T10:19:26Z</time>
      </trkpt>
      <trkpt lat="41.734655" lon="2.053457">
        <ele>716.6</ele>
        <time>2011-08-19T10:19:26Z</time>
      </trkpt>
      <trkpt lat="41.734562" lon="2.053525">
        <ele>717.4</ele>
        <time>2011-08-19T10:19:26Z</time>
      </trkpt>
      <trkpt lat="41.734493" lon="2.053552">
        <ele>718.1</ele>
        <time>2011-08-19T10:19:26Z</time>
      </trkpt>
      <trkpt lat="41.734436" lon="2.053599">
        <ele>719.2</ele>
        <time>2011-08-19T10:19:26Z</time>
      </trkpt>
      <trkpt lat="41.734343" lon="2.053615">
        <ele>719.6</ele>
        <time>2011-08-19T10:19:26Z</time>
      </trkpt>
      <trkpt lat="41.734236" lon="2.053668">
        <ele>721.5</ele>
        <time>2011-08-19T10:19:26Z</time>
      </trkpt>
      <trkpt lat="41.734154" lon="2.053705">
        <ele>722.3</ele>
        <time>2011-08-19T10:19:26Z</time>
      </trkpt>
      <trkpt lat="41.734068" lon="2.053743">
        <ele>723.0</ele>
        <time>2011-08-19T10:19:26Z</time>
      </trkpt>
      <trkpt lat="41.734005" lon="2.053785">
        <ele>724.0</ele>
        <time>2011-08-19T10:19:26Z</time>
      </trkpt>
      <trkpt lat="41.733945" lon="2.053827">
        <ele>724.7</ele>
        <time>2011-08-19T10:19:26Z</time>
      </trkpt>
      <trkpt lat="41.733886" lon="2.053869">
        <ele>725.0</ele>
        <time>2011-08-19T10:19:26Z</time>
      </trkpt>
      <trkpt lat="41.733831" lon="2.053928">
        <ele>726.0</ele>
        <time>2011-08-19T10:19:26Z</time>
      </trkpt>
      <trkpt lat="41.733762" lon="2.053991">
        <ele>726.8</ele>
        <time>2011-08-19T10:19:26Z</time>
      </trkpt>
      <trkpt lat="41.733692" lon="2.054046">
        <ele>727.2</ele>
        <time>2011-08-19T10:19:26Z</time>
      </trkpt>
      <trkpt lat="41.733613" lon="2.054121">
        <ele>728.5</ele>
        <time>2011-08-19T10:19:26Z</time>
      </trkpt>
      <trkpt lat="41.733512" lon="2.054200">
        <ele>729.5</ele>
        <time>2011-08-19T10:19:26Z</time>
      </trkpt>
      <trkpt lat="41.733415" lon="2.054268">
        <ele>730.9</ele>
        <time>2011-08-19T10:19:26Z</time>
      </trkpt>
      <trkpt lat="41.733273" lon="2.054316">
        <ele>732.1</ele>
        <time>2011-08-19T10:19:26Z</time>
      </trkpt>
      <trkpt lat="41.733186" lon="2.054317">
        <ele>731.8</ele>
        <time>2011-08-19T10:19:26Z</time>
      </trkpt>
      <trkpt lat="41.733085" lon="2.054347">
        <ele>731.5</ele>
        <time>2011-08-19T10:19:26Z</time>
      </trkpt>
      <trkpt lat="41.732989" lon="2.054433">
        <ele>732.5</ele>
        <time>2011-08-19T10:19:26Z</time>
      </trkpt>
      <trkpt lat="41.732936" lon="2.054514">
        <ele>733.8</ele>
        <time>2011-08-19T10:19:26Z</time>
      </trkpt>
      <trkpt lat="41.732870" lon="2.054622">
        <ele>735.8</ele>
        <time>2011-08-19T10:19:26Z</time>
      </trkpt>
      <trkpt lat="41.732788" lon="2.054698">
        <ele>736.6</ele>
        <time>2011-08-19T10:19:26Z</time>
      </trkpt>
      <trkpt lat="41.732667" lon="2.054769">
        <ele>736.2</ele>
        <time>2011-08-19T10:19:26Z</time>
      </trkpt>
      <trkpt lat="41.732593" lon="2.054852">
        <ele>737.2</ele>
        <time>2011-08-19T10:19:26Z</time>
      </trkpt>
      <trkpt lat="41.732515" lon="2.054933">
        <ele>738.2</ele>
        <time>2011-08-19T10:19:26Z</time>
      </trkpt>
      <trkpt lat="41.732443" lon="2.055006">
        <ele>739.3</ele>
        <time>2011-08-19T10:19:26Z</time>
      </trkpt>
      <trkpt lat="41.732347" lon="2.055089">
        <ele>739.7</ele>
        <time>2011-08-19T10:19:26Z</time>
      </trkpt>
      <trkpt lat="41.732260" lon="2.055170">
        <ele>740.5</ele>
        <time>2011-08-19T10:19:26Z</time>
      </trkpt>
      <trkpt lat="41.732179" lon="2.055243">
        <ele>740.8</ele>
        <time>2011-08-19T10:19:26Z</time>
      </trkpt>
      <trkpt lat="41.732118" lon="2.055311">
        <ele>741.2</ele>
        <time>2011-08-19T10:19:26Z</time>
      </trkpt>
      <trkpt lat="41.732048" lon="2.055396">
        <ele>742.1</ele>
        <time>2011-08-19T10:19:26Z</time>
      </trkpt>
      <trkpt lat="41.731976" lon="2.055502">
        <ele>743.3</ele>
        <time>2011-08-19T10:19:26Z</time>
      </trkpt>
      <trkpt lat="41.731900" lon="2.055624">
        <ele>744.5</ele>
        <time>2011-08-19T10:19:26Z</time>
      </trkpt>
      <trkpt lat="41.731847" lon="2.055715">
        <ele>745.4</ele>
        <time>2011-08-19T10:19:26Z</time>
      </trkpt>
      <trkpt lat="41.731792" lon="2.055790">
        <ele>745.9</ele>
        <time>2011-08-19T10:19:26Z</time>
      </trkpt>
      <trkpt lat="41.731733" lon="2.055873">
        <ele>746.7</ele>
        <time>2011-08-19T10:19:26Z</time>
      </trkpt>
      <trkpt lat="41.731680" lon="2.055953">
        <ele>747.5</ele>
        <time>2011-08-19T10:19:26Z</time>
      </trkpt>
      <trkpt lat="41.731625" lon="2.056026">
        <ele>748.0</ele>
        <time>2011-08-19T10:19:26Z</time>
      </trkpt>
      <trkpt lat="41.731548" lon="2.056101">
        <ele>748.5</ele>
        <time>2011-08-19T10:19:26Z</time>
      </trkpt>
      <trkpt lat="41.731484" lon="2.056159">
        <ele>749.4</ele>
        <time>2011-08-19T10:19:26Z</time>
      </trkpt>
      <trkpt lat="41.731409" lon="2.056206">
        <ele>749.9</ele>
        <time>2011-08-19T10:19:26Z</time>
      </trkpt>
      <trkpt lat="41.731308" lon="2.056249">
        <ele>749.7</ele>
        <time>2011-08-19T10:19:26Z</time>
      </trkpt>
      <trkpt lat="41.731194" lon="2.056286">
        <ele>750.2</ele>
        <time>2011-08-19T10:19:26Z</time>
      </trkpt>
      <trkpt lat="41.731097" lon="2.056311">
        <ele>750.6</ele>
        <time>2011-08-19T10:19:26Z</time>
      </trkpt>
      <trkpt lat="41.731014" lon="2.056315">
        <ele>750.4</ele>
        <time>2011-08-19T10:19:26Z</time>
      </trkpt>
      <trkpt lat="41.730920" lon="2.056300">
        <ele>751.2</ele>
        <time>2011-08-19T10:19:26Z</time>
      </trkpt>
      <trkpt lat="41.730825" lon="2.056279">
        <ele>751.7</ele>
        <time>2011-08-19T10:19:26Z</time>
      </trkpt>
      <trkpt lat="41.730737" lon="2.056244">
        <ele>751.6</ele>
        <time>2011-08-19T10:19:26Z</time>
      </trkpt>
      <trkpt lat="41.730615" lon="2.056187">
        <ele>751.8</ele>
        <time>2011-08-19T10:19:26Z</time>
      </trkpt>
      <trkpt lat="41.730523" lon="2.056150">
        <ele>752.1</ele>
        <time>2011-08-19T10:19:26Z</time>
      </trkpt>
      <trkpt lat="41.730442" lon="2.056125">
        <ele>752.2</ele>
        <time>2011-08-19T10:19:26Z</time>
      </trkpt>
      <trkpt lat="41.730340" lon="2.056124">
        <ele>752.5</ele>
        <time>2011-08-19T10:19:26Z</time>
      </trkpt>
      <trkpt lat="41.730278" lon="2.056128">
        <ele>752.8</ele>
        <time>2011-08-19T10:19:26Z</time>
      </trkpt>
      <trkpt lat="41.730196" lon="2.056149">
        <ele>753.8</ele>
        <time>2011-08-19T10:19:26Z</time>
      </trkpt>
      <trkpt lat="41.730104" lon="2.056153">
        <ele>754.4</ele>
        <time>2011-08-19T10:19:26Z</time>
      </trkpt>
      <trkpt lat="41.729987" lon="2.056160">
        <ele>755.2</ele>
        <time>2011-08-19T10:19:26Z</time>
      </trkpt>
      <trkpt lat="41.729875" lon="2.056167">
        <ele>755.3</ele>
        <time>2011-08-19T10:19:26Z</time>
      </trkpt>
      <trkpt lat="41.729827" lon="2.056186">
        <ele>755.5</ele>
        <time>2011-08-19T10:19:26Z</time>
      </trkpt>
      <trkpt lat="41.729751" lon="2.056233">
        <ele>756.2</ele>
        <time>2011-08-19T10:19:26Z</time>
      </trkpt>
      <trkpt lat="41.729707" lon="2.056308">
        <ele>757.8</ele>
        <time>2011-08-19T10:19:26Z</time>
      </trkpt>
      <trkpt lat="41.729662" lon="2.056424">
        <ele>760.4</ele>
        <time>2011-08-19T10:19:26Z</time>
      </trkpt>
      <trkpt lat="41.729620" lon="2.056502">
        <ele>762.0</ele>
        <time>2011-08-19T10:19:26Z</time>
      </trkpt>
      <trkpt lat="41.729535" lon="2.056598">
        <ele>762.5</ele>
        <time>2011-08-19T10:19:26Z</time>
      </trkpt>
      <trkpt lat="41.729472" lon="2.056676">
        <ele>762.5</ele>
        <time>2011-08-19T10:19:26Z</time>
      </trkpt>
      <trkpt lat="41.729397" lon="2.056744">
        <ele>761.3</ele>
        <time>2011-08-19T10:19:26Z</time>
      </trkpt>
      <trkpt lat="41.729323" lon="2.056847">
        <ele>762.4</ele>
        <time>2011-08-19T10:19:26Z</time>
      </trkpt>
      <trkpt lat="41.729251" lon="2.056935">
        <ele>762.7</ele>
        <time>2011-08-19T10:19:26Z</time>
      </trkpt>
      <trkpt lat="41.729194" lon="2.057011">
        <ele>762.6</ele>
        <time>2011-08-19T10:19:26Z</time>
      </trkpt>
      <trkpt lat="41.729126" lon="2.057127">
        <ele>762.5</ele>
        <time>2011-08-19T10:19:26Z</time>
      </trkpt>
      <trkpt lat="41.729083" lon="2.057189">
        <ele>762.6</ele>
        <time>2011-08-19T10:19:26Z</time>
      </trkpt>
      <trkpt lat="41.729011" lon="2.057337">
        <ele>763.3</ele>
        <time>2011-08-19T10:19:26Z</time>
      </trkpt>
      <trkpt lat="41.728966" lon="2.057463">
        <ele>764.3</ele>
        <time>2011-08-19T10:19:26Z</time>
      </trkpt>
      <trkpt lat="41.728904" lon="2.057589">
        <ele>764.7</ele>
        <time>2011-08-19T10:19:26Z</time>
      </trkpt>
      <trkpt lat="41.728849" lon="2.057695">
        <ele>765.4</ele>
        <time>2011-08-19T10:19:26Z</time>
      </trkpt>
      <trkpt lat="41.728788" lon="2.057773">
        <ele>765.9</ele>
        <time>2011-08-19T10:19:26Z</time>
      </trkpt>
      <trkpt lat="41.728700" lon="2.057856">
        <ele>766.0</ele>
        <time>2011-08-19T10:19:26Z</time>
      </trkpt>
      <trkpt lat="41.728620" lon="2.057952">
        <ele>766.0</ele>
        <time>2011-08-19T10:19:26Z</time>
      </trkpt>
      <trkpt lat="41.728567" lon="2.058038">
        <ele>766.0</ele>
        <time>2011-08-19T10:19:26Z</time>
      </trkpt>
      <trkpt lat="41.728565" lon="2.058153">
        <ele>767.8</ele>
        <time>2011-08-19T10:19:26Z</time>
      </trkpt>
      <trkpt lat="41.728554" lon="2.058310">
        <ele>770.7</ele>
        <time>2011-08-19T10:19:26Z</time>
      </trkpt>
      <trkpt lat="41.728511" lon="2.058413">
        <ele>771.9</ele>
        <time>2011-08-19T10:19:26Z</time>
      </trkpt>
      <trkpt lat="41.728451" lon="2.058570">
        <ele>773.5</ele>
        <time>2011-08-19T10:19:26Z</time>
      </trkpt>
      <trkpt lat="41.728394" lon="2.058719">
        <ele>774.4</ele>
        <time>2011-08-19T10:19:26Z</time>
      </trkpt>
      <trkpt lat="41.728359" lon="2.058846">
        <ele>776.1</ele>
        <time>2011-08-19T10:19:26Z</time>
      </trkpt>
      <trkpt lat="41.728326" lon="2.058945">
        <ele>777.5</ele>
        <time>2011-08-19T10:19:26Z</time>
      </trkpt>
      <trkpt lat="41.728321" lon="2.059003">
        <ele>777.6</ele>
        <time>2011-08-19T10:19:26Z</time>
      </trkpt>
      <trkpt lat="41.728324" lon="2.059109">
        <ele>777.4</ele>
        <time>2011-08-19T10:19:26Z</time>
      </trkpt>
      <trkpt lat="41.728332" lon="2.059199">
        <ele>777.3</ele>
        <time>2011-08-19T10:19:26Z</time>
      </trkpt>
      <trkpt lat="41.728350" lon="2.059300">
        <ele>750.0</ele>
        <time>2011-08-19T10:59:43Z</time>
      </trkpt>
      <trkpt lat="41.728364" lon="2.059387">
        <ele>752.1</ele>
        <time>2011-08-19T10:59:43Z</time>
      </trkpt>
      <trkpt lat="41.728383" lon="2.059467">
        <ele>754.9</ele>
        <time>2011-08-19T10:59:43Z</time>
      </trkpt>
      <trkpt lat="41.728341" lon="2.059542">
        <ele>748.3</ele>
        <time>2011-08-19T10:59:43Z</time>
      </trkpt>
      <trkpt lat="41.728355" lon="2.059622">
        <ele>750.4</ele>
        <time>2011-08-19T10:59:43Z</time>
      </trkpt>
      <trkpt lat="41.728402" lon="2.059681">
        <ele>757.8</ele>
        <time>2011-08-19T10:59:43Z</time>
      </trkpt>
      <trkpt lat="41.728436" lon="2.059743">
        <ele>763.3</ele>
        <time>2011-08-19T10:59:43Z</time>
      </trkpt>
      <trkpt lat="41.728475" lon="2.059820">
        <ele>766.5</ele>
        <time>2011-08-19T10:59:43Z</time>
      </trkpt>
      <trkpt lat="41.728525" lon="2.059900">
        <ele>766.3</ele>
        <time>2011-08-19T10:59:43Z</time>
      </trkpt>
      <trkpt lat="41.728583" lon="2.059977">
        <ele>761.4</ele>
        <time>2011-08-19T10:59:43Z</time>
      </trkpt>
      <trkpt lat="41.728655" lon="2.060035">
        <ele>755.0</ele>
        <time>2011-08-19T10:59:43Z</time>
      </trkpt>
      <trkpt lat="41.728754" lon="2.060055">
        <ele>755.0</ele>
        <time>2011-08-19T10:59:43Z</time>
      </trkpt>
      <trkpt lat="41.728859" lon="2.060053">
        <ele>755.0</ele>
        <time>2011-08-19T10:59:43Z</time>
      </trkpt>
      <trkpt lat="41.728935" lon="2.060022">
        <ele>755.7</ele>
        <time>2011-08-19T10:59:43Z</time>
      </trkpt>
      <trkpt lat="41.729017" lon="2.060015">
        <ele>756.3</ele>
        <time>2011-08-19T10:59:43Z</time>
      </trkpt>
      <trkpt lat="41.729080" lon="2.059999">
        <ele>757.8</ele>
        <time>2011-08-19T10:59:43Z</time>
      </trkpt>
      <trkpt lat="41.729147" lon="2.060004">
        <ele>757.2</ele>
        <time>2011-08-19T10:59:43Z</time>
      </trkpt>
      <trkpt lat="41.729234" lon="2.060039">
        <ele>755.0</ele>
        <time>2011-08-19T10:59:43Z</time>
      </trkpt>
      <trkpt lat="41.729337" lon="2.060103">
        <ele>764.0</ele>
        <time>2011-08-19T10:59:43Z</time>
      </trkpt>
      <trkpt lat="41.729400" lon="2.060144">
        <ele>764.0</ele>
        <time>2011-08-19T10:59:43Z</time>
      </trkpt>
      <trkpt lat="41.729477" lon="2.060187">
        <ele>763.0</ele>
        <time>2011-08-19T10:59:43Z</time>
      </trkpt>
      <trkpt lat="41.729564" lon="2.060222">
        <ele>761.4</ele>
        <time>2011-08-19T10:59:43Z</time>
      </trkpt>
      <trkpt lat="41.729651" lon="2.060254">
        <ele>759.8</ele>
        <time>2011-08-19T10:59:43Z</time>
      </trkpt>
      <trkpt lat="41.729750" lon="2.060252">
        <ele>759.0</ele>
        <time>2011-08-19T10:59:43Z</time>
      </trkpt>
      <trkpt lat="41.729839" lon="2.060218">
        <ele>759.0</ele>
        <time>2011-08-19T10:59:43Z</time>
      </trkpt>
      <trkpt lat="41.729912" lon="2.060184">
        <ele>759.0</ele>
        <time>2011-08-19T10:59:43Z</time>
      </trkpt>
      <trkpt lat="41.729999" lon="2.060111">
        <ele>758.5</ele>
        <time>2011-08-19T10:59:43Z</time>
      </trkpt>
      <trkpt lat="41.730074" lon="2.060033">
        <ele>757.4</ele>
        <time>2011-08-19T10:59:43Z</time>
      </trkpt>
      <trkpt lat="41.730134" lon="2.059957">
        <ele>757.6</ele>
        <time>2011-08-19T10:59:43Z</time>
      </trkpt>
      <trkpt lat="41.730200" lon="2.059902">
        <ele>757.6</ele>
        <time>2011-08-19T10:59:43Z</time>
      </trkpt>
      <trkpt lat="41.730287" lon="2.059862">
        <ele>757.9</ele>
        <time>2011-08-19T10:59:43Z</time>
      </trkpt>
      <trkpt lat="41.730368" lon="2.059858">
        <ele>757.9</ele>
        <time>2011-08-19T10:59:43Z</time>
      </trkpt>
      <trkpt lat="41.730475" lon="2.059881">
        <ele>757.5</ele>
        <time>2011-08-19T10:59:43Z</time>
      </trkpt>
      <trkpt lat="41.730558" lon="2.059921">
        <ele>757.6</ele>
        <time>2011-08-19T10:59:43Z</time>
      </trkpt>
      <trkpt lat="41.730610" lon="2.059968">
        <ele>757.6</ele>
        <time>2011-08-19T10:59:43Z</time>
      </trkpt>
      <trkpt lat="41.730673" lon="2.060063">
        <ele>758.1</ele>
        <time>2011-08-19T10:59:43Z</time>
      </trkpt>
      <trkpt lat="41.730694" lon="2.060152">
        <ele>758.5</ele>
        <time>2011-08-19T10:59:43Z</time>
      </trkpt>
      <trkpt lat="41.730678" lon="2.060319">
        <ele>758.2</ele>
        <time>2011-08-19T10:59:43Z</time>
      </trkpt>
      <trkpt lat="41.730656" lon="2.060430">
        <ele>758.1</ele>
        <time>2011-08-19T10:59:43Z</time>
      </trkpt>
      <trkpt lat="41.730646" lon="2.060549">
        <ele>758.6</ele>
        <time>2011-08-19T10:59:43Z</time>
      </trkpt>
      <trkpt lat="41.730634" lon="2.060675">
        <ele>758.9</ele>
        <time>2011-08-19T10:59:43Z</time>
      </trkpt>
      <trkpt lat="41.730603" lon="2.060783">
        <ele>758.4</ele>
        <time>2011-08-19T10:59:43Z</time>
      </trkpt>
      <trkpt lat="41.730559" lon="2.060882">
        <ele>757.2</ele>
        <time>2011-08-19T10:59:43Z</time>
      </trkpt>
      <trkpt lat="41.730536" lon="2.060980">
        <ele>756.6</ele>
        <time>2011-08-19T10:59:43Z</time>
      </trkpt>
      <trkpt lat="41.730523" lon="2.061073">
        <ele>756.3</ele>
        <time>2011-08-19T10:59:43Z</time>
      </trkpt>
      <trkpt lat="41.730504" lon="2.061211">
        <ele>758.0</ele>
        <time>2011-08-19T10:59:43Z</time>
      </trkpt>
      <trkpt lat="41.730487" lon="2.061315">
        <ele>759.8</ele>
        <time>2011-08-19T10:59:43Z</time>
      </trkpt>
      <trkpt lat="41.730459" lon="2.061429">
        <ele>761.6</ele>
        <time>2011-08-19T10:59:43Z</time>
      </trkpt>
      <trkpt lat="41.730462" lon="2.061530">
        <ele>762.0</ele>
        <time>2011-08-19T10:59:43Z</time>
      </trkpt>
      <trkpt lat="41.730505" lon="2.061625">
        <ele>762.0</ele>
        <time>2011-08-19T10:59:43Z</time>
      </trkpt>
      <trkpt lat="41.730566" lon="2.061681">
        <ele>762.9</ele>
        <time>2011-08-19T10:59:43Z</time>
      </trkpt>
      <trkpt lat="41.730625" lon="2.061799">
        <ele>764.0</ele>
        <time>2011-08-19T10:59:43Z</time>
      </trkpt>
      <trkpt lat="41.730673" lon="2.061966">
        <ele>764.1</ele>
        <time>2011-08-19T10:59:43Z</time>
      </trkpt>
      <trkpt lat="41.730697" lon="2.062079">
        <ele>764.4</ele>
        <time>2011-08-19T10:59:43Z</time>
      </trkpt>
      <trkpt lat="41.730724" lon="2.062159">
        <ele>765.2</ele>
        <time>2011-08-19T10:59:43Z</time>
      </trkpt>
      <trkpt lat="41.730771" lon="2.062242">
        <ele>767.1</ele>
        <time>2011-08-19T10:59:43Z</time>
      </trkpt>
      <trkpt lat="41.730826" lon="2.062318">
        <ele>768.0</ele>
        <time>2011-08-19T10:59:43Z</time>
      </trkpt>
      <trkpt lat="41.730884" lon="2.062371">
        <ele>768.0</ele>
        <time>2011-08-19T10:59:43Z</time>
      </trkpt>
      <trkpt lat="41.730947" lon="2.062406">
        <ele>768.0</ele>
        <time>2011-08-19T10:59:43Z</time>
      </trkpt>
      <trkpt lat="41.731032" lon="2.062420">
        <ele>768.0</ele>
        <time>2011-08-19T10:59:43Z</time>
      </trkpt>
      <trkpt lat="41.731115" lon="2.062422">
        <ele>767.3</ele>
        <time>2011-08-19T10:59:43Z</time>
      </trkpt>
      <trkpt lat="41.731195" lon="2.062370">
        <ele>766.1</ele>
        <time>2011-08-19T10:59:43Z</time>
      </trkpt>
      <trkpt lat="41.731239" lon="2.062327">
        <ele>765.4</ele>
        <time>2011-08-19T10:59:43Z</time>
      </trkpt>
      <trkpt lat="41.731306" lon="2.062264">
        <ele>764.4</ele>
        <time>2011-08-19T10:59:43Z</time>
      </trkpt>
      <trkpt lat="41.731363" lon="2.062200">
        <ele>764.0</ele>
        <time>2011-08-19T10:59:43Z</time>
      </trkpt>
      <trkpt lat="41.731423" lon="2.062158">
        <ele>764.0</ele>
        <time>2011-08-19T10:59:43Z</time>
      </trkpt>
      <trkpt lat="41.731521" lon="2.062108">
        <ele>765.1</ele>
        <time>2011-08-19T10:59:43Z</time>
      </trkpt>
      <trkpt lat="41.731608" lon="2.062098">
        <ele>765.4</ele>
        <time>2011-08-19T10:59:43Z</time>
      </trkpt>
      <trkpt lat="41.731678" lon="2.062106">
        <ele>766.3</ele>
        <time>2011-08-19T10:59:43Z</time>
      </trkpt>
      <trkpt lat="41.731749" lon="2.062102">
        <ele>767.6</ele>
        <time>2011-08-19T10:59:43Z</time>
      </trkpt>
      <trkpt lat="41.731838" lon="2.062089">
        <ele>769.5</ele>
        <time>2011-08-19T10:59:43Z</time>
      </trkpt>
      <trkpt lat="41.731908" lon="2.062082">
        <ele>770.3</ele>
        <time>2011-08-19T10:59:43Z</time>
      </trkpt>
      <trkpt lat="41.731979" lon="2.062066">
        <ele>770.8</ele>
        <time>2011-08-19T10:59:43Z</time>
      </trkpt>
      <trkpt lat="41.732053" lon="2.062059">
        <ele>771.0</ele>
        <time>2011-08-19T10:59:43Z</time>
      </trkpt>
      <trkpt lat="41.732115" lon="2.062058">
        <ele>771.0</ele>
        <time>2011-08-19T10:59:43Z</time>
      </trkpt>
      <trkpt lat="41.732165" lon="2.062081">
        <ele>771.1</ele>
        <time>2011-08-19T10:59:43Z</time>
      </trkpt>
      <trkpt lat="41.732187" lon="2.062150">
        <ele>770.0</ele>
        <time>2011-08-19T10:59:43Z</time>
      </trkpt>
      <trkpt lat="41.732195" lon="2.062236">
        <ele>770.3</ele>
        <time>2011-08-19T10:59:43Z</time>
      </trkpt>
      <trkpt lat="41.732185" lon="2.062367">
        <ele>769.8</ele>
        <time>2011-08-19T10:59:43Z</time>
      </trkpt>
      <trkpt lat="41.732190" lon="2.062457">
        <ele>770.2</ele>
        <time>2011-08-19T10:59:43Z</time>
      </trkpt>
      <trkpt lat="41.732195" lon="2.062573">
        <ele>770.7</ele>
        <time>2011-08-19T10:59:43Z</time>
      </trkpt>
      <trkpt lat="41.732205" lon="2.062689">
        <ele>771.1</ele>
        <time>2011-08-19T10:59:43Z</time>
      </trkpt>
      <trkpt lat="41.732210" lon="2.062793">
        <ele>771.5</ele>
        <time>2011-08-19T10:59:43Z</time>
      </trkpt>
      <trkpt lat="41.732220" lon="2.062907">
        <ele>771.7</ele>
        <time>2011-08-19T10:59:43Z</time>
      </trkpt>
      <trkpt lat="41.732237" lon="2.063020">
        <ele>771.7</ele>
        <time>2011-08-19T10:59:43Z</time>
      </trkpt>
      <trkpt lat="41.732253" lon="2.063124">
        <ele>771.8</ele>
        <time>2011-08-19T10:59:43Z</time>
      </trkpt>
      <trkpt lat="41.732276" lon="2.063225">
        <ele>772.2</ele>
        <time>2011-08-19T10:59:43Z</time>
      </trkpt>
      <trkpt lat="41.732311" lon="2.063302">
        <ele>773.1</ele>
        <time>2011-08-19T10:59:43Z</time>
      </trkpt>
      <trkpt lat="41.732352" lon="2.063391">
        <ele>774.4</ele>
        <time>2011-08-19T10:59:43Z</time>
      </trkpt>
      <trkpt lat="41.732393" lon="2.063486">
        <ele>775.7</ele>
        <time>2011-08-19T10:59:43Z</time>
      </trkpt>
      <trkpt lat="41.732454" lon="2.063571">
        <ele>777.2</ele>
        <time>2011-08-19T10:59:43Z</time>
      </trkpt>
      <trkpt lat="41.732510" lon="2.063627">
        <ele>777.7</ele>
        <time>2011-08-19T10:59:43Z</time>
      </trkpt>
      <trkpt lat="41.732586" lon="2.063686">
        <ele>778.3</ele>
        <time>2011-08-19T10:59:43Z</time>
      </trkpt>
      <trkpt lat="41.732667" lon="2.063750">
        <ele>778.8</ele>
        <time>2011-08-19T10:59:43Z</time>
      </trkpt>
      <trkpt lat="41.732753" lon="2.063803">
        <ele>779.6</ele>
        <time>2011-08-19T10:59:43Z</time>
      </trkpt>
      <trkpt lat="41.732878" lon="2.063876">
        <ele>780.6</ele>
        <time>2011-08-19T10:59:43Z</time>
      </trkpt>
      <trkpt lat="41.732975" lon="2.063952">
        <ele>781.0</ele>
        <time>2011-08-19T10:59:43Z</time>
      </trkpt>
      <trkpt lat="41.733054" lon="2.064016">
        <ele>781.6</ele>
        <time>2011-08-19T10:59:43Z</time>
      </trkpt>
      <trkpt lat="41.733137" lon="2.064057">
        <ele>782.2</ele>
        <time>2011-08-19T10:59:43Z</time>
      </trkpt>
      <trkpt lat="41.733227" lon="2.064103">
        <ele>782.5</ele>
        <time>2011-08-19T10:59:43Z</time>
      </trkpt>
      <trkpt lat="41.733341" lon="2.064158">
        <ele>782.5</ele>
        <time>2011-08-19T10:59:43Z</time>
      </trkpt>
      <trkpt lat="41.733462" lon="2.064216">
        <ele>782.2</ele>
        <time>2011-08-19T10:59:43Z</time>
      </trkpt>
      <trkpt lat="41.733585" lon="2.064241">
        <ele>782.4</ele>
        <time>2011-08-19T10:59:43Z</time>
      </trkpt>
      <trkpt lat="41.733666" lon="2.064243">
        <ele>782.9</ele>
        <time>2011-08-19T10:59:43Z</time>
      </trkpt>
      <trkpt lat="41.733782" lon="2.064250">
        <ele>783.5</ele>
        <time>2011-08-19T10:59:43Z</time>
      </trkpt>
      <trkpt lat="41.733845" lon="2.064291">
        <ele>784.4</ele>
        <time>2011-08-19T10:59:43Z</time>
      </trkpt>
      <trkpt lat="41.733906" lon="2.064401">
        <ele>785.0</ele>
        <time>2011-08-19T10:59:43Z</time>
      </trkpt>
      <trkpt lat="41.733970" lon="2.064531">
        <ele>785.0</ele>
        <time>2011-08-19T10:59:43Z</time>
      </trkpt>
      <trkpt lat="41.734042" lon="2.064679">
        <ele>784.7</ele>
        <time>2011-08-19T10:59:43Z</time>
      </trkpt>
      <trkpt lat="41.734083" lon="2.064774">
        <ele>784.9</ele>
        <time>2011-08-19T10:59:43Z</time>
      </trkpt>
      <trkpt lat="41.734132" lon="2.064919">
        <ele>784.8</ele>
        <time>2011-08-19T10:59:43Z</time>
      </trkpt>
      <trkpt lat="41.734173" lon="2.065023">
        <ele>784.6</ele>
        <time>2011-08-19T10:59:43Z</time>
      </trkpt>
      <trkpt lat="41.734202" lon="2.065130">
        <ele>784.6</ele>
        <time>2011-08-19T10:59:43Z</time>
      </trkpt>
      <trkpt lat="41.734241" lon="2.065207">
        <ele>784.5</ele>
        <time>2011-08-19T10:59:43Z</time>
      </trkpt>
      <trkpt lat="41.734291" lon="2.065290">
        <ele>784.4</ele>
        <time>2011-08-19T10:59:43Z</time>
      </trkpt>
      <trkpt lat="41.734356" lon="2.065378">
        <ele>784.0</ele>
        <time>2011-08-19T10:59:43Z</time>
      </trkpt>
      <trkpt lat="41.734411" lon="2.065452">
        <ele>783.6</ele>
        <time>2011-08-19T10:59:43Z</time>
      </trkpt>
      <trkpt lat="41.734487" lon="2.065502">
        <ele>783.3</ele>
        <time>2011-08-19T10:59:43Z</time>
      </trkpt>
      <trkpt lat="41.734563" lon="2.065533">
        <ele>783.1</ele>
        <time>2011-08-19T10:59:43Z</time>
      </trkpt>
      <trkpt lat="41.734650" lon="2.065535">
        <ele>782.5</ele>
        <time>2011-08-19T10:59:43Z</time>
      </trkpt>
      <trkpt lat="41.734735" lon="2.065486">
        <ele>781.8</ele>
        <time>2011-08-19T10:59:43Z</time>
      </trkpt>
      <trkpt lat="41.734795" lon="2.065459">
        <ele>781.1</ele>
        <time>2011-08-19T10:59:43Z</time>
      </trkpt>
      <trkpt lat="41.734891" lon="2.065415">
        <ele>779.7</ele>
        <time>2011-08-19T10:59:43Z</time>
      </trkpt>
      <trkpt lat="41.734953" lon="2.065373">
        <ele>778.8</ele>
        <time>2011-08-19T10:59:43Z</time>
      </trkpt>
      <trkpt lat="41.734977" lon="2.065277">
        <ele>779.1</ele>
        <time>2011-08-19T10:59:43Z</time>
      </trkpt>
      <trkpt lat="41.735003" lon="2.065163">
        <ele>779.6</ele>
        <time>2011-08-19T10:59:43Z</time>
      </trkpt>
      <trkpt lat="41.735035" lon="2.065073">
        <ele>779.7</ele>
        <time>2011-08-19T10:59:43Z</time>
      </trkpt>
      <trkpt lat="41.735077" lon="2.064992">
        <ele>779.4</ele>
        <time>2011-08-19T10:59:43Z</time>
      </trkpt>
      <trkpt lat="41.735159" lon="2.064922">
        <ele>779.5</ele>
        <time>2011-08-19T10:59:43Z</time>
      </trkpt>
      <trkpt lat="41.735279" lon="2.064837">
        <ele>779.2</ele>
        <time>2011-08-19T10:59:43Z</time>
      </trkpt>
      <trkpt lat="41.735362" lon="2.064803">
        <ele>778.1</ele>
        <time>2011-08-19T10:59:43Z</time>
      </trkpt>
      <trkpt lat="41.735457" lon="2.064748">
        <ele>776.8</ele>
        <time>2011-08-19T10:59:43Z</time>
      </trkpt>
      <trkpt lat="41.735537" lon="2.064687">
        <ele>775.7</ele>
        <time>2011-08-19T10:59:43Z</time>
      </trkpt>
      <trkpt lat="41.735604" lon="2.064650">
        <ele>774.5</ele>
        <time>2011-08-19T10:59:43Z</time>
      </trkpt>
      <trkpt lat="41.735668" lon="2.064617">
        <ele>773.3</ele>
        <time>2011-08-19T10:59:43Z</time>
      </trkpt>
      <trkpt lat="41.735744" lon="2.064568">
        <ele>772.9</ele>
        <time>2011-08-19T10:59:43Z</time>
      </trkpt>
      <trkpt lat="41.735820" lon="2.064534">
        <ele>772.3</ele>
        <time>2011-08-19T10:59:43Z</time>
      </trkpt>
      <trkpt lat="41.735902" lon="2.064506">
        <ele>771.5</ele>
        <time>2011-08-19T10:59:43Z</time>
      </trkpt>
      <trkpt lat="41.735989" lon="2.064499">
        <ele>771.1</ele>
        <time>2011-08-19T10:59:43Z</time>
      </trkpt>
      <trkpt lat="41.736090" lon="2.064506">
        <ele>771.1</ele>
        <time>2011-08-19T10:59:43Z</time>
      </trkpt>
      <trkpt lat="41.736182" lon="2.064544">
        <ele>770.5</ele>
        <time>2011-08-19T10:59:43Z</time>
      </trkpt>
      <trkpt lat="41.736285" lon="2.064596">
        <ele>769.6</ele>
        <time>2011-08-19T10:59:43Z</time>
      </trkpt>
      <trkpt lat="41.736375" lon="2.064621">
        <ele>769.3</ele>
        <time>2011-08-19T10:59:43Z</time>
      </trkpt>
      <trkpt lat="41.736480" lon="2.064659">
        <ele>768.7</ele>
        <time>2011-08-19T10:59:43Z</time>
      </trkpt>
      <trkpt lat="41.736603" lon="2.064677">
        <ele>767.9</ele>
        <time>2011-08-19T10:59:43Z</time>
      </trkpt>
      <trkpt lat="41.736735" lon="2.064705">
        <ele>766.8</ele>
        <time>2011-08-19T10:59:43Z</time>
      </trkpt>
      <trkpt lat="41.736856" lon="2.064680">
        <ele>766.7</ele>
        <time>2011-08-19T10:59:43Z</time>
      </trkpt>
      <trkpt lat="41.736987" lon="2.064654">
        <ele>766.6</ele>
        <time>2011-08-19T10:59:43Z</time>
      </trkpt>
      <trkpt lat="41.737081" lon="2.064662">
        <ele>767.0</ele>
        <time>2011-08-19T10:59:43Z</time>
      </trkpt>
      <trkpt lat="41.737148" lon="2.064696">
        <ele>767.1</ele>
        <time>2011-08-19T10:59:43Z</time>
      </trkpt>
      <trkpt lat="41.737218" lon="2.064752">
        <ele>766.7</ele>
        <time>2011-08-19T10:59:43Z</time>
      </trkpt>
      <trkpt lat="41.737286" lon="2.064811">
        <ele>766.4</ele>
        <time>2011-08-19T10:59:43Z</time>
      </trkpt>
      <trkpt lat="41.737360" lon="2.064863">
        <ele>765.9</ele>
        <time>2011-08-19T10:59:43Z</time>
      </trkpt>
      <trkpt lat="41.737461" lon="2.064922">
        <ele>765.2</ele>
        <time>2011-08-19T10:59:43Z</time>
      </trkpt>
      <trkpt lat="41.737566" lon="2.064956">
        <ele>765.0</ele>
        <time>2011-08-19T10:59:43Z</time>
      </trkpt>
      <trkpt lat="41.737658" lon="2.064949">
        <ele>764.5</ele>
        <time>2011-08-19T10:59:43Z</time>
      </trkpt>
      <trkpt lat="41.737738" lon="2.064912">
        <ele>764.7</ele>
        <time>2011-08-19T10:59:43Z</time>
      </trkpt>
      <trkpt lat="41.737818" lon="2.064869">
        <ele>764.8</ele>
        <time>2011-08-19T10:59:43Z</time>
      </trkpt>
      <trkpt lat="41.737896" lon="2.064823">
        <ele>764.7</ele>
        <time>2011-08-19T10:59:43Z</time>
      </trkpt>
      <trkpt lat="41.737965" lon="2.064792">
        <ele>764.2</ele>
        <time>2011-08-19T10:59:43Z</time>
      </trkpt>
      <trkpt lat="41.738063" lon="2.064794">
        <ele>762.8</ele>
        <time>2011-08-19T10:59:43Z</time>
      </trkpt>
      <trkpt lat="41.738164" lon="2.064822">
        <ele>762.6</ele>
        <time>2011-08-19T10:59:43Z</time>
      </trkpt>
      <trkpt lat="41.738242" lon="2.064869">
        <ele>763.1</ele>
        <time>2011-08-19T10:59:43Z</time>
      </trkpt>
      <trkpt lat="41.738303" lon="2.064927">
        <ele>763.1</ele>
        <time>2011-08-19T10:59:43Z</time>
      </trkpt>
      <trkpt lat="41.738367" lon="2.065028">
        <ele>762.8</ele>
        <time>2011-08-19T10:59:43Z</time>
      </trkpt>
      <trkpt lat="41.738419" lon="2.065114">
        <ele>762.9</ele>
        <time>2011-08-19T10:59:43Z</time>
      </trkpt>
      <trkpt lat="41.738468" lon="2.065187">
        <ele>762.8</ele>
        <time>2011-08-19T10:59:43Z</time>
      </trkpt>
      <trkpt lat="41.738525" lon="2.065264">
        <ele>762.3</ele>
        <time>2011-08-19T10:59:43Z</time>
      </trkpt>
      <trkpt lat="41.738629" lon="2.065376">
        <ele>761.8</ele>
        <time>2011-08-19T10:59:43Z</time>
      </trkpt>
      <trkpt lat="41.738741" lon="2.065422">
        <ele>762.3</ele>
        <time>2011-08-19T10:59:43Z</time>
      </trkpt>
      <trkpt lat="41.738828" lon="2.065445">
        <ele>762.5</ele>
        <time>2011-08-19T10:59:43Z</time>
      </trkpt>
      <trkpt lat="41.738931" lon="2.065452">
        <ele>762.9</ele>
        <time>2011-08-19T10:59:43Z</time>
      </trkpt>
      <trkpt lat="41.739027" lon="2.065448">
        <ele>762.6</ele>
        <time>2011-08-19T10:59:43Z</time>
      </trkpt>
      <trkpt lat="41.739096" lon="2.065444">
        <ele>762.4</ele>
        <time>2011-08-19T10:59:43Z</time>
      </trkpt>
      <trkpt lat="41.739230" lon="2.065466">
        <ele>761.9</ele>
        <time>2011-08-19T10:59:43Z</time>
      </trkpt>
      <trkpt lat="41.739324" lon="2.065482">
        <ele>762.2</ele>
        <time>2011-08-19T10:59:43Z</time>
      </trkpt>
      <trkpt lat="41.739407" lon="2.065538">
        <ele>761.7</ele>
        <time>2011-08-19T10:59:43Z</time>
      </trkpt>
      <trkpt lat="41.739478" lon="2.065632">
        <ele>760.3</ele>
        <time>2011-08-19T10:59:43Z</time>
      </trkpt>
      <trkpt lat="41.739543" lon="2.065760">
        <ele>759.2</ele>
        <time>2011-08-19T10:59:43Z</time>
      </trkpt>
      <trkpt lat="41.739593" lon="2.065875">
        <ele>758.6</ele>
        <time>2011-08-19T10:59:43Z</time>
      </trkpt>
      <trkpt lat="41.739664" lon="2.065988">
        <ele>758.1</ele>
        <time>2011-08-19T10:59:43Z</time>
      </trkpt>
      <trkpt lat="41.739731" lon="2.066070">
        <ele>758.0</ele>
        <time>2011-08-19T10:59:43Z</time>
      </trkpt>
      <trkpt lat="41.739776" lon="2.066126">
        <ele>757.9</ele>
        <time>2011-08-19T10:59:43Z</time>
      </trkpt>
      <trkpt lat="41.739837" lon="2.066200">
        <ele>757.6</ele>
        <time>2011-08-19T10:59:43Z</time>
      </trkpt>
      <trkpt lat="41.739905" lon="2.066265">
        <ele>757.4</ele>
        <time>2011-08-19T10:59:43Z</time>
      </trkpt>
      <trkpt lat="41.739990" lon="2.066281">
        <ele>757.1</ele>
        <time>2011-08-19T10:59:43Z</time>
      </trkpt>
      <trkpt lat="41.740068" lon="2.066274">
        <ele>755.6</ele>
        <time>2011-08-19T10:59:43Z</time>
      </trkpt>
      <trkpt lat="41.740150" lon="2.066234">
        <ele>753.6</ele>
        <time>2011-08-19T10:59:43Z</time>
      </trkpt>
      <trkpt lat="41.740159" lon="2.066162">
        <ele>753.5</ele>
        <time>2011-08-19T10:59:43Z</time>
      </trkpt>
      <trkpt lat="41.740165" lon="2.066073">
        <ele>753.5</ele>
        <time>2011-08-19T10:59:43Z</time>
      </trkpt>
      <trkpt lat="41.740164" lon="2.065924">
        <ele>753.6</ele>
        <time>2011-08-19T10:59:43Z</time>
      </trkpt>
      <trkpt lat="41.740198" lon="2.065819">
        <ele>753.0</ele>
        <time>2011-08-19T10:59:43Z</time>
      </trkpt>
      <trkpt lat="41.740226" lon="2.065660">
        <ele>752.7</ele>
        <time>2011-08-19T10:59:43Z</time>
      </trkpt>
      <trkpt lat="41.740265" lon="2.065522">
        <ele>753.5</ele>
        <time>2011-08-19T10:59:43Z</time>
      </trkpt>
      <trkpt lat="41.740332" lon="2.065441">
        <ele>752.9</ele>
        <time>2011-08-19T10:59:43Z</time>
      </trkpt>
      <trkpt lat="41.740385" lon="2.065377">
        <ele>752.5</ele>
        <time>2011-08-19T10:59:43Z</time>
      </trkpt>
      <trkpt lat="41.740465" lon="2.065293">
        <ele>752.2</ele>
        <time>2011-08-19T10:59:43Z</time>
      </trkpt>
      <trkpt lat="41.740524" lon="2.065244">
        <ele>751.4</ele>
        <time>2011-08-19T10:59:43Z</time>
      </trkpt>
      <trkpt lat="41.740582" lon="2.065154">
        <ele>750.6</ele>
        <time>2011-08-19T10:59:43Z</time>
      </trkpt>
      <trkpt lat="41.740632" lon="2.065049">
        <ele>750.0</ele>
        <time>2011-08-19T10:59:43Z</time>
      </trkpt>
      <trkpt lat="41.740674" lon="2.064944">
        <ele>749.5</ele>
        <time>2011-08-19T10:59:43Z</time>
      </trkpt>
      <trkpt lat="41.740729" lon="2.064812">
        <ele>748.4</ele>
        <time>2011-08-19T10:59:43Z</time>
      </trkpt>
      <trkpt lat="41.740759" lon="2.064698">
        <ele>747.2</ele>
        <time>2011-08-19T10:59:43Z</time>
      </trkpt>
      <trkpt lat="41.740776" lon="2.064581">
        <ele>746.0</ele>
        <time>2011-08-19T10:59:43Z</time>
      </trkpt>
      <trkpt lat="41.740778" lon="2.064492">
        <ele>745.4</ele>
        <time>2011-08-19T10:59:43Z</time>
      </trkpt>
      <trkpt lat="41.740783" lon="2.064360">
        <ele>744.6</ele>
        <time>2011-08-19T10:59:43Z</time>
      </trkpt>
      <trkpt lat="41.740769" lon="2.064280">
        <ele>744.5</ele>
        <time>2011-08-19T10:59:43Z</time>
      </trkpt>
      <trkpt lat="41.740781" lon="2.064140">
        <ele>744.8</ele>
        <time>2011-08-19T10:59:43Z</time>
      </trkpt>
      <trkpt lat="41.740839" lon="2.064085">
        <ele>744.8</ele>
        <time>2011-08-19T10:59:43Z</time>
      </trkpt>
      <trkpt lat="41.740915" lon="2.064021">
        <ele>744.5</ele>
        <time>2011-08-19T10:59:43Z</time>
      </trkpt>
      <trkpt lat="41.741010" lon="2.063978">
        <ele>743.0</ele>
        <time>2011-08-19T10:59:43Z</time>
      </trkpt>
      <trkpt lat="41.741144" lon="2.063937">
        <ele>740.9</ele>
        <time>2011-08-19T10:59:43Z</time>
      </trkpt>
      <trkpt lat="41.741285" lon="2.063906">
        <ele>739.1</ele>
        <time>2011-08-19T10:59:43Z</time>
      </trkpt>
      <trkpt lat="41.741422" lon="2.063832">
        <ele>738.2</ele>
        <time>2011-08-19T10:59:43Z</time>
      </trkpt>
      <trkpt lat="41.741495" lon="2.063723">
        <ele>738.0</ele>
        <time>2011-08-19T10:59:43Z</time>
      </trkpt>
      <trkpt lat="41.741562" lon="2.063657">
        <ele>737.1</ele>
        <time>2011-08-19T10:59:43Z</time>
      </trkpt>
      <trkpt lat="41.741626" lon="2.063554">
        <ele>736.0</ele>
        <time>2011-08-19T10:59:43Z</time>
      </trkpt>
      <trkpt lat="41.741656" lon="2.063447">
        <ele>735.5</ele>
        <time>2011-08-19T10:59:43Z</time>
      </trkpt>
      <trkpt lat="41.741684" lon="2.063303">
        <ele>734.5</ele>
        <time>2011-08-19T10:59:43Z</time>
      </trkpt>
      <trkpt lat="41.741687" lon="2.063151">
        <ele>734.3</ele>
        <time>2011-08-19T10:59:43Z</time>
      </trkpt>
      <trkpt lat="41.741666" lon="2.063005">
        <ele>734.7</ele>
        <time>2011-08-19T10:59:43Z</time>
      </trkpt>
      <trkpt lat="41.741634" lon="2.062889">
        <ele>735.1</ele>
        <time>2011-08-19T10:59:43Z</time>
      </trkpt>
      <trkpt lat="41.741626" lon="2.062788">
        <ele>735.0</ele>
        <time>2011-08-19T10:59:43Z</time>
      </trkpt>
      <trkpt lat="41.741634" lon="2.062665">
        <ele>735.5</ele>
        <time>2011-08-19T10:59:43Z</time>
      </trkpt>
      <trkpt lat="41.741685" lon="2.062584">
        <ele>736.3</ele>
        <time>2011-08-19T10:59:43Z</time>
      </trkpt>
      <trkpt lat="41.741754" lon="2.062577">
        <ele>736.0</ele>
        <time>2011-08-19T10:59:43Z</time>
      </trkpt>
      <trkpt lat="41.741846" lon="2.062570">
        <ele>735.7</ele>
        <time>2011-08-19T10:59:43Z</time>
      </trkpt>
      <trkpt lat="41.741955" lon="2.062592">
        <ele>735.5</ele>
        <time>2011-08-19T10:59:43Z</time>
      </trkpt>
      <trkpt lat="41.742074" lon="2.062584">
        <ele>736.1</ele>
        <time>2011-08-19T10:59:43Z</time>
      </trkpt>
      <trkpt lat="41.742179" lon="2.062577">
        <ele>736.8</ele>
        <time>2011-08-19T10:59:43Z</time>
      </trkpt>
      <trkpt lat="41.742275" lon="2.062632">
        <ele>737.2</ele>
        <time>2011-08-19T10:59:43Z</time>
      </trkpt>
      <trkpt lat="41.742354" lon="2.062709">
        <ele>737.2</ele>
        <time>2011-08-19T10:59:43Z</time>
      </trkpt>
      <trkpt lat="41.742383" lon="2.062771">
        <ele>736.9</ele>
        <time>2011-08-19T10:59:43Z</time>
      </trkpt>
      <trkpt lat="41.742429" lon="2.062866">
        <ele>736.5</ele>
        <time>2011-08-19T10:59:43Z</time>
      </trkpt>
      <trkpt lat="41.742474" lon="2.062931">
        <ele>736.4</ele>
        <time>2011-08-19T10:59:43Z</time>
      </trkpt>
      <trkpt lat="41.742526" lon="2.062987">
        <ele>736.5</ele>
        <time>2011-08-19T10:59:43Z</time>
      </trkpt>
      <trkpt lat="41.742610" lon="2.063085">
        <ele>736.7</ele>
        <time>2011-08-19T10:59:43Z</time>
      </trkpt>
      <trkpt lat="41.742637" lon="2.063159">
        <ele>736.2</ele>
        <time>2011-08-19T10:59:43Z</time>
      </trkpt>
      <trkpt lat="41.742673" lon="2.063229">
        <ele>736.0</ele>
        <time>2011-08-19T10:59:43Z</time>
      </trkpt>
      <trkpt lat="41.742705" lon="2.063285">
        <ele>736.0</ele>
        <time>2011-08-19T10:59:43Z</time>
      </trkpt>
      <trkpt lat="41.742755" lon="2.063377">
        <ele>736.1</ele>
        <time>2011-08-19T10:59:43Z</time>
      </trkpt>
      <trkpt lat="41.742842" lon="2.063456">
        <ele>737.1</ele>
        <time>2011-08-19T10:59:43Z</time>
      </trkpt>
      <trkpt lat="41.742938" lon="2.063508">
        <ele>738.5</ele>
        <time>2011-08-19T10:59:43Z</time>
      </trkpt>
      <trkpt lat="41.743061" lon="2.063527">
        <ele>739.9</ele>
        <time>2011-08-19T10:59:43Z</time>
      </trkpt>
      <trkpt lat="41.743139" lon="2.063532">
        <ele>740.7</ele>
        <time>2011-08-19T10:59:43Z</time>
      </trkpt>
      <trkpt lat="41.743242" lon="2.063578">
        <ele>741.6</ele>
        <time>2011-08-19T10:59:43Z</time>
      </trkpt>
      <trkpt lat="41.743284" lon="2.063607">
        <ele>742.3</ele>
        <time>2011-08-19T10:59:43Z</time>
      </trkpt>
      <trkpt lat="41.743330" lon="2.063719">
        <ele>742.0</ele>
        <time>2011-08-19T10:59:43Z</time>
      </trkpt>
      <trkpt lat="41.743364" lon="2.063850">
        <ele>741.2</ele>
        <time>2011-08-19T10:59:43Z</time>
      </trkpt>
      <trkpt lat="41.743405" lon="2.063962">
        <ele>740.7</ele>
        <time>2011-08-19T10:59:43Z</time>
      </trkpt>
      <trkpt lat="41.743455" lon="2.064039">
        <ele>740.6</ele>
        <time>2011-08-19T10:59:43Z</time>
      </trkpt>
      <trkpt lat="41.743518" lon="2.064086">
        <ele>740.8</ele>
        <time>2011-08-19T10:59:43Z</time>
      </trkpt>
      <trkpt lat="41.743645" lon="2.064084">
        <ele>739.8</ele>
        <time>2011-08-19T10:59:43Z</time>
      </trkpt>
      <trkpt lat="41.743769" lon="2.064067">
        <ele>739.2</ele>
        <time>2011-08-19T10:59:43Z</time>
      </trkpt>
      <trkpt lat="41.743836" lon="2.064019">
        <ele>739.2</ele>
        <time>2011-08-19T10:59:43Z</time>
      </trkpt>
      <trkpt lat="41.743918" lon="2.063967">
        <ele>738.7</ele>
        <time>2011-08-19T10:59:43Z</time>
      </trkpt>
      <trkpt lat="41.743993" lon="2.063918">
        <ele>738.1</ele>
        <time>2011-08-19T10:59:43Z</time>
      </trkpt>
      <trkpt lat="41.744059" lon="2.063864">
        <ele>737.9</ele>
        <time>2011-08-19T10:59:43Z</time>
      </trkpt>
      <trkpt lat="41.744112" lon="2.063782">
        <ele>738.7</ele>
        <time>2011-08-19T10:59:43Z</time>
      </trkpt>
      <trkpt lat="41.744176" lon="2.063683">
        <ele>739.8</ele>
        <time>2011-08-19T10:59:43Z</time>
      </trkpt>
      <trkpt lat="41.744218" lon="2.063594">
        <ele>740.9</ele>
        <time>2011-08-19T10:59:43Z</time>
      </trkpt>
      <trkpt lat="41.744259" lon="2.063480">
        <ele>742.2</ele>
        <time>2011-08-19T10:59:43Z</time>
      </trkpt>
      <trkpt lat="41.744300" lon="2.063337">
        <ele>744.7</ele>
        <time>2011-08-19T10:59:43Z</time>
      </trkpt>
      <trkpt lat="41.744324" lon="2.063280">
        <ele>746.2</ele>
        <time>2011-08-19T10:59:43Z</time>
      </trkpt>
      <trkpt lat="41.744381" lon="2.063184">
        <ele>749.4</ele>
        <time>2011-08-19T10:59:43Z</time>
      </trkpt>
      <trkpt lat="41.744439" lon="2.063150">
        <ele>750.7</ele>
        <time>2011-08-19T10:59:43Z</time>
      </trkpt>
      <trkpt lat="41.744501" lon="2.063182">
        <ele>750.2</ele>
        <time>2011-08-19T10:59:43Z</time>
      </trkpt>
      <trkpt lat="41.744553" lon="2.063282">
        <ele>747.9</ele>
        <time>2011-08-19T10:59:43Z</time>
      </trkpt>
      <trkpt lat="41.744628" lon="2.063376">
        <ele>746.1</ele>
        <time>2011-08-19T10:59:43Z</time>
      </trkpt>
      <trkpt lat="41.744728" lon="2.063399">
        <ele>745.8</ele>
        <time>2011-08-19T10:59:43Z</time>
      </trkpt>
      <trkpt lat="41.744815" lon="2.063421">
        <ele>745.4</ele>
        <time>2011-08-19T10:59:43Z</time>
      </trkpt>
      <trkpt lat="41.744909" lon="2.063402">
        <ele>746.1</ele>
        <time>2011-08-19T10:59:43Z</time>
      </trkpt>
      <trkpt lat="41.744989" lon="2.063398">
        <ele>746.2</ele>
        <time>2011-08-19T10:59:43Z</time>
      </trkpt>
      <trkpt lat="41.745086" lon="2.063361">
        <ele>747.4</ele>
        <time>2011-08-19T10:59:43Z</time>
      </trkpt>
      <trkpt lat="41.745160" lon="2.063330">
        <ele>748.5</ele>
        <time>2011-08-19T10:59:43Z</time>
      </trkpt>
      <trkpt lat="41.745249" lon="2.063332">
        <ele>748.7</ele>
        <time>2011-08-19T10:59:43Z</time>
      </trkpt>
      <trkpt lat="41.745356" lon="2.063363">
        <ele>748.0</ele>
        <time>2011-08-19T10:59:43Z</time>
      </trkpt>
      <trkpt lat="41.745456" lon="2.063391">
        <ele>747.9</ele>
        <time>2011-08-19T10:59:43Z</time>
      </trkpt>
      <trkpt lat="41.745568" lon="2.063428">
        <ele>748.7</ele>
        <time>2011-08-19T10:59:43Z</time>
      </trkpt>
      <trkpt lat="41.745633" lon="2.063490">
        <ele>749.1</ele>
        <time>2011-08-19T10:59:43Z</time>
      </trkpt>
      <trkpt lat="41.745636" lon="2.063585">
        <ele>748.5</ele>
        <time>2011-08-19T10:59:43Z</time>
      </trkpt>
      <trkpt lat="41.745604" lon="2.063713">
        <ele>747.1</ele>
        <time>2011-08-19T10:59:43Z</time>
      </trkpt>
      <trkpt lat="41.745560" lon="2.063785">
        <ele>746.5</ele>
        <time>2011-08-19T10:59:43Z</time>
      </trkpt>
      <trkpt lat="41.745507" lon="2.063893">
        <ele>747.1</ele>
        <time>2011-08-19T10:59:43Z</time>
      </trkpt>
      <trkpt lat="41.745452" lon="2.063971">
        <ele>747.1</ele>
        <time>2011-08-19T10:59:43Z</time>
      </trkpt>
      <trkpt lat="41.745390" lon="2.064049">
        <ele>746.9</ele>
        <time>2011-08-19T10:59:43Z</time>
      </trkpt>
      <trkpt lat="41.745307" lon="2.064152">
        <ele>746.5</ele>
        <time>2011-08-19T10:59:43Z</time>
      </trkpt>
      <trkpt lat="41.745232" lon="2.064263">
        <ele>747.0</ele>
        <time>2011-08-19T10:59:43Z</time>
      </trkpt>
      <trkpt lat="41.745195" lon="2.064400">
        <ele>748.8</ele>
        <time>2011-08-19T10:59:43Z</time>
      </trkpt>
      <trkpt lat="41.745150" lon="2.064561">
        <ele>750.2</ele>
        <time>2011-08-19T10:59:43Z</time>
      </trkpt>
      <trkpt lat="41.745107" lon="2.064726">
        <ele>750.8</ele>
        <time>2011-08-19T10:59:43Z</time>
      </trkpt>
      <trkpt lat="41.745083" lon="2.064848">
        <ele>751.5</ele>
        <time>2011-08-19T10:59:43Z</time>
      </trkpt>
      <trkpt lat="41.745068" lon="2.064955">
        <ele>752.9</ele>
        <time>2011-08-19T10:59:43Z</time>
      </trkpt>
      <trkpt lat="41.745009" lon="2.065054">
        <ele>752.9</ele>
        <time>2011-08-19T10:59:43Z</time>
      </trkpt>
      <trkpt lat="41.744977" lon="2.065177">
        <ele>754.3</ele>
        <time>2011-08-19T10:59:43Z</time>
      </trkpt>
      <trkpt lat="41.744954" lon="2.065370">
        <ele>755.4</ele>
        <time>2011-08-19T10:59:43Z</time>
      </trkpt>
      <trkpt lat="41.744957" lon="2.065569">
        <ele>756.9</ele>
        <time>2011-08-19T10:59:43Z</time>
      </trkpt>
      <trkpt lat="41.744943" lon="2.065730">
        <ele>757.4</ele>
        <time>2011-08-19T10:59:43Z</time>
      </trkpt>
      <trkpt lat="41.744940" lon="2.065891">
        <ele>758.0</ele>
        <time>2011-08-19T10:59:43Z</time>
      </trkpt>
      <trkpt lat="41.744946" lon="2.066060">
        <ele>757.5</ele>
        <time>2011-08-19T10:59:43Z</time>
      </trkpt>
      <trkpt lat="41.744971" lon="2.066176">
        <ele>757.2</ele>
        <time>2011-08-19T10:59:43Z</time>
      </trkpt>
      <trkpt lat="41.745010" lon="2.066285">
        <ele>757.0</ele>
        <time>2011-08-19T10:59:43Z</time>
      </trkpt>
      <trkpt lat="41.745068" lon="2.066335">
        <ele>757.0</ele>
        <time>2011-08-19T10:59:43Z</time>
      </trkpt>
      <trkpt lat="41.745153" lon="2.066364">
        <ele>757.3</ele>
        <time>2011-08-19T10:59:43Z</time>
      </trkpt>
      <trkpt lat="41.745242" lon="2.066371">
        <ele>756.2</ele>
        <time>2011-08-19T10:59:43Z</time>
      </trkpt>
      <trkpt lat="41.745365" lon="2.066372">
        <ele>754.9</ele>
        <time>2011-08-19T10:59:43Z</time>
      </trkpt>
      <trkpt lat="41.745478" lon="2.066308">
        <ele>755.3</ele>
        <time>2011-08-19T10:59:43Z</time>
      </trkpt>
      <trkpt lat="41.745549" lon="2.066251">
        <ele>755.8</ele>
        <time>2011-08-19T10:59:43Z</time>
      </trkpt>
      <trkpt lat="41.745611" lon="2.066208">
        <ele>756.0</ele>
        <time>2011-08-19T10:59:43Z</time>
      </trkpt>
      <trkpt lat="41.745682" lon="2.066171">
        <ele>756.1</ele>
        <time>2011-08-19T10:59:43Z</time>
      </trkpt>
      <trkpt lat="41.745798" lon="2.066185">
        <ele>756.3</ele>
        <time>2011-08-19T10:59:43Z</time>
      </trkpt>
      <trkpt lat="41.745907" lon="2.066222">
        <ele>756.0</ele>
        <time>2011-08-19T10:59:43Z</time>
      </trkpt>
      <trkpt lat="41.746008" lon="2.066271">
        <ele>755.9</ele>
        <time>2011-08-19T10:59:43Z</time>
      </trkpt>
      <trkpt lat="41.746115" lon="2.066329">
        <ele>755.7</ele>
        <time>2011-08-19T10:59:43Z</time>
      </trkpt>
      <trkpt lat="41.746234" lon="2.066392">
        <ele>755.4</ele>
        <time>2011-08-19T10:59:43Z</time>
      </trkpt>
      <trkpt lat="41.746307" lon="2.066406">
        <ele>755.6</ele>
        <time>2011-08-19T10:59:43Z</time>
      </trkpt>
      <trkpt lat="41.746385" lon="2.066432">
        <ele>755.5</ele>
        <time>2011-08-19T10:59:43Z</time>
      </trkpt>
      <trkpt lat="41.746486" lon="2.066454">
        <ele>755.7</ele>
        <time>2011-08-19T10:59:43Z</time>
      </trkpt>
      <trkpt lat="41.746609" lon="2.066491">
        <ele>756.2</ele>
        <time>2011-08-19T10:59:43Z</time>
      </trkpt>
      <trkpt lat="41.746682" lon="2.066535">
        <ele>756.1</ele>
        <time>2011-08-19T10:59:43Z</time>
      </trkpt>
      <trkpt lat="41.746754" lon="2.066620">
        <ele>754.9</ele>
        <time>2011-08-19T10:59:43Z</time>
      </trkpt>
      <trkpt lat="41.746822" lon="2.066735">
        <ele>755.3</ele>
        <time>2011-08-19T10:59:43Z</time>
      </trkpt>
      <trkpt lat="41.746888" lon="2.066850">
        <ele>756.2</ele>
        <time>2011-08-19T10:59:43Z</time>
      </trkpt>
      <trkpt lat="41.746931" lon="2.066947">
        <ele>756.8</ele>
        <time>2011-08-19T10:59:43Z</time>
      </trkpt>
      <trkpt lat="41.746945" lon="2.067084">
        <ele>757.3</ele>
        <time>2011-08-19T10:59:43Z</time>
      </trkpt>
      <trkpt lat="41.746946" lon="2.067230">
        <ele>757.7</ele>
        <time>2011-08-19T10:59:43Z</time>
      </trkpt>
      <trkpt lat="41.746914" lon="2.067349">
        <ele>757.1</ele>
        <time>2011-08-19T10:59:43Z</time>
      </trkpt>
      <trkpt lat="41.746904" lon="2.067543">
        <ele>758.4</ele>
        <time>2011-08-19T10:59:43Z</time>
      </trkpt>
      <trkpt lat="41.746897" lon="2.067739">
        <ele>759.6</ele>
        <time>2011-08-19T10:59:43Z</time>
      </trkpt>
      <trkpt lat="41.746914" lon="2.067893">
        <ele>759.9</ele>
        <time>2011-08-19T10:59:43Z</time>
      </trkpt>
      <trkpt lat="41.746920" lon="2.068042">
        <ele>760.1</ele>
        <time>2011-08-19T10:59:43Z</time>
      </trkpt>
      <trkpt lat="41.746936" lon="2.068179">
        <ele>760.4</ele>
        <time>2011-08-19T10:59:43Z</time>
      </trkpt>
      <trkpt lat="41.746955" lon="2.068291">
        <ele>760.7</ele>
        <time>2011-08-19T10:59:43Z</time>
      </trkpt>
      <trkpt lat="41.746985" lon="2.068398">
        <ele>761.2</ele>
        <time>2011-08-19T10:59:43Z</time>
      </trkpt>
      <trkpt lat="41.747035" lon="2.068489">
        <ele>762.6</ele>
        <time>2011-08-19T10:59:43Z</time>
      </trkpt>
      <trkpt lat="41.747111" lon="2.068527">
        <ele>763.0</ele>
        <time>2011-08-19T10:59:43Z</time>
      </trkpt>
      <trkpt lat="41.747193" lon="2.068547">
        <ele>762.5</ele>
        <time>2011-08-19T10:59:43Z</time>
      </trkpt>
      <trkpt lat="41.747281" lon="2.068522">
        <ele>762.0</ele>
        <time>2011-08-19T10:59:43Z</time>
      </trkpt>
      <trkpt lat="41.747335" lon="2.068467">
        <ele>761.6</ele>
        <time>2011-08-19T10:59:43Z</time>
      </trkpt>
      <trkpt lat="41.747402" lon="2.068401">
        <ele>759.7</ele>
        <time>2011-08-19T10:59:43Z</time>
      </trkpt>
      <trkpt lat="41.747456" lon="2.068345">
        <ele>758.7</ele>
        <time>2011-08-19T10:59:43Z</time>
      </trkpt>
      <trkpt lat="41.747513" lon="2.068279">
        <ele>757.7</ele>
        <time>2011-08-19T10:59:43Z</time>
      </trkpt>
      <trkpt lat="41.747573" lon="2.068208">
        <ele>756.6</ele>
        <time>2011-08-19T10:59:43Z</time>
      </trkpt>
      <trkpt lat="41.747620" lon="2.068140">
        <ele>755.7</ele>
        <time>2011-08-19T10:59:43Z</time>
      </trkpt>
      <trkpt lat="41.747666" lon="2.068056">
        <ele>755.0</ele>
        <time>2011-08-19T10:59:43Z</time>
      </trkpt>
      <trkpt lat="41.747712" lon="2.067988">
        <ele>753.5</ele>
        <time>2011-08-19T10:59:43Z</time>
      </trkpt>
      <trkpt lat="41.747743" lon="2.067924">
        <ele>752.6</ele>
        <time>2011-08-19T10:59:43Z</time>
      </trkpt>
      <trkpt lat="41.747758" lon="2.067854">
        <ele>752.3</ele>
        <time>2011-08-19T10:59:43Z</time>
      </trkpt>
      <trkpt lat="41.747760" lon="2.067792">
        <ele>752.6</ele>
        <time>2011-08-19T10:59:43Z</time>
      </trkpt>
      <trkpt lat="41.747743" lon="2.067706">
        <ele>753.7</ele>
        <time>2011-08-19T10:59:43Z</time>
      </trkpt>
      <trkpt lat="41.747716" lon="2.067606">
        <ele>753.6</ele>
        <time>2011-08-19T10:59:43Z</time>
      </trkpt>
      <trkpt lat="41.747689" lon="2.067504">
        <ele>753.4</ele>
        <time>2011-08-19T10:59:43Z</time>
      </trkpt>
      <trkpt lat="41.747655" lon="2.067360">
        <ele>753.1</ele>
        <time>2011-08-19T10:59:43Z</time>
      </trkpt>
      <trkpt lat="41.747628" lon="2.067279">
        <ele>753.3</ele>
        <time>2011-08-19T10:59:43Z</time>
      </trkpt>
      <trkpt lat="41.747605" lon="2.067173">
        <ele>752.9</ele>
        <time>2011-08-19T10:59:43Z</time>
      </trkpt>
      <trkpt lat="41.747585" lon="2.067110">
        <ele>752.9</ele>
        <time>2011-08-19T10:59:43Z</time>
      </trkpt>
      <trkpt lat="41.747555" lon="2.067008">
        <ele>752.6</ele>
        <time>2011-08-19T10:59:43Z</time>
      </trkpt>
      <trkpt lat="41.747531" lon="2.066881">
        <ele>752.2</ele>
        <time>2011-08-19T10:59:43Z</time>
      </trkpt>
      <trkpt lat="41.747513" lon="2.066776">
        <ele>751.9</ele>
        <time>2011-08-19T10:59:43Z</time>
      </trkpt>
      <trkpt lat="41.747500" lon="2.066658">
        <ele>751.4</ele>
        <time>2011-08-19T10:59:43Z</time>
      </trkpt>
      <trkpt lat="41.747477" lon="2.066512">
        <ele>751.1</ele>
        <time>2011-08-19T10:59:43Z</time>
      </trkpt>
      <trkpt lat="41.747454" lon="2.066377">
        <ele>751.0</ele>
        <time>2011-08-19T10:59:43Z</time>
      </trkpt>
      <trkpt lat="41.747443" lon="2.066284">
        <ele>750.7</ele>
        <time>2011-08-19T10:59:43Z</time>
      </trkpt>
      <trkpt lat="41.747433" lon="2.066157">
        <ele>750.2</ele>
        <time>2011-08-19T10:59:43Z</time>
      </trkpt>
      <trkpt lat="41.747428" lon="2.066045">
        <ele>749.6</ele>
        <time>2011-08-19T10:59:43Z</time>
      </trkpt>
      <trkpt lat="41.747443" lon="2.065884">
        <ele>747.8</ele>
        <time>2011-08-19T10:59:43Z</time>
      </trkpt>
      <trkpt lat="41.747454" lon="2.065756">
        <ele>746.5</ele>
        <time>2011-08-19T10:59:43Z</time>
      </trkpt>
      <trkpt lat="41.747469" lon="2.065644">
        <ele>745.1</ele>
        <time>2011-08-19T10:59:43Z</time>
      </trkpt>
      <trkpt lat="41.747479" lon="2.065586">
        <ele>744.2</ele>
        <time>2011-08-19T10:59:43Z</time>
      </trkpt>
      <trkpt lat="41.747497" lon="2.065504">
        <ele>742.9</ele>
        <time>2011-08-19T10:59:43Z</time>
      </trkpt>
      <trkpt lat="41.747517" lon="2.065374">
        <ele>741.6</ele>
        <time>2011-08-19T10:59:43Z</time>
      </trkpt>
      <trkpt lat="41.747545" lon="2.065252">
        <ele>739.7</ele>
        <time>2011-08-19T10:59:43Z</time>
      </trkpt>
      <trkpt lat="41.747562" lon="2.065115">
        <ele>738.9</ele>
        <time>2011-08-19T10:59:43Z</time>
      </trkpt>
      <trkpt lat="41.747585" lon="2.065005">
        <ele>738.4</ele>
        <time>2011-08-19T10:59:43Z</time>
      </trkpt>
      <trkpt lat="41.747604" lon="2.064912">
        <ele>738.2</ele>
        <time>2011-08-19T10:59:43Z</time>
      </trkpt>
      <trkpt lat="41.747636" lon="2.064800">
        <ele>737.8</ele>
        <time>2011-08-19T10:59:43Z</time>
      </trkpt>
      <trkpt lat="41.747672" lon="2.064683">
        <ele>738.7</ele>
        <time>2011-08-19T10:59:43Z</time>
      </trkpt>
      <trkpt lat="41.747700" lon="2.064569">
        <ele>740.1</ele>
        <time>2011-08-19T10:59:43Z</time>
      </trkpt>
      <trkpt lat="41.747726" lon="2.064505">
        <ele>740.7</ele>
        <time>2011-08-19T10:59:43Z</time>
      </trkpt>
      <trkpt lat="41.747772" lon="2.064451">
        <ele>740.7</ele>
        <time>2011-08-19T10:59:43Z</time>
      </trkpt>
      <trkpt lat="41.747830" lon="2.064413">
        <ele>740.6</ele>
        <time>2011-08-19T10:59:43Z</time>
      </trkpt>
      <trkpt lat="41.747904" lon="2.064408">
        <ele>739.1</ele>
        <time>2011-08-19T10:59:43Z</time>
      </trkpt>
      <trkpt lat="41.748016" lon="2.064387">
        <ele>737.5</ele>
        <time>2011-08-19T10:59:43Z</time>
      </trkpt>
      <trkpt lat="41.748064" lon="2.064377">
        <ele>736.9</ele>
        <time>2011-08-19T10:59:43Z</time>
      </trkpt>
      <trkpt lat="41.748155" lon="2.064339">
        <ele>736.1</ele>
        <time>2011-08-19T10:59:43Z</time>
      </trkpt>
      <trkpt lat="41.748229" lon="2.064312">
        <ele>734.9</ele>
        <time>2011-08-19T10:59:43Z</time>
      </trkpt>
      <trkpt lat="41.748285" lon="2.064279">
        <ele>734.5</ele>
        <time>2011-08-19T10:59:43Z</time>
      </trkpt>
      <trkpt lat="41.748351" lon="2.064234">
        <ele>734.2</ele>
        <time>2011-08-19T10:59:43Z</time>
      </trkpt>
      <trkpt lat="41.748438" lon="2.064235">
        <ele>732.1</ele>
        <time>2011-08-19T10:59:43Z</time>
      </trkpt>
      <trkpt lat="41.748541" lon="2.064236">
        <ele>730.0</ele>
        <time>2011-08-19T10:59:43Z</time>
      </trkpt>
      <trkpt lat="41.748617" lon="2.064213">
        <ele>729.2</ele>
        <time>2011-08-19T10:59:43Z</time>
      </trkpt>
      <trkpt lat="41.748714" lon="2.064163">
        <ele>728.7</ele>
        <time>2011-08-19T10:59:43Z</time>
      </trkpt>
      <trkpt lat="41.748757" lon="2.064105">
        <ele>729.2</ele>
        <time>2011-08-19T10:59:43Z</time>
      </trkpt>
      <trkpt lat="41.748788" lon="2.064032">
        <ele>729.2</ele>
        <time>2011-08-19T10:59:43Z</time>
      </trkpt>
      <trkpt lat="41.748803" lon="2.063948">
        <ele>728.9</ele>
        <time>2011-08-19T10:59:43Z</time>
      </trkpt>
      <trkpt lat="41.748802" lon="2.063808">
        <ele>728.9</ele>
        <time>2011-08-19T10:59:43Z</time>
      </trkpt>
      <trkpt lat="41.748810" lon="2.063752">
        <ele>728.6</ele>
        <time>2011-08-19T10:59:43Z</time>
      </trkpt>
      <trkpt lat="41.748839" lon="2.063624">
        <ele>728.1</ele>
        <time>2011-08-19T10:59:43Z</time>
      </trkpt>
      <trkpt lat="41.748860" lon="2.063501">
        <ele>728.3</ele>
        <time>2011-08-19T10:59:43Z</time>
      </trkpt>
      <trkpt lat="41.748881" lon="2.063412">
        <ele>728.3</ele>
        <time>2011-08-19T10:59:43Z</time>
      </trkpt>
      <trkpt lat="41.748911" lon="2.063337">
        <ele>728.1</ele>
        <time>2011-08-19T10:59:43Z</time>
      </trkpt>
      <trkpt lat="41.748972" lon="2.063304">
        <ele>727.3</ele>
        <time>2011-08-19T10:59:43Z</time>
      </trkpt>
      <trkpt lat="41.749050" lon="2.063265">
        <ele>726.2</ele>
        <time>2011-08-19T10:59:43Z</time>
      </trkpt>
      <trkpt lat="41.749192" lon="2.063193">
        <ele>724.7</ele>
        <time>2011-08-19T10:59:43Z</time>
      </trkpt>
      <trkpt lat="41.749251" lon="2.063146">
        <ele>724.5</ele>
        <time>2011-08-19T10:59:43Z</time>
      </trkpt>
      <trkpt lat="41.749312" lon="2.063106">
        <ele>724.1</ele>
        <time>2011-08-19T10:59:43Z</time>
      </trkpt>
      <trkpt lat="41.749395" lon="2.063049">
        <ele>723.8</ele>
        <time>2011-08-19T10:59:43Z</time>
      </trkpt>
      <trkpt lat="41.749466" lon="2.063013">
        <ele>723.3</ele>
        <time>2011-08-19T10:59:43Z</time>
      </trkpt>
      <trkpt lat="41.749546" lon="2.062972">
        <ele>722.8</ele>
        <time>2011-08-19T10:59:43Z</time>
      </trkpt>
      <trkpt lat="41.749618" lon="2.062929">
        <ele>721.7</ele>
        <time>2011-08-19T10:59:43Z</time>
      </trkpt>
      <trkpt lat="41.749683" lon="2.062891">
        <ele>720.8</ele>
        <time>2011-08-19T10:59:43Z</time>
      </trkpt>
      <trkpt lat="41.749755" lon="2.062846">
        <ele>719.6</ele>
        <time>2011-08-19T10:59:43Z</time>
      </trkpt>
      <trkpt lat="41.749804" lon="2.062796">
        <ele>718.9</ele>
        <time>2011-08-19T10:59:43Z</time>
      </trkpt>
      <trkpt lat="41.749854" lon="2.062746">
        <ele>718.2</ele>
        <time>2011-08-19T10:59:43Z</time>
      </trkpt>
      <trkpt lat="41.749892" lon="2.062709">
        <ele>717.8</ele>
        <time>2011-08-19T10:59:43Z</time>
      </trkpt>
      <trkpt lat="41.749919" lon="2.062655">
        <ele>717.9</ele>
        <time>2011-08-19T10:59:43Z</time>
      </trkpt>
      <trkpt lat="41.749908" lon="2.062585">
        <ele>718.7</ele>
        <time>2011-08-19T10:59:43Z</time>
      </trkpt>
      <trkpt lat="41.749880" lon="2.062500">
        <ele>718.9</ele>
        <time>2011-08-19T10:59:43Z</time>
      </trkpt>
      <trkpt lat="41.749815" lon="2.062418">
        <ele>719.7</ele>
        <time>2011-08-19T10:59:43Z</time>
      </trkpt>
      <trkpt lat="41.749746" lon="2.062351">
        <ele>720.4</ele>
        <time>2011-08-19T10:59:43Z</time>
      </trkpt>
      <trkpt lat="41.749700" lon="2.062317">
        <ele>720.8</ele>
        <time>2011-08-19T10:59:43Z</time>
      </trkpt>
      <trkpt lat="41.749609" lon="2.062210">
        <ele>720.7</ele>
        <time>2011-08-19T10:59:43Z</time>
      </trkpt>
      <trkpt lat="41.749545" lon="2.062152">
        <ele>720.7</ele>
        <time>2011-08-19T10:59:43Z</time>
      </trkpt>
      <trkpt lat="41.749454" lon="2.062048">
        <ele>720.3</ele>
        <time>2011-08-19T10:59:43Z</time>
      </trkpt>
      <trkpt lat="41.749390" lon="2.061988">
        <ele>720.3</ele>
        <time>2011-08-19T10:59:43Z</time>
      </trkpt>
      <trkpt lat="41.749304" lon="2.061916">
        <ele>720.7</ele>
        <time>2011-08-19T10:59:43Z</time>
      </trkpt>
      <trkpt lat="41.749216" lon="2.061838">
        <ele>720.5</ele>
        <time>2011-08-19T10:59:43Z</time>
      </trkpt>
      <trkpt lat="41.749141" lon="2.061784">
        <ele>720.6</ele>
        <time>2011-08-19T10:59:43Z</time>
      </trkpt>
      <trkpt lat="41.749060" lon="2.061738">
        <ele>721.3</ele>
        <time>2011-08-19T10:59:43Z</time>
      </trkpt>
      <trkpt lat="41.748974" lon="2.061684">
        <ele>721.6</ele>
        <time>2011-08-19T10:59:43Z</time>
      </trkpt>
      <trkpt lat="41.748850" lon="2.061609">
        <ele>723.0</ele>
        <time>2011-08-19T10:59:43Z</time>
      </trkpt>
      <trkpt lat="41.748782" lon="2.061546">
        <ele>724.7</ele>
        <time>2011-08-19T10:59:43Z</time>
      </trkpt>
      <trkpt lat="41.748764" lon="2.061482">
        <ele>724.2</ele>
        <time>2011-08-19T10:59:43Z</time>
      </trkpt>
      <trkpt lat="41.748754" lon="2.061333">
        <ele>721.6</ele>
        <time>2011-08-19T10:59:43Z</time>
      </trkpt>
      <trkpt lat="41.748737" lon="2.061207">
        <ele>719.8</ele>
        <time>2011-08-19T10:59:43Z</time>
      </trkpt>
      <trkpt lat="41.748684" lon="2.061070">
        <ele>719.3</ele>
        <time>2011-08-19T10:59:43Z</time>
      </trkpt>
      <trkpt lat="41.748608" lon="2.060960">
        <ele>719.3</ele>
        <time>2011-08-19T10:59:43Z</time>
      </trkpt>
      <trkpt lat="41.748447" lon="2.060781">
        <ele>716.6</ele>
        <time>2011-08-19T10:59:43Z</time>
      </trkpt>
      <trkpt lat="41.748389" lon="2.060720">
        <ele>715.6</ele>
        <time>2011-08-19T10:59:43Z</time>
      </trkpt>
      <trkpt lat="41.748306" lon="2.060646">
        <ele>714.2</ele>
        <time>2011-08-19T10:59:43Z</time>
      </trkpt>
      <trkpt lat="41.748182" lon="2.060589">
        <ele>713.5</ele>
        <time>2011-08-19T10:59:43Z</time>
      </trkpt>
      <trkpt lat="41.748084" lon="2.060573">
        <ele>714.0</ele>
        <time>2011-08-19T10:59:43Z</time>
      </trkpt>
      <trkpt lat="41.748020" lon="2.060568">
        <ele>714.9</ele>
        <time>2011-08-19T10:59:43Z</time>
      </trkpt>
      <trkpt lat="41.747945" lon="2.060572">
        <ele>716.4</ele>
        <time>2011-08-19T10:59:43Z</time>
      </trkpt>
      <trkpt lat="41.747853" lon="2.060544">
        <ele>717.7</ele>
        <time>2011-08-19T10:59:43Z</time>
      </trkpt>
      <trkpt lat="41.747813" lon="2.060471">
        <ele>717.7</ele>
        <time>2011-08-19T10:59:43Z</time>
      </trkpt>
      <trkpt lat="41.747782" lon="2.060360">
        <ele>717.7</ele>
        <time>2011-08-19T10:59:43Z</time>
      </trkpt>
      <trkpt lat="41.747746" lon="2.060264">
        <ele>717.9</ele>
        <time>2011-08-19T10:59:43Z</time>
      </trkpt>
      <trkpt lat="41.747669" lon="2.060201">
        <ele>719.4</ele>
        <time>2011-08-19T10:59:43Z</time>
      </trkpt>
      <trkpt lat="41.747574" lon="2.060147">
        <ele>721.3</ele>
        <time>2011-08-19T10:59:43Z</time>
      </trkpt>
      <trkpt lat="41.747455" lon="2.060093">
        <ele>723.1</ele>
        <time>2011-08-19T10:59:43Z</time>
      </trkpt>
      <trkpt lat="41.747380" lon="2.060077">
        <ele>724.4</ele>
        <time>2011-08-19T10:59:43Z</time>
      </trkpt>
      <trkpt lat="41.747319" lon="2.060031">
        <ele>725.4</ele>
        <time>2011-08-19T10:59:43Z</time>
      </trkpt>
      <trkpt lat="41.747294" lon="2.059984">
        <ele>725.7</ele>
        <time>2011-08-19T10:59:43Z</time>
      </trkpt>
      <trkpt lat="41.747293" lon="2.059861">
        <ele>725.2</ele>
        <time>2011-08-19T10:59:43Z</time>
      </trkpt>
      <trkpt lat="41.747319" lon="2.059808">
        <ele>724.1</ele>
        <time>2011-08-19T10:59:43Z</time>
      </trkpt>
      <trkpt lat="41.747371" lon="2.059711">
        <ele>722.2</ele>
        <time>2011-08-19T10:59:43Z</time>
      </trkpt>
      <trkpt lat="41.747412" lon="2.059596">
        <ele>720.7</ele>
        <time>2011-08-19T10:59:43Z</time>
      </trkpt>
      <trkpt lat="41.747428" lon="2.059485">
        <ele>719.9</ele>
        <time>2011-08-19T10:59:43Z</time>
      </trkpt>
      <trkpt lat="41.747433" lon="2.059344">
        <ele>718.9</ele>
        <time>2011-08-19T10:59:43Z</time>
      </trkpt>
      <trkpt lat="41.747397" lon="2.059184">
        <ele>718.1</ele>
        <time>2011-08-19T10:59:43Z</time>
      </trkpt>
      <trkpt lat="41.747337" lon="2.059047">
        <ele>718.2</ele>
        <time>2011-08-19T10:59:43Z</time>
      </trkpt>
      <trkpt lat="41.747292" lon="2.058902">
        <ele>717.5</ele>
        <time>2011-08-19T10:59:43Z</time>
      </trkpt>
      <trkpt lat="41.747242" lon="2.058712">
        <ele>716.6</ele>
        <time>2011-08-19T10:59:43Z</time>
      </trkpt>
      <trkpt lat="41.747223" lon="2.058575">
        <ele>715.7</ele>
        <time>2011-08-19T10:59:43Z</time>
      </trkpt>
      <trkpt lat="41.747187" lon="2.058385">
        <ele>714.8</ele>
        <time>2011-08-19T10:59:43Z</time>
      </trkpt>
      <trkpt lat="41.747151" lon="2.058236">
        <ele>713.7</ele>
        <time>2011-08-19T10:59:43Z</time>
      </trkpt>
      <trkpt lat="41.747095" lon="2.058123">
        <ele>713.3</ele>
        <time>2011-08-19T10:59:43Z</time>
      </trkpt>
      <trkpt lat="41.747017" lon="2.058010">
        <ele>713.5</ele>
        <time>2011-08-19T10:59:43Z</time>
      </trkpt>
      <trkpt lat="41.746948" lon="2.057911">
        <ele>713.6</ele>
        <time>2011-08-19T10:59:43Z</time>
      </trkpt>
      <trkpt lat="41.746888" lon="2.057819">
        <ele>712.7</ele>
        <time>2011-08-19T10:59:43Z</time>
      </trkpt>
      <trkpt lat="41.746875" lon="2.057749">
        <ele>712.0</ele>
        <time>2011-08-19T10:59:43Z</time>
      </trkpt>
      <trkpt lat="41.746872" lon="2.057643">
        <ele>711.0</ele>
        <time>2011-08-19T10:59:43Z</time>
      </trkpt>
      <trkpt lat="41.746852" lon="2.057398">
        <ele>709.7</ele>
        <time>2011-08-19T10:59:43Z</time>
      </trkpt>
      <trkpt lat="41.746864" lon="2.057272">
        <ele>709.1</ele>
        <time>2011-08-19T10:59:43Z</time>
      </trkpt>
      <trkpt lat="41.746876" lon="2.057090">
        <ele>707.5</ele>
        <time>2011-08-19T10:59:43Z</time>
      </trkpt>
      <trkpt lat="41.746892" lon="2.056926">
        <ele>705.9</ele>
        <time>2011-08-19T10:59:43Z</time>
      </trkpt>
      <trkpt lat="41.746910" lon="2.056750">
        <ele>704.7</ele>
        <time>2011-08-19T10:59:43Z</time>
      </trkpt>
      <trkpt lat="41.746948" lon="2.056583">
        <ele>704.2</ele>
        <time>2011-08-19T10:59:43Z</time>
      </trkpt>
      <trkpt lat="41.747002" lon="2.056392">
        <ele>702.1</ele>
        <time>2011-08-19T10:59:43Z</time>
      </trkpt>
      <trkpt lat="41.747029" lon="2.056239">
        <ele>701.0</ele>
        <time>2011-08-19T10:59:43Z</time>
      </trkpt>
      <trkpt lat="41.747060" lon="2.056057">
        <ele>699.8</ele>
        <time>2011-08-19T10:59:43Z</time>
      </trkpt>
      <trkpt lat="41.747080" lon="2.055852">
        <ele>699.2</ele>
        <time>2011-08-19T10:59:43Z</time>
      </trkpt>
      <trkpt lat="41.747085" lon="2.055633">
        <ele>698.6</ele>
        <time>2011-08-19T10:59:43Z</time>
      </trkpt>
      <trkpt lat="41.747099" lon="2.055477">
        <ele>697.9</ele>
        <time>2011-08-19T10:59:43Z</time>
      </trkpt>
      <trkpt lat="41.747133" lon="2.055327">
        <ele>697.1</ele>
        <time>2011-08-19T10:59:43Z</time>
      </trkpt>
      <trkpt lat="41.747123" lon="2.055211">
        <ele>697.0</ele>
        <time>2011-08-19T10:59:43Z</time>
      </trkpt>
      <trkpt lat="41.747100" lon="2.055047">
        <ele>696.7</ele>
        <time>2011-08-19T10:59:43Z</time>
      </trkpt>
      <trkpt lat="41.747068" lon="2.054910">
        <ele>695.8</ele>
        <time>2011-08-19T10:59:43Z</time>
      </trkpt>
      <trkpt lat="41.747040" lon="2.054714">
        <ele>694.1</ele>
        <time>2011-08-19T10:59:43Z</time>
      </trkpt>
      <trkpt lat="41.747046" lon="2.054591">
        <ele>692.8</ele>
        <time>2011-08-19T10:59:43Z</time>
      </trkpt>
      <trkpt lat="41.747089" lon="2.054438">
        <ele>692.1</ele>
        <time>2011-08-19T10:59:43Z</time>
      </trkpt>
      <trkpt lat="41.747162" lon="2.054306">
        <ele>692.2</ele>
        <time>2011-08-19T10:59:43Z</time>
      </trkpt>
      <trkpt lat="41.747266" lon="2.054137">
        <ele>691.1</ele>
        <time>2011-08-19T10:59:43Z</time>
      </trkpt>
      <trkpt lat="41.747337" lon="2.054005">
        <ele>690.1</ele>
        <time>2011-08-19T10:59:43Z</time>
      </trkpt>
      <trkpt lat="41.747415" lon="2.053866">
        <ele>689.0</ele>
        <time>2011-08-19T10:59:43Z</time>
      </trkpt>
      <trkpt lat="41.747490" lon="2.053683">
        <ele>687.6</ele>
        <time>2011-08-19T10:59:43Z</time>
      </trkpt>
      <trkpt lat="41.747598" lon="2.053506">
        <ele>685.4</ele>
        <time>2011-08-19T10:59:43Z</time>
      </trkpt>
      <trkpt lat="41.747641" lon="2.053409">
        <ele>684.5</ele>
        <time>2011-08-19T10:59:43Z</time>
      </trkpt>
      <trkpt lat="41.747697" lon="2.053268">
        <ele>683.7</ele>
        <time>2011-08-19T10:59:43Z</time>
      </trkpt>
      <trkpt lat="41.747754" lon="2.053211">
        <ele>683.6</ele>
        <time>2011-08-19T10:59:43Z</time>
      </trkpt>
      <trkpt lat="41.747819" lon="2.053152">
        <ele>682.7</ele>
        <time>2011-08-19T10:59:43Z</time>
      </trkpt>
      <trkpt lat="41.747956" lon="2.053030">
        <ele>681.4</ele>
        <time>2011-08-19T10:59:43Z</time>
      </trkpt>
      <trkpt lat="41.748034" lon="2.052961">
        <ele>680.7</ele>
        <time>2011-08-19T10:59:43Z</time>
      </trkpt>
      <trkpt lat="41.748125" lon="2.052869">
        <ele>680.2</ele>
        <time>2011-08-19T10:59:43Z</time>
      </trkpt>
      <trkpt lat="41.748164" lon="2.052789">
        <ele>680.1</ele>
        <time>2011-08-19T10:59:43Z</time>
      </trkpt>
      <trkpt lat="41.748228" lon="2.052731">
        <ele>680.0</ele>
        <time>2011-08-19T10:59:43Z</time>
      </trkpt>
      <trkpt lat="41.748311" lon="2.052707">
        <ele>679.4</ele>
        <time>2011-08-19T10:59:43Z</time>
      </trkpt>
      <trkpt lat="41.748401" lon="2.052677">
        <ele>678.2</ele>
        <time>2011-08-19T10:59:43Z</time>
      </trkpt>
      <trkpt lat="41.748479" lon="2.052644">
        <ele>677.7</ele>
        <time>2011-08-19T10:59:43Z</time>
      </trkpt>
      <trkpt lat="41.748556" lon="2.052585">
        <ele>678.1</ele>
        <time>2011-08-19T10:59:43Z</time>
      </trkpt>
      <trkpt lat="41.748630" lon="2.052533">
        <ele>677.3</ele>
        <time>2011-08-19T10:59:43Z</time>
      </trkpt>
      <trkpt lat="41.748712" lon="2.052482">
        <ele>675.5</ele>
        <time>2011-08-19T10:59:43Z</time>
      </trkpt>
      <trkpt lat="41.748765" lon="2.052404">
        <ele>675.1</ele>
        <time>2011-08-19T10:59:43Z</time>
      </trkpt>
      <trkpt lat="41.748827" lon="2.052311">
        <ele>675.2</ele>
        <time>2011-08-19T10:59:43Z</time>
      </trkpt>
      <trkpt lat="41.748869" lon="2.052230">
        <ele>675.5</ele>
        <time>2011-08-19T10:59:43Z</time>
      </trkpt>
      <trkpt lat="41.748948" lon="2.052140">
        <ele>675.2</ele>
        <time>2011-08-19T10:59:43Z</time>
      </trkpt>
      <trkpt lat="41.749005" lon="2.052047">
        <ele>675.3</ele>
        <time>2011-08-19T10:59:43Z</time>
      </trkpt>
      <trkpt lat="41.749062" lon="2.051966">
        <ele>675.9</ele>
        <time>2011-08-19T10:59:43Z</time>
      </trkpt>
      <trkpt lat="41.749127" lon="2.051931">
        <ele>675.5</ele>
        <time>2011-08-19T10:59:43Z</time>
      </trkpt>
      <trkpt lat="41.749212" lon="2.051881">
        <ele>675.0</ele>
        <time>2011-08-19T10:59:43Z</time>
      </trkpt>
      <trkpt lat="41.749281" lon="2.051848">
        <ele>674.6</ele>
        <time>2011-08-19T10:59:43Z</time>
      </trkpt>
      <trkpt lat="41.749369" lon="2.051815">
        <ele>673.9</ele>
        <time>2011-08-19T10:59:43Z</time>
      </trkpt>
      <trkpt lat="41.749433" lon="2.051794">
        <ele>672.8</ele>
        <time>2011-08-19T10:59:43Z</time>
      </trkpt>
      <trkpt lat="41.749510" lon="2.051738">
        <ele>671.6</ele>
        <time>2011-08-19T10:59:43Z</time>
      </trkpt>
      <trkpt lat="41.749552" lon="2.051637">
        <ele>671.9</ele>
        <time>2011-08-19T10:59:43Z</time>
      </trkpt>
      <trkpt lat="41.749592" lon="2.051536">
        <ele>672.2</ele>
        <time>2011-08-19T10:59:43Z</time>
      </trkpt>
      <trkpt lat="41.749613" lon="2.051435">
        <ele>673.1</ele>
        <time>2011-08-19T10:59:43Z</time>
      </trkpt>
      <trkpt lat="41.749638" lon="2.051326">
        <ele>671.7</ele>
        <time>2011-08-19T10:59:43Z</time>
      </trkpt>
      <trkpt lat="41.749656" lon="2.051222">
        <ele>670.5</ele>
        <time>2011-08-19T10:59:43Z</time>
      </trkpt>
      <trkpt lat="41.749640" lon="2.051102">
        <ele>670.9</ele>
        <time>2011-08-19T10:59:43Z</time>
      </trkpt>
      <trkpt lat="41.749614" lon="2.050981">
        <ele>670.3</ele>
        <time>2011-08-19T10:59:43Z</time>
      </trkpt>
      <trkpt lat="41.749606" lon="2.050861">
        <ele>668.1</ele>
        <time>2011-08-19T10:59:43Z</time>
      </trkpt>
      <trkpt lat="41.749586" lon="2.050752">
        <ele>666.0</ele>
        <time>2011-08-19T10:59:43Z</time>
      </trkpt>
      <trkpt lat="41.749591" lon="2.050660">
        <ele>665.0</ele>
        <time>2011-08-19T10:59:43Z</time>
      </trkpt>
      <trkpt lat="41.749616" lon="2.050550">
        <ele>665.0</ele>
        <time>2011-08-19T10:59:43Z</time>
      </trkpt>
      <trkpt lat="41.749644" lon="2.050452">
        <ele>665.0</ele>
        <time>2011-08-19T10:59:43Z</time>
      </trkpt>
      <trkpt lat="41.749688" lon="2.050374">
        <ele>665.0</ele>
        <time>2011-08-19T10:59:43Z</time>
      </trkpt>
      <trkpt lat="41.749737" lon="2.050282">
        <ele>665.0</ele>
        <time>2011-08-19T10:59:43Z</time>
      </trkpt>
      <trkpt lat="41.749786" lon="2.050198">
        <ele>665.0</ele>
        <time>2011-08-19T10:59:43Z</time>
      </trkpt>
      <trkpt lat="41.749845" lon="2.050125">
        <ele>665.0</ele>
        <time>2011-08-19T10:59:43Z</time>
      </trkpt>
      <trkpt lat="41.749924" lon="2.049989">
        <ele>653.5</ele>
        <time>2011-08-19T10:59:43Z</time>
      </trkpt>
      <trkpt lat="41.750006" lon="2.049850">
        <ele>633.1</ele>
        <time>2011-08-19T10:59:43Z</time>
      </trkpt>
      <trkpt lat="41.750051" lon="2.049754">
        <ele>622.0</ele>
        <time>2011-08-19T10:59:43Z</time>
      </trkpt>
      <trkpt lat="41.750055" lon="2.049682">
        <ele>621.0</ele>
        <time>2011-08-19T10:59:43Z</time>
      </trkpt>
      <trkpt lat="41.750004" lon="2.049574">
        <ele>630.5</ele>
        <time>2011-08-19T10:59:43Z</time>
      </trkpt>
      <trkpt lat="41.749936" lon="2.049457">
        <ele>637.8</ele>
        <time>2011-08-19T10:59:43Z</time>
      </trkpt>
      <trkpt lat="41.749890" lon="2.049346">
        <ele>638.5</ele>
        <time>2011-08-19T10:59:43Z</time>
      </trkpt>
      <trkpt lat="41.749833" lon="2.049197">
        <ele>635.0</ele>
        <time>2011-08-19T10:59:43Z</time>
      </trkpt>
      <trkpt lat="41.749787" lon="2.049077">
        <ele>635.0</ele>
        <time>2011-08-19T10:59:43Z</time>
      </trkpt>
      <trkpt lat="41.749743" lon="2.048983">
        <ele>635.0</ele>
        <time>2011-08-19T10:59:43Z</time>
      </trkpt>
      <trkpt lat="41.749704" lon="2.048872">
        <ele>654.7</ele>
        <time>2011-08-19T10:59:43Z</time>
      </trkpt>
      <trkpt lat="41.749660" lon="2.048743">
        <ele>654.0</ele>
        <time>2011-08-19T10:59:43Z</time>
      </trkpt>
      <trkpt lat="41.749624" lon="2.048614">
        <ele>653.1</ele>
        <time>2011-08-19T10:59:43Z</time>
      </trkpt>
      <trkpt lat="41.749571" lon="2.048431">
        <ele>651.9</ele>
        <time>2011-08-19T10:59:43Z</time>
      </trkpt>
      <trkpt lat="41.749538" lon="2.048360">
        <ele>652.0</ele>
        <time>2011-08-19T10:59:43Z</time>
      </trkpt>
      <trkpt lat="41.749507" lon="2.048225">
        <ele>651.3</ele>
        <time>2011-08-19T10:59:43Z</time>
      </trkpt>
      <trkpt lat="41.749510" lon="2.048039">
        <ele>650.2</ele>
        <time>2011-08-19T10:59:43Z</time>
      </trkpt>
      <trkpt lat="41.749515" lon="2.047947">
        <ele>649.7</ele>
        <time>2011-08-19T10:59:43Z</time>
      </trkpt>
      <trkpt lat="41.749536" lon="2.047837">
        <ele>648.4</ele>
        <time>2011-08-19T10:59:43Z</time>
      </trkpt>
      <trkpt lat="41.749563" lon="2.047768">
        <ele>647.4</ele>
        <time>2011-08-19T10:59:43Z</time>
      </trkpt>
      <trkpt lat="41.749606" lon="2.047673">
        <ele>646.0</ele>
        <time>2011-08-19T10:59:43Z</time>
      </trkpt>
      <trkpt lat="41.749637" lon="2.047620">
        <ele>644.8</ele>
        <time>2011-08-19T10:59:43Z</time>
      </trkpt>
      <trkpt lat="41.749671" lon="2.047565">
        <ele>643.4</ele>
        <time>2011-08-19T10:59:43Z</time>
      </trkpt>
      <trkpt lat="41.749688" lon="2.047470">
        <ele>643.0</ele>
        <time>2011-08-19T10:59:43Z</time>
      </trkpt>
      <trkpt lat="41.749687" lon="2.047353">
        <ele>642.0</ele>
        <time>2011-08-19T10:59:43Z</time>
      </trkpt>
      <trkpt lat="41.749665" lon="2.047264">
        <ele>642.1</ele>
        <time>2011-08-19T10:59:43Z</time>
      </trkpt>
      <trkpt lat="41.749644" lon="2.047184">
        <ele>642.2</ele>
        <time>2011-08-19T10:59:43Z</time>
      </trkpt>
      <trkpt lat="41.749635" lon="2.047046">
        <ele>641.5</ele>
        <time>2011-08-19T10:59:43Z</time>
      </trkpt>
      <trkpt lat="41.749647" lon="2.046922">
        <ele>640.6</ele>
        <time>2011-08-19T10:59:43Z</time>
      </trkpt>
      <trkpt lat="41.749689" lon="2.046881">
        <ele>638.6</ele>
        <time>2011-08-19T10:59:43Z</time>
      </trkpt>
      <trkpt lat="41.749752" lon="2.046912">
        <ele>635.9</ele>
        <time>2011-08-19T10:59:43Z</time>
      </trkpt>
      <trkpt lat="41.749805" lon="2.047029">
        <ele>633.9</ele>
        <time>2011-08-19T10:59:43Z</time>
      </trkpt>
      <trkpt lat="41.749848" lon="2.047129">
        <ele>632.5</ele>
        <time>2011-08-19T10:59:43Z</time>
      </trkpt>
      <trkpt lat="41.749920" lon="2.047246">
        <ele>630.1</ele>
        <time>2011-08-19T10:59:43Z</time>
      </trkpt>
      <trkpt lat="41.749977" lon="2.047314">
        <ele>627.9</ele>
        <time>2011-08-19T10:59:43Z</time>
      </trkpt>
      <trkpt lat="41.750044" lon="2.047408">
        <ele>625.5</ele>
        <time>2011-08-19T10:59:43Z</time>
      </trkpt>
      <trkpt lat="41.750112" lon="2.047504">
        <ele>622.6</ele>
        <time>2011-08-19T10:59:43Z</time>
      </trkpt>
      <trkpt lat="41.750154" lon="2.047610">
        <ele>620.2</ele>
        <time>2011-08-19T10:59:43Z</time>
      </trkpt>
      <trkpt lat="41.750159" lon="2.047768">
        <ele>619.6</ele>
        <time>2011-08-19T10:59:43Z</time>
      </trkpt>
      <trkpt lat="41.750156" lon="2.047897">
        <ele>619.5</ele>
        <time>2011-08-19T10:59:43Z</time>
      </trkpt>
      <trkpt lat="41.750174" lon="2.047997">
        <ele>618.3</ele>
        <time>2011-08-19T10:59:43Z</time>
      </trkpt>
      <trkpt lat="41.750218" lon="2.048100">
        <ele>615.8</ele>
        <time>2011-08-19T10:59:43Z</time>
      </trkpt>
      <trkpt lat="41.750285" lon="2.048191">
        <ele>612.6</ele>
        <time>2011-08-19T10:59:43Z</time>
      </trkpt>
      <trkpt lat="41.750348" lon="2.048291">
        <ele>612.1</ele>
        <time>2011-08-19T10:59:43Z</time>
      </trkpt>
      <trkpt lat="41.750405" lon="2.048347">
        <ele>610.9</ele>
        <time>2011-08-19T10:59:43Z</time>
      </trkpt>
      <trkpt lat="41.750482" lon="2.048366">
        <ele>608.7</ele>
        <time>2011-08-19T10:59:43Z</time>
      </trkpt>
      <trkpt lat="41.750554" lon="2.048397">
        <ele>607.0</ele>
        <time>2011-08-19T10:59:43Z</time>
      </trkpt>
      <trkpt lat="41.750644" lon="2.048444">
        <ele>605.0</ele>
        <time>2011-08-19T10:59:43Z</time>
      </trkpt>
      <trkpt lat="41.750692" lon="2.048515">
        <ele>605.0</ele>
        <time>2011-08-19T10:59:43Z</time>
      </trkpt>
      <trkpt lat="41.750713" lon="2.048641">
        <ele>606.0</ele>
        <time>2011-08-19T10:59:43Z</time>
      </trkpt>
      <trkpt lat="41.750720" lon="2.048774">
        <ele>607.5</ele>
        <time>2011-08-19T10:59:43Z</time>
      </trkpt>
      <trkpt lat="41.750734" lon="2.048885">
        <ele>608.1</ele>
        <time>2011-08-19T10:59:43Z</time>
      </trkpt>
      <trkpt lat="41.750728" lon="2.048974">
        <ele>609.5</ele>
        <time>2011-08-19T10:59:43Z</time>
      </trkpt>
      <trkpt lat="41.750721" lon="2.049150">
        <ele>612.1</ele>
        <time>2011-08-19T10:59:43Z</time>
      </trkpt>
      <trkpt lat="41.750746" lon="2.049264">
        <ele>611.6</ele>
        <time>2011-08-19T10:59:43Z</time>
      </trkpt>
      <trkpt lat="41.750764" lon="2.049336">
        <ele>610.8</ele>
        <time>2011-08-19T10:59:43Z</time>
      </trkpt>
      <trkpt lat="41.750750" lon="2.049482">
        <ele>612.6</ele>
        <time>2011-08-19T10:59:43Z</time>
      </trkpt>
      <trkpt lat="41.750738" lon="2.049598">
        <ele>614.2</ele>
        <time>2011-08-19T10:59:43Z</time>
      </trkpt>
      <trkpt lat="41.750732" lon="2.049695">
        <ele>614.7</ele>
        <time>2011-08-19T10:59:43Z</time>
      </trkpt>
      <trkpt lat="41.750729" lon="2.049784">
        <ele>615.0</ele>
        <time>2011-08-19T10:59:43Z</time>
      </trkpt>
      <trkpt lat="41.750725" lon="2.049876">
        <ele>615.3</ele>
        <time>2011-08-19T10:59:43Z</time>
      </trkpt>
      <trkpt lat="41.750728" lon="2.049977">
        <ele>615.0</ele>
        <time>2011-08-19T10:59:43Z</time>
      </trkpt>
      <trkpt lat="41.750724" lon="2.050060">
        <ele>614.4</ele>
        <time>2011-08-19T10:59:43Z</time>
      </trkpt>
      <trkpt lat="41.750695" lon="2.050144">
        <ele>615.2</ele>
        <time>2011-08-19T10:59:43Z</time>
      </trkpt>
      <trkpt lat="41.750670" lon="2.050228">
        <ele>615.6</ele>
        <time>2011-08-19T10:59:43Z</time>
      </trkpt>
      <trkpt lat="41.750630" lon="2.050280">
        <ele>617.2</ele>
        <time>2011-08-19T10:59:43Z</time>
      </trkpt>
      <trkpt lat="41.750578" lon="2.050330">
        <ele>619.3</ele>
        <time>2011-08-19T10:59:43Z</time>
      </trkpt>
      <trkpt lat="41.750510" lon="2.050402">
        <ele>621.3</ele>
        <time>2011-08-19T10:59:43Z</time>
      </trkpt>
      <trkpt lat="41.750455" lon="2.050484">
        <ele>622.4</ele>
        <time>2011-08-19T10:59:43Z</time>
      </trkpt>
      <trkpt lat="41.750419" lon="2.050556">
        <ele>622.7</ele>
        <time>2011-08-19T10:59:43Z</time>
      </trkpt>
      <trkpt lat="41.750379" lon="2.050654">
        <ele>623.3</ele>
        <time>2011-08-19T10:59:43Z</time>
      </trkpt>
      <trkpt lat="41.750369" lon="2.050778">
        <ele>622.9</ele>
        <time>2011-08-19T10:59:43Z</time>
      </trkpt>
      <trkpt lat="41.750342" lon="2.050910">
        <ele>624.7</ele>
        <time>2011-08-19T10:59:43Z</time>
      </trkpt>
      <trkpt lat="41.750313" lon="2.051034">
        <ele>626.8</ele>
        <time>2011-08-19T10:59:43Z</time>
      </trkpt>
      <trkpt lat="41.750308" lon="2.051167">
        <ele>628.3</ele>
        <time>2011-08-19T10:59:43Z</time>
      </trkpt>
      <trkpt lat="41.750331" lon="2.051356">
        <ele>628.6</ele>
        <time>2011-08-19T10:59:43Z</time>
      </trkpt>
      <trkpt lat="41.750388" lon="2.051507">
        <ele>626.5</ele>
        <time>2011-08-19T10:59:43Z</time>
      </trkpt>
      <trkpt lat="41.750413" lon="2.051627">
        <ele>626.8</ele>
        <time>2011-08-19T10:59:43Z</time>
      </trkpt>
      <trkpt lat="41.750452" lon="2.051753">
        <ele>626.5</ele>
        <time>2011-08-19T10:59:43Z</time>
      </trkpt>
      <trkpt lat="41.750488" lon="2.051856">
        <ele>624.7</ele>
        <time>2011-08-19T10:59:43Z</time>
      </trkpt>
      <trkpt lat="41.750482" lon="2.051965">
        <ele>624.8</ele>
        <time>2011-08-19T10:59:43Z</time>
      </trkpt>
      <trkpt lat="41.750442" lon="2.052084">
        <ele>626.7</ele>
        <time>2011-08-19T10:59:43Z</time>
      </trkpt>
      <trkpt lat="41.750374" lon="2.052188">
        <ele>628.9</ele>
        <time>2011-08-19T10:59:43Z</time>
      </trkpt>
      <trkpt lat="41.750298" lon="2.052284">
        <ele>629.8</ele>
        <time>2011-08-19T10:59:43Z</time>
      </trkpt>
      <trkpt lat="41.750242" lon="2.052345">
        <ele>630.1</ele>
        <time>2011-08-19T10:59:43Z</time>
      </trkpt>
      <trkpt lat="41.750170" lon="2.052401">
        <ele>630.9</ele>
        <time>2011-08-19T10:59:43Z</time>
      </trkpt>
      <trkpt lat="41.750105" lon="2.052462">
        <ele>630.5</ele>
        <time>2011-08-19T10:59:43Z</time>
      </trkpt>
      <trkpt lat="41.750057" lon="2.052540">
        <ele>628.9</ele>
        <time>2011-08-19T10:59:43Z</time>
      </trkpt>
      <trkpt lat="41.750008" lon="2.052647">
        <ele>626.3</ele>
        <time>2011-08-19T10:59:43Z</time>
      </trkpt>
      <trkpt lat="41.749935" lon="2.052720">
        <ele>625.7</ele>
        <time>2011-08-19T10:59:43Z</time>
      </trkpt>
      <trkpt lat="41.749846" lon="2.052785">
        <ele>625.4</ele>
        <time>2011-08-19T10:59:43Z</time>
      </trkpt>
      <trkpt lat="41.749762" lon="2.052806">
        <ele>626.2</ele>
        <time>2011-08-19T10:59:43Z</time>
      </trkpt>
      <trkpt lat="41.749698" lon="2.052830">
        <ele>626.5</ele>
        <time>2011-08-19T10:59:43Z</time>
      </trkpt>
      <trkpt lat="41.749662" lon="2.052905">
        <ele>624.5</ele>
        <time>2011-08-19T10:59:43Z</time>
      </trkpt>
      <trkpt lat="41.749611" lon="2.053004">
        <ele>623.2</ele>
        <time>2011-08-19T10:59:43Z</time>
      </trkpt>
      <trkpt lat="41.749571" lon="2.053099">
        <ele>622.0</ele>
        <time>2011-08-19T10:59:43Z</time>
      </trkpt>
      <trkpt lat="41.749503" lon="2.053178">
        <ele>622.1</ele>
        <time>2011-08-19T10:59:43Z</time>
      </trkpt>
      <trkpt lat="41.749424" lon="2.053233">
        <ele>623.1</ele>
        <time>2011-08-19T10:59:43Z</time>
      </trkpt>
      <trkpt lat="41.749355" lon="2.053306">
        <ele>623.0</ele>
        <time>2011-08-19T10:59:43Z</time>
      </trkpt>
      <trkpt lat="41.749306" lon="2.053361">
        <ele>623.0</ele>
        <time>2011-08-19T10:59:43Z</time>
      </trkpt>
      <trkpt lat="41.749259" lon="2.053417">
        <ele>622.8</ele>
        <time>2011-08-19T10:59:43Z</time>
      </trkpt>
      <trkpt lat="41.749182" lon="2.053484">
        <ele>623.2</ele>
        <time>2011-08-19T10:59:43Z</time>
      </trkpt>
      <trkpt lat="41.749121" lon="2.053557">
        <ele>622.8</ele>
        <time>2011-08-19T10:59:43Z</time>
      </trkpt>
      <trkpt lat="41.749083" lon="2.053640">
        <ele>621.9</ele>
        <time>2011-08-19T10:59:43Z</time>
      </trkpt>
      <trkpt lat="41.749044" lon="2.053716">
        <ele>622.3</ele>
        <time>2011-08-19T10:59:43Z</time>
      </trkpt>
      <trkpt lat="41.749028" lon="2.053831">
        <ele>620.8</ele>
        <time>2011-08-19T10:59:43Z</time>
      </trkpt>
      <trkpt lat="41.749027" lon="2.053934">
        <ele>618.8</ele>
        <time>2011-08-19T10:59:43Z</time>
      </trkpt>
      <trkpt lat="41.749015" lon="2.054032">
        <ele>618.2</ele>
        <time>2011-08-19T10:59:43Z</time>
      </trkpt>
      <trkpt lat="41.748954" lon="2.054191">
        <ele>619.3</ele>
        <time>2011-08-19T10:59:43Z</time>
      </trkpt>
      <trkpt lat="41.748936" lon="2.054317">
        <ele>618.6</ele>
        <time>2011-08-19T10:59:43Z</time>
      </trkpt>
      <trkpt lat="41.748941" lon="2.054424">
        <ele>618.0</ele>
        <time>2011-08-19T10:59:43Z</time>
      </trkpt>
      <trkpt lat="41.748935" lon="2.054521">
        <ele>617.8</ele>
        <time>2011-08-19T10:59:43Z</time>
      </trkpt>
      <trkpt lat="41.748938" lon="2.054633">
        <ele>617.3</ele>
        <time>2011-08-19T10:59:43Z</time>
      </trkpt>
      <trkpt lat="41.748956" lon="2.054731">
        <ele>617.2</ele>
        <time>2011-08-19T10:59:43Z</time>
      </trkpt>
      <trkpt lat="41.749017" lon="2.054776">
        <ele>617.0</ele>
        <time>2011-08-19T10:59:43Z</time>
      </trkpt>
      <trkpt lat="41.749072" lon="2.054749">
        <ele>615.9</ele>
        <time>2011-08-19T10:59:43Z</time>
      </trkpt>
      <trkpt lat="41.749134" lon="2.054633">
        <ele>614.4</ele>
        <time>2011-08-19T10:59:43Z</time>
      </trkpt>
      <trkpt lat="41.749181" lon="2.054558">
        <ele>614.6</ele>
        <time>2011-08-19T10:59:43Z</time>
      </trkpt>
      <trkpt lat="41.749236" lon="2.054483">
        <ele>614.2</ele>
        <time>2011-08-19T10:59:43Z</time>
      </trkpt>
      <trkpt lat="41.749287" lon="2.054430">
        <ele>613.6</ele>
        <time>2011-08-19T10:59:43Z</time>
      </trkpt>
      <trkpt lat="41.749349" lon="2.054377">
        <ele>612.5</ele>
        <time>2011-08-19T10:59:43Z</time>
      </trkpt>
      <trkpt lat="41.749404" lon="2.054313">
        <ele>611.2</ele>
        <time>2011-08-19T10:59:43Z</time>
      </trkpt>
      <trkpt lat="41.749453" lon="2.054252">
        <ele>610.7</ele>
        <time>2011-08-19T10:59:43Z</time>
      </trkpt>
      <trkpt lat="41.749518" lon="2.054206">
        <ele>610.2</ele>
        <time>2011-08-19T10:59:43Z</time>
      </trkpt>
      <trkpt lat="41.749584" lon="2.054187">
        <ele>609.8</ele>
        <time>2011-08-19T10:59:43Z</time>
      </trkpt>
      <trkpt lat="41.749677" lon="2.054203">
        <ele>609.9</ele>
        <time>2011-08-19T10:59:43Z</time>
      </trkpt>
      <trkpt lat="41.749765" lon="2.054219">
        <ele>609.5</ele>
        <time>2011-08-19T10:59:43Z</time>
      </trkpt>
      <trkpt lat="41.749886" lon="2.054226">
        <ele>608.6</ele>
        <time>2011-08-19T10:59:43Z</time>
      </trkpt>
      <trkpt lat="41.749993" lon="2.054239">
        <ele>607.7</ele>
        <time>2011-08-19T10:59:43Z</time>
      </trkpt>
      <trkpt lat="41.750064" lon="2.054267">
        <ele>607.8</ele>
        <time>2011-08-19T10:59:43Z</time>
      </trkpt>
      <trkpt lat="41.750155" lon="2.054308">
        <ele>608.3</ele>
        <time>2011-08-19T10:59:43Z</time>
      </trkpt>
      <trkpt lat="41.750222" lon="2.054350">
        <ele>607.8</ele>
        <time>2011-08-19T10:59:43Z</time>
      </trkpt>
      <trkpt lat="41.750287" lon="2.054416">
        <ele>607.4</ele>
        <time>2011-08-19T10:59:43Z</time>
      </trkpt>
      <trkpt lat="41.750348" lon="2.054492">
        <ele>607.4</ele>
        <time>2011-08-19T10:59:43Z</time>
      </trkpt>
      <trkpt lat="41.750390" lon="2.054578">
        <ele>608.0</ele>
        <time>2011-08-19T10:59:43Z</time>
      </trkpt>
      <trkpt lat="41.750453" lon="2.054738">
        <ele>608.9</ele>
        <time>2011-08-19T10:59:43Z</time>
      </trkpt>
      <trkpt lat="41.750493" lon="2.054835">
        <ele>609.2</ele>
        <time>2011-08-19T10:59:43Z</time>
      </trkpt>
      <trkpt lat="41.750547" lon="2.054923">
        <ele>609.7</ele>
        <time>2011-08-19T10:59:43Z</time>
      </trkpt>
      <trkpt lat="41.750636" lon="2.054939">
        <ele>608.8</ele>
        <time>2011-08-19T10:59:43Z</time>
      </trkpt>
      <trkpt lat="41.750711" lon="2.054935">
        <ele>607.8</ele>
        <time>2011-08-19T10:59:43Z</time>
      </trkpt>
      <trkpt lat="41.750816" lon="2.054896">
        <ele>608.8</ele>
        <time>2011-08-19T10:59:43Z</time>
      </trkpt>
      <trkpt lat="41.750884" lon="2.054820">
        <ele>608.6</ele>
        <time>2011-08-19T10:59:43Z</time>
      </trkpt>
      <trkpt lat="41.750940" lon="2.054765">
        <ele>608.5</ele>
        <time>2011-08-19T10:59:43Z</time>
      </trkpt>
      <trkpt lat="41.751003" lon="2.054672">
        <ele>607.6</ele>
        <time>2011-08-19T10:59:43Z</time>
      </trkpt>
      <trkpt lat="41.751069" lon="2.054576">
        <ele>606.2</ele>
        <time>2011-08-19T10:59:43Z</time>
      </trkpt>
      <trkpt lat="41.751138" lon="2.054515">
        <ele>605.7</ele>
        <time>2011-08-19T10:59:43Z</time>
      </trkpt>
      <trkpt lat="41.751225" lon="2.054451">
        <ele>605.5</ele>
        <time>2011-08-19T10:59:43Z</time>
      </trkpt>
      <trkpt lat="41.751311" lon="2.054400">
        <ele>605.0</ele>
        <time>2011-08-19T10:59:43Z</time>
      </trkpt>
      <trkpt lat="41.751421" lon="2.054378">
        <ele>605.3</ele>
        <time>2011-08-19T10:59:43Z</time>
      </trkpt>
      <trkpt lat="41.751560" lon="2.054345">
        <ele>605.4</ele>
        <time>2011-08-19T10:59:43Z</time>
      </trkpt>
      <trkpt lat="41.751630" lon="2.054338">
        <ele>605.0</ele>
        <time>2011-08-19T10:59:43Z</time>
      </trkpt>
      <trkpt lat="41.751703" lon="2.054332">
        <ele>604.8</ele>
        <time>2011-08-19T10:59:43Z</time>
      </trkpt>
      <trkpt lat="41.751786" lon="2.054367">
        <ele>605.0</ele>
        <time>2011-08-19T10:59:43Z</time>
      </trkpt>
      <trkpt lat="41.751880" lon="2.054443">
        <ele>603.3</ele>
        <time>2011-08-19T10:59:43Z</time>
      </trkpt>
      <trkpt lat="41.751935" lon="2.054518">
        <ele>602.3</ele>
        <time>2011-08-19T10:59:43Z</time>
      </trkpt>
      <trkpt lat="41.752002" lon="2.054656">
        <ele>601.7</ele>
        <time>2011-08-19T10:59:43Z</time>
      </trkpt>
      <trkpt lat="41.752043" lon="2.054760">
        <ele>601.8</ele>
        <time>2011-08-19T10:59:43Z</time>
      </trkpt>
      <trkpt lat="41.752115" lon="2.054898">
        <ele>601.0</ele>
        <time>2011-08-19T10:59:43Z</time>
      </trkpt>
      <trkpt lat="41.752149" lon="2.054966">
        <ele>600.5</ele>
        <time>2011-08-19T10:59:43Z</time>
      </trkpt>
      <trkpt lat="41.752218" lon="2.055112">
        <ele>597.7</ele>
        <time>2011-08-19T10:59:43Z</time>
      </trkpt>
      <trkpt lat="41.752228" lon="2.055214">
        <ele>597.2</ele>
        <time>2011-08-19T10:59:43Z</time>
      </trkpt>
      <trkpt lat="41.752216" lon="2.055347">
        <ele>597.6</ele>
        <time>2011-08-19T10:59:43Z</time>
      </trkpt>
      <trkpt lat="41.752206" lon="2.055455">
        <ele>597.3</ele>
        <time>2011-08-19T10:59:43Z</time>
      </trkpt>
      <trkpt lat="41.752194" lon="2.055568">
        <ele>596.8</ele>
        <time>2011-08-19T10:59:43Z</time>
      </trkpt>
      <trkpt lat="41.752170" lon="2.055665">
        <ele>596.8</ele>
        <time>2011-08-19T10:59:43Z</time>
      </trkpt>
      <trkpt lat="41.752153" lon="2.055745">
        <ele>596.9</ele>
        <time>2011-08-19T10:59:43Z</time>
      </trkpt>
      <trkpt lat="41.752150" lon="2.055816">
        <ele>597.5</ele>
        <time>2011-08-19T10:59:43Z</time>
      </trkpt>
      <trkpt lat="41.752152" lon="2.055864">
        <ele>597.7</ele>
        <time>2011-08-19T10:59:43Z</time>
      </trkpt>
      <trkpt lat="41.752187" lon="2.055906">
        <ele>597.1</ele>
        <time>2011-08-19T10:59:43Z</time>
      </trkpt>
      <trkpt lat="41.752235" lon="2.055902">
        <ele>595.9</ele>
        <time>2011-08-19T10:59:43Z</time>
      </trkpt>
      <trkpt lat="41.752284" lon="2.055859">
        <ele>594.2</ele>
        <time>2011-08-19T10:59:43Z</time>
      </trkpt>
      <trkpt lat="41.752287" lon="2.055746">
        <ele>592.6</ele>
        <time>2011-08-19T10:59:43Z</time>
      </trkpt>
      <trkpt lat="41.752295" lon="2.055646">
        <ele>592.4</ele>
        <time>2011-08-19T10:59:43Z</time>
      </trkpt>
      <trkpt lat="41.752330" lon="2.055552">
        <ele>591.4</ele>
        <time>2011-08-19T10:59:43Z</time>
      </trkpt>
      <trkpt lat="41.752374" lon="2.055515">
        <ele>590.1</ele>
        <time>2011-08-19T10:59:43Z</time>
      </trkpt>
      <trkpt lat="41.752437" lon="2.055426">
        <ele>588.8</ele>
        <time>2011-08-19T10:59:43Z</time>
      </trkpt>
      <trkpt lat="41.752492" lon="2.055363">
        <ele>587.4</ele>
        <time>2011-08-19T10:59:43Z</time>
      </trkpt>
      <trkpt lat="41.752529" lon="2.055283">
        <ele>586.2</ele>
        <time>2011-08-19T10:59:43Z</time>
      </trkpt>
      <trkpt lat="41.752559" lon="2.055214">
        <ele>585.1</ele>
        <time>2011-08-19T10:59:43Z</time>
      </trkpt>
      <trkpt lat="41.752564" lon="2.055115">
        <ele>584.6</ele>
        <time>2011-08-19T10:59:43Z</time>
      </trkpt>
      <trkpt lat="41.752563" lon="2.055030">
        <ele>584.3</ele>
        <time>2011-08-19T10:59:43Z</time>
      </trkpt>
      <trkpt lat="41.752554" lon="2.054937">
        <ele>583.8</ele>
        <time>2011-08-19T10:59:43Z</time>
      </trkpt>
      <trkpt lat="41.752528" lon="2.054801">
        <ele>583.2</ele>
        <time>2011-08-19T10:59:43Z</time>
      </trkpt>
      <trkpt lat="41.752510" lon="2.054708">
        <ele>582.8</ele>
        <time>2011-08-19T10:59:43Z</time>
      </trkpt>
      <trkpt lat="41.752503" lon="2.054643">
        <ele>582.3</ele>
        <time>2011-08-19T10:59:43Z</time>
      </trkpt>
      <trkpt lat="41.752485" lon="2.054541">
        <ele>581.8</ele>
        <time>2011-08-19T10:59:43Z</time>
      </trkpt>
      <trkpt lat="41.752465" lon="2.054431">
        <ele>581.2</ele>
        <time>2011-08-19T10:59:43Z</time>
      </trkpt>
      <trkpt lat="41.752451" lon="2.054321">
        <ele>580.2</ele>
        <time>2011-08-19T10:59:43Z</time>
      </trkpt>
      <trkpt lat="41.752438" lon="2.054210">
        <ele>579.5</ele>
        <time>2011-08-19T10:59:43Z</time>
      </trkpt>
      <trkpt lat="41.752430" lon="2.054086">
        <ele>578.8</ele>
        <time>2011-08-19T10:59:43Z</time>
      </trkpt>
      <trkpt lat="41.752430" lon="2.054004">
        <ele>578.3</ele>
        <time>2011-08-19T10:59:43Z</time>
      </trkpt>
      <trkpt lat="41.752431" lon="2.053868">
        <ele>577.7</ele>
        <time>2011-08-19T10:59:43Z</time>
      </trkpt>
      <trkpt lat="41.752434" lon="2.053780">
        <ele>577.7</ele>
        <time>2011-08-19T10:59:43Z</time>
      </trkpt>
      <trkpt lat="41.752455" lon="2.053689">
        <ele>577.4</ele>
        <time>2011-08-19T10:59:43Z</time>
      </trkpt>
      <trkpt lat="41.752500" lon="2.053546">
        <ele>576.4</ele>
        <time>2011-08-19T10:59:43Z</time>
      </trkpt>
      <trkpt lat="41.752565" lon="2.053449">
        <ele>574.7</ele>
        <time>2011-08-19T10:59:43Z</time>
      </trkpt>
      <trkpt lat="41.752673" lon="2.053329">
        <ele>573.3</ele>
        <time>2011-08-19T10:59:43Z</time>
      </trkpt>
      <trkpt lat="41.752742" lon="2.053243">
        <ele>572.5</ele>
        <time>2011-08-19T10:59:43Z</time>
      </trkpt>
      <trkpt lat="41.752818" lon="2.053182">
        <ele>571.6</ele>
        <time>2011-08-19T10:59:43Z</time>
      </trkpt>
      <trkpt lat="41.752919" lon="2.053107">
        <ele>570.3</ele>
        <time>2011-08-19T10:59:43Z</time>
      </trkpt>
      <trkpt lat="41.752984" lon="2.053058">
        <ele>569.6</ele>
        <time>2011-08-19T10:59:43Z</time>
      </trkpt>
      <trkpt lat="41.753067" lon="2.053005">
        <ele>568.7</ele>
        <time>2011-08-19T10:59:43Z</time>
      </trkpt>
      <trkpt lat="41.753119" lon="2.052968">
        <ele>568.2</ele>
        <time>2011-08-19T10:59:43Z</time>
      </trkpt>
      <trkpt lat="41.753195" lon="2.052921">
        <ele>567.8</ele>
        <time>2011-08-19T10:59:43Z</time>
      </trkpt>
      <trkpt lat="41.753242" lon="2.052890">
        <ele>567.6</ele>
        <time>2011-08-19T10:59:43Z</time>
      </trkpt>
      <trkpt lat="41.753318" lon="2.052860">
        <ele>567.4</ele>
        <time>2011-08-19T10:59:43Z</time>
      </trkpt>
      <trkpt lat="41.753396" lon="2.052862">
        <ele>567.1</ele>
        <time>2011-08-19T10:59:43Z</time>
      </trkpt>
      <trkpt lat="41.753545" lon="2.052882">
        <ele>566.0</ele>
        <time>2011-08-19T10:59:43Z</time>
      </trkpt>
      <trkpt lat="41.753605" lon="2.052910">
        <ele>565.6</ele>
        <time>2011-08-19T10:59:43Z</time>
      </trkpt>
      <trkpt lat="41.753660" lon="2.052929">
        <ele>565.2</ele>
        <time>2011-08-19T10:59:43Z</time>
      </trkpt>
      <trkpt lat="41.753728" lon="2.052967">
        <ele>564.5</ele>
        <time>2011-08-19T10:59:43Z</time>
      </trkpt>
      <trkpt lat="41.753781" lon="2.052986">
        <ele>563.9</ele>
        <time>2011-08-19T10:59:43Z</time>
      </trkpt>
      <trkpt lat="41.753858" lon="2.053019">
        <ele>563.2</ele>
        <time>2011-08-19T10:59:43Z</time>
      </trkpt>
      <trkpt lat="41.753924" lon="2.053049">
        <ele>562.6</ele>
        <time>2011-08-19T10:59:43Z</time>
      </trkpt>
      <trkpt lat="41.754009" lon="2.053102">
        <ele>562.6</ele>
        <time>2011-08-19T10:59:43Z</time>
      </trkpt>
      <trkpt lat="41.754063" lon="2.053135">
        <ele>562.7</ele>
        <time>2011-08-19T10:59:43Z</time>
      </trkpt>
      <trkpt lat="41.754152" lon="2.053202">
        <ele>562.9</ele>
        <time>2011-08-19T10:59:43Z</time>
      </trkpt>
      <trkpt lat="41.754183" lon="2.053247">
        <ele>562.8</ele>
        <time>2011-08-19T10:59:43Z</time>
      </trkpt>
      <trkpt lat="41.754217" lon="2.053323">
        <ele>562.6</ele>
        <time>2011-08-19T10:59:43Z</time>
      </trkpt>
      <trkpt lat="41.754264" lon="2.053401">
        <ele>562.6</ele>
        <time>2011-08-19T10:59:43Z</time>
      </trkpt>
      <trkpt lat="41.754335" lon="2.053488">
        <ele>562.9</ele>
        <time>2011-08-19T10:59:43Z</time>
      </trkpt>
      <trkpt lat="41.754391" lon="2.053572">
        <ele>562.8</ele>
        <time>2011-08-19T10:59:43Z</time>
      </trkpt>
      <trkpt lat="41.754445" lon="2.053634">
        <ele>562.5</ele>
        <time>2011-08-19T10:59:43Z</time>
      </trkpt>
      <trkpt lat="41.754507" lon="2.053710">
        <ele>562.0</ele>
        <time>2011-08-19T10:59:43Z</time>
      </trkpt>
      <trkpt lat="41.754565" lon="2.053791">
        <ele>562.2</ele>
        <time>2011-08-19T10:59:43Z</time>
      </trkpt>
      <trkpt lat="41.754619" lon="2.053886">
        <ele>562.1</ele>
        <time>2011-08-19T10:59:43Z</time>
      </trkpt>
      <trkpt lat="41.754657" lon="2.053962">
        <ele>561.9</ele>
        <time>2011-08-19T10:59:43Z</time>
      </trkpt>
      <trkpt lat="41.754711" lon="2.054069">
        <ele>561.2</ele>
        <time>2011-08-19T10:59:43Z</time>
      </trkpt>
      <trkpt lat="41.754731" lon="2.054177">
        <ele>559.8</ele>
        <time>2011-08-19T10:59:43Z</time>
      </trkpt>
      <trkpt lat="41.754745" lon="2.054298">
        <ele>557.1</ele>
        <time>2011-08-19T10:59:43Z</time>
      </trkpt>
      <trkpt lat="41.754731" lon="2.054372">
        <ele>554.9</ele>
        <time>2011-08-19T10:59:43Z</time>
      </trkpt>
      <trkpt lat="41.754717" lon="2.054460">
        <ele>552.6</ele>
        <time>2011-08-19T10:59:43Z</time>
      </trkpt>
      <trkpt lat="41.754694" lon="2.054574">
        <ele>549.9</ele>
        <time>2011-08-19T10:59:43Z</time>
      </trkpt>
      <trkpt lat="41.754657" lon="2.054682">
        <ele>548.8</ele>
        <time>2011-08-19T10:59:43Z</time>
      </trkpt>
      <trkpt lat="41.754605" lon="2.054771">
        <ele>549.0</ele>
        <time>2011-08-19T10:59:43Z</time>
      </trkpt>
      <trkpt lat="41.754555" lon="2.054910">
        <ele>548.9</ele>
        <time>2011-08-19T10:59:43Z</time>
      </trkpt>
      <trkpt lat="41.754528" lon="2.054996">
        <ele>548.9</ele>
        <time>2011-08-19T10:59:43Z</time>
      </trkpt>
      <trkpt lat="41.754503" lon="2.055098">
        <ele>548.3</ele>
        <time>2011-08-19T10:59:43Z</time>
      </trkpt>
      <trkpt lat="41.754468" lon="2.055186">
        <ele>548.6</ele>
        <time>2011-08-19T10:59:43Z</time>
      </trkpt>
      <trkpt lat="41.754431" lon="2.055275">
        <ele>549.2</ele>
        <time>2011-08-19T10:59:43Z</time>
      </trkpt>
      <trkpt lat="41.754395" lon="2.055343">
        <ele>550.1</ele>
        <time>2011-08-19T10:59:43Z</time>
      </trkpt>
      <trkpt lat="41.754372" lon="2.055423">
        <ele>550.6</ele>
        <time>2011-08-19T10:59:43Z</time>
      </trkpt>
      <trkpt lat="41.754365" lon="2.055556">
        <ele>549.9</ele>
        <time>2011-08-19T10:59:43Z</time>
      </trkpt>
      <trkpt lat="41.754368" lon="2.055692">
        <ele>548.7</ele>
        <time>2011-08-19T10:59:43Z</time>
      </trkpt>
      <trkpt lat="41.754369" lon="2.055794">
        <ele>548.4</ele>
        <time>2011-08-19T10:59:43Z</time>
      </trkpt>
      <trkpt lat="41.754374" lon="2.055902">
        <ele>547.9</ele>
        <time>2011-08-19T10:59:43Z</time>
      </trkpt>
      <trkpt lat="41.754401" lon="2.056066">
        <ele>546.3</ele>
        <time>2011-08-19T10:59:43Z</time>
      </trkpt>
      <trkpt lat="41.754434" lon="2.056184">
        <ele>544.8</ele>
        <time>2011-08-19T10:59:43Z</time>
      </trkpt>
      <trkpt lat="41.754467" lon="2.056326">
        <ele>543.6</ele>
        <time>2011-08-19T10:59:43Z</time>
      </trkpt>
      <trkpt lat="41.754485" lon="2.056444">
        <ele>543.2</ele>
        <time>2011-08-19T10:59:43Z</time>
      </trkpt>
      <trkpt lat="41.754502" lon="2.056529">
        <ele>542.9</ele>
        <time>2011-08-19T10:59:43Z</time>
      </trkpt>
      <trkpt lat="41.754529" lon="2.056619">
        <ele>542.5</ele>
        <time>2011-08-19T10:59:43Z</time>
      </trkpt>
      <trkpt lat="41.754565" lon="2.056732">
        <ele>542.5</ele>
        <time>2011-08-19T10:59:43Z</time>
      </trkpt>
      <trkpt lat="41.754607" lon="2.056828">
        <ele>542.8</ele>
        <time>2011-08-19T10:59:43Z</time>
      </trkpt>
      <trkpt lat="41.754641" lon="2.056898">
        <ele>543.2</ele>
        <time>2011-08-19T10:59:43Z</time>
      </trkpt>
      <trkpt lat="41.754676" lon="2.056969">
        <ele>543.5</ele>
        <time>2011-08-19T10:59:43Z</time>
      </trkpt>
      <trkpt lat="41.754732" lon="2.057084">
        <ele>543.8</ele>
        <time>2011-08-19T10:59:43Z</time>
      </trkpt>
      <trkpt lat="41.754764" lon="2.057149">
        <ele>544.0</ele>
        <time>2011-08-19T10:59:43Z</time>
      </trkpt>
      <trkpt lat="41.754807" lon="2.057236">
        <ele>544.5</ele>
        <time>2011-08-19T10:59:43Z</time>
      </trkpt>
      <trkpt lat="41.754861" lon="2.057332">
        <ele>545.2</ele>
        <time>2011-08-19T10:59:43Z</time>
      </trkpt>
      <trkpt lat="41.754898" lon="2.057436">
        <ele>545.8</ele>
        <time>2011-08-19T10:59:43Z</time>
      </trkpt>
      <trkpt lat="41.754924" lon="2.057537">
        <ele>546.6</ele>
        <time>2011-08-19T10:59:43Z</time>
      </trkpt>
      <trkpt lat="41.754959" lon="2.057662">
        <ele>547.6</ele>
        <time>2011-08-19T10:59:43Z</time>
      </trkpt>
      <trkpt lat="41.755003" lon="2.057797">
        <ele>548.1</ele>
        <time>2011-08-19T10:59:43Z</time>
      </trkpt>
      <trkpt lat="41.755048" lon="2.057907">
        <ele>548.3</ele>
        <time>2011-08-19T10:59:43Z</time>
      </trkpt>
      <trkpt lat="41.755085" lon="2.058017">
        <ele>549.3</ele>
        <time>2011-08-19T10:59:43Z</time>
      </trkpt>
      <trkpt lat="41.755133" lon="2.058146">
        <ele>550.7</ele>
        <time>2011-08-19T10:59:43Z</time>
      </trkpt>
      <trkpt lat="41.755204" lon="2.058273">
        <ele>551.2</ele>
        <time>2011-08-19T10:59:43Z</time>
      </trkpt>
      <trkpt lat="41.755252" lon="2.058420">
        <ele>552.3</ele>
        <time>2011-08-19T10:59:43Z</time>
      </trkpt>
      <trkpt lat="41.755317" lon="2.058566">
        <ele>551.8</ele>
        <time>2011-08-19T10:59:43Z</time>
      </trkpt>
      <trkpt lat="41.755371" lon="2.058684">
        <ele>552.4</ele>
        <time>2011-08-19T10:59:43Z</time>
      </trkpt>
      <trkpt lat="41.755427" lon="2.058814">
        <ele>553.5</ele>
        <time>2011-08-19T10:59:43Z</time>
      </trkpt>
      <trkpt lat="41.755481" lon="2.058935">
        <ele>553.6</ele>
        <time>2011-08-19T10:59:43Z</time>
      </trkpt>
      <trkpt lat="41.755552" lon="2.059070">
        <ele>553.7</ele>
        <time>2011-08-19T10:59:43Z</time>
      </trkpt>
      <trkpt lat="41.755604" lon="2.059160">
        <ele>553.1</ele>
        <time>2011-08-19T10:59:43Z</time>
      </trkpt>
      <trkpt lat="41.755660" lon="2.059267">
        <ele>553.1</ele>
        <time>2011-08-19T10:59:43Z</time>
      </trkpt>
      <trkpt lat="41.755729" lon="2.059370">
        <ele>554.1</ele>
        <time>2011-08-19T10:59:43Z</time>
      </trkpt>
      <trkpt lat="41.755819" lon="2.059471">
        <ele>553.8</ele>
        <time>2011-08-19T10:59:43Z</time>
      </trkpt>
      <trkpt lat="41.755879" lon="2.059550">
        <ele>553.3</ele>
        <time>2011-08-19T10:59:43Z</time>
      </trkpt>
      <trkpt lat="41.755933" lon="2.059639">
        <ele>553.5</ele>
        <time>2011-08-19T10:59:43Z</time>
      </trkpt>
      <trkpt lat="41.755995" lon="2.059732">
        <ele>554.0</ele>
        <time>2011-08-19T10:59:43Z</time>
      </trkpt>
      <trkpt lat="41.756070" lon="2.059844">
        <ele>554.3</ele>
        <time>2011-08-19T10:59:43Z</time>
      </trkpt>
      <trkpt lat="41.756094" lon="2.059957">
        <ele>555.5</ele>
        <time>2011-08-19T10:59:43Z</time>
      </trkpt>
      <trkpt lat="41.756117" lon="2.060110">
        <ele>556.1</ele>
        <time>2011-08-19T10:59:43Z</time>
      </trkpt>
      <trkpt lat="41.756147" lon="2.060246">
        <ele>556.1</ele>
        <time>2011-08-19T10:59:43Z</time>
      </trkpt>
      <trkpt lat="41.756191" lon="2.060378">
        <ele>555.8</ele>
        <time>2011-08-19T10:59:43Z</time>
      </trkpt>
      <trkpt lat="41.756188" lon="2.060528">
        <ele>555.9</ele>
        <time>2011-08-19T10:59:43Z</time>
      </trkpt>
      <trkpt lat="41.756159" lon="2.060634">
        <ele>556.3</ele>
        <time>2011-08-19T10:59:43Z</time>
      </trkpt>
      <trkpt lat="41.756109" lon="2.060668">
        <ele>557.2</ele>
        <time>2011-08-19T10:59:43Z</time>
      </trkpt>
      <trkpt lat="41.756034" lon="2.060687">
        <ele>558.3</ele>
        <time>2011-08-19T10:59:43Z</time>
      </trkpt>
      <trkpt lat="41.755937" lon="2.060705">
        <ele>559.7</ele>
        <time>2011-08-19T10:59:43Z</time>
      </trkpt>
      <trkpt lat="41.755846" lon="2.060681">
        <ele>560.3</ele>
        <time>2011-08-19T10:59:43Z</time>
      </trkpt>
      <trkpt lat="41.755741" lon="2.060637">
        <ele>561.2</ele>
        <time>2011-08-19T10:59:43Z</time>
      </trkpt>
      <trkpt lat="41.755641" lon="2.060621">
        <ele>562.1</ele>
        <time>2011-08-19T10:59:43Z</time>
      </trkpt>
      <trkpt lat="41.755569" lon="2.060608">
        <ele>562.3</ele>
        <time>2011-08-19T10:59:43Z</time>
      </trkpt>
      <trkpt lat="41.755488" lon="2.060556">
        <ele>563.9</ele>
        <time>2011-08-19T10:59:43Z</time>
      </trkpt>
      <trkpt lat="41.755424" lon="2.060511">
        <ele>565.2</ele>
        <time>2011-08-19T10:59:43Z</time>
      </trkpt>
      <trkpt lat="41.755371" lon="2.060484">
        <ele>566.1</ele>
        <time>2011-08-19T10:59:43Z</time>
      </trkpt>
      <trkpt lat="41.755285" lon="2.060434">
        <ele>566.5</ele>
        <time>2011-08-19T10:59:43Z</time>
      </trkpt>
      <trkpt lat="41.755207" lon="2.060384">
        <ele>566.6</ele>
        <time>2011-08-19T10:59:43Z</time>
      </trkpt>
      <trkpt lat="41.755119" lon="2.060351">
        <ele>566.5</ele>
        <time>2011-08-19T10:59:43Z</time>
      </trkpt>
      <trkpt lat="41.755026" lon="2.060333">
        <ele>567.1</ele>
        <time>2011-08-19T10:59:43Z</time>
      </trkpt>
      <trkpt lat="41.754954" lon="2.060323">
        <ele>567.7</ele>
        <time>2011-08-19T10:59:43Z</time>
      </trkpt>
      <trkpt lat="41.754854" lon="2.060327">
        <ele>567.3</ele>
        <time>2011-08-19T10:59:43Z</time>
      </trkpt>
      <trkpt lat="41.754750" lon="2.060340">
        <ele>568.0</ele>
        <time>2011-08-19T10:59:43Z</time>
      </trkpt>
      <trkpt lat="41.754678" lon="2.060380">
        <ele>567.2</ele>
        <time>2011-08-19T10:59:43Z</time>
      </trkpt>
      <trkpt lat="41.754590" lon="2.060438">
        <ele>567.5</ele>
        <time>2011-08-19T10:59:43Z</time>
      </trkpt>
      <trkpt lat="41.754516" lon="2.060507">
        <ele>567.5</ele>
        <time>2011-08-19T10:59:43Z</time>
      </trkpt>
      <trkpt lat="41.754438" lon="2.060571">
        <ele>568.1</ele>
        <time>2011-08-19T10:59:43Z</time>
      </trkpt>
      <trkpt lat="41.754379" lon="2.060651">
        <ele>567.4</ele>
        <time>2011-08-19T10:59:43Z</time>
      </trkpt>
      <trkpt lat="41.754320" lon="2.060709">
        <ele>567.2</ele>
        <time>2011-08-19T10:59:43Z</time>
      </trkpt>
      <trkpt lat="41.754283" lon="2.060777">
        <ele>566.8</ele>
        <time>2011-08-19T10:59:43Z</time>
      </trkpt>
      <trkpt lat="41.754245" lon="2.060900">
        <ele>566.9</ele>
        <time>2011-08-19T10:59:43Z</time>
      </trkpt>
      <trkpt lat="41.754223" lon="2.060993">
        <ele>566.8</ele>
        <time>2011-08-19T10:59:43Z</time>
      </trkpt>
      <trkpt lat="41.754198" lon="2.061124">
        <ele>566.6</ele>
        <time>2011-08-19T10:59:43Z</time>
      </trkpt>
      <trkpt lat="41.754189" lon="2.061241">
        <ele>567.4</ele>
        <time>2011-08-19T10:59:43Z</time>
      </trkpt>
      <trkpt lat="41.754179" lon="2.061380">
        <ele>568.2</ele>
        <time>2011-08-19T10:59:43Z</time>
      </trkpt>
      <trkpt lat="41.754184" lon="2.061479">
        <ele>568.2</ele>
        <time>2011-08-19T10:59:43Z</time>
      </trkpt>
      <trkpt lat="41.754196" lon="2.061592">
        <ele>568.5</ele>
        <time>2011-08-19T10:59:43Z</time>
      </trkpt>
      <trkpt lat="41.754220" lon="2.061679">
        <ele>568.1</ele>
        <time>2011-08-19T10:59:43Z</time>
      </trkpt>
      <trkpt lat="41.754257" lon="2.061806">
        <ele>567.6</ele>
        <time>2011-08-19T10:59:43Z</time>
      </trkpt>
      <trkpt lat="41.754302" lon="2.061922">
        <ele>566.7</ele>
        <time>2011-08-19T10:59:43Z</time>
      </trkpt>
      <trkpt lat="41.754350" lon="2.062003">
        <ele>566.8</ele>
        <time>2011-08-19T10:59:43Z</time>
      </trkpt>
      <trkpt lat="41.754414" lon="2.062062">
        <ele>566.8</ele>
        <time>2011-08-19T10:59:43Z</time>
      </trkpt>
      <trkpt lat="41.754474" lon="2.062106">
        <ele>567.0</ele>
        <time>2011-08-19T10:59:43Z</time>
      </trkpt>
      <trkpt lat="41.754622" lon="2.062121">
        <ele>566.4</ele>
        <time>2011-08-19T10:59:43Z</time>
      </trkpt>
      <trkpt lat="41.754703" lon="2.062174">
        <ele>566.9</ele>
        <time>2011-08-19T10:59:43Z</time>
      </trkpt>
      <trkpt lat="41.754800" lon="2.062174">
        <ele>566.2</ele>
        <time>2011-08-19T10:59:43Z</time>
      </trkpt>
      <trkpt lat="41.754858" lon="2.062165">
        <ele>565.7</ele>
        <time>2011-08-19T10:59:43Z</time>
      </trkpt>
      <trkpt lat="41.754921" lon="2.062164">
        <ele>565.0</ele>
        <time>2011-08-19T10:59:43Z</time>
      </trkpt>
      <trkpt lat="41.755024" lon="2.062212">
        <ele>564.5</ele>
        <time>2011-08-19T10:59:43Z</time>
      </trkpt>
      <trkpt lat="41.755107" lon="2.062263">
        <ele>563.8</ele>
        <time>2011-08-19T10:59:43Z</time>
      </trkpt>
      <trkpt lat="41.755163" lon="2.062331">
        <ele>563.9</ele>
        <time>2011-08-19T10:59:43Z</time>
      </trkpt>
      <trkpt lat="41.755213" lon="2.062431">
        <ele>564.0</ele>
        <time>2011-08-19T10:59:43Z</time>
      </trkpt>
      <trkpt lat="41.755222" lon="2.062530">
        <ele>564.4</ele>
        <time>2011-08-19T10:59:43Z</time>
      </trkpt>
      <trkpt lat="41.755219" lon="2.062727">
        <ele>564.7</ele>
        <time>2011-08-19T10:59:43Z</time>
      </trkpt>
      <trkpt lat="41.755221" lon="2.062903">
        <ele>564.8</ele>
        <time>2011-08-19T10:59:43Z</time>
      </trkpt>
      <trkpt lat="41.755222" lon="2.063078">
        <ele>564.2</ele>
        <time>2011-08-19T10:59:43Z</time>
      </trkpt>
      <trkpt lat="41.755216" lon="2.063265">
        <ele>563.7</ele>
        <time>2011-08-19T10:59:43Z</time>
      </trkpt>
      <trkpt lat="41.755227" lon="2.063435">
        <ele>563.9</ele>
        <time>2011-08-19T10:59:43Z</time>
      </trkpt>
      <trkpt lat="41.755243" lon="2.063577">
        <ele>564.0</ele>
        <time>2011-08-19T10:59:43Z</time>
      </trkpt>
      <trkpt lat="41.755274" lon="2.063692">
        <ele>564.1</ele>
        <time>2011-08-19T10:59:43Z</time>
      </trkpt>
      <trkpt lat="41.755329" lon="2.063858">
        <ele>563.8</ele>
        <time>2011-08-19T10:59:43Z</time>
      </trkpt>
      <trkpt lat="41.755382" lon="2.064011">
        <ele>563.3</ele>
        <time>2011-08-19T10:59:43Z</time>
      </trkpt>
      <trkpt lat="41.755457" lon="2.064166">
        <ele>564.3</ele>
        <time>2011-08-19T10:59:43Z</time>
      </trkpt>
      <trkpt lat="41.755507" lon="2.064286">
        <ele>564.8</ele>
        <time>2011-08-19T10:59:43Z</time>
      </trkpt>
      <trkpt lat="41.755549" lon="2.064401">
        <ele>565.1</ele>
        <time>2011-08-19T10:59:43Z</time>
      </trkpt>
      <trkpt lat="41.755587" lon="2.064505">
        <ele>565.0</ele>
        <time>2011-08-19T10:59:43Z</time>
      </trkpt>
      <trkpt lat="41.755639" lon="2.064597">
        <ele>564.6</ele>
        <time>2011-08-19T10:59:43Z</time>
      </trkpt>
      <trkpt lat="41.755677" lon="2.064684">
        <ele>564.2</ele>
        <time>2011-08-19T10:59:43Z</time>
      </trkpt>
      <trkpt lat="41.755735" lon="2.064818">
        <ele>565.5</ele>
        <time>2011-08-19T10:59:43Z</time>
      </trkpt>
      <trkpt lat="41.755765" lon="2.064905">
        <ele>565.9</ele>
        <time>2011-08-19T10:59:43Z</time>
      </trkpt>
      <trkpt lat="41.755836" lon="2.065052">
        <ele>566.4</ele>
        <time>2011-08-19T10:59:43Z</time>
      </trkpt>
      <trkpt lat="41.755878" lon="2.065148">
        <ele>566.7</ele>
        <time>2011-08-19T10:59:43Z</time>
      </trkpt>
      <trkpt lat="41.755893" lon="2.065205">
        <ele>566.7</ele>
        <time>2011-08-19T10:59:43Z</time>
      </trkpt>
      <trkpt lat="41.755922" lon="2.065323">
        <ele>566.4</ele>
        <time>2011-08-19T10:59:43Z</time>
      </trkpt>
      <trkpt lat="41.755954" lon="2.065459">
        <ele>566.3</ele>
        <time>2011-08-19T10:59:43Z</time>
      </trkpt>
      <trkpt lat="41.755969" lon="2.065528">
        <ele>567.1</ele>
        <time>2011-08-19T10:59:43Z</time>
      </trkpt>
      <trkpt lat="41.755970" lon="2.065689">
        <ele>567.1</ele>
        <time>2011-08-19T10:59:43Z</time>
      </trkpt>
      <trkpt lat="41.755972" lon="2.065837">
        <ele>567.1</ele>
        <time>2011-08-19T10:59:43Z</time>
      </trkpt>
      <trkpt lat="41.755979" lon="2.065939">
        <ele>567.4</ele>
        <time>2011-08-19T10:59:43Z</time>
      </trkpt>
      <trkpt lat="41.755988" lon="2.066065">
        <ele>567.8</ele>
        <time>2011-08-19T10:59:43Z</time>
      </trkpt>
      <trkpt lat="41.755997" lon="2.066163">
        <ele>568.3</ele>
        <time>2011-08-19T10:59:43Z</time>
      </trkpt>
      <trkpt lat="41.755992" lon="2.066284">
        <ele>568.4</ele>
        <time>2011-08-19T10:59:43Z</time>
      </trkpt>
      <trkpt lat="41.755976" lon="2.066389">
        <ele>567.9</ele>
        <time>2011-08-19T10:59:43Z</time>
      </trkpt>
      <trkpt lat="41.755954" lon="2.066463">
        <ele>566.9</ele>
        <time>2011-08-19T10:59:43Z</time>
      </trkpt>
      <trkpt lat="41.755918" lon="2.066592">
        <ele>567.1</ele>
        <time>2011-08-19T10:59:43Z</time>
      </trkpt>
      <trkpt lat="41.755915" lon="2.066699">
        <ele>567.1</ele>
        <time>2011-08-19T10:59:43Z</time>
      </trkpt>
      <trkpt lat="41.755928" lon="2.066806">
        <ele>567.0</ele>
        <time>2011-08-19T10:59:43Z</time>
      </trkpt>
      <trkpt lat="41.755888" lon="2.066892">
        <ele>567.2</ele>
        <time>2011-08-19T10:59:43Z</time>
      </trkpt>
      <trkpt lat="41.755837" lon="2.066934">
        <ele>567.3</ele>
        <time>2011-08-19T10:59:43Z</time>
      </trkpt>
      <trkpt lat="41.755753" lon="2.067006">
        <ele>567.5</ele>
        <time>2011-08-19T10:59:43Z</time>
      </trkpt>
      <trkpt lat="41.755657" lon="2.067049">
        <ele>567.8</ele>
        <time>2011-08-19T10:59:43Z</time>
      </trkpt>
      <trkpt lat="41.755569" lon="2.067086">
        <ele>568.2</ele>
        <time>2011-08-19T10:59:43Z</time>
      </trkpt>
      <trkpt lat="41.755502" lon="2.067133">
        <ele>568.1</ele>
        <time>2011-08-19T10:59:43Z</time>
      </trkpt>
      <trkpt lat="41.755422" lon="2.067151">
        <ele>568.0</ele>
        <time>2011-08-19T10:59:43Z</time>
      </trkpt>
      <trkpt lat="41.755332" lon="2.067179">
        <ele>568.3</ele>
        <time>2011-08-19T10:59:43Z</time>
      </trkpt>
      <trkpt lat="41.755271" lon="2.067260">
        <ele>567.9</ele>
        <time>2011-08-19T10:59:43Z</time>
      </trkpt>
      <trkpt lat="41.755214" lon="2.067335">
        <ele>568.5</ele>
        <time>2011-08-19T10:59:43Z</time>
      </trkpt>
      <trkpt lat="41.755105" lon="2.067372">
        <ele>568.9</ele>
        <time>2011-08-19T10:59:43Z</time>
      </trkpt>
      <trkpt lat="41.755011" lon="2.067393">
        <ele>569.2</ele>
        <time>2011-08-19T10:59:43Z</time>
      </trkpt>
      <trkpt lat="41.754931" lon="2.067421">
        <ele>569.5</ele>
        <time>2011-08-19T10:59:43Z</time>
      </trkpt>
      <trkpt lat="41.754812" lon="2.067431">
        <ele>569.9</ele>
        <time>2011-08-19T10:59:43Z</time>
      </trkpt>
      <trkpt lat="41.754716" lon="2.067471">
        <ele>570.1</ele>
        <time>2011-08-19T10:59:43Z</time>
      </trkpt>
      <trkpt lat="41.754611" lon="2.067522">
        <ele>569.8</ele>
        <time>2011-08-19T10:59:43Z</time>
      </trkpt>
      <trkpt lat="41.754563" lon="2.067591">
        <ele>569.1</ele>
        <time>2011-08-19T10:59:43Z</time>
      </trkpt>
      <trkpt lat="41.754512" lon="2.067674">
        <ele>569.5</ele>
        <time>2011-08-19T10:59:43Z</time>
      </trkpt>
      <trkpt lat="41.754466" lon="2.067754">
        <ele>569.5</ele>
        <time>2011-08-19T10:59:43Z</time>
      </trkpt>
      <trkpt lat="41.754421" lon="2.067895">
        <ele>569.3</ele>
        <time>2011-08-19T10:59:43Z</time>
      </trkpt>
      <trkpt lat="41.754379" lon="2.068005">
        <ele>569.1</ele>
        <time>2011-08-19T10:59:43Z</time>
      </trkpt>
      <trkpt lat="41.754323" lon="2.068135">
        <ele>569.9</ele>
        <time>2011-08-19T10:59:43Z</time>
      </trkpt>
      <trkpt lat="41.754287" lon="2.068259">
        <ele>570.8</ele>
        <time>2011-08-19T10:59:43Z</time>
      </trkpt>
      <trkpt lat="41.754245" lon="2.068364">
        <ele>571.6</ele>
        <time>2011-08-19T10:59:43Z</time>
      </trkpt>
      <trkpt lat="41.754200" lon="2.068511">
        <ele>572.6</ele>
        <time>2011-08-19T10:59:43Z</time>
      </trkpt>
      <trkpt lat="41.754177" lon="2.068663">
        <ele>573.3</ele>
        <time>2011-08-19T10:59:43Z</time>
      </trkpt>
      <trkpt lat="41.754139" lon="2.068820">
        <ele>572.5</ele>
        <time>2011-08-19T10:59:43Z</time>
      </trkpt>
      <trkpt lat="41.754098" lon="2.068988">
        <ele>571.3</ele>
        <time>2011-08-19T10:59:43Z</time>
      </trkpt>
      <trkpt lat="41.754095" lon="2.069148">
        <ele>572.0</ele>
        <time>2011-08-19T10:59:43Z</time>
      </trkpt>
      <trkpt lat="41.754098" lon="2.069281">
        <ele>572.8</ele>
        <time>2011-08-19T10:59:43Z</time>
      </trkpt>
      <trkpt lat="41.754088" lon="2.069443">
        <ele>573.2</ele>
        <time>2011-08-19T10:59:43Z</time>
      </trkpt>
      <trkpt lat="41.754081" lon="2.069614">
        <ele>574.0</ele>
        <time>2011-08-19T10:59:43Z</time>
      </trkpt>
      <trkpt lat="41.754074" lon="2.069763">
        <ele>574.7</ele>
        <time>2011-08-19T10:59:43Z</time>
      </trkpt>
      <trkpt lat="41.754081" lon="2.069887">
        <ele>575.2</ele>
        <time>2011-08-19T10:59:43Z</time>
      </trkpt>
      <trkpt lat="41.754093" lon="2.070076">
        <ele>575.8</ele>
        <time>2011-08-19T10:59:43Z</time>
      </trkpt>
      <trkpt lat="41.754100" lon="2.070198">
        <ele>576.3</ele>
        <time>2011-08-19T10:59:43Z</time>
      </trkpt>
      <trkpt lat="41.754120" lon="2.070409">
        <ele>577.3</ele>
        <time>2011-08-19T10:59:43Z</time>
      </trkpt>
      <trkpt lat="41.754147" lon="2.070524">
        <ele>578.4</ele>
        <time>2011-08-19T10:59:43Z</time>
      </trkpt>
      <trkpt lat="41.754148" lon="2.070641">
        <ele>578.6</ele>
        <time>2011-08-19T10:59:43Z</time>
      </trkpt>
      <trkpt lat="41.754159" lon="2.070781">
        <ele>579.2</ele>
        <time>2011-08-19T10:59:43Z</time>
      </trkpt>
      <trkpt lat="41.754171" lon="2.070925">
        <ele>580.0</ele>
        <time>2011-08-19T10:59:43Z</time>
      </trkpt>
      <trkpt lat="41.754166" lon="2.071062">
        <ele>580.7</ele>
        <time>2011-08-19T10:59:43Z</time>
      </trkpt>
      <trkpt lat="41.754151" lon="2.071225">
        <ele>581.3</ele>
        <time>2011-08-19T10:59:43Z</time>
      </trkpt>
      <trkpt lat="41.754144" lon="2.071396">
        <ele>581.5</ele>
        <time>2011-08-19T10:59:43Z</time>
      </trkpt>
      <trkpt lat="41.754143" lon="2.071512">
        <ele>581.8</ele>
        <time>2011-08-19T10:59:43Z</time>
      </trkpt>
      <trkpt lat="41.754156" lon="2.071644">
        <ele>582.0</ele>
        <time>2011-08-19T10:59:43Z</time>
      </trkpt>
      <trkpt lat="41.754186" lon="2.071785">
        <ele>582.2</ele>
        <time>2011-08-19T10:59:43Z</time>
      </trkpt>
      <trkpt lat="41.754223" lon="2.071889">
        <ele>582.7</ele>
        <time>2011-08-19T10:59:43Z</time>
      </trkpt>
      <trkpt lat="41.754276" lon="2.071986">
        <ele>582.4</ele>
        <time>2011-08-19T10:59:43Z</time>
      </trkpt>
      <trkpt lat="41.754347" lon="2.071999">
        <ele>583.4</ele>
        <time>2011-08-19T10:59:43Z</time>
      </trkpt>
      <trkpt lat="41.754439" lon="2.072030">
        <ele>583.9</ele>
        <time>2011-08-19T10:59:43Z</time>
      </trkpt>
      <trkpt lat="41.754536" lon="2.072042">
        <ele>584.7</ele>
        <time>2011-08-19T10:59:43Z</time>
      </trkpt>
      <trkpt lat="41.754658" lon="2.072075">
        <ele>584.8</ele>
        <time>2011-08-19T10:59:43Z</time>
      </trkpt>
      <trkpt lat="41.754796" lon="2.072117">
        <ele>585.2</ele>
        <time>2011-08-19T10:59:43Z</time>
      </trkpt>
      <trkpt lat="41.754869" lon="2.072135">
        <ele>585.4</ele>
        <time>2011-08-19T10:59:43Z</time>
      </trkpt>
      <trkpt lat="41.754946" lon="2.072161">
        <ele>585.2</ele>
        <time>2011-08-19T10:59:43Z</time>
      </trkpt>
      <trkpt lat="41.755058" lon="2.072186">
        <ele>586.4</ele>
        <time>2011-08-19T10:59:43Z</time>
      </trkpt>
      <trkpt lat="41.755150" lon="2.072192">
        <ele>588.2</ele>
        <time>2011-08-19T10:59:43Z</time>
      </trkpt>
      <trkpt lat="41.755242" lon="2.072241">
        <ele>589.1</ele>
        <time>2011-08-19T10:59:43Z</time>
      </trkpt>
      <trkpt lat="41.755290" lon="2.072261">
        <ele>590.8</ele>
        <time>2011-08-19T10:59:43Z</time>
      </trkpt>
      <trkpt lat="41.755400" lon="2.072318">
        <ele>595.7</ele>
        <time>2011-08-19T10:59:43Z</time>
      </trkpt>
      <trkpt lat="41.755485" lon="2.072351">
        <ele>599.7</ele>
        <time>2011-08-19T10:59:43Z</time>
      </trkpt>
      <trkpt lat="41.755589" lon="2.072366">
        <ele>605.6</ele>
        <time>2011-08-19T10:59:43Z</time>
      </trkpt>
      <trkpt lat="41.755674" lon="2.072390">
        <ele>610.2</ele>
        <time>2011-08-19T10:59:43Z</time>
      </trkpt>
      <trkpt lat="41.755766" lon="2.072410">
        <ele>614.7</ele>
        <time>2011-08-19T10:59:43Z</time>
      </trkpt>
      <trkpt lat="41.755902" lon="2.072467">
        <ele>618.5</ele>
        <time>2011-08-19T10:59:43Z</time>
      </trkpt>
      <trkpt lat="41.755984" lon="2.072508">
        <ele>620.8</ele>
        <time>2011-08-19T10:59:43Z</time>
      </trkpt>
      <trkpt lat="41.756035" lon="2.072578">
        <ele>621.8</ele>
        <time>2011-08-19T10:59:43Z</time>
      </trkpt>
      <trkpt lat="41.756067" lon="2.072679">
        <ele>622.4</ele>
        <time>2011-08-19T10:59:43Z</time>
      </trkpt>
      <trkpt lat="41.756099" lon="2.072779">
        <ele>623.6</ele>
        <time>2011-08-19T10:59:43Z</time>
      </trkpt>
      <trkpt lat="41.756107" lon="2.072926">
        <ele>622.9</ele>
        <time>2011-08-19T10:59:43Z</time>
      </trkpt>
      <trkpt lat="41.756121" lon="2.073123">
        <ele>622.6</ele>
        <time>2011-08-19T10:59:43Z</time>
      </trkpt>
      <trkpt lat="41.756141" lon="2.073283">
        <ele>622.6</ele>
        <time>2011-08-19T10:59:43Z</time>
      </trkpt>
      <trkpt lat="41.756164" lon="2.073375">
        <ele>622.4</ele>
        <time>2011-08-19T10:59:43Z</time>
      </trkpt>
      <trkpt lat="41.756227" lon="2.073441">
        <ele>622.5</ele>
        <time>2011-08-19T10:59:43Z</time>
      </trkpt>
      <trkpt lat="41.756262" lon="2.073483">
        <ele>622.2</ele>
        <time>2011-08-19T10:59:43Z</time>
      </trkpt>
      <trkpt lat="41.756319" lon="2.073536">
        <ele>621.5</ele>
        <time>2011-08-19T10:59:43Z</time>
      </trkpt>
      <trkpt lat="41.756370" lon="2.073582">
        <ele>620.5</ele>
        <time>2011-08-19T10:59:43Z</time>
      </trkpt>
      <trkpt lat="41.756452" lon="2.073598">
        <ele>620.7</ele>
        <time>2011-08-19T10:59:43Z</time>
      </trkpt>
      <trkpt lat="41.756534" lon="2.073571">
        <ele>622.5</ele>
        <time>2011-08-19T10:59:43Z</time>
      </trkpt>
      <trkpt lat="41.756593" lon="2.073562">
        <ele>623.0</ele>
        <time>2011-08-19T10:59:43Z</time>
      </trkpt>
      <trkpt lat="41.756672" lon="2.073548">
        <ele>623.2</ele>
        <time>2011-08-19T10:59:43Z</time>
      </trkpt>
      <trkpt lat="41.756766" lon="2.073522">
        <ele>623.7</ele>
        <time>2011-08-19T10:59:43Z</time>
      </trkpt>
      <trkpt lat="41.756848" lon="2.073508">
        <ele>623.8</ele>
        <time>2011-08-19T10:59:43Z</time>
      </trkpt>
      <trkpt lat="41.756917" lon="2.073515">
        <ele>623.7</ele>
        <time>2011-08-19T10:59:43Z</time>
      </trkpt>
      <trkpt lat="41.756980" lon="2.073535">
        <ele>623.4</ele>
        <time>2011-08-19T10:59:43Z</time>
      </trkpt>
      <trkpt lat="41.757075" lon="2.073538">
        <ele>623.8</ele>
        <time>2011-08-19T10:59:43Z</time>
      </trkpt>
      <trkpt lat="41.757156" lon="2.073520">
        <ele>624.9</ele>
        <time>2011-08-19T10:59:43Z</time>
      </trkpt>
      <trkpt lat="41.757258" lon="2.073469">
        <ele>626.4</ele>
        <time>2011-08-19T10:59:43Z</time>
      </trkpt>
      <trkpt lat="41.757338" lon="2.073417">
        <ele>627.2</ele>
        <time>2011-08-19T10:59:43Z</time>
      </trkpt>
      <trkpt lat="41.757408" lon="2.073359">
        <ele>628.2</ele>
        <time>2011-08-19T10:59:43Z</time>
      </trkpt>
      <trkpt lat="41.757454" lon="2.073334">
        <ele>629.1</ele>
        <time>2011-08-19T10:59:43Z</time>
      </trkpt>
      <trkpt lat="41.757523" lon="2.073325">
        <ele>630.5</ele>
        <time>2011-08-19T10:59:43Z</time>
      </trkpt>
      <trkpt lat="41.757579" lon="2.073349">
        <ele>632.1</ele>
        <time>2011-08-19T10:59:43Z</time>
      </trkpt>
      <trkpt lat="41.757608" lon="2.073413">
        <ele>633.6</ele>
        <time>2011-08-19T10:59:43Z</time>
      </trkpt>
      <trkpt lat="41.757614" lon="2.073480">
        <ele>634.6</ele>
        <time>2011-08-19T10:59:43Z</time>
      </trkpt>
      <trkpt lat="41.757575" lon="2.073607">
        <ele>635.0</ele>
        <time>2011-08-19T10:59:43Z</time>
      </trkpt>
      <trkpt lat="41.757527" lon="2.073680">
        <ele>634.3</ele>
        <time>2011-08-19T10:59:43Z</time>
      </trkpt>
      <trkpt lat="41.757480" lon="2.073767">
        <ele>633.8</ele>
        <time>2011-08-19T10:59:43Z</time>
      </trkpt>
      <trkpt lat="41.757436" lon="2.073864">
        <ele>633.6</ele>
        <time>2011-08-19T10:59:43Z</time>
      </trkpt>
      <trkpt lat="41.757399" lon="2.073926">
        <ele>633.2</ele>
        <time>2011-08-19T10:59:43Z</time>
      </trkpt>
      <trkpt lat="41.757359" lon="2.073991">
        <ele>633.0</ele>
        <time>2011-08-19T10:59:43Z</time>
      </trkpt>
      <trkpt lat="41.757338" lon="2.074078">
        <ele>633.5</ele>
        <time>2011-08-19T10:59:43Z</time>
      </trkpt>
      <trkpt lat="41.757333" lon="2.074212">
        <ele>633.6</ele>
        <time>2011-08-19T10:59:43Z</time>
      </trkpt>
      <trkpt lat="41.757347" lon="2.074298">
        <ele>633.8</ele>
        <time>2011-08-19T10:59:43Z</time>
      </trkpt>
      <trkpt lat="41.757386" lon="2.074389">
        <ele>634.2</ele>
        <time>2011-08-19T10:59:43Z</time>
      </trkpt>
      <trkpt lat="41.757443" lon="2.074420">
        <ele>634.6</ele>
        <time>2011-08-19T10:59:43Z</time>
      </trkpt>
      <trkpt lat="41.757509" lon="2.074406">
        <ele>635.5</ele>
        <time>2011-08-19T10:59:43Z</time>
      </trkpt>
      <trkpt lat="41.757602" lon="2.074410">
        <ele>636.5</ele>
        <time>2011-08-19T10:59:43Z</time>
      </trkpt>
      <trkpt lat="41.757678" lon="2.074382">
        <ele>637.6</ele>
        <time>2011-08-19T10:59:43Z</time>
      </trkpt>
      <trkpt lat="41.757748" lon="2.074365">
        <ele>638.4</ele>
        <time>2011-08-19T10:59:43Z</time>
      </trkpt>
      <trkpt lat="41.757827" lon="2.074374">
        <ele>638.9</ele>
        <time>2011-08-19T10:59:43Z</time>
      </trkpt>
      <trkpt lat="41.757903" lon="2.074389">
        <ele>639.2</ele>
        <time>2011-08-19T10:59:43Z</time>
      </trkpt>
      <trkpt lat="41.757974" lon="2.074394">
        <ele>639.8</ele>
        <time>2011-08-19T10:59:43Z</time>
      </trkpt>
      <trkpt lat="41.758044" lon="2.074382">
        <ele>640.8</ele>
        <time>2011-08-19T10:59:43Z</time>
      </trkpt>
      <trkpt lat="41.758120" lon="2.074354">
        <ele>641.9</ele>
        <time>2011-08-19T10:59:43Z</time>
      </trkpt>
      <trkpt lat="41.758207" lon="2.074347">
        <ele>642.5</ele>
        <time>2011-08-19T10:59:43Z</time>
      </trkpt>
      <trkpt lat="41.758287" lon="2.074349">
        <ele>642.2</ele>
        <time>2011-08-19T10:59:43Z</time>
      </trkpt>
      <trkpt lat="41.758352" lon="2.074378">
        <ele>642.0</ele>
        <time>2011-08-19T10:59:43Z</time>
      </trkpt>
      <trkpt lat="41.758407" lon="2.074447">
        <ele>642.6</ele>
        <time>2011-08-19T10:59:43Z</time>
      </trkpt>
      <trkpt lat="41.758472" lon="2.074548">
        <ele>643.8</ele>
        <time>2011-08-19T10:59:43Z</time>
      </trkpt>
      <trkpt lat="41.758525" lon="2.074601">
        <ele>643.9</ele>
        <time>2011-08-19T10:59:43Z</time>
      </trkpt>
      <trkpt lat="41.758590" lon="2.074662">
        <ele>644.0</ele>
        <time>2011-08-19T10:59:43Z</time>
      </trkpt>
      <trkpt lat="41.758640" lon="2.074707">
        <ele>644.1</ele>
        <time>2011-08-19T10:59:43Z</time>
      </trkpt>
      <trkpt lat="41.758703" lon="2.074789">
        <ele>645.0</ele>
        <time>2011-08-19T10:59:43Z</time>
      </trkpt>
      <trkpt lat="41.758761" lon="2.074904">
        <ele>646.5</ele>
        <time>2011-08-19T10:59:43Z</time>
      </trkpt>
      <trkpt lat="41.758818" lon="2.075026">
        <ele>647.8</ele>
        <time>2011-08-19T10:59:43Z</time>
      </trkpt>
      <trkpt lat="41.758899" lon="2.075157">
        <ele>648.4</ele>
        <time>2011-08-19T10:59:43Z</time>
      </trkpt>
      <trkpt lat="41.758952" lon="2.075234">
        <ele>648.7</ele>
        <time>2011-08-19T10:59:43Z</time>
      </trkpt>
      <trkpt lat="41.759005" lon="2.075306">
        <ele>649.3</ele>
        <time>2011-08-19T10:59:43Z</time>
      </trkpt>
      <trkpt lat="41.759063" lon="2.075415">
        <ele>650.6</ele>
        <time>2011-08-19T10:59:43Z</time>
      </trkpt>
      <trkpt lat="41.759126" lon="2.075519">
        <ele>651.5</ele>
        <time>2011-08-19T10:59:43Z</time>
      </trkpt>
      <trkpt lat="41.759168" lon="2.075572">
        <ele>651.7</ele>
        <time>2011-08-19T10:59:43Z</time>
      </trkpt>
      <trkpt lat="41.759244" lon="2.075703">
        <ele>653.0</ele>
        <time>2011-08-19T10:59:43Z</time>
      </trkpt>
      <trkpt lat="41.759287" lon="2.075810">
        <ele>654.2</ele>
        <time>2011-08-19T10:59:43Z</time>
      </trkpt>
      <trkpt lat="41.759326" lon="2.075930">
        <ele>653.1</ele>
        <time>2011-08-19T10:59:43Z</time>
      </trkpt>
      <trkpt lat="41.759349" lon="2.076043">
        <ele>652.3</ele>
        <time>2011-08-19T10:59:43Z</time>
      </trkpt>
      <trkpt lat="41.759360" lon="2.076163">
        <ele>651.9</ele>
        <time>2011-08-19T10:59:43Z</time>
      </trkpt>
      <trkpt lat="41.759361" lon="2.076295">
        <ele>651.3</ele>
        <time>2011-08-19T10:59:43Z</time>
      </trkpt>
      <trkpt lat="41.759350" lon="2.076419">
        <ele>651.0</ele>
        <time>2011-08-19T10:59:43Z</time>
      </trkpt>
      <trkpt lat="41.759323" lon="2.076559">
        <ele>650.9</ele>
        <time>2011-08-19T10:59:43Z</time>
      </trkpt>
      <trkpt lat="41.759308" lon="2.076688">
        <ele>651.7</ele>
        <time>2011-08-19T10:59:43Z</time>
      </trkpt>
      <trkpt lat="41.759301" lon="2.076820">
        <ele>652.3</ele>
        <time>2011-08-19T10:59:43Z</time>
      </trkpt>
      <trkpt lat="41.759317" lon="2.076973">
        <ele>652.4</ele>
        <time>2011-08-19T10:59:43Z</time>
      </trkpt>
      <trkpt lat="41.759331" lon="2.077042">
        <ele>652.4</ele>
        <time>2011-08-19T10:59:43Z</time>
      </trkpt>
      <trkpt lat="41.759382" lon="2.077173">
        <ele>652.3</ele>
        <time>2011-08-19T10:59:43Z</time>
      </trkpt>
      <trkpt lat="41.759427" lon="2.077272">
        <ele>652.5</ele>
        <time>2011-08-19T10:59:43Z</time>
      </trkpt>
      <trkpt lat="41.759464" lon="2.077355">
        <ele>652.9</ele>
        <time>2011-08-19T10:59:43Z</time>
      </trkpt>
      <trkpt lat="41.759522" lon="2.077502">
        <ele>654.3</ele>
        <time>2011-08-19T10:59:43Z</time>
      </trkpt>
      <trkpt lat="41.759547" lon="2.077612">
        <ele>655.7</ele>
        <time>2011-08-19T10:59:43Z</time>
      </trkpt>
      <trkpt lat="41.759554" lon="2.077725">
        <ele>657.1</ele>
        <time>2011-08-19T10:59:43Z</time>
      </trkpt>
      <trkpt lat="41.759538" lon="2.077797">
        <ele>657.8</ele>
        <time>2011-08-19T10:59:43Z</time>
      </trkpt>
      <trkpt lat="41.759511" lon="2.077881">
        <ele>658.5</ele>
        <time>2011-08-19T10:59:43Z</time>
      </trkpt>
      <trkpt lat="41.759497" lon="2.077954">
        <ele>659.2</ele>
        <time>2011-08-19T10:59:43Z</time>
      </trkpt>
      <trkpt lat="41.759522" lon="2.078066">
        <ele>660.4</ele>
        <time>2011-08-19T10:59:43Z</time>
      </trkpt>
      <trkpt lat="41.759559" lon="2.078146">
        <ele>661.3</ele>
        <time>2011-08-19T10:59:43Z</time>
      </trkpt>
      <trkpt lat="41.759592" lon="2.078243">
        <ele>661.4</ele>
        <time>2011-08-19T10:59:43Z</time>
      </trkpt>
      <trkpt lat="41.759599" lon="2.078345">
        <ele>662.0</ele>
        <time>2011-08-19T10:59:43Z</time>
      </trkpt>
      <trkpt lat="41.759574" lon="2.078466">
        <ele>661.5</ele>
        <time>2011-08-19T10:59:43Z</time>
      </trkpt>
      <trkpt lat="41.759536" lon="2.078550">
        <ele>661.2</ele>
        <time>2011-08-19T10:59:43Z</time>
      </trkpt>
      <trkpt lat="41.759499" lon="2.078623">
        <ele>661.3</ele>
        <time>2011-08-19T10:59:43Z</time>
      </trkpt>
      <trkpt lat="41.759427" lon="2.078713">
        <ele>662.6</ele>
        <time>2011-08-19T10:59:43Z</time>
      </trkpt>
      <trkpt lat="41.759371" lon="2.078791">
        <ele>663.6</ele>
        <time>2011-08-19T10:59:43Z</time>
      </trkpt>
      <trkpt lat="41.759328" lon="2.078886">
        <ele>664.5</ele>
        <time>2011-08-19T10:59:43Z</time>
      </trkpt>
      <trkpt lat="41.759288" lon="2.078967">
        <ele>665.5</ele>
        <time>2011-08-19T10:59:43Z</time>
      </trkpt>
      <trkpt lat="41.759257" lon="2.079048">
        <ele>666.1</ele>
        <time>2011-08-19T10:59:43Z</time>
      </trkpt>
      <trkpt lat="41.759225" lon="2.079156">
        <ele>666.9</ele>
        <time>2011-08-19T10:59:43Z</time>
      </trkpt>
      <trkpt lat="41.759212" lon="2.079291">
        <ele>667.3</ele>
        <time>2011-08-19T10:59:43Z</time>
      </trkpt>
      <trkpt lat="41.759195" lon="2.079377">
        <ele>668.1</ele>
        <time>2011-08-19T10:59:43Z</time>
      </trkpt>
      <trkpt lat="41.759170" lon="2.079512">
        <ele>669.3</ele>
        <time>2011-08-19T10:59:43Z</time>
      </trkpt>
      <trkpt lat="41.759165" lon="2.079627">
        <ele>669.2</ele>
        <time>2011-08-19T10:59:43Z</time>
      </trkpt>
      <trkpt lat="41.759135" lon="2.079743">
        <ele>670.1</ele>
        <time>2011-08-19T10:59:43Z</time>
      </trkpt>
      <trkpt lat="41.759096" lon="2.079870">
        <ele>669.9</ele>
        <time>2011-08-19T10:59:43Z</time>
      </trkpt>
      <trkpt lat="41.759043" lon="2.079970">
        <ele>669.6</ele>
        <time>2011-08-19T10:59:43Z</time>
      </trkpt>
      <trkpt lat="41.758983" lon="2.080046">
        <ele>669.5</ele>
        <time>2011-08-19T10:59:43Z</time>
      </trkpt>
      <trkpt lat="41.758917" lon="2.080088">
        <ele>670.3</ele>
        <time>2011-08-19T10:59:43Z</time>
      </trkpt>
      <trkpt lat="41.758855" lon="2.080156">
        <ele>670.0</ele>
        <time>2011-08-19T10:59:43Z</time>
      </trkpt>
      <trkpt lat="41.758793" lon="2.080213">
        <ele>669.7</ele>
        <time>2011-08-19T10:59:43Z</time>
      </trkpt>
      <trkpt lat="41.758701" lon="2.080292">
        <ele>669.1</ele>
        <time>2011-08-19T10:59:43Z</time>
      </trkpt>
      <trkpt lat="41.758637" lon="2.080336">
        <ele>669.0</ele>
        <time>2011-08-19T10:59:43Z</time>
      </trkpt>
      <trkpt lat="41.758533" lon="2.080407">
        <ele>669.3</ele>
        <time>2011-08-19T10:59:43Z</time>
      </trkpt>
      <trkpt lat="41.758457" lon="2.080465">
        <ele>668.7</ele>
        <time>2011-08-19T10:59:43Z</time>
      </trkpt>
      <trkpt lat="41.758357" lon="2.080515">
        <ele>668.3</ele>
        <time>2011-08-19T10:59:43Z</time>
      </trkpt>
      <trkpt lat="41.758277" lon="2.080543">
        <ele>668.4</ele>
        <time>2011-08-19T10:59:43Z</time>
      </trkpt>
      <trkpt lat="41.758204" lon="2.080557">
        <ele>668.5</ele>
        <time>2011-08-19T10:59:43Z</time>
      </trkpt>
      <trkpt lat="41.758122" lon="2.080609">
        <ele>667.5</ele>
        <time>2011-08-19T10:59:43Z</time>
      </trkpt>
      <trkpt lat="41.758026" lon="2.080630">
        <ele>667.3</ele>
        <time>2011-08-19T10:59:43Z</time>
      </trkpt>
      <trkpt lat="41.757932" lon="2.080677">
        <ele>666.7</ele>
        <time>2011-08-19T10:59:43Z</time>
      </trkpt>
      <trkpt lat="41.757874" lon="2.080707">
        <ele>666.5</ele>
        <time>2011-08-19T10:59:43Z</time>
      </trkpt>
      <trkpt lat="41.757761" lon="2.080764">
        <ele>666.4</ele>
        <time>2011-08-19T10:59:43Z</time>
      </trkpt>
      <trkpt lat="41.757709" lon="2.080804">
        <ele>666.4</ele>
        <time>2011-08-19T10:59:43Z</time>
      </trkpt>
      <trkpt lat="41.757646" lon="2.080874">
        <ele>666.5</ele>
        <time>2011-08-19T10:59:43Z</time>
      </trkpt>
      <trkpt lat="41.757576" lon="2.080911">
        <ele>666.8</ele>
        <time>2011-08-19T10:59:43Z</time>
      </trkpt>
      <trkpt lat="41.757500" lon="2.080964">
        <ele>666.5</ele>
        <time>2011-08-19T10:59:43Z</time>
      </trkpt>
      <trkpt lat="41.757428" lon="2.081001">
        <ele>666.4</ele>
        <time>2011-08-19T10:59:43Z</time>
      </trkpt>
      <trkpt lat="41.757370" lon="2.081030">
        <ele>666.2</ele>
        <time>2011-08-19T10:59:43Z</time>
      </trkpt>
      <trkpt lat="41.757316" lon="2.081058">
        <ele>666.1</ele>
        <time>2011-08-19T10:59:43Z</time>
      </trkpt>
      <trkpt lat="41.757257" lon="2.081095">
        <ele>665.8</ele>
        <time>2011-08-19T10:59:43Z</time>
      </trkpt>
      <trkpt lat="41.757207" lon="2.081131">
        <ele>665.6</ele>
        <time>2011-08-19T10:59:43Z</time>
      </trkpt>
      <trkpt lat="41.757139" lon="2.081160">
        <ele>665.6</ele>
        <time>2011-08-19T10:59:43Z</time>
      </trkpt>
      <trkpt lat="41.757080" lon="2.081194">
        <ele>665.6</ele>
        <time>2011-08-19T10:59:43Z</time>
      </trkpt>
      <trkpt lat="41.757018" lon="2.081231">
        <ele>665.5</ele>
        <time>2011-08-19T10:59:43Z</time>
      </trkpt>
      <trkpt lat="41.756985" lon="2.081303">
        <ele>664.9</ele>
        <time>2011-08-19T10:59:43Z</time>
      </trkpt>
      <trkpt lat="41.756988" lon="2.081364">
        <ele>664.2</ele>
        <time>2011-08-19T10:59:43Z</time>
      </trkpt>
      <trkpt lat="41.757052" lon="2.081371">
        <ele>663.7</ele>
        <time>2011-08-19T10:59:43Z</time>
      </trkpt>
      <trkpt lat="41.757130" lon="2.081340">
        <ele>663.4</ele>
        <time>2011-08-19T10:59:43Z</time>
      </trkpt>
      <trkpt lat="41.757277" lon="2.081332">
        <ele>662.4</ele>
        <time>2011-08-19T10:59:43Z</time>
      </trkpt>
      <trkpt lat="41.757370" lon="2.081306">
        <ele>662.0</ele>
        <time>2011-08-19T10:59:43Z</time>
      </trkpt>
      <trkpt lat="41.757550" lon="2.081273">
        <ele>661.0</ele>
        <time>2011-08-19T10:59:43Z</time>
      </trkpt>
      <trkpt lat="41.757655" lon="2.081260">
        <ele>660.4</ele>
        <time>2011-08-19T10:59:43Z</time>
      </trkpt>
      <trkpt lat="41.757792" lon="2.081225">
        <ele>659.5</ele>
        <time>2011-08-19T10:59:43Z</time>
      </trkpt>
      <trkpt lat="41.757909" lon="2.081177">
        <ele>659.0</ele>
        <time>2011-08-19T10:59:43Z</time>
      </trkpt>
      <trkpt lat="41.758024" lon="2.081120">
        <ele>658.5</ele>
        <time>2011-08-19T10:59:43Z</time>
      </trkpt>
      <trkpt lat="41.758097" lon="2.081099">
        <ele>657.8</ele>
        <time>2011-08-19T10:59:43Z</time>
      </trkpt>
      <trkpt lat="41.758189" lon="2.081076">
        <ele>657.1</ele>
        <time>2011-08-19T10:59:43Z</time>
      </trkpt>
      <trkpt lat="41.758285" lon="2.081047">
        <ele>656.1</ele>
        <time>2011-08-19T10:59:43Z</time>
      </trkpt>
      <trkpt lat="41.758476" lon="2.080986">
        <ele>653.7</ele>
        <time>2011-08-19T10:59:43Z</time>
      </trkpt>
      <trkpt lat="41.758580" lon="2.080941">
        <ele>652.0</ele>
        <time>2011-08-19T10:59:43Z</time>
      </trkpt>
      <trkpt lat="41.758691" lon="2.080862">
        <ele>650.7</ele>
        <time>2011-08-19T10:59:43Z</time>
      </trkpt>
      <trkpt lat="41.758814" lon="2.080816">
        <ele>648.5</ele>
        <time>2011-08-19T10:59:43Z</time>
      </trkpt>
      <trkpt lat="41.758948" lon="2.080761">
        <ele>646.7</ele>
        <time>2011-08-19T10:59:43Z</time>
      </trkpt>
      <trkpt lat="41.759095" lon="2.080687">
        <ele>645.5</ele>
        <time>2011-08-19T10:59:43Z</time>
      </trkpt>
      <trkpt lat="41.759251" lon="2.080624">
        <ele>644.0</ele>
        <time>2011-08-19T10:59:43Z</time>
      </trkpt>
      <trkpt lat="41.759359" lon="2.080576">
        <ele>643.1</ele>
        <time>2011-08-19T10:59:43Z</time>
      </trkpt>
      <trkpt lat="41.759464" lon="2.080571">
        <ele>641.7</ele>
        <time>2011-08-19T10:59:43Z</time>
      </trkpt>
      <trkpt lat="41.759562" lon="2.080590">
        <ele>640.0</ele>
        <time>2011-08-19T10:59:43Z</time>
      </trkpt>
      <trkpt lat="41.759635" lon="2.080630">
        <ele>638.6</ele>
        <time>2011-08-19T10:59:43Z</time>
      </trkpt>
      <trkpt lat="41.759726" lon="2.080662">
        <ele>637.4</ele>
        <time>2011-08-19T10:59:43Z</time>
      </trkpt>
      <trkpt lat="41.759837" lon="2.080701">
        <ele>636.0</ele>
        <time>2011-08-19T10:59:43Z</time>
      </trkpt>
      <trkpt lat="41.759913" lon="2.080725">
        <ele>635.3</ele>
        <time>2011-08-19T10:59:43Z</time>
      </trkpt>
      <trkpt lat="41.760017" lon="2.080781">
        <ele>634.2</ele>
        <time>2011-08-19T10:59:43Z</time>
      </trkpt>
      <trkpt lat="41.760108" lon="2.080819">
        <ele>633.5</ele>
        <time>2011-08-19T10:59:43Z</time>
      </trkpt>
      <trkpt lat="41.760207" lon="2.080831">
        <ele>633.5</ele>
        <time>2011-08-19T10:59:43Z</time>
      </trkpt>
      <trkpt lat="41.760299" lon="2.080808">
        <ele>633.7</ele>
        <time>2011-08-19T10:59:43Z</time>
      </trkpt>
      <trkpt lat="41.760381" lon="2.080815">
        <ele>633.8</ele>
        <time>2011-08-19T10:59:43Z</time>
      </trkpt>
      <trkpt lat="41.760464" lon="2.080885">
        <ele>634.0</ele>
        <time>2011-08-19T10:59:43Z</time>
      </trkpt>
      <trkpt lat="41.760545" lon="2.080939">
        <ele>634.3</ele>
        <time>2011-08-19T10:59:43Z</time>
      </trkpt>
      <trkpt lat="41.760661" lon="2.081028">
        <ele>634.9</ele>
        <time>2011-08-19T10:59:43Z</time>
      </trkpt>
      <trkpt lat="41.760763" lon="2.081150">
        <ele>635.5</ele>
        <time>2011-08-19T10:59:43Z</time>
      </trkpt>
      <trkpt lat="41.760815" lon="2.081218">
        <ele>635.9</ele>
        <time>2011-08-19T10:59:43Z</time>
      </trkpt>
      <trkpt lat="41.760863" lon="2.081286">
        <ele>636.4</ele>
        <time>2011-08-19T10:59:43Z</time>
      </trkpt>
      <trkpt lat="41.760950" lon="2.081367">
        <ele>636.7</ele>
        <time>2011-08-19T10:59:43Z</time>
      </trkpt>
      <trkpt lat="41.761016" lon="2.081427">
        <ele>637.1</ele>
        <time>2011-08-19T10:59:43Z</time>
      </trkpt>
      <trkpt lat="41.761124" lon="2.081508">
        <ele>637.3</ele>
        <time>2011-08-19T10:59:43Z</time>
      </trkpt>
      <trkpt lat="41.761217" lon="2.081578">
        <ele>637.1</ele>
        <time>2011-08-19T10:59:43Z</time>
      </trkpt>
      <trkpt lat="41.761335" lon="2.081620">
        <ele>638.5</ele>
        <time>2011-08-19T10:59:43Z</time>
      </trkpt>
      <trkpt lat="41.761403" lon="2.081639">
        <ele>639.1</ele>
        <time>2011-08-19T10:59:43Z</time>
      </trkpt>
      <trkpt lat="41.761498" lon="2.081698">
        <ele>640.1</ele>
        <time>2011-08-19T10:59:43Z</time>
      </trkpt>
      <trkpt lat="41.761414" lon="2.081732">
        <ele>640.2</ele>
        <time>2011-08-19T10:59:43Z</time>
      </trkpt>
      <trkpt lat="41.761334" lon="2.081741">
        <ele>640.1</ele>
        <time>2011-08-19T10:59:43Z</time>
      </trkpt>
      <trkpt lat="41.761239" lon="2.081776">
        <ele>640.4</ele>
        <time>2011-08-19T10:59:43Z</time>
      </trkpt>
      <trkpt lat="41.761139" lon="2.081813">
        <ele>641.3</ele>
        <time>2011-08-19T10:59:43Z</time>
      </trkpt>
      <trkpt lat="41.761026" lon="2.081845">
        <ele>642.3</ele>
        <time>2011-08-19T10:59:43Z</time>
      </trkpt>
      <trkpt lat="41.760919" lon="2.081871">
        <ele>643.3</ele>
        <time>2011-08-19T10:59:43Z</time>
      </trkpt>
      <trkpt lat="41.760806" lon="2.081900">
        <ele>644.5</ele>
        <time>2011-08-19T10:59:43Z</time>
      </trkpt>
      <trkpt lat="41.760703" lon="2.081918">
        <ele>645.5</ele>
        <time>2011-08-19T10:59:43Z</time>
      </trkpt>
      <trkpt lat="41.760611" lon="2.081963">
        <ele>646.6</ele>
        <time>2011-08-19T10:59:43Z</time>
      </trkpt>
      <trkpt lat="41.760549" lon="2.082014">
        <ele>647.6</ele>
        <time>2011-08-19T10:59:43Z</time>
      </trkpt>
      <trkpt lat="41.760462" lon="2.082103">
        <ele>649.2</ele>
        <time>2011-08-19T10:59:43Z</time>
      </trkpt>
      <trkpt lat="41.760373" lon="2.082154">
        <ele>649.8</ele>
        <time>2011-08-19T10:59:43Z</time>
      </trkpt>
      <trkpt lat="41.760277" lon="2.082191">
        <ele>650.0</ele>
        <time>2011-08-19T10:59:43Z</time>
      </trkpt>
      <trkpt lat="41.760203" lon="2.082225">
        <ele>650.3</ele>
        <time>2011-08-19T10:59:43Z</time>
      </trkpt>
      <trkpt lat="41.760127" lon="2.082245">
        <ele>650.3</ele>
        <time>2011-08-19T10:59:43Z</time>
      </trkpt>
      <trkpt lat="41.760084" lon="2.082301">
        <ele>651.1</ele>
        <time>2011-08-19T10:59:43Z</time>
      </trkpt>
      <trkpt lat="41.759999" lon="2.082387">
        <ele>652.7</ele>
        <time>2011-08-19T10:59:43Z</time>
      </trkpt>
      <trkpt lat="41.759941" lon="2.082451">
        <ele>653.9</ele>
        <time>2011-08-19T10:59:43Z</time>
      </trkpt>
      <trkpt lat="41.759831" lon="2.082508">
        <ele>655.3</ele>
        <time>2011-08-19T10:59:43Z</time>
      </trkpt>
      <trkpt lat="41.759743" lon="2.082558">
        <ele>656.5</ele>
        <time>2011-08-19T10:59:43Z</time>
      </trkpt>
      <trkpt lat="41.759648" lon="2.082612">
        <ele>657.7</ele>
        <time>2011-08-19T10:59:43Z</time>
      </trkpt>
      <trkpt lat="41.759525" lon="2.082639">
        <ele>658.1</ele>
        <time>2011-08-19T10:59:43Z</time>
      </trkpt>
      <trkpt lat="41.759410" lon="2.082648">
        <ele>657.9</ele>
        <time>2011-08-19T10:59:43Z</time>
      </trkpt>
      <trkpt lat="41.759301" lon="2.082697">
        <ele>658.1</ele>
        <time>2011-08-19T10:59:43Z</time>
      </trkpt>
      <trkpt lat="41.759230" lon="2.082761">
        <ele>658.8</ele>
        <time>2011-08-19T10:59:43Z</time>
      </trkpt>
      <trkpt lat="41.759158" lon="2.082853">
        <ele>659.8</ele>
        <time>2011-08-19T10:59:43Z</time>
      </trkpt>
      <trkpt lat="41.759077" lon="2.082958">
        <ele>660.7</ele>
        <time>2011-08-19T10:59:43Z</time>
      </trkpt>
      <trkpt lat="41.759016" lon="2.083050">
        <ele>661.2</ele>
        <time>2011-08-19T10:59:43Z</time>
      </trkpt>
      <trkpt lat="41.758937" lon="2.083188">
        <ele>662.6</ele>
        <time>2011-08-19T10:59:43Z</time>
      </trkpt>
      <trkpt lat="41.758882" lon="2.083269">
        <ele>662.7</ele>
        <time>2011-08-19T10:59:43Z</time>
      </trkpt>
      <trkpt lat="41.758831" lon="2.083371">
        <ele>662.7</ele>
        <time>2011-08-19T10:59:43Z</time>
      </trkpt>
      <trkpt lat="41.758793" lon="2.083485">
        <ele>663.2</ele>
        <time>2011-08-19T10:59:43Z</time>
      </trkpt>
      <trkpt lat="41.758753" lon="2.083617">
        <ele>664.5</ele>
        <time>2011-08-19T10:59:43Z</time>
      </trkpt>
      <trkpt lat="41.758706" lon="2.083717">
        <ele>664.8</ele>
        <time>2011-08-19T10:59:43Z</time>
      </trkpt>
      <trkpt lat="41.758652" lon="2.083841">
        <ele>665.1</ele>
        <time>2011-08-19T10:59:43Z</time>
      </trkpt>
      <trkpt lat="41.758611" lon="2.083924">
        <ele>665.0</ele>
        <time>2011-08-19T10:59:43Z</time>
      </trkpt>
      <trkpt lat="41.758540" lon="2.084066">
        <ele>664.5</ele>
        <time>2011-08-19T10:59:43Z</time>
      </trkpt>
      <trkpt lat="41.758484" lon="2.084187">
        <ele>665.0</ele>
        <time>2011-08-19T10:59:43Z</time>
      </trkpt>
      <trkpt lat="41.758454" lon="2.084292">
        <ele>665.2</ele>
        <time>2011-08-19T10:59:43Z</time>
      </trkpt>
      <trkpt lat="41.758442" lon="2.084427">
        <ele>665.7</ele>
        <time>2011-08-19T10:59:43Z</time>
      </trkpt>
      <trkpt lat="41.758439" lon="2.084534">
        <ele>665.8</ele>
        <time>2011-08-19T10:59:43Z</time>
      </trkpt>
      <trkpt lat="41.758438" lon="2.084653">
        <ele>665.3</ele>
        <time>2011-08-19T10:59:43Z</time>
      </trkpt>
      <trkpt lat="41.758445" lon="2.084776">
        <ele>665.0</ele>
        <time>2011-08-19T10:59:43Z</time>
      </trkpt>
      <trkpt lat="41.758464" lon="2.084878">
        <ele>665.0</ele>
        <time>2011-08-19T10:59:43Z</time>
      </trkpt>
      <trkpt lat="41.758496" lon="2.085004">
        <ele>664.4</ele>
        <time>2011-08-19T10:59:43Z</time>
      </trkpt>
      <trkpt lat="41.758520" lon="2.085127">
        <ele>663.6</ele>
        <time>2011-08-19T10:59:43Z</time>
      </trkpt>
      <trkpt lat="41.758572" lon="2.085223">
        <ele>664.2</ele>
        <time>2011-08-19T10:59:43Z</time>
      </trkpt>
      <trkpt lat="41.758622" lon="2.085315">
        <ele>664.8</ele>
        <time>2011-08-19T10:59:43Z</time>
      </trkpt>
      <trkpt lat="41.758683" lon="2.085413">
        <ele>665.2</ele>
        <time>2011-08-19T10:59:43Z</time>
      </trkpt>
      <trkpt lat="41.758758" lon="2.085522">
        <ele>665.1</ele>
        <time>2011-08-19T10:59:43Z</time>
      </trkpt>
      <trkpt lat="41.758820" lon="2.085609">
        <ele>665.0</ele>
        <time>2011-08-19T10:59:43Z</time>
      </trkpt>
      <trkpt lat="41.758910" lon="2.085723">
        <ele>666.0</ele>
        <time>2011-08-19T10:59:43Z</time>
      </trkpt>
      <trkpt lat="41.758978" lon="2.085822">
        <ele>666.4</ele>
        <time>2011-08-19T10:59:43Z</time>
      </trkpt>
      <trkpt lat="41.759078" lon="2.085925">
        <ele>667.0</ele>
        <time>2011-08-19T10:59:43Z</time>
      </trkpt>
      <trkpt lat="41.759118" lon="2.086006">
        <ele>667.4</ele>
        <time>2011-08-19T10:59:43Z</time>
      </trkpt>
      <trkpt lat="41.759148" lon="2.086127">
        <ele>667.7</ele>
        <time>2011-08-19T10:59:43Z</time>
      </trkpt>
      <trkpt lat="41.759165" lon="2.086242">
        <ele>667.7</ele>
        <time>2011-08-19T10:59:43Z</time>
      </trkpt>
      <trkpt lat="41.759157" lon="2.086300">
        <ele>667.6</ele>
        <time>2011-08-19T10:59:43Z</time>
      </trkpt>
      <trkpt lat="41.759123" lon="2.086353">
        <ele>667.7</ele>
        <time>2011-08-19T10:59:43Z</time>
      </trkpt>
      <trkpt lat="41.759036" lon="2.086371">
        <ele>667.6</ele>
        <time>2011-08-19T10:59:43Z</time>
      </trkpt>
      <trkpt lat="41.758956" lon="2.086405">
        <ele>667.9</ele>
        <time>2011-08-19T10:59:43Z</time>
      </trkpt>
      <trkpt lat="41.758850" lon="2.086461">
        <ele>668.4</ele>
        <time>2011-08-19T10:59:43Z</time>
      </trkpt>
      <trkpt lat="41.758790" lon="2.086500">
        <ele>668.7</ele>
        <time>2011-08-19T10:59:43Z</time>
      </trkpt>
      <trkpt lat="41.758727" lon="2.086565">
        <ele>669.2</ele>
        <time>2011-08-19T10:59:43Z</time>
      </trkpt>
      <trkpt lat="41.758676" lon="2.086609">
        <ele>669.6</ele>
        <time>2011-08-19T10:59:43Z</time>
      </trkpt>
      <trkpt lat="41.758635" lon="2.086701">
        <ele>670.4</ele>
        <time>2011-08-19T10:59:43Z</time>
      </trkpt>
      <trkpt lat="41.758575" lon="2.086820">
        <ele>671.3</ele>
        <time>2011-08-19T10:59:43Z</time>
      </trkpt>
      <trkpt lat="41.758532" lon="2.086938">
        <ele>672.3</ele>
        <time>2011-08-19T10:59:43Z</time>
      </trkpt>
      <trkpt lat="41.758529" lon="2.087043">
        <ele>673.2</ele>
        <time>2011-08-19T10:59:43Z</time>
      </trkpt>
      <trkpt lat="41.758538" lon="2.087145">
        <ele>674.3</ele>
        <time>2011-08-19T10:59:43Z</time>
      </trkpt>
      <trkpt lat="41.758523" lon="2.087312">
        <ele>676.1</ele>
        <time>2011-08-19T10:59:43Z</time>
      </trkpt>
      <trkpt lat="41.758507" lon="2.087442">
        <ele>677.5</ele>
        <time>2011-08-19T10:59:43Z</time>
      </trkpt>
      <trkpt lat="41.758486" lon="2.087544">
        <ele>678.7</ele>
        <time>2011-08-19T10:59:43Z</time>
      </trkpt>
      <trkpt lat="41.758462" lon="2.087679">
        <ele>680.1</ele>
        <time>2011-08-19T10:59:43Z</time>
      </trkpt>
      <trkpt lat="41.758434" lon="2.087817">
        <ele>681.5</ele>
        <time>2011-08-19T10:59:43Z</time>
      </trkpt>
      <trkpt lat="41.758425" lon="2.087921">
        <ele>682.7</ele>
        <time>2011-08-19T10:59:43Z</time>
      </trkpt>
      <trkpt lat="41.758407" lon="2.088034">
        <ele>683.6</ele>
        <time>2011-08-19T10:59:43Z</time>
      </trkpt>
      <trkpt lat="41.758394" lon="2.088199">
        <ele>684.3</ele>
        <time>2011-08-19T10:59:43Z</time>
      </trkpt>
      <trkpt lat="41.758395" lon="2.088359">
        <ele>685.0</ele>
        <time>2011-08-19T10:59:43Z</time>
      </trkpt>
      <trkpt lat="41.758397" lon="2.088518">
        <ele>685.6</ele>
        <time>2011-08-19T10:59:43Z</time>
      </trkpt>
      <trkpt lat="41.758398" lon="2.088664">
        <ele>686.3</ele>
        <time>2011-08-19T10:59:43Z</time>
      </trkpt>
      <trkpt lat="41.758401" lon="2.088785">
        <ele>686.9</ele>
        <time>2011-08-19T10:59:43Z</time>
      </trkpt>
      <trkpt lat="41.758406" lon="2.088900">
        <ele>687.7</ele>
        <time>2011-08-19T10:59:43Z</time>
      </trkpt>
      <trkpt lat="41.758417" lon="2.089032">
        <ele>688.9</ele>
        <time>2011-08-19T10:59:43Z</time>
      </trkpt>
      <trkpt lat="41.758414" lon="2.089134">
        <ele>689.5</ele>
        <time>2011-08-19T10:59:43Z</time>
      </trkpt>
      <trkpt lat="41.758396" lon="2.089233">
        <ele>690.0</ele>
        <time>2011-08-19T10:59:43Z</time>
      </trkpt>
      <trkpt lat="41.758351" lon="2.089313">
        <ele>689.9</ele>
        <time>2011-08-19T10:59:43Z</time>
      </trkpt>
      <trkpt lat="41.758293" lon="2.089408">
        <ele>689.9</ele>
        <time>2011-08-19T10:59:43Z</time>
      </trkpt>
      <trkpt lat="41.758258" lon="2.089485">
        <ele>690.4</ele>
        <time>2011-08-19T10:59:43Z</time>
      </trkpt>
      <trkpt lat="41.758244" lon="2.089562">
        <ele>691.1</ele>
        <time>2011-08-19T10:59:43Z</time>
      </trkpt>
      <trkpt lat="41.758284" lon="2.089669">
        <ele>691.6</ele>
        <time>2011-08-19T10:59:43Z</time>
      </trkpt>
      <trkpt lat="41.758332" lon="2.089765">
        <ele>692.6</ele>
        <time>2011-08-19T10:59:43Z</time>
      </trkpt>
      <trkpt lat="41.758374" lon="2.089868">
        <ele>693.5</ele>
        <time>2011-08-19T10:59:43Z</time>
      </trkpt>
      <trkpt lat="41.758402" lon="2.090000">
        <ele>694.3</ele>
        <time>2011-08-19T10:59:43Z</time>
      </trkpt>
      <trkpt lat="41.758401" lon="2.090085">
        <ele>694.4</ele>
        <time>2011-08-19T10:59:43Z</time>
      </trkpt>
      <trkpt lat="41.758399" lon="2.090168">
        <ele>694.5</ele>
        <time>2011-08-19T10:59:43Z</time>
      </trkpt>
      <trkpt lat="41.758386" lon="2.090297">
        <ele>694.6</ele>
        <time>2011-08-19T10:59:43Z</time>
      </trkpt>
      <trkpt lat="41.758356" lon="2.090408">
        <ele>694.8</ele>
        <time>2011-08-19T10:59:43Z</time>
      </trkpt>
      <trkpt lat="41.758318" lon="2.090518">
        <ele>695.1</ele>
        <time>2011-08-19T10:59:43Z</time>
      </trkpt>
      <trkpt lat="41.758271" lon="2.090607">
        <ele>695.6</ele>
        <time>2011-08-19T10:59:43Z</time>
      </trkpt>
      <trkpt lat="41.758214" lon="2.090685">
        <ele>696.0</ele>
        <time>2011-08-19T10:59:43Z</time>
      </trkpt>
      <trkpt lat="41.758159" lon="2.090773">
        <ele>696.3</ele>
        <time>2011-08-19T10:59:43Z</time>
      </trkpt>
      <trkpt lat="41.758098" lon="2.090868">
        <ele>696.6</ele>
        <time>2011-08-19T10:59:43Z</time>
      </trkpt>
      <trkpt lat="41.758058" lon="2.090967">
        <ele>696.9</ele>
        <time>2011-08-19T10:59:43Z</time>
      </trkpt>
      <trkpt lat="41.758016" lon="2.091086">
        <ele>696.8</ele>
        <time>2011-08-19T10:59:43Z</time>
      </trkpt>
      <trkpt lat="41.757978" lon="2.091232">
        <ele>696.3</ele>
        <time>2011-08-19T10:59:43Z</time>
      </trkpt>
      <trkpt lat="41.757960" lon="2.091351">
        <ele>696.0</ele>
        <time>2011-08-19T10:59:43Z</time>
      </trkpt>
      <trkpt lat="41.757951" lon="2.091513">
        <ele>695.1</ele>
        <time>2011-08-19T10:59:43Z</time>
      </trkpt>
      <trkpt lat="41.757973" lon="2.091639">
        <ele>694.6</ele>
        <time>2011-08-19T10:59:43Z</time>
      </trkpt>
      <trkpt lat="41.758012" lon="2.091737">
        <ele>694.5</ele>
        <time>2011-08-19T10:59:43Z</time>
      </trkpt>
      <trkpt lat="41.758055" lon="2.091839">
        <ele>694.4</ele>
        <time>2011-08-19T10:59:43Z</time>
      </trkpt>
      <trkpt lat="41.758058" lon="2.091965">
        <ele>693.7</ele>
        <time>2011-08-19T10:59:43Z</time>
      </trkpt>
      <trkpt lat="41.758044" lon="2.092119">
        <ele>692.9</ele>
        <time>2011-08-19T10:59:43Z</time>
      </trkpt>
      <trkpt lat="41.758017" lon="2.092268">
        <ele>692.4</ele>
        <time>2011-08-19T10:59:43Z</time>
      </trkpt>
      <trkpt lat="41.758034" lon="2.092394">
        <ele>692.6</ele>
        <time>2011-08-19T10:59:43Z</time>
      </trkpt>
      <trkpt lat="41.758051" lon="2.092482">
        <ele>692.9</ele>
        <time>2011-08-19T10:59:43Z</time>
      </trkpt>
      <trkpt lat="41.758071" lon="2.092597">
        <ele>693.2</ele>
        <time>2011-08-19T10:59:43Z</time>
      </trkpt>
      <trkpt lat="41.758068" lon="2.092724">
        <ele>693.1</ele>
        <time>2011-08-19T10:59:43Z</time>
      </trkpt>
      <trkpt lat="41.758030" lon="2.092859">
        <ele>692.9</ele>
        <time>2011-08-19T10:59:43Z</time>
      </trkpt>
      <trkpt lat="41.757967" lon="2.093033">
        <ele>693.3</ele>
        <time>2011-08-19T10:59:43Z</time>
      </trkpt>
      <trkpt lat="41.757925" lon="2.093176">
        <ele>694.0</ele>
        <time>2011-08-19T10:59:43Z</time>
      </trkpt>
      <trkpt lat="41.757877" lon="2.093326">
        <ele>694.5</ele>
        <time>2011-08-19T10:59:43Z</time>
      </trkpt>
      <trkpt lat="41.757845" lon="2.093442">
        <ele>694.9</ele>
        <time>2011-08-19T10:59:43Z</time>
      </trkpt>
      <trkpt lat="41.757819" lon="2.093568">
        <ele>695.2</ele>
        <time>2011-08-19T10:59:43Z</time>
      </trkpt>
      <trkpt lat="41.757796" lon="2.093714">
        <ele>695.0</ele>
        <time>2011-08-19T10:59:43Z</time>
      </trkpt>
      <trkpt lat="41.757795" lon="2.093868">
        <ele>695.0</ele>
        <time>2011-08-19T10:59:43Z</time>
      </trkpt>
      <trkpt lat="41.757806" lon="2.093970">
        <ele>694.8</ele>
        <time>2011-08-19T10:59:43Z</time>
      </trkpt>
      <trkpt lat="41.757825" lon="2.094069">
        <ele>694.7</ele>
        <time>2011-08-19T10:59:43Z</time>
      </trkpt>
      <trkpt lat="41.757861" lon="2.094173">
        <ele>694.7</ele>
        <time>2011-08-19T10:59:43Z</time>
      </trkpt>
      <trkpt lat="41.757909" lon="2.094263">
        <ele>694.6</ele>
        <time>2011-08-19T10:59:43Z</time>
      </trkpt>
      <trkpt lat="41.757955" lon="2.094339">
        <ele>694.1</ele>
        <time>2011-08-19T10:59:43Z</time>
      </trkpt>
      <trkpt lat="41.758028" lon="2.094442">
        <ele>693.8</ele>
        <time>2011-08-19T10:59:43Z</time>
      </trkpt>
      <trkpt lat="41.758049" lon="2.094560">
        <ele>693.0</ele>
        <time>2011-08-19T10:59:43Z</time>
      </trkpt>
      <trkpt lat="41.758097" lon="2.094634">
        <ele>693.2</ele>
        <time>2011-08-19T10:59:43Z</time>
      </trkpt>
      <trkpt lat="41.758163" lon="2.094658">
        <ele>694.1</ele>
        <time>2011-08-19T10:59:43Z</time>
      </trkpt>
      <trkpt lat="41.758221" lon="2.094701">
        <ele>694.8</ele>
        <time>2011-08-19T10:59:43Z</time>
      </trkpt>
      <trkpt lat="41.758242" lon="2.094791">
        <ele>694.8</ele>
        <time>2011-08-19T10:59:43Z</time>
      </trkpt>
      <trkpt lat="41.758208" lon="2.094893">
        <ele>693.8</ele>
        <time>2011-08-19T10:59:43Z</time>
      </trkpt>
      <trkpt lat="41.758158" lon="2.095018">
        <ele>692.4</ele>
        <time>2011-08-19T10:59:43Z</time>
      </trkpt>
      <trkpt lat="41.758101" lon="2.095140">
        <ele>691.0</ele>
        <time>2011-08-19T10:59:43Z</time>
      </trkpt>
      <trkpt lat="41.758075" lon="2.095239">
        <ele>690.2</ele>
        <time>2011-08-19T10:59:43Z</time>
      </trkpt>
      <trkpt lat="41.758062" lon="2.095357">
        <ele>689.4</ele>
        <time>2011-08-19T10:59:43Z</time>
      </trkpt>
      <trkpt lat="41.758110" lon="2.095456">
        <ele>689.4</ele>
        <time>2011-08-19T10:59:43Z</time>
      </trkpt>
      <trkpt lat="41.758180" lon="2.095532">
        <ele>689.8</ele>
        <time>2011-08-19T10:59:43Z</time>
      </trkpt>
      <trkpt lat="41.758208" lon="2.095641">
        <ele>688.9</ele>
        <time>2011-08-19T10:59:43Z</time>
      </trkpt>
      <trkpt lat="41.758242" lon="2.095784">
        <ele>688.7</ele>
        <time>2011-08-19T10:59:43Z</time>
      </trkpt>
      <trkpt lat="41.758294" lon="2.095882">
        <ele>689.0</ele>
        <time>2011-08-19T10:59:43Z</time>
      </trkpt>
      <trkpt lat="41.758361" lon="2.095966">
        <ele>689.3</ele>
        <time>2011-08-19T10:59:43Z</time>
      </trkpt>
      <trkpt lat="41.758423" lon="2.096023">
        <ele>689.6</ele>
        <time>2011-08-19T10:59:43Z</time>
      </trkpt>
      <trkpt lat="41.758516" lon="2.096093">
        <ele>690.2</ele>
        <time>2011-08-19T10:59:43Z</time>
      </trkpt>
      <trkpt lat="41.758541" lon="2.096162">
        <ele>690.4</ele>
        <time>2011-08-19T10:59:43Z</time>
      </trkpt>
      <trkpt lat="41.758536" lon="2.096280">
        <ele>690.3</ele>
        <time>2011-08-19T10:59:43Z</time>
      </trkpt>
      <trkpt lat="41.758492" lon="2.096363">
        <ele>690.0</ele>
        <time>2011-08-19T10:59:43Z</time>
      </trkpt>
      <trkpt lat="41.758403" lon="2.096411">
        <ele>689.4</ele>
        <time>2011-08-19T10:59:43Z</time>
      </trkpt>
      <trkpt lat="41.758294" lon="2.096382">
        <ele>689.6</ele>
        <time>2011-08-19T10:59:43Z</time>
      </trkpt>
      <trkpt lat="41.758187" lon="2.096342">
        <ele>690.4</ele>
        <time>2011-08-19T10:59:43Z</time>
      </trkpt>
      <trkpt lat="41.758086" lon="2.096344">
        <ele>691.2</ele>
        <time>2011-08-19T10:59:43Z</time>
      </trkpt>
      <trkpt lat="41.757966" lon="2.096329">
        <ele>692.8</ele>
        <time>2011-08-19T10:59:43Z</time>
      </trkpt>
      <trkpt lat="41.757841" lon="2.096328">
        <ele>694.7</ele>
        <time>2011-08-19T10:59:43Z</time>
      </trkpt>
      <trkpt lat="41.757767" lon="2.096343">
        <ele>695.5</ele>
        <time>2011-08-19T10:59:43Z</time>
      </trkpt>
      <trkpt lat="41.757699" lon="2.096344">
        <ele>696.0</ele>
        <time>2011-08-19T10:59:43Z</time>
      </trkpt>
      <trkpt lat="41.757627" lon="2.096336">
        <ele>696.5</ele>
        <time>2011-08-19T10:59:43Z</time>
      </trkpt>
      <trkpt lat="41.757544" lon="2.096362">
        <ele>697.4</ele>
        <time>2011-08-19T10:59:43Z</time>
      </trkpt>
      <trkpt lat="41.757450" lon="2.096388">
        <ele>698.1</ele>
        <time>2011-08-19T10:59:43Z</time>
      </trkpt>
      <trkpt lat="41.757358" lon="2.096411">
        <ele>698.6</ele>
        <time>2011-08-19T10:59:43Z</time>
      </trkpt>
      <trkpt lat="41.757272" lon="2.096442">
        <ele>699.2</ele>
        <time>2011-08-19T10:59:43Z</time>
      </trkpt>
      <trkpt lat="41.757232" lon="2.096505">
        <ele>699.7</ele>
        <time>2011-08-19T10:59:43Z</time>
      </trkpt>
      <trkpt lat="41.757217" lon="2.096642">
        <ele>701.1</ele>
        <time>2011-08-19T10:59:43Z</time>
      </trkpt>
      <trkpt lat="41.757208" lon="2.096795">
        <ele>702.4</ele>
        <time>2011-08-19T10:59:43Z</time>
      </trkpt>
      <trkpt lat="41.757209" lon="2.096932">
        <ele>702.5</ele>
        <time>2011-08-19T10:59:43Z</time>
      </trkpt>
      <trkpt lat="41.757202" lon="2.097063">
        <ele>702.4</ele>
        <time>2011-08-19T10:59:43Z</time>
      </trkpt>
      <trkpt lat="41.757215" lon="2.097202">
        <ele>702.8</ele>
        <time>2011-08-19T10:59:43Z</time>
      </trkpt>
      <trkpt lat="41.757224" lon="2.097322">
        <ele>703.0</ele>
        <time>2011-08-19T10:59:43Z</time>
      </trkpt>
      <trkpt lat="41.757233" lon="2.097447">
        <ele>703.2</ele>
        <time>2011-08-19T10:59:43Z</time>
      </trkpt>
      <trkpt lat="41.757232" lon="2.097548">
        <ele>703.2</ele>
        <time>2011-08-19T10:59:43Z</time>
      </trkpt>
      <trkpt lat="41.757235" lon="2.097652">
        <ele>703.2</ele>
        <time>2011-08-19T10:59:43Z</time>
      </trkpt>
      <trkpt lat="41.757234" lon="2.097753">
        <ele>703.2</ele>
        <time>2011-08-19T10:59:43Z</time>
      </trkpt>
      <trkpt lat="41.757257" lon="2.097843">
        <ele>703.5</ele>
        <time>2011-08-19T10:59:43Z</time>
      </trkpt>
      <trkpt lat="41.757280" lon="2.097935">
        <ele>703.9</ele>
        <time>2011-08-19T10:59:43Z</time>
      </trkpt>
      <trkpt lat="41.757302" lon="2.098085">
        <ele>704.4</ele>
        <time>2011-08-19T10:59:43Z</time>
      </trkpt>
      <trkpt lat="41.757307" lon="2.098230">
        <ele>704.6</ele>
        <time>2011-08-19T10:59:43Z</time>
      </trkpt>
      <trkpt lat="41.757296" lon="2.098369">
        <ele>704.5</ele>
        <time>2011-08-19T10:59:43Z</time>
      </trkpt>
      <trkpt lat="41.757288" lon="2.098503">
        <ele>704.7</ele>
        <time>2011-08-19T10:59:43Z</time>
      </trkpt>
      <trkpt lat="41.757291" lon="2.098601">
        <ele>705.0</ele>
        <time>2011-08-19T10:59:43Z</time>
      </trkpt>
      <trkpt lat="41.757300" lon="2.098697">
        <ele>705.5</ele>
        <time>2011-08-19T10:59:43Z</time>
      </trkpt>
      <trkpt lat="41.757308" lon="2.098863">
        <ele>706.1</ele>
        <time>2011-08-19T10:59:43Z</time>
      </trkpt>
      <trkpt lat="41.757335" lon="2.099002">
        <ele>707.1</ele>
        <time>2011-08-19T10:59:43Z</time>
      </trkpt>
      <trkpt lat="41.757361" lon="2.099163">
        <ele>708.1</ele>
        <time>2011-08-19T10:59:43Z</time>
      </trkpt>
      <trkpt lat="41.757366" lon="2.099305">
        <ele>708.5</ele>
        <time>2011-08-19T10:59:43Z</time>
      </trkpt>
      <trkpt lat="41.757363" lon="2.099430">
        <ele>709.3</ele>
        <time>2011-08-19T10:59:43Z</time>
      </trkpt>
      <trkpt lat="41.757368" lon="2.099542">
        <ele>710.3</ele>
        <time>2011-08-19T10:59:43Z</time>
      </trkpt>
      <trkpt lat="41.757359" lon="2.099695">
        <ele>711.2</ele>
        <time>2011-08-19T10:59:43Z</time>
      </trkpt>
      <trkpt lat="41.757344" lon="2.099824">
        <ele>712.0</ele>
        <time>2011-08-19T10:59:43Z</time>
      </trkpt>
      <trkpt lat="41.757324" lon="2.099928">
        <ele>712.5</ele>
        <time>2011-08-19T10:59:43Z</time>
      </trkpt>
      <trkpt lat="41.757292" lon="2.100024">
        <ele>712.8</ele>
        <time>2011-08-19T10:59:43Z</time>
      </trkpt>
      <trkpt lat="41.757238" lon="2.100128">
        <ele>713.5</ele>
        <time>2011-08-19T10:59:43Z</time>
      </trkpt>
      <trkpt lat="41.757194" lon="2.100257">
        <ele>714.4</ele>
        <time>2011-08-19T10:59:43Z</time>
      </trkpt>
      <trkpt lat="41.757155" lon="2.100321">
        <ele>714.6</ele>
        <time>2011-08-19T10:59:43Z</time>
      </trkpt>
      <trkpt lat="41.757111" lon="2.100389">
        <ele>714.7</ele>
        <time>2011-08-19T10:59:43Z</time>
      </trkpt>
      <trkpt lat="41.757079" lon="2.100521">
        <ele>715.2</ele>
        <time>2011-08-19T10:59:43Z</time>
      </trkpt>
      <trkpt lat="41.757060" lon="2.100674">
        <ele>715.8</ele>
        <time>2011-08-19T10:59:43Z</time>
      </trkpt>
      <trkpt lat="41.757037" lon="2.100811">
        <ele>716.5</ele>
        <time>2011-08-19T10:59:43Z</time>
      </trkpt>
      <trkpt lat="41.757003" lon="2.100943">
        <ele>717.5</ele>
        <time>2011-08-19T10:59:43Z</time>
      </trkpt>
      <trkpt lat="41.756965" lon="2.101060">
        <ele>718.2</ele>
        <time>2011-08-19T10:59:43Z</time>
      </trkpt>
      <trkpt lat="41.756929" lon="2.101170">
        <ele>718.8</ele>
        <time>2011-08-19T10:59:43Z</time>
      </trkpt>
      <trkpt lat="41.756902" lon="2.101307">
        <ele>719.7</ele>
        <time>2011-08-19T10:59:43Z</time>
      </trkpt>
      <trkpt lat="41.756872" lon="2.101414">
        <ele>720.1</ele>
        <time>2011-08-19T10:59:43Z</time>
      </trkpt>
      <trkpt lat="41.756856" lon="2.101545">
        <ele>721.2</ele>
        <time>2011-08-19T10:59:43Z</time>
      </trkpt>
      <trkpt lat="41.756843" lon="2.101635">
        <ele>721.9</ele>
        <time>2011-08-19T10:59:43Z</time>
      </trkpt>
      <trkpt lat="41.756844" lon="2.101797">
        <ele>723.7</ele>
        <time>2011-08-19T10:59:43Z</time>
      </trkpt>
      <trkpt lat="41.756838" lon="2.101871">
        <ele>724.5</ele>
        <time>2011-08-19T10:59:43Z</time>
      </trkpt>
      <trkpt lat="41.756803" lon="2.102048">
        <ele>726.0</ele>
        <time>2011-08-19T10:59:43Z</time>
      </trkpt>
      <trkpt lat="41.756788" lon="2.102188">
        <ele>727.0</ele>
        <time>2011-08-19T10:59:43Z</time>
      </trkpt>
      <trkpt lat="41.756760" lon="2.102311">
        <ele>727.3</ele>
        <time>2011-08-19T10:59:43Z</time>
      </trkpt>
      <trkpt lat="41.756735" lon="2.102453">
        <ele>727.8</ele>
        <time>2011-08-19T10:59:43Z</time>
      </trkpt>
      <trkpt lat="41.756734" lon="2.102601">
        <ele>728.7</ele>
        <time>2011-08-19T10:59:43Z</time>
      </trkpt>
      <trkpt lat="41.756743" lon="2.102740">
        <ele>729.9</ele>
        <time>2011-08-19T10:59:43Z</time>
      </trkpt>
      <trkpt lat="41.756762" lon="2.102863">
        <ele>731.1</ele>
        <time>2011-08-19T10:59:43Z</time>
      </trkpt>
      <trkpt lat="41.756780" lon="2.103002">
        <ele>732.1</ele>
        <time>2011-08-19T10:59:43Z</time>
      </trkpt>
      <trkpt lat="41.756822" lon="2.103110">
        <ele>733.2</ele>
        <time>2011-08-19T10:59:43Z</time>
      </trkpt>
      <trkpt lat="41.756863" lon="2.103205">
        <ele>734.2</ele>
        <time>2011-08-19T10:59:43Z</time>
      </trkpt>
      <trkpt lat="41.756901" lon="2.103267">
        <ele>735.0</ele>
        <time>2011-08-19T10:59:43Z</time>
      </trkpt>
      <trkpt lat="41.756949" lon="2.103401">
        <ele>736.1</ele>
        <time>2011-08-19T10:59:43Z</time>
      </trkpt>
      <trkpt lat="41.756956" lon="2.103556">
        <ele>736.5</ele>
        <time>2011-08-19T10:59:43Z</time>
      </trkpt>
      <trkpt lat="41.756955" lon="2.103685">
        <ele>736.7</ele>
        <time>2011-08-19T10:59:43Z</time>
      </trkpt>
      <trkpt lat="41.756956" lon="2.103840">
        <ele>737.1</ele>
        <time>2011-08-19T10:59:43Z</time>
      </trkpt>
      <trkpt lat="41.756949" lon="2.103974">
        <ele>737.3</ele>
        <time>2011-08-19T10:59:43Z</time>
      </trkpt>
      <trkpt lat="41.756954" lon="2.104089">
        <ele>738.3</ele>
        <time>2011-08-19T10:59:43Z</time>
      </trkpt>
      <trkpt lat="41.756931" lon="2.104272">
        <ele>739.5</ele>
        <time>2011-08-19T10:59:43Z</time>
      </trkpt>
      <trkpt lat="41.756911" lon="2.104406">
        <ele>740.3</ele>
        <time>2011-08-19T10:59:43Z</time>
      </trkpt>
      <trkpt lat="41.756889" lon="2.104513">
        <ele>740.7</ele>
        <time>2011-08-19T10:59:43Z</time>
      </trkpt>
      <trkpt lat="41.756853" lon="2.104618">
        <ele>740.6</ele>
        <time>2011-08-19T10:59:43Z</time>
      </trkpt>
      <trkpt lat="41.756821" lon="2.104757">
        <ele>740.8</ele>
        <time>2011-08-19T10:59:43Z</time>
      </trkpt>
      <trkpt lat="41.756785" lon="2.104895">
        <ele>741.0</ele>
        <time>2011-08-19T10:59:43Z</time>
      </trkpt>
      <trkpt lat="41.756734" lon="2.105058">
        <ele>741.6</ele>
        <time>2011-08-19T10:59:43Z</time>
      </trkpt>
      <trkpt lat="41.756695" lon="2.105219">
        <ele>742.8</ele>
        <time>2011-08-19T10:59:43Z</time>
      </trkpt>
      <trkpt lat="41.756649" lon="2.105329">
        <ele>743.2</ele>
        <time>2011-08-19T10:59:43Z</time>
      </trkpt>
      <trkpt lat="41.756601" lon="2.105455">
        <ele>743.4</ele>
        <time>2011-08-19T10:59:43Z</time>
      </trkpt>
      <trkpt lat="41.756532" lon="2.105608">
        <ele>743.2</ele>
        <time>2011-08-19T10:59:43Z</time>
      </trkpt>
      <trkpt lat="41.756491" lon="2.105804">
        <ele>744.3</ele>
        <time>2011-08-19T10:59:43Z</time>
      </trkpt>
      <trkpt lat="41.756463" lon="2.105915">
        <ele>745.3</ele>
        <time>2011-08-19T10:59:43Z</time>
      </trkpt>
      <trkpt lat="41.756462" lon="2.106013">
        <ele>746.4</ele>
        <time>2011-08-19T10:59:43Z</time>
      </trkpt>
      <trkpt lat="41.756463" lon="2.106189">
        <ele>748.5</ele>
        <time>2011-08-19T10:59:43Z</time>
      </trkpt>
      <trkpt lat="41.756456" lon="2.106333">
        <ele>749.8</ele>
        <time>2011-08-19T10:59:43Z</time>
      </trkpt>
      <trkpt lat="41.756402" lon="2.106418">
        <ele>750.3</ele>
        <time>2011-08-19T10:59:43Z</time>
      </trkpt>
      <trkpt lat="41.756337" lon="2.106475">
        <ele>750.5</ele>
        <time>2011-08-19T10:59:43Z</time>
      </trkpt>
      <trkpt lat="41.756276" lon="2.106511">
        <ele>750.6</ele>
        <time>2011-08-19T10:59:43Z</time>
      </trkpt>
      <trkpt lat="41.756220" lon="2.106510">
        <ele>751.0</ele>
        <time>2011-08-19T10:59:43Z</time>
      </trkpt>
      <trkpt lat="41.756147" lon="2.106502">
        <ele>751.4</ele>
        <time>2011-08-19T10:59:43Z</time>
      </trkpt>
      <trkpt lat="41.756072" lon="2.106486">
        <ele>751.7</ele>
        <time>2011-08-19T10:59:43Z</time>
      </trkpt>
      <trkpt lat="41.755963" lon="2.106457">
        <ele>752.6</ele>
        <time>2011-08-19T10:59:43Z</time>
      </trkpt>
      <trkpt lat="41.755911" lon="2.106416">
        <ele>753.1</ele>
        <time>2011-08-19T10:59:43Z</time>
      </trkpt>
      <trkpt lat="41.755843" lon="2.106313">
        <ele>752.9</ele>
        <time>2011-08-19T10:59:43Z</time>
      </trkpt>
      <trkpt lat="41.755797" lon="2.106259">
        <ele>752.9</ele>
        <time>2011-08-19T10:59:43Z</time>
      </trkpt>
      <trkpt lat="41.755751" lon="2.106214">
        <ele>753.0</ele>
        <time>2011-08-19T10:59:43Z</time>
      </trkpt>
      <trkpt lat="41.755702" lon="2.106148">
        <ele>753.3</ele>
        <time>2011-08-19T10:59:43Z</time>
      </trkpt>
      <trkpt lat="41.755636" lon="2.106064">
        <ele>753.8</ele>
        <time>2011-08-19T10:59:43Z</time>
      </trkpt>
      <trkpt lat="41.755572" lon="2.105980">
        <ele>754.1</ele>
        <time>2011-08-19T10:59:43Z</time>
      </trkpt>
      <trkpt lat="41.755463" lon="2.105866">
        <ele>754.6</ele>
        <time>2011-08-19T10:59:43Z</time>
      </trkpt>
      <trkpt lat="41.755389" lon="2.105811">
        <ele>754.4</ele>
        <time>2011-08-19T10:59:43Z</time>
      </trkpt>
      <trkpt lat="41.755283" lon="2.105775">
        <ele>755.1</ele>
        <time>2011-08-19T10:59:43Z</time>
      </trkpt>
      <trkpt lat="41.755200" lon="2.105777">
        <ele>756.0</ele>
        <time>2011-08-19T10:59:43Z</time>
      </trkpt>
      <trkpt lat="41.755106" lon="2.105774">
        <ele>756.5</ele>
        <time>2011-08-19T10:59:43Z</time>
      </trkpt>
      <trkpt lat="41.754998" lon="2.105801">
        <ele>757.2</ele>
        <time>2011-08-19T10:59:43Z</time>
      </trkpt>
      <trkpt lat="41.754913" lon="2.105885">
        <ele>759.2</ele>
        <time>2011-08-19T10:59:43Z</time>
      </trkpt>
      <trkpt lat="41.754834" lon="2.105958">
        <ele>760.3</ele>
        <time>2011-08-19T10:59:43Z</time>
      </trkpt>
      <trkpt lat="41.754770" lon="2.106065">
        <ele>761.5</ele>
        <time>2011-08-19T10:59:43Z</time>
      </trkpt>
      <trkpt lat="41.754714" lon="2.106190">
        <ele>762.4</ele>
        <time>2011-08-19T10:59:43Z</time>
      </trkpt>
      <trkpt lat="41.754669" lon="2.106281">
        <ele>763.0</ele>
        <time>2011-08-19T10:59:43Z</time>
      </trkpt>
      <trkpt lat="41.754626" lon="2.106399">
        <ele>764.3</ele>
        <time>2011-08-19T10:59:43Z</time>
      </trkpt>
      <trkpt lat="41.754583" lon="2.106506">
        <ele>765.4</ele>
        <time>2011-08-19T10:59:43Z</time>
      </trkpt>
      <trkpt lat="41.754527" lon="2.106613">
        <ele>766.1</ele>
        <time>2011-08-19T10:59:43Z</time>
      </trkpt>
      <trkpt lat="41.754469" lon="2.106703">
        <ele>766.3</ele>
        <time>2011-08-19T10:59:43Z</time>
      </trkpt>
      <trkpt lat="41.754393" lon="2.106800">
        <ele>765.5</ele>
        <time>2011-08-19T10:59:43Z</time>
      </trkpt>
      <trkpt lat="41.754343" lon="2.106863">
        <ele>765.4</ele>
        <time>2011-08-19T10:59:43Z</time>
      </trkpt>
      <trkpt lat="41.754302" lon="2.106947">
        <ele>766.1</ele>
        <time>2011-08-19T10:59:43Z</time>
      </trkpt>
      <trkpt lat="41.754271" lon="2.107014">
        <ele>766.9</ele>
        <time>2011-08-19T10:59:43Z</time>
      </trkpt>
      <trkpt lat="41.754228" lon="2.107106">
        <ele>767.8</ele>
        <time>2011-08-19T10:59:43Z</time>
      </trkpt>
      <trkpt lat="41.754181" lon="2.107176">
        <ele>767.9</ele>
        <time>2011-08-19T10:59:43Z</time>
      </trkpt>
      <trkpt lat="41.754114" lon="2.107273">
        <ele>767.7</ele>
        <time>2011-08-19T10:59:43Z</time>
      </trkpt>
      <trkpt lat="41.754022" lon="2.107363">
        <ele>768.7</ele>
        <time>2011-08-19T10:59:43Z</time>
      </trkpt>
      <trkpt lat="41.753927" lon="2.107449">
        <ele>769.6</ele>
        <time>2011-08-19T10:59:43Z</time>
      </trkpt>
      <trkpt lat="41.753838" lon="2.107505">
        <ele>770.0</ele>
        <time>2011-08-19T10:59:43Z</time>
      </trkpt>
      <trkpt lat="41.753740" lon="2.107543">
        <ele>770.4</ele>
        <time>2011-08-19T10:59:43Z</time>
      </trkpt>
      <trkpt lat="41.753661" lon="2.107579">
        <ele>770.8</ele>
        <time>2011-08-19T10:59:43Z</time>
      </trkpt>
      <trkpt lat="41.753564" lon="2.107589">
        <ele>770.9</ele>
        <time>2011-08-19T10:59:43Z</time>
      </trkpt>
      <trkpt lat="41.753467" lon="2.107584">
        <ele>771.5</ele>
        <time>2011-08-19T10:59:43Z</time>
      </trkpt>
      <trkpt lat="41.753358" lon="2.107568">
        <ele>772.0</ele>
        <time>2011-08-19T10:59:43Z</time>
      </trkpt>
      <trkpt lat="41.753256" lon="2.107545">
        <ele>772.2</ele>
        <time>2011-08-19T10:59:43Z</time>
      </trkpt>
      <trkpt lat="41.753179" lon="2.107559">
        <ele>772.8</ele>
        <time>2011-08-19T10:59:43Z</time>
      </trkpt>
      <trkpt lat="41.753120" lon="2.107593">
        <ele>773.6</ele>
        <time>2011-08-19T10:59:43Z</time>
      </trkpt>
      <trkpt lat="41.753039" lon="2.107633">
        <ele>774.5</ele>
        <time>2011-08-19T10:59:43Z</time>
      </trkpt>
      <trkpt lat="41.752980" lon="2.107679">
        <ele>775.0</ele>
        <time>2011-08-19T10:59:43Z</time>
      </trkpt>
      <trkpt lat="41.752903" lon="2.107728">
        <ele>775.7</ele>
        <time>2011-08-19T10:59:43Z</time>
      </trkpt>
      <trkpt lat="41.752827" lon="2.107788">
        <ele>776.2</ele>
        <time>2011-08-19T10:59:43Z</time>
      </trkpt>
      <trkpt lat="41.752762" lon="2.107873">
        <ele>776.7</ele>
        <time>2011-08-19T10:59:43Z</time>
      </trkpt>
      <trkpt lat="41.752726" lon="2.107959">
        <ele>777.5</ele>
        <time>2011-08-19T10:59:43Z</time>
      </trkpt>
      <trkpt lat="41.752671" lon="2.108066">
        <ele>778.4</ele>
        <time>2011-08-19T10:59:43Z</time>
      </trkpt>
      <trkpt lat="41.752613" lon="2.108154">
        <ele>778.8</ele>
        <time>2011-08-19T10:59:43Z</time>
      </trkpt>
      <trkpt lat="41.752602" lon="2.108221">
        <ele>779.5</ele>
        <time>2011-08-19T10:59:43Z</time>
      </trkpt>
      <trkpt lat="41.752545" lon="2.108363">
        <ele>779.8</ele>
        <time>2011-08-19T10:59:43Z</time>
      </trkpt>
      <trkpt lat="41.752512" lon="2.108455">
        <ele>779.4</ele>
        <time>2011-08-19T10:59:43Z</time>
      </trkpt>
      <trkpt lat="41.752507" lon="2.108542">
        <ele>779.8</ele>
        <time>2011-08-19T10:59:43Z</time>
      </trkpt>
      <trkpt lat="41.752513" lon="2.108639">
        <ele>780.4</ele>
        <time>2011-08-19T10:59:43Z</time>
      </trkpt>
      <trkpt lat="41.752556" lon="2.108767">
        <ele>782.0</ele>
        <time>2011-08-19T10:59:43Z</time>
      </trkpt>
      <trkpt lat="41.752583" lon="2.108849">
        <ele>782.1</ele>
        <time>2011-08-19T10:59:43Z</time>
      </trkpt>
      <trkpt lat="41.752622" lon="2.108905">
        <ele>782.1</ele>
        <time>2011-08-19T10:59:43Z</time>
      </trkpt>
      <trkpt lat="41.752667" lon="2.108995">
        <ele>781.4</ele>
        <time>2011-08-19T10:59:43Z</time>
      </trkpt>
      <trkpt lat="41.752697" lon="2.109071">
        <ele>780.4</ele>
        <time>2011-08-19T10:59:43Z</time>
      </trkpt>
      <trkpt lat="41.752688" lon="2.109188">
        <ele>778.9</ele>
        <time>2011-08-19T10:59:43Z</time>
      </trkpt>
      <trkpt lat="41.752652" lon="2.109300">
        <ele>777.7</ele>
        <time>2011-08-19T10:59:43Z</time>
      </trkpt>
      <trkpt lat="41.752600" lon="2.109398">
        <ele>776.8</ele>
        <time>2011-08-19T10:59:43Z</time>
      </trkpt>
      <trkpt lat="41.752549" lon="2.109457">
        <ele>776.2</ele>
        <time>2011-08-19T10:59:43Z</time>
      </trkpt>
      <trkpt lat="41.752505" lon="2.109525">
        <ele>775.7</ele>
        <time>2011-08-19T10:59:43Z</time>
      </trkpt>
      <trkpt lat="41.752449" lon="2.109574">
        <ele>776.2</ele>
        <time>2011-08-19T10:59:43Z</time>
      </trkpt>
      <trkpt lat="41.752422" lon="2.109631">
        <ele>775.9</ele>
        <time>2011-08-19T10:59:43Z</time>
      </trkpt>
      <trkpt lat="41.752394" lon="2.109694">
        <ele>775.3</ele>
        <time>2011-08-19T10:59:43Z</time>
      </trkpt>
      <trkpt lat="41.752354" lon="2.109762">
        <ele>774.7</ele>
        <time>2011-08-19T10:59:43Z</time>
      </trkpt>
      <trkpt lat="41.752290" lon="2.109813">
        <ele>774.4</ele>
        <time>2011-08-19T10:59:43Z</time>
      </trkpt>
      <trkpt lat="41.752220" lon="2.109864">
        <ele>773.8</ele>
        <time>2011-08-19T10:59:43Z</time>
      </trkpt>
      <trkpt lat="41.752152" lon="2.109906">
        <ele>773.2</ele>
        <time>2011-08-19T10:59:43Z</time>
      </trkpt>
      <trkpt lat="41.752060" lon="2.109957">
        <ele>772.4</ele>
        <time>2011-08-19T10:59:43Z</time>
      </trkpt>
      <trkpt lat="41.752005" lon="2.109986">
        <ele>771.9</ele>
        <time>2011-08-19T10:59:43Z</time>
      </trkpt>
      <trkpt lat="41.751946" lon="2.110000">
        <ele>772.1</ele>
        <time>2011-08-19T10:59:43Z</time>
      </trkpt>
      <trkpt lat="41.751870" lon="2.110049">
        <ele>771.6</ele>
        <time>2011-08-19T10:59:43Z</time>
      </trkpt>
      <trkpt lat="41.751823" lon="2.110071">
        <ele>771.5</ele>
        <time>2011-08-19T10:59:43Z</time>
      </trkpt>
      <trkpt lat="41.751767" lon="2.110124">
        <ele>770.8</ele>
        <time>2011-08-19T10:59:43Z</time>
      </trkpt>
      <trkpt lat="41.751731" lon="2.110164">
        <ele>770.2</ele>
        <time>2011-08-19T10:59:43Z</time>
      </trkpt>
      <trkpt lat="41.751689" lon="2.110236">
        <ele>769.5</ele>
        <time>2011-08-19T10:59:43Z</time>
      </trkpt>
      <trkpt lat="41.751672" lon="2.110310">
        <ele>769.3</ele>
        <time>2011-08-19T10:59:43Z</time>
      </trkpt>
      <trkpt lat="41.751667" lon="2.110419">
        <ele>768.1</ele>
        <time>2011-08-19T10:59:43Z</time>
      </trkpt>
      <trkpt lat="41.751661" lon="2.110510">
        <ele>767.2</ele>
        <time>2011-08-19T10:59:43Z</time>
      </trkpt>
      <trkpt lat="41.751640" lon="2.110614">
        <ele>766.4</ele>
        <time>2011-08-19T10:59:43Z</time>
      </trkpt>
      <trkpt lat="41.751625" lon="2.110684">
        <ele>765.8</ele>
        <time>2011-08-19T10:59:43Z</time>
      </trkpt>
      <trkpt lat="41.751592" lon="2.110719">
        <ele>765.9</ele>
        <time>2011-08-19T10:59:43Z</time>
      </trkpt>
      <trkpt lat="41.751546" lon="2.110759">
        <ele>766.0</ele>
        <time>2011-08-19T10:59:43Z</time>
      </trkpt>
      <trkpt lat="41.751445" lon="2.110797">
        <ele>766.6</ele>
        <time>2011-08-19T10:59:43Z</time>
      </trkpt>
      <trkpt lat="41.751391" lon="2.110800">
        <ele>765.8</ele>
        <time>2011-08-19T10:59:43Z</time>
      </trkpt>
      <trkpt lat="41.751297" lon="2.110754">
        <ele>765.8</ele>
        <time>2011-08-19T10:59:43Z</time>
      </trkpt>
      <trkpt lat="41.751233" lon="2.110737">
        <ele>765.5</ele>
        <time>2011-08-19T10:59:43Z</time>
      </trkpt>
      <trkpt lat="41.751168" lon="2.110730">
        <ele>764.9</ele>
        <time>2011-08-19T10:59:43Z</time>
      </trkpt>
      <trkpt lat="41.751129" lon="2.110717">
        <ele>765.1</ele>
        <time>2011-08-19T10:59:43Z</time>
      </trkpt>
      <trkpt lat="41.751067" lon="2.110737">
        <ele>764.2</ele>
        <time>2011-08-19T10:59:43Z</time>
      </trkpt>
      <trkpt lat="41.750999" lon="2.110758">
        <ele>763.3</ele>
        <time>2011-08-19T10:59:43Z</time>
      </trkpt>
      <trkpt lat="41.750938" lon="2.110774">
        <ele>762.5</ele>
        <time>2011-08-19T10:59:43Z</time>
      </trkpt>
      <trkpt lat="41.750863" lon="2.110797">
        <ele>762.4</ele>
        <time>2011-08-19T10:59:43Z</time>
      </trkpt>
      <trkpt lat="41.750788" lon="2.110813">
        <ele>763.4</ele>
        <time>2011-08-19T10:59:43Z</time>
      </trkpt>
      <trkpt lat="41.750730" lon="2.110857">
        <ele>763.4</ele>
        <time>2011-08-19T10:59:43Z</time>
      </trkpt>
      <trkpt lat="41.750704" lon="2.110907">
        <ele>762.6</ele>
        <time>2011-08-19T10:59:43Z</time>
      </trkpt>
      <trkpt lat="41.750694" lon="2.110979">
        <ele>761.2</ele>
        <time>2011-08-19T10:59:43Z</time>
      </trkpt>
      <trkpt lat="41.750683" lon="2.111086">
        <ele>759.8</ele>
        <time>2011-08-19T10:59:43Z</time>
      </trkpt>
      <trkpt lat="41.750677" lon="2.111210">
        <ele>758.0</ele>
        <time>2011-08-19T10:59:43Z</time>
      </trkpt>
      <trkpt lat="41.750670" lon="2.111331">
        <ele>756.5</ele>
        <time>2011-08-19T10:59:43Z</time>
      </trkpt>
      <trkpt lat="41.750671" lon="2.111472">
        <ele>755.3</ele>
        <time>2011-08-19T10:59:43Z</time>
      </trkpt>
      <trkpt lat="41.750680" lon="2.111572">
        <ele>754.2</ele>
        <time>2011-08-19T10:59:43Z</time>
      </trkpt>
      <trkpt lat="41.750706" lon="2.111700">
        <ele>752.0</ele>
        <time>2011-08-19T10:59:43Z</time>
      </trkpt>
      <trkpt lat="41.750724" lon="2.111795">
        <ele>750.2</ele>
        <time>2011-08-19T10:59:43Z</time>
      </trkpt>
      <trkpt lat="41.750727" lon="2.111897">
        <ele>749.0</ele>
        <time>2011-08-19T10:59:43Z</time>
      </trkpt>
      <trkpt lat="41.750703" lon="2.111987">
        <ele>748.8</ele>
        <time>2011-08-19T10:59:43Z</time>
      </trkpt>
      <trkpt lat="41.750656" lon="2.112057">
        <ele>749.0</ele>
        <time>2011-08-19T10:59:43Z</time>
      </trkpt>
      <trkpt lat="41.750608" lon="2.112114">
        <ele>748.2</ele>
        <time>2011-08-19T10:59:43Z</time>
      </trkpt>
      <trkpt lat="41.750560" lon="2.112154">
        <ele>747.6</ele>
        <time>2011-08-19T10:59:43Z</time>
      </trkpt>
      <trkpt lat="41.750509" lon="2.112187">
        <ele>747.0</ele>
        <time>2011-08-19T10:59:43Z</time>
      </trkpt>
      <trkpt lat="41.750425" lon="2.112229">
        <ele>746.4</ele>
        <time>2011-08-19T10:59:43Z</time>
      </trkpt>
      <trkpt lat="41.750357" lon="2.112276">
        <ele>745.8</ele>
        <time>2011-08-19T10:59:43Z</time>
      </trkpt>
      <trkpt lat="41.750319" lon="2.112331">
        <ele>745.4</ele>
        <time>2011-08-19T10:59:43Z</time>
      </trkpt>
      <trkpt lat="41.750293" lon="2.112401">
        <ele>744.4</ele>
        <time>2011-08-19T10:59:43Z</time>
      </trkpt>
      <trkpt lat="41.750276" lon="2.112477">
        <ele>743.9</ele>
        <time>2011-08-19T10:59:43Z</time>
      </trkpt>
      <trkpt lat="41.750265" lon="2.112573">
        <ele>742.8</ele>
        <time>2011-08-19T10:59:43Z</time>
      </trkpt>
      <trkpt lat="41.750246" lon="2.112668">
        <ele>742.2</ele>
        <time>2011-08-19T10:59:43Z</time>
      </trkpt>
      <trkpt lat="41.750233" lon="2.112760">
        <ele>741.4</ele>
        <time>2011-08-19T10:59:43Z</time>
      </trkpt>
      <trkpt lat="41.750219" lon="2.112871">
        <ele>740.6</ele>
        <time>2011-08-19T10:59:43Z</time>
      </trkpt>
      <trkpt lat="41.750210" lon="2.112949">
        <ele>740.0</ele>
        <time>2011-08-19T10:59:43Z</time>
      </trkpt>
      <trkpt lat="41.750188" lon="2.113071">
        <ele>739.5</ele>
        <time>2011-08-19T10:59:43Z</time>
      </trkpt>
      <trkpt lat="41.750161" lon="2.113171">
        <ele>738.9</ele>
        <time>2011-08-19T10:59:43Z</time>
      </trkpt>
      <trkpt lat="41.750129" lon="2.113230">
        <ele>738.7</ele>
        <time>2011-08-19T10:59:43Z</time>
      </trkpt>
      <trkpt lat="41.750066" lon="2.113299">
        <ele>738.8</ele>
        <time>2011-08-19T10:59:43Z</time>
      </trkpt>
      <trkpt lat="41.750000" lon="2.113333">
        <ele>739.4</ele>
        <time>2011-08-19T10:59:43Z</time>
      </trkpt>
      <trkpt lat="41.749915" lon="2.113367">
        <ele>740.4</ele>
        <time>2011-08-19T10:59:43Z</time>
      </trkpt>
      <trkpt lat="41.749849" lon="2.113408">
        <ele>740.5</ele>
        <time>2011-08-19T10:59:43Z</time>
      </trkpt>
      <trkpt lat="41.749782" lon="2.113463">
        <ele>740.5</ele>
        <time>2011-08-19T10:59:43Z</time>
      </trkpt>
      <trkpt lat="41.749755" lon="2.113521">
        <ele>739.7</ele>
        <time>2011-08-19T10:59:43Z</time>
      </trkpt>
      <trkpt lat="41.749703" lon="2.113658">
        <ele>738.2</ele>
        <time>2011-08-19T10:59:43Z</time>
      </trkpt>
      <trkpt lat="41.749669" lon="2.113744">
        <ele>737.2</ele>
        <time>2011-08-19T10:59:43Z</time>
      </trkpt>
      <trkpt lat="41.749624" lon="2.113804">
        <ele>737.0</ele>
        <time>2011-08-19T10:59:43Z</time>
      </trkpt>
      <trkpt lat="41.749583" lon="2.113866">
        <ele>736.7</ele>
        <time>2011-08-19T10:59:43Z</time>
      </trkpt>
      <trkpt lat="41.749546" lon="2.113924">
        <ele>736.6</ele>
        <time>2011-08-19T10:59:43Z</time>
      </trkpt>
      <trkpt lat="41.749520" lon="2.114034">
        <ele>735.7</ele>
        <time>2011-08-19T10:59:43Z</time>
      </trkpt>
      <trkpt lat="41.749503" lon="2.114122">
        <ele>734.9</ele>
        <time>2011-08-19T10:59:43Z</time>
      </trkpt>
      <trkpt lat="41.749492" lon="2.114239">
        <ele>733.9</ele>
        <time>2011-08-19T10:59:43Z</time>
      </trkpt>
      <trkpt lat="41.749485" lon="2.114324">
        <ele>733.7</ele>
        <time>2011-08-19T10:59:43Z</time>
      </trkpt>
      <trkpt lat="41.749472" lon="2.114417">
        <ele>733.5</ele>
        <time>2011-08-19T10:59:43Z</time>
      </trkpt>
      <trkpt lat="41.749458" lon="2.114522">
        <ele>733.2</ele>
        <time>2011-08-19T10:59:43Z</time>
      </trkpt>
      <trkpt lat="41.749466" lon="2.114645">
        <ele>732.5</ele>
        <time>2011-08-19T10:59:43Z</time>
      </trkpt>
      <trkpt lat="41.749473" lon="2.114736">
        <ele>732.0</ele>
        <time>2011-08-19T10:59:43Z</time>
      </trkpt>
      <trkpt lat="41.749485" lon="2.114809">
        <ele>731.6</ele>
        <time>2011-08-19T10:59:43Z</time>
      </trkpt>
      <trkpt lat="41.749508" lon="2.114922">
        <ele>731.1</ele>
        <time>2011-08-19T10:59:43Z</time>
      </trkpt>
      <trkpt lat="41.749527" lon="2.115080">
        <ele>730.0</ele>
        <time>2011-08-19T10:59:43Z</time>
      </trkpt>
      <trkpt lat="41.749530" lon="2.115151">
        <ele>729.6</ele>
        <time>2011-08-19T10:59:43Z</time>
      </trkpt>
      <trkpt lat="41.749530" lon="2.115210">
        <ele>729.2</ele>
        <time>2011-08-19T10:59:43Z</time>
      </trkpt>
      <trkpt lat="41.749526" lon="2.115290">
        <ele>728.6</ele>
        <time>2011-08-19T10:59:43Z</time>
      </trkpt>
      <trkpt lat="41.749535" lon="2.115379">
        <ele>727.8</ele>
        <time>2011-08-19T10:59:43Z</time>
      </trkpt>
      <trkpt lat="41.749548" lon="2.115472">
        <ele>727.1</ele>
        <time>2011-08-19T10:59:43Z</time>
      </trkpt>
      <trkpt lat="41.749573" lon="2.115562">
        <ele>726.6</ele>
        <time>2011-08-19T10:59:43Z</time>
      </trkpt>
      <trkpt lat="41.749603" lon="2.115666">
        <ele>726.0</ele>
        <time>2011-08-19T10:59:43Z</time>
      </trkpt>
      <trkpt lat="41.749627" lon="2.115726">
        <ele>725.9</ele>
        <time>2011-08-19T10:59:43Z</time>
      </trkpt>
      <trkpt lat="41.749655" lon="2.115804">
        <ele>725.6</ele>
        <time>2011-08-19T10:59:43Z</time>
      </trkpt>
      <trkpt lat="41.749686" lon="2.115886">
        <ele>725.4</ele>
        <time>2011-08-19T10:59:43Z</time>
      </trkpt>
      <trkpt lat="41.749711" lon="2.115970">
        <ele>725.1</ele>
        <time>2011-08-19T10:59:43Z</time>
      </trkpt>
      <trkpt lat="41.749735" lon="2.116069">
        <ele>724.8</ele>
        <time>2011-08-19T10:59:43Z</time>
      </trkpt>
      <trkpt lat="41.749753" lon="2.116143">
        <ele>724.7</ele>
        <time>2011-08-19T10:59:43Z</time>
      </trkpt>
      <trkpt lat="41.749786" lon="2.116212">
        <ele>724.7</ele>
        <time>2011-08-19T10:59:43Z</time>
      </trkpt>
      <trkpt lat="41.749827" lon="2.116289">
        <ele>724.8</ele>
        <time>2011-08-19T10:59:43Z</time>
      </trkpt>
      <trkpt lat="41.749880" lon="2.116364">
        <ele>725.1</ele>
        <time>2011-08-19T10:59:43Z</time>
      </trkpt>
      <trkpt lat="41.749929" lon="2.116422">
        <ele>725.3</ele>
        <time>2011-08-19T10:59:43Z</time>
      </trkpt>
      <trkpt lat="41.749993" lon="2.116504">
        <ele>725.6</ele>
        <time>2011-08-19T10:59:43Z</time>
      </trkpt>
      <trkpt lat="41.750027" lon="2.116564">
        <ele>725.7</ele>
        <time>2011-08-19T10:59:43Z</time>
      </trkpt>
      <trkpt lat="41.750072" lon="2.116611">
        <ele>725.8</ele>
        <time>2011-08-19T10:59:43Z</time>
      </trkpt>
      <trkpt lat="41.750126" lon="2.116690">
        <ele>726.0</ele>
        <time>2011-08-19T10:59:43Z</time>
      </trkpt>
      <trkpt lat="41.750169" lon="2.116753">
        <ele>726.0</ele>
        <time>2011-08-19T10:59:43Z</time>
      </trkpt>
      <trkpt lat="41.750249" lon="2.116870">
        <ele>725.6</ele>
        <time>2011-08-19T10:59:43Z</time>
      </trkpt>
      <trkpt lat="41.750293" lon="2.116931">
        <ele>725.4</ele>
        <time>2011-08-19T10:59:43Z</time>
      </trkpt>
      <trkpt lat="41.750337" lon="2.116989">
        <ele>725.3</ele>
        <time>2011-08-19T10:59:43Z</time>
      </trkpt>
      <trkpt lat="41.750381" lon="2.117042">
        <ele>725.1</ele>
        <time>2011-08-19T10:59:43Z</time>
      </trkpt>
      <trkpt lat="41.750438" lon="2.117087">
        <ele>725.1</ele>
        <time>2011-08-19T10:59:43Z</time>
      </trkpt>
      <trkpt lat="41.750499" lon="2.117153">
        <ele>724.8</ele>
        <time>2011-08-19T10:59:43Z</time>
      </trkpt>
      <trkpt lat="41.750543" lon="2.117154">
        <ele>725.0</ele>
        <time>2011-08-19T10:59:43Z</time>
      </trkpt>
      <trkpt lat="41.750606" lon="2.117123">
        <ele>725.5</ele>
        <time>2011-08-19T10:59:43Z</time>
      </trkpt>
      <trkpt lat="41.750654" lon="2.117090">
        <ele>725.9</ele>
        <time>2011-08-19T10:59:43Z</time>
      </trkpt>
      <trkpt lat="41.750695" lon="2.117050">
        <ele>726.0</ele>
        <time>2011-08-19T10:59:43Z</time>
      </trkpt>
      <trkpt lat="41.750749" lon="2.117010">
        <ele>726.0</ele>
        <time>2011-08-19T10:59:43Z</time>
      </trkpt>
      <trkpt lat="41.750771" lon="2.116986">
        <ele>726.0</ele>
        <time>2011-08-19T10:59:43Z</time>
      </trkpt>
      <trkpt lat="41.750745" lon="2.116902">
        <ele>726.0</ele>
        <time>2011-08-19T10:59:43Z</time>
      </trkpt>
      <trkpt lat="41.750721" lon="2.116846">
        <ele>726.0</ele>
        <time>2011-08-19T10:59:43Z</time>
      </trkpt>
      <trkpt lat="41.750692" lon="2.116778">
        <ele>726.0</ele>
        <time>2011-08-19T10:59:43Z</time>
      </trkpt>
      <trkpt lat="41.750670" lon="2.116733">
        <ele>726.0</ele>
        <time>2011-08-19T10:59:43Z</time>
      </trkpt>
      <trkpt lat="41.750641" lon="2.116684">
        <ele>726.0</ele>
        <time>2011-08-19T10:59:43Z</time>
      </trkpt>
      <trkpt lat="41.750585" lon="2.116588">
        <ele>726.1</ele>
        <time>2011-08-19T10:59:43Z</time>
      </trkpt>
      <trkpt lat="41.750543" lon="2.116519">
        <ele>726.2</ele>
        <time>2011-08-19T10:59:43Z</time>
      </trkpt>
      <trkpt lat="41.750539" lon="2.116441">
        <ele>726.1</ele>
        <time>2011-08-19T10:59:43Z</time>
      </trkpt>
      <trkpt lat="41.750590" lon="2.116422">
        <ele>725.8</ele>
        <time>2011-08-19T10:59:43Z</time>
      </trkpt>
      <trkpt lat="41.750671" lon="2.116405">
        <ele>725.2</ele>
        <time>2011-08-19T10:59:43Z</time>
      </trkpt>
      <trkpt lat="41.750745" lon="2.116389">
        <ele>724.6</ele>
        <time>2011-08-19T10:59:43Z</time>
      </trkpt>
      <trkpt lat="41.750807" lon="2.116376">
        <ele>724.1</ele>
        <time>2011-08-19T10:59:43Z</time>
      </trkpt>
      <trkpt lat="41.750874" lon="2.116363">
        <ele>723.6</ele>
        <time>2011-08-19T10:59:43Z</time>
      </trkpt>
      <trkpt lat="41.750922" lon="2.116361">
        <ele>723.2</ele>
        <time>2011-08-19T10:59:43Z</time>
      </trkpt>
      <trkpt lat="41.750977" lon="2.116379">
        <ele>723.0</ele>
        <time>2011-08-19T10:59:43Z</time>
      </trkpt>
      <trkpt lat="41.751023" lon="2.116407">
        <ele>723.0</ele>
        <time>2011-08-19T10:59:43Z</time>
      </trkpt>
      <trkpt lat="41.751060" lon="2.116453">
        <ele>723.2</ele>
        <time>2011-08-19T10:59:43Z</time>
      </trkpt>
      <trkpt lat="41.751101" lon="2.116493">
        <ele>723.1</ele>
        <time>2011-08-19T10:59:43Z</time>
      </trkpt>
      <trkpt lat="41.751137" lon="2.116553">
        <ele>723.2</ele>
        <time>2011-08-19T10:59:43Z</time>
      </trkpt>
      <trkpt lat="41.751168" lon="2.116636">
        <ele>723.3</ele>
        <time>2011-08-19T10:59:43Z</time>
      </trkpt>
      <trkpt lat="41.751194" lon="2.116760">
        <ele>723.4</ele>
        <time>2011-08-19T10:59:43Z</time>
      </trkpt>
      <trkpt lat="41.751198" lon="2.116855">
        <ele>723.6</ele>
        <time>2011-08-19T10:59:43Z</time>
      </trkpt>
      <trkpt lat="41.751214" lon="2.116978">
        <ele>723.8</ele>
        <time>2011-08-19T10:59:43Z</time>
      </trkpt>
      <trkpt lat="41.751231" lon="2.117065">
        <ele>723.9</ele>
        <time>2011-08-19T10:59:43Z</time>
      </trkpt>
      <trkpt lat="41.751252" lon="2.117141">
        <ele>723.9</ele>
        <time>2011-08-19T10:59:43Z</time>
      </trkpt>
      <trkpt lat="41.751277" lon="2.117220">
        <ele>723.8</ele>
        <time>2011-08-19T10:59:43Z</time>
      </trkpt>
      <trkpt lat="41.751298" lon="2.117278">
        <ele>723.7</ele>
        <time>2011-08-19T10:59:43Z</time>
      </trkpt>
      <trkpt lat="41.751332" lon="2.117335">
        <ele>723.5</ele>
        <time>2011-08-19T10:59:43Z</time>
      </trkpt>
      <trkpt lat="41.751374" lon="2.117389">
        <ele>723.2</ele>
        <time>2011-08-19T10:59:43Z</time>
      </trkpt>
      <trkpt lat="41.750966" lon="2.116322">
        <ele>721.9</ele>
        <time>2019-12-01T07:44:13.000Z</time>
      </trkpt>
      <trkpt lat="41.750941" lon="2.116284">
        <ele>721.3</ele>
        <time>2019-12-01T07:44:14.000Z</time>
      </trkpt>
      <trkpt lat="41.750905" lon="2.116286">
        <ele>721.6</ele>
        <time>2019-12-01T07:44:17.000Z</time>
      </trkpt>
      <trkpt lat="41.750873" lon="2.116302">
        <ele>722.1</ele>
        <time>2019-12-01T07:44:18.000Z</time>
      </trkpt>
      <trkpt lat="41.750837" lon="2.116317">
        <ele>722.6</ele>
        <time>2019-12-01T07:44:38.000Z</time>
      </trkpt>
      <trkpt lat="41.750795" lon="2.116326">
        <ele>723.0</ele>
        <time>2019-12-01T07:44:46.000Z</time>
      </trkpt>
      <trkpt lat="41.750754" lon="2.116351">
        <ele>723.4</ele>
        <time>2019-12-01T07:44:51.000Z</time>
      </trkpt>
      <trkpt lat="41.750678" lon="2.116379">
        <ele>724.2</ele>
        <time>2019-12-01T07:45:7.000Z</time>
      </trkpt>
      <trkpt lat="41.750588" lon="2.116418">
        <ele>724.8</ele>
        <time>2019-12-01T07:45:16.000Z</time>
      </trkpt>
      <trkpt lat="41.750463" lon="2.116470">
        <ele>725.5</ele>
        <time>2019-12-01T07:45:29.000Z</time>
      </trkpt>
      <trkpt lat="41.750548" lon="2.116554">
        <ele>725.2</ele>
        <time>2019-12-01T07:45:33.000Z</time>
      </trkpt>
      <trkpt lat="41.750582" lon="2.116596">
        <ele>725.3</ele>
        <time>2019-12-01T07:45:38.000Z</time>
      </trkpt>
      <trkpt lat="41.750614" lon="2.116640">
        <ele>725.3</ele>
        <time>2019-12-01T07:45:41.000Z</time>
      </trkpt>
      <trkpt lat="41.750693" lon="2.116798">
        <ele>725.0</ele>
        <time>2019-12-01T07:45:43.000Z</time>
      </trkpt>
      <trkpt lat="41.750718" lon="2.116860">
        <ele>725.0</ele>
        <time>2019-12-01T07:45:59.000Z</time>
      </trkpt>
      <trkpt lat="41.750751" lon="2.116948">
        <ele>725.0</ele>
        <time>2019-12-01T07:46:2.000Z</time>
      </trkpt>
      <trkpt lat="41.750628" lon="2.117052">
        <ele>725.0</ele>
        <time>2019-12-01T07:46:14.000Z</time>
      </trkpt>
      <trkpt lat="41.750548" lon="2.117121">
        <ele>724.3</ele>
        <time>2019-12-01T07:46:26.000Z</time>
      </trkpt>
      <trkpt lat="41.750510" lon="2.117160">
        <ele>723.8</ele>
        <time>2019-12-01T07:46:27.000Z</time>
      </trkpt>
      <trkpt lat="41.750376" lon="2.117020">
        <ele>725.2</ele>
        <time>2019-12-01T07:46:41.000Z</time>
      </trkpt>
      <trkpt lat="41.750339" lon="2.116975">
        <ele>725.6</ele>
        <time>2019-12-01T07:46:44.000Z</time>
      </trkpt>
      <trkpt lat="41.750262" lon="2.116876">
        <ele>727.0</ele>
        <time>2019-12-01T07:46:57.000Z</time>
      </trkpt>
      <trkpt lat="41.750178" lon="2.116745">
        <ele>726.3</ele>
        <time>2019-12-01T07:47:11.000Z</time>
      </trkpt>
      <trkpt lat="41.750095" lon="2.116618">
        <ele>725.8</ele>
        <time>2019-12-01T07:47:23.000Z</time>
      </trkpt>
      <trkpt lat="41.750002" lon="2.116499">
        <ele>725.2</ele>
        <time>2019-12-01T07:47:34.000Z</time>
      </trkpt>
      <trkpt lat="41.749967" lon="2.116455">
        <ele>725.3</ele>
        <time>2019-12-01T07:47:39.000Z</time>
      </trkpt>
      <trkpt lat="41.749853" lon="2.116293">
        <ele>725.3</ele>
        <time>2019-12-01T07:47:50.000Z</time>
      </trkpt>
      <trkpt lat="41.749763" lon="2.116180">
        <ele>725.8</ele>
        <time>2019-12-01T07:48:4.000Z</time>
      </trkpt>
      <trkpt lat="41.749690" lon="2.115997">
        <ele>726.4</ele>
        <time>2019-12-01T07:48:17.000Z</time>
      </trkpt>
      <trkpt lat="41.749594" lon="2.115709">
        <ele>726.6</ele>
        <time>2019-12-01T07:48:32.000Z</time>
      </trkpt>
      <trkpt lat="41.749544" lon="2.115550">
        <ele>726.9</ele>
        <time>2019-12-01T07:48:46.000Z</time>
      </trkpt>
      <trkpt lat="41.749481" lon="2.115395">
        <ele>727.1</ele>
        <time>2019-12-01T07:48:59.000Z</time>
      </trkpt>
      <trkpt lat="41.749464" lon="2.115379">
        <ele>727.1</ele>
        <time>2019-12-01T07:49:55.000Z</time>
      </trkpt>
      <trkpt lat="41.749483" lon="2.115472">
        <ele>726.9</ele>
        <time>2019-12-01T07:50:8.000Z</time>
      </trkpt>
      <trkpt lat="41.749506" lon="2.115587">
        <ele>726.6</ele>
        <time>2019-12-01T07:50:19.000Z</time>
      </trkpt>
      <trkpt lat="41.749533" lon="2.115780">
        <ele>725.5</ele>
        <time>2019-12-01T07:50:34.000Z</time>
      </trkpt>
      <trkpt lat="41.749567" lon="2.115981">
        <ele>723.9</ele>
        <time>2019-12-01T07:50:49.000Z</time>
      </trkpt>
      <trkpt lat="41.749615" lon="2.116273">
        <ele>723.7</ele>
        <time>2019-12-01T07:51:7.000Z</time>
      </trkpt>
      <trkpt lat="41.749662" lon="2.116532">
        <ele>721.5</ele>
        <time>2019-12-01T07:51:23.000Z</time>
      </trkpt>
      <trkpt lat="41.749703" lon="2.116787">
        <ele>720.2</ele>
        <time>2019-12-01T07:51:38.000Z</time>
      </trkpt>
      <trkpt lat="41.749733" lon="2.116920">
        <ele>719.7</ele>
        <time>2019-12-01T07:51:49.000Z</time>
      </trkpt>
      <trkpt lat="41.749762" lon="2.116990">
        <ele>719.3</ele>
        <time>2019-12-01T07:51:53.000Z</time>
      </trkpt>
      <trkpt lat="41.749716" lon="2.117028">
        <ele>719.0</ele>
        <time>2019-12-01T07:51:58.000Z</time>
      </trkpt>
      <trkpt lat="41.749604" lon="2.116891">
        <ele>717.3</ele>
        <time>2019-12-01T07:52:15.000Z</time>
      </trkpt>
      <trkpt lat="41.749561" lon="2.116840">
        <ele>717.0</ele>
        <time>2019-12-01T07:52:16.000Z</time>
      </trkpt>
      <trkpt lat="41.749450" lon="2.116698">
        <ele>716.0</ele>
        <time>2019-12-01T07:52:31.000Z</time>
      </trkpt>
      <trkpt lat="41.749410" lon="2.116687">
        <ele>715.1</ele>
        <time>2019-12-01T07:52:34.000Z</time>
      </trkpt>
      <trkpt lat="41.749347" lon="2.116721">
        <ele>713.7</ele>
        <time>2019-12-01T07:52:39.000Z</time>
      </trkpt>
      <trkpt lat="41.749227" lon="2.116867">
        <ele>711.4</ele>
        <time>2019-12-01T07:52:53.000Z</time>
      </trkpt>
      <trkpt lat="41.749158" lon="2.116961">
        <ele>710.0</ele>
        <time>2019-12-01T07:53:4.000Z</time>
      </trkpt>
      <trkpt lat="41.749105" lon="2.117048">
        <ele>709.1</ele>
        <time>2019-12-01T07:53:12.000Z</time>
      </trkpt>
      <trkpt lat="41.749060" lon="2.117114">
        <ele>708.6</ele>
        <time>2019-12-01T07:53:15.000Z</time>
      </trkpt>
      <trkpt lat="41.748988" lon="2.117211">
        <ele>706.9</ele>
        <time>2019-12-01T07:53:27.000Z</time>
      </trkpt>
      <trkpt lat="41.748894" lon="2.117353">
        <ele>705.3</ele>
        <time>2019-12-01T07:53:42.000Z</time>
      </trkpt>
      <trkpt lat="41.748769" lon="2.117530">
        <ele>703.4</ele>
        <time>2019-12-01T07:54:0.000Z</time>
      </trkpt>
      <trkpt lat="41.748701" lon="2.117633">
        <ele>702.3</ele>
        <time>2019-12-01T07:54:10.000Z</time>
      </trkpt>
      <trkpt lat="41.748549" lon="2.117849">
        <ele>699.5</ele>
        <time>2019-12-01T07:54:26.000Z</time>
      </trkpt>
      <trkpt lat="41.748445" lon="2.117913">
        <ele>698.5</ele>
        <time>2019-12-01T07:54:38.000Z</time>
      </trkpt>
      <trkpt lat="41.748296" lon="2.118004">
        <ele>696.6</ele>
        <time>2019-12-01T07:54:51.000Z</time>
      </trkpt>
      <trkpt lat="41.748142" lon="2.118095">
        <ele>694.5</ele>
        <time>2019-12-01T07:55:8.000Z</time>
      </trkpt>
      <trkpt lat="41.748037" lon="2.118152">
        <ele>693.6</ele>
        <time>2019-12-01T07:55:16.000Z</time>
      </trkpt>
      <trkpt lat="41.747991" lon="2.118185">
        <ele>693.1</ele>
        <time>2019-12-01T07:55:20.000Z</time>
      </trkpt>
      <trkpt lat="41.747919" lon="2.118223">
        <ele>692.6</ele>
        <time>2019-12-01T07:55:28.000Z</time>
      </trkpt>
      <trkpt lat="41.747815" lon="2.118283">
        <ele>691.9</ele>
        <time>2019-12-01T07:55:40.000Z</time>
      </trkpt>
      <trkpt lat="41.747757" lon="2.118311">
        <ele>691.5</ele>
        <time>2019-12-01T07:55:44.000Z</time>
      </trkpt>
      <trkpt lat="41.747619" lon="2.118377">
        <ele>690.3</ele>
        <time>2019-12-01T07:56:0.000Z</time>
      </trkpt>
      <trkpt lat="41.747491" lon="2.118435">
        <ele>689.7</ele>
        <time>2019-12-01T07:56:13.000Z</time>
      </trkpt>
      <trkpt lat="41.747432" lon="2.118471">
        <ele>689.4</ele>
        <time>2019-12-01T07:56:15.000Z</time>
      </trkpt>
      <trkpt lat="41.747344" lon="2.118518">
        <ele>688.4</ele>
        <time>2019-12-01T07:56:28.000Z</time>
      </trkpt>
      <trkpt lat="41.747256" lon="2.118552">
        <ele>688.3</ele>
        <time>2019-12-01T07:56:35.000Z</time>
      </trkpt>
      <trkpt lat="41.747120" lon="2.118632">
        <ele>688.5</ele>
        <time>2019-12-01T07:56:47.000Z</time>
      </trkpt>
      <trkpt lat="41.746987" lon="2.118707">
        <ele>688.1</ele>
        <time>2019-12-01T07:57:1.000Z</time>
      </trkpt>
      <trkpt lat="41.746933" lon="2.118730">
        <ele>688.0</ele>
        <time>2019-12-01T07:57:6.000Z</time>
      </trkpt>
      <trkpt lat="41.746829" lon="2.118758">
        <ele>687.2</ele>
        <time>2019-12-01T07:57:13.000Z</time>
      </trkpt>
      <trkpt lat="41.746732" lon="2.118758">
        <ele>686.5</ele>
        <time>2019-12-01T07:57:27.000Z</time>
      </trkpt>
      <trkpt lat="41.746666" lon="2.118759">
        <ele>685.7</ele>
        <time>2019-12-01T07:57:41.000Z</time>
      </trkpt>
      <trkpt lat="41.746621" lon="2.118775">
        <ele>684.7</ele>
        <time>2019-12-01T07:58:0.000Z</time>
      </trkpt>
      <trkpt lat="41.746599" lon="2.118780">
        <ele>684.4</ele>
        <time>2019-12-01T07:58:3.000Z</time>
      </trkpt>
      <trkpt lat="41.746503" lon="2.118846">
        <ele>684.2</ele>
        <time>2019-12-01T07:58:16.000Z</time>
      </trkpt>
      <trkpt lat="41.746464" lon="2.118867">
        <ele>685.0</ele>
        <time>2019-12-01T07:58:20.000Z</time>
      </trkpt>
      <trkpt lat="41.746417" lon="2.118874">
        <ele>685.8</ele>
        <time>2019-12-01T07:58:26.000Z</time>
      </trkpt>
      <trkpt lat="41.746355" lon="2.118880">
        <ele>686.8</ele>
        <time>2019-12-01T07:58:31.000Z</time>
      </trkpt>
      <trkpt lat="41.746227" lon="2.118884">
        <ele>686.8</ele>
        <time>2019-12-01T07:58:44.000Z</time>
      </trkpt>
      <trkpt lat="41.746102" lon="2.118866">
        <ele>687.6</ele>
        <time>2019-12-01T07:58:51.000Z</time>
      </trkpt>
      <trkpt lat="41.745947" lon="2.118826">
        <ele>688.0</ele>
        <time>2019-12-01T07:59:8.000Z</time>
      </trkpt>
      <trkpt lat="41.745888" lon="2.118822">
        <ele>687.9</ele>
        <time>2019-12-01T07:59:13.000Z</time>
      </trkpt>
      <trkpt lat="41.745818" lon="2.118809">
        <ele>687.5</ele>
        <time>2019-12-01T07:59:19.000Z</time>
      </trkpt>
      <trkpt lat="41.745790" lon="2.118803">
        <ele>687.2</ele>
        <time>2019-12-01T07:59:22.000Z</time>
      </trkpt>
      <trkpt lat="41.745734" lon="2.118818">
        <ele>687.3</ele>
        <time>2019-12-01T07:59:26.000Z</time>
      </trkpt>
      <trkpt lat="41.745655" lon="2.118841">
        <ele>687.6</ele>
        <time>2019-12-01T07:59:33.000Z</time>
      </trkpt>
      <trkpt lat="41.745570" lon="2.118853">
        <ele>687.5</ele>
        <time>2019-12-01T07:59:39.000Z</time>
      </trkpt>
      <trkpt lat="41.745518" lon="2.118871">
        <ele>687.9</ele>
        <time>2019-12-01T07:59:44.000Z</time>
      </trkpt>
      <trkpt lat="41.745500" lon="2.118895">
        <ele>688.4</ele>
        <time>2019-12-01T07:59:56.000Z</time>
      </trkpt>
      <trkpt lat="41.745338" lon="2.118975">
        <ele>690.0</ele>
        <time>2019-12-01T08:00:1.000Z</time>
      </trkpt>
      <trkpt lat="41.745179" lon="2.119046">
        <ele>691.3</ele>
        <time>2019-12-01T08:00:16.000Z</time>
      </trkpt>
      <trkpt lat="41.745150" lon="2.119134">
        <ele>692.7</ele>
        <time>2019-12-01T08:00:31.000Z</time>
      </trkpt>
      <trkpt lat="41.745094" lon="2.119205">
        <ele>693.6</ele>
        <time>2019-12-01T08:00:37.000Z</time>
      </trkpt>
      <trkpt lat="41.744932" lon="2.119342">
        <ele>693.7</ele>
        <time>2019-12-01T08:00:53.000Z</time>
      </trkpt>
      <trkpt lat="41.744803" lon="2.119424">
        <ele>693.4</ele>
        <time>2019-12-01T08:01:9.000Z</time>
      </trkpt>
      <trkpt lat="41.744660" lon="2.119477">
        <ele>693.6</ele>
        <time>2019-12-01T08:01:23.000Z</time>
      </trkpt>
      <trkpt lat="41.744645" lon="2.119476">
        <ele>693.7</ele>
        <time>2019-12-01T08:01:25.000Z</time>
      </trkpt>
      <trkpt lat="41.744559" lon="2.119501">
        <ele>693.8</ele>
        <time>2019-12-01T08:01:33.000Z</time>
      </trkpt>
      <trkpt lat="41.744501" lon="2.119505">
        <ele>693.5</ele>
        <time>2019-12-01T08:01:36.000Z</time>
      </trkpt>
      <trkpt lat="41.744345" lon="2.119547">
        <ele>694.3</ele>
        <time>2019-12-01T08:01:50.000Z</time>
      </trkpt>
      <trkpt lat="41.744270" lon="2.119578">
        <ele>695.0</ele>
        <time>2019-12-01T08:02:0.000Z</time>
      </trkpt>
      <trkpt lat="41.744203" lon="2.119700">
        <ele>696.0</ele>
        <time>2019-12-01T08:02:16.000Z</time>
      </trkpt>
      <trkpt lat="41.744144" lon="2.119976">
        <ele>697.2</ele>
        <time>2019-12-01T08:02:31.000Z</time>
      </trkpt>
      <trkpt lat="41.744108" lon="2.120154">
        <ele>697.0</ele>
        <time>2019-12-01T08:02:43.000Z</time>
      </trkpt>
      <trkpt lat="41.744083" lon="2.120313">
        <ele>696.3</ele>
        <time>2019-12-01T08:02:51.000Z</time>
      </trkpt>
      <trkpt lat="41.744038" lon="2.120397">
        <ele>696.1</ele>
        <time>2019-12-01T08:03:5.000Z</time>
      </trkpt>
      <trkpt lat="41.743943" lon="2.120464">
        <ele>695.4</ele>
        <time>2019-12-01T08:03:16.000Z</time>
      </trkpt>
      <trkpt lat="41.743803" lon="2.120468">
        <ele>695.5</ele>
        <time>2019-12-01T08:03:26.000Z</time>
      </trkpt>
      <trkpt lat="41.743662" lon="2.120459">
        <ele>696.5</ele>
        <time>2019-12-01T08:03:42.000Z</time>
      </trkpt>
      <trkpt lat="41.743607" lon="2.120455">
        <ele>697.0</ele>
        <time>2019-12-01T08:03:43.000Z</time>
      </trkpt>
      <trkpt lat="41.743540" lon="2.120466">
        <ele>697.0</ele>
        <time>2019-12-01T08:03:47.000Z</time>
      </trkpt>
      <trkpt lat="41.743398" lon="2.120475">
        <ele>698.2</ele>
        <time>2019-12-01T08:04:1.000Z</time>
      </trkpt>
      <trkpt lat="41.743341" lon="2.120488">
        <ele>698.7</ele>
        <time>2019-12-01T08:04:4.000Z</time>
      </trkpt>
      <trkpt lat="41.743185" lon="2.120508">
        <ele>699.8</ele>
        <time>2019-12-01T08:04:18.000Z</time>
      </trkpt>
      <trkpt lat="41.743126" lon="2.120479">
        <ele>700.7</ele>
        <time>2019-12-01T08:04:26.000Z</time>
      </trkpt>
      <trkpt lat="41.743057" lon="2.120444">
        <ele>701.8</ele>
        <time>2019-12-01T08:04:33.000Z</time>
      </trkpt>
      <trkpt lat="41.742996" lon="2.120448">
        <ele>702.2</ele>
        <time>2019-12-01T08:04:49.000Z</time>
      </trkpt>
      <trkpt lat="41.742881" lon="2.120490">
        <ele>704.5</ele>
        <time>2019-12-01T08:05:1.000Z</time>
      </trkpt>
      <trkpt lat="41.742666" lon="2.120488">
        <ele>708.7</ele>
        <time>2019-12-01T08:05:16.000Z</time>
      </trkpt>
      <trkpt lat="41.742504" lon="2.120510">
        <ele>710.5</ele>
        <time>2019-12-01T08:05:28.000Z</time>
      </trkpt>
      <trkpt lat="41.742425" lon="2.120479">
        <ele>712.1</ele>
        <time>2019-12-01T08:05:36.000Z</time>
      </trkpt>
      <trkpt lat="41.742310" lon="2.120368">
        <ele>715.2</ele>
        <time>2019-12-01T08:05:51.000Z</time>
      </trkpt>
      <trkpt lat="41.742265" lon="2.120302">
        <ele>716.5</ele>
        <time>2019-12-01T08:06:7.000Z</time>
      </trkpt>
      <trkpt lat="41.742211" lon="2.120242">
        <ele>717.3</ele>
        <time>2019-12-01T08:06:11.000Z</time>
      </trkpt>
      <trkpt lat="41.742152" lon="2.120196">
        <ele>718.7</ele>
        <time>2019-12-01T08:06:20.000Z</time>
      </trkpt>
      <trkpt lat="41.742060" lon="2.120147">
        <ele>720.9</ele>
        <time>2019-12-01T08:06:29.000Z</time>
      </trkpt>
      <trkpt lat="41.741956" lon="2.120078">
        <ele>722.7</ele>
        <time>2019-12-01T08:06:43.000Z</time>
      </trkpt>
      <trkpt lat="41.741897" lon="2.120038">
        <ele>723.7</ele>
        <time>2019-12-01T08:06:54.000Z</time>
      </trkpt>
      <trkpt lat="41.741845" lon="2.120014">
        <ele>724.6</ele>
        <time>2019-12-01T08:06:58.000Z</time>
      </trkpt>
      <trkpt lat="41.741739" lon="2.119977">
        <ele>725.9</ele>
        <time>2019-12-01T08:07:6.000Z</time>
      </trkpt>
      <trkpt lat="41.741690" lon="2.119954">
        <ele>726.8</ele>
        <time>2019-12-01T08:07:10.000Z</time>
      </trkpt>
      <trkpt lat="41.741621" lon="2.119939">
        <ele>727.6</ele>
        <time>2019-12-01T08:07:17.000Z</time>
      </trkpt>
      <trkpt lat="41.741581" lon="2.119954">
        <ele>727.8</ele>
        <time>2019-12-01T08:07:21.000Z</time>
      </trkpt>
      <trkpt lat="41.741528" lon="2.119997">
        <ele>727.7</ele>
        <time>2019-12-01T08:07:37.000Z</time>
      </trkpt>
      <trkpt lat="41.741503" lon="2.120109">
        <ele>727.3</ele>
        <time>2019-12-01T08:07:51.000Z</time>
      </trkpt>
      <trkpt lat="41.741466" lon="2.120328">
        <ele>729.8</ele>
        <time>2019-12-01T08:08:3.000Z</time>
      </trkpt>
      <trkpt lat="41.741480" lon="2.120675">
        <ele>732.2</ele>
        <time>2019-12-01T08:08:13.000Z</time>
      </trkpt>
      <trkpt lat="41.741487" lon="2.120853">
        <ele>733.0</ele>
        <time>2019-12-01T08:08:26.000Z</time>
      </trkpt>
      <trkpt lat="41.741520" lon="2.121041">
        <ele>733.6</ele>
        <time>2019-12-01T08:08:38.000Z</time>
      </trkpt>
      <trkpt lat="41.741577" lon="2.121215">
        <ele>734.8</ele>
        <time>2019-12-01T08:08:48.000Z</time>
      </trkpt>
      <trkpt lat="41.741649" lon="2.121351">
        <ele>736.4</ele>
        <time>2019-12-01T08:09:0.000Z</time>
      </trkpt>
      <trkpt lat="41.741755" lon="2.121477">
        <ele>736.1</ele>
        <time>2019-12-01T08:09:13.000Z</time>
      </trkpt>
      <trkpt lat="41.741789" lon="2.121630">
        <ele>736.6</ele>
        <time>2019-12-01T08:09:19.000Z</time>
      </trkpt>
      <trkpt lat="41.741806" lon="2.121694">
        <ele>737.0</ele>
        <time>2019-12-01T08:09:21.000Z</time>
      </trkpt>
      <trkpt lat="41.741845" lon="2.121789">
        <ele>738.5</ele>
        <time>2019-12-01T08:09:31.000Z</time>
      </trkpt>
      <trkpt lat="41.741994" lon="2.121891">
        <ele>739.2</ele>
        <time>2019-12-01T08:09:41.000Z</time>
      </trkpt>
      <trkpt lat="41.742034" lon="2.121979">
        <ele>740.5</ele>
        <time>2019-12-01T08:09:50.000Z</time>
      </trkpt>
      <trkpt lat="41.742070" lon="2.122064">
        <ele>740.9</ele>
        <time>2019-12-01T08:09:52.000Z</time>
      </trkpt>
      <trkpt lat="41.742102" lon="2.122161">
        <ele>740.7</ele>
        <time>2019-12-01T08:09:59.000Z</time>
      </trkpt>
      <trkpt lat="41.742165" lon="2.122344">
        <ele>739.7</ele>
        <time>2019-12-01T08:10:12.000Z</time>
      </trkpt>
      <trkpt lat="41.742145" lon="2.122424">
        <ele>739.9</ele>
        <time>2019-12-01T08:10:24.000Z</time>
      </trkpt>
      <trkpt lat="41.742127" lon="2.122475">
        <ele>739.9</ele>
        <time>2019-12-01T08:10:38.000Z</time>
      </trkpt>
      <trkpt lat="41.742038" lon="2.122587">
        <ele>741.3</ele>
        <time>2019-12-01T08:10:41.000Z</time>
      </trkpt>
      <trkpt lat="41.741979" lon="2.122647">
        <ele>741.3</ele>
        <time>2019-12-01T08:10:50.000Z</time>
      </trkpt>
      <trkpt lat="41.741950" lon="2.122696">
        <ele>741.2</ele>
        <time>2019-12-01T08:10:52.000Z</time>
      </trkpt>
      <trkpt lat="41.741907" lon="2.122749">
        <ele>741.7</ele>
        <time>2019-12-01T08:11:1.000Z</time>
      </trkpt>
      <trkpt lat="41.741808" lon="2.122926">
        <ele>741.9</ele>
        <time>2019-12-01T08:11:15.000Z</time>
      </trkpt>
      <trkpt lat="41.741717" lon="2.123096">
        <ele>742.7</ele>
        <time>2019-12-01T08:11:30.000Z</time>
      </trkpt>
      <trkpt lat="41.741677" lon="2.123167">
        <ele>742.9</ele>
        <time>2019-12-01T08:11:41.000Z</time>
      </trkpt>
      <trkpt lat="41.741602" lon="2.123282">
        <ele>742.9</ele>
        <time>2019-12-01T08:11:50.000Z</time>
      </trkpt>
      <trkpt lat="41.741528" lon="2.123331">
        <ele>743.3</ele>
        <time>2019-12-01T08:12:5.000Z</time>
      </trkpt>
      <trkpt lat="41.741454" lon="2.123311">
        <ele>744.0</ele>
        <time>2019-12-01T08:12:18.000Z</time>
      </trkpt>
      <trkpt lat="41.741251" lon="2.123205">
        <ele>744.0</ele>
        <time>2019-12-01T08:12:23.000Z</time>
      </trkpt>
      <trkpt lat="41.741185" lon="2.123165">
        <ele>743.7</ele>
        <time>2019-12-01T08:12:25.000Z</time>
      </trkpt>
      <trkpt lat="41.741066" lon="2.123092">
        <ele>743.7</ele>
        <time>2019-12-01T08:12:37.000Z</time>
      </trkpt>
      <trkpt lat="41.741009" lon="2.123034">
        <ele>744.2</ele>
        <time>2019-12-01T08:12:43.000Z</time>
      </trkpt>
      <trkpt lat="41.740921" lon="2.122972">
        <ele>744.1</ele>
        <time>2019-12-01T08:12:45.000Z</time>
      </trkpt>
      <trkpt lat="41.740853" lon="2.122866">
        <ele>745.2</ele>
        <time>2019-12-01T08:12:55.000Z</time>
      </trkpt>
      <trkpt lat="41.740797" lon="2.122744">
        <ele>746.2</ele>
        <time>2019-12-01T08:13:9.000Z</time>
      </trkpt>
      <trkpt lat="41.740718" lon="2.122572">
        <ele>746.7</ele>
        <time>2019-12-01T08:13:23.000Z</time>
      </trkpt>
      <trkpt lat="41.740664" lon="2.122481">
        <ele>747.0</ele>
        <time>2019-12-01T08:13:32.000Z</time>
      </trkpt>
      <trkpt lat="41.740592" lon="2.122428">
        <ele>747.0</ele>
        <time>2019-12-01T08:13:46.000Z</time>
      </trkpt>
      <trkpt lat="41.740499" lon="2.122370">
        <ele>747.7</ele>
        <time>2019-12-01T08:13:50.000Z</time>
      </trkpt>
      <trkpt lat="41.740461" lon="2.122359">
        <ele>747.6</ele>
        <time>2019-12-01T08:13:54.000Z</time>
      </trkpt>
      <trkpt lat="41.740382" lon="2.122349">
        <ele>747.2</ele>
        <time>2019-12-01T08:13:58.000Z</time>
      </trkpt>
      <trkpt lat="41.740239" lon="2.122371">
        <ele>747.2</ele>
        <time>2019-12-01T08:14:10.000Z</time>
      </trkpt>
      <trkpt lat="41.740088" lon="2.122426">
        <ele>747.7</ele>
        <time>2019-12-01T08:14:23.000Z</time>
      </trkpt>
      <trkpt lat="41.739940" lon="2.122526">
        <ele>749.4</ele>
        <time>2019-12-01T08:14:36.000Z</time>
      </trkpt>
      <trkpt lat="41.739773" lon="2.122590">
        <ele>752.3</ele>
        <time>2019-12-01T08:14:45.000Z</time>
      </trkpt>
      <trkpt lat="41.739676" lon="2.122597">
        <ele>753.7</ele>
        <time>2019-12-01T08:15:1.000Z</time>
      </trkpt>
      <trkpt lat="41.739590" lon="2.122583">
        <ele>755.0</ele>
        <time>2019-12-01T08:15:5.000Z</time>
      </trkpt>
      <trkpt lat="41.739474" lon="2.122551">
        <ele>756.6</ele>
        <time>2019-12-01T08:15:18.000Z</time>
      </trkpt>
      <trkpt lat="41.739392" lon="2.122493">
        <ele>758.0</ele>
        <time>2019-12-01T08:15:22.000Z</time>
      </trkpt>
      <trkpt lat="41.739277" lon="2.122398">
        <ele>760.2</ele>
        <time>2019-12-01T08:15:39.000Z</time>
      </trkpt>
      <trkpt lat="41.739158" lon="2.122294">
        <ele>761.5</ele>
        <time>2019-12-01T08:15:53.000Z</time>
      </trkpt>
      <trkpt lat="41.739090" lon="2.122199">
        <ele>762.4</ele>
        <time>2019-12-01T08:16:1.000Z</time>
      </trkpt>
      <trkpt lat="41.739005" lon="2.122048">
        <ele>764.1</ele>
        <time>2019-12-01T08:16:15.000Z</time>
      </trkpt>
      <trkpt lat="41.738977" lon="2.121991">
        <ele>764.1</ele>
        <time>2019-12-01T08:16:17.000Z</time>
      </trkpt>
      <trkpt lat="41.738917" lon="2.121865">
        <ele>763.9</ele>
        <time>2019-12-01T08:16:23.000Z</time>
      </trkpt>
      <trkpt lat="41.738890" lon="2.121732">
        <ele>764.6</ele>
        <time>2019-12-01T08:16:25.000Z</time>
      </trkpt>
      <trkpt lat="41.738881" lon="2.121606">
        <ele>765.2</ele>
        <time>2019-12-01T08:16:41.000Z</time>
      </trkpt>
      <trkpt lat="41.738881" lon="2.121508">
        <ele>765.3</ele>
        <time>2019-12-01T08:16:54.000Z</time>
      </trkpt>
      <trkpt lat="41.738919" lon="2.121274">
        <ele>764.3</ele>
        <time>2019-12-01T08:17:9.000Z</time>
      </trkpt>
      <trkpt lat="41.738996" lon="2.121121">
        <ele>764.6</ele>
        <time>2019-12-01T08:17:23.000Z</time>
      </trkpt>
      <trkpt lat="41.739045" lon="2.121028">
        <ele>764.1</ele>
        <time>2019-12-01T08:17:30.000Z</time>
      </trkpt>
      <trkpt lat="41.739117" lon="2.120896">
        <ele>764.3</ele>
        <time>2019-12-01T08:17:41.000Z</time>
      </trkpt>
      <trkpt lat="41.739167" lon="2.120794">
        <ele>764.4</ele>
        <time>2019-12-01T08:17:47.000Z</time>
      </trkpt>
      <trkpt lat="41.739237" lon="2.120672">
        <ele>765.4</ele>
        <time>2019-12-01T08:18:1.000Z</time>
      </trkpt>
      <trkpt lat="41.739266" lon="2.120542">
        <ele>765.2</ele>
        <time>2019-12-01T08:18:2.000Z</time>
      </trkpt>
      <trkpt lat="41.739284" lon="2.120343">
        <ele>765.3</ele>
        <time>2019-12-01T08:18:13.000Z</time>
      </trkpt>
      <trkpt lat="41.739316" lon="2.120210">
        <ele>766.3</ele>
        <time>2019-12-01T08:18:23.000Z</time>
      </trkpt>
      <trkpt lat="41.739322" lon="2.120130">
        <ele>766.5</ele>
        <time>2019-12-01T08:18:30.000Z</time>
      </trkpt>
      <trkpt lat="41.739313" lon="2.120070">
        <ele>766.4</ele>
        <time>2019-12-01T08:18:45.000Z</time>
      </trkpt>
      <trkpt lat="41.739314" lon="2.119922">
        <ele>767.0</ele>
        <time>2019-12-01T08:18:58.000Z</time>
      </trkpt>
      <trkpt lat="41.739325" lon="2.119829">
        <ele>767.1</ele>
        <time>2019-12-01T08:19:3.000Z</time>
      </trkpt>
      <trkpt lat="41.739334" lon="2.119767">
        <ele>767.1</ele>
        <time>2019-12-01T08:19:11.000Z</time>
      </trkpt>
      <trkpt lat="41.739349" lon="2.119694">
        <ele>767.8</ele>
        <time>2019-12-01T08:19:23.000Z</time>
      </trkpt>
      <trkpt lat="41.739404" lon="2.119500">
        <ele>771.9</ele>
        <time>2019-12-01T08:19:35.000Z</time>
      </trkpt>
      <trkpt lat="41.739402" lon="2.119380">
        <ele>772.8</ele>
        <time>2019-12-01T08:19:48.000Z</time>
      </trkpt>
      <trkpt lat="41.739395" lon="2.119044">
        <ele>776.5</ele>
        <time>2019-12-01T08:20:2.000Z</time>
      </trkpt>
      <trkpt lat="41.739422" lon="2.118913">
        <ele>776.6</ele>
        <time>2019-12-01T08:20:15.000Z</time>
      </trkpt>
      <trkpt lat="41.739470" lon="2.118747">
        <ele>776.1</ele>
        <time>2019-12-01T08:20:29.000Z</time>
      </trkpt>
      <trkpt lat="41.739510" lon="2.118601">
        <ele>777.9</ele>
        <time>2019-12-01T08:20:37.000Z</time>
      </trkpt>
      <trkpt lat="41.739530" lon="2.118356">
        <ele>779.7</ele>
        <time>2019-12-01T08:20:54.000Z</time>
      </trkpt>
      <trkpt lat="41.739542" lon="2.118183">
        <ele>780.6</ele>
        <time>2019-12-01T08:21:10.000Z</time>
      </trkpt>
      <trkpt lat="41.739567" lon="2.118083">
        <ele>781.3</ele>
        <time>2019-12-01T08:21:20.000Z</time>
      </trkpt>
      <trkpt lat="41.739582" lon="2.117924">
        <ele>781.7</ele>
        <time>2019-12-01T08:21:35.000Z</time>
      </trkpt>
      <trkpt lat="41.739567" lon="2.117643">
        <ele>785.6</ele>
        <time>2019-12-01T08:21:48.000Z</time>
      </trkpt>
      <trkpt lat="41.739528" lon="2.117542">
        <ele>786.5</ele>
        <time>2019-12-01T08:22:4.000Z</time>
      </trkpt>
      <trkpt lat="41.739394" lon="2.117429">
        <ele>786.6</ele>
        <time>2019-12-01T08:22:18.000Z</time>
      </trkpt>
      <trkpt lat="41.739280" lon="2.117371">
        <ele>787.3</ele>
        <time>2019-12-01T08:22:34.000Z</time>
      </trkpt>
      <trkpt lat="41.739174" lon="2.117336">
        <ele>787.8</ele>
        <time>2019-12-01T08:22:38.000Z</time>
      </trkpt>
      <trkpt lat="41.739027" lon="2.117318">
        <ele>787.6</ele>
        <time>2019-12-01T08:22:42.000Z</time>
      </trkpt>
      <trkpt lat="41.738910" lon="2.117356">
        <ele>786.8</ele>
        <time>2019-12-01T08:22:59.000Z</time>
      </trkpt>
      <trkpt lat="41.738663" lon="2.117263">
        <ele>788.5</ele>
        <time>2019-12-01T08:23:13.000Z</time>
      </trkpt>
      <trkpt lat="41.738489" lon="2.117234">
        <ele>788.7</ele>
        <time>2019-12-01T08:23:26.000Z</time>
      </trkpt>
      <trkpt lat="41.738343" lon="2.117225">
        <ele>789.1</ele>
        <time>2019-12-01T08:23:37.000Z</time>
      </trkpt>
      <trkpt lat="41.738291" lon="2.117232">
        <ele>789.4</ele>
        <time>2019-12-01T08:23:39.000Z</time>
      </trkpt>
      <trkpt lat="41.738248" lon="2.117263">
        <ele>789.2</ele>
        <time>2019-12-01T08:23:44.000Z</time>
      </trkpt>
      <trkpt lat="41.738171" lon="2.117287">
        <ele>790.5</ele>
        <time>2019-12-01T08:23:51.000Z</time>
      </trkpt>
      <trkpt lat="41.738117" lon="2.117334">
        <ele>790.9</ele>
        <time>2019-12-01T08:23:56.000Z</time>
      </trkpt>
      <trkpt lat="41.738015" lon="2.117422">
        <ele>791.6</ele>
        <time>2019-12-01T08:24:10.000Z</time>
      </trkpt>
      <trkpt lat="41.737925" lon="2.117451">
        <ele>792.2</ele>
        <time>2019-12-01T08:24:17.000Z</time>
      </trkpt>
      <trkpt lat="41.737876" lon="2.117418">
        <ele>792.8</ele>
        <time>2019-12-01T08:24:29.000Z</time>
      </trkpt>
      <trkpt lat="41.737825" lon="2.117358">
        <ele>793.5</ele>
        <time>2019-12-01T08:24:40.000Z</time>
      </trkpt>
      <trkpt lat="41.737776" lon="2.117247">
        <ele>794.4</ele>
        <time>2019-12-01T08:24:42.000Z</time>
      </trkpt>
      <trkpt lat="41.737733" lon="2.117194">
        <ele>795.1</ele>
        <time>2019-12-01T08:24:56.000Z</time>
      </trkpt>
      <trkpt lat="41.737478" lon="2.117073">
        <ele>798.0</ele>
        <time>2019-12-01T08:25:8.000Z</time>
      </trkpt>
      <trkpt lat="41.737354" lon="2.117011">
        <ele>799.5</ele>
        <time>2019-12-01T08:25:16.000Z</time>
      </trkpt>
      <trkpt lat="41.737230" lon="2.116973">
        <ele>800.1</ele>
        <time>2019-12-01T08:25:29.000Z</time>
      </trkpt>
      <trkpt lat="41.737106" lon="2.116935">
        <ele>801.0</ele>
        <time>2019-12-01T08:25:40.000Z</time>
      </trkpt>
      <trkpt lat="41.736909" lon="2.116940">
        <ele>800.7</ele>
        <time>2019-12-01T08:25:57.000Z</time>
      </trkpt>
      <trkpt lat="41.736796" lon="2.116951">
        <ele>800.0</ele>
        <time>2019-12-01T08:26:10.000Z</time>
      </trkpt>
      <trkpt lat="41.736740" lon="2.116883">
        <ele>801.0</ele>
        <time>2019-12-01T08:26:28.000Z</time>
      </trkpt>
      <trkpt lat="41.736692" lon="2.116785">
        <ele>801.2</ele>
        <time>2019-12-01T08:26:39.000Z</time>
      </trkpt>
      <trkpt lat="41.736643" lon="2.116544">
        <ele>801.8</ele>
        <time>2019-12-01T08:26:54.000Z</time>
      </trkpt>
      <trkpt lat="41.736526" lon="2.116407">
        <ele>803.5</ele>
        <time>2019-12-01T08:27:0.000Z</time>
      </trkpt>
      <trkpt lat="41.736476" lon="2.116332">
        <ele>804.0</ele>
        <time>2019-12-01T08:27:14.000Z</time>
      </trkpt>
      <trkpt lat="41.736318" lon="2.116077">
        <ele>805.7</ele>
        <time>2019-12-01T08:27:26.000Z</time>
      </trkpt>
      <trkpt lat="41.736178" lon="2.115925">
        <ele>807.2</ele>
        <time>2019-12-01T08:27:31.000Z</time>
      </trkpt>
      <trkpt lat="41.736122" lon="2.115887">
        <ele>807.6</ele>
        <time>2019-12-01T08:27:46.000Z</time>
      </trkpt>
      <trkpt lat="41.735923" lon="2.115916">
        <ele>809.7</ele>
        <time>2019-12-01T08:27:54.000Z</time>
      </trkpt>
      <trkpt lat="41.735693" lon="2.115881">
        <ele>811.8</ele>
        <time>2019-12-01T08:28:10.000Z</time>
      </trkpt>
      <trkpt lat="41.735558" lon="2.115963">
        <ele>813.3</ele>
        <time>2019-12-01T08:28:25.000Z</time>
      </trkpt>
      <trkpt lat="41.735364" lon="2.116095">
        <ele>814.9</ele>
        <time>2019-12-01T08:28:36.000Z</time>
      </trkpt>
      <trkpt lat="41.735275" lon="2.116062">
        <ele>816.1</ele>
        <time>2019-12-01T08:28:46.000Z</time>
      </trkpt>
      <trkpt lat="41.735170" lon="2.116000">
        <ele>816.6</ele>
        <time>2019-12-01T08:29:0.000Z</time>
      </trkpt>
      <trkpt lat="41.735077" lon="2.115923">
        <ele>816.6</ele>
        <time>2019-12-01T08:29:10.000Z</time>
      </trkpt>
      <trkpt lat="41.734967" lon="2.115838">
        <ele>816.2</ele>
        <time>2019-12-01T08:29:24.000Z</time>
      </trkpt>
      <trkpt lat="41.734866" lon="2.115790">
        <ele>816.7</ele>
        <time>2019-12-01T08:29:36.000Z</time>
      </trkpt>
      <trkpt lat="41.734754" lon="2.115801">
        <ele>817.0</ele>
        <time>2019-12-01T08:29:41.000Z</time>
      </trkpt>
      <trkpt lat="41.734566" lon="2.115885">
        <ele>817.7</ele>
        <time>2019-12-01T08:29:56.000Z</time>
      </trkpt>
      <trkpt lat="41.734377" lon="2.115896">
        <ele>818.3</ele>
        <time>2019-12-01T08:30:9.000Z</time>
      </trkpt>
      <trkpt lat="41.734219" lon="2.115894">
        <ele>819.3</ele>
        <time>2019-12-01T08:30:24.000Z</time>
      </trkpt>
      <trkpt lat="41.734079" lon="2.115901">
        <ele>820.4</ele>
        <time>2019-12-01T08:30:37.000Z</time>
      </trkpt>
      <trkpt lat="41.733963" lon="2.115933">
        <ele>821.1</ele>
        <time>2019-12-01T08:30:46.000Z</time>
      </trkpt>
      <trkpt lat="41.733871" lon="2.115979">
        <ele>822.0</ele>
        <time>2019-12-01T08:31:0.000Z</time>
      </trkpt>
      <trkpt lat="41.733801" lon="2.116026">
        <ele>822.8</ele>
        <time>2019-12-01T08:31:1.000Z</time>
      </trkpt>
      <trkpt lat="41.733702" lon="2.116088">
        <ele>823.7</ele>
        <time>2019-12-01T08:31:10.000Z</time>
      </trkpt>
      <trkpt lat="41.733542" lon="2.116148">
        <ele>825.2</ele>
        <time>2019-12-01T08:31:26.000Z</time>
      </trkpt>
      <trkpt lat="41.733529" lon="2.116150">
        <ele>825.3</ele>
        <time>2019-12-01T08:31:27.000Z</time>
      </trkpt>
      <trkpt lat="41.733327" lon="2.116236">
        <ele>826.0</ele>
        <time>2019-12-01T08:31:42.000Z</time>
      </trkpt>
      <trkpt lat="41.733199" lon="2.116409">
        <ele>827.9</ele>
        <time>2019-12-01T08:31:59.000Z</time>
      </trkpt>
      <trkpt lat="41.733158" lon="2.116458">
        <ele>828.2</ele>
        <time>2019-12-01T08:32:5.000Z</time>
      </trkpt>
      <trkpt lat="41.733075" lon="2.116491">
        <ele>828.7</ele>
        <time>2019-12-01T08:32:10.000Z</time>
      </trkpt>
      <trkpt lat="41.733025" lon="2.116544">
        <ele>829.9</ele>
        <time>2019-12-01T08:32:25.000Z</time>
      </trkpt>
      <trkpt lat="41.732890" lon="2.116697">
        <ele>831.4</ele>
        <time>2019-12-01T08:32:37.000Z</time>
      </trkpt>
      <trkpt lat="41.732806" lon="2.116783">
        <ele>831.6</ele>
        <time>2019-12-01T08:32:51.000Z</time>
      </trkpt>
      <trkpt lat="41.732732" lon="2.116843">
        <ele>831.5</ele>
        <time>2019-12-01T08:32:52.000Z</time>
      </trkpt>
      <trkpt lat="41.732669" lon="2.116856">
        <ele>832.4</ele>
        <time>2019-12-01T08:33:8.000Z</time>
      </trkpt>
      <trkpt lat="41.732508" lon="2.116832">
        <ele>835.2</ele>
        <time>2019-12-01T08:33:17.000Z</time>
      </trkpt>
      <trkpt lat="41.732418" lon="2.116829">
        <ele>836.3</ele>
        <time>2019-12-01T08:33:34.000Z</time>
      </trkpt>
      <trkpt lat="41.732278" lon="2.116896">
        <ele>837.2</ele>
        <time>2019-12-01T08:33:40.000Z</time>
      </trkpt>
      <trkpt lat="41.732152" lon="2.116887">
        <ele>838.4</ele>
        <time>2019-12-01T08:33:55.000Z</time>
      </trkpt>
      <trkpt lat="41.731979" lon="2.116874">
        <ele>838.4</ele>
        <time>2019-12-01T08:33:58.000Z</time>
      </trkpt>
      <trkpt lat="41.731881" lon="2.116891">
        <ele>839.1</ele>
        <time>2019-12-01T08:34:4.000Z</time>
      </trkpt>
      <trkpt lat="41.731753" lon="2.116898">
        <ele>839.7</ele>
        <time>2019-12-01T08:34:18.000Z</time>
      </trkpt>
      <trkpt lat="41.731581" lon="2.116894">
        <ele>840.3</ele>
        <time>2019-12-01T08:34:31.000Z</time>
      </trkpt>
      <trkpt lat="41.731446" lon="2.116879">
        <ele>840.9</ele>
        <time>2019-12-01T08:34:46.000Z</time>
      </trkpt>
      <trkpt lat="41.731304" lon="2.116852">
        <ele>840.7</ele>
        <time>2019-12-01T08:34:59.000Z</time>
      </trkpt>
      <trkpt lat="41.731243" lon="2.116854">
        <ele>840.4</ele>
        <time>2019-12-01T08:35:2.000Z</time>
      </trkpt>
      <trkpt lat="41.731176" lon="2.116872">
        <ele>839.9</ele>
        <time>2019-12-01T08:35:8.000Z</time>
      </trkpt>
      <trkpt lat="41.731054" lon="2.116883">
        <ele>838.1</ele>
        <time>2019-12-01T08:35:20.000Z</time>
      </trkpt>
      <trkpt lat="41.730934" lon="2.116896">
        <ele>837.5</ele>
        <time>2019-12-01T08:35:30.000Z</time>
      </trkpt>
      <trkpt lat="41.730859" lon="2.116903">
        <ele>837.5</ele>
        <time>2019-12-01T08:35:33.000Z</time>
      </trkpt>
      <trkpt lat="41.730775" lon="2.116907">
        <ele>837.3</ele>
        <time>2019-12-01T08:35:40.000Z</time>
      </trkpt>
      <trkpt lat="41.730653" lon="2.116898">
        <ele>836.4</ele>
        <time>2019-12-01T08:35:53.000Z</time>
      </trkpt>
      <trkpt lat="41.730538" lon="2.116914">
        <ele>836.1</ele>
        <time>2019-12-01T08:35:59.000Z</time>
      </trkpt>
      <trkpt lat="41.730460" lon="2.116916">
        <ele>835.7</ele>
        <time>2019-12-01T08:36:2.000Z</time>
      </trkpt>
      <trkpt lat="41.730363" lon="2.116934">
        <ele>835.4</ele>
        <time>2019-12-01T08:36:15.000Z</time>
      </trkpt>
      <trkpt lat="41.730295" lon="2.116947">
        <ele>835.1</ele>
        <time>2019-12-01T08:36:35.000Z</time>
      </trkpt>
      <trkpt lat="41.730196" lon="2.116963">
        <ele>835.0</ele>
        <time>2019-12-01T08:36:49.000Z</time>
      </trkpt>
      <trkpt lat="41.730139" lon="2.116974">
        <ele>835.0</ele>
        <time>2019-12-01T08:37:2.000Z</time>
      </trkpt>
      <trkpt lat="41.730017" lon="2.116909">
        <ele>834.1</ele>
        <time>2019-12-01T08:37:7.000Z</time>
      </trkpt>
      <trkpt lat="41.729905" lon="2.116852">
        <ele>834.9</ele>
        <time>2019-12-01T08:37:20.000Z</time>
      </trkpt>
      <trkpt lat="41.729855" lon="2.116783">
        <ele>835.9</ele>
        <time>2019-12-01T08:37:26.000Z</time>
      </trkpt>
      <trkpt lat="41.729780" lon="2.116704">
        <ele>835.6</ele>
        <time>2019-12-01T08:37:40.000Z</time>
      </trkpt>
      <trkpt lat="41.729700" lon="2.116633">
        <ele>836.2</ele>
        <time>2019-12-01T08:37:47.000Z</time>
      </trkpt>
      <trkpt lat="41.729567" lon="2.116571">
        <ele>837.0</ele>
        <time>2019-12-01T08:38:0.000Z</time>
      </trkpt>
      <trkpt lat="41.729440" lon="2.116505">
        <ele>838.6</ele>
        <time>2019-12-01T08:38:14.000Z</time>
      </trkpt>
      <trkpt lat="41.729350" lon="2.116478">
        <ele>840.2</ele>
        <time>2019-12-01T08:38:18.000Z</time>
      </trkpt>
      <trkpt lat="41.729224" lon="2.116452">
        <ele>842.3</ele>
        <time>2019-12-01T08:38:32.000Z</time>
      </trkpt>
      <trkpt lat="41.729079" lon="2.116443">
        <ele>844.5</ele>
        <time>2019-12-01T08:38:46.000Z</time>
      </trkpt>
      <trkpt lat="41.728948" lon="2.116450">
        <ele>845.7</ele>
        <time>2019-12-01T08:39:0.000Z</time>
      </trkpt>
      <trkpt lat="41.728775" lon="2.116529">
        <ele>845.4</ele>
        <time>2019-12-01T08:39:11.000Z</time>
      </trkpt>
      <trkpt lat="41.728689" lon="2.116569">
        <ele>845.7</ele>
        <time>2019-12-01T08:39:22.000Z</time>
      </trkpt>
      <trkpt lat="41.728580" lon="2.116546">
        <ele>845.7</ele>
        <time>2019-12-01T08:39:28.000Z</time>
      </trkpt>
      <trkpt lat="41.728393" lon="2.116516">
        <ele>846.6</ele>
        <time>2019-12-01T08:39:44.000Z</time>
      </trkpt>
      <trkpt lat="41.728334" lon="2.116461">
        <ele>847.0</ele>
        <time>2019-12-01T08:39:50.000Z</time>
      </trkpt>
      <trkpt lat="41.728239" lon="2.116395">
        <ele>846.6</ele>
        <time>2019-12-01T08:40:4.000Z</time>
      </trkpt>
      <trkpt lat="41.728172" lon="2.116339">
        <ele>847.0</ele>
        <time>2019-12-01T08:40:7.000Z</time>
      </trkpt>
      <trkpt lat="41.728054" lon="2.116248">
        <ele>848.2</ele>
        <time>2019-12-01T08:40:22.000Z</time>
      </trkpt>
      <trkpt lat="41.727929" lon="2.116173">
        <ele>849.4</ele>
        <time>2019-12-01T08:40:35.000Z</time>
      </trkpt>
      <trkpt lat="41.727877" lon="2.116146">
        <ele>850.1</ele>
        <time>2019-12-01T08:40:42.000Z</time>
      </trkpt>
      <trkpt lat="41.727793" lon="2.116127">
        <ele>850.8</ele>
        <time>2019-12-01T08:40:51.000Z</time>
      </trkpt>
      <trkpt lat="41.727716" lon="2.116007">
        <ele>852.3</ele>
        <time>2019-12-01T08:41:4.000Z</time>
      </trkpt>
      <trkpt lat="41.727623" lon="2.115861">
        <ele>854.5</ele>
        <time>2019-12-01T08:41:18.000Z</time>
      </trkpt>
      <trkpt lat="41.727556" lon="2.115817">
        <ele>855.8</ele>
        <time>2019-12-01T08:41:33.000Z</time>
      </trkpt>
      <trkpt lat="41.727470" lon="2.115680">
        <ele>857.4</ele>
        <time>2019-12-01T08:41:49.000Z</time>
      </trkpt>
      <trkpt lat="41.727325" lon="2.115603">
        <ele>859.8</ele>
        <time>2019-12-01T08:42:3.000Z</time>
      </trkpt>
      <trkpt lat="41.727192" lon="2.115565">
        <ele>861.1</ele>
        <time>2019-12-01T08:42:8.000Z</time>
      </trkpt>
      <trkpt lat="41.727079" lon="2.115503">
        <ele>861.4</ele>
        <time>2019-12-01T08:42:15.000Z</time>
      </trkpt>
      <trkpt lat="41.726946" lon="2.115417">
        <ele>861.7</ele>
        <time>2019-12-01T08:42:29.000Z</time>
      </trkpt>
      <trkpt lat="41.726889" lon="2.115390">
        <ele>861.4</ele>
        <time>2019-12-01T08:42:33.000Z</time>
      </trkpt>
      <trkpt lat="41.726800" lon="2.115353">
        <ele>861.6</ele>
        <time>2019-12-01T08:42:43.000Z</time>
      </trkpt>
      <trkpt lat="41.726667" lon="2.115242">
        <ele>864.3</ele>
        <time>2019-12-01T08:42:57.000Z</time>
      </trkpt>
      <trkpt lat="41.726519" lon="2.115121">
        <ele>867.9</ele>
        <time>2019-12-01T08:43:11.000Z</time>
      </trkpt>
      <trkpt lat="41.726405" lon="2.115023">
        <ele>870.0</ele>
        <time>2019-12-01T08:43:25.000Z</time>
      </trkpt>
      <trkpt lat="41.726391" lon="2.115004">
        <ele>870.4</ele>
        <time>2019-12-01T08:43:28.000Z</time>
      </trkpt>
      <trkpt lat="41.726372" lon="2.114994">
        <ele>870.5</ele>
        <time>2019-12-01T08:43:30.000Z</time>
      </trkpt>
      <trkpt lat="41.726214" lon="2.114871">
        <ele>872.8</ele>
        <time>2019-12-01T08:43:47.000Z</time>
      </trkpt>
      <trkpt lat="41.726092" lon="2.114833">
        <ele>875.2</ele>
        <time>2019-12-01T08:44:2.000Z</time>
      </trkpt>
      <trkpt lat="41.725977" lon="2.114806">
        <ele>876.8</ele>
        <time>2019-12-01T08:44:16.000Z</time>
      </trkpt>
      <trkpt lat="41.725848" lon="2.114771">
        <ele>879.0</ele>
        <time>2019-12-01T08:44:28.000Z</time>
      </trkpt>
      <trkpt lat="41.725778" lon="2.114753">
        <ele>880.0</ele>
        <time>2019-12-01T08:44:32.000Z</time>
      </trkpt>
      <trkpt lat="41.725721" lon="2.114746">
        <ele>880.7</ele>
        <time>2019-12-01T08:44:48.000Z</time>
      </trkpt>
      <trkpt lat="41.725647" lon="2.114702">
        <ele>881.8</ele>
        <time>2019-12-01T08:44:55.000Z</time>
      </trkpt>
      <trkpt lat="41.725584" lon="2.114605">
        <ele>883.2</ele>
        <time>2019-12-01T08:45:11.000Z</time>
      </trkpt>
      <trkpt lat="41.725505" lon="2.114419">
        <ele>885.1</ele>
        <time>2019-12-01T08:45:13.000Z</time>
      </trkpt>
      <trkpt lat="41.725451" lon="2.114297">
        <ele>886.5</ele>
        <time>2019-12-01T08:45:24.000Z</time>
      </trkpt>
      <trkpt lat="41.725372" lon="2.114180">
        <ele>887.7</ele>
        <time>2019-12-01T08:45:37.000Z</time>
      </trkpt>
      <trkpt lat="41.725295" lon="2.114076">
        <ele>888.7</ele>
        <time>2019-12-01T08:45:48.000Z</time>
      </trkpt>
      <trkpt lat="41.725218" lon="2.113952">
        <ele>889.7</ele>
        <time>2019-12-01T08:46:2.000Z</time>
      </trkpt>
      <trkpt lat="41.725094" lon="2.113866">
        <ele>888.9</ele>
        <time>2019-12-01T08:46:18.000Z</time>
      </trkpt>
      <trkpt lat="41.724955" lon="2.113755">
        <ele>890.0</ele>
        <time>2019-12-01T08:46:26.000Z</time>
      </trkpt>
      <trkpt lat="41.724898" lon="2.113711">
        <ele>890.6</ele>
        <time>2019-12-01T08:46:40.000Z</time>
      </trkpt>
      <trkpt lat="41.724779" lon="2.113576">
        <ele>891.6</ele>
        <time>2019-12-01T08:46:53.000Z</time>
      </trkpt>
      <trkpt lat="41.724689" lon="2.113454">
        <ele>892.2</ele>
        <time>2019-12-01T08:47:11.000Z</time>
      </trkpt>
      <trkpt lat="41.724637" lon="2.113389">
        <ele>892.8</ele>
        <time>2019-12-01T08:47:25.000Z</time>
      </trkpt>
      <trkpt lat="41.724601" lon="2.113385">
        <ele>893.4</ele>
        <time>2019-12-01T08:47:42.000Z</time>
      </trkpt>
      <trkpt lat="41.724540" lon="2.113350">
        <ele>894.1</ele>
        <time>2019-12-01T08:47:56.000Z</time>
      </trkpt>
      <trkpt lat="41.724481" lon="2.113341">
        <ele>894.3</ele>
        <time>2019-12-01T08:47:57.000Z</time>
      </trkpt>
      <trkpt lat="41.724414" lon="2.113319">
        <ele>894.2</ele>
        <time>2019-12-01T08:48:9.000Z</time>
      </trkpt>
      <trkpt lat="41.724338" lon="2.113288">
        <ele>893.5</ele>
        <time>2019-12-01T08:48:19.000Z</time>
      </trkpt>
      <trkpt lat="41.724300" lon="2.113262">
        <ele>893.1</ele>
        <time>2019-12-01T08:48:29.000Z</time>
      </trkpt>
      <trkpt lat="41.724279" lon="2.113177">
        <ele>892.9</ele>
        <time>2019-12-01T08:48:43.000Z</time>
      </trkpt>
      <trkpt lat="41.724247" lon="2.113155">
        <ele>892.4</ele>
        <time>2019-12-01T08:48:56.000Z</time>
      </trkpt>
      <trkpt lat="41.724218" lon="2.113162">
        <ele>892.0</ele>
        <time>2019-12-01T08:49:23.000Z</time>
      </trkpt>
      <trkpt lat="41.724184" lon="2.113175">
        <ele>891.8</ele>
        <time>2019-12-01T08:49:43.000Z</time>
      </trkpt>
      <trkpt lat="41.724133" lon="2.113178">
        <ele>891.3</ele>
        <time>2019-12-01T08:49:46.000Z</time>
      </trkpt>
      <trkpt lat="41.724099" lon="2.113171">
        <ele>890.9</ele>
        <time>2019-12-01T08:49:58.000Z</time>
      </trkpt>
      <trkpt lat="41.724067" lon="2.113169">
        <ele>890.6</ele>
        <time>2019-12-01T08:50:3.000Z</time>
      </trkpt>
      <trkpt lat="41.723977" lon="2.113149">
        <ele>888.7</ele>
        <time>2019-12-01T08:50:15.000Z</time>
      </trkpt>
      <trkpt lat="41.723952" lon="2.113158">
        <ele>888.3</ele>
        <time>2019-12-01T08:50:27.000Z</time>
      </trkpt>
      <trkpt lat="41.723896" lon="2.113098">
        <ele>885.4</ele>
        <time>2019-12-01T08:50:29.000Z</time>
      </trkpt>
      <trkpt lat="41.723816" lon="2.112977">
        <ele>883.9</ele>
        <time>2019-12-01T08:50:42.000Z</time>
      </trkpt>
      <trkpt lat="41.723758" lon="2.112871">
        <ele>882.8</ele>
        <time>2019-12-01T08:50:54.000Z</time>
      </trkpt>
      <trkpt lat="41.723758" lon="2.112806">
        <ele>882.5</ele>
        <time>2019-12-01T08:51:8.000Z</time>
      </trkpt>
      <trkpt lat="41.723661" lon="2.112666">
        <ele>881.1</ele>
        <time>2019-12-01T08:51:20.000Z</time>
      </trkpt>
      <trkpt lat="41.723589" lon="2.112576">
        <ele>880.4</ele>
        <time>2019-12-01T08:51:36.000Z</time>
      </trkpt>
      <trkpt lat="41.723467" lon="2.112452">
        <ele>880.0</ele>
        <time>2019-12-01T08:51:42.000Z</time>
      </trkpt>
      <trkpt lat="41.723407" lon="2.112333">
        <ele>878.4</ele>
        <time>2019-12-01T08:51:48.000Z</time>
      </trkpt>
      <trkpt lat="41.723311" lon="2.112335">
        <ele>878.4</ele>
        <time>2019-12-01T08:51:59.000Z</time>
      </trkpt>
      <trkpt lat="41.723269" lon="2.112368">
        <ele>879.3</ele>
        <time>2019-12-01T08:52:3.000Z</time>
      </trkpt>
      <trkpt lat="41.723203" lon="2.112390">
        <ele>880.3</ele>
        <time>2019-12-01T08:52:5.000Z</time>
      </trkpt>
      <trkpt lat="41.723113" lon="2.112421">
        <ele>881.0</ele>
        <time>2019-12-01T08:52:14.000Z</time>
      </trkpt>
      <trkpt lat="41.722964" lon="2.112467">
        <ele>881.9</ele>
        <time>2019-12-01T08:52:28.000Z</time>
      </trkpt>
      <trkpt lat="41.722885" lon="2.112494">
        <ele>881.6</ele>
        <time>2019-12-01T08:52:35.000Z</time>
      </trkpt>
      <trkpt lat="41.722806" lon="2.112534">
        <ele>880.8</ele>
        <time>2019-12-01T08:52:52.000Z</time>
      </trkpt>
      <trkpt lat="41.722740" lon="2.112569">
        <ele>880.5</ele>
        <time>2019-12-01T08:53:7.000Z</time>
      </trkpt>
      <trkpt lat="41.722625" lon="2.112514">
        <ele>880.1</ele>
        <time>2019-12-01T08:53:25.000Z</time>
      </trkpt>
      <trkpt lat="41.722560" lon="2.112534">
        <ele>880.7</ele>
        <time>2019-12-01T08:53:41.000Z</time>
      </trkpt>
      <trkpt lat="41.722495" lon="2.112547">
        <ele>881.0</ele>
        <time>2019-12-01T08:53:47.000Z</time>
      </trkpt>
      <trkpt lat="41.722407" lon="2.112574">
        <ele>880.9</ele>
        <time>2019-12-01T08:53:57.000Z</time>
      </trkpt>
      <trkpt lat="41.722336" lon="2.112609">
        <ele>880.5</ele>
        <time>2019-12-01T08:54:3.000Z</time>
      </trkpt>
      <trkpt lat="41.722291" lon="2.112640">
        <ele>880.2</ele>
        <time>2019-12-01T08:54:6.000Z</time>
      </trkpt>
      <trkpt lat="41.722229" lon="2.112680">
        <ele>879.5</ele>
        <time>2019-12-01T08:54:11.000Z</time>
      </trkpt>
      <trkpt lat="41.722177" lon="2.112693">
        <ele>879.1</ele>
        <time>2019-12-01T08:54:27.000Z</time>
      </trkpt>
      <trkpt lat="41.722138" lon="2.112693">
        <ele>879.0</ele>
        <time>2019-12-01T08:54:41.000Z</time>
      </trkpt>
      <trkpt lat="41.722030" lon="2.112467">
        <ele>879.2</ele>
        <time>2019-12-01T08:54:55.000Z</time>
      </trkpt>
      <trkpt lat="41.721987" lon="2.112390">
        <ele>879.0</ele>
        <time>2019-12-01T08:55:0.000Z</time>
      </trkpt>
      <trkpt lat="41.721931" lon="2.112297">
        <ele>878.8</ele>
        <time>2019-12-01T08:55:6.000Z</time>
      </trkpt>
      <trkpt lat="41.721822" lon="2.112149">
        <ele>877.5</ele>
        <time>2019-12-01T08:55:19.000Z</time>
      </trkpt>
      <trkpt lat="41.721753" lon="2.112107">
        <ele>877.1</ele>
        <time>2019-12-01T08:55:25.000Z</time>
      </trkpt>
      <trkpt lat="41.721711" lon="2.112093">
        <ele>876.8</ele>
        <time>2019-12-01T08:55:40.000Z</time>
      </trkpt>
      <trkpt lat="41.721657" lon="2.112096">
        <ele>876.9</ele>
        <time>2019-12-01T08:55:53.000Z</time>
      </trkpt>
      <trkpt lat="41.721637" lon="2.112120">
        <ele>876.5</ele>
        <time>2019-12-01T08:56:8.000Z</time>
      </trkpt>
      <trkpt lat="41.721601" lon="2.112279">
        <ele>874.2</ele>
        <time>2019-12-01T08:56:22.000Z</time>
      </trkpt>
      <trkpt lat="41.721418" lon="2.112684">
        <ele>870.5</ele>
        <time>2019-12-01T08:56:36.000Z</time>
      </trkpt>
      <trkpt lat="41.721382" lon="2.112751">
        <ele>870.2</ele>
        <time>2019-12-01T08:56:51.000Z</time>
      </trkpt>
      <trkpt lat="41.721375" lon="2.112861">
        <ele>869.6</ele>
        <time>2019-12-01T08:56:53.000Z</time>
      </trkpt>
      <trkpt lat="41.721375" lon="2.112970">
        <ele>869.0</ele>
        <time>2019-12-01T08:56:56.000Z</time>
      </trkpt>
      <trkpt lat="41.721368" lon="2.113102">
        <ele>868.1</ele>
        <time>2019-12-01T08:57:10.000Z</time>
      </trkpt>
      <trkpt lat="41.721312" lon="2.113401">
        <ele>866.6</ele>
        <time>2019-12-01T08:57:19.000Z</time>
      </trkpt>
      <trkpt lat="41.721301" lon="2.113492">
        <ele>865.6</ele>
        <time>2019-12-01T08:57:24.000Z</time>
      </trkpt>
      <trkpt lat="41.721315" lon="2.113563">
        <ele>865.2</ele>
        <time>2019-12-01T08:57:38.000Z</time>
      </trkpt>
      <trkpt lat="41.721335" lon="2.113665">
        <ele>864.8</ele>
        <time>2019-12-01T08:57:45.000Z</time>
      </trkpt>
      <trkpt lat="41.721399" lon="2.113802">
        <ele>863.3</ele>
        <time>2019-12-01T08:57:49.000Z</time>
      </trkpt>
      <trkpt lat="41.721401" lon="2.113884">
        <ele>862.9</ele>
        <time>2019-12-01T08:57:56.000Z</time>
      </trkpt>
      <trkpt lat="41.721374" lon="2.113952">
        <ele>863.1</ele>
        <time>2019-12-01T08:58:9.000Z</time>
      </trkpt>
      <trkpt lat="41.721236" lon="2.114235">
        <ele>862.6</ele>
        <time>2019-12-01T08:58:23.000Z</time>
      </trkpt>
      <trkpt lat="41.721106" lon="2.114450">
        <ele>861.9</ele>
        <time>2019-12-01T08:58:38.000Z</time>
      </trkpt>
      <trkpt lat="41.720953" lon="2.114711">
        <ele>859.4</ele>
        <time>2019-12-01T08:58:51.000Z</time>
      </trkpt>
      <trkpt lat="41.720937" lon="2.114795">
        <ele>858.3</ele>
        <time>2019-12-01T08:58:52.000Z</time>
      </trkpt>
      <trkpt lat="41.720924" lon="2.114902">
        <ele>857.4</ele>
        <time>2019-12-01T08:59:7.000Z</time>
      </trkpt>
      <trkpt lat="41.720895" lon="2.115096">
        <ele>855.7</ele>
        <time>2019-12-01T08:59:23.000Z</time>
      </trkpt>
      <trkpt lat="41.720886" lon="2.115156">
        <ele>855.0</ele>
        <time>2019-12-01T08:59:35.000Z</time>
      </trkpt>
      <trkpt lat="41.720827" lon="2.115331">
        <ele>852.8</ele>
        <time>2019-12-01T08:59:48.000Z</time>
      </trkpt>
      <trkpt lat="41.720841" lon="2.115506">
        <ele>852.1</ele>
        <time>2019-12-01T09:00:2.000Z</time>
      </trkpt>
      <trkpt lat="41.720836" lon="2.115646">
        <ele>852.5</ele>
        <time>2019-12-01T09:00:12.000Z</time>
      </trkpt>
      <trkpt lat="41.720822" lon="2.115663">
        <ele>852.5</ele>
        <time>2019-12-01T09:00:14.000Z</time>
      </trkpt>
      <trkpt lat="41.720775" lon="2.115733">
        <ele>852.4</ele>
        <time>2019-12-01T09:00:21.000Z</time>
      </trkpt>
      <trkpt lat="41.720638" lon="2.115942">
        <ele>850.9</ele>
        <time>2019-12-01T09:00:39.000Z</time>
      </trkpt>
      <trkpt lat="41.720559" lon="2.116101">
        <ele>850.1</ele>
        <time>2019-12-01T09:00:51.000Z</time>
      </trkpt>
      <trkpt lat="41.720523" lon="2.116240">
        <ele>849.6</ele>
        <time>2019-12-01T09:01:4.000Z</time>
      </trkpt>
      <trkpt lat="41.720512" lon="2.116351">
        <ele>849.0</ele>
        <time>2019-12-01T09:01:7.000Z</time>
      </trkpt>
      <trkpt lat="41.720493" lon="2.116475">
        <ele>849.1</ele>
        <time>2019-12-01T09:01:19.000Z</time>
      </trkpt>
      <trkpt lat="41.720441" lon="2.116651">
        <ele>848.9</ele>
        <time>2019-12-01T09:01:35.000Z</time>
      </trkpt>
      <trkpt lat="41.720389" lon="2.116784">
        <ele>849.4</ele>
        <time>2019-12-01T09:01:45.000Z</time>
      </trkpt>
      <trkpt lat="41.720340" lon="2.116893">
        <ele>849.6</ele>
        <time>2019-12-01T09:01:47.000Z</time>
      </trkpt>
      <trkpt lat="41.720231" lon="2.117088">
        <ele>848.3</ele>
        <time>2019-12-01T09:02:0.000Z</time>
      </trkpt>
      <trkpt lat="41.720141" lon="2.117264">
        <ele>847.8</ele>
        <time>2019-12-01T09:02:13.000Z</time>
      </trkpt>
      <trkpt lat="41.720051" lon="2.117391">
        <ele>845.6</ele>
        <time>2019-12-01T09:02:30.000Z</time>
      </trkpt>
      <trkpt lat="41.719994" lon="2.117499">
        <ele>843.8</ele>
        <time>2019-12-01T09:02:45.000Z</time>
      </trkpt>
      <trkpt lat="41.719949" lon="2.117596">
        <ele>842.7</ele>
        <time>2019-12-01T09:02:47.000Z</time>
      </trkpt>
      <trkpt lat="41.719902" lon="2.117776">
        <ele>841.4</ele>
        <time>2019-12-01T09:03:3.000Z</time>
      </trkpt>
      <trkpt lat="41.719882" lon="2.117908">
        <ele>840.1</ele>
        <time>2019-12-01T09:03:7.000Z</time>
      </trkpt>
      <trkpt lat="41.719876" lon="2.118105">
        <ele>839.2</ele>
        <time>2019-12-01T09:03:20.000Z</time>
      </trkpt>
      <trkpt lat="41.719884" lon="2.118285">
        <ele>837.8</ele>
        <time>2019-12-01T09:03:34.000Z</time>
      </trkpt>
      <trkpt lat="41.719903" lon="2.118395">
        <ele>836.4</ele>
        <time>2019-12-01T09:03:50.000Z</time>
      </trkpt>
      <trkpt lat="41.719957" lon="2.118559">
        <ele>835.8</ele>
        <time>2019-12-01T09:04:3.000Z</time>
      </trkpt>
      <trkpt lat="41.719945" lon="2.118769">
        <ele>835.6</ele>
        <time>2019-12-01T09:04:18.000Z</time>
      </trkpt>
      <trkpt lat="41.719914" lon="2.119044">
        <ele>834.5</ele>
        <time>2019-12-01T09:04:33.000Z</time>
      </trkpt>
      <trkpt lat="41.719884" lon="2.119168">
        <ele>833.5</ele>
        <time>2019-12-01T09:04:47.000Z</time>
      </trkpt>
      <trkpt lat="41.719821" lon="2.119280">
        <ele>833.6</ele>
        <time>2019-12-01T09:04:50.000Z</time>
      </trkpt>
      <trkpt lat="41.719763" lon="2.119404">
        <ele>835.4</ele>
        <time>2019-12-01T09:05:0.000Z</time>
      </trkpt>
      <trkpt lat="41.719691" lon="2.119524">
        <ele>835.8</ele>
        <time>2019-12-01T09:05:6.000Z</time>
      </trkpt>
      <trkpt lat="41.719627" lon="2.119626">
        <ele>836.1</ele>
        <time>2019-12-01T09:05:16.000Z</time>
      </trkpt>
      <trkpt lat="41.719553" lon="2.119750">
        <ele>836.1</ele>
        <time>2019-12-01T09:05:27.000Z</time>
      </trkpt>
      <trkpt lat="41.719499" lon="2.119821">
        <ele>835.7</ele>
        <time>2019-12-01T09:05:30.000Z</time>
      </trkpt>
      <trkpt lat="41.719420" lon="2.119935">
        <ele>835.7</ele>
        <time>2019-12-01T09:05:45.000Z</time>
      </trkpt>
      <trkpt lat="41.719320" lon="2.120030">
        <ele>834.8</ele>
        <time>2019-12-01T09:05:57.000Z</time>
      </trkpt>
      <trkpt lat="41.719280" lon="2.120185">
        <ele>837.0</ele>
        <time>2019-12-01T09:06:12.000Z</time>
      </trkpt>
      <trkpt lat="41.719253" lon="2.120325">
        <ele>837.2</ele>
        <time>2019-12-01T09:06:27.000Z</time>
      </trkpt>
      <trkpt lat="41.719224" lon="2.120499">
        <ele>837.1</ele>
        <time>2019-12-01T09:06:34.000Z</time>
      </trkpt>
      <trkpt lat="41.719208" lon="2.120559">
        <ele>837.3</ele>
        <time>2019-12-01T09:06:49.000Z</time>
      </trkpt>
      <trkpt lat="41.719180" lon="2.120608">
        <ele>838.3</ele>
        <time>2019-12-01T09:07:1.000Z</time>
      </trkpt>
      <trkpt lat="41.719118" lon="2.120665">
        <ele>839.0</ele>
        <time>2019-12-01T09:07:5.000Z</time>
      </trkpt>
      <trkpt lat="41.719030" lon="2.120714">
        <ele>839.3</ele>
        <time>2019-12-01T09:07:14.000Z</time>
      </trkpt>
      <trkpt lat="41.718842" lon="2.120825">
        <ele>841.3</ele>
        <time>2019-12-01T09:07:26.000Z</time>
      </trkpt>
      <trkpt lat="41.718708" lon="2.120907">
        <ele>842.9</ele>
        <time>2019-12-01T09:07:42.000Z</time>
      </trkpt>
      <trkpt lat="41.718593" lon="2.120962">
        <ele>844.1</ele>
        <time>2019-12-01T09:07:47.000Z</time>
      </trkpt>
      <trkpt lat="41.718505" lon="2.120984">
        <ele>844.7</ele>
        <time>2019-12-01T09:07:53.000Z</time>
      </trkpt>
      <trkpt lat="41.718406" lon="2.121008">
        <ele>845.9</ele>
        <time>2019-12-01T09:08:7.000Z</time>
      </trkpt>
      <trkpt lat="41.718257" lon="2.121050">
        <ele>845.9</ele>
        <time>2019-12-01T09:08:20.000Z</time>
      </trkpt>
      <trkpt lat="41.718152" lon="2.121128">
        <ele>847.3</ele>
        <time>2019-12-01T09:08:27.000Z</time>
      </trkpt>
      <trkpt lat="41.718124" lon="2.121203">
        <ele>847.4</ele>
        <time>2019-12-01T09:08:40.000Z</time>
      </trkpt>
      <trkpt lat="41.718109" lon="2.121276">
        <ele>847.5</ele>
        <time>2019-12-01T09:08:47.000Z</time>
      </trkpt>
      <trkpt lat="41.718118" lon="2.121338">
        <ele>847.0</ele>
        <time>2019-12-01T09:09:2.000Z</time>
      </trkpt>
      <trkpt lat="41.718176" lon="2.121528">
        <ele>845.6</ele>
        <time>2019-12-01T09:09:3.000Z</time>
      </trkpt>
      <trkpt lat="41.718201" lon="2.121606">
        <ele>844.3</ele>
        <time>2019-12-01T09:09:6.000Z</time>
      </trkpt>
      <trkpt lat="41.718314" lon="2.121752">
        <ele>843.6</ele>
        <time>2019-12-01T09:09:21.000Z</time>
      </trkpt>
      <trkpt lat="41.718388" lon="2.121916">
        <ele>841.9</ele>
        <time>2019-12-01T09:09:34.000Z</time>
      </trkpt>
      <trkpt lat="41.718425" lon="2.122062">
        <ele>840.2</ele>
        <time>2019-12-01T09:09:47.000Z</time>
      </trkpt>
      <trkpt lat="41.718428" lon="2.122203">
        <ele>837.5</ele>
        <time>2019-12-01T09:09:54.000Z</time>
      </trkpt>
      <trkpt lat="41.718433" lon="2.122406">
        <ele>835.0</ele>
        <time>2019-12-01T09:10:10.000Z</time>
      </trkpt>
      <trkpt lat="41.718479" lon="2.122519">
        <ele>834.7</ele>
        <time>2019-12-01T09:10:22.000Z</time>
      </trkpt>
      <trkpt lat="41.718467" lon="2.122572">
        <ele>834.9</ele>
        <time>2019-12-01T09:10:34.000Z</time>
      </trkpt>
      <trkpt lat="41.718416" lon="2.122617">
        <ele>835.5</ele>
        <time>2019-12-01T09:10:46.000Z</time>
      </trkpt>
      <trkpt lat="41.718328" lon="2.122636">
        <ele>835.8</ele>
        <time>2019-12-01T09:10:49.000Z</time>
      </trkpt>
      <trkpt lat="41.718244" lon="2.122647">
        <ele>836.3</ele>
        <time>2019-12-01T09:11:0.000Z</time>
      </trkpt>
      <trkpt lat="41.718037" lon="2.122647">
        <ele>838.6</ele>
        <time>2019-12-01T09:11:8.000Z</time>
      </trkpt>
      <trkpt lat="41.717829" lon="2.122652">
        <ele>839.6</ele>
        <time>2019-12-01T09:11:20.000Z</time>
      </trkpt>
      <trkpt lat="41.717755" lon="2.122667">
        <ele>839.6</ele>
        <time>2019-12-01T09:11:32.000Z</time>
      </trkpt>
      <trkpt lat="41.717570" lon="2.122740">
        <ele>840.3</ele>
        <time>2019-12-01T09:11:45.000Z</time>
      </trkpt>
      <trkpt lat="41.717422" lon="2.122806">
        <ele>841.7</ele>
        <time>2019-12-01T09:11:58.000Z</time>
      </trkpt>
      <trkpt lat="41.717355" lon="2.122897">
        <ele>842.1</ele>
        <time>2019-12-01T09:12:10.000Z</time>
      </trkpt>
      <trkpt lat="41.717397" lon="2.123118">
        <ele>842.7</ele>
        <time>2019-12-01T09:12:24.000Z</time>
      </trkpt>
      <trkpt lat="41.717438" lon="2.123267">
        <ele>842.6</ele>
        <time>2019-12-01T09:12:34.000Z</time>
      </trkpt>
      <trkpt lat="41.717478" lon="2.123358">
        <ele>843.4</ele>
        <time>2019-12-01T09:12:38.000Z</time>
      </trkpt>
      <trkpt lat="41.717542" lon="2.123561">
        <ele>843.9</ele>
        <time>2019-12-01T09:12:52.000Z</time>
      </trkpt>
      <trkpt lat="41.717605" lon="2.123784">
        <ele>842.8</ele>
        <time>2019-12-01T09:13:6.000Z</time>
      </trkpt>
      <trkpt lat="41.717645" lon="2.123933">
        <ele>843.6</ele>
        <time>2019-12-01T09:13:15.000Z</time>
      </trkpt>
      <trkpt lat="41.717677" lon="2.124019">
        <ele>844.5</ele>
        <time>2019-12-01T09:13:21.000Z</time>
      </trkpt>
      <trkpt lat="41.717714" lon="2.124167">
        <ele>845.5</ele>
        <time>2019-12-01T09:13:33.000Z</time>
      </trkpt>
      <trkpt lat="41.717746" lon="2.124342">
        <ele>845.9</ele>
        <time>2019-12-01T09:13:35.000Z</time>
      </trkpt>
      <trkpt lat="41.717739" lon="2.124455">
        <ele>846.9</ele>
        <time>2019-12-01T09:13:45.000Z</time>
      </trkpt>
      <trkpt lat="41.717727" lon="2.124499">
        <ele>847.3</ele>
        <time>2019-12-01T09:13:54.000Z</time>
      </trkpt>
      <trkpt lat="41.717671" lon="2.124528">
        <ele>847.2</ele>
        <time>2019-12-01T09:14:6.000Z</time>
      </trkpt>
      <trkpt lat="41.717570" lon="2.124541">
        <ele>847.9</ele>
        <time>2019-12-01T09:14:14.000Z</time>
      </trkpt>
      <trkpt lat="41.717486" lon="2.124554">
        <ele>849.6</ele>
        <time>2019-12-01T09:14:20.000Z</time>
      </trkpt>
      <trkpt lat="41.717418" lon="2.124558">
        <ele>849.8</ele>
        <time>2019-12-01T09:14:24.000Z</time>
      </trkpt>
      <trkpt lat="41.717313" lon="2.124550">
        <ele>849.7</ele>
        <time>2019-12-01T09:14:31.000Z</time>
      </trkpt>
      <trkpt lat="41.717224" lon="2.124536">
        <ele>849.9</ele>
        <time>2019-12-01T09:14:42.000Z</time>
      </trkpt>
      <trkpt lat="41.717148" lon="2.124521">
        <ele>850.7</ele>
        <time>2019-12-01T09:14:47.000Z</time>
      </trkpt>
      <trkpt lat="41.717053" lon="2.124506">
        <ele>852.2</ele>
        <time>2019-12-01T09:15:1.000Z</time>
      </trkpt>
      <trkpt lat="41.716915" lon="2.124486">
        <ele>855.2</ele>
        <time>2019-12-01T09:15:14.000Z</time>
      </trkpt>
      <trkpt lat="41.716796" lon="2.124475">
        <ele>856.8</ele>
        <time>2019-12-01T09:15:26.000Z</time>
      </trkpt>
      <trkpt lat="41.716678" lon="2.124470">
        <ele>857.9</ele>
        <time>2019-12-01T09:15:34.000Z</time>
      </trkpt>
      <trkpt lat="41.716588" lon="2.124466">
        <ele>858.7</ele>
        <time>2019-12-01T09:15:44.000Z</time>
      </trkpt>
      <trkpt lat="41.716494" lon="2.124453">
        <ele>859.4</ele>
        <time>2019-12-01T09:16:0.000Z</time>
      </trkpt>
      <trkpt lat="41.716428" lon="2.124437">
        <ele>859.8</ele>
        <time>2019-12-01T09:16:2.000Z</time>
      </trkpt>
      <trkpt lat="41.716351" lon="2.124415">
        <ele>860.5</ele>
        <time>2019-12-01T09:16:10.000Z</time>
      </trkpt>
      <trkpt lat="41.716273" lon="2.124386">
        <ele>861.3</ele>
        <time>2019-12-01T09:16:15.000Z</time>
      </trkpt>
      <trkpt lat="41.716214" lon="2.124355">
        <ele>860.8</ele>
        <time>2019-12-01T09:16:30.000Z</time>
      </trkpt>
      <trkpt lat="41.716124" lon="2.124359">
        <ele>861.4</ele>
        <time>2019-12-01T09:16:44.000Z</time>
      </trkpt>
      <trkpt lat="41.715998" lon="2.124403">
        <ele>862.5</ele>
        <time>2019-12-01T09:16:59.000Z</time>
      </trkpt>
      <trkpt lat="41.715935" lon="2.124430">
        <ele>862.6</ele>
        <time>2019-12-01T09:17:11.000Z</time>
      </trkpt>
      <trkpt lat="41.715839" lon="2.124476">
        <ele>862.8</ele>
        <time>2019-12-01T09:17:16.000Z</time>
      </trkpt>
      <trkpt lat="41.715794" lon="2.124527">
        <ele>862.9</ele>
        <time>2019-12-01T09:17:20.000Z</time>
      </trkpt>
      <trkpt lat="41.715812" lon="2.124788">
        <ele>863.3</ele>
        <time>2019-12-01T09:17:29.000Z</time>
      </trkpt>
      <trkpt lat="41.715796" lon="2.124912">
        <ele>862.2</ele>
        <time>2019-12-01T09:17:44.000Z</time>
      </trkpt>
      <trkpt lat="41.715798" lon="2.124927">
        <ele>862.2</ele>
        <time>2019-12-01T09:17:45.000Z</time>
      </trkpt>
      <trkpt lat="41.715797" lon="2.125107">
        <ele>860.2</ele>
        <time>2019-12-01T09:17:55.000Z</time>
      </trkpt>
      <trkpt lat="41.715836" lon="2.125260">
        <ele>859.6</ele>
        <time>2019-12-01T09:18:11.000Z</time>
      </trkpt>
      <trkpt lat="41.715831" lon="2.125366">
        <ele>858.3</ele>
        <time>2019-12-01T09:18:25.000Z</time>
      </trkpt>
      <trkpt lat="41.715805" lon="2.125519">
        <ele>856.5</ele>
        <time>2019-12-01T09:18:33.000Z</time>
      </trkpt>
      <trkpt lat="41.715790" lon="2.125743">
        <ele>855.4</ele>
        <time>2019-12-01T09:18:49.000Z</time>
      </trkpt>
      <trkpt lat="41.715790" lon="2.125866">
        <ele>854.6</ele>
        <time>2019-12-01T09:18:58.000Z</time>
      </trkpt>
      <trkpt lat="41.715765" lon="2.125976">
        <ele>853.5</ele>
        <time>2019-12-01T09:19:14.000Z</time>
      </trkpt>
      <trkpt lat="41.715674" lon="2.126129">
        <ele>852.3</ele>
        <time>2019-12-01T09:19:21.000Z</time>
      </trkpt>
      <trkpt lat="41.715614" lon="2.126225">
        <ele>851.6</ele>
        <time>2019-12-01T09:19:30.000Z</time>
      </trkpt>
      <trkpt lat="41.715587" lon="2.126275">
        <ele>849.8</ele>
        <time>2019-12-01T09:19:41.000Z</time>
      </trkpt>
      <trkpt lat="41.715591" lon="2.126344">
        <ele>849.1</ele>
        <time>2019-12-01T09:19:55.000Z</time>
      </trkpt>
      <trkpt lat="41.715658" lon="2.126390">
        <ele>849.6</ele>
        <time>2019-12-01T09:19:58.000Z</time>
      </trkpt>
      <trkpt lat="41.715796" lon="2.126481">
        <ele>848.9</ele>
        <time>2019-12-01T09:20:12.000Z</time>
      </trkpt>
      <trkpt lat="41.715873" lon="2.126640">
        <ele>845.7</ele>
        <time>2019-12-01T09:20:25.000Z</time>
      </trkpt>
      <trkpt lat="41.715877" lon="2.126791">
        <ele>843.8</ele>
        <time>2019-12-01T09:20:27.000Z</time>
      </trkpt>
      <trkpt lat="41.715871" lon="2.126855">
        <ele>843.7</ele>
        <time>2019-12-01T09:20:29.000Z</time>
      </trkpt>
      <trkpt lat="41.715834" lon="2.126985">
        <ele>842.3</ele>
        <time>2019-12-01T09:20:39.000Z</time>
      </trkpt>
      <trkpt lat="41.715841" lon="2.127039">
        <ele>842.0</ele>
        <time>2019-12-01T09:20:55.000Z</time>
      </trkpt>
      <trkpt lat="41.715975" lon="2.127188">
        <ele>840.7</ele>
        <time>2019-12-01T09:21:0.000Z</time>
      </trkpt>
      <trkpt lat="41.716113" lon="2.127330">
        <ele>837.7</ele>
        <time>2019-12-01T09:21:17.000Z</time>
      </trkpt>
      <trkpt lat="41.716233" lon="2.127449">
        <ele>835.9</ele>
        <time>2019-12-01T09:21:31.000Z</time>
      </trkpt>
      <trkpt lat="41.716330" lon="2.127601">
        <ele>835.1</ele>
        <time>2019-12-01T09:21:44.000Z</time>
      </trkpt>
      <trkpt lat="41.716360" lon="2.127665">
        <ele>834.6</ele>
        <time>2019-12-01T09:21:46.000Z</time>
      </trkpt>
      <trkpt lat="41.716456" lon="2.127878">
        <ele>833.1</ele>
        <time>2019-12-01T09:21:48.000Z</time>
      </trkpt>
      <trkpt lat="41.716477" lon="2.128022">
        <ele>832.4</ele>
        <time>2019-12-01T09:21:54.000Z</time>
      </trkpt>
      <trkpt lat="41.716447" lon="2.128112">
        <ele>833.4</ele>
        <time>2019-12-01T09:21:58.000Z</time>
      </trkpt>
      <trkpt lat="41.716378" lon="2.128152">
        <ele>833.9</ele>
        <time>2019-12-01T09:22:11.000Z</time>
      </trkpt>
      <trkpt lat="41.716292" lon="2.128163">
        <ele>834.1</ele>
        <time>2019-12-01T09:22:27.000Z</time>
      </trkpt>
      <trkpt lat="41.716237" lon="2.128170">
        <ele>834.7</ele>
        <time>2019-12-01T09:22:31.000Z</time>
      </trkpt>
      <trkpt lat="41.716136" lon="2.128174">
        <ele>835.5</ele>
        <time>2019-12-01T09:22:47.000Z</time>
      </trkpt>
      <trkpt lat="41.716021" lon="2.128185">
        <ele>836.8</ele>
        <time>2019-12-01T09:22:58.000Z</time>
      </trkpt>
      <trkpt lat="41.715882" lon="2.128199">
        <ele>838.6</ele>
        <time>2019-12-01T09:23:14.000Z</time>
      </trkpt>
      <trkpt lat="41.715748" lon="2.128269">
        <ele>839.1</ele>
        <time>2019-12-01T09:23:31.000Z</time>
      </trkpt>
      <trkpt lat="41.715635" lon="2.128371">
        <ele>840.3</ele>
        <time>2019-12-01T09:23:46.000Z</time>
      </trkpt>
      <trkpt lat="41.715601" lon="2.128431">
        <ele>839.8</ele>
        <time>2019-12-01T09:24:3.000Z</time>
      </trkpt>
      <trkpt lat="41.715576" lon="2.128508">
        <ele>839.8</ele>
        <time>2019-12-01T09:24:4.000Z</time>
      </trkpt>
      <trkpt lat="41.715547" lon="2.128672">
        <ele>840.5</ele>
        <time>2019-12-01T09:24:19.000Z</time>
      </trkpt>
      <trkpt lat="41.715546" lon="2.128769">
        <ele>841.1</ele>
        <time>2019-12-01T09:24:26.000Z</time>
      </trkpt>
      <trkpt lat="41.715524" lon="2.128915">
        <ele>840.8</ele>
        <time>2019-12-01T09:24:41.000Z</time>
      </trkpt>
      <trkpt lat="41.715476" lon="2.129048">
        <ele>841.1</ele>
        <time>2019-12-01T09:24:50.000Z</time>
      </trkpt>
      <trkpt lat="41.715412" lon="2.129135">
        <ele>841.6</ele>
        <time>2019-12-01T09:24:53.000Z</time>
      </trkpt>
      <trkpt lat="41.715341" lon="2.129238">
        <ele>842.6</ele>
        <time>2019-12-01T09:25:6.000Z</time>
      </trkpt>
      <trkpt lat="41.715278" lon="2.129271">
        <ele>843.6</ele>
        <time>2019-12-01T09:25:11.000Z</time>
      </trkpt>
      <trkpt lat="41.715226" lon="2.129258">
        <ele>843.0</ele>
        <time>2019-12-01T09:25:25.000Z</time>
      </trkpt>
      <trkpt lat="41.715153" lon="2.129229">
        <ele>843.4</ele>
        <time>2019-12-01T09:25:39.000Z</time>
      </trkpt>
      <trkpt lat="41.715039" lon="2.129180">
        <ele>844.2</ele>
        <time>2019-12-01T09:25:54.000Z</time>
      </trkpt>
      <trkpt lat="41.714944" lon="2.129160">
        <ele>845.1</ele>
        <time>2019-12-01T09:26:8.000Z</time>
      </trkpt>
      <trkpt lat="41.714822" lon="2.129222">
        <ele>845.9</ele>
        <time>2019-12-01T09:26:23.000Z</time>
      </trkpt>
      <trkpt lat="41.714621" lon="2.129350">
        <ele>846.6</ele>
        <time>2019-12-01T09:26:38.000Z</time>
      </trkpt>
      <trkpt lat="41.714343" lon="2.129491">
        <ele>845.5</ele>
        <time>2019-12-01T09:26:53.000Z</time>
      </trkpt>
      <trkpt lat="41.714287" lon="2.129551">
        <ele>844.8</ele>
        <time>2019-12-01T09:26:59.000Z</time>
      </trkpt>
      <trkpt lat="41.714276" lon="2.129640">
        <ele>845.4</ele>
        <time>2019-12-01T09:27:14.000Z</time>
      </trkpt>
      <trkpt lat="41.714298" lon="2.129757">
        <ele>844.3</ele>
        <time>2019-12-01T09:27:24.000Z</time>
      </trkpt>
      <trkpt lat="41.714343" lon="2.129845">
        <ele>843.8</ele>
        <time>2019-12-01T09:27:37.000Z</time>
      </trkpt>
      <trkpt lat="41.714390" lon="2.129972">
        <ele>841.2</ele>
        <time>2019-12-01T09:27:47.000Z</time>
      </trkpt>
      <trkpt lat="41.714476" lon="2.130080">
        <ele>841.9</ele>
        <time>2019-12-01T09:28:2.000Z</time>
      </trkpt>
      <trkpt lat="41.714508" lon="2.130350">
        <ele>837.5</ele>
        <time>2019-12-01T09:28:13.000Z</time>
      </trkpt>
      <trkpt lat="41.714535" lon="2.130569">
        <ele>837.9</ele>
        <time>2019-12-01T09:28:17.000Z</time>
      </trkpt>
      <trkpt lat="41.714542" lon="2.130704">
        <ele>838.7</ele>
        <time>2019-12-01T09:28:21.000Z</time>
      </trkpt>
      <trkpt lat="41.714539" lon="2.130777">
        <ele>839.8</ele>
        <time>2019-12-01T09:28:28.000Z</time>
      </trkpt>
      <trkpt lat="41.714407" lon="2.130985">
        <ele>839.7</ele>
        <time>2019-12-01T09:28:45.000Z</time>
      </trkpt>
      <trkpt lat="41.714330" lon="2.131068">
        <ele>839.8</ele>
        <time>2019-12-01T09:28:59.000Z</time>
      </trkpt>
      <trkpt lat="41.714290" lon="2.131130">
        <ele>837.3</ele>
        <time>2019-12-01T09:29:2.000Z</time>
      </trkpt>
      <trkpt lat="41.714348" lon="2.131307">
        <ele>837.3</ele>
        <time>2019-12-01T09:29:15.000Z</time>
      </trkpt>
      <trkpt lat="41.714385" lon="2.131471">
        <ele>834.8</ele>
        <time>2019-12-01T09:29:29.000Z</time>
      </trkpt>
      <trkpt lat="41.714394" lon="2.131591">
        <ele>834.4</ele>
        <time>2019-12-01T09:29:34.000Z</time>
      </trkpt>
      <trkpt lat="41.714396" lon="2.131684">
        <ele>833.3</ele>
        <time>2019-12-01T09:29:41.000Z</time>
      </trkpt>
      <trkpt lat="41.714403" lon="2.131761">
        <ele>832.5</ele>
        <time>2019-12-01T09:29:45.000Z</time>
      </trkpt>
      <trkpt lat="41.714445" lon="2.131836">
        <ele>832.0</ele>
        <time>2019-12-01T09:29:55.000Z</time>
      </trkpt>
      <trkpt lat="41.714644" lon="2.132001">
        <ele>830.5</ele>
        <time>2019-12-01T09:30:11.000Z</time>
      </trkpt>
      <trkpt lat="41.714784" lon="2.132102">
        <ele>830.4</ele>
        <time>2019-12-01T09:30:25.000Z</time>
      </trkpt>
      <trkpt lat="41.714854" lon="2.132144">
        <ele>831.4</ele>
        <time>2019-12-01T09:30:37.000Z</time>
      </trkpt>
      <trkpt lat="41.715035" lon="2.132354">
        <ele>830.0</ele>
        <time>2019-12-01T09:30:51.000Z</time>
      </trkpt>
      <trkpt lat="41.715100" lon="2.132402">
        <ele>829.9</ele>
        <time>2019-12-01T09:30:58.000Z</time>
      </trkpt>
      <trkpt lat="41.715228" lon="2.132521">
        <ele>827.2</ele>
        <time>2019-12-01T09:31:13.000Z</time>
      </trkpt>
      <trkpt lat="41.715317" lon="2.132626">
        <ele>826.6</ele>
        <time>2019-12-01T09:31:24.000Z</time>
      </trkpt>
      <trkpt lat="41.715417" lon="2.132753">
        <ele>824.8</ele>
        <time>2019-12-01T09:31:38.000Z</time>
      </trkpt>
      <trkpt lat="41.715459" lon="2.132829">
        <ele>823.6</ele>
        <time>2019-12-01T09:32:15.000Z</time>
      </trkpt>
      <trkpt lat="41.715496" lon="2.132885">
        <ele>822.8</ele>
        <time>2019-12-01T09:32:52.000Z</time>
      </trkpt>
      <trkpt lat="41.715536" lon="2.132946">
        <ele>822.1</ele>
        <time>2019-12-01T09:33:13.000Z</time>
      </trkpt>
      <trkpt lat="41.715550" lon="2.133006">
        <ele>820.7</ele>
        <time>2019-12-01T09:33:30.000Z</time>
      </trkpt>
      <trkpt lat="41.715566" lon="2.133068">
        <ele>819.7</ele>
        <time>2019-12-01T09:33:42.000Z</time>
      </trkpt>
      <trkpt lat="41.715574" lon="2.133181">
        <ele>818.4</ele>
        <time>2019-12-01T09:33:57.000Z</time>
      </trkpt>
      <trkpt lat="41.715592" lon="2.133295">
        <ele>818.4</ele>
        <time>2019-12-01T09:34:16.000Z</time>
      </trkpt>
      <trkpt lat="41.715604" lon="2.133316">
        <ele>818.5</ele>
        <time>2019-12-01T09:34:18.000Z</time>
      </trkpt>
      <trkpt lat="41.715626" lon="2.133331">
        <ele>818.6</ele>
        <time>2019-12-01T09:34:32.000Z</time>
      </trkpt>
      <trkpt lat="41.715633" lon="2.133339">
        <ele>818.7</ele>
        <time>2019-12-01T09:34:46.000Z</time>
      </trkpt>
      <trkpt lat="41.715654" lon="2.133379">
        <ele>818.9</ele>
        <time>2019-12-01T09:34:59.000Z</time>
      </trkpt>
      <trkpt lat="41.715716" lon="2.133471">
        <ele>817.9</ele>
        <time>2019-12-01T09:35:15.000Z</time>
      </trkpt>
      <trkpt lat="41.715791" lon="2.133577">
        <ele>816.3</ele>
        <time>2019-12-01T09:35:23.000Z</time>
      </trkpt>
      <trkpt lat="41.715821" lon="2.133637">
        <ele>816.1</ele>
        <time>2019-12-01T09:35:25.000Z</time>
      </trkpt>
      <trkpt lat="41.715871" lon="2.133718">
        <ele>815.2</ele>
        <time>2019-12-01T09:35:28.000Z</time>
      </trkpt>
      <trkpt lat="41.715929" lon="2.133811">
        <ele>814.0</ele>
        <time>2019-12-01T09:35:37.000Z</time>
      </trkpt>
      <trkpt lat="41.716030" lon="2.133955">
        <ele>812.5</ele>
        <time>2019-12-01T09:35:53.000Z</time>
      </trkpt>
      <trkpt lat="41.716082" lon="2.134024">
        <ele>811.3</ele>
        <time>2019-12-01T09:35:58.000Z</time>
      </trkpt>
      <trkpt lat="41.716161" lon="2.134146">
        <ele>809.9</ele>
        <time>2019-12-01T09:36:14.000Z</time>
      </trkpt>
      <trkpt lat="41.716198" lon="2.134216">
        <ele>809.5</ele>
        <time>2019-12-01T09:36:16.000Z</time>
      </trkpt>
      <trkpt lat="41.716254" lon="2.134296">
        <ele>808.5</ele>
        <time>2019-12-01T09:36:27.000Z</time>
      </trkpt>
      <trkpt lat="41.716292" lon="2.134385">
        <ele>807.7</ele>
        <time>2019-12-01T09:36:32.000Z</time>
      </trkpt>
      <trkpt lat="41.716339" lon="2.134504">
        <ele>807.1</ele>
        <time>2019-12-01T09:36:46.000Z</time>
      </trkpt>
      <trkpt lat="41.716365" lon="2.134579">
        <ele>805.9</ele>
        <time>2019-12-01T09:36:52.000Z</time>
      </trkpt>
      <trkpt lat="41.716375" lon="2.134628">
        <ele>805.4</ele>
        <time>2019-12-01T09:36:57.000Z</time>
      </trkpt>
      <trkpt lat="41.716383" lon="2.134701">
        <ele>804.8</ele>
        <time>2019-12-01T09:37:1.000Z</time>
      </trkpt>
      <trkpt lat="41.716410" lon="2.134929">
        <ele>802.4</ele>
        <time>2019-12-01T09:37:15.000Z</time>
      </trkpt>
      <trkpt lat="41.716402" lon="2.135035">
        <ele>801.6</ele>
        <time>2019-12-01T09:37:25.000Z</time>
      </trkpt>
      <trkpt lat="41.716397" lon="2.135166">
        <ele>800.3</ele>
        <time>2019-12-01T09:37:37.000Z</time>
      </trkpt>
      <trkpt lat="41.716393" lon="2.135265">
        <ele>799.3</ele>
        <time>2019-12-01T09:37:52.000Z</time>
      </trkpt>
      <trkpt lat="41.716394" lon="2.135321">
        <ele>798.7</ele>
        <time>2019-12-01T09:37:55.000Z</time>
      </trkpt>
      <trkpt lat="41.716386" lon="2.135363">
        <ele>798.4</ele>
        <time>2019-12-01T09:38:1.000Z</time>
      </trkpt>
      <trkpt lat="41.716381" lon="2.135433">
        <ele>797.8</ele>
        <time>2019-12-01T09:38:4.000Z</time>
      </trkpt>
      <trkpt lat="41.716370" lon="2.135576">
        <ele>796.6</ele>
        <time>2019-12-01T09:38:16.000Z</time>
      </trkpt>
      <trkpt lat="41.716372" lon="2.135752">
        <ele>795.4</ele>
        <time>2019-12-01T09:38:27.000Z</time>
      </trkpt>
      <trkpt lat="41.716368" lon="2.135841">
        <ele>794.5</ele>
        <time>2019-12-01T09:38:31.000Z</time>
      </trkpt>
      <trkpt lat="41.716359" lon="2.135993">
        <ele>793.6</ele>
        <time>2019-12-01T09:38:44.000Z</time>
      </trkpt>
      <trkpt lat="41.716349" lon="2.136075">
        <ele>793.3</ele>
        <time>2019-12-01T09:38:47.000Z</time>
      </trkpt>
      <trkpt lat="41.716343" lon="2.136199">
        <ele>792.2</ele>
        <time>2019-12-01T09:38:56.000Z</time>
      </trkpt>
      <trkpt lat="41.716329" lon="2.136327">
        <ele>791.2</ele>
        <time>2019-12-01T09:39:8.000Z</time>
      </trkpt>
      <trkpt lat="41.716311" lon="2.136431">
        <ele>790.4</ele>
        <time>2019-12-01T09:39:15.000Z</time>
      </trkpt>
      <trkpt lat="41.716299" lon="2.136554">
        <ele>789.4</ele>
        <time>2019-12-01T09:39:25.000Z</time>
      </trkpt>
      <trkpt lat="41.716296" lon="2.136601">
        <ele>788.9</ele>
        <time>2019-12-01T09:39:28.000Z</time>
      </trkpt>
      <trkpt lat="41.716268" lon="2.136779">
        <ele>787.6</ele>
        <time>2019-12-01T09:39:42.000Z</time>
      </trkpt>
      <trkpt lat="41.716245" lon="2.136977">
        <ele>786.8</ele>
        <time>2019-12-01T09:39:53.000Z</time>
      </trkpt>
      <trkpt lat="41.716241" lon="2.137102">
        <ele>786.2</ele>
        <time>2019-12-01T09:40:2.000Z</time>
      </trkpt>
      <trkpt lat="41.716239" lon="2.137146">
        <ele>786.0</ele>
        <time>2019-12-01T09:40:3.000Z</time>
      </trkpt>
      <trkpt lat="41.716259" lon="2.137252">
        <ele>785.2</ele>
        <time>2019-12-01T09:40:4.000Z</time>
      </trkpt>
      <trkpt lat="41.716273" lon="2.137358">
        <ele>784.6</ele>
        <time>2019-12-01T09:40:17.000Z</time>
      </trkpt>
      <trkpt lat="41.716284" lon="2.137454">
        <ele>784.2</ele>
        <time>2019-12-01T09:40:23.000Z</time>
      </trkpt>
      <trkpt lat="41.716289" lon="2.137593">
        <ele>784.0</ele>
        <time>2019-12-01T09:40:35.000Z</time>
      </trkpt>
      <trkpt lat="41.716293" lon="2.137664">
        <ele>783.7</ele>
        <time>2019-12-01T09:40:39.000Z</time>
      </trkpt>
      <trkpt lat="41.716262" lon="2.137841">
        <ele>782.4</ele>
        <time>2019-12-01T09:40:52.000Z</time>
      </trkpt>
      <trkpt lat="41.716203" lon="2.137943">
        <ele>781.9</ele>
        <time>2019-12-01T09:41:5.000Z</time>
      </trkpt>
      <trkpt lat="41.716149" lon="2.138029">
        <ele>780.6</ele>
        <time>2019-12-01T09:41:17.000Z</time>
      </trkpt>
      <trkpt lat="41.716119" lon="2.138091">
        <ele>779.6</ele>
        <time>2019-12-01T09:41:18.000Z</time>
      </trkpt>
      <trkpt lat="41.716113" lon="2.138142">
        <ele>779.5</ele>
        <time>2019-12-01T09:41:19.000Z</time>
      </trkpt>
      <trkpt lat="41.716106" lon="2.138175">
        <ele>779.5</ele>
        <time>2019-12-01T09:41:20.000Z</time>
      </trkpt>
      <trkpt lat="41.716108" lon="2.138222">
        <ele>779.2</ele>
        <time>2019-12-01T09:41:21.000Z</time>
      </trkpt>
      <trkpt lat="41.716119" lon="2.138261">
        <ele>778.7</ele>
        <time>2019-12-01T09:41:25.000Z</time>
      </trkpt>
      <trkpt lat="41.716178" lon="2.138348">
        <ele>779.6</ele>
        <time>2019-12-01T09:41:36.000Z</time>
      </trkpt>
      <trkpt lat="41.716262" lon="2.138428">
        <ele>778.2</ele>
        <time>2019-12-01T09:41:51.000Z</time>
      </trkpt>
      <trkpt lat="41.716347" lon="2.138503">
        <ele>777.5</ele>
        <time>2019-12-01T09:42:5.000Z</time>
      </trkpt>
      <trkpt lat="41.716413" lon="2.138578">
        <ele>776.7</ele>
        <time>2019-12-01T09:42:17.000Z</time>
      </trkpt>
      <trkpt lat="41.716463" lon="2.138633">
        <ele>776.3</ele>
        <time>2019-12-01T09:42:20.000Z</time>
      </trkpt>
      <trkpt lat="41.716523" lon="2.138691">
        <ele>775.3</ele>
        <time>2019-12-01T09:42:21.000Z</time>
      </trkpt>
      <trkpt lat="41.716573" lon="2.138766">
        <ele>774.8</ele>
        <time>2019-12-01T09:42:33.000Z</time>
      </trkpt>
      <trkpt lat="41.716616" lon="2.138819">
        <ele>774.0</ele>
        <time>2019-12-01T09:42:35.000Z</time>
      </trkpt>
      <trkpt lat="41.716686" lon="2.138901">
        <ele>772.3</ele>
        <time>2019-12-01T09:42:47.000Z</time>
      </trkpt>
      <trkpt lat="41.716722" lon="2.138938">
        <ele>771.6</ele>
        <time>2019-12-01T09:42:48.000Z</time>
      </trkpt>
      <trkpt lat="41.716740" lon="2.138980">
        <ele>771.8</ele>
        <time>2019-12-01T09:42:49.000Z</time>
      </trkpt>
      <trkpt lat="41.716776" lon="2.139031">
        <ele>770.8</ele>
        <time>2019-12-01T09:43:1.000Z</time>
      </trkpt>
      <trkpt lat="41.716826" lon="2.139113">
        <ele>769.0</ele>
        <time>2019-12-01T09:43:5.000Z</time>
      </trkpt>
      <trkpt lat="41.716880" lon="2.139211">
        <ele>767.5</ele>
        <time>2019-12-01T09:43:6.000Z</time>
      </trkpt>
      <trkpt lat="41.716907" lon="2.139308">
        <ele>767.4</ele>
        <time>2019-12-01T09:43:20.000Z</time>
      </trkpt>
      <trkpt lat="41.716939" lon="2.139419">
        <ele>765.8</ele>
        <time>2019-12-01T09:43:34.000Z</time>
      </trkpt>
      <trkpt lat="41.716962" lon="2.139489">
        <ele>764.2</ele>
        <time>2019-12-01T09:43:35.000Z</time>
      </trkpt>
      <trkpt lat="41.716980" lon="2.139593">
        <ele>763.4</ele>
        <time>2019-12-01T09:43:47.000Z</time>
      </trkpt>
      <trkpt lat="41.717004" lon="2.139739">
        <ele>762.4</ele>
        <time>2019-12-01T09:44:0.000Z</time>
      </trkpt>
      <trkpt lat="41.717008" lon="2.139830">
        <ele>761.9</ele>
        <time>2019-12-01T09:44:6.000Z</time>
      </trkpt>
      <trkpt lat="41.716999" lon="2.140007">
        <ele>760.5</ele>
        <time>2019-12-01T09:44:20.000Z</time>
      </trkpt>
      <trkpt lat="41.716962" lon="2.140189">
        <ele>758.9</ele>
        <time>2019-12-01T09:44:35.000Z</time>
      </trkpt>
      <trkpt lat="41.716938" lon="2.140358">
        <ele>756.8</ele>
        <time>2019-12-01T09:44:49.000Z</time>
      </trkpt>
      <trkpt lat="41.716927" lon="2.140439">
        <ele>755.7</ele>
        <time>2019-12-01T09:44:55.000Z</time>
      </trkpt>
      <trkpt lat="41.716906" lon="2.140540">
        <ele>754.6</ele>
        <time>2019-12-01T09:45:1.000Z</time>
      </trkpt>
      <trkpt lat="41.716873" lon="2.140711">
        <ele>752.5</ele>
        <time>2019-12-01T09:45:17.000Z</time>
      </trkpt>
      <trkpt lat="41.716855" lon="2.140799">
        <ele>751.4</ele>
        <time>2019-12-01T09:45:27.000Z</time>
      </trkpt>
      <trkpt lat="41.716848" lon="2.140861">
        <ele>750.6</ele>
        <time>2019-12-01T09:45:28.000Z</time>
      </trkpt>
      <trkpt lat="41.716828" lon="2.140963">
        <ele>749.4</ele>
        <time>2019-12-01T09:45:34.000Z</time>
      </trkpt>
      <trkpt lat="41.716821" lon="2.141029">
        <ele>749.3</ele>
        <time>2019-12-01T09:45:43.000Z</time>
      </trkpt>
      <trkpt lat="41.716791" lon="2.141199">
        <ele>748.9</ele>
        <time>2019-12-01T09:45:52.000Z</time>
      </trkpt>
      <trkpt lat="41.716773" lon="2.141253">
        <ele>749.1</ele>
        <time>2019-12-01T09:45:53.000Z</time>
      </trkpt>
      <trkpt lat="41.716753" lon="2.141411">
        <ele>748.5</ele>
        <time>2019-12-01T09:46:5.000Z</time>
      </trkpt>
      <trkpt lat="41.716750" lon="2.141427">
        <ele>748.4</ele>
        <time>2019-12-01T09:46:6.000Z</time>
      </trkpt>
      <trkpt lat="41.716748" lon="2.141461">
        <ele>748.2</ele>
        <time>2019-12-01T09:46:8.000Z</time>
      </trkpt>
      <trkpt lat="41.716702" lon="2.141627">
        <ele>747.0</ele>
        <time>2019-12-01T09:46:22.000Z</time>
      </trkpt>
      <trkpt lat="41.716654" lon="2.141827">
        <ele>745.8</ele>
        <time>2019-12-01T09:46:37.000Z</time>
      </trkpt>
      <trkpt lat="41.716644" lon="2.141983">
        <ele>744.3</ele>
        <time>2019-12-01T09:46:48.000Z</time>
      </trkpt>
      <trkpt lat="41.716646" lon="2.142030">
        <ele>743.8</ele>
        <time>2019-12-01T09:46:49.000Z</time>
      </trkpt>
      <trkpt lat="41.716639" lon="2.142085">
        <ele>743.3</ele>
        <time>2019-12-01T09:46:50.000Z</time>
      </trkpt>
      <trkpt lat="41.716637" lon="2.142176">
        <ele>742.4</ele>
        <time>2019-12-01T09:47:1.000Z</time>
      </trkpt>
      <trkpt lat="41.716622" lon="2.142211">
        <ele>742.3</ele>
        <time>2019-12-01T09:47:2.000Z</time>
      </trkpt>
      <trkpt lat="41.716592" lon="2.142324">
        <ele>742.0</ele>
        <time>2019-12-01T09:47:9.000Z</time>
      </trkpt>
      <trkpt lat="41.716540" lon="2.142450">
        <ele>741.8</ele>
        <time>2019-12-01T09:47:24.000Z</time>
      </trkpt>
      <trkpt lat="41.716480" lon="2.142591">
        <ele>741.4</ele>
        <time>2019-12-01T09:47:32.000Z</time>
      </trkpt>
      <trkpt lat="41.716475" lon="2.142607">
        <ele>741.4</ele>
        <time>2019-12-01T09:47:33.000Z</time>
      </trkpt>
      <trkpt lat="41.716471" lon="2.142622">
        <ele>741.3</ele>
        <time>2019-12-01T09:47:34.000Z</time>
      </trkpt>
      <trkpt lat="41.716412" lon="2.142811">
        <ele>741.0</ele>
        <time>2019-12-01T09:47:48.000Z</time>
      </trkpt>
      <trkpt lat="41.716391" lon="2.142857">
        <ele>741.0</ele>
        <time>2019-12-01T09:48:0.000Z</time>
      </trkpt>
      <trkpt lat="41.716387" lon="2.142935">
        <ele>740.8</ele>
        <time>2019-12-01T09:48:1.000Z</time>
      </trkpt>
      <trkpt lat="41.716436" lon="2.143081">
        <ele>740.3</ele>
        <time>2019-12-01T09:48:5.000Z</time>
      </trkpt>
      <trkpt lat="41.716469" lon="2.143200">
        <ele>739.3</ele>
        <time>2019-12-01T09:48:16.000Z</time>
      </trkpt>
      <trkpt lat="41.716479" lon="2.143253">
        <ele>738.7</ele>
        <time>2019-12-01T09:48:20.000Z</time>
      </trkpt>
      <trkpt lat="41.716455" lon="2.143439">
        <ele>736.8</ele>
        <time>2019-12-01T09:48:34.000Z</time>
      </trkpt>
      <trkpt lat="41.716452" lon="2.143510">
        <ele>736.4</ele>
        <time>2019-12-01T09:48:37.000Z</time>
      </trkpt>
      <trkpt lat="41.716454" lon="2.143645">
        <ele>735.7</ele>
        <time>2019-12-01T09:48:48.000Z</time>
      </trkpt>
      <trkpt lat="41.716502" lon="2.143826">
        <ele>734.1</ele>
        <time>2019-12-01T09:49:3.000Z</time>
      </trkpt>
      <trkpt lat="41.716548" lon="2.143989">
        <ele>732.6</ele>
        <time>2019-12-01T09:49:16.000Z</time>
      </trkpt>
      <trkpt lat="41.716568" lon="2.144026">
        <ele>732.3</ele>
        <time>2019-12-01T09:49:20.000Z</time>
      </trkpt>
      <trkpt lat="41.716577" lon="2.144039">
        <ele>732.4</ele>
        <time>2019-12-01T09:49:21.000Z</time>
      </trkpt>
      <trkpt lat="41.716699" lon="2.144233">
        <ele>730.8</ele>
        <time>2019-12-01T09:49:36.000Z</time>
      </trkpt>
      <trkpt lat="41.716730" lon="2.144284">
        <ele>730.7</ele>
        <time>2019-12-01T09:49:42.000Z</time>
      </trkpt>
      <trkpt lat="41.716821" lon="2.144417">
        <ele>729.6</ele>
        <time>2019-12-01T09:49:46.000Z</time>
      </trkpt>
      <trkpt lat="41.716880" lon="2.144534">
        <ele>728.9</ele>
        <time>2019-12-01T09:49:58.000Z</time>
      </trkpt>
      <trkpt lat="41.716927" lon="2.144638">
        <ele>727.4</ele>
        <time>2019-12-01T09:50:7.000Z</time>
      </trkpt>
      <trkpt lat="41.716972" lon="2.144714">
        <ele>726.7</ele>
        <time>2019-12-01T09:50:19.000Z</time>
      </trkpt>
      <trkpt lat="41.717012" lon="2.144795">
        <ele>726.2</ele>
        <time>2019-12-01T09:50:22.000Z</time>
      </trkpt>
      <trkpt lat="41.717040" lon="2.144895">
        <ele>724.7</ele>
        <time>2019-12-01T09:50:37.000Z</time>
      </trkpt>
      <trkpt lat="41.717073" lon="2.144992">
        <ele>723.5</ele>
        <time>2019-12-01T09:50:41.000Z</time>
      </trkpt>
      <trkpt lat="41.717103" lon="2.145096">
        <ele>722.1</ele>
        <time>2019-12-01T09:50:51.000Z</time>
      </trkpt>
      <trkpt lat="41.717121" lon="2.145147">
        <ele>722.0</ele>
        <time>2019-12-01T09:50:52.000Z</time>
      </trkpt>
      <trkpt lat="41.717144" lon="2.145207">
        <ele>721.9</ele>
        <time>2019-12-01T09:50:53.000Z</time>
      </trkpt>
      <trkpt lat="41.717189" lon="2.145318">
        <ele>721.2</ele>
        <time>2019-12-01T09:50:54.000Z</time>
      </trkpt>
      <trkpt lat="41.717234" lon="2.145373">
        <ele>720.8</ele>
        <time>2019-12-01T09:50:55.000Z</time>
      </trkpt>
      <trkpt lat="41.717276" lon="2.145406">
        <ele>720.2</ele>
        <time>2019-12-01T09:50:56.000Z</time>
      </trkpt>
      <trkpt lat="41.717321" lon="2.145424">
        <ele>719.9</ele>
        <time>2019-12-01T09:51:9.000Z</time>
      </trkpt>
      <trkpt lat="41.717360" lon="2.145446">
        <ele>719.3</ele>
        <time>2019-12-01T09:51:23.000Z</time>
      </trkpt>
      <trkpt lat="41.717443" lon="2.145488">
        <ele>720.2</ele>
        <time>2019-12-01T09:51:30.000Z</time>
      </trkpt>
      <trkpt lat="41.717453" lon="2.145539">
        <ele>720.0</ele>
        <time>2019-12-01T09:51:43.000Z</time>
      </trkpt>
      <trkpt lat="41.717476" lon="2.145690">
        <ele>718.9</ele>
        <time>2019-12-01T09:51:51.000Z</time>
      </trkpt>
      <trkpt lat="41.717474" lon="2.145758">
        <ele>718.1</ele>
        <time>2019-12-01T09:51:57.000Z</time>
      </trkpt>
      <trkpt lat="41.717477" lon="2.145820">
        <ele>717.4</ele>
        <time>2019-12-01T09:52:2.000Z</time>
      </trkpt>
      <trkpt lat="41.717479" lon="2.145901">
        <ele>715.9</ele>
        <time>2019-12-01T09:52:7.000Z</time>
      </trkpt>
      <trkpt lat="41.717484" lon="2.145932">
        <ele>715.5</ele>
        <time>2019-12-01T09:52:9.000Z</time>
      </trkpt>
      <trkpt lat="41.717485" lon="2.145949">
        <ele>715.2</ele>
        <time>2019-12-01T09:52:10.000Z</time>
      </trkpt>
      <trkpt lat="41.717490" lon="2.146035">
        <ele>713.8</ele>
        <time>2019-12-01T09:52:17.000Z</time>
      </trkpt>
      <trkpt lat="41.717496" lon="2.146095">
        <ele>713.0</ele>
        <time>2019-12-01T09:52:22.000Z</time>
      </trkpt>
      <trkpt lat="41.717499" lon="2.146148">
        <ele>712.2</ele>
        <time>2019-12-01T09:52:23.000Z</time>
      </trkpt>
      <trkpt lat="41.717508" lon="2.146183">
        <ele>711.8</ele>
        <time>2019-12-01T09:52:26.000Z</time>
      </trkpt>
      <trkpt lat="41.717519" lon="2.146214">
        <ele>711.9</ele>
        <time>2019-12-01T09:52:27.000Z</time>
      </trkpt>
      <trkpt lat="41.717533" lon="2.146296">
        <ele>711.8</ele>
        <time>2019-12-01T09:52:36.000Z</time>
      </trkpt>
      <trkpt lat="41.717542" lon="2.146311">
        <ele>712.0</ele>
        <time>2019-12-01T09:52:37.000Z</time>
      </trkpt>
      <trkpt lat="41.717553" lon="2.146354">
        <ele>711.8</ele>
        <time>2019-12-01T09:52:38.000Z</time>
      </trkpt>
      <trkpt lat="41.717577" lon="2.146409">
        <ele>711.6</ele>
        <time>2019-12-01T09:52:41.000Z</time>
      </trkpt>
      <trkpt lat="41.717593" lon="2.146458">
        <ele>711.2</ele>
        <time>2019-12-01T09:52:48.000Z</time>
      </trkpt>
      <trkpt lat="41.717614" lon="2.146513">
        <ele>710.8</ele>
        <time>2019-12-01T09:52:50.000Z</time>
      </trkpt>
      <trkpt lat="41.717638" lon="2.146571">
        <ele>710.6</ele>
        <time>2019-12-01T09:52:53.000Z</time>
      </trkpt>
      <trkpt lat="41.717665" lon="2.146635">
        <ele>710.6</ele>
        <time>2019-12-01T09:52:55.000Z</time>
      </trkpt>
      <trkpt lat="41.717686" lon="2.146697">
        <ele>710.6</ele>
        <time>2019-12-01T09:52:58.000Z</time>
      </trkpt>
      <trkpt lat="41.717717" lon="2.146748">
        <ele>710.5</ele>
        <time>2019-12-01T09:53:6.000Z</time>
      </trkpt>
      <trkpt lat="41.717751" lon="2.146843">
        <ele>709.5</ele>
        <time>2019-12-01T09:53:9.000Z</time>
      </trkpt>
      <trkpt lat="41.717789" lon="2.146920">
        <ele>708.8</ele>
        <time>2019-12-01T09:53:21.000Z</time>
      </trkpt>
      <trkpt lat="41.717848" lon="2.147079">
        <ele>708.8</ele>
        <time>2019-12-01T09:53:32.000Z</time>
      </trkpt>
      <trkpt lat="41.717867" lon="2.147128">
        <ele>708.6</ele>
        <time>2019-12-01T09:53:36.000Z</time>
      </trkpt>
      <trkpt lat="41.717897" lon="2.147204">
        <ele>708.2</ele>
        <time>2019-12-01T09:53:40.000Z</time>
      </trkpt>
      <trkpt lat="41.717919" lon="2.147246">
        <ele>708.0</ele>
        <time>2019-12-01T09:53:43.000Z</time>
      </trkpt>
      <trkpt lat="41.717932" lon="2.147303">
        <ele>708.0</ele>
        <time>2019-12-01T09:53:58.000Z</time>
      </trkpt>
      <trkpt lat="41.717948" lon="2.147358">
        <ele>708.5</ele>
        <time>2019-12-01T09:54:5.000Z</time>
      </trkpt>
      <trkpt lat="41.717964" lon="2.147438">
        <ele>708.9</ele>
        <time>2019-12-01T09:54:13.000Z</time>
      </trkpt>
      <trkpt lat="41.717978" lon="2.147522">
        <ele>708.5</ele>
        <time>2019-12-01T09:54:17.000Z</time>
      </trkpt>
      <trkpt lat="41.718030" lon="2.147710">
        <ele>709.6</ele>
        <time>2019-12-01T09:54:30.000Z</time>
      </trkpt>
      <trkpt lat="41.718003" lon="2.147836">
        <ele>708.8</ele>
        <time>2019-12-01T09:54:45.000Z</time>
      </trkpt>
      <trkpt lat="41.717985" lon="2.148036">
        <ele>707.9</ele>
        <time>2019-12-01T09:54:59.000Z</time>
      </trkpt>
      <trkpt lat="41.718007" lon="2.148138">
        <ele>707.3</ele>
        <time>2019-12-01T09:55:7.000Z</time>
      </trkpt>
      <trkpt lat="41.718014" lon="2.148305">
        <ele>705.6</ele>
        <time>2019-12-01T09:55:20.000Z</time>
      </trkpt>
      <trkpt lat="41.718025" lon="2.148417">
        <ele>704.3</ele>
        <time>2019-12-01T09:55:28.000Z</time>
      </trkpt>
      <trkpt lat="41.718030" lon="2.148435">
        <ele>704.2</ele>
        <time>2019-12-01T09:55:29.000Z</time>
      </trkpt>
      <trkpt lat="41.718035" lon="2.148474">
        <ele>703.7</ele>
        <time>2019-12-01T09:55:32.000Z</time>
      </trkpt>
      <trkpt lat="41.718061" lon="2.148620">
        <ele>702.5</ele>
        <time>2019-12-01T09:55:43.000Z</time>
      </trkpt>
      <trkpt lat="41.718077" lon="2.148745">
        <ele>701.7</ele>
        <time>2019-12-01T09:55:56.000Z</time>
      </trkpt>
      <trkpt lat="41.718113" lon="2.148847">
        <ele>702.1</ele>
        <time>2019-12-01T09:56:9.000Z</time>
      </trkpt>
      <trkpt lat="41.718162" lon="2.148938">
        <ele>701.6</ele>
        <time>2019-12-01T09:56:11.000Z</time>
      </trkpt>
      <trkpt lat="41.718189" lon="2.148991">
        <ele>701.4</ele>
        <time>2019-12-01T09:56:12.000Z</time>
      </trkpt>
      <trkpt lat="41.718217" lon="2.149049">
        <ele>701.2</ele>
        <time>2019-12-01T09:56:13.000Z</time>
      </trkpt>
      <trkpt lat="41.718232" lon="2.149091">
        <ele>701.3</ele>
        <time>2019-12-01T09:56:19.000Z</time>
      </trkpt>
      <trkpt lat="41.718255" lon="2.149170">
        <ele>701.3</ele>
        <time>2019-12-01T09:56:20.000Z</time>
      </trkpt>
      <trkpt lat="41.718278" lon="2.149243">
        <ele>701.0</ele>
        <time>2019-12-01T09:56:34.000Z</time>
      </trkpt>
      <trkpt lat="41.718347" lon="2.149290">
        <ele>702.2</ele>
        <time>2019-12-01T09:56:52.000Z</time>
      </trkpt>
      <trkpt lat="41.718392" lon="2.149292">
        <ele>702.3</ele>
        <time>2019-12-01T09:56:54.000Z</time>
      </trkpt>
      <trkpt lat="41.718471" lon="2.149301">
        <ele>702.2</ele>
        <time>2019-12-01T09:56:56.000Z</time>
      </trkpt>
      <trkpt lat="41.718505" lon="2.149347">
        <ele>701.5</ele>
        <time>2019-12-01T09:57:9.000Z</time>
      </trkpt>
      <trkpt lat="41.718609" lon="2.149389">
        <ele>699.5</ele>
        <time>2019-12-01T09:57:14.000Z</time>
      </trkpt>
      <trkpt lat="41.718743" lon="2.149439">
        <ele>697.9</ele>
        <time>2019-12-01T09:57:26.000Z</time>
      </trkpt>
      <trkpt lat="41.718866" lon="2.149448">
        <ele>696.2</ele>
        <time>2019-12-01T09:57:32.000Z</time>
      </trkpt>
      <trkpt lat="41.718991" lon="2.149455">
        <ele>694.8</ele>
        <time>2019-12-01T09:57:33.000Z</time>
      </trkpt>
      <trkpt lat="41.719076" lon="2.149466">
        <ele>693.6</ele>
        <time>2019-12-01T09:57:46.000Z</time>
      </trkpt>
      <trkpt lat="41.719101" lon="2.149499">
        <ele>692.8</ele>
        <time>2019-12-01T09:57:57.000Z</time>
      </trkpt>
      <trkpt lat="41.719119" lon="2.149555">
        <ele>692.0</ele>
        <time>2019-12-01T09:57:59.000Z</time>
      </trkpt>
      <trkpt lat="41.719141" lon="2.149615">
        <ele>691.2</ele>
        <time>2019-12-01T09:58:6.000Z</time>
      </trkpt>
      <trkpt lat="41.719148" lon="2.149646">
        <ele>690.9</ele>
        <time>2019-12-01T09:58:7.000Z</time>
      </trkpt>
      <trkpt lat="41.719162" lon="2.149696">
        <ele>690.4</ele>
        <time>2019-12-01T09:58:8.000Z</time>
      </trkpt>
      <trkpt lat="41.719182" lon="2.149758">
        <ele>689.8</ele>
        <time>2019-12-01T09:58:18.000Z</time>
      </trkpt>
      <trkpt lat="41.719211" lon="2.149805">
        <ele>688.9</ele>
        <time>2019-12-01T09:58:21.000Z</time>
      </trkpt>
      <trkpt lat="41.719241" lon="2.149876">
        <ele>688.0</ele>
        <time>2019-12-01T09:58:33.000Z</time>
      </trkpt>
      <trkpt lat="41.719284" lon="2.149935">
        <ele>687.2</ele>
        <time>2019-12-01T09:58:49.000Z</time>
      </trkpt>
      <trkpt lat="41.719299" lon="2.149951">
        <ele>687.0</ele>
        <time>2019-12-01T09:59:1.000Z</time>
      </trkpt>
      <trkpt lat="41.719322" lon="2.149984">
        <ele>686.8</ele>
        <time>2019-12-01T09:59:13.000Z</time>
      </trkpt>
      <trkpt lat="41.719300" lon="2.150029">
        <ele>687.0</ele>
        <time>2019-12-01T09:59:30.000Z</time>
      </trkpt>
      <trkpt lat="41.719280" lon="2.150076">
        <ele>687.0</ele>
        <time>2019-12-01T09:59:44.000Z</time>
      </trkpt>
      <trkpt lat="41.719248" lon="2.150120">
        <ele>687.0</ele>
        <time>2019-12-01T09:59:47.000Z</time>
      </trkpt>
      <trkpt lat="41.719217" lon="2.150173">
        <ele>686.9</ele>
        <time>2019-12-01T09:59:48.000Z</time>
      </trkpt>
      <trkpt lat="41.719187" lon="2.150231">
        <ele>686.9</ele>
        <time>2019-12-01T09:59:53.000Z</time>
      </trkpt>
      <trkpt lat="41.719162" lon="2.150279">
        <ele>687.0</ele>
        <time>2019-12-01T09:59:54.000Z</time>
      </trkpt>
      <trkpt lat="41.719120" lon="2.150352">
        <ele>687.2</ele>
        <time>2019-12-01T09:59:56.000Z</time>
      </trkpt>
      <trkpt lat="41.719081" lon="2.150425">
        <ele>687.2</ele>
        <time>2019-12-01T09:59:57.000Z</time>
      </trkpt>
      <trkpt lat="41.719040" lon="2.150494">
        <ele>687.1</ele>
        <time>2019-12-01T10:00:14.000Z</time>
      </trkpt>
      <trkpt lat="41.718964" lon="2.150616">
        <ele>687.1</ele>
        <time>2019-12-01T10:00:30.000Z</time>
      </trkpt>
      <trkpt lat="41.718878" lon="2.150759">
        <ele>688.0</ele>
        <time>2019-12-01T10:00:46.000Z</time>
      </trkpt>
      <trkpt lat="41.718799" lon="2.150890">
        <ele>688.1</ele>
        <time>2019-12-01T10:01:3.000Z</time>
      </trkpt>
      <trkpt lat="41.718687" lon="2.151059">
        <ele>689.4</ele>
        <time>2019-12-01T10:01:16.000Z</time>
      </trkpt>
      <trkpt lat="41.718650" lon="2.151123">
        <ele>689.6</ele>
        <time>2019-12-01T10:01:21.000Z</time>
      </trkpt>
      <trkpt lat="41.718542" lon="2.151291">
        <ele>690.7</ele>
        <time>2019-12-01T10:01:31.000Z</time>
      </trkpt>
      <trkpt lat="41.718481" lon="2.151399">
        <ele>689.9</ele>
        <time>2019-12-01T10:01:33.000Z</time>
      </trkpt>
      <trkpt lat="41.718366" lon="2.151572">
        <ele>690.1</ele>
        <time>2019-12-01T10:01:49.000Z</time>
      </trkpt>
      <trkpt lat="41.718269" lon="2.151747">
        <ele>690.2</ele>
        <time>2019-12-01T10:02:4.000Z</time>
      </trkpt>
      <trkpt lat="41.718184" lon="2.151853">
        <ele>690.7</ele>
        <time>2019-12-01T10:02:19.000Z</time>
      </trkpt>
      <trkpt lat="41.718149" lon="2.151901">
        <ele>690.9</ele>
        <time>2019-12-01T10:02:38.000Z</time>
      </trkpt>
      <trkpt lat="41.718131" lon="2.151941">
        <ele>690.8</ele>
        <time>2019-12-01T10:02:55.000Z</time>
      </trkpt>
      <trkpt lat="41.718163" lon="2.151983">
        <ele>690.5</ele>
        <time>2019-12-01T10:02:57.000Z</time>
      </trkpt>
      <trkpt lat="41.718260" lon="2.152127">
        <ele>690.4</ele>
        <time>2019-12-01T10:03:10.000Z</time>
      </trkpt>
      <trkpt lat="41.718325" lon="2.152228">
        <ele>691.3</ele>
        <time>2019-12-01T10:03:18.000Z</time>
      </trkpt>
      <trkpt lat="41.718354" lon="2.152282">
        <ele>691.7</ele>
        <time>2019-12-01T10:03:26.000Z</time>
      </trkpt>
      <trkpt lat="41.718384" lon="2.152317">
        <ele>691.9</ele>
        <time>2019-12-01T10:03:42.000Z</time>
      </trkpt>
      <trkpt lat="41.718417" lon="2.152344">
        <ele>692.1</ele>
        <time>2019-12-01T10:04:10.000Z</time>
      </trkpt>
      <trkpt lat="41.718456" lon="2.152372">
        <ele>692.8</ele>
        <time>2019-12-01T10:04:16.000Z</time>
      </trkpt>
      <trkpt lat="41.718494" lon="2.152389">
        <ele>693.7</ele>
        <time>2019-12-01T10:04:30.000Z</time>
      </trkpt>
      <trkpt lat="41.718519" lon="2.152399">
        <ele>694.2</ele>
        <time>2019-12-01T10:04:35.000Z</time>
      </trkpt>
      <trkpt lat="41.718582" lon="2.152411">
        <ele>694.7</ele>
        <time>2019-12-01T10:04:40.000Z</time>
      </trkpt>
      <trkpt lat="41.718646" lon="2.152370">
        <ele>695.0</ele>
        <time>2019-12-01T10:04:45.000Z</time>
      </trkpt>
      <trkpt lat="41.718709" lon="2.152370">
        <ele>695.0</ele>
        <time>2019-12-01T10:04:51.000Z</time>
      </trkpt>
      <trkpt lat="41.718846" lon="2.152441">
        <ele>695.0</ele>
        <time>2019-12-01T10:05:7.000Z</time>
      </trkpt>
      <trkpt lat="41.719013" lon="2.152560">
        <ele>695.9</ele>
        <time>2019-12-01T10:05:21.000Z</time>
      </trkpt>
      <trkpt lat="41.719081" lon="2.152600">
        <ele>696.0</ele>
        <time>2019-12-01T10:05:23.000Z</time>
      </trkpt>
      <trkpt lat="41.719196" lon="2.152686">
        <ele>696.1</ele>
        <time>2019-12-01T10:05:39.000Z</time>
      </trkpt>
      <trkpt lat="41.719282" lon="2.152737">
        <ele>696.7</ele>
        <time>2019-12-01T10:05:47.000Z</time>
      </trkpt>
      <trkpt lat="41.719346" lon="2.152782">
        <ele>697.1</ele>
        <time>2019-12-01T10:05:51.000Z</time>
      </trkpt>
      <trkpt lat="41.719427" lon="2.152835">
        <ele>697.7</ele>
        <time>2019-12-01T10:06:4.000Z</time>
      </trkpt>
      <trkpt lat="41.719494" lon="2.152881">
        <ele>697.9</ele>
        <time>2019-12-01T10:06:15.000Z</time>
      </trkpt>
      <trkpt lat="41.719591" lon="2.152930">
        <ele>698.4</ele>
        <time>2019-12-01T10:06:29.000Z</time>
      </trkpt>
      <trkpt lat="41.719611" lon="2.152897">
        <ele>699.1</ele>
        <time>2019-12-01T10:06:40.000Z</time>
      </trkpt>
      <trkpt lat="41.719607" lon="2.152810">
        <ele>699.5</ele>
        <time>2019-12-01T10:06:46.000Z</time>
      </trkpt>
      <trkpt lat="41.719627" lon="2.152706">
        <ele>699.8</ele>
        <time>2019-12-01T10:07:2.000Z</time>
      </trkpt>
      <trkpt lat="41.719675" lon="2.152434">
        <ele>701.2</ele>
        <time>2019-12-01T10:07:16.000Z</time>
      </trkpt>
      <trkpt lat="41.719675" lon="2.152297">
        <ele>700.0</ele>
        <time>2019-12-01T10:07:23.000Z</time>
      </trkpt>
      <trkpt lat="41.719687" lon="2.152191">
        <ele>698.6</ele>
        <time>2019-12-01T10:07:31.000Z</time>
      </trkpt>
      <trkpt lat="41.719718" lon="2.152011">
        <ele>696.0</ele>
        <time>2019-12-01T10:07:45.000Z</time>
      </trkpt>
      <trkpt lat="41.719743" lon="2.151908">
        <ele>696.2</ele>
        <time>2019-12-01T10:07:59.000Z</time>
      </trkpt>
      <trkpt lat="41.719806" lon="2.151767">
        <ele>695.1</ele>
        <time>2019-12-01T10:08:5.000Z</time>
      </trkpt>
      <trkpt lat="41.719840" lon="2.151711">
        <ele>694.2</ele>
        <time>2019-12-01T10:08:8.000Z</time>
      </trkpt>
      <trkpt lat="41.719916" lon="2.151543">
        <ele>693.1</ele>
        <time>2019-12-01T10:08:25.000Z</time>
      </trkpt>
      <trkpt lat="41.719947" lon="2.151495">
        <ele>693.0</ele>
        <time>2019-12-01T10:08:30.000Z</time>
      </trkpt>
      <trkpt lat="41.719983" lon="2.151438">
        <ele>692.1</ele>
        <time>2019-12-01T10:08:36.000Z</time>
      </trkpt>
      <trkpt lat="41.720092" lon="2.151288">
        <ele>691.0</ele>
        <time>2019-12-01T10:08:51.000Z</time>
      </trkpt>
      <trkpt lat="41.720165" lon="2.151191">
        <ele>689.3</ele>
        <time>2019-12-01T10:09:5.000Z</time>
      </trkpt>
      <trkpt lat="41.720241" lon="2.151087">
        <ele>688.9</ele>
        <time>2019-12-01T10:09:11.000Z</time>
      </trkpt>
      <trkpt lat="41.720340" lon="2.150974">
        <ele>687.6</ele>
        <time>2019-12-01T10:09:26.000Z</time>
      </trkpt>
      <trkpt lat="41.720440" lon="2.150841">
        <ele>685.8</ele>
        <time>2019-12-01T10:09:39.000Z</time>
      </trkpt>
      <trkpt lat="41.720521" lon="2.150771">
        <ele>685.1</ele>
        <time>2019-12-01T10:09:50.000Z</time>
      </trkpt>
      <trkpt lat="41.720560" lon="2.150743">
        <ele>685.2</ele>
        <time>2019-12-01T10:09:54.000Z</time>
      </trkpt>
      <trkpt lat="41.720722" lon="2.150572">
        <ele>683.7</ele>
        <time>2019-12-01T10:10:12.000Z</time>
      </trkpt>
      <trkpt lat="41.720734" lon="2.150556">
        <ele>683.7</ele>
        <time>2019-12-01T10:10:14.000Z</time>
      </trkpt>
      <trkpt lat="41.720754" lon="2.150542">
        <ele>683.8</ele>
        <time>2019-12-01T10:10:16.000Z</time>
      </trkpt>
      <trkpt lat="41.720786" lon="2.150509">
        <ele>683.7</ele>
        <time>2019-12-01T10:10:19.000Z</time>
      </trkpt>
      <trkpt lat="41.720883" lon="2.150419">
        <ele>683.0</ele>
        <time>2019-12-01T10:10:35.000Z</time>
      </trkpt>
      <trkpt lat="41.720927" lon="2.150377">
        <ele>682.6</ele>
        <time>2019-12-01T10:10:36.000Z</time>
      </trkpt>
      <trkpt lat="41.720963" lon="2.150342">
        <ele>682.1</ele>
        <time>2019-12-01T10:10:39.000Z</time>
      </trkpt>
      <trkpt lat="41.721042" lon="2.150311">
        <ele>681.7</ele>
        <time>2019-12-01T10:10:49.000Z</time>
      </trkpt>
      <trkpt lat="41.721139" lon="2.150280">
        <ele>681.1</ele>
        <time>2019-12-01T10:10:52.000Z</time>
      </trkpt>
      <trkpt lat="41.721254" lon="2.150163">
        <ele>679.3</ele>
        <time>2019-12-01T10:11:9.000Z</time>
      </trkpt>
      <trkpt lat="41.721313" lon="2.150099">
        <ele>678.2</ele>
        <time>2019-12-01T10:11:24.000Z</time>
      </trkpt>
      <trkpt lat="41.721390" lon="2.150068">
        <ele>678.1</ele>
        <time>2019-12-01T10:11:34.000Z</time>
      </trkpt>
      <trkpt lat="41.721458" lon="2.150037">
        <ele>678.1</ele>
        <time>2019-12-01T10:11:36.000Z</time>
      </trkpt>
      <trkpt lat="41.721535" lon="2.150012">
        <ele>677.4</ele>
        <time>2019-12-01T10:11:41.000Z</time>
      </trkpt>
      <trkpt lat="41.721665" lon="2.149971">
        <ele>676.4</ele>
        <time>2019-12-01T10:11:56.000Z</time>
      </trkpt>
      <trkpt lat="41.721715" lon="2.149951">
        <ele>675.8</ele>
        <time>2019-12-01T10:11:58.000Z</time>
      </trkpt>
      <trkpt lat="41.721834" lon="2.149915">
        <ele>675.1</ele>
        <time>2019-12-01T10:12:2.000Z</time>
      </trkpt>
      <trkpt lat="41.721876" lon="2.149893">
        <ele>674.7</ele>
        <time>2019-12-01T10:12:17.000Z</time>
      </trkpt>
      <trkpt lat="41.721944" lon="2.149849">
        <ele>673.7</ele>
        <time>2019-12-01T10:12:19.000Z</time>
      </trkpt>
      <trkpt lat="41.721989" lon="2.149826">
        <ele>673.2</ele>
        <time>2019-12-01T10:12:20.000Z</time>
      </trkpt>
      <trkpt lat="41.722061" lon="2.149771">
        <ele>672.0</ele>
        <time>2019-12-01T10:12:29.000Z</time>
      </trkpt>
      <trkpt lat="41.722156" lon="2.149696">
        <ele>670.3</ele>
        <time>2019-12-01T10:12:41.000Z</time>
      </trkpt>
      <trkpt lat="41.722222" lon="2.149665">
        <ele>668.8</ele>
        <time>2019-12-01T10:12:54.000Z</time>
      </trkpt>
      <trkpt lat="41.722276" lon="2.149627">
        <ele>667.4</ele>
        <time>2019-12-01T10:13:4.000Z</time>
      </trkpt>
      <trkpt lat="41.722370" lon="2.149598">
        <ele>665.3</ele>
        <time>2019-12-01T10:13:19.000Z</time>
      </trkpt>
      <trkpt lat="41.722429" lon="2.149561">
        <ele>664.1</ele>
        <time>2019-12-01T10:13:31.000Z</time>
      </trkpt>
      <trkpt lat="41.722489" lon="2.149509">
        <ele>663.1</ele>
        <time>2019-12-01T10:13:38.000Z</time>
      </trkpt>
      <trkpt lat="41.722516" lon="2.149489">
        <ele>662.7</ele>
        <time>2019-12-01T10:13:43.000Z</time>
      </trkpt>
      <trkpt lat="41.722540" lon="2.149473">
        <ele>662.3</ele>
        <time>2019-12-01T10:13:58.000Z</time>
      </trkpt>
      <trkpt lat="41.722579" lon="2.149451">
        <ele>661.8</ele>
        <time>2019-12-01T10:14:0.000Z</time>
      </trkpt>
      <trkpt lat="41.722635" lon="2.149407">
        <ele>660.9</ele>
        <time>2019-12-01T10:14:1.000Z</time>
      </trkpt>
      <trkpt lat="41.722750" lon="2.149436">
        <ele>660.9</ele>
        <time>2019-12-01T10:14:15.000Z</time>
      </trkpt>
      <trkpt lat="41.722897" lon="2.149387">
        <ele>660.3</ele>
        <time>2019-12-01T10:14:28.000Z</time>
      </trkpt>
      <trkpt lat="41.722944" lon="2.149356">
        <ele>660.1</ele>
        <time>2019-12-01T10:14:32.000Z</time>
      </trkpt>
      <trkpt lat="41.722994" lon="2.149305">
        <ele>659.6</ele>
        <time>2019-12-01T10:14:33.000Z</time>
      </trkpt>
      <trkpt lat="41.723059" lon="2.149252">
        <ele>659.2</ele>
        <time>2019-12-01T10:14:34.000Z</time>
      </trkpt>
      <trkpt lat="41.723105" lon="2.149212">
        <ele>658.6</ele>
        <time>2019-12-01T10:14:35.000Z</time>
      </trkpt>
      <trkpt lat="41.723134" lon="2.149186">
        <ele>658.0</ele>
        <time>2019-12-01T10:14:49.000Z</time>
      </trkpt>
      <trkpt lat="41.723201" lon="2.149164">
        <ele>657.0</ele>
        <time>2019-12-01T10:15:0.000Z</time>
      </trkpt>
      <trkpt lat="41.723237" lon="2.149147">
        <ele>656.7</ele>
        <time>2019-12-01T10:15:3.000Z</time>
      </trkpt>
      <trkpt lat="41.723289" lon="2.149139">
        <ele>656.6</ele>
        <time>2019-12-01T10:15:9.000Z</time>
      </trkpt>
      <trkpt lat="41.723400" lon="2.149150">
        <ele>656.5</ele>
        <time>2019-12-01T10:15:16.000Z</time>
      </trkpt>
      <trkpt lat="41.723544" lon="2.149173">
        <ele>655.7</ele>
        <time>2019-12-01T10:15:30.000Z</time>
      </trkpt>
      <trkpt lat="41.723643" lon="2.149157">
        <ele>654.8</ele>
        <time>2019-12-01T10:15:44.000Z</time>
      </trkpt>
      <trkpt lat="41.723734" lon="2.149113">
        <ele>653.4</ele>
        <time>2019-12-01T10:15:57.000Z</time>
      </trkpt>
      <trkpt lat="41.723899" lon="2.149069">
        <ele>652.6</ele>
        <time>2019-12-01T10:16:10.000Z</time>
      </trkpt>
      <trkpt lat="41.724045" lon="2.148978">
        <ele>651.2</ele>
        <time>2019-12-01T10:16:21.000Z</time>
      </trkpt>
      <trkpt lat="41.724086" lon="2.148954">
        <ele>650.9</ele>
        <time>2019-12-01T10:16:22.000Z</time>
      </trkpt>
      <trkpt lat="41.724126" lon="2.148932">
        <ele>650.6</ele>
        <time>2019-12-01T10:16:23.000Z</time>
      </trkpt>
      <trkpt lat="41.724176" lon="2.148903">
        <ele>650.0</ele>
        <time>2019-12-01T10:16:24.000Z</time>
      </trkpt>
      <trkpt lat="41.724232" lon="2.148890">
        <ele>649.7</ele>
        <time>2019-12-01T10:16:25.000Z</time>
      </trkpt>
      <trkpt lat="41.724314" lon="2.148879">
        <ele>649.4</ele>
        <time>2019-12-01T10:16:32.000Z</time>
      </trkpt>
      <trkpt lat="41.724462" lon="2.148859">
        <ele>648.9</ele>
        <time>2019-12-01T10:16:48.000Z</time>
      </trkpt>
      <trkpt lat="41.724492" lon="2.148852">
        <ele>648.7</ele>
        <time>2019-12-01T10:16:54.000Z</time>
      </trkpt>
      <trkpt lat="41.724521" lon="2.148863">
        <ele>649.0</ele>
        <time>2019-12-01T10:16:55.000Z</time>
      </trkpt>
      <trkpt lat="41.724628" lon="2.148842">
        <ele>649.0</ele>
        <time>2019-12-01T10:17:5.000Z</time>
      </trkpt>
      <trkpt lat="41.724648" lon="2.148833">
        <ele>648.9</ele>
        <time>2019-12-01T10:17:7.000Z</time>
      </trkpt>
      <trkpt lat="41.724763" lon="2.148720">
        <ele>646.5</ele>
        <time>2019-12-01T10:17:19.000Z</time>
      </trkpt>
      <trkpt lat="41.724810" lon="2.148694">
        <ele>646.3</ele>
        <time>2019-12-01T10:17:31.000Z</time>
      </trkpt>
      <trkpt lat="41.724875" lon="2.148635">
        <ele>646.1</ele>
        <time>2019-12-01T10:17:37.000Z</time>
      </trkpt>
      <trkpt lat="41.724932" lon="2.148586">
        <ele>646.0</ele>
        <time>2019-12-01T10:17:48.000Z</time>
      </trkpt>
      <trkpt lat="41.725031" lon="2.148531">
        <ele>645.7</ele>
        <time>2019-12-01T10:17:59.000Z</time>
      </trkpt>
      <trkpt lat="41.725108" lon="2.148489">
        <ele>645.6</ele>
        <time>2019-12-01T10:18:0.000Z</time>
      </trkpt>
      <trkpt lat="41.725247" lon="2.148413">
        <ele>644.1</ele>
        <time>2019-12-01T10:18:14.000Z</time>
      </trkpt>
      <trkpt lat="41.725331" lon="2.148360">
        <ele>643.9</ele>
        <time>2019-12-01T10:18:15.000Z</time>
      </trkpt>
      <trkpt lat="41.725388" lon="2.148318">
        <ele>643.4</ele>
        <time>2019-12-01T10:18:27.000Z</time>
      </trkpt>
      <trkpt lat="41.725442" lon="2.148287">
        <ele>643.0</ele>
        <time>2019-12-01T10:18:28.000Z</time>
      </trkpt>
      <trkpt lat="41.725555" lon="2.148223">
        <ele>642.1</ele>
        <time>2019-12-01T10:18:42.000Z</time>
      </trkpt>
      <trkpt lat="41.725625" lon="2.148181">
        <ele>641.5</ele>
        <time>2019-12-01T10:18:47.000Z</time>
      </trkpt>
      <trkpt lat="41.725677" lon="2.148144">
        <ele>640.8</ele>
        <time>2019-12-01T10:18:48.000Z</time>
      </trkpt>
      <trkpt lat="41.725737" lon="2.148117">
        <ele>640.5</ele>
        <time>2019-12-01T10:18:49.000Z</time>
      </trkpt>
      <trkpt lat="41.725799" lon="2.148106">
        <ele>640.6</ele>
        <time>2019-12-01T10:19:3.000Z</time>
      </trkpt>
      <trkpt lat="41.725825" lon="2.148099">
        <ele>640.5</ele>
        <time>2019-12-01T10:19:7.000Z</time>
      </trkpt>
      <trkpt lat="41.725868" lon="2.148091">
        <ele>640.3</ele>
        <time>2019-12-01T10:19:8.000Z</time>
      </trkpt>
      <trkpt lat="41.725909" lon="2.148082">
        <ele>640.1</ele>
        <time>2019-12-01T10:19:19.000Z</time>
      </trkpt>
      <trkpt lat="41.725943" lon="2.148073">
        <ele>639.8</ele>
        <time>2019-12-01T10:19:23.000Z</time>
      </trkpt>
      <trkpt lat="41.725962" lon="2.148068">
        <ele>639.7</ele>
        <time>2019-12-01T10:19:24.000Z</time>
      </trkpt>
      <trkpt lat="41.725974" lon="2.148061">
        <ele>639.4</ele>
        <time>2019-12-01T10:19:25.000Z</time>
      </trkpt>
      <trkpt lat="41.726121" lon="2.147940">
        <ele>636.6</ele>
        <time>2019-12-01T10:19:41.000Z</time>
      </trkpt>
      <trkpt lat="41.726279" lon="2.147803">
        <ele>634.7</ele>
        <time>2019-12-01T10:19:55.000Z</time>
      </trkpt>
      <trkpt lat="41.726421" lon="2.147721">
        <ele>633.6</ele>
        <time>2019-12-01T10:20:10.000Z</time>
      </trkpt>
      <trkpt lat="41.726479" lon="2.147679">
        <ele>632.5</ele>
        <time>2019-12-01T10:20:16.000Z</time>
      </trkpt>
      <trkpt lat="41.726543" lon="2.147641">
        <ele>631.3</ele>
        <time>2019-12-01T10:20:17.000Z</time>
      </trkpt>
      <trkpt lat="41.726590" lon="2.147610">
        <ele>630.6</ele>
        <time>2019-12-01T10:20:29.000Z</time>
      </trkpt>
      <trkpt lat="41.726630" lon="2.147593">
        <ele>630.4</ele>
        <time>2019-12-01T10:20:30.000Z</time>
      </trkpt>
      <trkpt lat="41.726669" lon="2.147573">
        <ele>629.9</ele>
        <time>2019-12-01T10:20:31.000Z</time>
      </trkpt>
      <trkpt lat="41.726729" lon="2.147557">
        <ele>629.2</ele>
        <time>2019-12-01T10:20:32.000Z</time>
      </trkpt>
      <trkpt lat="41.726795" lon="2.147540">
        <ele>628.4</ele>
        <time>2019-12-01T10:20:33.000Z</time>
      </trkpt>
      <trkpt lat="41.726876" lon="2.147542">
        <ele>627.8</ele>
        <time>2019-12-01T10:20:47.000Z</time>
      </trkpt>
      <trkpt lat="41.726983" lon="2.147551">
        <ele>627.3</ele>
        <time>2019-12-01T10:21:0.000Z</time>
      </trkpt>
      <trkpt lat="41.727077" lon="2.147553">
        <ele>626.0</ele>
        <time>2019-12-01T10:21:3.000Z</time>
      </trkpt>
      <trkpt lat="41.727204" lon="2.147562">
        <ele>624.7</ele>
        <time>2019-12-01T10:21:16.000Z</time>
      </trkpt>
      <trkpt lat="41.727334" lon="2.147533">
        <ele>622.4</ele>
        <time>2019-12-01T10:21:30.000Z</time>
      </trkpt>
      <trkpt lat="41.727456" lon="2.147553">
        <ele>620.6</ele>
        <time>2019-12-01T10:21:44.000Z</time>
      </trkpt>
      <trkpt lat="41.727508" lon="2.147575">
        <ele>619.8</ele>
        <time>2019-12-01T10:21:48.000Z</time>
      </trkpt>
      <trkpt lat="41.727580" lon="2.147573">
        <ele>618.9</ele>
        <time>2019-12-01T10:21:52.000Z</time>
      </trkpt>
      <trkpt lat="41.727653" lon="2.147595">
        <ele>618.3</ele>
        <time>2019-12-01T10:21:53.000Z</time>
      </trkpt>
      <trkpt lat="41.727713" lon="2.147611">
        <ele>617.4</ele>
        <time>2019-12-01T10:22:7.000Z</time>
      </trkpt>
      <trkpt lat="41.727795" lon="2.147644">
        <ele>615.9</ele>
        <time>2019-12-01T10:22:20.000Z</time>
      </trkpt>
      <trkpt lat="41.727847" lon="2.147653">
        <ele>614.4</ele>
        <time>2019-12-01T10:22:26.000Z</time>
      </trkpt>
      <trkpt lat="41.727864" lon="2.147626">
        <ele>613.9</ele>
        <time>2019-12-01T10:22:27.000Z</time>
      </trkpt>
      <trkpt lat="41.727872" lon="2.147602">
        <ele>613.6</ele>
        <time>2019-12-01T10:22:28.000Z</time>
      </trkpt>
      <trkpt lat="41.727917" lon="2.147462">
        <ele>612.2</ele>
        <time>2019-12-01T10:22:40.000Z</time>
      </trkpt>
      <trkpt lat="41.727987" lon="2.147301">
        <ele>610.1</ele>
        <time>2019-12-01T10:22:53.000Z</time>
      </trkpt>
      <trkpt lat="41.728010" lon="2.147235">
        <ele>608.8</ele>
        <time>2019-12-01T10:23:8.000Z</time>
      </trkpt>
      <trkpt lat="41.728070" lon="2.147195">
        <ele>607.8</ele>
        <time>2019-12-01T10:23:28.000Z</time>
      </trkpt>
      <trkpt lat="41.728108" lon="2.147164">
        <ele>607.3</ele>
        <time>2019-12-01T10:23:43.000Z</time>
      </trkpt>
      <trkpt lat="41.728156" lon="2.147148">
        <ele>607.1</ele>
        <time>2019-12-01T10:23:50.000Z</time>
      </trkpt>
      <trkpt lat="41.728197" lon="2.147135">
        <ele>607.0</ele>
        <time>2019-12-01T10:23:52.000Z</time>
      </trkpt>
      <trkpt lat="41.728210" lon="2.147175">
        <ele>606.8</ele>
        <time>2019-12-01T10:23:53.000Z</time>
      </trkpt>
      <trkpt lat="41.728219" lon="2.147272">
        <ele>606.7</ele>
        <time>2019-12-01T10:24:0.000Z</time>
      </trkpt>
      <trkpt lat="41.728233" lon="2.147394">
        <ele>606.0</ele>
        <time>2019-12-01T10:24:13.000Z</time>
      </trkpt>
      <trkpt lat="41.728239" lon="2.147471">
        <ele>605.5</ele>
        <time>2019-12-01T10:24:16.000Z</time>
      </trkpt>
      <trkpt lat="41.728248" lon="2.147522">
        <ele>605.3</ele>
        <time>2019-12-01T10:24:21.000Z</time>
      </trkpt>
      <trkpt lat="41.728257" lon="2.147589">
        <ele>605.2</ele>
        <time>2019-12-01T10:24:24.000Z</time>
      </trkpt>
      <trkpt lat="41.728266" lon="2.147660">
        <ele>605.0</ele>
        <time>2019-12-01T10:24:32.000Z</time>
      </trkpt>
      <trkpt lat="41.728273" lon="2.147759">
        <ele>604.7</ele>
        <time>2019-12-01T10:24:33.000Z</time>
      </trkpt>
      <trkpt lat="41.728285" lon="2.147909">
        <ele>604.6</ele>
        <time>2019-12-01T10:24:47.000Z</time>
      </trkpt>
      <trkpt lat="41.728294" lon="2.147987">
        <ele>604.8</ele>
        <time>2019-12-01T10:24:54.000Z</time>
      </trkpt>
      <trkpt lat="41.728311" lon="2.148129">
        <ele>604.7</ele>
        <time>2019-12-01T10:25:4.000Z</time>
      </trkpt>
      <trkpt lat="41.728377" lon="2.148126">
        <ele>602.7</ele>
        <time>2019-12-01T10:25:17.000Z</time>
      </trkpt>
      <trkpt lat="41.728416" lon="2.148124">
        <ele>601.4</ele>
        <time>2019-12-01T10:25:21.000Z</time>
      </trkpt>
      <trkpt lat="41.728457" lon="2.148115">
        <ele>600.0</ele>
        <time>2019-12-01T10:25:22.000Z</time>
      </trkpt>
      <trkpt lat="41.728554" lon="2.148097">
        <ele>601.3</ele>
        <time>2019-12-01T10:25:31.000Z</time>
      </trkpt>
      <trkpt lat="41.728632" lon="2.148086">
        <ele>603.0</ele>
        <time>2019-12-01T10:25:38.000Z</time>
      </trkpt>
      <trkpt lat="41.728660" lon="2.148088">
        <ele>603.5</ele>
        <time>2019-12-01T10:25:39.000Z</time>
      </trkpt>
      <trkpt lat="41.728695" lon="2.148084">
        <ele>604.1</ele>
        <time>2019-12-01T10:25:40.000Z</time>
      </trkpt>
      <trkpt lat="41.728752" lon="2.148077">
        <ele>605.2</ele>
        <time>2019-12-01T10:25:51.000Z</time>
      </trkpt>
      <trkpt lat="41.728784" lon="2.148073">
        <ele>606.0</ele>
        <time>2019-12-01T10:25:53.000Z</time>
      </trkpt>
      <trkpt lat="41.728822" lon="2.148009">
        <ele>606.7</ele>
        <time>2019-12-01T10:25:54.000Z</time>
      </trkpt>
      <trkpt lat="41.728860" lon="2.147956">
        <ele>607.3</ele>
        <time>2019-12-01T10:26:7.000Z</time>
      </trkpt>
      <trkpt lat="41.728898" lon="2.147905">
        <ele>607.8</ele>
        <time>2019-12-01T10:26:13.000Z</time>
      </trkpt>
      <trkpt lat="41.728955" lon="2.147850">
        <ele>608.8</ele>
        <time>2019-12-01T10:26:31.000Z</time>
      </trkpt>
      <trkpt lat="41.729068" lon="2.147681">
        <ele>610.0</ele>
        <time>2019-12-01T10:26:41.000Z</time>
      </trkpt>
      <trkpt lat="41.729120" lon="2.147611">
        <ele>610.1</ele>
        <time>2019-12-01T10:26:42.000Z</time>
      </trkpt>
      <trkpt lat="41.729205" lon="2.147538">
        <ele>610.3</ele>
        <time>2019-12-01T10:26:56.000Z</time>
      </trkpt>
      <trkpt lat="41.729234" lon="2.147505">
        <ele>610.5</ele>
        <time>2019-12-01T10:27:0.000Z</time>
      </trkpt>
      <trkpt lat="41.729293" lon="2.147443">
        <ele>610.8</ele>
        <time>2019-12-01T10:27:1.000Z</time>
      </trkpt>
      <trkpt lat="41.729390" lon="2.147352">
        <ele>611.0</ele>
        <time>2019-12-01T10:27:15.000Z</time>
      </trkpt>
      <trkpt lat="41.729413" lon="2.147327">
        <ele>611.0</ele>
        <time>2019-12-01T10:27:21.000Z</time>
      </trkpt>
      <trkpt lat="41.729453" lon="2.147287">
        <ele>611.0</ele>
        <time>2019-12-01T10:27:24.000Z</time>
      </trkpt>
      <trkpt lat="41.729500" lon="2.147243">
        <ele>611.0</ele>
        <time>2019-12-01T10:27:25.000Z</time>
      </trkpt>
      <trkpt lat="41.729571" lon="2.147174">
        <ele>611.2</ele>
        <time>2019-12-01T10:27:26.000Z</time>
      </trkpt>
      <trkpt lat="41.729665" lon="2.147095">
        <ele>611.5</ele>
        <time>2019-12-01T10:27:40.000Z</time>
      </trkpt>
      <trkpt lat="41.729674" lon="2.146955">
        <ele>610.1</ele>
        <time>2019-12-01T10:27:54.000Z</time>
      </trkpt>
      <trkpt lat="41.729679" lon="2.146893">
        <ele>609.8</ele>
        <time>2019-12-01T10:27:55.000Z</time>
      </trkpt>
      <trkpt lat="41.729685" lon="2.146789">
        <ele>609.3</ele>
        <time>2019-12-01T10:27:56.000Z</time>
      </trkpt>
      <trkpt lat="41.729697" lon="2.146639">
        <ele>609.1</ele>
        <time>2019-12-01T10:28:12.000Z</time>
      </trkpt>
      <trkpt lat="41.729715" lon="2.146380">
        <ele>609.3</ele>
        <time>2019-12-01T10:28:27.000Z</time>
      </trkpt>
      <trkpt lat="41.729738" lon="2.146141">
        <ele>610.0</ele>
        <time>2019-12-01T10:28:43.000Z</time>
      </trkpt>
      <trkpt lat="41.729751" lon="2.145920">
        <ele>609.8</ele>
        <time>2019-12-01T10:28:57.000Z</time>
      </trkpt>
      <trkpt lat="41.729788" lon="2.145602">
        <ele>609.5</ele>
        <time>2019-12-01T10:29:13.000Z</time>
      </trkpt>
      <trkpt lat="41.729794" lon="2.145520">
        <ele>609.2</ele>
        <time>2019-12-01T10:29:23.000Z</time>
      </trkpt>
      <trkpt lat="41.729796" lon="2.145425">
        <ele>609.5</ele>
        <time>2019-12-01T10:29:24.000Z</time>
      </trkpt>
      <trkpt lat="41.729799" lon="2.145340">
        <ele>610.4</ele>
        <time>2019-12-01T10:29:25.000Z</time>
      </trkpt>
      <trkpt lat="41.729758" lon="2.145248">
        <ele>611.1</ele>
        <time>2019-12-01T10:29:35.000Z</time>
      </trkpt>
      <trkpt lat="41.729661" lon="2.145121">
        <ele>611.8</ele>
        <time>2019-12-01T10:29:48.000Z</time>
      </trkpt>
      <trkpt lat="41.729607" lon="2.145053">
        <ele>612.6</ele>
        <time>2019-12-01T10:29:53.000Z</time>
      </trkpt>
      <trkpt lat="41.729535" lon="2.144962">
        <ele>613.6</ele>
        <time>2019-12-01T10:30:1.000Z</time>
      </trkpt>
      <trkpt lat="41.729424" lon="2.144834">
        <ele>614.5</ele>
        <time>2019-12-01T10:30:14.000Z</time>
      </trkpt>
      <trkpt lat="41.729382" lon="2.144776">
        <ele>614.6</ele>
        <time>2019-12-01T10:30:16.000Z</time>
      </trkpt>
      <trkpt lat="41.729363" lon="2.144728">
        <ele>614.5</ele>
        <time>2019-12-01T10:30:24.000Z</time>
      </trkpt>
      <trkpt lat="41.729354" lon="2.144652">
        <ele>614.4</ele>
        <time>2019-12-01T10:30:26.000Z</time>
      </trkpt>
      <trkpt lat="41.729377" lon="2.144601">
        <ele>614.7</ele>
        <time>2019-12-01T10:30:27.000Z</time>
      </trkpt>
      <trkpt lat="41.729406" lon="2.144533">
        <ele>614.7</ele>
        <time>2019-12-01T10:30:28.000Z</time>
      </trkpt>
      <trkpt lat="41.729442" lon="2.144464">
        <ele>614.5</ele>
        <time>2019-12-01T10:30:42.000Z</time>
      </trkpt>
      <trkpt lat="41.729479" lon="2.144396">
        <ele>614.3</ele>
        <time>2019-12-01T10:30:49.000Z</time>
      </trkpt>
      <trkpt lat="41.729517" lon="2.144300">
        <ele>613.8</ele>
        <time>2019-12-01T10:30:53.000Z</time>
      </trkpt>
      <trkpt lat="41.729571" lon="2.144210">
        <ele>614.3</ele>
        <time>2019-12-01T10:30:54.000Z</time>
      </trkpt>
      <trkpt lat="41.729637" lon="2.144081">
        <ele>614.4</ele>
        <time>2019-12-01T10:31:10.000Z</time>
      </trkpt>
      <trkpt lat="41.729678" lon="2.144004">
        <ele>614.2</ele>
        <time>2019-12-01T10:31:11.000Z</time>
      </trkpt>
      <trkpt lat="41.729754" lon="2.143873">
        <ele>614.6</ele>
        <time>2019-12-01T10:31:25.000Z</time>
      </trkpt>
      <trkpt lat="41.729792" lon="2.143800">
        <ele>614.7</ele>
        <time>2019-12-01T10:31:39.000Z</time>
      </trkpt>
      <trkpt lat="41.729873" lon="2.143738">
        <ele>615.8</ele>
        <time>2019-12-01T10:31:42.000Z</time>
      </trkpt>
      <trkpt lat="41.729953" lon="2.143683">
        <ele>616.6</ele>
        <time>2019-12-01T10:31:43.000Z</time>
      </trkpt>
      <trkpt lat="41.730020" lon="2.143628">
        <ele>617.0</ele>
        <time>2019-12-01T10:31:58.000Z</time>
      </trkpt>
      <trkpt lat="41.730115" lon="2.143537">
        <ele>617.9</ele>
        <time>2019-12-01T10:32:11.000Z</time>
      </trkpt>
      <trkpt lat="41.730173" lon="2.143428">
        <ele>617.7</ele>
        <time>2019-12-01T10:32:19.000Z</time>
      </trkpt>
      <trkpt lat="41.730195" lon="2.143362">
        <ele>617.0</ele>
        <time>2019-12-01T10:32:21.000Z</time>
      </trkpt>
      <trkpt lat="41.730224" lon="2.143280">
        <ele>617.0</ele>
        <time>2019-12-01T10:32:27.000Z</time>
      </trkpt>
      <trkpt lat="41.730296" lon="2.143088">
        <ele>617.2</ele>
        <time>2019-12-01T10:32:41.000Z</time>
      </trkpt>
      <trkpt lat="41.730371" lon="2.142895">
        <ele>617.1</ele>
        <time>2019-12-01T10:32:57.000Z</time>
      </trkpt>
      <trkpt lat="41.730395" lon="2.142809">
        <ele>617.3</ele>
        <time>2019-12-01T10:33:2.000Z</time>
      </trkpt>
      <trkpt lat="41.730458" lon="2.142623">
        <ele>615.7</ele>
        <time>2019-12-01T10:33:5.000Z</time>
      </trkpt>
      <trkpt lat="41.730503" lon="2.142557">
        <ele>615.9</ele>
        <time>2019-12-01T10:33:19.000Z</time>
      </trkpt>
      <trkpt lat="41.730573" lon="2.142459">
        <ele>617.0</ele>
        <time>2019-12-01T10:33:22.000Z</time>
      </trkpt>
      <trkpt lat="41.730618" lon="2.142317">
        <ele>617.5</ele>
        <time>2019-12-01T10:33:35.000Z</time>
      </trkpt>
      <trkpt lat="41.730656" lon="2.142174">
        <ele>617.7</ele>
        <time>2019-12-01T10:33:46.000Z</time>
      </trkpt>
      <trkpt lat="41.730677" lon="2.142096">
        <ele>617.7</ele>
        <time>2019-12-01T10:33:50.000Z</time>
      </trkpt>
      <trkpt lat="41.730708" lon="2.141999">
        <ele>617.6</ele>
        <time>2019-12-01T10:34:2.000Z</time>
      </trkpt>
      <trkpt lat="41.730724" lon="2.141924">
        <ele>617.4</ele>
        <time>2019-12-01T10:34:3.000Z</time>
      </trkpt>
      <trkpt lat="41.730736" lon="2.141864">
        <ele>617.5</ele>
        <time>2019-12-01T10:34:5.000Z</time>
      </trkpt>
      <trkpt lat="41.730753" lon="2.141811">
        <ele>617.8</ele>
        <time>2019-12-01T10:34:19.000Z</time>
      </trkpt>
      <trkpt lat="41.730767" lon="2.141707">
        <ele>617.5</ele>
        <time>2019-12-01T10:34:38.000Z</time>
      </trkpt>
      <trkpt lat="41.730798" lon="2.141647">
        <ele>617.9</ele>
        <time>2019-12-01T10:34:54.000Z</time>
      </trkpt>
      <trkpt lat="41.730841" lon="2.141581">
        <ele>618.5</ele>
        <time>2019-12-01T10:35:2.000Z</time>
      </trkpt>
      <trkpt lat="41.730884" lon="2.141470">
        <ele>618.9</ele>
        <time>2019-12-01T10:35:14.000Z</time>
      </trkpt>
      <trkpt lat="41.730914" lon="2.141386">
        <ele>619.2</ele>
        <time>2019-12-01T10:35:15.000Z</time>
      </trkpt>
      <trkpt lat="41.730975" lon="2.141247">
        <ele>619.5</ele>
        <time>2019-12-01T10:35:28.000Z</time>
      </trkpt>
      <trkpt lat="41.731016" lon="2.141125">
        <ele>618.9</ele>
        <time>2019-12-01T10:35:34.000Z</time>
      </trkpt>
      <trkpt lat="41.731066" lon="2.141046">
        <ele>619.4</ele>
        <time>2019-12-01T10:35:44.000Z</time>
      </trkpt>
      <trkpt lat="41.731095" lon="2.140988">
        <ele>618.7</ele>
        <time>2019-12-01T10:35:46.000Z</time>
      </trkpt>
      <trkpt lat="41.731128" lon="2.140931">
        <ele>618.1</ele>
        <time>2019-12-01T10:35:49.000Z</time>
      </trkpt>
      <trkpt lat="41.731144" lon="2.140895">
        <ele>618.6</ele>
        <time>2019-12-01T10:35:50.000Z</time>
      </trkpt>
      <trkpt lat="41.731190" lon="2.140822">
        <ele>619.1</ele>
        <time>2019-12-01T10:35:53.000Z</time>
      </trkpt>
      <trkpt lat="41.731217" lon="2.140776">
        <ele>618.9</ele>
        <time>2019-12-01T10:36:6.000Z</time>
      </trkpt>
      <trkpt lat="41.731246" lon="2.140727">
        <ele>618.7</ele>
        <time>2019-12-01T10:36:12.000Z</time>
      </trkpt>
      <trkpt lat="41.731291" lon="2.140641">
        <ele>619.3</ele>
        <time>2019-12-01T10:36:23.000Z</time>
      </trkpt>
      <trkpt lat="41.731391" lon="2.140517">
        <ele>620.3</ele>
        <time>2019-12-01T10:36:34.000Z</time>
      </trkpt>
      <trkpt lat="41.731456" lon="2.140422">
        <ele>620.3</ele>
        <time>2019-12-01T10:36:45.000Z</time>
      </trkpt>
      <trkpt lat="41.731506" lon="2.140353">
        <ele>620.2</ele>
        <time>2019-12-01T10:36:46.000Z</time>
      </trkpt>
      <trkpt lat="41.731564" lon="2.140280">
        <ele>620.4</ele>
        <time>2019-12-01T10:36:57.000Z</time>
      </trkpt>
      <trkpt lat="41.731609" lon="2.140223">
        <ele>620.3</ele>
        <time>2019-12-01T10:37:10.000Z</time>
      </trkpt>
      <trkpt lat="41.731657" lon="2.140158">
        <ele>620.7</ele>
        <time>2019-12-01T10:37:13.000Z</time>
      </trkpt>
      <trkpt lat="41.731724" lon="2.140108">
        <ele>621.8</ele>
        <time>2019-12-01T10:37:19.000Z</time>
      </trkpt>
      <trkpt lat="41.731795" lon="2.140050">
        <ele>622.3</ele>
        <time>2019-12-01T10:37:31.000Z</time>
      </trkpt>
      <trkpt lat="41.731882" lon="2.139995">
        <ele>622.7</ele>
        <time>2019-12-01T10:37:45.000Z</time>
      </trkpt>
      <trkpt lat="41.731945" lon="2.139950">
        <ele>623.1</ele>
        <time>2019-12-01T10:38:2.000Z</time>
      </trkpt>
      <trkpt lat="41.731991" lon="2.139913">
        <ele>623.6</ele>
        <time>2019-12-01T10:38:14.000Z</time>
      </trkpt>
      <trkpt lat="41.732072" lon="2.139860">
        <ele>624.4</ele>
        <time>2019-12-01T10:38:28.000Z</time>
      </trkpt>
      <trkpt lat="41.732139" lon="2.139809">
        <ele>624.7</ele>
        <time>2019-12-01T10:38:37.000Z</time>
      </trkpt>
      <trkpt lat="41.732232" lon="2.139747">
        <ele>625.5</ele>
        <time>2019-12-01T10:38:49.000Z</time>
      </trkpt>
      <trkpt lat="41.732288" lon="2.139712">
        <ele>626.0</ele>
        <time>2019-12-01T10:38:51.000Z</time>
      </trkpt>
      <trkpt lat="41.732325" lon="2.139697">
        <ele>626.4</ele>
        <time>2019-12-01T10:38:52.000Z</time>
      </trkpt>
      <trkpt lat="41.732352" lon="2.139674">
        <ele>626.3</ele>
        <time>2019-12-01T10:38:54.000Z</time>
      </trkpt>
      <trkpt lat="41.732546" lon="2.139588">
        <ele>626.7</ele>
        <time>2019-12-01T10:39:9.000Z</time>
      </trkpt>
      <trkpt lat="41.732659" lon="2.139551">
        <ele>627.3</ele>
        <time>2019-12-01T10:39:23.000Z</time>
      </trkpt>
      <trkpt lat="41.732758" lon="2.139524">
        <ele>627.6</ele>
        <time>2019-12-01T10:39:30.000Z</time>
      </trkpt>
      <trkpt lat="41.732830" lon="2.139504">
        <ele>627.5</ele>
        <time>2019-12-01T10:39:33.000Z</time>
      </trkpt>
      <trkpt lat="41.732929" lon="2.139484">
        <ele>627.2</ele>
        <time>2019-12-01T10:39:44.000Z</time>
      </trkpt>
      <trkpt lat="41.733012" lon="2.139473">
        <ele>627.0</ele>
        <time>2019-12-01T10:39:53.000Z</time>
      </trkpt>
      <trkpt lat="41.733073" lon="2.139462">
        <ele>627.6</ele>
        <time>2019-12-01T10:39:57.000Z</time>
      </trkpt>
      <trkpt lat="41.733141" lon="2.139442">
        <ele>628.1</ele>
        <time>2019-12-01T10:40:12.000Z</time>
      </trkpt>
      <trkpt lat="41.733225" lon="2.139338">
        <ele>627.1</ele>
        <time>2019-12-01T10:40:26.000Z</time>
      </trkpt>
      <trkpt lat="41.733276" lon="2.139277">
        <ele>626.5</ele>
        <time>2019-12-01T10:40:27.000Z</time>
      </trkpt>
      <trkpt lat="41.733317" lon="2.139230">
        <ele>626.4</ele>
        <time>2019-12-01T10:40:30.000Z</time>
      </trkpt>
      <trkpt lat="41.733360" lon="2.139175">
        <ele>626.5</ele>
        <time>2019-12-01T10:40:33.000Z</time>
      </trkpt>
      <trkpt lat="41.733427" lon="2.139095">
        <ele>626.9</ele>
        <time>2019-12-01T10:40:41.000Z</time>
      </trkpt>
      <trkpt lat="41.733500" lon="2.139011">
        <ele>626.9</ele>
        <time>2019-12-01T10:40:42.000Z</time>
      </trkpt>
      <trkpt lat="41.733596" lon="2.138896">
        <ele>627.3</ele>
        <time>2019-12-01T10:40:57.000Z</time>
      </trkpt>
      <trkpt lat="41.733660" lon="2.138803">
        <ele>627.4</ele>
        <time>2019-12-01T10:41:12.000Z</time>
      </trkpt>
      <trkpt lat="41.733720" lon="2.138690">
        <ele>627.2</ele>
        <time>2019-12-01T10:41:24.000Z</time>
      </trkpt>
      <trkpt lat="41.733808" lon="2.138529">
        <ele>627.6</ele>
        <time>2019-12-01T10:41:36.000Z</time>
      </trkpt>
      <trkpt lat="41.733847" lon="2.138465">
        <ele>628.5</ele>
        <time>2019-12-01T10:41:47.000Z</time>
      </trkpt>
      <trkpt lat="41.733879" lon="2.138396">
        <ele>628.4</ele>
        <time>2019-12-01T10:41:53.000Z</time>
      </trkpt>
      <trkpt lat="41.733892" lon="2.138359">
        <ele>628.2</ele>
        <time>2019-12-01T10:41:55.000Z</time>
      </trkpt>
      <trkpt lat="41.733926" lon="2.138319">
        <ele>628.5</ele>
        <time>2019-12-01T10:41:59.000Z</time>
      </trkpt>
      <trkpt lat="41.733978" lon="2.138237">
        <ele>628.3</ele>
        <time>2019-12-01T10:42:0.000Z</time>
      </trkpt>
      <trkpt lat="41.734003" lon="2.138184">
        <ele>627.7</ele>
        <time>2019-12-01T10:42:13.000Z</time>
      </trkpt>
      <trkpt lat="41.734036" lon="2.138144">
        <ele>627.8</ele>
        <time>2019-12-01T10:42:14.000Z</time>
      </trkpt>
      <trkpt lat="41.734099" lon="2.138062">
        <ele>628.1</ele>
        <time>2019-12-01T10:42:25.000Z</time>
      </trkpt>
      <trkpt lat="41.734136" lon="2.138004">
        <ele>628.2</ele>
        <time>2019-12-01T10:42:26.000Z</time>
      </trkpt>
      <trkpt lat="41.734203" lon="2.137916">
        <ele>628.7</ele>
        <time>2019-12-01T10:42:39.000Z</time>
      </trkpt>
      <trkpt lat="41.734242" lon="2.137852">
        <ele>629.4</ele>
        <time>2019-12-01T10:42:49.000Z</time>
      </trkpt>
      <trkpt lat="41.734302" lon="2.137770">
        <ele>630.1</ele>
        <time>2019-12-01T10:43:1.000Z</time>
      </trkpt>
      <trkpt lat="41.734363" lon="2.137691">
        <ele>630.9</ele>
        <time>2019-12-01T10:43:11.000Z</time>
      </trkpt>
      <trkpt lat="41.734373" lon="2.137673">
        <ele>631.0</ele>
        <time>2019-12-01T10:43:12.000Z</time>
      </trkpt>
      <trkpt lat="41.734407" lon="2.137613">
        <ele>631.4</ele>
        <time>2019-12-01T10:43:18.000Z</time>
      </trkpt>
      <trkpt lat="41.734469" lon="2.137498">
        <ele>630.6</ele>
        <time>2019-12-01T10:43:29.000Z</time>
      </trkpt>
      <trkpt lat="41.734511" lon="2.137442">
        <ele>630.9</ele>
        <time>2019-12-01T10:43:33.000Z</time>
      </trkpt>
      <trkpt lat="41.734558" lon="2.137339">
        <ele>630.7</ele>
        <time>2019-12-01T10:43:43.000Z</time>
      </trkpt>
      <trkpt lat="41.734587" lon="2.137274">
        <ele>630.3</ele>
        <time>2019-12-01T10:43:49.000Z</time>
      </trkpt>
      <trkpt lat="41.734626" lon="2.137204">
        <ele>630.5</ele>
        <time>2019-12-01T10:44:0.000Z</time>
      </trkpt>
      <trkpt lat="41.734673" lon="2.137102">
        <ele>630.8</ele>
        <time>2019-12-01T10:44:5.000Z</time>
      </trkpt>
      <trkpt lat="41.734732" lon="2.136927">
        <ele>629.9</ele>
        <time>2019-12-01T10:44:19.000Z</time>
      </trkpt>
      <trkpt lat="41.734758" lon="2.136862">
        <ele>630.1</ele>
        <time>2019-12-01T10:44:20.000Z</time>
      </trkpt>
      <trkpt lat="41.734792" lon="2.136785">
        <ele>630.7</ele>
        <time>2019-12-01T10:44:31.000Z</time>
      </trkpt>
      <trkpt lat="41.734808" lon="2.136719">
        <ele>630.9</ele>
        <time>2019-12-01T10:44:45.000Z</time>
      </trkpt>
      <trkpt lat="41.734819" lon="2.136677">
        <ele>630.9</ele>
        <time>2019-12-01T10:44:51.000Z</time>
      </trkpt>
      <trkpt lat="41.734826" lon="2.136622">
        <ele>630.7</ele>
        <time>2019-12-01T10:44:54.000Z</time>
      </trkpt>
      <trkpt lat="41.734842" lon="2.136562">
        <ele>630.5</ele>
        <time>2019-12-01T10:45:7.000Z</time>
      </trkpt>
      <trkpt lat="41.734871" lon="2.136489">
        <ele>630.1</ele>
        <time>2019-12-01T10:45:18.000Z</time>
      </trkpt>
      <trkpt lat="41.734891" lon="2.136456">
        <ele>630.0</ele>
        <time>2019-12-01T10:45:21.000Z</time>
      </trkpt>
      <trkpt lat="41.734909" lon="2.136423">
        <ele>629.9</ele>
        <time>2019-12-01T10:45:22.000Z</time>
      </trkpt>
      <trkpt lat="41.734930" lon="2.136396">
        <ele>629.9</ele>
        <time>2019-12-01T10:45:23.000Z</time>
      </trkpt>
      <trkpt lat="41.734973" lon="2.136345">
        <ele>630.2</ele>
        <time>2019-12-01T10:45:28.000Z</time>
      </trkpt>
      <trkpt lat="41.735040" lon="2.136265">
        <ele>630.0</ele>
        <time>2019-12-01T10:45:31.000Z</time>
      </trkpt>
      <trkpt lat="41.735112" lon="2.136195">
        <ele>630.5</ele>
        <time>2019-12-01T10:45:32.000Z</time>
      </trkpt>
      <trkpt lat="41.735158" lon="2.136179">
        <ele>631.0</ele>
        <time>2019-12-01T10:45:33.000Z</time>
      </trkpt>
      <trkpt lat="41.735212" lon="2.136177">
        <ele>631.4</ele>
        <time>2019-12-01T10:45:46.000Z</time>
      </trkpt>
      <trkpt lat="41.735255" lon="2.136186">
        <ele>631.8</ele>
        <time>2019-12-01T10:45:59.000Z</time>
      </trkpt>
      <trkpt lat="41.735345" lon="2.136208">
        <ele>633.1</ele>
        <time>2019-12-01T10:46:0.000Z</time>
      </trkpt>
      <trkpt lat="41.735396" lon="2.136184">
        <ele>633.7</ele>
        <time>2019-12-01T10:46:13.000Z</time>
      </trkpt>
      <trkpt lat="41.735502" lon="2.136135">
        <ele>636.1</ele>
        <time>2019-12-01T10:46:27.000Z</time>
      </trkpt>
      <trkpt lat="41.735570" lon="2.136098">
        <ele>637.1</ele>
        <time>2019-12-01T10:46:37.000Z</time>
      </trkpt>
      <trkpt lat="41.735627" lon="2.136071">
        <ele>638.3</ele>
        <time>2019-12-01T10:46:38.000Z</time>
      </trkpt>
      <trkpt lat="41.735681" lon="2.136049">
        <ele>639.3</ele>
        <time>2019-12-01T10:46:49.000Z</time>
      </trkpt>
      <trkpt lat="41.735717" lon="2.136033">
        <ele>639.1</ele>
        <time>2019-12-01T10:46:51.000Z</time>
      </trkpt>
      <trkpt lat="41.735775" lon="2.136007">
        <ele>638.5</ele>
        <time>2019-12-01T10:46:52.000Z</time>
      </trkpt>
      <trkpt lat="41.735839" lon="2.135974">
        <ele>639.2</ele>
        <time>2019-12-01T10:47:4.000Z</time>
      </trkpt>
      <trkpt lat="41.735884" lon="2.135954">
        <ele>640.6</ele>
        <time>2019-12-01T10:47:10.000Z</time>
      </trkpt>
      <trkpt lat="41.735963" lon="2.135921">
        <ele>642.1</ele>
        <time>2019-12-01T10:47:12.000Z</time>
      </trkpt>
      <trkpt lat="41.736053" lon="2.135884">
        <ele>641.7</ele>
        <time>2019-12-01T10:47:24.000Z</time>
      </trkpt>
      <trkpt lat="41.736179" lon="2.135797">
        <ele>642.3</ele>
        <time>2019-12-01T10:47:38.000Z</time>
      </trkpt>
      <trkpt lat="41.736236" lon="2.135737">
        <ele>643.0</ele>
        <time>2019-12-01T10:47:42.000Z</time>
      </trkpt>
      <trkpt lat="41.736275" lon="2.135700">
        <ele>643.6</ele>
        <time>2019-12-01T10:47:52.000Z</time>
      </trkpt>
      <trkpt lat="41.736299" lon="2.135673">
        <ele>643.8</ele>
        <time>2019-12-01T10:47:53.000Z</time>
      </trkpt>
      <trkpt lat="41.736319" lon="2.135651">
        <ele>644.1</ele>
        <time>2019-12-01T10:47:57.000Z</time>
      </trkpt>
      <trkpt lat="41.736364" lon="2.135598">
        <ele>644.1</ele>
        <time>2019-12-01T10:48:0.000Z</time>
      </trkpt>
      <trkpt lat="41.736511" lon="2.135520">
        <ele>645.2</ele>
        <time>2019-12-01T10:48:14.000Z</time>
      </trkpt>
      <trkpt lat="41.736606" lon="2.135479">
        <ele>645.3</ele>
        <time>2019-12-01T10:48:23.000Z</time>
      </trkpt>
      <trkpt lat="41.736682" lon="2.135445">
        <ele>645.5</ele>
        <time>2019-12-01T10:48:29.000Z</time>
      </trkpt>
      <trkpt lat="41.736721" lon="2.135414">
        <ele>645.4</ele>
        <time>2019-12-01T10:48:30.000Z</time>
      </trkpt>
      <trkpt lat="41.736908" lon="2.135330">
        <ele>645.6</ele>
        <time>2019-12-01T10:48:44.000Z</time>
      </trkpt>
      <trkpt lat="41.736940" lon="2.135321">
        <ele>645.7</ele>
        <time>2019-12-01T10:48:51.000Z</time>
      </trkpt>
      <trkpt lat="41.736988" lon="2.135304">
        <ele>645.6</ele>
        <time>2019-12-01T10:48:53.000Z</time>
      </trkpt>
      <trkpt lat="41.737073" lon="2.135273">
        <ele>644.9</ele>
        <time>2019-12-01T10:49:1.000Z</time>
      </trkpt>
      <trkpt lat="41.737215" lon="2.135226">
        <ele>643.8</ele>
        <time>2019-12-01T10:49:13.000Z</time>
      </trkpt>
      <trkpt lat="41.737387" lon="2.135211">
        <ele>642.9</ele>
        <time>2019-12-01T10:49:27.000Z</time>
      </trkpt>
      <trkpt lat="41.737565" lon="2.135200">
        <ele>643.1</ele>
        <time>2019-12-01T10:49:41.000Z</time>
      </trkpt>
      <trkpt lat="41.737727" lon="2.135195">
        <ele>643.7</ele>
        <time>2019-12-01T10:49:55.000Z</time>
      </trkpt>
      <trkpt lat="41.737833" lon="2.135197">
        <ele>644.1</ele>
        <time>2019-12-01T10:50:6.000Z</time>
      </trkpt>
      <trkpt lat="41.737912" lon="2.135186">
        <ele>644.4</ele>
        <time>2019-12-01T10:50:9.000Z</time>
      </trkpt>
      <trkpt lat="41.737989" lon="2.135172">
        <ele>644.8</ele>
        <time>2019-12-01T10:50:12.000Z</time>
      </trkpt>
      <trkpt lat="41.738108" lon="2.135146">
        <ele>645.8</ele>
        <time>2019-12-01T10:50:26.000Z</time>
      </trkpt>
      <trkpt lat="41.738183" lon="2.135124">
        <ele>645.8</ele>
        <time>2019-12-01T10:50:34.000Z</time>
      </trkpt>
      <trkpt lat="41.738224" lon="2.135115">
        <ele>645.9</ele>
        <time>2019-12-01T10:50:36.000Z</time>
      </trkpt>
      <trkpt lat="41.738305" lon="2.135093">
        <ele>645.9</ele>
        <time>2019-12-01T10:50:40.000Z</time>
      </trkpt>
      <trkpt lat="41.738382" lon="2.135071">
        <ele>645.9</ele>
        <time>2019-12-01T10:50:45.000Z</time>
      </trkpt>
      <trkpt lat="41.738501" lon="2.135040">
        <ele>646.0</ele>
        <time>2019-12-01T10:50:57.000Z</time>
      </trkpt>
      <trkpt lat="41.738729" lon="2.135003">
        <ele>647.1</ele>
        <time>2019-12-01T10:51:12.000Z</time>
      </trkpt>
      <trkpt lat="41.738838" lon="2.135016">
        <ele>647.8</ele>
        <time>2019-12-01T10:51:25.000Z</time>
      </trkpt>
      <trkpt lat="41.738943" lon="2.135038">
        <ele>648.5</ele>
        <time>2019-12-01T10:51:37.000Z</time>
      </trkpt>
      <trkpt lat="41.738998" lon="2.135055">
        <ele>649.3</ele>
        <time>2019-12-01T10:51:44.000Z</time>
      </trkpt>
      <trkpt lat="41.739060" lon="2.135071">
        <ele>650.0</ele>
        <time>2019-12-01T10:51:57.000Z</time>
      </trkpt>
      <trkpt lat="41.739141" lon="2.135078">
        <ele>649.5</ele>
        <time>2019-12-01T10:52:11.000Z</time>
      </trkpt>
      <trkpt lat="41.739188" lon="2.135093">
        <ele>649.3</ele>
        <time>2019-12-01T10:52:27.000Z</time>
      </trkpt>
      <trkpt lat="41.739247" lon="2.135113">
        <ele>648.4</ele>
        <time>2019-12-01T10:52:35.000Z</time>
      </trkpt>
      <trkpt lat="41.739334" lon="2.135151">
        <ele>647.8</ele>
        <time>2019-12-01T10:52:49.000Z</time>
      </trkpt>
      <trkpt lat="41.739427" lon="2.135191">
        <ele>647.5</ele>
        <time>2019-12-01T10:53:2.000Z</time>
      </trkpt>
      <trkpt lat="41.739513" lon="2.135226">
        <ele>647.0</ele>
        <time>2019-12-01T10:53:14.000Z</time>
      </trkpt>
      <trkpt lat="41.739603" lon="2.135208">
        <ele>646.0</ele>
        <time>2019-12-01T10:53:26.000Z</time>
      </trkpt>
      <trkpt lat="41.739682" lon="2.135064">
        <ele>646.0</ele>
        <time>2019-12-01T10:53:39.000Z</time>
      </trkpt>
      <trkpt lat="41.739702" lon="2.134978">
        <ele>646.1</ele>
        <time>2019-12-01T10:53:55.000Z</time>
      </trkpt>
      <trkpt lat="41.739722" lon="2.134945">
        <ele>646.0</ele>
        <time>2019-12-01T10:53:57.000Z</time>
      </trkpt>
      <trkpt lat="41.739725" lon="2.134911">
        <ele>646.0</ele>
        <time>2019-12-01T10:54:4.000Z</time>
      </trkpt>
      <trkpt lat="41.739733" lon="2.134894">
        <ele>646.0</ele>
        <time>2019-12-01T10:54:7.000Z</time>
      </trkpt>
      <trkpt lat="41.739743" lon="2.134861">
        <ele>646.2</ele>
        <time>2019-12-01T10:54:8.000Z</time>
      </trkpt>
      <trkpt lat="41.739762" lon="2.134825">
        <ele>646.5</ele>
        <time>2019-12-01T10:54:9.000Z</time>
      </trkpt>
      <trkpt lat="41.739796" lon="2.134788">
        <ele>646.7</ele>
        <time>2019-12-01T10:54:12.000Z</time>
      </trkpt>
      <trkpt lat="41.739846" lon="2.134746">
        <ele>646.8</ele>
        <time>2019-12-01T10:54:19.000Z</time>
      </trkpt>
      <trkpt lat="41.739912" lon="2.134710">
        <ele>646.9</ele>
        <time>2019-12-01T10:54:20.000Z</time>
      </trkpt>
      <trkpt lat="41.739984" lon="2.134664">
        <ele>647.4</ele>
        <time>2019-12-01T10:54:32.000Z</time>
      </trkpt>
      <trkpt lat="41.740063" lon="2.134615">
        <ele>647.6</ele>
        <time>2019-12-01T10:54:43.000Z</time>
      </trkpt>
      <trkpt lat="41.740125" lon="2.134579">
        <ele>647.6</ele>
        <time>2019-12-01T10:54:47.000Z</time>
      </trkpt>
      <trkpt lat="41.740244" lon="2.134503">
        <ele>647.3</ele>
        <time>2019-12-01T10:54:58.000Z</time>
      </trkpt>
      <trkpt lat="41.740343" lon="2.134434">
        <ele>648.0</ele>
        <time>2019-12-01T10:55:10.000Z</time>
      </trkpt>
      <trkpt lat="41.740406" lon="2.134390">
        <ele>648.3</ele>
        <time>2019-12-01T10:55:16.000Z</time>
      </trkpt>
      <trkpt lat="41.740465" lon="2.134334">
        <ele>648.4</ele>
        <time>2019-12-01T10:55:20.000Z</time>
      </trkpt>
      <trkpt lat="41.740544" lon="2.134284">
        <ele>648.7</ele>
        <time>2019-12-01T10:55:21.000Z</time>
      </trkpt>
      <trkpt lat="41.740647" lon="2.134237">
        <ele>649.0</ele>
        <time>2019-12-01T10:55:34.000Z</time>
      </trkpt>
      <trkpt lat="41.740677" lon="2.134224">
        <ele>649.0</ele>
        <time>2019-12-01T10:55:39.000Z</time>
      </trkpt>
      <trkpt lat="41.740712" lon="2.134208">
        <ele>648.9</ele>
        <time>2019-12-01T10:55:44.000Z</time>
      </trkpt>
      <trkpt lat="41.740746" lon="2.134186">
        <ele>648.6</ele>
        <time>2019-12-01T10:55:46.000Z</time>
      </trkpt>
      <trkpt lat="41.740776" lon="2.134164">
        <ele>648.3</ele>
        <time>2019-12-01T10:55:50.000Z</time>
      </trkpt>
      <trkpt lat="41.740790" lon="2.134142">
        <ele>648.2</ele>
        <time>2019-12-01T10:55:52.000Z</time>
      </trkpt>
      <trkpt lat="41.740814" lon="2.134118">
        <ele>648.3</ele>
        <time>2019-12-01T10:55:57.000Z</time>
      </trkpt>
      <trkpt lat="41.740835" lon="2.134093">
        <ele>648.5</ele>
        <time>2019-12-01T10:56:9.000Z</time>
      </trkpt>
      <trkpt lat="41.740859" lon="2.134067">
        <ele>648.6</ele>
        <time>2019-12-01T10:56:12.000Z</time>
      </trkpt>
      <trkpt lat="41.740867" lon="2.133983">
        <ele>648.1</ele>
        <time>2019-12-01T10:56:25.000Z</time>
      </trkpt>
      <trkpt lat="41.740880" lon="2.133890">
        <ele>648.5</ele>
        <time>2019-12-01T10:56:35.000Z</time>
      </trkpt>
      <trkpt lat="41.740916" lon="2.133802">
        <ele>648.3</ele>
        <time>2019-12-01T10:56:41.000Z</time>
      </trkpt>
      <trkpt lat="41.740939" lon="2.133706">
        <ele>648.5</ele>
        <time>2019-12-01T10:56:51.000Z</time>
      </trkpt>
      <trkpt lat="41.740979" lon="2.133662">
        <ele>649.1</ele>
        <time>2019-12-01T10:57:8.000Z</time>
      </trkpt>
      <trkpt lat="41.741034" lon="2.133618">
        <ele>649.7</ele>
        <time>2019-12-01T10:57:19.000Z</time>
      </trkpt>
      <trkpt lat="41.741077" lon="2.133599">
        <ele>650.2</ele>
        <time>2019-12-01T10:57:29.000Z</time>
      </trkpt>
      <trkpt lat="41.741135" lon="2.133552">
        <ele>651.6</ele>
        <time>2019-12-01T10:57:37.000Z</time>
      </trkpt>
      <trkpt lat="41.741193" lon="2.133464">
        <ele>652.7</ele>
        <time>2019-12-01T10:57:46.000Z</time>
      </trkpt>
      <trkpt lat="41.741237" lon="2.133446">
        <ele>652.7</ele>
        <time>2019-12-01T10:57:53.000Z</time>
      </trkpt>
      <trkpt lat="41.741351" lon="2.133348">
        <ele>654.2</ele>
        <time>2019-12-01T10:58:6.000Z</time>
      </trkpt>
      <trkpt lat="41.741450" lon="2.133282">
        <ele>655.0</ele>
        <time>2019-12-01T10:58:18.000Z</time>
      </trkpt>
      <trkpt lat="41.741502" lon="2.133265">
        <ele>654.9</ele>
        <time>2019-12-01T10:58:23.000Z</time>
      </trkpt>
      <trkpt lat="41.741643" lon="2.133226">
        <ele>655.4</ele>
        <time>2019-12-01T10:58:37.000Z</time>
      </trkpt>
      <trkpt lat="41.741750" lon="2.133194">
        <ele>656.3</ele>
        <time>2019-12-01T10:58:46.000Z</time>
      </trkpt>
      <trkpt lat="41.741843" lon="2.133090">
        <ele>656.7</ele>
        <time>2019-12-01T10:58:57.000Z</time>
      </trkpt>
      <trkpt lat="41.741929" lon="2.132997">
        <ele>657.9</ele>
        <time>2019-12-01T10:59:6.000Z</time>
      </trkpt>
      <trkpt lat="41.742008" lon="2.132942">
        <ele>658.1</ele>
        <time>2019-12-01T10:59:14.000Z</time>
      </trkpt>
      <trkpt lat="41.742083" lon="2.132902">
        <ele>658.4</ele>
        <time>2019-12-01T10:59:20.000Z</time>
      </trkpt>
      <trkpt lat="41.742227" lon="2.132864">
        <ele>659.0</ele>
        <time>2019-12-01T10:59:33.000Z</time>
      </trkpt>
      <trkpt lat="41.742356" lon="2.132838">
        <ele>659.2</ele>
        <time>2019-12-01T10:59:45.000Z</time>
      </trkpt>
      <trkpt lat="41.742419" lon="2.132801">
        <ele>659.3</ele>
        <time>2019-12-01T10:59:52.000Z</time>
      </trkpt>
      <trkpt lat="41.742540" lon="2.132721">
        <ele>659.8</ele>
        <time>2019-12-01T11:00:4.000Z</time>
      </trkpt>
      <trkpt lat="41.742640" lon="2.132669">
        <ele>660.8</ele>
        <time>2019-12-01T11:00:15.000Z</time>
      </trkpt>
      <trkpt lat="41.742788" lon="2.132614">
        <ele>660.8</ele>
        <time>2019-12-01T11:00:28.000Z</time>
      </trkpt>
      <trkpt lat="41.742825" lon="2.132602">
        <ele>660.8</ele>
        <time>2019-12-01T11:00:32.000Z</time>
      </trkpt>
      <trkpt lat="41.742917" lon="2.132548">
        <ele>661.1</ele>
        <time>2019-12-01T11:00:42.000Z</time>
      </trkpt>
      <trkpt lat="41.743016" lon="2.132433">
        <ele>662.1</ele>
        <time>2019-12-01T11:00:55.000Z</time>
      </trkpt>
      <trkpt lat="41.743086" lon="2.132373">
        <ele>662.9</ele>
        <time>2019-12-01T11:01:4.000Z</time>
      </trkpt>
      <trkpt lat="41.743225" lon="2.132279">
        <ele>662.8</ele>
        <time>2019-12-01T11:01:19.000Z</time>
      </trkpt>
      <trkpt lat="41.743369" lon="2.132181">
        <ele>665.1</ele>
        <time>2019-12-01T11:01:33.000Z</time>
      </trkpt>
      <trkpt lat="41.743403" lon="2.132148">
        <ele>665.6</ele>
        <time>2019-12-01T11:01:37.000Z</time>
      </trkpt>
      <trkpt lat="41.743464" lon="2.132079">
        <ele>666.6</ele>
        <time>2019-12-01T11:01:51.000Z</time>
      </trkpt>
      <trkpt lat="41.743469" lon="2.132062">
        <ele>666.8</ele>
        <time>2019-12-01T11:01:59.000Z</time>
      </trkpt>
      <trkpt lat="41.743519" lon="2.132001">
        <ele>667.1</ele>
        <time>2019-12-01T11:02:12.000Z</time>
      </trkpt>
      <trkpt lat="41.743537" lon="2.131967">
        <ele>667.3</ele>
        <time>2019-12-01T11:02:25.000Z</time>
      </trkpt>
      <trkpt lat="41.743558" lon="2.131960">
        <ele>667.3</ele>
        <time>2019-12-01T11:02:30.000Z</time>
      </trkpt>
      <trkpt lat="41.743667" lon="2.131867">
        <ele>668.0</ele>
        <time>2019-12-01T11:02:43.000Z</time>
      </trkpt>
      <trkpt lat="41.743687" lon="2.131842">
        <ele>668.1</ele>
        <time>2019-12-01T11:02:46.000Z</time>
      </trkpt>
      <trkpt lat="41.743731" lon="2.131796">
        <ele>668.0</ele>
        <time>2019-12-01T11:02:54.000Z</time>
      </trkpt>
      <trkpt lat="41.743843" lon="2.131701">
        <ele>668.3</ele>
        <time>2019-12-01T11:03:7.000Z</time>
      </trkpt>
      <trkpt lat="41.743925" lon="2.131649">
        <ele>668.2</ele>
        <time>2019-12-01T11:03:20.000Z</time>
      </trkpt>
      <trkpt lat="41.743953" lon="2.131620">
        <ele>668.5</ele>
        <time>2019-12-01T11:03:26.000Z</time>
      </trkpt>
      <trkpt lat="41.743991" lon="2.131563">
        <ele>669.2</ele>
        <time>2019-12-01T11:03:33.000Z</time>
      </trkpt>
      <trkpt lat="41.744009" lon="2.131550">
        <ele>669.4</ele>
        <time>2019-12-01T11:03:35.000Z</time>
      </trkpt>
      <trkpt lat="41.744123" lon="2.131477">
        <ele>669.1</ele>
        <time>2019-12-01T11:03:49.000Z</time>
      </trkpt>
      <trkpt lat="41.744147" lon="2.131443">
        <ele>668.9</ele>
        <time>2019-12-01T11:03:53.000Z</time>
      </trkpt>
      <trkpt lat="41.744272" lon="2.131301">
        <ele>669.2</ele>
        <time>2019-12-01T11:04:7.000Z</time>
      </trkpt>
      <trkpt lat="41.744311" lon="2.131251">
        <ele>669.4</ele>
        <time>2019-12-01T11:04:12.000Z</time>
      </trkpt>
      <trkpt lat="41.744372" lon="2.131189">
        <ele>669.7</ele>
        <time>2019-12-01T11:04:18.000Z</time>
      </trkpt>
      <trkpt lat="41.744394" lon="2.131157">
        <ele>669.9</ele>
        <time>2019-12-01T11:04:21.000Z</time>
      </trkpt>
      <trkpt lat="41.744485" lon="2.131022">
        <ele>670.6</ele>
        <time>2019-12-01T11:04:34.000Z</time>
      </trkpt>
      <trkpt lat="41.744563" lon="2.130920">
        <ele>670.6</ele>
        <time>2019-12-01T11:04:43.000Z</time>
      </trkpt>
      <trkpt lat="41.744595" lon="2.130863">
        <ele>670.9</ele>
        <time>2019-12-01T11:04:47.000Z</time>
      </trkpt>
      <trkpt lat="41.744630" lon="2.130751">
        <ele>672.8</ele>
        <time>2019-12-01T11:04:55.000Z</time>
      </trkpt>
      <trkpt lat="41.744686" lon="2.130635">
        <ele>674.4</ele>
        <time>2019-12-01T11:05:4.000Z</time>
      </trkpt>
      <trkpt lat="41.744748" lon="2.130574">
        <ele>674.1</ele>
        <time>2019-12-01T11:05:9.000Z</time>
      </trkpt>
      <trkpt lat="41.744805" lon="2.130472">
        <ele>674.4</ele>
        <time>2019-12-01T11:05:17.000Z</time>
      </trkpt>
      <trkpt lat="41.744836" lon="2.130395">
        <ele>674.8</ele>
        <time>2019-12-01T11:05:22.000Z</time>
      </trkpt>
      <trkpt lat="41.744884" lon="2.130297">
        <ele>675.1</ele>
        <time>2019-12-01T11:05:30.000Z</time>
      </trkpt>
      <trkpt lat="41.744942" lon="2.130198">
        <ele>675.4</ele>
        <time>2019-12-01T11:05:39.000Z</time>
      </trkpt>
      <trkpt lat="41.744970" lon="2.130164">
        <ele>675.5</ele>
        <time>2019-12-01T11:05:42.000Z</time>
      </trkpt>
      <trkpt lat="41.745017" lon="2.129988">
        <ele>677.2</ele>
        <time>2019-12-01T11:05:55.000Z</time>
      </trkpt>
      <trkpt lat="41.745057" lon="2.129835">
        <ele>677.3</ele>
        <time>2019-12-01T11:06:8.000Z</time>
      </trkpt>
      <trkpt lat="41.745079" lon="2.129752">
        <ele>677.3</ele>
        <time>2019-12-01T11:06:14.000Z</time>
      </trkpt>
      <trkpt lat="41.745104" lon="2.129673">
        <ele>677.9</ele>
        <time>2019-12-01T11:06:21.000Z</time>
      </trkpt>
      <trkpt lat="41.745133" lon="2.129623">
        <ele>678.2</ele>
        <time>2019-12-01T11:06:25.000Z</time>
      </trkpt>
      <trkpt lat="41.745188" lon="2.129482">
        <ele>679.0</ele>
        <time>2019-12-01T11:06:35.000Z</time>
      </trkpt>
      <trkpt lat="41.745294" lon="2.129306">
        <ele>680.2</ele>
        <time>2019-12-01T11:06:50.000Z</time>
      </trkpt>
      <trkpt lat="41.745304" lon="2.129276">
        <ele>680.5</ele>
        <time>2019-12-01T11:06:54.000Z</time>
      </trkpt>
      <trkpt lat="41.745345" lon="2.129150">
        <ele>681.8</ele>
        <time>2019-12-01T11:07:6.000Z</time>
      </trkpt>
      <trkpt lat="41.745382" lon="2.129004">
        <ele>683.3</ele>
        <time>2019-12-01T11:07:19.000Z</time>
      </trkpt>
      <trkpt lat="41.745404" lon="2.128940">
        <ele>684.1</ele>
        <time>2019-12-01T11:07:26.000Z</time>
      </trkpt>
      <trkpt lat="41.745415" lon="2.128869">
        <ele>684.9</ele>
        <time>2019-12-01T11:07:28.000Z</time>
      </trkpt>
      <trkpt lat="41.745456" lon="2.128794">
        <ele>684.7</ele>
        <time>2019-12-01T11:07:41.000Z</time>
      </trkpt>
      <trkpt lat="41.745526" lon="2.128703">
        <ele>684.4</ele>
        <time>2019-12-01T11:07:46.000Z</time>
      </trkpt>
      <trkpt lat="41.745615" lon="2.128573">
        <ele>684.2</ele>
        <time>2019-12-01T11:07:59.000Z</time>
      </trkpt>
      <trkpt lat="41.745674" lon="2.128453">
        <ele>685.7</ele>
        <time>2019-12-01T11:08:9.000Z</time>
      </trkpt>
      <trkpt lat="41.745703" lon="2.128384">
        <ele>686.1</ele>
        <time>2019-12-01T11:08:15.000Z</time>
      </trkpt>
      <trkpt lat="41.745737" lon="2.128340">
        <ele>686.0</ele>
        <time>2019-12-01T11:08:19.000Z</time>
      </trkpt>
      <trkpt lat="41.745777" lon="2.128261">
        <ele>686.8</ele>
        <time>2019-12-01T11:08:28.000Z</time>
      </trkpt>
      <trkpt lat="41.745806" lon="2.128201">
        <ele>687.6</ele>
        <time>2019-12-01T11:08:33.000Z</time>
      </trkpt>
      <trkpt lat="41.745838" lon="2.128130">
        <ele>688.0</ele>
        <time>2019-12-01T11:08:37.000Z</time>
      </trkpt>
      <trkpt lat="41.745889" lon="2.128061">
        <ele>688.3</ele>
        <time>2019-12-01T11:08:45.000Z</time>
      </trkpt>
      <trkpt lat="41.745970" lon="2.127962">
        <ele>689.4</ele>
        <time>2019-12-01T11:08:59.000Z</time>
      </trkpt>
      <trkpt lat="41.746009" lon="2.127924">
        <ele>689.4</ele>
        <time>2019-12-01T11:09:1.000Z</time>
      </trkpt>
      <trkpt lat="41.746094" lon="2.128059">
        <ele>688.0</ele>
        <time>2019-12-01T11:09:9.000Z</time>
      </trkpt>
      <trkpt lat="41.746171" lon="2.128194">
        <ele>687.7</ele>
        <time>2019-12-01T11:09:24.000Z</time>
      </trkpt>
      <trkpt lat="41.746191" lon="2.128287">
        <ele>686.4</ele>
        <time>2019-12-01T11:09:37.000Z</time>
      </trkpt>
      <trkpt lat="41.746189" lon="2.128343">
        <ele>685.8</ele>
        <time>2019-12-01T11:09:43.000Z</time>
      </trkpt>
      <trkpt lat="41.746228" lon="2.128399">
        <ele>685.7</ele>
        <time>2019-12-01T11:09:57.000Z</time>
      </trkpt>
      <trkpt lat="41.746250" lon="2.128426">
        <ele>685.7</ele>
        <time>2019-12-01T11:10:8.000Z</time>
      </trkpt>
      <trkpt lat="41.746245" lon="2.128420">
        <ele>685.7</ele>
        <time>2019-12-01T11:11:23.000Z</time>
      </trkpt>
      <trkpt lat="41.746306" lon="2.128466">
        <ele>686.2</ele>
        <time>2019-12-01T11:11:35.000Z</time>
      </trkpt>
      <trkpt lat="41.746351" lon="2.128475">
        <ele>686.8</ele>
        <time>2019-12-01T11:11:43.000Z</time>
      </trkpt>
      <trkpt lat="41.746408" lon="2.128546">
        <ele>688.0</ele>
        <time>2019-12-01T11:11:56.000Z</time>
      </trkpt>
      <trkpt lat="41.746431" lon="2.128564">
        <ele>688.5</ele>
        <time>2019-12-01T11:12:7.000Z</time>
      </trkpt>
      <trkpt lat="41.746440" lon="2.128544">
        <ele>688.5</ele>
        <time>2019-12-01T11:12:24.000Z</time>
      </trkpt>
      <trkpt lat="41.746474" lon="2.128520">
        <ele>688.6</ele>
        <time>2019-12-01T11:12:39.000Z</time>
      </trkpt>
      <trkpt lat="41.746509" lon="2.128473">
        <ele>688.6</ele>
        <time>2019-12-01T11:12:45.000Z</time>
      </trkpt>
      <trkpt lat="41.746575" lon="2.128398">
        <ele>688.7</ele>
        <time>2019-12-01T11:12:54.000Z</time>
      </trkpt>
      <trkpt lat="41.746681" lon="2.128312">
        <ele>689.1</ele>
        <time>2019-12-01T11:13:4.000Z</time>
      </trkpt>
      <trkpt lat="41.746826" lon="2.128194">
        <ele>690.3</ele>
        <time>2019-12-01T11:13:19.000Z</time>
      </trkpt>
      <trkpt lat="41.746911" lon="2.128073">
        <ele>690.9</ele>
        <time>2019-12-01T11:13:33.000Z</time>
      </trkpt>
      <trkpt lat="41.747000" lon="2.127947">
        <ele>691.5</ele>
        <time>2019-12-01T11:13:48.000Z</time>
      </trkpt>
      <trkpt lat="41.747078" lon="2.127836">
        <ele>693.3</ele>
        <time>2019-12-01T11:14:1.000Z</time>
      </trkpt>
      <trkpt lat="41.747155" lon="2.127758">
        <ele>693.6</ele>
        <time>2019-12-01T11:14:15.000Z</time>
      </trkpt>
      <trkpt lat="41.747313" lon="2.127674">
        <ele>694.8</ele>
        <time>2019-12-01T11:14:25.000Z</time>
      </trkpt>
      <trkpt lat="41.747379" lon="2.127624">
        <ele>695.5</ele>
        <time>2019-12-01T11:14:30.000Z</time>
      </trkpt>
      <trkpt lat="41.747523" lon="2.127511">
        <ele>697.2</ele>
        <time>2019-12-01T11:14:46.000Z</time>
      </trkpt>
      <trkpt lat="41.747640" lon="2.127451">
        <ele>700.0</ele>
        <time>2019-12-01T11:15:0.000Z</time>
      </trkpt>
      <trkpt lat="41.747755" lon="2.127360">
        <ele>700.8</ele>
        <time>2019-12-01T11:15:14.000Z</time>
      </trkpt>
      <trkpt lat="41.747866" lon="2.127327">
        <ele>701.4</ele>
        <time>2019-12-01T11:15:17.000Z</time>
      </trkpt>
      <trkpt lat="41.747959" lon="2.127325">
        <ele>702.0</ele>
        <time>2019-12-01T11:15:27.000Z</time>
      </trkpt>
      <trkpt lat="41.748078" lon="2.127356">
        <ele>702.9</ele>
        <time>2019-12-01T11:15:42.000Z</time>
      </trkpt>
      <trkpt lat="41.748162" lon="2.127387">
        <ele>703.0</ele>
        <time>2019-12-01T11:15:56.000Z</time>
      </trkpt>
      <trkpt lat="41.748379" lon="2.127445">
        <ele>703.9</ele>
        <time>2019-12-01T11:16:8.000Z</time>
      </trkpt>
      <trkpt lat="41.748408" lon="2.127416">
        <ele>704.0</ele>
        <time>2019-12-01T11:16:25.000Z</time>
      </trkpt>
      <trkpt lat="41.748467" lon="2.127307">
        <ele>703.4</ele>
        <time>2019-12-01T11:16:33.000Z</time>
      </trkpt>
      <trkpt lat="41.748554" lon="2.127133">
        <ele>702.8</ele>
        <time>2019-12-01T11:16:47.000Z</time>
      </trkpt>
      <trkpt lat="41.748645" lon="2.126958">
        <ele>703.3</ele>
        <time>2019-12-01T11:16:59.000Z</time>
      </trkpt>
      <trkpt lat="41.748764" lon="2.126748">
        <ele>703.7</ele>
        <time>2019-12-01T11:17:15.000Z</time>
      </trkpt>
      <trkpt lat="41.748801" lon="2.126675">
        <ele>703.7</ele>
        <time>2019-12-01T11:17:21.000Z</time>
      </trkpt>
      <trkpt lat="41.748850" lon="2.126586">
        <ele>703.7</ele>
        <time>2019-12-01T11:17:25.000Z</time>
      </trkpt>
      <trkpt lat="41.748902" lon="2.126458">
        <ele>703.8</ele>
        <time>2019-12-01T11:17:34.000Z</time>
      </trkpt>
      <trkpt lat="41.749024" lon="2.126161">
        <ele>704.7</ele>
        <time>2019-12-01T11:17:48.000Z</time>
      </trkpt>
      <trkpt lat="41.749100" lon="2.126026">
        <ele>705.0</ele>
        <time>2019-12-01T11:18:2.000Z</time>
      </trkpt>
      <trkpt lat="41.749211" lon="2.125809">
        <ele>705.9</ele>
        <time>2019-12-01T11:18:16.000Z</time>
      </trkpt>
      <trkpt lat="41.749272" lon="2.125703">
        <ele>706.2</ele>
        <time>2019-12-01T11:18:25.000Z</time>
      </trkpt>
      <trkpt lat="41.749304" lon="2.125632">
        <ele>706.4</ele>
        <time>2019-12-01T11:18:28.000Z</time>
      </trkpt>
      <trkpt lat="41.749353" lon="2.125548">
        <ele>706.8</ele>
        <time>2019-12-01T11:18:34.000Z</time>
      </trkpt>
      <trkpt lat="41.749427" lon="2.125420">
        <ele>706.5</ele>
        <time>2019-12-01T11:18:49.000Z</time>
      </trkpt>
      <trkpt lat="41.749486" lon="2.125307">
        <ele>706.9</ele>
        <time>2019-12-01T11:18:55.000Z</time>
      </trkpt>
      <trkpt lat="41.749534" lon="2.125216">
        <ele>707.0</ele>
        <time>2019-12-01T11:19:7.000Z</time>
      </trkpt>
      <trkpt lat="41.749576" lon="2.125128">
        <ele>707.3</ele>
        <time>2019-12-01T11:19:10.000Z</time>
      </trkpt>
      <trkpt lat="41.749655" lon="2.124995">
        <ele>708.1</ele>
        <time>2019-12-01T11:19:26.000Z</time>
      </trkpt>
      <trkpt lat="41.749700" lon="2.124904">
        <ele>708.7</ele>
        <time>2019-12-01T11:19:27.000Z</time>
      </trkpt>
      <trkpt lat="41.749743" lon="2.124823">
        <ele>709.0</ele>
        <time>2019-12-01T11:19:32.000Z</time>
      </trkpt>
      <trkpt lat="41.749784" lon="2.124743">
        <ele>709.0</ele>
        <time>2019-12-01T11:19:44.000Z</time>
      </trkpt>
      <trkpt lat="41.749831" lon="2.124679">
        <ele>709.7</ele>
        <time>2019-12-01T11:19:58.000Z</time>
      </trkpt>
      <trkpt lat="41.749869" lon="2.124623">
        <ele>710.3</ele>
        <time>2019-12-01T11:20:13.000Z</time>
      </trkpt>
      <trkpt lat="41.749883" lon="2.124575">
        <ele>710.3</ele>
        <time>2019-12-01T11:20:19.000Z</time>
      </trkpt>
      <trkpt lat="41.749858" lon="2.124533">
        <ele>709.8</ele>
        <time>2019-12-01T11:20:38.000Z</time>
      </trkpt>
      <trkpt lat="41.749806" lon="2.124451">
        <ele>709.2</ele>
        <time>2019-12-01T11:20:55.000Z</time>
      </trkpt>
      <trkpt lat="41.749748" lon="2.124351">
        <ele>708.8</ele>
        <time>2019-12-01T11:21:5.000Z</time>
      </trkpt>
      <trkpt lat="41.749648" lon="2.124194">
        <ele>708.0</ele>
        <time>2019-12-01T11:21:18.000Z</time>
      </trkpt>
      <trkpt lat="41.749580" lon="2.124046">
        <ele>708.0</ele>
        <time>2019-12-01T11:21:32.000Z</time>
      </trkpt>
      <trkpt lat="41.749661" lon="2.123964">
        <ele>708.0</ele>
        <time>2019-12-01T11:21:34.000Z</time>
      </trkpt>
      <trkpt lat="41.749710" lon="2.123904">
        <ele>708.1</ele>
        <time>2019-12-01T11:21:40.000Z</time>
      </trkpt>
      <trkpt lat="41.749780" lon="2.123836">
        <ele>708.5</ele>
        <time>2019-12-01T11:21:54.000Z</time>
      </trkpt>
      <trkpt lat="41.749870" lon="2.123747">
        <ele>709.0</ele>
        <time>2019-12-01T11:22:6.000Z</time>
      </trkpt>
      <trkpt lat="41.749961" lon="2.123665">
        <ele>709.0</ele>
        <time>2019-12-01T11:22:17.000Z</time>
      </trkpt>
      <trkpt lat="41.750053" lon="2.123555">
        <ele>709.1</ele>
        <time>2019-12-01T11:22:28.000Z</time>
      </trkpt>
      <trkpt lat="41.750116" lon="2.123495">
        <ele>709.7</ele>
        <time>2019-12-01T11:22:37.000Z</time>
      </trkpt>
      <trkpt lat="41.750177" lon="2.123404">
        <ele>710.0</ele>
        <time>2019-12-01T11:22:43.000Z</time>
      </trkpt>
      <trkpt lat="41.750175" lon="2.123309">
        <ele>710.0</ele>
        <time>2019-12-01T11:22:54.000Z</time>
      </trkpt>
      <trkpt lat="41.750216" lon="2.123148">
        <ele>710.2</ele>
        <time>2019-12-01T11:23:8.000Z</time>
      </trkpt>
      <trkpt lat="41.750250" lon="2.123031">
        <ele>710.9</ele>
        <time>2019-12-01T11:23:9.000Z</time>
      </trkpt>
      <trkpt lat="41.750290" lon="2.122898">
        <ele>711.6</ele>
        <time>2019-12-01T11:23:23.000Z</time>
      </trkpt>
      <trkpt lat="41.750338" lon="2.122690">
        <ele>712.5</ele>
        <time>2019-12-01T11:23:37.000Z</time>
      </trkpt>
      <trkpt lat="41.750385" lon="2.122601">
        <ele>712.6</ele>
        <time>2019-12-01T11:23:43.000Z</time>
      </trkpt>
      <trkpt lat="41.750518" lon="2.122462">
        <ele>713.0</ele>
        <time>2019-12-01T11:23:57.000Z</time>
      </trkpt>
      <trkpt lat="41.750594" lon="2.122384">
        <ele>713.4</ele>
        <time>2019-12-01T11:24:10.000Z</time>
      </trkpt>
      <trkpt lat="41.750653" lon="2.122320">
        <ele>713.8</ele>
        <time>2019-12-01T11:24:24.000Z</time>
      </trkpt>
      <trkpt lat="41.750741" lon="2.122164">
        <ele>714.9</ele>
        <time>2019-12-01T11:24:37.000Z</time>
      </trkpt>
      <trkpt lat="41.750871" lon="2.121936">
        <ele>717.1</ele>
        <time>2019-12-01T11:24:51.000Z</time>
      </trkpt>
      <trkpt lat="41.751021" lon="2.121743">
        <ele>719.7</ele>
        <time>2019-12-01T11:25:6.000Z</time>
      </trkpt>
      <trkpt lat="41.751115" lon="2.121681">
        <ele>721.0</ele>
        <time>2019-12-01T11:25:20.000Z</time>
      </trkpt>
      <trkpt lat="41.751162" lon="2.121664">
        <ele>721.4</ele>
        <time>2019-12-01T11:25:30.000Z</time>
      </trkpt>
      <trkpt lat="41.751234" lon="2.121699">
        <ele>721.9</ele>
        <time>2019-12-01T11:25:37.000Z</time>
      </trkpt>
      <trkpt lat="41.751269" lon="2.121772">
        <ele>721.8</ele>
        <time>2019-12-01T11:25:44.000Z</time>
      </trkpt>
      <trkpt lat="41.751438" lon="2.121787">
        <ele>722.7</ele>
        <time>2019-12-01T11:25:54.000Z</time>
      </trkpt>
      <trkpt lat="41.751547" lon="2.121796">
        <ele>722.4</ele>
        <time>2019-12-01T11:26:6.000Z</time>
      </trkpt>
      <trkpt lat="41.751666" lon="2.121661">
        <ele>722.9</ele>
        <time>2019-12-01T11:26:20.000Z</time>
      </trkpt>
      <trkpt lat="41.751711" lon="2.121597">
        <ele>723.4</ele>
        <time>2019-12-01T11:26:31.000Z</time>
      </trkpt>
      <trkpt lat="41.751756" lon="2.121546">
        <ele>723.4</ele>
        <time>2019-12-01T11:26:35.000Z</time>
      </trkpt>
      <trkpt lat="41.751825" lon="2.121470">
        <ele>723.2</ele>
        <time>2019-12-01T11:26:44.000Z</time>
      </trkpt>
      <trkpt lat="41.751859" lon="2.121409">
        <ele>723.4</ele>
        <time>2019-12-01T11:26:48.000Z</time>
      </trkpt>
      <trkpt lat="41.751884" lon="2.121349">
        <ele>723.5</ele>
        <time>2019-12-01T11:26:52.000Z</time>
      </trkpt>
      <trkpt lat="41.751926" lon="2.121214">
        <ele>723.7</ele>
        <time>2019-12-01T11:26:54.000Z</time>
      </trkpt>
      <trkpt lat="41.751980" lon="2.121084">
        <ele>724.1</ele>
        <time>2019-12-01T11:27:8.000Z</time>
      </trkpt>
      <trkpt lat="41.752008" lon="2.121070">
        <ele>723.9</ele>
        <time>2019-12-01T11:27:21.000Z</time>
      </trkpt>
      <trkpt lat="41.752039" lon="2.121052">
        <ele>723.8</ele>
        <time>2019-12-01T11:27:41.000Z</time>
      </trkpt>
      <trkpt lat="41.752123" lon="2.120997">
        <ele>723.4</ele>
        <time>2019-12-01T11:27:53.000Z</time>
      </trkpt>
      <trkpt lat="41.752174" lon="2.120946">
        <ele>723.1</ele>
        <time>2019-12-01T11:27:58.000Z</time>
      </trkpt>
      <trkpt lat="41.752238" lon="2.120920">
        <ele>722.2</ele>
        <time>2019-12-01T11:28:3.000Z</time>
      </trkpt>
      <trkpt lat="41.752287" lon="2.120915">
        <ele>721.5</ele>
        <time>2019-12-01T11:28:6.000Z</time>
      </trkpt>
      <trkpt lat="41.752292" lon="2.120862">
        <ele>721.4</ele>
        <time>2019-12-01T11:28:7.000Z</time>
      </trkpt>
      <trkpt lat="41.752301" lon="2.120760">
        <ele>721.2</ele>
        <time>2019-12-01T11:28:11.000Z</time>
      </trkpt>
      <trkpt lat="41.752318" lon="2.120667">
        <ele>721.0</ele>
        <time>2019-12-01T11:28:15.000Z</time>
      </trkpt>
      <trkpt lat="41.752386" lon="2.120654">
        <ele>720.5</ele>
        <time>2019-12-01T11:28:22.000Z</time>
      </trkpt>
      <trkpt lat="41.752499" lon="2.120619">
        <ele>719.4</ele>
        <time>2019-12-01T11:28:37.000Z</time>
      </trkpt>
      <trkpt lat="41.752633" lon="2.120589">
        <ele>717.8</ele>
        <time>2019-12-01T11:28:50.000Z</time>
      </trkpt>
      <trkpt lat="41.752732" lon="2.120553">
        <ele>716.9</ele>
        <time>2019-12-01T11:29:5.000Z</time>
      </trkpt>
      <trkpt lat="41.752907" lon="2.120496">
        <ele>715.3</ele>
        <time>2019-12-01T11:29:13.000Z</time>
      </trkpt>
      <trkpt lat="41.753004" lon="2.120456">
        <ele>714.0</ele>
        <time>2019-12-01T11:29:17.000Z</time>
      </trkpt>
      <trkpt lat="41.753147" lon="2.120403">
        <ele>713.6</ele>
        <time>2019-12-01T11:29:30.000Z</time>
      </trkpt>
      <trkpt lat="41.753189" lon="2.120395">
        <ele>713.3</ele>
        <time>2019-12-01T11:29:35.000Z</time>
      </trkpt>
      <trkpt lat="41.753338" lon="2.120290">
        <ele>711.7</ele>
        <time>2019-12-01T11:29:48.000Z</time>
      </trkpt>
      <trkpt lat="41.753422" lon="2.120188">
        <ele>710.5</ele>
        <time>2019-12-01T11:30:1.000Z</time>
      </trkpt>
      <trkpt lat="41.753590" lon="2.120184">
        <ele>709.4</ele>
        <time>2019-12-01T11:30:13.000Z</time>
      </trkpt>
      <trkpt lat="41.753670" lon="2.120180">
        <ele>708.5</ele>
        <time>2019-12-01T11:30:21.000Z</time>
      </trkpt>
      <trkpt lat="41.753796" lon="2.120180">
        <ele>707.2</ele>
        <time>2019-12-01T11:30:34.000Z</time>
      </trkpt>
      <trkpt lat="41.753894" lon="2.120180">
        <ele>706.2</ele>
        <time>2019-12-01T11:30:42.000Z</time>
      </trkpt>
      <trkpt lat="41.754013" lon="2.120182">
        <ele>705.8</ele>
        <time>2019-12-01T11:30:50.000Z</time>
      </trkpt>
      <trkpt lat="41.754130" lon="2.120177">
        <ele>705.5</ele>
        <time>2019-12-01T11:31:2.000Z</time>
      </trkpt>
      <trkpt lat="41.754186" lon="2.120169">
        <ele>705.2</ele>
        <time>2019-12-01T11:31:4.000Z</time>
      </trkpt>
      <trkpt lat="41.754243" lon="2.120166">
        <ele>704.9</ele>
        <time>2019-12-01T11:31:8.000Z</time>
      </trkpt>
      <trkpt lat="41.754362" lon="2.120149">
        <ele>704.4</ele>
        <time>2019-12-01T11:31:21.000Z</time>
      </trkpt>
      <trkpt lat="41.754450" lon="2.119992">
        <ele>703.6</ele>
        <time>2019-12-01T11:31:34.000Z</time>
      </trkpt>
      <trkpt lat="41.754489" lon="2.119929">
        <ele>703.2</ele>
        <time>2019-12-01T11:31:36.000Z</time>
      </trkpt>
      <trkpt lat="41.754572" lon="2.119814">
        <ele>702.3</ele>
        <time>2019-12-01T11:31:48.000Z</time>
      </trkpt>
      <trkpt lat="41.754615" lon="2.119760">
        <ele>701.5</ele>
        <time>2019-12-01T11:31:54.000Z</time>
      </trkpt>
      <trkpt lat="41.754694" lon="2.119658">
        <ele>699.2</ele>
        <time>2019-12-01T11:32:10.000Z</time>
      </trkpt>
      <trkpt lat="41.754776" lon="2.119604">
        <ele>698.1</ele>
        <time>2019-12-01T11:32:21.000Z</time>
      </trkpt>
      <trkpt lat="41.754798" lon="2.119587">
        <ele>698.0</ele>
        <time>2019-12-01T11:32:39.000Z</time>
      </trkpt>
      <trkpt lat="41.754827" lon="2.119560">
        <ele>697.9</ele>
        <time>2019-12-01T11:32:44.000Z</time>
      </trkpt>
      <trkpt lat="41.754855" lon="2.119542">
        <ele>698.0</ele>
        <time>2019-12-01T11:32:49.000Z</time>
      </trkpt>
      <trkpt lat="41.754979" lon="2.119454">
        <ele>696.6</ele>
        <time>2019-12-01T11:33:2.000Z</time>
      </trkpt>
      <trkpt lat="41.755121" lon="2.119354">
        <ele>695.1</ele>
        <time>2019-12-01T11:33:18.000Z</time>
      </trkpt>
      <trkpt lat="41.755310" lon="2.119233">
        <ele>693.8</ele>
        <time>2019-12-01T11:33:34.000Z</time>
      </trkpt>
      <trkpt lat="41.755376" lon="2.119175">
        <ele>692.6</ele>
        <time>2019-12-01T11:33:39.000Z</time>
      </trkpt>
      <trkpt lat="41.755543" lon="2.119109">
        <ele>692.5</ele>
        <time>2019-12-01T11:33:54.000Z</time>
      </trkpt>
      <trkpt lat="41.755680" lon="2.119067">
        <ele>692.1</ele>
        <time>2019-12-01T11:34:8.000Z</time>
      </trkpt>
      <trkpt lat="41.755824" lon="2.119031">
        <ele>691.3</ele>
        <time>2019-12-01T11:34:13.000Z</time>
      </trkpt>
      <trkpt lat="41.755935" lon="2.119009">
        <ele>690.2</ele>
        <time>2019-12-01T11:34:27.000Z</time>
      </trkpt>
      <trkpt lat="41.756028" lon="2.118999">
        <ele>689.4</ele>
        <time>2019-12-01T11:34:38.000Z</time>
      </trkpt>
      <trkpt lat="41.756095" lon="2.118988">
        <ele>688.9</ele>
        <time>2019-12-01T11:34:46.000Z</time>
      </trkpt>
      <trkpt lat="41.756142" lon="2.118972">
        <ele>688.6</ele>
        <time>2019-12-01T11:34:48.000Z</time>
      </trkpt>
      <trkpt lat="41.756224" lon="2.118932">
        <ele>688.1</ele>
        <time>2019-12-01T11:35:0.000Z</time>
      </trkpt>
      <trkpt lat="41.756285" lon="2.118899">
        <ele>687.7</ele>
        <time>2019-12-01T11:35:4.000Z</time>
      </trkpt>
      <trkpt lat="41.756382" lon="2.118855">
        <ele>686.7</ele>
        <time>2019-12-01T11:35:16.000Z</time>
      </trkpt>
      <trkpt lat="41.756436" lon="2.118828">
        <ele>686.2</ele>
        <time>2019-12-01T11:35:17.000Z</time>
      </trkpt>
      <trkpt lat="41.756567" lon="2.118771">
        <ele>685.4</ele>
        <time>2019-12-01T11:35:30.000Z</time>
      </trkpt>
      <trkpt lat="41.756693" lon="2.118748">
        <ele>684.1</ele>
        <time>2019-12-01T11:35:42.000Z</time>
      </trkpt>
      <trkpt lat="41.756787" lon="2.118731">
        <ele>683.0</ele>
        <time>2019-12-01T11:35:54.000Z</time>
      </trkpt>
      <trkpt lat="41.756887" lon="2.118714">
        <ele>682.4</ele>
        <time>2019-12-01T11:36:0.000Z</time>
      </trkpt>
      <trkpt lat="41.757023" lon="2.118723">
        <ele>682.0</ele>
        <time>2019-12-01T11:36:13.000Z</time>
      </trkpt>
      <trkpt lat="41.757221" lon="2.118732">
        <ele>680.6</ele>
        <time>2019-12-01T11:36:28.000Z</time>
      </trkpt>
      <trkpt lat="41.757374" lon="2.118736">
        <ele>679.9</ele>
        <time>2019-12-01T11:36:42.000Z</time>
      </trkpt>
      <trkpt lat="41.757539" lon="2.118740">
        <ele>679.2</ele>
        <time>2019-12-01T11:36:54.000Z</time>
      </trkpt>
      <trkpt lat="41.757667" lon="2.118701">
        <ele>679.0</ele>
        <time>2019-12-01T11:37:8.000Z</time>
      </trkpt>
      <trkpt lat="41.757782" lon="2.118639">
        <ele>679.0</ele>
        <time>2019-12-01T11:37:17.000Z</time>
      </trkpt>
      <trkpt lat="41.757989" lon="2.118530">
        <ele>678.9</ele>
        <time>2019-12-01T11:37:33.000Z</time>
      </trkpt>
      <trkpt lat="41.758093" lon="2.118510">
        <ele>678.1</ele>
        <time>2019-12-01T11:37:46.000Z</time>
      </trkpt>
      <trkpt lat="41.758220" lon="2.118502">
        <ele>678.0</ele>
        <time>2019-12-01T11:37:56.000Z</time>
      </trkpt>
      <trkpt lat="41.758327" lon="2.118493">
        <ele>677.4</ele>
        <time>2019-12-01T11:38:3.000Z</time>
      </trkpt>
      <trkpt lat="41.758440" lon="2.118462">
        <ele>676.8</ele>
        <time>2019-12-01T11:38:19.000Z</time>
      </trkpt>
      <trkpt lat="41.758600" lon="2.118376">
        <ele>676.3</ele>
        <time>2019-12-01T11:38:33.000Z</time>
      </trkpt>
      <trkpt lat="41.758692" lon="2.118325">
        <ele>675.3</ele>
        <time>2019-12-01T11:38:46.000Z</time>
      </trkpt>
      <trkpt lat="41.758938" lon="2.118260">
        <ele>672.9</ele>
        <time>2019-12-01T11:39:2.000Z</time>
      </trkpt>
      <trkpt lat="41.759080" lon="2.118223">
        <ele>671.8</ele>
        <time>2019-12-01T11:39:15.000Z</time>
      </trkpt>
      <trkpt lat="41.759248" lon="2.118173">
        <ele>670.3</ele>
        <time>2019-12-01T11:39:29.000Z</time>
      </trkpt>
      <trkpt lat="41.759306" lon="2.118163">
        <ele>669.8</ele>
        <time>2019-12-01T11:39:34.000Z</time>
      </trkpt>
      <trkpt lat="41.759385" lon="2.118144">
        <ele>668.6</ele>
        <time>2019-12-01T11:39:41.000Z</time>
      </trkpt>
      <trkpt lat="41.759460" lon="2.118126">
        <ele>667.6</ele>
        <time>2019-12-01T11:39:48.000Z</time>
      </trkpt>
      <trkpt lat="41.759669" lon="2.118090">
        <ele>663.3</ele>
        <time>2019-12-01T11:40:6.000Z</time>
      </trkpt>
      <trkpt lat="41.759787" lon="2.118075">
        <ele>661.9</ele>
        <time>2019-12-01T11:40:23.000Z</time>
      </trkpt>
      <trkpt lat="41.759927" lon="2.118049">
        <ele>660.8</ele>
        <time>2019-12-01T11:40:36.000Z</time>
      </trkpt>
      <trkpt lat="41.760003" lon="2.118038">
        <ele>660.1</ele>
        <time>2019-12-01T11:40:40.000Z</time>
      </trkpt>
      <trkpt lat="41.760089" lon="2.118016">
        <ele>659.4</ele>
        <time>2019-12-01T11:40:45.000Z</time>
      </trkpt>
      <trkpt lat="41.760238" lon="2.117980">
        <ele>658.2</ele>
        <time>2019-12-01T11:41:2.000Z</time>
      </trkpt>
      <trkpt lat="41.760324" lon="2.117963">
        <ele>657.9</ele>
        <time>2019-12-01T11:41:6.000Z</time>
      </trkpt>
      <trkpt lat="41.760493" lon="2.117925">
        <ele>657.2</ele>
        <time>2019-12-01T11:41:22.000Z</time>
      </trkpt>
      <trkpt lat="41.760619" lon="2.117885">
        <ele>655.8</ele>
        <time>2019-12-01T11:41:33.000Z</time>
      </trkpt>
      <trkpt lat="41.760742" lon="2.117868">
        <ele>654.5</ele>
        <time>2019-12-01T11:41:45.000Z</time>
      </trkpt>
      <trkpt lat="41.760923" lon="2.117824">
        <ele>652.3</ele>
        <time>2019-12-01T11:42:0.000Z</time>
      </trkpt>
      <trkpt lat="41.760962" lon="2.117818">
        <ele>651.9</ele>
        <time>2019-12-01T11:42:4.000Z</time>
      </trkpt>
      <trkpt lat="41.761114" lon="2.117780">
        <ele>650.7</ele>
        <time>2019-12-01T11:42:18.000Z</time>
      </trkpt>
      <trkpt lat="41.761258" lon="2.117755">
        <ele>649.5</ele>
        <time>2019-12-01T11:42:33.000Z</time>
      </trkpt>
      <trkpt lat="41.761432" lon="2.117736">
        <ele>647.7</ele>
        <time>2019-12-01T11:42:48.000Z</time>
      </trkpt>
      <trkpt lat="41.761540" lon="2.117767">
        <ele>646.6</ele>
        <time>2019-12-01T11:43:2.000Z</time>
      </trkpt>
      <trkpt lat="41.761579" lon="2.117793">
        <ele>646.3</ele>
        <time>2019-12-01T11:43:18.000Z</time>
      </trkpt>
      <trkpt lat="41.761572" lon="2.117820">
        <ele>646.4</ele>
        <time>2019-12-01T11:43:33.000Z</time>
      </trkpt>
      <trkpt lat="41.761578" lon="2.117830">
        <ele>646.3</ele>
        <time>2019-12-01T11:43:56.000Z</time>
      </trkpt>
      <trkpt lat="41.761592" lon="2.117831">
        <ele>646.2</ele>
        <time>2019-12-01T11:43:57.000Z</time>
      </trkpt>
      <trkpt lat="41.761728" lon="2.117922">
        <ele>645.7</ele>
        <time>2019-12-01T11:44:12.000Z</time>
      </trkpt>
      <trkpt lat="41.761808" lon="2.117934">
        <ele>645.4</ele>
        <time>2019-12-01T11:44:19.000Z</time>
      </trkpt>
      <trkpt lat="41.761841" lon="2.117976">
        <ele>645.3</ele>
        <time>2019-12-01T11:44:38.000Z</time>
      </trkpt>
      <trkpt lat="41.761866" lon="2.118074">
        <ele>645.6</ele>
        <time>2019-12-01T11:44:51.000Z</time>
      </trkpt>
      <trkpt lat="41.761854" lon="2.118138">
        <ele>645.9</ele>
        <time>2019-12-01T11:44:57.000Z</time>
      </trkpt>
      <trkpt lat="41.761658" lon="2.118317">
        <ele>646.0</ele>
        <time>2019-12-01T11:45:12.000Z</time>
      </trkpt>
      <trkpt lat="41.761557" lon="2.118419">
        <ele>646.3</ele>
        <time>2019-12-01T11:45:26.000Z</time>
      </trkpt>
      <trkpt lat="41.761432" lon="2.118536">
        <ele>647.3</ele>
        <time>2019-12-01T11:45:41.000Z</time>
      </trkpt>
      <trkpt lat="41.761379" lon="2.118589">
        <ele>647.3</ele>
        <time>2019-12-01T11:45:43.000Z</time>
      </trkpt>
      <trkpt lat="41.761335" lon="2.118631">
        <ele>647.6</ele>
        <time>2019-12-01T11:45:55.000Z</time>
      </trkpt>
      <trkpt lat="41.761291" lon="2.118713">
        <ele>647.4</ele>
        <time>2019-12-01T11:46:8.000Z</time>
      </trkpt>
      <trkpt lat="41.761270" lon="2.118800">
        <ele>647.1</ele>
        <time>2019-12-01T11:46:18.000Z</time>
      </trkpt>
      <trkpt lat="41.761264" lon="2.118868">
        <ele>646.8</ele>
        <time>2019-12-01T11:46:20.000Z</time>
      </trkpt>
      <trkpt lat="41.761293" lon="2.119017">
        <ele>646.5</ele>
        <time>2019-12-01T11:46:22.000Z</time>
      </trkpt>
      <trkpt lat="41.761342" lon="2.119390">
        <ele>646.0</ele>
        <time>2019-12-01T11:46:38.000Z</time>
      </trkpt>
      <trkpt lat="41.761382" lon="2.119612">
        <ele>645.0</ele>
        <time>2019-12-01T11:46:53.000Z</time>
      </trkpt>
      <trkpt lat="41.761395" lon="2.119707">
        <ele>645.0</ele>
        <time>2019-12-01T11:46:57.000Z</time>
      </trkpt>
      <trkpt lat="41.761416" lon="2.119844">
        <ele>644.8</ele>
        <time>2019-12-01T11:47:13.000Z</time>
      </trkpt>
      <trkpt lat="41.761397" lon="2.119946">
        <ele>644.6</ele>
        <time>2019-12-01T11:47:21.000Z</time>
      </trkpt>
      <trkpt lat="41.761353" lon="2.120017">
        <ele>644.8</ele>
        <time>2019-12-01T11:47:28.000Z</time>
      </trkpt>
      <trkpt lat="41.761213" lon="2.120070">
        <ele>644.5</ele>
        <time>2019-12-01T11:47:45.000Z</time>
      </trkpt>
      <trkpt lat="41.761172" lon="2.120083">
        <ele>644.7</ele>
        <time>2019-12-01T11:47:52.000Z</time>
      </trkpt>
      <trkpt lat="41.761190" lon="2.120218">
        <ele>644.1</ele>
        <time>2019-12-01T11:47:55.000Z</time>
      </trkpt>
      <trkpt lat="41.761207" lon="2.120312">
        <ele>643.5</ele>
        <time>2019-12-01T11:48:0.000Z</time>
      </trkpt>
      <trkpt lat="41.761222" lon="2.120347">
        <ele>643.3</ele>
        <time>2019-12-01T11:48:2.000Z</time>
      </trkpt>
      <trkpt lat="41.761305" lon="2.120430">
        <ele>643.8</ele>
        <time>2019-12-01T11:48:8.000Z</time>
      </trkpt>
      <trkpt lat="41.761370" lon="2.120537">
        <ele>644.0</ele>
        <time>2019-12-01T11:48:23.000Z</time>
      </trkpt>
      <trkpt lat="41.761397" lon="2.120672">
        <ele>643.8</ele>
        <time>2019-12-01T11:48:35.000Z</time>
      </trkpt>
      <trkpt lat="41.761406" lon="2.120956">
        <ele>645.4</ele>
        <time>2019-12-01T11:48:48.000Z</time>
      </trkpt>
      <trkpt lat="41.761427" lon="2.121192">
        <ele>645.8</ele>
        <time>2019-12-01T11:49:3.000Z</time>
      </trkpt>
      <trkpt lat="41.761443" lon="2.121439">
        <ele>646.0</ele>
        <time>2019-12-01T11:49:18.000Z</time>
      </trkpt>
      <trkpt lat="41.761463" lon="2.121671">
        <ele>645.4</ele>
        <time>2019-12-01T11:49:31.000Z</time>
      </trkpt>
      <trkpt lat="41.761418" lon="2.121908">
        <ele>644.8</ele>
        <time>2019-12-01T11:49:47.000Z</time>
      </trkpt>
      <trkpt lat="41.761328" lon="2.122138">
        <ele>645.5</ele>
        <time>2019-12-01T11:50:4.000Z</time>
      </trkpt>
      <trkpt lat="41.761296" lon="2.122245">
        <ele>645.4</ele>
        <time>2019-12-01T11:50:19.000Z</time>
      </trkpt>
      <trkpt lat="41.761280" lon="2.122309">
        <ele>644.9</ele>
        <time>2019-12-01T11:50:35.000Z</time>
      </trkpt>
      <trkpt lat="41.761264" lon="2.122382">
        <ele>644.8</ele>
        <time>2019-12-01T11:50:38.000Z</time>
      </trkpt>
      <trkpt lat="41.761240" lon="2.122501">
        <ele>645.1</ele>
        <time>2019-12-01T11:50:52.000Z</time>
      </trkpt>
      <trkpt lat="41.761233" lon="2.122747">
        <ele>644.3</ele>
        <time>2019-12-01T11:51:8.000Z</time>
      </trkpt>
      <trkpt lat="41.761219" lon="2.122970">
        <ele>643.6</ele>
        <time>2019-12-01T11:51:21.000Z</time>
      </trkpt>
      <trkpt lat="41.761175" lon="2.123103">
        <ele>643.8</ele>
        <time>2019-12-01T11:51:29.000Z</time>
      </trkpt>
      <trkpt lat="41.761169" lon="2.123113">
        <ele>643.8</ele>
        <time>2019-12-01T11:51:30.000Z</time>
      </trkpt>
      <trkpt lat="41.761147" lon="2.123172">
        <ele>643.9</ele>
        <time>2019-12-01T11:51:35.000Z</time>
      </trkpt>
      <trkpt lat="41.761135" lon="2.123240">
        <ele>643.8</ele>
        <time>2019-12-01T11:51:44.000Z</time>
      </trkpt>
      <trkpt lat="41.761140" lon="2.123300">
        <ele>644.4</ele>
        <time>2019-12-01T11:51:45.000Z</time>
      </trkpt>
      <trkpt lat="41.761169" lon="2.123366">
        <ele>644.5</ele>
        <time>2019-12-01T11:51:48.000Z</time>
      </trkpt>
      <trkpt lat="41.761194" lon="2.123406">
        <ele>644.4</ele>
        <time>2019-12-01T11:51:52.000Z</time>
      </trkpt>
      <trkpt lat="41.761224" lon="2.123435">
        <ele>643.9</ele>
        <time>2019-12-01T11:51:54.000Z</time>
      </trkpt>
      <trkpt lat="41.761237" lon="2.123459">
        <ele>643.9</ele>
        <time>2019-12-01T11:52:8.000Z</time>
      </trkpt>
      <trkpt lat="41.761271" lon="2.123521">
        <ele>643.9</ele>
        <time>2019-12-01T11:52:33.000Z</time>
      </trkpt>
      <trkpt lat="41.761300" lon="2.123694">
        <ele>644.0</ele>
        <time>2019-12-01T11:52:46.000Z</time>
      </trkpt>
      <trkpt lat="41.761341" lon="2.123784">
        <ele>643.3</ele>
        <time>2019-12-01T11:52:52.000Z</time>
      </trkpt>
      <trkpt lat="41.761361" lon="2.123846">
        <ele>643.5</ele>
        <time>2019-12-01T11:52:55.000Z</time>
      </trkpt>
      <trkpt lat="41.761402" lon="2.123913">
        <ele>643.6</ele>
        <time>2019-12-01T11:52:56.000Z</time>
      </trkpt>
      <trkpt lat="41.761474" lon="2.124041">
        <ele>643.7</ele>
        <time>2019-12-01T11:53:10.000Z</time>
      </trkpt>
      <trkpt lat="41.761607" lon="2.124236">
        <ele>643.6</ele>
        <time>2019-12-01T11:53:22.000Z</time>
      </trkpt>
      <trkpt lat="41.761717" lon="2.124457">
        <ele>643.2</ele>
        <time>2019-12-01T11:53:34.000Z</time>
      </trkpt>
      <trkpt lat="41.761805" lon="2.124623">
        <ele>643.6</ele>
        <time>2019-12-01T11:53:46.000Z</time>
      </trkpt>
      <trkpt lat="41.761863" lon="2.124736">
        <ele>643.1</ele>
        <time>2019-12-01T11:53:58.000Z</time>
      </trkpt>
      <trkpt lat="41.761891" lon="2.124785">
        <ele>643.1</ele>
        <time>2019-12-01T11:53:59.000Z</time>
      </trkpt>
      <trkpt lat="41.761920" lon="2.124860">
        <ele>643.5</ele>
        <time>2019-12-01T11:54:1.000Z</time>
      </trkpt>
      <trkpt lat="41.761949" lon="2.124955">
        <ele>644.1</ele>
        <time>2019-12-01T11:54:13.000Z</time>
      </trkpt>
      <trkpt lat="41.761969" lon="2.125015">
        <ele>644.0</ele>
        <time>2019-12-01T11:54:40.000Z</time>
      </trkpt>
      <trkpt lat="41.761979" lon="2.125046">
        <ele>643.6</ele>
        <time>2019-12-01T11:54:41.000Z</time>
      </trkpt>
      <trkpt lat="41.762045" lon="2.125201">
        <ele>644.5</ele>
        <time>2019-12-01T11:54:53.000Z</time>
      </trkpt>
      <trkpt lat="41.762059" lon="2.125212">
        <ele>644.8</ele>
        <time>2019-12-01T11:54:54.000Z</time>
      </trkpt>
      <trkpt lat="41.762137" lon="2.125236">
        <ele>644.6</ele>
        <time>2019-12-01T11:55:6.000Z</time>
      </trkpt>
      <trkpt lat="41.762180" lon="2.125249">
        <ele>644.3</ele>
        <time>2019-12-01T11:55:7.000Z</time>
      </trkpt>
      <trkpt lat="41.762209" lon="2.125245">
        <ele>644.0</ele>
        <time>2019-12-01T11:55:8.000Z</time>
      </trkpt>
      <trkpt lat="41.762268" lon="2.125218">
        <ele>644.5</ele>
        <time>2019-12-01T11:55:9.000Z</time>
      </trkpt>
      <trkpt lat="41.762304" lon="2.125207">
        <ele>645.0</ele>
        <time>2019-12-01T11:55:10.000Z</time>
      </trkpt>
      <trkpt lat="41.762340" lon="2.125167">
        <ele>645.7</ele>
        <time>2019-12-01T11:55:11.000Z</time>
      </trkpt>
      <trkpt lat="41.762374" lon="2.125139">
        <ele>645.8</ele>
        <time>2019-12-01T11:55:24.000Z</time>
      </trkpt>
      <trkpt lat="41.762392" lon="2.125119">
        <ele>645.9</ele>
        <time>2019-12-01T11:55:30.000Z</time>
      </trkpt>
      <trkpt lat="41.762446" lon="2.125192">
        <ele>646.0</ele>
        <time>2019-12-01T11:55:31.000Z</time>
      </trkpt>
      <trkpt lat="41.762488" lon="2.125234">
        <ele>645.8</ele>
        <time>2019-12-01T11:55:32.000Z</time>
      </trkpt>
      <trkpt lat="41.762520" lon="2.125285">
        <ele>646.4</ele>
        <time>2019-12-01T11:55:36.000Z</time>
      </trkpt>
      <trkpt lat="41.762549" lon="2.125329">
        <ele>646.7</ele>
        <time>2019-12-01T11:55:37.000Z</time>
      </trkpt>
      <trkpt lat="41.762570" lon="2.125380">
        <ele>646.8</ele>
        <time>2019-12-01T11:55:39.000Z</time>
      </trkpt>
      <trkpt lat="41.762601" lon="2.125451">
        <ele>646.8</ele>
        <time>2019-12-01T11:55:43.000Z</time>
      </trkpt>
      <trkpt lat="41.762647" lon="2.125581">
        <ele>646.9</ele>
        <time>2019-12-01T11:55:56.000Z</time>
      </trkpt>
      <trkpt lat="41.762687" lon="2.125687">
        <ele>647.3</ele>
        <time>2019-12-01T11:56:4.000Z</time>
      </trkpt>
      <trkpt lat="41.762719" lon="2.125772">
        <ele>647.6</ele>
        <time>2019-12-01T11:56:6.000Z</time>
      </trkpt>
      <trkpt lat="41.762743" lon="2.125855">
        <ele>647.8</ele>
        <time>2019-12-01T11:56:17.000Z</time>
      </trkpt>
      <trkpt lat="41.762753" lon="2.125900">
        <ele>647.9</ele>
        <time>2019-12-01T11:56:23.000Z</time>
      </trkpt>
      <trkpt lat="41.762771" lon="2.125913">
        <ele>648.2</ele>
        <time>2019-12-01T11:56:25.000Z</time>
      </trkpt>
      <trkpt lat="41.762798" lon="2.125966">
        <ele>648.2</ele>
        <time>2019-12-01T11:56:29.000Z</time>
      </trkpt>
      <trkpt lat="41.762836" lon="2.125991">
        <ele>648.8</ele>
        <time>2019-12-01T11:56:30.000Z</time>
      </trkpt>
      <trkpt lat="41.762879" lon="2.126002">
        <ele>649.6</ele>
        <time>2019-12-01T11:56:34.000Z</time>
      </trkpt>
      <trkpt lat="41.762906" lon="2.126037">
        <ele>649.9</ele>
        <time>2019-12-01T11:56:38.000Z</time>
      </trkpt>
      <trkpt lat="41.762902" lon="2.126083">
        <ele>649.3</ele>
        <time>2019-12-01T11:56:39.000Z</time>
      </trkpt>
      <trkpt lat="41.762899" lon="2.126103">
        <ele>649.3</ele>
        <time>2019-12-01T11:56:40.000Z</time>
      </trkpt>
      <trkpt lat="41.762890" lon="2.126150">
        <ele>649.5</ele>
        <time>2019-12-01T11:56:41.000Z</time>
      </trkpt>
      <trkpt lat="41.762881" lon="2.126205">
        <ele>649.7</ele>
        <time>2019-12-01T11:56:42.000Z</time>
      </trkpt>
      <trkpt lat="41.762879" lon="2.126274">
        <ele>650.2</ele>
        <time>2019-12-01T11:56:54.000Z</time>
      </trkpt>
      <trkpt lat="41.762897" lon="2.126364">
        <ele>650.9</ele>
        <time>2019-12-01T11:56:57.000Z</time>
      </trkpt>
      <trkpt lat="41.762919" lon="2.126469">
        <ele>651.9</ele>
        <time>2019-12-01T11:57:3.000Z</time>
      </trkpt>
      <trkpt lat="41.762971" lon="2.126623">
        <ele>651.7</ele>
        <time>2019-12-01T11:57:15.000Z</time>
      </trkpt>
      <trkpt lat="41.763010" lon="2.126750">
        <ele>652.2</ele>
        <time>2019-12-01T11:57:27.000Z</time>
      </trkpt>
      <trkpt lat="41.763025" lon="2.126778">
        <ele>652.6</ele>
        <time>2019-12-01T11:57:40.000Z</time>
      </trkpt>
      <trkpt lat="41.763071" lon="2.126836">
        <ele>654.5</ele>
        <time>2019-12-01T11:57:46.000Z</time>
      </trkpt>
      <trkpt lat="41.763130" lon="2.126909">
        <ele>655.4</ele>
        <time>2019-12-01T11:57:47.000Z</time>
      </trkpt>
      <trkpt lat="41.763186" lon="2.126984">
        <ele>655.0</ele>
        <time>2019-12-01T11:57:48.000Z</time>
      </trkpt>
      <trkpt lat="41.763233" lon="2.127053">
        <ele>657.0</ele>
        <time>2019-12-01T11:57:49.000Z</time>
      </trkpt>
      <trkpt lat="41.763270" lon="2.127115">
        <ele>657.3</ele>
        <time>2019-12-01T11:57:56.000Z</time>
      </trkpt>
      <trkpt lat="41.763297" lon="2.127170">
        <ele>656.6</ele>
        <time>2019-12-01T11:58:3.000Z</time>
      </trkpt>
      <trkpt lat="41.763330" lon="2.127232">
        <ele>657.4</ele>
        <time>2019-12-01T11:58:12.000Z</time>
      </trkpt>
      <trkpt lat="41.763357" lon="2.127294">
        <ele>657.9</ele>
        <time>2019-12-01T11:58:15.000Z</time>
      </trkpt>
      <trkpt lat="41.763387" lon="2.127347">
        <ele>658.3</ele>
        <time>2019-12-01T11:58:19.000Z</time>
      </trkpt>
      <trkpt lat="41.763430" lon="2.127434">
        <ele>658.4</ele>
        <time>2019-12-01T11:58:27.000Z</time>
      </trkpt>
      <trkpt lat="41.763457" lon="2.127480">
        <ele>658.5</ele>
        <time>2019-12-01T11:58:30.000Z</time>
      </trkpt>
      <trkpt lat="41.763492" lon="2.127573">
        <ele>658.8</ele>
        <time>2019-12-01T11:58:39.000Z</time>
      </trkpt>
      <trkpt lat="41.763544" lon="2.127750">
        <ele>658.6</ele>
        <time>2019-12-01T11:58:52.000Z</time>
      </trkpt>
      <trkpt lat="41.763548" lon="2.127771">
        <ele>658.6</ele>
        <time>2019-12-01T11:58:53.000Z</time>
      </trkpt>
      <trkpt lat="41.763574" lon="2.127937">
        <ele>658.0</ele>
        <time>2019-12-01T11:59:5.000Z</time>
      </trkpt>
      <trkpt lat="41.763578" lon="2.127951">
        <ele>658.2</ele>
        <time>2019-12-01T11:59:6.000Z</time>
      </trkpt>
      <trkpt lat="41.763589" lon="2.128013">
        <ele>658.9</ele>
        <time>2019-12-01T11:59:14.000Z</time>
      </trkpt>
      <trkpt lat="41.763595" lon="2.128079">
        <ele>659.4</ele>
        <time>2019-12-01T11:59:15.000Z</time>
      </trkpt>
      <trkpt lat="41.763608" lon="2.128174">
        <ele>659.8</ele>
        <time>2019-12-01T11:59:24.000Z</time>
      </trkpt>
      <trkpt lat="41.763609" lon="2.128238">
        <ele>659.8</ele>
        <time>2019-12-01T11:59:25.000Z</time>
      </trkpt>
      <trkpt lat="41.763609" lon="2.128296">
        <ele>659.8</ele>
        <time>2019-12-01T11:59:28.000Z</time>
      </trkpt>
      <trkpt lat="41.763611" lon="2.128315">
        <ele>659.8</ele>
        <time>2019-12-01T11:59:29.000Z</time>
      </trkpt>
      <trkpt lat="41.763642" lon="2.128528">
        <ele>661.3</ele>
        <time>2019-12-01T11:59:43.000Z</time>
      </trkpt>
      <trkpt lat="41.763649" lon="2.128589">
        <ele>661.7</ele>
        <time>2019-12-01T11:59:48.000Z</time>
      </trkpt>
      <trkpt lat="41.763659" lon="2.128797">
        <ele>662.1</ele>
        <time>2019-12-01T12:00:1.000Z</time>
      </trkpt>
      <trkpt lat="41.763657" lon="2.128849">
        <ele>662.5</ele>
        <time>2019-12-01T12:00:5.000Z</time>
      </trkpt>
      <trkpt lat="41.763658" lon="2.128927">
        <ele>663.1</ele>
        <time>2019-12-01T12:00:11.000Z</time>
      </trkpt>
      <trkpt lat="41.763658" lon="2.128943">
        <ele>663.3</ele>
        <time>2019-12-01T12:00:12.000Z</time>
      </trkpt>
      <trkpt lat="41.763657" lon="2.128960">
        <ele>663.4</ele>
        <time>2019-12-01T12:00:13.000Z</time>
      </trkpt>
      <trkpt lat="41.763661" lon="2.129027">
        <ele>664.0</ele>
        <time>2019-12-01T12:00:19.000Z</time>
      </trkpt>
      <trkpt lat="41.763673" lon="2.129231">
        <ele>665.6</ele>
        <time>2019-12-01T12:00:34.000Z</time>
      </trkpt>
      <trkpt lat="41.763684" lon="2.129305">
        <ele>666.2</ele>
        <time>2019-12-01T12:00:40.000Z</time>
      </trkpt>
      <trkpt lat="41.763691" lon="2.129341">
        <ele>666.4</ele>
        <time>2019-12-01T12:00:41.000Z</time>
      </trkpt>
      <trkpt lat="41.763691" lon="2.129365">
        <ele>666.3</ele>
        <time>2019-12-01T12:00:42.000Z</time>
      </trkpt>
      <trkpt lat="41.763691" lon="2.129409">
        <ele>666.0</ele>
        <time>2019-12-01T12:00:43.000Z</time>
      </trkpt>
      <trkpt lat="41.763729" lon="2.129562">
        <ele>666.2</ele>
        <time>2019-12-01T12:00:57.000Z</time>
      </trkpt>
      <trkpt lat="41.763758" lon="2.129668">
        <ele>666.4</ele>
        <time>2019-12-01T12:01:2.000Z</time>
      </trkpt>
      <trkpt lat="41.763799" lon="2.129794">
        <ele>666.5</ele>
        <time>2019-12-01T12:01:10.000Z</time>
      </trkpt>
      <trkpt lat="41.763846" lon="2.129949">
        <ele>665.4</ele>
        <time>2019-12-01T12:01:21.000Z</time>
      </trkpt>
      <trkpt lat="41.763888" lon="2.130020">
        <ele>666.3</ele>
        <time>2019-12-01T12:01:27.000Z</time>
      </trkpt>
      <trkpt lat="41.763910" lon="2.130052">
        <ele>666.6</ele>
        <time>2019-12-01T12:01:29.000Z</time>
      </trkpt>
      <trkpt lat="41.763986" lon="2.130168">
        <ele>666.9</ele>
        <time>2019-12-01T12:01:39.000Z</time>
      </trkpt>
      <trkpt lat="41.764021" lon="2.130214">
        <ele>667.7</ele>
        <time>2019-12-01T12:01:43.000Z</time>
      </trkpt>
      <trkpt lat="41.764086" lon="2.130312">
        <ele>666.5</ele>
        <time>2019-12-01T12:01:50.000Z</time>
      </trkpt>
      <trkpt lat="41.764111" lon="2.130335">
        <ele>667.0</ele>
        <time>2019-12-01T12:01:53.000Z</time>
      </trkpt>
      <trkpt lat="41.764135" lon="2.130362">
        <ele>667.5</ele>
        <time>2019-12-01T12:01:56.000Z</time>
      </trkpt>
      <trkpt lat="41.764171" lon="2.130415">
        <ele>667.1</ele>
        <time>2019-12-01T12:02:0.000Z</time>
      </trkpt>
      <trkpt lat="41.764213" lon="2.130476">
        <ele>666.1</ele>
        <time>2019-12-01T12:02:4.000Z</time>
      </trkpt>
      <trkpt lat="41.764281" lon="2.130540">
        <ele>668.9</ele>
        <time>2019-12-01T12:02:12.000Z</time>
      </trkpt>
      <trkpt lat="41.764401" lon="2.130704">
        <ele>668.3</ele>
        <time>2019-12-01T12:02:26.000Z</time>
      </trkpt>
      <trkpt lat="41.764427" lon="2.130734">
        <ele>668.8</ele>
        <time>2019-12-01T12:02:29.000Z</time>
      </trkpt>
      <trkpt lat="41.764465" lon="2.130788">
        <ele>668.8</ele>
        <time>2019-12-01T12:02:33.000Z</time>
      </trkpt>
      <trkpt lat="41.764557" lon="2.130931">
        <ele>669.1</ele>
        <time>2019-12-01T12:02:44.000Z</time>
      </trkpt>
      <trkpt lat="41.764592" lon="2.130976">
        <ele>669.1</ele>
        <time>2019-12-01T12:02:48.000Z</time>
      </trkpt>
      <trkpt lat="41.764653" lon="2.131064">
        <ele>669.0</ele>
        <time>2019-12-01T12:02:56.000Z</time>
      </trkpt>
      <trkpt lat="41.764678" lon="2.131104">
        <ele>668.9</ele>
        <time>2019-12-01T12:02:57.000Z</time>
      </trkpt>
      <trkpt lat="41.764696" lon="2.131131">
        <ele>668.8</ele>
        <time>2019-12-01T12:03:0.000Z</time>
      </trkpt>
      <trkpt lat="41.764701" lon="2.131138">
        <ele>668.8</ele>
        <time>2019-12-01T12:03:1.000Z</time>
      </trkpt>
      <trkpt lat="41.764774" lon="2.131207">
        <ele>668.7</ele>
        <time>2019-12-01T12:03:8.000Z</time>
      </trkpt>
      <trkpt lat="41.764800" lon="2.131249">
        <ele>668.4</ele>
        <time>2019-12-01T12:03:11.000Z</time>
      </trkpt>
      <trkpt lat="41.764813" lon="2.131265">
        <ele>668.3</ele>
        <time>2019-12-01T12:03:12.000Z</time>
      </trkpt>
      <trkpt lat="41.764884" lon="2.131328">
        <ele>668.8</ele>
        <time>2019-12-01T12:03:19.000Z</time>
      </trkpt>
      <trkpt lat="41.764910" lon="2.131346">
        <ele>669.1</ele>
        <time>2019-12-01T12:03:22.000Z</time>
      </trkpt>
      <trkpt lat="41.764929" lon="2.131369">
        <ele>669.1</ele>
        <time>2019-12-01T12:03:24.000Z</time>
      </trkpt>
      <trkpt lat="41.764942" lon="2.131380">
        <ele>669.2</ele>
        <time>2019-12-01T12:03:25.000Z</time>
      </trkpt>
      <trkpt lat="41.765046" lon="2.131484">
        <ele>669.0</ele>
        <time>2019-12-01T12:03:34.000Z</time>
      </trkpt>
      <trkpt lat="41.765068" lon="2.131525">
        <ele>668.7</ele>
        <time>2019-12-01T12:03:37.000Z</time>
      </trkpt>
      <trkpt lat="41.765076" lon="2.131534">
        <ele>668.6</ele>
        <time>2019-12-01T12:03:38.000Z</time>
      </trkpt>
      <trkpt lat="41.765099" lon="2.131557">
        <ele>668.6</ele>
        <time>2019-12-01T12:03:41.000Z</time>
      </trkpt>
      <trkpt lat="41.765150" lon="2.131617">
        <ele>668.3</ele>
        <time>2019-12-01T12:03:53.000Z</time>
      </trkpt>
      <trkpt lat="41.765193" lon="2.131663">
        <ele>668.1</ele>
        <time>2019-12-01T12:03:58.000Z</time>
      </trkpt>
      <trkpt lat="41.765233" lon="2.131699">
        <ele>668.1</ele>
        <time>2019-12-01T12:03:59.000Z</time>
      </trkpt>
      <trkpt lat="41.765265" lon="2.131727">
        <ele>668.1</ele>
        <time>2019-12-01T12:04:0.000Z</time>
      </trkpt>
      <trkpt lat="41.765305" lon="2.131754">
        <ele>668.3</ele>
        <time>2019-12-01T12:04:2.000Z</time>
      </trkpt>
      <trkpt lat="41.765357" lon="2.131798">
        <ele>668.3</ele>
        <time>2019-12-01T12:04:4.000Z</time>
      </trkpt>
      <trkpt lat="41.765432" lon="2.131851">
        <ele>668.3</ele>
        <time>2019-12-01T12:04:5.000Z</time>
      </trkpt>
      <trkpt lat="41.765486" lon="2.131891">
        <ele>668.2</ele>
        <time>2019-12-01T12:04:15.000Z</time>
      </trkpt>
      <trkpt lat="41.765538" lon="2.131933">
        <ele>668.0</ele>
        <time>2019-12-01T12:04:16.000Z</time>
      </trkpt>
      <trkpt lat="41.765606" lon="2.131992">
        <ele>667.7</ele>
        <time>2019-12-01T12:04:30.000Z</time>
      </trkpt>
      <trkpt lat="41.765662" lon="2.132026">
        <ele>667.7</ele>
        <time>2019-12-01T12:04:35.000Z</time>
      </trkpt>
      <trkpt lat="41.765697" lon="2.132053">
        <ele>667.4</ele>
        <time>2019-12-01T12:04:38.000Z</time>
      </trkpt>
      <trkpt lat="41.765742" lon="2.132070">
        <ele>667.5</ele>
        <time>2019-12-01T12:04:41.000Z</time>
      </trkpt>
      <trkpt lat="41.765752" lon="2.132077">
        <ele>667.5</ele>
        <time>2019-12-01T12:04:42.000Z</time>
      </trkpt>
      <trkpt lat="41.765762" lon="2.132084">
        <ele>667.5</ele>
        <time>2019-12-01T12:04:43.000Z</time>
      </trkpt>
      <trkpt lat="41.765833" lon="2.132144">
        <ele>668.1</ele>
        <time>2019-12-01T12:04:51.000Z</time>
      </trkpt>
      <trkpt lat="41.765907" lon="2.132207">
        <ele>668.1</ele>
        <time>2019-12-01T12:05:4.000Z</time>
      </trkpt>
      <trkpt lat="41.765995" lon="2.132281">
        <ele>668.6</ele>
        <time>2019-12-01T12:05:15.000Z</time>
      </trkpt>
      <trkpt lat="41.766043" lon="2.132311">
        <ele>669.1</ele>
        <time>2019-12-01T12:05:16.000Z</time>
      </trkpt>
      <trkpt lat="41.766120" lon="2.132358">
        <ele>669.1</ele>
        <time>2019-12-01T12:05:17.000Z</time>
      </trkpt>
      <trkpt lat="41.766183" lon="2.132384">
        <ele>669.2</ele>
        <time>2019-12-01T12:05:24.000Z</time>
      </trkpt>
      <trkpt lat="41.766257" lon="2.132458">
        <ele>668.9</ele>
        <time>2019-12-01T12:05:35.000Z</time>
      </trkpt>
      <trkpt lat="41.766293" lon="2.132488">
        <ele>669.4</ele>
        <time>2019-12-01T12:05:39.000Z</time>
      </trkpt>
      <trkpt lat="41.766318" lon="2.132526">
        <ele>669.9</ele>
        <time>2019-12-01T12:05:41.000Z</time>
      </trkpt>
      <trkpt lat="41.766356" lon="2.132570">
        <ele>669.9</ele>
        <time>2019-12-01T12:05:43.000Z</time>
      </trkpt>
      <trkpt lat="41.766408" lon="2.132621">
        <ele>670.3</ele>
        <time>2019-12-01T12:05:44.000Z</time>
      </trkpt>
      <trkpt lat="41.766460" lon="2.132674">
        <ele>670.9</ele>
        <time>2019-12-01T12:05:55.000Z</time>
      </trkpt>
      <trkpt lat="41.766534" lon="2.132752">
        <ele>670.8</ele>
        <time>2019-12-01T12:06:4.000Z</time>
      </trkpt>
      <trkpt lat="41.766582" lon="2.132783">
        <ele>671.0</ele>
        <time>2019-12-01T12:06:5.000Z</time>
      </trkpt>
      <trkpt lat="41.766640" lon="2.132825">
        <ele>671.0</ele>
        <time>2019-12-01T12:06:10.000Z</time>
      </trkpt>
      <trkpt lat="41.766719" lon="2.132876">
        <ele>670.6</ele>
        <time>2019-12-01T12:06:19.000Z</time>
      </trkpt>
      <trkpt lat="41.766850" lon="2.132927">
        <ele>671.1</ele>
        <time>2019-12-01T12:06:29.000Z</time>
      </trkpt>
      <trkpt lat="41.766969" lon="2.132960">
        <ele>671.8</ele>
        <time>2019-12-01T12:06:39.000Z</time>
      </trkpt>
      <trkpt lat="41.767038" lon="2.132993">
        <ele>671.4</ele>
        <time>2019-12-01T12:06:49.000Z</time>
      </trkpt>
      <trkpt lat="41.767117" lon="2.133008">
        <ele>672.0</ele>
        <time>2019-12-01T12:06:56.000Z</time>
      </trkpt>
      <trkpt lat="41.767147" lon="2.133028">
        <ele>671.4</ele>
        <time>2019-12-01T12:06:57.000Z</time>
      </trkpt>
      <trkpt lat="41.767176" lon="2.133037">
        <ele>671.5</ele>
        <time>2019-12-01T12:06:58.000Z</time>
      </trkpt>
      <trkpt lat="41.767215" lon="2.133043">
        <ele>671.9</ele>
        <time>2019-12-01T12:07:4.000Z</time>
      </trkpt>
      <trkpt lat="41.767246" lon="2.133052">
        <ele>672.1</ele>
        <time>2019-12-01T12:07:5.000Z</time>
      </trkpt>
      <trkpt lat="41.767276" lon="2.133063">
        <ele>672.1</ele>
        <time>2019-12-01T12:07:9.000Z</time>
      </trkpt>
      <trkpt lat="41.767340" lon="2.133094">
        <ele>670.4</ele>
        <time>2019-12-01T12:07:16.000Z</time>
      </trkpt>
      <trkpt lat="41.767402" lon="2.133119">
        <ele>669.0</ele>
        <time>2019-12-01T12:07:19.000Z</time>
      </trkpt>
      <trkpt lat="41.767496" lon="2.133112">
        <ele>668.8</ele>
        <time>2019-12-01T12:07:34.000Z</time>
      </trkpt>
      <trkpt lat="41.767625" lon="2.133094">
        <ele>669.1</ele>
        <time>2019-12-01T12:07:46.000Z</time>
      </trkpt>
      <trkpt lat="41.767718" lon="2.133087">
        <ele>669.2</ele>
        <time>2019-12-01T12:07:57.000Z</time>
      </trkpt>
      <trkpt lat="41.767767" lon="2.133080">
        <ele>669.6</ele>
        <time>2019-12-01T12:08:8.000Z</time>
      </trkpt>
      <trkpt lat="41.767864" lon="2.133100">
        <ele>670.6</ele>
        <time>2019-12-01T12:08:14.000Z</time>
      </trkpt>
      <trkpt lat="41.767945" lon="2.133125">
        <ele>672.5</ele>
        <time>2019-12-01T12:08:15.000Z</time>
      </trkpt>
      <trkpt lat="41.768056" lon="2.133162">
        <ele>671.3</ele>
        <time>2019-12-01T12:08:25.000Z</time>
      </trkpt>
      <trkpt lat="41.768124" lon="2.133180">
        <ele>670.6</ele>
        <time>2019-12-01T12:08:28.000Z</time>
      </trkpt>
      <trkpt lat="41.768198" lon="2.133211">
        <ele>668.7</ele>
        <time>2019-12-01T12:08:29.000Z</time>
      </trkpt>
      <trkpt lat="41.768281" lon="2.133237">
        <ele>673.1</ele>
        <time>2019-12-01T12:08:30.000Z</time>
      </trkpt>
      <trkpt lat="41.768361" lon="2.133280">
        <ele>676.4</ele>
        <time>2019-12-01T12:08:44.000Z</time>
      </trkpt>
      <trkpt lat="41.768410" lon="2.133344">
        <ele>673.4</ele>
        <time>2019-12-01T12:08:49.000Z</time>
      </trkpt>
      <trkpt lat="41.768451" lon="2.133410">
        <ele>672.9</ele>
        <time>2019-12-01T12:08:52.000Z</time>
      </trkpt>
      <trkpt lat="41.768483" lon="2.133452">
        <ele>673.3</ele>
        <time>2019-12-01T12:09:0.000Z</time>
      </trkpt>
      <trkpt lat="41.768523" lon="2.133510">
        <ele>671.9</ele>
        <time>2019-12-01T12:09:12.000Z</time>
      </trkpt>
      <trkpt lat="41.768537" lon="2.133543">
        <ele>671.0</ele>
        <time>2019-12-01T12:09:22.000Z</time>
      </trkpt>
      <trkpt lat="41.768557" lon="2.133617">
        <ele>669.3</ele>
        <time>2019-12-01T12:10:29.000Z</time>
      </trkpt>
      <trkpt lat="41.768544" lon="2.133678">
        <ele>666.7</ele>
        <time>2019-12-01T12:10:44.000Z</time>
      </trkpt>
      <trkpt lat="41.768537" lon="2.133722">
        <ele>665.4</ele>
        <time>2019-12-01T12:12:59.000Z</time>
      </trkpt>
      <trkpt lat="41.768533" lon="2.133778">
        <ele>664.3</ele>
        <time>2019-12-01T12:13:17.000Z</time>
      </trkpt>
      <trkpt lat="41.768537" lon="2.133842">
        <ele>664.6</ele>
        <time>2019-12-01T12:13:36.000Z</time>
      </trkpt>
      <trkpt lat="41.768542" lon="2.133872">
        <ele>664.7</ele>
        <time>2019-12-01T12:14:2.000Z</time>
      </trkpt>
      <trkpt lat="41.768544" lon="2.133883">
        <ele>664.8</ele>
        <time>2019-12-01T12:14:24.000Z</time>
      </trkpt>
      <trkpt lat="41.768552" lon="2.134034">
        <ele>665.5</ele>
        <time>2019-12-01T12:14:32.000Z</time>
      </trkpt>
      <trkpt lat="41.768571" lon="2.134069">
        <ele>665.7</ele>
        <time>2019-12-01T12:14:36.000Z</time>
      </trkpt>
      <trkpt lat="41.768608" lon="2.134147">
        <ele>666.0</ele>
        <time>2019-12-01T12:14:44.000Z</time>
      </trkpt>
      <trkpt lat="41.768647" lon="2.134198">
        <ele>666.0</ele>
        <time>2019-12-01T12:14:46.000Z</time>
      </trkpt>
      <trkpt lat="41.768711" lon="2.134282">
        <ele>666.0</ele>
        <time>2019-12-01T12:14:56.000Z</time>
      </trkpt>
      <trkpt lat="41.768747" lon="2.134304">
        <ele>666.0</ele>
        <time>2019-12-01T12:14:57.000Z</time>
      </trkpt>
      <trkpt lat="41.768814" lon="2.134337">
        <ele>666.3</ele>
        <time>2019-12-01T12:15:2.000Z</time>
      </trkpt>
      <trkpt lat="41.768956" lon="2.134353">
        <ele>666.6</ele>
        <time>2019-12-01T12:15:19.000Z</time>
      </trkpt>
      <trkpt lat="41.769122" lon="2.134367">
        <ele>666.1</ele>
        <time>2019-12-01T12:15:32.000Z</time>
      </trkpt>
      <trkpt lat="41.769192" lon="2.134341">
        <ele>666.3</ele>
        <time>2019-12-01T12:15:45.000Z</time>
      </trkpt>
      <trkpt lat="41.769282" lon="2.134274">
        <ele>666.5</ele>
        <time>2019-12-01T12:15:49.000Z</time>
      </trkpt>
      <trkpt lat="41.769348" lon="2.134223">
        <ele>668.4</ele>
        <time>2019-12-01T12:16:1.000Z</time>
      </trkpt>
      <trkpt lat="41.769382" lon="2.134215">
        <ele>669.1</ele>
        <time>2019-12-01T12:16:12.000Z</time>
      </trkpt>
      <trkpt lat="41.769513" lon="2.134314">
        <ele>666.2</ele>
        <time>2019-12-01T12:16:19.000Z</time>
      </trkpt>
      <trkpt lat="41.769584" lon="2.134330">
        <ele>666.5</ele>
        <time>2019-12-01T12:16:27.000Z</time>
      </trkpt>
      <trkpt lat="41.769636" lon="2.134319">
        <ele>666.4</ele>
        <time>2019-12-01T12:16:40.000Z</time>
      </trkpt>
      <trkpt lat="41.769668" lon="2.134323">
        <ele>666.5</ele>
        <time>2019-12-01T12:16:55.000Z</time>
      </trkpt>
      <trkpt lat="41.769682" lon="2.134365">
        <ele>667.4</ele>
        <time>2019-12-01T12:17:12.000Z</time>
      </trkpt>
      <trkpt lat="41.769677" lon="2.134405">
        <ele>668.2</ele>
        <time>2019-12-01T12:17:23.000Z</time>
      </trkpt>
      <trkpt lat="41.769584" lon="2.134498">
        <ele>669.5</ele>
        <time>2019-12-01T12:17:27.000Z</time>
      </trkpt>
      <trkpt lat="41.769422" lon="2.134664">
        <ele>671.2</ele>
        <time>2019-12-01T12:17:33.000Z</time>
      </trkpt>
      <trkpt lat="41.769361" lon="2.134744">
        <ele>672.4</ele>
        <time>2019-12-01T12:17:48.000Z</time>
      </trkpt>
      <trkpt lat="41.769314" lon="2.134805">
        <ele>672.8</ele>
        <time>2019-12-01T12:17:53.000Z</time>
      </trkpt>
      <trkpt lat="41.769291" lon="2.134863">
        <ele>673.0</ele>
        <time>2019-12-01T12:18:4.000Z</time>
      </trkpt>
      <trkpt lat="41.769273" lon="2.134940">
        <ele>674.2</ele>
        <time>2019-12-01T12:18:10.000Z</time>
      </trkpt>
      <trkpt lat="41.769321" lon="2.134987">
        <ele>675.5</ele>
        <time>2019-12-01T12:18:22.000Z</time>
      </trkpt>
      <trkpt lat="41.769490" lon="2.135036">
        <ele>677.6</ele>
        <time>2019-12-01T12:18:30.000Z</time>
      </trkpt>
      <trkpt lat="41.769615" lon="2.135122">
        <ele>679.1</ele>
        <time>2019-12-01T12:18:44.000Z</time>
      </trkpt>
      <trkpt lat="41.769682" lon="2.135184">
        <ele>679.8</ele>
        <time>2019-12-01T12:18:58.000Z</time>
      </trkpt>
      <trkpt lat="41.769748" lon="2.135233">
        <ele>680.7</ele>
        <time>2019-12-01T12:19:4.000Z</time>
      </trkpt>
      <trkpt lat="41.769840" lon="2.135337">
        <ele>681.8</ele>
        <time>2019-12-01T12:19:19.000Z</time>
      </trkpt>
      <trkpt lat="41.769874" lon="2.135410">
        <ele>682.5</ele>
        <time>2019-12-01T12:19:31.000Z</time>
      </trkpt>
      <trkpt lat="41.769876" lon="2.135531">
        <ele>683.7</ele>
        <time>2019-12-01T12:19:45.000Z</time>
      </trkpt>
      <trkpt lat="41.769919" lon="2.135730">
        <ele>685.0</ele>
        <time>2019-12-01T12:19:52.000Z</time>
      </trkpt>
      <trkpt lat="41.769912" lon="2.135839">
        <ele>685.6</ele>
        <time>2019-12-01T12:20:0.000Z</time>
      </trkpt>
      <trkpt lat="41.769881" lon="2.135914">
        <ele>686.0</ele>
        <time>2019-12-01T12:20:16.000Z</time>
      </trkpt>
      <trkpt lat="41.769815" lon="2.136024">
        <ele>687.3</ele>
        <time>2019-12-01T12:20:30.000Z</time>
      </trkpt>
      <trkpt lat="41.769716" lon="2.136091">
        <ele>688.0</ele>
        <time>2019-12-01T12:20:39.000Z</time>
      </trkpt>
      <trkpt lat="41.769662" lon="2.136104">
        <ele>688.5</ele>
        <time>2019-12-01T12:20:41.000Z</time>
      </trkpt>
      <trkpt lat="41.769493" lon="2.136140">
        <ele>689.9</ele>
        <time>2019-12-01T12:20:57.000Z</time>
      </trkpt>
      <trkpt lat="41.769418" lon="2.136223">
        <ele>690.7</ele>
        <time>2019-12-01T12:21:11.000Z</time>
      </trkpt>
      <trkpt lat="41.769323" lon="2.136286">
        <ele>691.0</ele>
        <time>2019-12-01T12:21:15.000Z</time>
      </trkpt>
      <trkpt lat="41.769258" lon="2.136316">
        <ele>690.3</ele>
        <time>2019-12-01T12:21:29.000Z</time>
      </trkpt>
      <trkpt lat="41.769056" lon="2.136632">
        <ele>689.8</ele>
        <time>2019-12-01T12:21:44.000Z</time>
      </trkpt>
      <trkpt lat="41.768765" lon="2.137146">
        <ele>693.9</ele>
        <time>2019-12-01T12:21:52.000Z</time>
      </trkpt>
      <trkpt lat="41.768728" lon="2.137173">
        <ele>694.4</ele>
        <time>2019-12-01T12:22:7.000Z</time>
      </trkpt>
      <trkpt lat="41.768679" lon="2.137176">
        <ele>694.8</ele>
        <time>2019-12-01T12:22:20.000Z</time>
      </trkpt>
      <trkpt lat="41.768609" lon="2.137133">
        <ele>695.9</ele>
        <time>2019-12-01T12:22:22.000Z</time>
      </trkpt>
      <trkpt lat="41.768553" lon="2.137086">
        <ele>696.8</ele>
        <time>2019-12-01T12:22:30.000Z</time>
      </trkpt>
      <trkpt lat="41.768493" lon="2.137043">
        <ele>697.5</ele>
        <time>2019-12-01T12:22:41.000Z</time>
      </trkpt>
      <trkpt lat="41.768391" lon="2.137023">
        <ele>698.9</ele>
        <time>2019-12-01T12:22:49.000Z</time>
      </trkpt>
      <trkpt lat="41.768326" lon="2.137007">
        <ele>700.2</ele>
        <time>2019-12-01T12:23:1.000Z</time>
      </trkpt>
      <trkpt lat="41.768221" lon="2.136897">
        <ele>701.7</ele>
        <time>2019-12-01T12:23:14.000Z</time>
      </trkpt>
      <trkpt lat="41.768143" lon="2.136837">
        <ele>702.5</ele>
        <time>2019-12-01T12:23:26.000Z</time>
      </trkpt>
      <trkpt lat="41.768089" lon="2.136867">
        <ele>703.5</ele>
        <time>2019-12-01T12:23:40.000Z</time>
      </trkpt>
      <trkpt lat="41.768024" lon="2.136940">
        <ele>704.8</ele>
        <time>2019-12-01T12:23:42.000Z</time>
      </trkpt>
      <trkpt lat="41.768008" lon="2.137149">
        <ele>706.4</ele>
        <time>2019-12-01T12:23:44.000Z</time>
      </trkpt>
      <trkpt lat="41.767944" lon="2.137279">
        <ele>708.0</ele>
        <time>2019-12-01T12:23:51.000Z</time>
      </trkpt>
      <trkpt lat="41.767906" lon="2.137385">
        <ele>709.0</ele>
        <time>2019-12-01T12:24:4.000Z</time>
      </trkpt>
      <trkpt lat="41.767895" lon="2.137465">
        <ele>709.2</ele>
        <time>2019-12-01T12:24:7.000Z</time>
      </trkpt>
      <trkpt lat="41.767912" lon="2.137624">
        <ele>709.8</ele>
        <time>2019-12-01T12:24:20.000Z</time>
      </trkpt>
      <trkpt lat="41.767939" lon="2.137839">
        <ele>711.3</ele>
        <time>2019-12-01T12:24:33.000Z</time>
      </trkpt>
      <trkpt lat="41.767990" lon="2.137995">
        <ele>713.0</ele>
        <time>2019-12-01T12:24:37.000Z</time>
      </trkpt>
      <trkpt lat="41.768079" lon="2.138151">
        <ele>713.9</ele>
        <time>2019-12-01T12:24:49.000Z</time>
      </trkpt>
      <trkpt lat="41.768125" lon="2.138224">
        <ele>714.6</ele>
        <time>2019-12-01T12:25:1.000Z</time>
      </trkpt>
      <trkpt lat="41.768149" lon="2.138327">
        <ele>715.2</ele>
        <time>2019-12-01T12:25:3.000Z</time>
      </trkpt>
      <trkpt lat="41.768160" lon="2.138775">
        <ele>717.9</ele>
        <time>2019-12-01T12:25:10.000Z</time>
      </trkpt>
      <trkpt lat="41.768160" lon="2.139044">
        <ele>719.8</ele>
        <time>2019-12-01T12:25:14.000Z</time>
      </trkpt>
      <trkpt lat="41.768187" lon="2.139184">
        <ele>720.0</ele>
        <time>2019-12-01T12:25:17.000Z</time>
      </trkpt>
      <trkpt lat="41.768267" lon="2.139436">
        <ele>721.0</ele>
        <time>2019-12-01T12:25:31.000Z</time>
      </trkpt>
      <trkpt lat="41.768300" lon="2.139569">
        <ele>721.1</ele>
        <time>2019-12-01T12:25:34.000Z</time>
      </trkpt>
      <trkpt lat="41.768342" lon="2.139790">
        <ele>722.0</ele>
        <time>2019-12-01T12:25:47.000Z</time>
      </trkpt>
      <trkpt lat="41.768361" lon="2.139871">
        <ele>722.0</ele>
        <time>2019-12-01T12:25:51.000Z</time>
      </trkpt>
      <trkpt lat="41.768404" lon="2.140128">
        <ele>722.2</ele>
        <time>2019-12-01T12:26:5.000Z</time>
      </trkpt>
      <trkpt lat="41.768443" lon="2.140252">
        <ele>722.7</ele>
        <time>2019-12-01T12:26:9.000Z</time>
      </trkpt>
      <trkpt lat="41.768475" lon="2.140461">
        <ele>722.6</ele>
        <time>2019-12-01T12:26:25.000Z</time>
      </trkpt>
      <trkpt lat="41.768479" lon="2.140500">
        <ele>722.8</ele>
        <time>2019-12-01T12:26:28.000Z</time>
      </trkpt>
      <trkpt lat="41.768523" lon="2.140774">
        <ele>724.0</ele>
        <time>2019-12-01T12:26:41.000Z</time>
      </trkpt>
      <trkpt lat="41.768504" lon="2.140941">
        <ele>724.3</ele>
        <time>2019-12-01T12:26:56.000Z</time>
      </trkpt>
      <trkpt lat="41.768506" lon="2.140981">
        <ele>724.3</ele>
        <time>2019-12-01T12:27:0.000Z</time>
      </trkpt>
      <trkpt lat="41.768475" lon="2.141209">
        <ele>726.2</ele>
        <time>2019-12-01T12:27:15.000Z</time>
      </trkpt>
      <trkpt lat="41.768460" lon="2.141396">
        <ele>726.7</ele>
        <time>2019-12-01T12:27:27.000Z</time>
      </trkpt>
      <trkpt lat="41.768459" lon="2.141411">
        <ele>726.7</ele>
        <time>2019-12-01T12:27:28.000Z</time>
      </trkpt>
      <trkpt lat="41.768436" lon="2.141606">
        <ele>727.3</ele>
        <time>2019-12-01T12:27:42.000Z</time>
      </trkpt>
      <trkpt lat="41.768384" lon="2.141800">
        <ele>729.0</ele>
        <time>2019-12-01T12:27:56.000Z</time>
      </trkpt>
      <trkpt lat="41.768357" lon="2.141847">
        <ele>729.7</ele>
        <time>2019-12-01T12:28:1.000Z</time>
      </trkpt>
      <trkpt lat="41.768337" lon="2.141902">
        <ele>730.3</ele>
        <time>2019-12-01T12:28:16.000Z</time>
      </trkpt>
      <trkpt lat="41.768205" lon="2.141919">
        <ele>731.8</ele>
        <time>2019-12-01T12:28:28.000Z</time>
      </trkpt>
      <trkpt lat="41.767963" lon="2.141892">
        <ele>733.0</ele>
        <time>2019-12-01T12:28:41.000Z</time>
      </trkpt>
      <trkpt lat="41.767885" lon="2.141902">
        <ele>733.0</ele>
        <time>2019-12-01T12:28:42.000Z</time>
      </trkpt>
      <trkpt lat="41.767766" lon="2.141965">
        <ele>733.2</ele>
        <time>2019-12-01T12:28:56.000Z</time>
      </trkpt>
      <trkpt lat="41.767686" lon="2.142008">
        <ele>732.6</ele>
        <time>2019-12-01T12:29:0.000Z</time>
      </trkpt>
      <trkpt lat="41.767525" lon="2.142162">
        <ele>731.4</ele>
        <time>2019-12-01T12:29:15.000Z</time>
      </trkpt>
      <trkpt lat="41.767426" lon="2.142273">
        <ele>730.5</ele>
        <time>2019-12-01T12:29:27.000Z</time>
      </trkpt>
      <trkpt lat="41.767327" lon="2.142453">
        <ele>728.8</ele>
        <time>2019-12-01T12:29:41.000Z</time>
      </trkpt>
      <trkpt lat="41.767321" lon="2.142510">
        <ele>729.4</ele>
        <time>2019-12-01T12:29:42.000Z</time>
      </trkpt>
      <trkpt lat="41.767219" lon="2.142765">
        <ele>729.9</ele>
        <time>2019-12-01T12:29:59.000Z</time>
      </trkpt>
      <trkpt lat="41.767201" lon="2.142845">
        <ele>730.2</ele>
        <time>2019-12-01T12:30:5.000Z</time>
      </trkpt>
      <trkpt lat="41.767179" lon="2.142928">
        <ele>730.7</ele>
        <time>2019-12-01T12:30:7.000Z</time>
      </trkpt>
      <trkpt lat="41.767141" lon="2.143040">
        <ele>731.0</ele>
        <time>2019-12-01T12:30:17.000Z</time>
      </trkpt>
      <trkpt lat="41.767116" lon="2.143267">
        <ele>731.1</ele>
        <time>2019-12-01T12:30:31.000Z</time>
      </trkpt>
      <trkpt lat="41.767060" lon="2.143406">
        <ele>731.8</ele>
        <time>2019-12-01T12:30:45.000Z</time>
      </trkpt>
      <trkpt lat="41.766988" lon="2.143449">
        <ele>733.4</ele>
        <time>2019-12-01T12:30:49.000Z</time>
      </trkpt>
      <trkpt lat="41.766815" lon="2.143508">
        <ele>735.6</ele>
        <time>2019-12-01T12:31:4.000Z</time>
      </trkpt>
      <trkpt lat="41.766697" lon="2.143575">
        <ele>737.6</ele>
        <time>2019-12-01T12:31:14.000Z</time>
      </trkpt>
      <trkpt lat="41.766605" lon="2.143638">
        <ele>739.1</ele>
        <time>2019-12-01T12:31:21.000Z</time>
      </trkpt>
      <trkpt lat="41.766516" lon="2.143685">
        <ele>739.4</ele>
        <time>2019-12-01T12:31:25.000Z</time>
      </trkpt>
      <trkpt lat="41.766414" lon="2.143774">
        <ele>740.2</ele>
        <time>2019-12-01T12:31:39.000Z</time>
      </trkpt>
      <trkpt lat="41.766279" lon="2.143877">
        <ele>740.9</ele>
        <time>2019-12-01T12:31:52.000Z</time>
      </trkpt>
      <trkpt lat="41.766158" lon="2.143990">
        <ele>743.4</ele>
        <time>2019-12-01T12:32:6.000Z</time>
      </trkpt>
      <trkpt lat="41.766077" lon="2.144080">
        <ele>744.9</ele>
        <time>2019-12-01T12:32:20.000Z</time>
      </trkpt>
      <trkpt lat="41.766042" lon="2.144136">
        <ele>745.9</ele>
        <time>2019-12-01T12:32:22.000Z</time>
      </trkpt>
      <trkpt lat="41.766021" lon="2.144176">
        <ele>746.5</ele>
        <time>2019-12-01T12:32:24.000Z</time>
      </trkpt>
      <trkpt lat="41.765983" lon="2.144252">
        <ele>747.7</ele>
        <time>2019-12-01T12:32:37.000Z</time>
      </trkpt>
      <trkpt lat="41.765929" lon="2.144335">
        <ele>748.8</ele>
        <time>2019-12-01T12:32:46.000Z</time>
      </trkpt>
      <trkpt lat="41.765878" lon="2.144425">
        <ele>749.0</ele>
        <time>2019-12-01T12:32:52.000Z</time>
      </trkpt>
      <trkpt lat="41.765840" lon="2.144511">
        <ele>750.8</ele>
        <time>2019-12-01T12:33:7.000Z</time>
      </trkpt>
      <trkpt lat="41.765778" lon="2.144674">
        <ele>753.8</ele>
        <time>2019-12-01T12:33:21.000Z</time>
      </trkpt>
      <trkpt lat="41.765697" lon="2.144810">
        <ele>755.3</ele>
        <time>2019-12-01T12:33:33.000Z</time>
      </trkpt>
      <trkpt lat="41.765630" lon="2.144989">
        <ele>757.1</ele>
        <time>2019-12-01T12:33:47.000Z</time>
      </trkpt>
      <trkpt lat="41.765639" lon="2.145035">
        <ele>757.7</ele>
        <time>2019-12-01T12:33:51.000Z</time>
      </trkpt>
      <trkpt lat="41.765667" lon="2.145198">
        <ele>760.2</ele>
        <time>2019-12-01T12:34:5.000Z</time>
      </trkpt>
      <trkpt lat="41.765646" lon="2.145287">
        <ele>761.0</ele>
        <time>2019-12-01T12:34:10.000Z</time>
      </trkpt>
      <trkpt lat="41.765638" lon="2.145413">
        <ele>762.3</ele>
        <time>2019-12-01T12:34:18.000Z</time>
      </trkpt>
      <trkpt lat="41.765630" lon="2.145521">
        <ele>763.4</ele>
        <time>2019-12-01T12:34:26.000Z</time>
      </trkpt>
      <trkpt lat="41.765622" lon="2.145667">
        <ele>764.1</ele>
        <time>2019-12-01T12:34:31.000Z</time>
      </trkpt>
      <trkpt lat="41.765598" lon="2.145760">
        <ele>765.0</ele>
        <time>2019-12-01T12:34:43.000Z</time>
      </trkpt>
      <trkpt lat="41.765593" lon="2.145772">
        <ele>765.2</ele>
        <time>2019-12-01T12:34:45.000Z</time>
      </trkpt>
      <trkpt lat="41.765568" lon="2.145872">
        <ele>767.4</ele>
        <time>2019-12-01T12:34:57.000Z</time>
      </trkpt>
      <trkpt lat="41.765512" lon="2.145912">
        <ele>768.3</ele>
        <time>2019-12-01T12:35:8.000Z</time>
      </trkpt>
      <trkpt lat="41.765444" lon="2.145929">
        <ele>769.1</ele>
        <time>2019-12-01T12:35:24.000Z</time>
      </trkpt>
      <trkpt lat="41.765361" lon="2.145906">
        <ele>769.7</ele>
        <time>2019-12-01T12:35:27.000Z</time>
      </trkpt>
      <trkpt lat="41.765293" lon="2.145932">
        <ele>770.3</ele>
        <time>2019-12-01T12:35:38.000Z</time>
      </trkpt>
      <trkpt lat="41.765194" lon="2.146028">
        <ele>771.5</ele>
        <time>2019-12-01T12:35:51.000Z</time>
      </trkpt>
      <trkpt lat="41.765126" lon="2.146072">
        <ele>772.5</ele>
        <time>2019-12-01T12:36:0.000Z</time>
      </trkpt>
      <trkpt lat="41.765019" lon="2.146045">
        <ele>774.5</ele>
        <time>2019-12-01T12:36:15.000Z</time>
      </trkpt>
      <trkpt lat="41.764938" lon="2.145929">
        <ele>774.4</ele>
        <time>2019-12-01T12:36:30.000Z</time>
      </trkpt>
      <trkpt lat="41.764884" lon="2.145813">
        <ele>774.9</ele>
        <time>2019-12-01T12:36:41.000Z</time>
      </trkpt>
      <trkpt lat="41.764704" lon="2.145494">
        <ele>775.9</ele>
        <time>2019-12-01T12:36:56.000Z</time>
      </trkpt>
      <trkpt lat="41.764599" lon="2.145341">
        <ele>776.0</ele>
        <time>2019-12-01T12:37:15.000Z</time>
      </trkpt>
      <trkpt lat="41.764566" lon="2.145291">
        <ele>776.0</ele>
        <time>2019-12-01T12:37:26.000Z</time>
      </trkpt>
      <trkpt lat="41.764518" lon="2.145245">
        <ele>776.0</ele>
        <time>2019-12-01T12:37:28.000Z</time>
      </trkpt>
      <trkpt lat="41.764467" lon="2.145175">
        <ele>776.1</ele>
        <time>2019-12-01T12:37:39.000Z</time>
      </trkpt>
      <trkpt lat="41.764391" lon="2.145152">
        <ele>776.2</ele>
        <time>2019-12-01T12:37:51.000Z</time>
      </trkpt>
      <trkpt lat="41.764327" lon="2.145165">
        <ele>776.1</ele>
        <time>2019-12-01T12:38:1.000Z</time>
      </trkpt>
      <trkpt lat="41.764213" lon="2.145039">
        <ele>776.0</ele>
        <time>2019-12-01T12:38:14.000Z</time>
      </trkpt>
      <trkpt lat="41.764046" lon="2.144906">
        <ele>775.5</ele>
        <time>2019-12-01T12:38:15.000Z</time>
      </trkpt>
      <trkpt lat="41.763895" lon="2.144833">
        <ele>775.3</ele>
        <time>2019-12-01T12:38:28.000Z</time>
      </trkpt>
      <trkpt lat="41.763713" lon="2.144770">
        <ele>775.0</ele>
        <time>2019-12-01T12:38:42.000Z</time>
      </trkpt>
      <trkpt lat="41.763533" lon="2.144706">
        <ele>774.8</ele>
        <time>2019-12-01T12:38:57.000Z</time>
      </trkpt>
      <trkpt lat="41.763420" lon="2.144657">
        <ele>774.8</ele>
        <time>2019-12-01T12:39:8.000Z</time>
      </trkpt>
      <trkpt lat="41.763323" lon="2.144630">
        <ele>774.1</ele>
        <time>2019-12-01T12:39:20.000Z</time>
      </trkpt>
      <trkpt lat="41.763089" lon="2.144544">
        <ele>773.7</ele>
        <time>2019-12-01T12:39:35.000Z</time>
      </trkpt>
      <trkpt lat="41.763051" lon="2.144533">
        <ele>773.8</ele>
        <time>2019-12-01T12:39:38.000Z</time>
      </trkpt>
      <trkpt lat="41.763010" lon="2.144515">
        <ele>773.9</ele>
        <time>2019-12-01T12:39:39.000Z</time>
      </trkpt>
      <trkpt lat="41.762850" lon="2.144458">
        <ele>773.7</ele>
        <time>2019-12-01T12:39:53.000Z</time>
      </trkpt>
      <trkpt lat="41.762804" lon="2.144440">
        <ele>773.5</ele>
        <time>2019-12-01T12:39:54.000Z</time>
      </trkpt>
      <trkpt lat="41.762645" lon="2.144383">
        <ele>772.4</ele>
        <time>2019-12-01T12:40:7.000Z</time>
      </trkpt>
      <trkpt lat="41.762477" lon="2.144321">
        <ele>773.0</ele>
        <time>2019-12-01T12:40:24.000Z</time>
      </trkpt>
      <trkpt lat="41.762328" lon="2.144260">
        <ele>773.4</ele>
        <time>2019-12-01T12:40:38.000Z</time>
      </trkpt>
      <trkpt lat="41.762150" lon="2.144210">
        <ele>772.7</ele>
        <time>2019-12-01T12:40:53.000Z</time>
      </trkpt>
      <trkpt lat="41.761947" lon="2.144144">
        <ele>772.0</ele>
        <time>2019-12-01T12:41:8.000Z</time>
      </trkpt>
      <trkpt lat="41.761776" lon="2.144082">
        <ele>772.4</ele>
        <time>2019-12-01T12:41:22.000Z</time>
      </trkpt>
      <trkpt lat="41.761638" lon="2.144033">
        <ele>772.0</ele>
        <time>2019-12-01T12:41:35.000Z</time>
      </trkpt>
      <trkpt lat="41.761458" lon="2.143969">
        <ele>771.0</ele>
        <time>2019-12-01T12:41:50.000Z</time>
      </trkpt>
      <trkpt lat="41.761295" lon="2.143903">
        <ele>771.6</ele>
        <time>2019-12-01T12:42:5.000Z</time>
      </trkpt>
      <trkpt lat="41.761223" lon="2.143871">
        <ele>771.1</ele>
        <time>2019-12-01T12:42:12.000Z</time>
      </trkpt>
      <trkpt lat="41.761197" lon="2.143951">
        <ele>771.3</ele>
        <time>2019-12-01T12:42:23.000Z</time>
      </trkpt>
      <trkpt lat="41.761146" lon="2.143973">
        <ele>771.0</ele>
        <time>2019-12-01T12:42:31.000Z</time>
      </trkpt>
      <trkpt lat="41.761136" lon="2.143979">
        <ele>771.0</ele>
        <time>2019-12-01T12:42:32.000Z</time>
      </trkpt>
      <trkpt lat="41.761124" lon="2.143985">
        <ele>770.9</ele>
        <time>2019-12-01T12:42:33.000Z</time>
      </trkpt>
      <trkpt lat="41.761112" lon="2.143992">
        <ele>770.8</ele>
        <time>2019-12-01T12:42:34.000Z</time>
      </trkpt>
      <trkpt lat="41.761097" lon="2.143992">
        <ele>770.7</ele>
        <time>2019-12-01T12:42:35.000Z</time>
      </trkpt>
      <trkpt lat="41.761084" lon="2.143995">
        <ele>770.6</ele>
        <time>2019-12-01T12:42:36.000Z</time>
      </trkpt>
      <trkpt lat="41.760981" lon="2.143977">
        <ele>770.0</ele>
        <time>2019-12-01T12:42:47.000Z</time>
      </trkpt>
      <trkpt lat="41.760972" lon="2.143992">
        <ele>770.0</ele>
        <time>2019-12-01T12:42:48.000Z</time>
      </trkpt>
      <trkpt lat="41.760963" lon="2.144004">
        <ele>770.0</ele>
        <time>2019-12-01T12:42:49.000Z</time>
      </trkpt>
      <trkpt lat="41.760905" lon="2.144041">
        <ele>769.7</ele>
        <time>2019-12-01T12:43:5.000Z</time>
      </trkpt>
      <trkpt lat="41.760916" lon="2.144097">
        <ele>769.6</ele>
        <time>2019-12-01T12:43:13.000Z</time>
      </trkpt>
      <trkpt lat="41.760928" lon="2.144102">
        <ele>769.6</ele>
        <time>2019-12-01T12:43:14.000Z</time>
      </trkpt>
      <trkpt lat="41.760941" lon="2.144104">
        <ele>769.7</ele>
        <time>2019-12-01T12:43:15.000Z</time>
      </trkpt>
      <trkpt lat="41.760956" lon="2.144107">
        <ele>769.7</ele>
        <time>2019-12-01T12:43:16.000Z</time>
      </trkpt>
      <trkpt lat="41.760971" lon="2.144116">
        <ele>769.8</ele>
        <time>2019-12-01T12:43:17.000Z</time>
      </trkpt>
      <trkpt lat="41.761029" lon="2.144242">
        <ele>769.6</ele>
        <time>2019-12-01T12:43:28.000Z</time>
      </trkpt>
      <trkpt lat="41.761101" lon="2.144357">
        <ele>768.9</ele>
        <time>2019-12-01T12:43:41.000Z</time>
      </trkpt>
      <trkpt lat="41.761148" lon="2.144399">
        <ele>768.7</ele>
        <time>2019-12-01T12:43:42.000Z</time>
      </trkpt>
      <trkpt lat="41.761203" lon="2.144463">
        <ele>768.4</ele>
        <time>2019-12-01T12:43:48.000Z</time>
      </trkpt>
      <trkpt lat="41.761239" lon="2.144494">
        <ele>768.2</ele>
        <time>2019-12-01T12:43:49.000Z</time>
      </trkpt>
      <trkpt lat="41.761282" lon="2.144542">
        <ele>767.7</ele>
        <time>2019-12-01T12:43:58.000Z</time>
      </trkpt>
      <trkpt lat="41.761339" lon="2.144595">
        <ele>767.3</ele>
        <time>2019-12-01T12:44:0.000Z</time>
      </trkpt>
      <trkpt lat="41.761398" lon="2.144662">
        <ele>767.1</ele>
        <time>2019-12-01T12:44:1.000Z</time>
      </trkpt>
      <trkpt lat="41.761459" lon="2.144721">
        <ele>766.7</ele>
        <time>2019-12-01T12:44:2.000Z</time>
      </trkpt>
      <trkpt lat="41.761497" lon="2.144764">
        <ele>766.2</ele>
        <time>2019-12-01T12:44:5.000Z</time>
      </trkpt>
      <trkpt lat="41.761544" lon="2.144815">
        <ele>765.6</ele>
        <time>2019-12-01T12:44:6.000Z</time>
      </trkpt>
      <trkpt lat="41.761616" lon="2.144887">
        <ele>764.8</ele>
        <time>2019-12-01T12:44:20.000Z</time>
      </trkpt>
      <trkpt lat="41.761671" lon="2.144947">
        <ele>764.1</ele>
        <time>2019-12-01T12:44:27.000Z</time>
      </trkpt>
      <trkpt lat="41.761723" lon="2.145020">
        <ele>763.3</ele>
        <time>2019-12-01T12:44:37.000Z</time>
      </trkpt>
      <trkpt lat="41.761763" lon="2.145115">
        <ele>762.5</ele>
        <time>2019-12-01T12:44:38.000Z</time>
      </trkpt>
      <trkpt lat="41.761787" lon="2.145226">
        <ele>761.8</ele>
        <time>2019-12-01T12:44:55.000Z</time>
      </trkpt>
      <trkpt lat="41.761790" lon="2.145288">
        <ele>761.4</ele>
        <time>2019-12-01T12:45:1.000Z</time>
      </trkpt>
      <trkpt lat="41.761790" lon="2.145319">
        <ele>761.2</ele>
        <time>2019-12-01T12:45:3.000Z</time>
      </trkpt>
      <trkpt lat="41.761790" lon="2.145425">
        <ele>760.9</ele>
        <time>2019-12-01T12:45:9.000Z</time>
      </trkpt>
      <trkpt lat="41.761786" lon="2.145465">
        <ele>761.3</ele>
        <time>2019-12-01T12:45:10.000Z</time>
      </trkpt>
      <trkpt lat="41.761774" lon="2.145540">
        <ele>762.1</ele>
        <time>2019-12-01T12:45:11.000Z</time>
      </trkpt>
      <trkpt lat="41.761760" lon="2.145580">
        <ele>762.4</ele>
        <time>2019-12-01T12:45:20.000Z</time>
      </trkpt>
      <trkpt lat="41.761745" lon="2.145620">
        <ele>762.4</ele>
        <time>2019-12-01T12:45:21.000Z</time>
      </trkpt>
      <trkpt lat="41.761654" lon="2.145757">
        <ele>761.7</ele>
        <time>2019-12-01T12:45:35.000Z</time>
      </trkpt>
      <trkpt lat="41.761580" lon="2.145881">
        <ele>762.3</ele>
        <time>2019-12-01T12:45:52.000Z</time>
      </trkpt>
      <trkpt lat="41.761510" lon="2.145998">
        <ele>762.8</ele>
        <time>2019-12-01T12:45:56.000Z</time>
      </trkpt>
      <trkpt lat="41.761447" lon="2.146107">
        <ele>763.7</ele>
        <time>2019-12-01T12:46:5.000Z</time>
      </trkpt>
      <trkpt lat="41.761361" lon="2.146251">
        <ele>764.4</ele>
        <time>2019-12-01T12:46:10.000Z</time>
      </trkpt>
      <trkpt lat="41.761280" lon="2.146385">
        <ele>765.5</ele>
        <time>2019-12-01T12:46:26.000Z</time>
      </trkpt>
      <trkpt lat="41.761189" lon="2.146542">
        <ele>766.7</ele>
        <time>2019-12-01T12:46:42.000Z</time>
      </trkpt>
      <trkpt lat="41.761148" lon="2.146611">
        <ele>767.2</ele>
        <time>2019-12-01T12:46:43.000Z</time>
      </trkpt>
      <trkpt lat="41.761085" lon="2.146728">
        <ele>768.1</ele>
        <time>2019-12-01T12:46:57.000Z</time>
      </trkpt>
      <trkpt lat="41.761044" lon="2.146806">
        <ele>768.1</ele>
        <time>2019-12-01T12:47:2.000Z</time>
      </trkpt>
      <trkpt lat="41.760979" lon="2.146941">
        <ele>768.1</ele>
        <time>2019-12-01T12:47:8.000Z</time>
      </trkpt>
      <trkpt lat="41.760970" lon="2.146960">
        <ele>768.1</ele>
        <time>2019-12-01T12:47:9.000Z</time>
      </trkpt>
      <trkpt lat="41.760962" lon="2.146974">
        <ele>768.1</ele>
        <time>2019-12-01T12:47:10.000Z</time>
      </trkpt>
      <trkpt lat="41.760880" lon="2.147197">
        <ele>767.9</ele>
        <time>2019-12-01T12:47:26.000Z</time>
      </trkpt>
      <trkpt lat="41.760819" lon="2.147391">
        <ele>767.8</ele>
        <time>2019-12-01T12:47:38.000Z</time>
      </trkpt>
      <trkpt lat="41.760726" lon="2.147649">
        <ele>768.0</ele>
        <time>2019-12-01T12:47:54.000Z</time>
      </trkpt>
      <trkpt lat="41.760630" lon="2.147910">
        <ele>769.8</ele>
        <time>2019-12-01T12:48:12.000Z</time>
      </trkpt>
      <trkpt lat="41.760594" lon="2.148031">
        <ele>769.9</ele>
        <time>2019-12-01T12:48:19.000Z</time>
      </trkpt>
      <trkpt lat="41.760576" lon="2.148094">
        <ele>769.9</ele>
        <time>2019-12-01T12:48:20.000Z</time>
      </trkpt>
      <trkpt lat="41.760569" lon="2.148120">
        <ele>770.0</ele>
        <time>2019-12-01T12:48:24.000Z</time>
      </trkpt>
      <trkpt lat="41.760557" lon="2.148155">
        <ele>770.1</ele>
        <time>2019-12-01T12:48:25.000Z</time>
      </trkpt>
      <trkpt lat="41.760539" lon="2.148220">
        <ele>770.5</ele>
        <time>2019-12-01T12:48:26.000Z</time>
      </trkpt>
      <trkpt lat="41.760493" lon="2.148361">
        <ele>771.3</ele>
        <time>2019-12-01T12:48:40.000Z</time>
      </trkpt>
      <trkpt lat="41.760451" lon="2.148503">
        <ele>772.1</ele>
        <time>2019-12-01T12:48:53.000Z</time>
      </trkpt>
      <trkpt lat="41.760425" lon="2.148596">
        <ele>772.9</ele>
        <time>2019-12-01T12:49:3.000Z</time>
      </trkpt>
      <trkpt lat="41.760403" lon="2.148698">
        <ele>773.9</ele>
        <time>2019-12-01T12:49:5.000Z</time>
      </trkpt>
      <trkpt lat="41.760392" lon="2.148866">
        <ele>775.0</ele>
        <time>2019-12-01T12:49:17.000Z</time>
      </trkpt>
      <trkpt lat="41.760380" lon="2.149065">
        <ele>776.2</ele>
        <time>2019-12-01T12:49:29.000Z</time>
      </trkpt>
      <trkpt lat="41.760371" lon="2.149275">
        <ele>777.3</ele>
        <time>2019-12-01T12:49:44.000Z</time>
      </trkpt>
      <trkpt lat="41.760369" lon="2.149399">
        <ele>778.0</ele>
        <time>2019-12-01T12:49:47.000Z</time>
      </trkpt>
      <trkpt lat="41.760369" lon="2.149487">
        <ele>778.5</ele>
        <time>2019-12-01T12:49:56.000Z</time>
      </trkpt>
      <trkpt lat="41.760371" lon="2.149591">
        <ele>779.1</ele>
        <time>2019-12-01T12:50:0.000Z</time>
      </trkpt>
      <trkpt lat="41.760358" lon="2.149722">
        <ele>779.7</ele>
        <time>2019-12-01T12:50:11.000Z</time>
      </trkpt>
      <trkpt lat="41.760353" lon="2.149817">
        <ele>779.9</ele>
        <time>2019-12-01T12:50:21.000Z</time>
      </trkpt>
      <trkpt lat="41.760353" lon="2.149937">
        <ele>780.0</ele>
        <time>2019-12-01T12:50:27.000Z</time>
      </trkpt>
      <trkpt lat="41.760353" lon="2.150030">
        <ele>780.5</ele>
        <time>2019-12-01T12:50:35.000Z</time>
      </trkpt>
      <trkpt lat="41.760348" lon="2.150156">
        <ele>781.2</ele>
        <time>2019-12-01T12:50:40.000Z</time>
      </trkpt>
      <trkpt lat="41.760346" lon="2.150262">
        <ele>781.6</ele>
        <time>2019-12-01T12:50:41.000Z</time>
      </trkpt>
      <trkpt lat="41.760337" lon="2.150424">
        <ele>781.9</ele>
        <time>2019-12-01T12:50:55.000Z</time>
      </trkpt>
      <trkpt lat="41.760331" lon="2.150625">
        <ele>782.8</ele>
        <time>2019-12-01T12:51:7.000Z</time>
      </trkpt>
      <trkpt lat="41.760326" lon="2.150709">
        <ele>783.0</ele>
        <time>2019-12-01T12:51:9.000Z</time>
      </trkpt>
      <trkpt lat="41.760323" lon="2.150840">
        <ele>783.0</ele>
        <time>2019-12-01T12:51:24.000Z</time>
      </trkpt>
      <trkpt lat="41.760319" lon="2.150937">
        <ele>783.5</ele>
        <time>2019-12-01T12:51:32.000Z</time>
      </trkpt>
      <trkpt lat="41.760317" lon="2.151001">
        <ele>783.9</ele>
        <time>2019-12-01T12:51:33.000Z</time>
      </trkpt>
      <trkpt lat="41.760313" lon="2.151096">
        <ele>784.0</ele>
        <time>2019-12-01T12:51:34.000Z</time>
      </trkpt>
      <trkpt lat="41.760337" lon="2.151105">
        <ele>784.0</ele>
        <time>2019-12-01T12:51:35.000Z</time>
      </trkpt>
      <trkpt lat="41.760351" lon="2.151110">
        <ele>784.0</ele>
        <time>2019-12-01T12:51:36.000Z</time>
      </trkpt>
      <trkpt lat="41.760367" lon="2.151123">
        <ele>784.0</ele>
        <time>2019-12-01T12:51:37.000Z</time>
      </trkpt>
      <trkpt lat="41.760376" lon="2.151158">
        <ele>784.0</ele>
        <time>2019-12-01T12:51:43.000Z</time>
      </trkpt>
      <trkpt lat="41.760385" lon="2.151181">
        <ele>784.0</ele>
        <time>2019-12-01T12:51:56.000Z</time>
      </trkpt>
      <trkpt lat="41.760433" lon="2.151132">
        <ele>784.0</ele>
        <time>2019-12-01T12:52:10.000Z</time>
      </trkpt>
      <trkpt lat="41.760462" lon="2.151101">
        <ele>784.0</ele>
        <time>2019-12-01T12:52:11.000Z</time>
      </trkpt>
      <trkpt lat="41.760487" lon="2.151072">
        <ele>784.0</ele>
        <time>2019-12-01T12:52:12.000Z</time>
      </trkpt>
      <trkpt lat="41.760512" lon="2.151041">
        <ele>784.0</ele>
        <time>2019-12-01T12:52:16.000Z</time>
      </trkpt>
      <trkpt lat="41.760563" lon="2.150979">
        <ele>783.5</ele>
        <time>2019-12-01T12:52:17.000Z</time>
      </trkpt>
      <trkpt lat="41.760618" lon="2.150933">
        <ele>783.1</ele>
        <time>2019-12-01T12:52:30.000Z</time>
      </trkpt>
      <trkpt lat="41.760678" lon="2.150853">
        <ele>782.8</ele>
        <time>2019-12-01T12:52:34.000Z</time>
      </trkpt>
      <trkpt lat="41.760746" lon="2.150785">
        <ele>782.3</ele>
        <time>2019-12-01T12:52:42.000Z</time>
      </trkpt>
      <trkpt lat="41.760854" lon="2.150681">
        <ele>781.9</ele>
        <time>2019-12-01T12:52:57.000Z</time>
      </trkpt>
      <trkpt lat="41.760987" lon="2.150537">
        <ele>781.5</ele>
        <time>2019-12-01T12:53:13.000Z</time>
      </trkpt>
      <trkpt lat="41.761094" lon="2.150430">
        <ele>780.8</ele>
        <time>2019-12-01T12:53:27.000Z</time>
      </trkpt>
      <trkpt lat="41.761123" lon="2.150400">
        <ele>780.7</ele>
        <time>2019-12-01T12:53:32.000Z</time>
      </trkpt>
      <trkpt lat="41.761148" lon="2.150377">
        <ele>780.7</ele>
        <time>2019-12-01T12:53:33.000Z</time>
      </trkpt>
      <trkpt lat="41.761193" lon="2.150335">
        <ele>780.7</ele>
        <time>2019-12-01T12:53:34.000Z</time>
      </trkpt>
      <trkpt lat="41.761272" lon="2.150258">
        <ele>780.3</ele>
        <time>2019-12-01T12:53:35.000Z</time>
      </trkpt>
      <trkpt lat="41.761342" lon="2.150183">
        <ele>779.9</ele>
        <time>2019-12-01T12:53:50.000Z</time>
      </trkpt>
      <trkpt lat="41.761412" lon="2.150112">
        <ele>780.0</ele>
        <time>2019-12-01T12:54:4.000Z</time>
      </trkpt>
      <trkpt lat="41.761455" lon="2.150026">
        <ele>780.0</ele>
        <time>2019-12-01T12:54:19.000Z</time>
      </trkpt>
      <trkpt lat="41.761657" lon="2.149853">
        <ele>779.5</ele>
        <time>2019-12-01T12:54:32.000Z</time>
      </trkpt>
      <trkpt lat="41.761818" lon="2.149720">
        <ele>779.7</ele>
        <time>2019-12-01T12:54:47.000Z</time>
      </trkpt>
      <trkpt lat="41.761994" lon="2.149577">
        <ele>781.7</ele>
        <time>2019-12-01T12:55:2.000Z</time>
      </trkpt>
      <trkpt lat="41.762143" lon="2.149447">
        <ele>781.6</ele>
        <time>2019-12-01T12:55:16.000Z</time>
      </trkpt>
      <trkpt lat="41.762195" lon="2.149407">
        <ele>781.7</ele>
        <time>2019-12-01T12:55:21.000Z</time>
      </trkpt>
      <trkpt lat="41.762274" lon="2.149334">
        <ele>781.9</ele>
        <time>2019-12-01T12:55:22.000Z</time>
      </trkpt>
      <trkpt lat="41.762355" lon="2.149261">
        <ele>781.7</ele>
        <time>2019-12-01T12:55:37.000Z</time>
      </trkpt>
      <trkpt lat="41.762477" lon="2.149174">
        <ele>782.0</ele>
        <time>2019-12-01T12:55:50.000Z</time>
      </trkpt>
      <trkpt lat="41.762596" lon="2.149137">
        <ele>782.1</ele>
        <time>2019-12-01T12:55:54.000Z</time>
      </trkpt>
      <trkpt lat="41.762666" lon="2.149102">
        <ele>782.5</ele>
        <time>2019-12-01T12:56:9.000Z</time>
      </trkpt>
      <trkpt lat="41.762828" lon="2.149023">
        <ele>783.8</ele>
        <time>2019-12-01T12:56:24.000Z</time>
      </trkpt>
      <trkpt lat="41.763026" lon="2.148943">
        <ele>784.7</ele>
        <time>2019-12-01T12:56:36.000Z</time>
      </trkpt>
      <trkpt lat="41.763232" lon="2.148859">
        <ele>784.8</ele>
        <time>2019-12-01T12:56:53.000Z</time>
      </trkpt>
      <trkpt lat="41.763432" lon="2.148773">
        <ele>785.2</ele>
        <time>2019-12-01T12:57:6.000Z</time>
      </trkpt>
      <trkpt lat="41.763573" lon="2.148716">
        <ele>785.5</ele>
        <time>2019-12-01T12:57:20.000Z</time>
      </trkpt>
      <trkpt lat="41.763726" lon="2.148652">
        <ele>785.0</ele>
        <time>2019-12-01T12:57:34.000Z</time>
      </trkpt>
      <trkpt lat="41.763877" lon="2.148588">
        <ele>785.0</ele>
        <time>2019-12-01T12:57:48.000Z</time>
      </trkpt>
      <trkpt lat="41.764066" lon="2.148506">
        <ele>784.7</ele>
        <time>2019-12-01T12:58:4.000Z</time>
      </trkpt>
      <trkpt lat="41.764168" lon="2.148457">
        <ele>784.2</ele>
        <time>2019-12-01T12:58:13.000Z</time>
      </trkpt>
      <trkpt lat="41.764274" lon="2.148484">
        <ele>785.0</ele>
        <time>2019-12-01T12:58:14.000Z</time>
      </trkpt>
      <trkpt lat="41.764390" lon="2.148514">
        <ele>785.0</ele>
        <time>2019-12-01T12:58:28.000Z</time>
      </trkpt>
      <trkpt lat="41.764545" lon="2.148552">
        <ele>784.4</ele>
        <time>2019-12-01T12:58:42.000Z</time>
      </trkpt>
      <trkpt lat="41.764667" lon="2.148587">
        <ele>784.2</ele>
        <time>2019-12-01T12:58:43.000Z</time>
      </trkpt>
      <trkpt lat="41.764798" lon="2.148616">
        <ele>784.8</ele>
        <time>2019-12-01T12:58:56.000Z</time>
      </trkpt>
      <trkpt lat="41.764904" lon="2.148644">
        <ele>785.0</ele>
        <time>2019-12-01T12:59:10.000Z</time>
      </trkpt>
      <trkpt lat="41.765032" lon="2.148675">
        <ele>785.6</ele>
        <time>2019-12-01T12:59:21.000Z</time>
      </trkpt>
      <trkpt lat="41.765163" lon="2.148717">
        <ele>786.0</ele>
        <time>2019-12-01T12:59:34.000Z</time>
      </trkpt>
      <trkpt lat="41.765295" lon="2.148737">
        <ele>786.5</ele>
        <time>2019-12-01T12:59:47.000Z</time>
      </trkpt>
      <trkpt lat="41.765505" lon="2.148792">
        <ele>787.0</ele>
        <time>2019-12-01T13:00:3.000Z</time>
      </trkpt>
      <trkpt lat="41.765662" lon="2.148834">
        <ele>786.8</ele>
        <time>2019-12-01T13:00:15.000Z</time>
      </trkpt>
      <trkpt lat="41.765805" lon="2.148870">
        <ele>786.3</ele>
        <time>2019-12-01T13:00:31.000Z</time>
      </trkpt>
      <trkpt lat="41.765888" lon="2.148892">
        <ele>786.1</ele>
        <time>2019-12-01T13:00:32.000Z</time>
      </trkpt>
      <trkpt lat="41.765940" lon="2.148905">
        <ele>785.9</ele>
        <time>2019-12-01T13:00:47.000Z</time>
      </trkpt>
      <trkpt lat="41.765990" lon="2.148923">
        <ele>785.9</ele>
        <time>2019-12-01T13:00:49.000Z</time>
      </trkpt>
      <trkpt lat="41.766069" lon="2.148940">
        <ele>785.7</ele>
        <time>2019-12-01T13:00:52.000Z</time>
      </trkpt>
      <trkpt lat="41.766207" lon="2.148976">
        <ele>784.8</ele>
        <time>2019-12-01T13:01:6.000Z</time>
      </trkpt>
      <trkpt lat="41.766302" lon="2.148996">
        <ele>784.3</ele>
        <time>2019-12-01T13:01:20.000Z</time>
      </trkpt>
      <trkpt lat="41.766347" lon="2.149011">
        <ele>784.0</ele>
        <time>2019-12-01T13:01:24.000Z</time>
      </trkpt>
      <trkpt lat="41.766384" lon="2.149000">
        <ele>783.7</ele>
        <time>2019-12-01T13:01:39.000Z</time>
      </trkpt>
      <trkpt lat="41.766375" lon="2.149013">
        <ele>783.8</ele>
        <time>2019-12-01T13:02:0.000Z</time>
      </trkpt>
      <trkpt lat="41.760460" lon="2.151185">
        <ele>782.8</ele>
        <time>2011-08-19T14:07:44Z</time>
      </trkpt>
      <trkpt lat="41.760551" lon="2.151097">
        <ele>782.4</ele>
        <time>2011-08-19T14:07:44Z</time>
      </trkpt>
      <trkpt lat="41.760626" lon="2.151025">
        <ele>782.1</ele>
        <time>2011-08-19T14:07:44Z</time>
      </trkpt>
      <trkpt lat="41.760726" lon="2.150924">
        <ele>781.4</ele>
        <time>2011-08-19T14:07:44Z</time>
      </trkpt>
      <trkpt lat="41.760848" lon="2.150808">
        <ele>780.8</ele>
        <time>2011-08-19T14:07:44Z</time>
      </trkpt>
      <trkpt lat="41.760967" lon="2.150653">
        <ele>780.2</ele>
        <time>2011-08-19T14:07:44Z</time>
      </trkpt>
      <trkpt lat="41.761065" lon="2.150562">
        <ele>779.6</ele>
        <time>2011-08-19T14:07:44Z</time>
      </trkpt>
      <trkpt lat="41.761187" lon="2.150439">
        <ele>779.1</ele>
        <time>2011-08-19T14:07:44Z</time>
      </trkpt>
      <trkpt lat="41.761284" lon="2.150364">
        <ele>778.2</ele>
        <time>2011-08-19T14:07:44Z</time>
      </trkpt>
      <trkpt lat="41.761369" lon="2.150266">
        <ele>778.1</ele>
        <time>2011-08-19T14:07:44Z</time>
      </trkpt>
      <trkpt lat="41.761467" lon="2.150153">
        <ele>778.8</ele>
        <time>2011-08-19T14:07:44Z</time>
      </trkpt>
      <trkpt lat="41.761585" lon="2.150060">
        <ele>778.0</ele>
        <time>2011-08-19T14:07:44Z</time>
      </trkpt>
      <trkpt lat="41.761705" lon="2.149944">
        <ele>777.8</ele>
        <time>2011-08-19T14:07:44Z</time>
      </trkpt>
      <trkpt lat="41.761882" lon="2.149810">
        <ele>778.0</ele>
        <time>2011-08-19T14:07:44Z</time>
      </trkpt>
      <trkpt lat="41.762040" lon="2.149664">
        <ele>778.6</ele>
        <time>2011-08-19T14:07:44Z</time>
      </trkpt>
      <trkpt lat="41.762135" lon="2.149581">
        <ele>778.6</ele>
        <time>2011-08-19T14:07:44Z</time>
      </trkpt>
      <trkpt lat="41.762271" lon="2.149463">
        <ele>779.2</ele>
        <time>2011-08-19T14:07:44Z</time>
      </trkpt>
      <trkpt lat="41.762393" lon="2.149357">
        <ele>780.1</ele>
        <time>2011-08-19T14:07:44Z</time>
      </trkpt>
      <trkpt lat="41.762507" lon="2.149261">
        <ele>780.4</ele>
        <time>2011-08-19T14:07:44Z</time>
      </trkpt>
      <trkpt lat="41.762605" lon="2.149210">
        <ele>780.5</ele>
        <time>2011-08-19T14:07:44Z</time>
      </trkpt>
      <trkpt lat="41.762785" lon="2.149141">
        <ele>781.1</ele>
        <time>2011-08-19T14:07:44Z</time>
      </trkpt>
      <trkpt lat="41.762935" lon="2.149070">
        <ele>782.1</ele>
        <time>2011-08-19T14:07:44Z</time>
      </trkpt>
      <trkpt lat="41.763057" lon="2.149028">
        <ele>782.9</ele>
        <time>2011-08-19T14:07:44Z</time>
      </trkpt>
      <trkpt lat="41.763229" lon="2.148962">
        <ele>783.3</ele>
        <time>2011-08-19T14:07:44Z</time>
      </trkpt>
      <trkpt lat="41.763366" lon="2.148910">
        <ele>783.6</ele>
        <time>2011-08-19T14:07:44Z</time>
      </trkpt>
      <trkpt lat="41.763485" lon="2.148856">
        <ele>783.7</ele>
        <time>2011-08-19T14:07:44Z</time>
      </trkpt>
      <trkpt lat="41.763605" lon="2.148803">
        <ele>783.9</ele>
        <time>2011-08-19T14:07:44Z</time>
      </trkpt>
      <trkpt lat="41.763772" lon="2.148739">
        <ele>783.7</ele>
        <time>2011-08-19T14:07:44Z</time>
      </trkpt>
      <trkpt lat="41.763899" lon="2.148692">
        <ele>783.7</ele>
        <time>2011-08-19T14:07:44Z</time>
      </trkpt>
      <trkpt lat="41.764027" lon="2.148633">
        <ele>784.0</ele>
        <time>2011-08-19T14:07:44Z</time>
      </trkpt>
      <trkpt lat="41.764131" lon="2.148595">
        <ele>784.0</ele>
        <time>2011-08-19T14:07:44Z</time>
      </trkpt>
      <trkpt lat="41.764283" lon="2.148578">
        <ele>784.0</ele>
        <time>2011-08-19T14:07:44Z</time>
      </trkpt>
      <trkpt lat="41.764526" lon="2.148624">
        <ele>784.0</ele>
        <time>2011-08-19T14:07:44Z</time>
      </trkpt>
      <trkpt lat="41.764638" lon="2.148665">
        <ele>784.0</ele>
        <time>2011-08-19T14:07:44Z</time>
      </trkpt>
      <trkpt lat="41.764760" lon="2.148689">
        <ele>784.1</ele>
        <time>2011-08-19T14:07:44Z</time>
      </trkpt>
      <trkpt lat="41.764858" lon="2.148715">
        <ele>784.5</ele>
        <time>2011-08-19T14:07:44Z</time>
      </trkpt>
      <trkpt lat="41.764988" lon="2.148753">
        <ele>785.1</ele>
        <time>2011-08-19T14:07:44Z</time>
      </trkpt>
      <trkpt lat="41.765143" lon="2.148800">
        <ele>786.3</ele>
        <time>2011-08-19T14:07:44Z</time>
      </trkpt>
      <trkpt lat="41.765281" lon="2.148827">
        <ele>786.9</ele>
        <time>2011-08-19T14:07:44Z</time>
      </trkpt>
      <trkpt lat="41.765420" lon="2.148857">
        <ele>786.7</ele>
        <time>2011-08-19T14:07:44Z</time>
      </trkpt>
      <trkpt lat="41.765606" lon="2.148904">
        <ele>786.7</ele>
        <time>2011-08-19T14:07:44Z</time>
      </trkpt>
      <trkpt lat="41.765738" lon="2.148941">
        <ele>786.8</ele>
        <time>2011-08-19T14:07:44Z</time>
      </trkpt>
      <trkpt lat="41.765889" lon="2.148981">
        <ele>786.5</ele>
        <time>2011-08-19T14:07:44Z</time>
      </trkpt>
      <trkpt lat="41.765990" lon="2.149014">
        <ele>786.2</ele>
        <time>2011-08-19T14:07:44Z</time>
      </trkpt>
      <trkpt lat="41.766180" lon="2.149046">
        <ele>785.2</ele>
        <time>2011-08-19T14:07:44Z</time>
      </trkpt>
      <trkpt lat="41.766310" lon="2.149076">
        <ele>784.5</ele>
        <time>2011-08-19T14:07:44Z</time>
      </trkpt>
      <trkpt lat="41.766418" lon="2.149101">
        <ele>783.9</ele>
        <time>2011-08-19T14:07:44Z</time>
      </trkpt>
      <trkpt lat="41.766564" lon="2.149114">
        <ele>782.9</ele>
        <time>2011-08-19T14:07:44Z</time>
      </trkpt>
      <trkpt lat="41.766676" lon="2.149144">
        <ele>781.9</ele>
        <time>2011-08-19T14:07:44Z</time>
      </trkpt>
      <trkpt lat="41.766759" lon="2.149190">
        <ele>781.5</ele>
        <time>2011-08-19T14:07:44Z</time>
      </trkpt>
      <trkpt lat="41.766851" lon="2.149233">
        <ele>781.3</ele>
        <time>2011-08-19T14:07:44Z</time>
      </trkpt>
      <trkpt lat="41.766979" lon="2.149270">
        <ele>781.9</ele>
        <time>2011-08-19T14:07:44Z</time>
      </trkpt>
      <trkpt lat="41.767121" lon="2.149298">
        <ele>782.4</ele>
        <time>2011-08-19T14:07:44Z</time>
      </trkpt>
      <trkpt lat="41.767293" lon="2.149313">
        <ele>783.3</ele>
        <time>2011-08-19T14:07:44Z</time>
      </trkpt>
      <trkpt lat="41.767446" lon="2.149320">
        <ele>784.1</ele>
        <time>2011-08-19T14:07:44Z</time>
      </trkpt>
      <trkpt lat="41.767561" lon="2.149312">
        <ele>784.5</ele>
        <time>2011-08-19T14:07:44Z</time>
      </trkpt>
      <trkpt lat="41.767682" lon="2.149305">
        <ele>785.0</ele>
        <time>2011-08-19T14:07:44Z</time>
      </trkpt>
      <trkpt lat="41.767745" lon="2.149293">
        <ele>784.8</ele>
        <time>2011-08-19T14:07:44Z</time>
      </trkpt>
      <trkpt lat="41.767739" lon="2.149373">
        <ele>784.8</ele>
        <time>2011-08-19T14:07:44Z</time>
      </trkpt>
      <trkpt lat="41.767848" lon="2.149360">
        <ele>784.4</ele>
        <time>2011-08-19T14:07:44Z</time>
      </trkpt>
      <trkpt lat="41.767973" lon="2.149327">
        <ele>783.9</ele>
        <time>2011-08-19T14:07:44Z</time>
      </trkpt>
      <trkpt lat="41.768119" lon="2.149266">
        <ele>783.7</ele>
        <time>2011-08-19T14:07:44Z</time>
      </trkpt>
      <trkpt lat="41.768258" lon="2.149206">
        <ele>783.4</ele>
        <time>2011-08-19T14:07:44Z</time>
      </trkpt>
      <trkpt lat="41.768397" lon="2.149155">
        <ele>782.9</ele>
        <time>2011-08-19T14:07:44Z</time>
      </trkpt>
      <trkpt lat="41.768518" lon="2.149140">
        <ele>782.5</ele>
        <time>2011-08-19T14:07:44Z</time>
      </trkpt>
      <trkpt lat="41.768630" lon="2.149129">
        <ele>782.4</ele>
        <time>2011-08-19T14:07:44Z</time>
      </trkpt>
      <trkpt lat="41.768758" lon="2.149134">
        <ele>782.1</ele>
        <time>2011-08-19T14:07:44Z</time>
      </trkpt>
      <trkpt lat="41.768891" lon="2.149159">
        <ele>781.8</ele>
        <time>2011-08-19T14:07:44Z</time>
      </trkpt>
      <trkpt lat="41.769012" lon="2.149211">
        <ele>781.2</ele>
        <time>2011-08-19T14:07:44Z</time>
      </trkpt>
      <trkpt lat="41.769133" lon="2.149265">
        <ele>781.6</ele>
        <time>2011-08-19T14:07:44Z</time>
      </trkpt>
      <trkpt lat="41.769199" lon="2.149296">
        <ele>782.0</ele>
        <time>2011-08-19T14:07:44Z</time>
      </trkpt>
      <trkpt lat="41.769372" lon="2.149330">
        <ele>782.8</ele>
        <time>2011-08-19T14:07:44Z</time>
      </trkpt>
      <trkpt lat="41.769514" lon="2.149362">
        <ele>782.7</ele>
        <time>2011-08-19T14:07:44Z</time>
      </trkpt>
      <trkpt lat="41.769629" lon="2.149383">
        <ele>782.9</ele>
        <time>2011-08-19T14:07:44Z</time>
      </trkpt>
      <trkpt lat="41.769762" lon="2.149398">
        <ele>783.4</ele>
        <time>2011-08-19T14:07:44Z</time>
      </trkpt>
      <trkpt lat="41.769909" lon="2.149440">
        <ele>784.3</ele>
        <time>2011-08-19T14:07:44Z</time>
      </trkpt>
      <trkpt lat="41.770028" lon="2.149514">
        <ele>785.6</ele>
        <time>2011-08-19T14:07:44Z</time>
      </trkpt>
      <trkpt lat="41.770134" lon="2.149590">
        <ele>786.9</ele>
        <time>2011-08-19T14:07:44Z</time>
      </trkpt>
      <trkpt lat="41.770214" lon="2.149652">
        <ele>787.3</ele>
        <time>2011-08-19T14:07:44Z</time>
      </trkpt>
      <trkpt lat="41.770312" lon="2.149726">
        <ele>787.8</ele>
        <time>2011-08-19T14:07:44Z</time>
      </trkpt>
      <trkpt lat="41.770454" lon="2.149827">
        <ele>788.2</ele>
        <time>2011-08-19T14:07:44Z</time>
      </trkpt>
      <trkpt lat="41.770552" lon="2.149906">
        <ele>788.3</ele>
        <time>2011-08-19T14:07:44Z</time>
      </trkpt>
      <trkpt lat="41.770631" lon="2.149983">
        <ele>788.7</ele>
        <time>2011-08-19T14:07:44Z</time>
      </trkpt>
      <trkpt lat="41.770713" lon="2.150064">
        <ele>788.4</ele>
        <time>2011-08-19T14:07:44Z</time>
      </trkpt>
      <trkpt lat="41.770794" lon="2.150156">
        <ele>787.9</ele>
        <time>2011-08-19T14:07:44Z</time>
      </trkpt>
      <trkpt lat="41.770864" lon="2.150213">
        <ele>787.8</ele>
        <time>2011-08-19T14:07:44Z</time>
      </trkpt>
      <trkpt lat="41.770961" lon="2.150288">
        <ele>787.7</ele>
        <time>2011-08-19T14:07:44Z</time>
      </trkpt>
      <trkpt lat="41.771111" lon="2.150390">
        <ele>787.8</ele>
        <time>2011-08-19T14:07:44Z</time>
      </trkpt>
      <trkpt lat="41.771224" lon="2.150445">
        <ele>787.4</ele>
        <time>2011-08-19T14:07:44Z</time>
      </trkpt>
      <trkpt lat="41.771354" lon="2.150509">
        <ele>787.1</ele>
        <time>2011-08-19T14:07:44Z</time>
      </trkpt>
      <trkpt lat="41.771502" lon="2.150551">
        <ele>787.0</ele>
        <time>2011-08-19T14:07:44Z</time>
      </trkpt>
      <trkpt lat="41.771621" lon="2.150573">
        <ele>787.1</ele>
        <time>2011-08-19T14:07:44Z</time>
      </trkpt>
      <trkpt lat="41.771758" lon="2.150596">
        <ele>787.3</ele>
        <time>2011-08-19T14:07:44Z</time>
      </trkpt>
      <trkpt lat="41.771878" lon="2.150597">
        <ele>788.3</ele>
        <time>2011-08-19T14:07:44Z</time>
      </trkpt>
      <trkpt lat="41.772044" lon="2.150600">
        <ele>789.5</ele>
        <time>2011-08-19T14:07:44Z</time>
      </trkpt>
      <trkpt lat="41.772146" lon="2.150588">
        <ele>790.1</ele>
        <time>2011-08-19T14:07:44Z</time>
      </trkpt>
      <trkpt lat="41.772313" lon="2.150581">
        <ele>791.2</ele>
        <time>2011-08-19T14:07:44Z</time>
      </trkpt>
      <trkpt lat="41.772492" lon="2.150559">
        <ele>792.1</ele>
        <time>2011-08-19T14:07:44Z</time>
      </trkpt>
      <trkpt lat="41.772623" lon="2.150553">
        <ele>792.3</ele>
        <time>2011-08-19T14:07:44Z</time>
      </trkpt>
      <trkpt lat="41.772705" lon="2.150549">
        <ele>792.1</ele>
        <time>2011-08-19T14:07:44Z</time>
      </trkpt>
      <trkpt lat="41.772814" lon="2.150533">
        <ele>792.0</ele>
        <time>2011-08-19T14:07:44Z</time>
      </trkpt>
      <trkpt lat="41.772944" lon="2.150537">
        <ele>791.7</ele>
        <time>2011-08-19T14:07:44Z</time>
      </trkpt>
      <trkpt lat="41.773055" lon="2.150557">
        <ele>791.5</ele>
        <time>2011-08-19T14:07:44Z</time>
      </trkpt>
      <trkpt lat="41.773152" lon="2.150585">
        <ele>791.3</ele>
        <time>2011-08-19T14:07:44Z</time>
      </trkpt>
      <trkpt lat="41.773267" lon="2.150635">
        <ele>791.2</ele>
        <time>2011-08-19T14:07:44Z</time>
      </trkpt>
      <trkpt lat="41.773406" lon="2.150703">
        <ele>791.2</ele>
        <time>2011-08-19T14:07:44Z</time>
      </trkpt>
      <trkpt lat="41.773521" lon="2.150765">
        <ele>791.0</ele>
        <time>2011-08-19T14:07:44Z</time>
      </trkpt>
      <trkpt lat="41.773655" lon="2.150829">
        <ele>791.0</ele>
        <time>2011-08-19T14:07:44Z</time>
      </trkpt>
      <trkpt lat="41.773777" lon="2.150918">
        <ele>791.1</ele>
        <time>2011-08-19T14:07:44Z</time>
      </trkpt>
      <trkpt lat="41.773898" lon="2.150991">
        <ele>791.9</ele>
        <time>2011-08-19T14:07:44Z</time>
      </trkpt>
      <trkpt lat="41.774015" lon="2.151051">
        <ele>792.4</ele>
        <time>2011-08-19T14:07:44Z</time>
      </trkpt>
      <trkpt lat="41.774133" lon="2.151129">
        <ele>793.0</ele>
        <time>2011-08-19T14:07:44Z</time>
      </trkpt>
      <trkpt lat="41.774257" lon="2.151218">
        <ele>793.6</ele>
        <time>2011-08-19T14:07:44Z</time>
      </trkpt>
      <trkpt lat="41.774365" lon="2.151292">
        <ele>794.1</ele>
        <time>2011-08-19T14:07:44Z</time>
      </trkpt>
      <trkpt lat="41.774460" lon="2.151344">
        <ele>794.6</ele>
        <time>2011-08-19T14:07:44Z</time>
      </trkpt>
      <trkpt lat="41.774616" lon="2.151440">
        <ele>794.5</ele>
        <time>2011-08-19T14:07:44Z</time>
      </trkpt>
      <trkpt lat="41.774731" lon="2.151511">
        <ele>794.2</ele>
        <time>2011-08-19T14:07:44Z</time>
      </trkpt>
      <trkpt lat="41.774852" lon="2.151585">
        <ele>793.5</ele>
        <time>2011-08-19T14:07:44Z</time>
      </trkpt>
      <trkpt lat="41.774966" lon="2.151671">
        <ele>793.4</ele>
        <time>2011-08-19T14:07:44Z</time>
      </trkpt>
      <trkpt lat="41.775044" lon="2.151736">
        <ele>793.2</ele>
        <time>2011-08-19T14:07:44Z</time>
      </trkpt>
      <trkpt lat="41.775101" lon="2.151798">
        <ele>793.0</ele>
        <time>2011-08-19T14:07:44Z</time>
      </trkpt>
      <trkpt lat="41.775186" lon="2.151875">
        <ele>792.7</ele>
        <time>2011-08-19T14:07:44Z</time>
      </trkpt>
      <trkpt lat="41.775268" lon="2.151966">
        <ele>792.7</ele>
        <time>2011-08-19T14:07:44Z</time>
      </trkpt>
      <trkpt lat="41.775353" lon="2.152060">
        <ele>792.7</ele>
        <time>2011-08-19T14:07:44Z</time>
      </trkpt>
      <trkpt lat="41.775432" lon="2.152132">
        <ele>792.9</ele>
        <time>2011-08-19T14:07:44Z</time>
      </trkpt>
      <trkpt lat="41.775511" lon="2.152212">
        <ele>792.9</ele>
        <time>2011-08-19T14:07:44Z</time>
      </trkpt>
      <trkpt lat="41.775632" lon="2.152303">
        <ele>792.8</ele>
        <time>2011-08-19T14:07:44Z</time>
      </trkpt>
      <trkpt lat="41.775769" lon="2.152403">
        <ele>793.2</ele>
        <time>2011-08-19T14:07:44Z</time>
      </trkpt>
      <trkpt lat="41.775875" lon="2.152480">
        <ele>793.5</ele>
        <time>2011-08-19T14:07:44Z</time>
      </trkpt>
      <trkpt lat="41.776000" lon="2.152556">
        <ele>793.2</ele>
        <time>2011-08-19T14:07:44Z</time>
      </trkpt>
      <trkpt lat="41.776115" lon="2.152632">
        <ele>793.3</ele>
        <time>2011-08-19T14:07:44Z</time>
      </trkpt>
      <trkpt lat="41.776275" lon="2.152730">
        <ele>794.2</ele>
        <time>2011-08-19T14:07:44Z</time>
      </trkpt>
      <trkpt lat="41.776385" lon="2.152804">
        <ele>794.8</ele>
        <time>2011-08-19T14:07:44Z</time>
      </trkpt>
      <trkpt lat="41.776491" lon="2.152873">
        <ele>795.2</ele>
        <time>2011-08-19T14:07:44Z</time>
      </trkpt>
      <trkpt lat="41.776619" lon="2.152957">
        <ele>795.4</ele>
        <time>2011-08-19T14:07:44Z</time>
      </trkpt>
      <trkpt lat="41.776731" lon="2.153033">
        <ele>796.0</ele>
        <time>2011-08-19T14:07:44Z</time>
      </trkpt>
      <trkpt lat="41.776826" lon="2.153107">
        <ele>796.5</ele>
        <time>2011-08-19T14:07:44Z</time>
      </trkpt>
      <trkpt lat="41.776945" lon="2.153186">
        <ele>797.0</ele>
        <time>2011-08-19T14:07:44Z</time>
      </trkpt>
      <trkpt lat="41.777057" lon="2.153272">
        <ele>797.0</ele>
        <time>2011-08-19T14:07:44Z</time>
      </trkpt>
      <trkpt lat="41.777169" lon="2.153361">
        <ele>797.0</ele>
        <time>2011-08-19T14:07:44Z</time>
      </trkpt>
      <trkpt lat="41.777253" lon="2.153435">
        <ele>797.0</ele>
        <time>2011-08-19T14:07:44Z</time>
      </trkpt>
      <trkpt lat="41.777341" lon="2.153492">
        <ele>797.0</ele>
        <time>2011-08-19T14:07:44Z</time>
      </trkpt>
      <trkpt lat="41.777434" lon="2.153569">
        <ele>796.8</ele>
        <time>2011-08-19T14:07:44Z</time>
      </trkpt>
      <trkpt lat="41.777566" lon="2.153667">
        <ele>796.3</ele>
        <time>2011-08-19T14:07:44Z</time>
      </trkpt>
      <trkpt lat="41.777643" lon="2.153715">
        <ele>796.0</ele>
        <time>2011-08-19T14:07:44Z</time>
      </trkpt>
      <trkpt lat="41.777749" lon="2.153787">
        <ele>795.7</ele>
        <time>2011-08-19T14:07:44Z</time>
      </trkpt>
      <trkpt lat="41.777855" lon="2.153829">
        <ele>795.8</ele>
        <time>2011-08-19T14:07:44Z</time>
      </trkpt>
      <trkpt lat="41.778013" lon="2.153910">
        <ele>795.9</ele>
        <time>2011-08-19T14:07:44Z</time>
      </trkpt>
      <trkpt lat="41.778097" lon="2.153967">
        <ele>795.8</ele>
        <time>2011-08-19T14:07:44Z</time>
      </trkpt>
      <trkpt lat="41.778191" lon="2.154049">
        <ele>795.7</ele>
        <time>2011-08-19T14:07:44Z</time>
      </trkpt>
      <trkpt lat="41.778277" lon="2.154120">
        <ele>795.9</ele>
        <time>2011-08-19T14:07:44Z</time>
      </trkpt>
      <trkpt lat="41.778357" lon="2.154190">
        <ele>796.3</ele>
        <time>2011-08-19T14:07:44Z</time>
      </trkpt>
      <trkpt lat="41.778435" lon="2.154277">
        <ele>797.1</ele>
        <time>2011-08-19T14:07:44Z</time>
      </trkpt>
      <trkpt lat="41.778495" lon="2.154378">
        <ele>798.0</ele>
        <time>2011-08-19T14:07:44Z</time>
      </trkpt>
      <trkpt lat="41.778580" lon="2.154513">
        <ele>798.4</ele>
        <time>2011-08-19T14:07:44Z</time>
      </trkpt>
      <trkpt lat="41.778634" lon="2.154603">
        <ele>798.6</ele>
        <time>2011-08-19T14:07:44Z</time>
      </trkpt>
      <trkpt lat="41.778691" lon="2.154724">
        <ele>799.3</ele>
        <time>2011-08-19T14:07:44Z</time>
      </trkpt>
      <trkpt lat="41.778754" lon="2.154803">
        <ele>799.7</ele>
        <time>2011-08-19T14:07:44Z</time>
      </trkpt>
      <trkpt lat="41.778819" lon="2.154941">
        <ele>800.5</ele>
        <time>2011-08-19T14:07:44Z</time>
      </trkpt>
      <trkpt lat="41.778909" lon="2.155067">
        <ele>800.1</ele>
        <time>2011-08-19T14:07:44Z</time>
      </trkpt>
      <trkpt lat="41.778997" lon="2.155189">
        <ele>800.6</ele>
        <time>2011-08-19T14:07:44Z</time>
      </trkpt>
      <trkpt lat="41.779093" lon="2.155315">
        <ele>801.8</ele>
        <time>2011-08-19T14:07:44Z</time>
      </trkpt>
      <trkpt lat="41.779168" lon="2.155377">
        <ele>801.6</ele>
        <time>2011-08-19T14:07:44Z</time>
      </trkpt>
      <trkpt lat="41.779254" lon="2.155459">
        <ele>801.8</ele>
        <time>2011-08-19T14:07:44Z</time>
      </trkpt>
      <trkpt lat="41.779366" lon="2.155579">
        <ele>802.9</ele>
        <time>2011-08-19T14:07:44Z</time>
      </trkpt>
      <trkpt lat="41.779456" lon="2.155695">
        <ele>804.0</ele>
        <time>2011-08-19T14:07:44Z</time>
      </trkpt>
      <trkpt lat="41.779538" lon="2.155815">
        <ele>804.5</ele>
        <time>2011-08-19T14:07:44Z</time>
      </trkpt>
      <trkpt lat="41.779622" lon="2.155953">
        <ele>805.5</ele>
        <time>2011-08-19T14:07:44Z</time>
      </trkpt>
      <trkpt lat="41.779689" lon="2.156091">
        <ele>805.6</ele>
        <time>2011-08-19T14:07:44Z</time>
      </trkpt>
      <trkpt lat="41.779750" lon="2.156178">
        <ele>805.8</ele>
        <time>2011-08-19T14:07:44Z</time>
      </trkpt>
      <trkpt lat="41.779807" lon="2.156272">
        <ele>806.4</ele>
        <time>2011-08-19T14:07:44Z</time>
      </trkpt>
      <trkpt lat="41.779893" lon="2.156390">
        <ele>807.9</ele>
        <time>2011-08-19T14:07:44Z</time>
      </trkpt>
      <trkpt lat="41.779971" lon="2.156496">
        <ele>807.4</ele>
        <time>2011-08-19T14:07:44Z</time>
      </trkpt>
      <trkpt lat="41.780030" lon="2.156576">
        <ele>807.5</ele>
        <time>2011-08-19T14:07:44Z</time>
      </trkpt>
      <trkpt lat="41.780090" lon="2.156638">
        <ele>807.8</ele>
        <time>2011-08-19T14:07:44Z</time>
      </trkpt>
      <trkpt lat="41.780144" lon="2.156755">
        <ele>809.0</ele>
        <time>2011-08-19T14:07:44Z</time>
      </trkpt>
      <trkpt lat="41.780212" lon="2.156890">
        <ele>809.0</ele>
        <time>2011-08-19T14:07:44Z</time>
      </trkpt>
      <trkpt lat="41.780266" lon="2.157016">
        <ele>809.1</ele>
        <time>2011-08-19T14:07:44Z</time>
      </trkpt>
      <trkpt lat="41.780313" lon="2.157186">
        <ele>810.0</ele>
        <time>2011-08-19T14:07:44Z</time>
      </trkpt>
      <trkpt lat="41.780343" lon="2.157339">
        <ele>810.9</ele>
        <time>2011-08-19T14:07:44Z</time>
      </trkpt>
      <trkpt lat="41.780377" lon="2.157450">
        <ele>811.5</ele>
        <time>2011-08-19T14:07:44Z</time>
      </trkpt>
      <trkpt lat="41.780419" lon="2.157562">
        <ele>812.0</ele>
        <time>2011-08-19T14:07:44Z</time>
      </trkpt>
      <trkpt lat="41.780468" lon="2.157700">
        <ele>812.2</ele>
        <time>2011-08-19T14:07:44Z</time>
      </trkpt>
      <trkpt lat="41.780522" lon="2.157814">
        <ele>811.8</ele>
        <time>2011-08-19T14:07:44Z</time>
      </trkpt>
      <trkpt lat="41.780581" lon="2.157944">
        <ele>811.7</ele>
        <time>2011-08-19T14:07:44Z</time>
      </trkpt>
      <trkpt lat="41.780633" lon="2.158075">
        <ele>812.1</ele>
        <time>2011-08-19T14:07:44Z</time>
      </trkpt>
      <trkpt lat="41.780681" lon="2.158169">
        <ele>812.3</ele>
        <time>2011-08-19T14:07:44Z</time>
      </trkpt>
      <trkpt lat="41.780738" lon="2.158290">
        <ele>812.6</ele>
        <time>2011-08-19T14:07:44Z</time>
      </trkpt>
      <trkpt lat="41.780792" lon="2.158414">
        <ele>813.0</ele>
        <time>2011-08-19T14:07:44Z</time>
      </trkpt>
      <trkpt lat="41.780837" lon="2.158513">
        <ele>813.3</ele>
        <time>2011-08-19T14:07:44Z</time>
      </trkpt>
      <trkpt lat="41.780910" lon="2.158627">
        <ele>813.3</ele>
        <time>2011-08-19T14:07:44Z</time>
      </trkpt>
      <trkpt lat="41.780969" lon="2.158691">
        <ele>813.3</ele>
        <time>2011-08-19T14:07:44Z</time>
      </trkpt>
      <trkpt lat="41.781041" lon="2.158764">
        <ele>813.8</ele>
        <time>2011-08-19T14:07:44Z</time>
      </trkpt>
      <trkpt lat="41.781127" lon="2.158811">
        <ele>814.1</ele>
        <time>2011-08-19T14:07:44Z</time>
      </trkpt>
      <trkpt lat="41.781227" lon="2.158827">
        <ele>813.9</ele>
        <time>2011-08-19T14:07:44Z</time>
      </trkpt>
      <trkpt lat="41.781369" lon="2.158840">
        <ele>814.1</ele>
        <time>2011-08-19T14:07:44Z</time>
      </trkpt>
      <trkpt lat="41.781482" lon="2.158836">
        <ele>814.2</ele>
        <time>2011-08-19T14:07:44Z</time>
      </trkpt>
      <trkpt lat="41.781590" lon="2.158844">
        <ele>814.9</ele>
        <time>2011-08-19T14:07:44Z</time>
      </trkpt>
      <trkpt lat="41.781652" lon="2.158855">
        <ele>815.5</ele>
        <time>2011-08-19T14:07:44Z</time>
      </trkpt>
      <trkpt lat="41.781792" lon="2.158866">
        <ele>816.7</ele>
        <time>2011-08-19T14:07:44Z</time>
      </trkpt>
      <trkpt lat="41.781880" lon="2.158877">
        <ele>817.1</ele>
        <time>2011-08-19T14:07:44Z</time>
      </trkpt>
      <trkpt lat="41.782035" lon="2.158909">
        <ele>817.9</ele>
        <time>2011-08-19T14:07:44Z</time>
      </trkpt>
      <trkpt lat="41.782159" lon="2.158927">
        <ele>817.8</ele>
        <time>2011-08-19T14:07:44Z</time>
      </trkpt>
      <trkpt lat="41.782268" lon="2.158942">
        <ele>817.6</ele>
        <time>2011-08-19T14:07:44Z</time>
      </trkpt>
      <trkpt lat="41.782407" lon="2.158977">
        <ele>818.0</ele>
        <time>2011-08-19T14:07:44Z</time>
      </trkpt>
      <trkpt lat="41.782542" lon="2.159007">
        <ele>818.8</ele>
        <time>2011-08-19T14:07:44Z</time>
      </trkpt>
      <trkpt lat="41.782657" lon="2.159030">
        <ele>819.5</ele>
        <time>2011-08-19T14:07:44Z</time>
      </trkpt>
      <trkpt lat="41.782758" lon="2.159050">
        <ele>820.2</ele>
        <time>2011-08-19T14:07:44Z</time>
      </trkpt>
      <trkpt lat="41.782829" lon="2.159069">
        <ele>820.7</ele>
        <time>2011-08-19T14:07:44Z</time>
      </trkpt>
      <trkpt lat="41.782951" lon="2.159097">
        <ele>821.7</ele>
        <time>2011-08-19T14:07:44Z</time>
      </trkpt>
      <trkpt lat="41.783072" lon="2.159149">
        <ele>822.9</ele>
        <time>2011-08-19T14:07:44Z</time>
      </trkpt>
      <trkpt lat="41.783185" lon="2.159198">
        <ele>824.0</ele>
        <time>2011-08-19T14:07:44Z</time>
      </trkpt>
      <trkpt lat="41.783293" lon="2.159241">
        <ele>825.1</ele>
        <time>2011-08-19T14:07:44Z</time>
      </trkpt>
      <trkpt lat="41.783395" lon="2.159281">
        <ele>825.9</ele>
        <time>2011-08-19T14:07:44Z</time>
      </trkpt>
      <trkpt lat="41.783499" lon="2.159287">
        <ele>826.4</ele>
        <time>2011-08-19T14:07:44Z</time>
      </trkpt>
      <trkpt lat="41.783605" lon="2.159302">
        <ele>826.7</ele>
        <time>2011-08-19T14:07:44Z</time>
      </trkpt>
      <trkpt lat="41.783718" lon="2.159320">
        <ele>826.9</ele>
        <time>2011-08-19T14:07:44Z</time>
      </trkpt>
      <trkpt lat="41.783817" lon="2.159336">
        <ele>826.4</ele>
        <time>2011-08-19T14:07:44Z</time>
      </trkpt>
      <trkpt lat="41.783964" lon="2.159324">
        <ele>825.7</ele>
        <time>2011-08-19T14:07:44Z</time>
      </trkpt>
      <trkpt lat="41.784075" lon="2.159299">
        <ele>824.9</ele>
        <time>2011-08-19T14:07:44Z</time>
      </trkpt>
      <trkpt lat="41.784177" lon="2.159270">
        <ele>824.2</ele>
        <time>2011-08-19T14:07:44Z</time>
      </trkpt>
      <trkpt lat="41.784254" lon="2.159262">
        <ele>823.8</ele>
        <time>2011-08-19T14:07:44Z</time>
      </trkpt>
      <trkpt lat="41.784359" lon="2.159246">
        <ele>823.8</ele>
        <time>2011-08-19T14:07:44Z</time>
      </trkpt>
      <trkpt lat="41.784465" lon="2.159262">
        <ele>823.6</ele>
        <time>2011-08-19T14:07:44Z</time>
      </trkpt>
      <trkpt lat="41.784542" lon="2.159300">
        <ele>823.1</ele>
        <time>2011-08-19T14:07:44Z</time>
      </trkpt>
      <trkpt lat="41.784640" lon="2.159338">
        <ele>822.7</ele>
        <time>2011-08-19T14:07:44Z</time>
      </trkpt>
      <trkpt lat="41.784752" lon="2.159399">
        <ele>822.0</ele>
        <time>2011-08-19T14:07:44Z</time>
      </trkpt>
      <trkpt lat="41.784902" lon="2.159497">
        <ele>821.3</ele>
        <time>2011-08-19T14:07:44Z</time>
      </trkpt>
      <trkpt lat="41.785014" lon="2.159581">
        <ele>820.8</ele>
        <time>2011-08-19T14:07:44Z</time>
      </trkpt>
      <trkpt lat="41.785117" lon="2.159653">
        <ele>820.3</ele>
        <time>2011-08-19T14:07:44Z</time>
      </trkpt>
      <trkpt lat="41.785210" lon="2.159720">
        <ele>819.9</ele>
        <time>2011-08-19T14:07:44Z</time>
      </trkpt>
      <trkpt lat="41.785294" lon="2.159821">
        <ele>819.9</ele>
        <time>2011-08-19T14:07:44Z</time>
      </trkpt>
      <trkpt lat="41.785399" lon="2.159917">
        <ele>820.0</ele>
        <time>2011-08-19T14:07:44Z</time>
      </trkpt>
      <trkpt lat="41.785474" lon="2.159986">
        <ele>819.9</ele>
        <time>2011-08-19T14:07:44Z</time>
      </trkpt>
      <trkpt lat="41.785568" lon="2.160075">
        <ele>820.0</ele>
        <time>2011-08-19T14:07:44Z</time>
      </trkpt>
      <trkpt lat="41.785658" lon="2.160181">
        <ele>819.7</ele>
        <time>2011-08-19T14:07:44Z</time>
      </trkpt>
      <trkpt lat="41.785739" lon="2.160285">
        <ele>819.5</ele>
        <time>2011-08-19T14:07:44Z</time>
      </trkpt>
      <trkpt lat="41.785827" lon="2.160406">
        <ele>819.4</ele>
        <time>2011-08-19T14:07:44Z</time>
      </trkpt>
      <trkpt lat="41.785908" lon="2.160504">
        <ele>819.4</ele>
        <time>2011-08-19T14:07:44Z</time>
      </trkpt>
      <trkpt lat="41.785967" lon="2.160594">
        <ele>819.5</ele>
        <time>2011-08-19T14:07:44Z</time>
      </trkpt>
      <trkpt lat="41.786046" lon="2.160688">
        <ele>819.3</ele>
        <time>2011-08-19T14:07:44Z</time>
      </trkpt>
      <trkpt lat="41.786118" lon="2.160825">
        <ele>819.0</ele>
        <time>2011-08-19T14:07:44Z</time>
      </trkpt>
      <trkpt lat="41.786179" lon="2.160951">
        <ele>818.8</ele>
        <time>2011-08-19T14:07:44Z</time>
      </trkpt>
      <trkpt lat="41.786240" lon="2.161067">
        <ele>818.7</ele>
        <time>2011-08-19T14:07:44Z</time>
      </trkpt>
      <trkpt lat="41.786300" lon="2.161220">
        <ele>818.8</ele>
        <time>2011-08-19T14:07:44Z</time>
      </trkpt>
      <trkpt lat="41.786337" lon="2.161368">
        <ele>819.0</ele>
        <time>2011-08-19T14:07:44Z</time>
      </trkpt>
      <trkpt lat="41.786366" lon="2.161565">
        <ele>819.5</ele>
        <time>2011-08-19T14:07:44Z</time>
      </trkpt>
      <trkpt lat="41.786394" lon="2.161713">
        <ele>819.9</ele>
        <time>2011-08-19T14:07:44Z</time>
      </trkpt>
      <trkpt lat="41.786421" lon="2.161849">
        <ele>820.3</ele>
        <time>2011-08-19T14:07:44Z</time>
      </trkpt>
      <trkpt lat="41.786453" lon="2.161948">
        <ele>820.2</ele>
        <time>2011-08-19T14:07:44Z</time>
      </trkpt>
      <trkpt lat="41.786490" lon="2.162040">
        <ele>820.1</ele>
        <time>2011-08-19T14:07:44Z</time>
      </trkpt>
      <trkpt lat="41.786549" lon="2.162169">
        <ele>820.0</ele>
        <time>2011-08-19T14:07:44Z</time>
      </trkpt>
      <trkpt lat="41.786595" lon="2.162300">
        <ele>820.2</ele>
        <time>2011-08-19T14:07:44Z</time>
      </trkpt>
      <trkpt lat="41.786642" lon="2.162433">
        <ele>820.5</ele>
        <time>2011-08-19T14:07:44Z</time>
      </trkpt>
      <trkpt lat="41.786698" lon="2.162586">
        <ele>821.1</ele>
        <time>2011-08-19T14:07:44Z</time>
      </trkpt>
      <trkpt lat="41.786757" lon="2.162723">
        <ele>821.3</ele>
        <time>2011-08-19T14:07:44Z</time>
      </trkpt>
      <trkpt lat="41.786809" lon="2.162854">
        <ele>821.8</ele>
        <time>2011-08-19T14:07:44Z</time>
      </trkpt>
      <trkpt lat="41.786855" lon="2.162954">
        <ele>822.2</ele>
        <time>2011-08-19T14:07:44Z</time>
      </trkpt>
      <trkpt lat="41.786918" lon="2.163040">
        <ele>822.7</ele>
        <time>2011-08-19T14:07:44Z</time>
      </trkpt>
      <trkpt lat="41.786988" lon="2.163149">
        <ele>823.8</ele>
        <time>2011-08-19T14:07:44Z</time>
      </trkpt>
      <trkpt lat="41.787065" lon="2.163267">
        <ele>825.1</ele>
        <time>2011-08-19T14:07:44Z</time>
      </trkpt>
      <trkpt lat="41.787141" lon="2.163369">
        <ele>826.5</ele>
        <time>2011-08-19T14:07:44Z</time>
      </trkpt>
      <trkpt lat="41.787193" lon="2.163453">
        <ele>827.8</ele>
        <time>2011-08-19T14:07:44Z</time>
      </trkpt>
      <trkpt lat="41.787224" lon="2.163577">
        <ele>828.7</ele>
        <time>2011-08-19T14:07:44Z</time>
      </trkpt>
      <trkpt lat="41.787264" lon="2.163701">
        <ele>828.6</ele>
        <time>2011-08-19T14:07:44Z</time>
      </trkpt>
      <trkpt lat="41.787297" lon="2.163815">
        <ele>828.6</ele>
        <time>2011-08-19T14:07:44Z</time>
      </trkpt>
      <trkpt lat="41.787355" lon="2.163977">
        <ele>828.1</ele>
        <time>2011-08-19T14:07:44Z</time>
      </trkpt>
      <trkpt lat="41.787427" lon="2.164088">
        <ele>828.2</ele>
        <time>2011-08-19T14:07:44Z</time>
      </trkpt>
      <trkpt lat="41.787495" lon="2.164177">
        <ele>828.9</ele>
        <time>2011-08-19T14:07:44Z</time>
      </trkpt>
      <trkpt lat="41.787581" lon="2.164293">
        <ele>828.9</ele>
        <time>2011-08-19T14:07:44Z</time>
      </trkpt>
      <trkpt lat="41.787644" lon="2.164385">
        <ele>828.7</ele>
        <time>2011-08-19T14:07:44Z</time>
      </trkpt>
      <trkpt lat="41.787716" lon="2.164496">
        <ele>828.7</ele>
        <time>2011-08-19T14:07:44Z</time>
      </trkpt>
      <trkpt lat="41.787787" lon="2.164583">
        <ele>829.1</ele>
        <time>2011-08-19T14:07:44Z</time>
      </trkpt>
      <trkpt lat="41.787852" lon="2.164682">
        <ele>828.9</ele>
        <time>2011-08-19T14:07:44Z</time>
      </trkpt>
      <trkpt lat="41.787918" lon="2.164793">
        <ele>829.1</ele>
        <time>2011-08-19T14:07:44Z</time>
      </trkpt>
      <trkpt lat="41.787996" lon="2.164940">
        <ele>829.9</ele>
        <time>2011-08-19T14:07:44Z</time>
      </trkpt>
      <trkpt lat="41.788062" lon="2.165054">
        <ele>830.4</ele>
        <time>2011-08-19T14:07:44Z</time>
      </trkpt>
      <trkpt lat="41.788111" lon="2.165158">
        <ele>830.1</ele>
        <time>2011-08-19T14:07:44Z</time>
      </trkpt>
      <trkpt lat="41.788161" lon="2.165291">
        <ele>830.1</ele>
        <time>2011-08-19T14:07:44Z</time>
      </trkpt>
      <trkpt lat="41.788215" lon="2.165437">
        <ele>831.1</ele>
        <time>2011-08-19T14:07:44Z</time>
      </trkpt>
      <trkpt lat="41.788257" lon="2.165593">
        <ele>832.3</ele>
        <time>2011-08-19T14:07:44Z</time>
      </trkpt>
      <trkpt lat="41.788291" lon="2.165705">
        <ele>833.3</ele>
        <time>2011-08-19T14:07:44Z</time>
      </trkpt>
      <trkpt lat="41.788344" lon="2.165851">
        <ele>834.6</ele>
        <time>2011-08-19T14:07:44Z</time>
      </trkpt>
      <trkpt lat="41.788392" lon="2.166000">
        <ele>835.3</ele>
        <time>2011-08-19T14:07:44Z</time>
      </trkpt>
      <trkpt lat="41.788431" lon="2.166102">
        <ele>835.9</ele>
        <time>2011-08-19T14:07:44Z</time>
      </trkpt>
      <trkpt lat="41.788478" lon="2.166227">
        <ele>836.6</ele>
        <time>2011-08-19T14:07:44Z</time>
      </trkpt>
      <trkpt lat="41.788520" lon="2.166350">
        <ele>837.2</ele>
        <time>2011-08-19T14:07:44Z</time>
      </trkpt>
      <trkpt lat="41.788563" lon="2.166473">
        <ele>838.0</ele>
        <time>2011-08-19T14:07:44Z</time>
      </trkpt>
      <trkpt lat="41.788590" lon="2.166580">
        <ele>838.5</ele>
        <time>2011-08-19T14:07:44Z</time>
      </trkpt>
      <trkpt lat="41.788625" lon="2.166725">
        <ele>838.8</ele>
        <time>2011-08-19T14:07:44Z</time>
      </trkpt>
      <trkpt lat="41.788664" lon="2.166855">
        <ele>839.0</ele>
        <time>2011-08-19T14:07:44Z</time>
      </trkpt>
      <trkpt lat="41.788700" lon="2.166964">
        <ele>839.0</ele>
        <time>2011-08-19T14:07:44Z</time>
      </trkpt>
      <trkpt lat="41.788746" lon="2.167089">
        <ele>839.0</ele>
        <time>2011-08-19T14:07:44Z</time>
      </trkpt>
      <trkpt lat="41.788808" lon="2.167222">
        <ele>838.8</ele>
        <time>2011-08-19T14:07:44Z</time>
      </trkpt>
      <trkpt lat="41.788865" lon="2.167347">
        <ele>838.7</ele>
        <time>2011-08-19T14:07:44Z</time>
      </trkpt>
      <trkpt lat="41.788929" lon="2.167486">
        <ele>838.4</ele>
        <time>2011-08-19T14:07:44Z</time>
      </trkpt>
      <trkpt lat="41.788971" lon="2.167595">
        <ele>838.4</ele>
        <time>2011-08-19T14:07:44Z</time>
      </trkpt>
      <trkpt lat="41.789031" lon="2.167695">
        <ele>838.3</ele>
        <time>2011-08-19T14:07:44Z</time>
      </trkpt>
      <trkpt lat="41.789113" lon="2.167792">
        <ele>838.2</ele>
        <time>2011-08-19T14:07:44Z</time>
      </trkpt>
      <trkpt lat="41.789188" lon="2.167907">
        <ele>838.2</ele>
        <time>2011-08-19T14:07:44Z</time>
      </trkpt>
      <trkpt lat="41.789276" lon="2.167979">
        <ele>837.5</ele>
        <time>2011-08-19T14:07:44Z</time>
      </trkpt>
      <trkpt lat="41.789364" lon="2.168061">
        <ele>837.2</ele>
        <time>2011-08-19T14:07:44Z</time>
      </trkpt>
      <trkpt lat="41.789466" lon="2.168132">
        <ele>837.0</ele>
        <time>2011-08-19T14:07:44Z</time>
      </trkpt>
      <trkpt lat="41.789575" lon="2.168208">
        <ele>836.4</ele>
        <time>2011-08-19T14:07:44Z</time>
      </trkpt>
      <trkpt lat="41.789701" lon="2.168267">
        <ele>835.0</ele>
        <time>2011-08-19T14:07:44Z</time>
      </trkpt>
      <trkpt lat="41.789811" lon="2.168329">
        <ele>835.0</ele>
        <time>2011-08-19T14:07:44Z</time>
      </trkpt>
      <trkpt lat="41.789920" lon="2.168383">
        <ele>835.0</ele>
        <time>2011-08-19T14:07:44Z</time>
      </trkpt>
      <trkpt lat="41.789999" lon="2.168429">
        <ele>835.0</ele>
        <time>2011-08-19T14:07:44Z</time>
      </trkpt>
      <trkpt lat="41.790090" lon="2.168479">
        <ele>835.0</ele>
        <time>2011-08-19T14:07:44Z</time>
      </trkpt>
      <trkpt lat="41.790167" lon="2.168513">
        <ele>835.0</ele>
        <time>2011-08-19T14:07:44Z</time>
      </trkpt>
      <trkpt lat="41.790234" lon="2.168552">
        <ele>834.9</ele>
        <time>2011-08-19T14:07:44Z</time>
      </trkpt>
      <trkpt lat="41.790334" lon="2.168600">
        <ele>835.1</ele>
        <time>2011-08-19T14:07:44Z</time>
      </trkpt>
      <trkpt lat="41.790418" lon="2.168636">
        <ele>835.4</ele>
        <time>2011-08-19T14:07:44Z</time>
      </trkpt>
      <trkpt lat="41.790500" lon="2.168677">
        <ele>835.9</ele>
        <time>2011-08-19T14:07:44Z</time>
      </trkpt>
      <trkpt lat="41.790572" lon="2.168706">
        <ele>836.2</ele>
        <time>2011-08-19T14:07:44Z</time>
      </trkpt>
      <trkpt lat="41.790656" lon="2.168752">
        <ele>836.6</ele>
        <time>2011-08-19T14:07:44Z</time>
      </trkpt>
      <trkpt lat="41.790718" lon="2.168788">
        <ele>837.1</ele>
        <time>2011-08-19T14:07:44Z</time>
      </trkpt>
      <trkpt lat="41.790803" lon="2.168843">
        <ele>837.7</ele>
        <time>2011-08-19T14:07:44Z</time>
      </trkpt>
      <trkpt lat="41.790897" lon="2.168896">
        <ele>837.6</ele>
        <time>2011-08-19T14:07:44Z</time>
      </trkpt>
      <trkpt lat="41.790970" lon="2.168930">
        <ele>837.5</ele>
        <time>2011-08-19T14:07:44Z</time>
      </trkpt>
      <trkpt lat="41.791045" lon="2.168943">
        <ele>837.4</ele>
        <time>2011-08-19T14:07:44Z</time>
      </trkpt>
      <trkpt lat="41.791127" lon="2.168953">
        <ele>837.3</ele>
        <time>2011-08-19T14:07:44Z</time>
      </trkpt>
      <trkpt lat="41.791201" lon="2.168969">
        <ele>837.4</ele>
        <time>2011-08-19T14:07:44Z</time>
      </trkpt>
      <trkpt lat="41.791323" lon="2.168986">
        <ele>837.3</ele>
        <time>2011-08-19T14:07:44Z</time>
      </trkpt>
      <trkpt lat="41.791425" lon="2.168989">
        <ele>837.5</ele>
        <time>2011-08-19T14:07:44Z</time>
      </trkpt>
      <trkpt lat="41.791522" lon="2.168997">
        <ele>837.8</ele>
        <time>2011-08-19T14:07:44Z</time>
      </trkpt>
      <trkpt lat="41.791629" lon="2.168980">
        <ele>838.0</ele>
        <time>2011-08-19T14:07:44Z</time>
      </trkpt>
      <trkpt lat="41.791712" lon="2.168955">
        <ele>837.9</ele>
        <time>2011-08-19T14:07:44Z</time>
      </trkpt>
      <trkpt lat="41.791810" lon="2.168935">
        <ele>837.9</ele>
        <time>2011-08-19T14:07:44Z</time>
      </trkpt>
      <trkpt lat="41.791887" lon="2.168911">
        <ele>837.9</ele>
        <time>2011-08-19T14:07:44Z</time>
      </trkpt>
      <trkpt lat="41.791953" lon="2.168887">
        <ele>837.9</ele>
        <time>2011-08-19T14:07:44Z</time>
      </trkpt>
      <trkpt lat="41.792033" lon="2.168851">
        <ele>838.0</ele>
        <time>2011-08-19T14:07:44Z</time>
      </trkpt>
      <trkpt lat="41.792130" lon="2.168793">
        <ele>838.2</ele>
        <time>2011-08-19T14:07:44Z</time>
      </trkpt>
      <trkpt lat="41.792210" lon="2.168729">
        <ele>838.2</ele>
        <time>2011-08-19T14:07:44Z</time>
      </trkpt>
      <trkpt lat="41.792290" lon="2.168654">
        <ele>838.5</ele>
        <time>2011-08-19T14:07:44Z</time>
      </trkpt>
      <trkpt lat="41.792344" lon="2.168581">
        <ele>839.1</ele>
        <time>2011-08-19T14:07:44Z</time>
      </trkpt>
      <trkpt lat="41.792381" lon="2.168482">
        <ele>840.0</ele>
        <time>2011-08-19T14:07:44Z</time>
      </trkpt>
      <trkpt lat="41.792410" lon="2.168405">
        <ele>840.3</ele>
        <time>2011-08-19T14:07:44Z</time>
      </trkpt>
      <trkpt lat="41.792446" lon="2.168281">
        <ele>841.0</ele>
        <time>2011-08-19T14:07:44Z</time>
      </trkpt>
      <trkpt lat="41.792467" lon="2.168201">
        <ele>841.4</ele>
        <time>2011-08-19T14:07:44Z</time>
      </trkpt>
      <trkpt lat="41.792506" lon="2.168077">
        <ele>842.4</ele>
        <time>2011-08-19T14:07:44Z</time>
      </trkpt>
      <trkpt lat="41.792536" lon="2.167946">
        <ele>843.3</ele>
        <time>2011-08-19T14:07:44Z</time>
      </trkpt>
      <trkpt lat="41.792595" lon="2.167894">
        <ele>844.3</ele>
        <time>2011-08-19T14:07:44Z</time>
      </trkpt>
      <trkpt lat="41.792649" lon="2.167842">
        <ele>845.3</ele>
        <time>2011-08-19T14:07:44Z</time>
      </trkpt>
      <trkpt lat="41.792691" lon="2.167771">
        <ele>846.2</ele>
        <time>2011-08-19T14:07:44Z</time>
      </trkpt>
      <trkpt lat="41.792760" lon="2.167665">
        <ele>847.5</ele>
        <time>2011-08-19T14:07:44Z</time>
      </trkpt>
      <trkpt lat="41.792808" lon="2.167606">
        <ele>848.5</ele>
        <time>2011-08-19T14:07:44Z</time>
      </trkpt>
      <trkpt lat="41.792855" lon="2.167543">
        <ele>849.6</ele>
        <time>2011-08-19T14:07:44Z</time>
      </trkpt>
      <trkpt lat="41.792905" lon="2.167514">
        <ele>850.6</ele>
        <time>2011-08-19T14:07:44Z</time>
      </trkpt>
      <trkpt lat="41.792954" lon="2.167481">
        <ele>851.6</ele>
        <time>2011-08-19T14:07:44Z</time>
      </trkpt>
      <trkpt lat="41.793010" lon="2.167466">
        <ele>852.5</ele>
        <time>2011-08-19T14:07:44Z</time>
      </trkpt>
      <trkpt lat="41.793095" lon="2.167421">
        <ele>854.2</ele>
        <time>2011-08-19T14:07:44Z</time>
      </trkpt>
      <trkpt lat="41.793196" lon="2.167419">
        <ele>855.7</ele>
        <time>2011-08-19T14:07:44Z</time>
      </trkpt>
      <trkpt lat="41.793298" lon="2.167476">
        <ele>855.5</ele>
        <time>2011-08-19T14:07:44Z</time>
      </trkpt>
      <trkpt lat="41.793366" lon="2.167522">
        <ele>855.4</ele>
        <time>2011-08-19T14:07:44Z</time>
      </trkpt>
      <trkpt lat="41.793443" lon="2.167526">
        <ele>855.8</ele>
        <time>2011-08-19T14:07:44Z</time>
      </trkpt>
      <trkpt lat="41.793495" lon="2.167483">
        <ele>856.4</ele>
        <time>2011-08-19T14:07:44Z</time>
      </trkpt>
      <trkpt lat="41.793566" lon="2.167417">
        <ele>856.9</ele>
        <time>2011-08-19T14:07:44Z</time>
      </trkpt>
      <trkpt lat="41.793620" lon="2.167383">
        <ele>857.0</ele>
        <time>2011-08-19T14:07:44Z</time>
      </trkpt>
      <trkpt lat="41.793698" lon="2.167317">
        <ele>856.8</ele>
        <time>2011-08-19T14:07:44Z</time>
      </trkpt>
      <trkpt lat="41.793775" lon="2.167295">
        <ele>856.7</ele>
        <time>2011-08-19T14:07:44Z</time>
      </trkpt>
      <trkpt lat="41.793859" lon="2.167336">
        <ele>856.7</ele>
        <time>2011-08-19T14:07:44Z</time>
      </trkpt>
      <trkpt lat="41.793962" lon="2.167381">
        <ele>856.9</ele>
        <time>2011-08-19T14:07:44Z</time>
      </trkpt>
      <trkpt lat="41.794069" lon="2.167410">
        <ele>856.8</ele>
        <time>2011-08-19T14:07:44Z</time>
      </trkpt>
      <trkpt lat="41.794146" lon="2.167447">
        <ele>856.7</ele>
        <time>2011-08-19T14:07:44Z</time>
      </trkpt>
      <trkpt lat="41.794232" lon="2.167490">
        <ele>856.6</ele>
        <time>2011-08-19T14:07:44Z</time>
      </trkpt>
      <trkpt lat="41.794321" lon="2.167542">
        <ele>856.9</ele>
        <time>2011-08-19T14:07:44Z</time>
      </trkpt>
      <trkpt lat="41.794399" lon="2.167586">
        <ele>857.5</ele>
        <time>2011-08-19T14:07:44Z</time>
      </trkpt>
      <trkpt lat="41.794471" lon="2.167624">
        <ele>858.1</ele>
        <time>2011-08-19T14:07:44Z</time>
      </trkpt>
      <trkpt lat="41.794545" lon="2.167674">
        <ele>859.0</ele>
        <time>2011-08-19T14:07:44Z</time>
      </trkpt>
      <trkpt lat="41.794625" lon="2.167729">
        <ele>860.0</ele>
        <time>2011-08-19T14:07:44Z</time>
      </trkpt>
      <trkpt lat="41.794672" lon="2.167785">
        <ele>860.6</ele>
        <time>2011-08-19T14:07:44Z</time>
      </trkpt>
      <trkpt lat="41.794713" lon="2.167860">
        <ele>861.1</ele>
        <time>2011-08-19T14:07:44Z</time>
      </trkpt>
      <trkpt lat="41.794749" lon="2.167939">
        <ele>861.7</ele>
        <time>2011-08-19T14:07:44Z</time>
      </trkpt>
      <trkpt lat="41.794787" lon="2.168020">
        <ele>862.3</ele>
        <time>2011-08-19T14:07:44Z</time>
      </trkpt>
      <trkpt lat="41.794828" lon="2.168095">
        <ele>862.9</ele>
        <time>2011-08-19T14:07:44Z</time>
      </trkpt>
      <trkpt lat="41.794903" lon="2.168215">
        <ele>863.0</ele>
        <time>2011-08-19T14:07:44Z</time>
      </trkpt>
      <trkpt lat="41.794971" lon="2.168313">
        <ele>863.1</ele>
        <time>2011-08-19T14:07:44Z</time>
      </trkpt>
      <trkpt lat="41.795045" lon="2.168422">
        <ele>863.1</ele>
        <time>2011-08-19T14:07:44Z</time>
      </trkpt>
      <trkpt lat="41.795090" lon="2.168474">
        <ele>863.1</ele>
        <time>2011-08-19T14:07:44Z</time>
      </trkpt>
      <trkpt lat="41.795154" lon="2.168572">
        <ele>862.8</ele>
        <time>2011-08-19T14:07:44Z</time>
      </trkpt>
      <trkpt lat="41.795211" lon="2.168678">
        <ele>862.5</ele>
        <time>2011-08-19T14:07:44Z</time>
      </trkpt>
      <trkpt lat="41.795273" lon="2.168751">
        <ele>862.0</ele>
        <time>2011-08-19T14:07:44Z</time>
      </trkpt>
      <trkpt lat="41.795345" lon="2.168829">
        <ele>861.4</ele>
        <time>2011-08-19T14:07:44Z</time>
      </trkpt>
      <trkpt lat="41.795431" lon="2.168861">
        <ele>860.4</ele>
        <time>2011-08-19T14:07:44Z</time>
      </trkpt>
      <trkpt lat="41.795507" lon="2.168883">
        <ele>859.3</ele>
        <time>2011-08-19T14:07:44Z</time>
      </trkpt>
      <trkpt lat="41.795588" lon="2.168915">
        <ele>858.3</ele>
        <time>2011-08-19T14:07:44Z</time>
      </trkpt>
      <trkpt lat="41.795645" lon="2.168957">
        <ele>858.0</ele>
        <time>2011-08-19T14:07:44Z</time>
      </trkpt>
      <trkpt lat="41.795715" lon="2.169015">
        <ele>858.1</ele>
        <time>2011-08-19T14:07:44Z</time>
      </trkpt>
      <trkpt lat="41.795797" lon="2.169076">
        <ele>858.3</ele>
        <time>2011-08-19T14:07:44Z</time>
      </trkpt>
      <trkpt lat="41.795903" lon="2.169142">
        <ele>858.5</ele>
        <time>2011-08-19T14:07:44Z</time>
      </trkpt>
      <trkpt lat="41.796021" lon="2.169183">
        <ele>858.6</ele>
        <time>2011-08-19T14:07:44Z</time>
      </trkpt>
      <trkpt lat="41.796124" lon="2.169190">
        <ele>858.3</ele>
        <time>2011-08-19T14:07:44Z</time>
      </trkpt>
      <trkpt lat="41.796223" lon="2.169183">
        <ele>857.9</ele>
        <time>2011-08-19T14:07:44Z</time>
      </trkpt>
      <trkpt lat="41.796295" lon="2.169216">
        <ele>857.6</ele>
        <time>2011-08-19T14:07:44Z</time>
      </trkpt>
      <trkpt lat="41.796386" lon="2.169212">
        <ele>857.2</ele>
        <time>2011-08-19T14:07:44Z</time>
      </trkpt>
      <trkpt lat="41.796485" lon="2.169185">
        <ele>857.1</ele>
        <time>2011-08-19T14:07:44Z</time>
      </trkpt>
      <trkpt lat="41.796579" lon="2.169153">
        <ele>857.8</ele>
        <time>2011-08-19T14:07:44Z</time>
      </trkpt>
      <trkpt lat="41.796665" lon="2.169152">
        <ele>858.5</ele>
        <time>2011-08-19T14:07:44Z</time>
      </trkpt>
      <trkpt lat="41.796762" lon="2.169167">
        <ele>859.1</ele>
        <time>2011-08-19T14:07:44Z</time>
      </trkpt>
      <trkpt lat="41.796868" lon="2.169166">
        <ele>859.5</ele>
        <time>2011-08-19T14:07:44Z</time>
      </trkpt>
      <trkpt lat="41.796967" lon="2.169182">
        <ele>859.6</ele>
        <time>2011-08-19T14:07:44Z</time>
      </trkpt>
      <trkpt lat="41.797097" lon="2.169177">
        <ele>859.8</ele>
        <time>2011-08-19T14:07:44Z</time>
      </trkpt>
      <trkpt lat="41.797236" lon="2.169173">
        <ele>859.8</ele>
        <time>2011-08-19T14:07:44Z</time>
      </trkpt>
      <trkpt lat="41.797329" lon="2.169163">
        <ele>860.2</ele>
        <time>2011-08-19T14:07:44Z</time>
      </trkpt>
      <trkpt lat="41.797451" lon="2.169164">
        <ele>860.6</ele>
        <time>2011-08-19T14:07:44Z</time>
      </trkpt>
      <trkpt lat="41.797550" lon="2.169191">
        <ele>860.5</ele>
        <time>2011-08-19T14:07:44Z</time>
      </trkpt>
      <trkpt lat="41.797670" lon="2.169251">
        <ele>861.2</ele>
        <time>2011-08-19T14:07:44Z</time>
      </trkpt>
      <trkpt lat="41.797793" lon="2.169329">
        <ele>862.6</ele>
        <time>2011-08-19T14:07:44Z</time>
      </trkpt>
      <trkpt lat="41.797867" lon="2.169407">
        <ele>863.7</ele>
        <time>2011-08-19T14:07:44Z</time>
      </trkpt>
      <trkpt lat="41.797904" lon="2.169516">
        <ele>863.9</ele>
        <time>2011-08-19T14:07:44Z</time>
      </trkpt>
      <trkpt lat="41.797945" lon="2.169645">
        <ele>865.3</ele>
        <time>2011-08-19T14:07:44Z</time>
      </trkpt>
      <trkpt lat="41.797971" lon="2.169757">
        <ele>866.4</ele>
        <time>2011-08-19T14:07:44Z</time>
      </trkpt>
      <trkpt lat="41.797978" lon="2.169830">
        <ele>867.0</ele>
        <time>2011-08-19T14:07:44Z</time>
      </trkpt>
      <trkpt lat="41.797977" lon="2.169959">
        <ele>867.6</ele>
        <time>2011-08-19T14:07:44Z</time>
      </trkpt>
      <trkpt lat="41.797973" lon="2.170106">
        <ele>868.3</ele>
        <time>2011-08-19T14:07:44Z</time>
      </trkpt>
      <trkpt lat="41.797974" lon="2.170232">
        <ele>869.0</ele>
        <time>2011-08-19T14:07:44Z</time>
      </trkpt>
      <trkpt lat="41.797980" lon="2.170390">
        <ele>869.6</ele>
        <time>2011-08-19T14:07:44Z</time>
      </trkpt>
      <trkpt lat="41.797997" lon="2.170519">
        <ele>870.5</ele>
        <time>2011-08-19T14:07:44Z</time>
      </trkpt>
      <trkpt lat="41.798024" lon="2.170654">
        <ele>871.4</ele>
        <time>2011-08-19T14:07:44Z</time>
      </trkpt>
      <trkpt lat="41.798065" lon="2.170788">
        <ele>872.0</ele>
        <time>2011-08-19T14:07:44Z</time>
      </trkpt>
      <trkpt lat="41.798108" lon="2.170909">
        <ele>872.5</ele>
        <time>2011-08-19T14:07:44Z</time>
      </trkpt>
      <trkpt lat="41.798159" lon="2.171035">
        <ele>872.2</ele>
        <time>2011-08-19T14:07:44Z</time>
      </trkpt>
      <trkpt lat="41.798240" lon="2.171129">
        <ele>871.7</ele>
        <time>2011-08-19T14:07:44Z</time>
      </trkpt>
      <trkpt lat="41.798354" lon="2.171181">
        <ele>871.6</ele>
        <time>2011-08-19T14:07:44Z</time>
      </trkpt>
      <trkpt lat="41.798506" lon="2.171216">
        <ele>870.8</ele>
        <time>2011-08-19T14:07:44Z</time>
      </trkpt>
      <trkpt lat="41.798661" lon="2.171191">
        <ele>871.2</ele>
        <time>2011-08-19T14:07:44Z</time>
      </trkpt>
      <trkpt lat="41.798785" lon="2.171173">
        <ele>870.8</ele>
        <time>2011-08-19T14:07:44Z</time>
      </trkpt>
      <trkpt lat="41.798890" lon="2.171126">
        <ele>871.3</ele>
        <time>2011-08-19T14:07:44Z</time>
      </trkpt>
      <trkpt lat="41.799004" lon="2.171074">
        <ele>871.1</ele>
        <time>2011-08-19T14:07:44Z</time>
      </trkpt>
      <trkpt lat="41.799085" lon="2.171031">
        <ele>871.1</ele>
        <time>2011-08-19T14:07:44Z</time>
      </trkpt>
      <trkpt lat="41.799184" lon="2.170962">
        <ele>871.5</ele>
        <time>2011-08-19T14:07:44Z</time>
      </trkpt>
      <trkpt lat="41.799255" lon="2.170888">
        <ele>871.4</ele>
        <time>2011-08-19T14:07:44Z</time>
      </trkpt>
      <trkpt lat="41.799324" lon="2.170806">
        <ele>871.5</ele>
        <time>2011-08-19T14:07:44Z</time>
      </trkpt>
      <trkpt lat="41.799365" lon="2.170724">
        <ele>872.0</ele>
        <time>2011-08-19T14:07:44Z</time>
      </trkpt>
      <trkpt lat="41.799400" lon="2.170588">
        <ele>873.6</ele>
        <time>2011-08-19T14:07:44Z</time>
      </trkpt>
      <trkpt lat="41.799452" lon="2.170475">
        <ele>873.5</ele>
        <time>2011-08-19T14:07:44Z</time>
      </trkpt>
      <trkpt lat="41.799510" lon="2.170367">
        <ele>873.6</ele>
        <time>2011-08-19T14:07:44Z</time>
      </trkpt>
      <trkpt lat="41.799575" lon="2.170282">
        <ele>873.8</ele>
        <time>2011-08-19T14:07:44Z</time>
      </trkpt>
      <trkpt lat="41.799644" lon="2.170205">
        <ele>874.3</ele>
        <time>2011-08-19T14:07:44Z</time>
      </trkpt>
      <trkpt lat="41.799746" lon="2.170128">
        <ele>874.1</ele>
        <time>2011-08-19T14:07:44Z</time>
      </trkpt>
      <trkpt lat="41.799881" lon="2.170073">
        <ele>873.9</ele>
        <time>2011-08-19T14:07:44Z</time>
      </trkpt>
      <trkpt lat="41.800030" lon="2.170054">
        <ele>873.8</ele>
        <time>2011-08-19T14:07:44Z</time>
      </trkpt>
      <trkpt lat="41.800154" lon="2.170061">
        <ele>873.9</ele>
        <time>2011-08-19T14:07:44Z</time>
      </trkpt>
      <trkpt lat="41.800285" lon="2.170068">
        <ele>874.1</ele>
        <time>2011-08-19T14:07:44Z</time>
      </trkpt>
      <trkpt lat="41.800375" lon="2.170072">
        <ele>874.3</ele>
        <time>2011-08-19T14:07:44Z</time>
      </trkpt>
      <trkpt lat="41.800487" lon="2.170093">
        <ele>874.4</ele>
        <time>2011-08-19T14:07:44Z</time>
      </trkpt>
      <trkpt lat="41.800629" lon="2.170125">
        <ele>874.8</ele>
        <time>2011-08-19T14:07:44Z</time>
      </trkpt>
      <trkpt lat="41.800745" lon="2.170174">
        <ele>875.0</ele>
        <time>2011-08-19T14:07:44Z</time>
      </trkpt>
      <trkpt lat="41.800859" lon="2.170218">
        <ele>875.4</ele>
        <time>2011-08-19T14:07:44Z</time>
      </trkpt>
      <trkpt lat="41.800960" lon="2.170270">
        <ele>875.6</ele>
        <time>2011-08-19T14:07:44Z</time>
      </trkpt>
      <trkpt lat="41.801079" lon="2.170333">
        <ele>875.9</ele>
        <time>2011-08-19T14:07:44Z</time>
      </trkpt>
      <trkpt lat="41.801186" lon="2.170379">
        <ele>876.5</ele>
        <time>2011-08-19T14:07:44Z</time>
      </trkpt>
      <trkpt lat="41.801288" lon="2.170429">
        <ele>877.1</ele>
        <time>2011-08-19T14:07:44Z</time>
      </trkpt>
      <trkpt lat="41.801381" lon="2.170498">
        <ele>877.4</ele>
        <time>2011-08-19T14:07:44Z</time>
      </trkpt>
      <trkpt lat="41.801481" lon="2.170598">
        <ele>878.1</ele>
        <time>2011-08-19T14:07:44Z</time>
      </trkpt>
      <trkpt lat="41.801578" lon="2.170692">
        <ele>879.5</ele>
        <time>2011-08-19T14:07:44Z</time>
      </trkpt>
      <trkpt lat="41.801667" lon="2.170809">
        <ele>880.6</ele>
        <time>2011-08-19T14:07:44Z</time>
      </trkpt>
      <trkpt lat="41.801761" lon="2.170915">
        <ele>881.7</ele>
        <time>2011-08-19T14:07:44Z</time>
      </trkpt>
      <trkpt lat="41.801829" lon="2.171007">
        <ele>882.5</ele>
        <time>2011-08-19T14:07:44Z</time>
      </trkpt>
      <trkpt lat="41.801893" lon="2.171108">
        <ele>883.1</ele>
        <time>2011-08-19T14:07:44Z</time>
      </trkpt>
      <trkpt lat="41.801976" lon="2.171216">
        <ele>883.7</ele>
        <time>2011-08-19T14:07:44Z</time>
      </trkpt>
      <trkpt lat="41.802046" lon="2.171322">
        <ele>883.9</ele>
        <time>2011-08-19T14:07:44Z</time>
      </trkpt>
      <trkpt lat="41.802137" lon="2.171417">
        <ele>884.0</ele>
        <time>2011-08-19T14:07:44Z</time>
      </trkpt>
      <trkpt lat="41.802238" lon="2.171483">
        <ele>884.3</ele>
        <time>2011-08-19T14:07:44Z</time>
      </trkpt>
      <trkpt lat="41.802372" lon="2.171552">
        <ele>884.8</ele>
        <time>2011-08-19T14:07:44Z</time>
      </trkpt>
      <trkpt lat="41.802475" lon="2.171601">
        <ele>885.2</ele>
        <time>2011-08-19T14:07:44Z</time>
      </trkpt>
      <trkpt lat="41.802579" lon="2.171647">
        <ele>885.3</ele>
        <time>2011-08-19T14:07:44Z</time>
      </trkpt>
      <trkpt lat="41.802703" lon="2.171708">
        <ele>885.1</ele>
        <time>2011-08-19T14:07:44Z</time>
      </trkpt>
      <trkpt lat="41.802820" lon="2.171785">
        <ele>884.8</ele>
        <time>2011-08-19T14:07:44Z</time>
      </trkpt>
      <trkpt lat="41.802942" lon="2.171868">
        <ele>885.1</ele>
        <time>2011-08-19T14:07:44Z</time>
      </trkpt>
      <trkpt lat="41.803040" lon="2.171965">
        <ele>885.3</ele>
        <time>2011-08-19T14:07:44Z</time>
      </trkpt>
      <trkpt lat="41.803118" lon="2.172068">
        <ele>885.0</ele>
        <time>2011-08-19T14:07:44Z</time>
      </trkpt>
      <trkpt lat="41.803214" lon="2.172182">
        <ele>885.2</ele>
        <time>2011-08-19T14:07:44Z</time>
      </trkpt>
      <trkpt lat="41.803278" lon="2.172271">
        <ele>885.3</ele>
        <time>2011-08-19T14:07:44Z</time>
      </trkpt>
      <trkpt lat="41.803344" lon="2.172361">
        <ele>885.2</ele>
        <time>2011-08-19T14:07:44Z</time>
      </trkpt>
      <trkpt lat="41.803442" lon="2.172486">
        <ele>885.4</ele>
        <time>2011-08-19T14:07:44Z</time>
      </trkpt>
      <trkpt lat="41.803527" lon="2.172595">
        <ele>886.0</ele>
        <time>2011-08-19T14:07:44Z</time>
      </trkpt>
      <trkpt lat="41.803614" lon="2.172703">
        <ele>886.7</ele>
        <time>2011-08-19T14:07:44Z</time>
      </trkpt>
      <trkpt lat="41.803694" lon="2.172798">
        <ele>887.4</ele>
        <time>2011-08-19T14:07:44Z</time>
      </trkpt>
      <trkpt lat="41.803758" lon="2.172896">
        <ele>888.2</ele>
        <time>2011-08-19T14:07:44Z</time>
      </trkpt>
      <trkpt lat="41.803828" lon="2.173002">
        <ele>889.1</ele>
        <time>2011-08-19T14:07:44Z</time>
      </trkpt>
      <trkpt lat="41.803895" lon="2.173116">
        <ele>889.7</ele>
        <time>2011-08-19T14:07:44Z</time>
      </trkpt>
      <trkpt lat="41.803942" lon="2.173239">
        <ele>890.2</ele>
        <time>2011-08-19T14:07:44Z</time>
      </trkpt>
      <trkpt lat="41.803979" lon="2.173374">
        <ele>890.7</ele>
        <time>2011-08-19T14:07:44Z</time>
      </trkpt>
      <trkpt lat="41.804005" lon="2.173500">
        <ele>890.8</ele>
        <time>2011-08-19T14:07:44Z</time>
      </trkpt>
      <trkpt lat="41.804061" lon="2.173649">
        <ele>891.3</ele>
        <time>2011-08-19T14:07:44Z</time>
      </trkpt>
      <trkpt lat="41.804120" lon="2.173732">
        <ele>891.5</ele>
        <time>2011-08-19T14:07:44Z</time>
      </trkpt>
      <trkpt lat="41.804209" lon="2.173835">
        <ele>891.7</ele>
        <time>2011-08-19T14:07:44Z</time>
      </trkpt>
      <trkpt lat="41.804288" lon="2.173950">
        <ele>892.0</ele>
        <time>2011-08-19T14:07:44Z</time>
      </trkpt>
      <trkpt lat="41.804354" lon="2.174042">
        <ele>892.4</ele>
        <time>2011-08-19T14:07:44Z</time>
      </trkpt>
      <trkpt lat="41.804431" lon="2.174151">
        <ele>892.9</ele>
        <time>2011-08-19T14:07:44Z</time>
      </trkpt>
      <trkpt lat="41.804535" lon="2.174324">
        <ele>893.5</ele>
        <time>2011-08-19T14:07:44Z</time>
      </trkpt>
      <trkpt lat="41.804643" lon="2.174457">
        <ele>894.4</ele>
        <time>2011-08-19T14:07:44Z</time>
      </trkpt>
      <trkpt lat="41.804726" lon="2.174560">
        <ele>895.1</ele>
        <time>2011-08-19T14:07:44Z</time>
      </trkpt>
      <trkpt lat="41.804792" lon="2.174644">
        <ele>895.6</ele>
        <time>2011-08-19T14:07:44Z</time>
      </trkpt>
      <trkpt lat="41.804866" lon="2.174702">
        <ele>896.2</ele>
        <time>2011-08-19T14:07:44Z</time>
      </trkpt>
      <trkpt lat="41.804962" lon="2.174791">
        <ele>896.6</ele>
        <time>2011-08-19T14:07:44Z</time>
      </trkpt>
      <trkpt lat="41.805038" lon="2.174857">
        <ele>897.1</ele>
        <time>2011-08-19T14:07:44Z</time>
      </trkpt>
      <trkpt lat="41.805102" lon="2.174975">
        <ele>897.6</ele>
        <time>2011-08-19T14:07:44Z</time>
      </trkpt>
      <trkpt lat="41.805168" lon="2.175123">
        <ele>898.0</ele>
        <time>2011-08-19T14:07:44Z</time>
      </trkpt>
      <trkpt lat="41.805222" lon="2.175235">
        <ele>898.1</ele>
        <time>2011-08-19T14:07:44Z</time>
      </trkpt>
      <trkpt lat="41.805292" lon="2.175364">
        <ele>898.7</ele>
        <time>2011-08-19T14:07:44Z</time>
      </trkpt>
      <trkpt lat="41.805354" lon="2.175501">
        <ele>899.4</ele>
        <time>2011-08-19T14:07:44Z</time>
      </trkpt>
      <trkpt lat="41.805423" lon="2.175655">
        <ele>900.2</ele>
        <time>2011-08-19T14:07:44Z</time>
      </trkpt>
      <trkpt lat="41.805482" lon="2.175766">
        <ele>899.9</ele>
        <time>2011-08-19T14:07:44Z</time>
      </trkpt>
      <trkpt lat="41.805548" lon="2.175903">
        <ele>899.6</ele>
        <time>2011-08-19T14:07:44Z</time>
      </trkpt>
      <trkpt lat="41.805656" lon="2.175970">
        <ele>898.9</ele>
        <time>2011-08-19T14:07:44Z</time>
      </trkpt>
      <trkpt lat="41.805726" lon="2.176016">
        <ele>898.3</ele>
        <time>2011-08-19T14:07:44Z</time>
      </trkpt>
      <trkpt lat="41.805802" lon="2.176086">
        <ele>897.3</ele>
        <time>2011-08-19T14:07:44Z</time>
      </trkpt>
      <trkpt lat="41.805877" lon="2.176197">
        <ele>897.3</ele>
        <time>2011-08-19T14:07:44Z</time>
      </trkpt>
      <trkpt lat="41.805966" lon="2.176295">
        <ele>897.3</ele>
        <time>2011-08-19T14:07:44Z</time>
      </trkpt>
      <trkpt lat="41.806042" lon="2.176353">
        <ele>897.1</ele>
        <time>2011-08-19T14:07:44Z</time>
      </trkpt>
      <trkpt lat="41.806156" lon="2.176382">
        <ele>896.5</ele>
        <time>2011-08-19T14:07:44Z</time>
      </trkpt>
      <trkpt lat="41.806274" lon="2.176386">
        <ele>895.7</ele>
        <time>2011-08-19T14:07:44Z</time>
      </trkpt>
      <trkpt lat="41.806390" lon="2.176402">
        <ele>895.1</ele>
        <time>2011-08-19T14:07:44Z</time>
      </trkpt>
      <trkpt lat="41.806476" lon="2.176423">
        <ele>894.8</ele>
        <time>2011-08-19T14:07:44Z</time>
      </trkpt>
      <trkpt lat="41.806563" lon="2.176467">
        <ele>894.4</ele>
        <time>2011-08-19T14:07:44Z</time>
      </trkpt>
      <trkpt lat="41.806650" lon="2.176528">
        <ele>893.7</ele>
        <time>2011-08-19T14:07:44Z</time>
      </trkpt>
      <trkpt lat="41.806730" lon="2.176606">
        <ele>893.6</ele>
        <time>2011-08-19T14:07:44Z</time>
      </trkpt>
      <trkpt lat="41.806826" lon="2.176681">
        <ele>893.1</ele>
        <time>2011-08-19T14:07:44Z</time>
      </trkpt>
      <trkpt lat="41.806914" lon="2.176719">
        <ele>891.6</ele>
        <time>2011-08-19T14:07:44Z</time>
      </trkpt>
      <trkpt lat="41.807026" lon="2.176785">
        <ele>890.3</ele>
        <time>2011-08-19T14:07:44Z</time>
      </trkpt>
      <trkpt lat="41.807113" lon="2.176857">
        <ele>890.3</ele>
        <time>2011-08-19T14:07:44Z</time>
      </trkpt>
      <trkpt lat="41.807245" lon="2.176943">
        <ele>890.3</ele>
        <time>2011-08-19T14:07:44Z</time>
      </trkpt>
      <trkpt lat="41.807357" lon="2.177006">
        <ele>890.2</ele>
        <time>2011-08-19T14:07:44Z</time>
      </trkpt>
      <trkpt lat="41.807481" lon="2.177072">
        <ele>889.6</ele>
        <time>2011-08-19T14:07:44Z</time>
      </trkpt>
      <trkpt lat="41.807579" lon="2.177121">
        <ele>889.3</ele>
        <time>2011-08-19T14:07:44Z</time>
      </trkpt>
      <trkpt lat="41.807673" lon="2.177154">
        <ele>888.7</ele>
        <time>2011-08-19T14:07:44Z</time>
      </trkpt>
      <trkpt lat="41.807766" lon="2.177192">
        <ele>888.5</ele>
        <time>2011-08-19T14:07:44Z</time>
      </trkpt>
      <trkpt lat="41.807836" lon="2.177214">
        <ele>888.2</ele>
        <time>2011-08-19T14:07:44Z</time>
      </trkpt>
      <trkpt lat="41.807912" lon="2.177232">
        <ele>887.8</ele>
        <time>2011-08-19T14:07:44Z</time>
      </trkpt>
      <trkpt lat="41.808003" lon="2.177265">
        <ele>888.0</ele>
        <time>2011-08-19T14:07:44Z</time>
      </trkpt>
      <trkpt lat="41.808129" lon="2.177297">
        <ele>887.8</ele>
        <time>2011-08-19T14:07:44Z</time>
      </trkpt>
      <trkpt lat="41.808237" lon="2.177307">
        <ele>887.4</ele>
        <time>2011-08-19T14:07:44Z</time>
      </trkpt>
      <trkpt lat="41.808357" lon="2.177328">
        <ele>887.4</ele>
        <time>2011-08-19T14:07:44Z</time>
      </trkpt>
      <trkpt lat="41.808428" lon="2.177324">
        <ele>886.8</ele>
        <time>2011-08-19T14:07:44Z</time>
      </trkpt>
      <trkpt lat="41.808528" lon="2.177331">
        <ele>886.8</ele>
        <time>2011-08-19T14:07:44Z</time>
      </trkpt>
      <trkpt lat="41.808652" lon="2.177338">
        <ele>886.6</ele>
        <time>2011-08-19T14:07:44Z</time>
      </trkpt>
      <trkpt lat="41.808757" lon="2.177359">
        <ele>885.7</ele>
        <time>2011-08-19T14:07:44Z</time>
      </trkpt>
      <trkpt lat="41.808877" lon="2.177392">
        <ele>884.4</ele>
        <time>2011-08-19T14:07:44Z</time>
      </trkpt>
      <trkpt lat="41.809008" lon="2.177449">
        <ele>883.2</ele>
        <time>2011-08-19T14:07:44Z</time>
      </trkpt>
      <trkpt lat="41.809087" lon="2.177524">
        <ele>883.6</ele>
        <time>2011-08-19T14:07:44Z</time>
      </trkpt>
      <trkpt lat="41.809161" lon="2.177579">
        <ele>883.3</ele>
        <time>2011-08-19T14:07:44Z</time>
      </trkpt>
      <trkpt lat="41.809237" lon="2.177626">
        <ele>882.6</ele>
        <time>2011-08-19T14:07:44Z</time>
      </trkpt>
      <trkpt lat="41.809326" lon="2.177687">
        <ele>881.7</ele>
        <time>2011-08-19T14:07:44Z</time>
      </trkpt>
      <trkpt lat="41.809438" lon="2.177773">
        <ele>880.8</ele>
        <time>2011-08-19T14:07:44Z</time>
      </trkpt>
      <trkpt lat="41.809552" lon="2.177853">
        <ele>880.0</ele>
        <time>2011-08-19T14:07:44Z</time>
      </trkpt>
      <trkpt lat="41.809635" lon="2.177917">
        <ele>879.5</ele>
        <time>2011-08-19T14:07:44Z</time>
      </trkpt>
      <trkpt lat="41.809720" lon="2.177991">
        <ele>879.3</ele>
        <time>2011-08-19T14:07:44Z</time>
      </trkpt>
      <trkpt lat="41.809802" lon="2.178055">
        <ele>878.7</ele>
        <time>2011-08-19T14:07:44Z</time>
      </trkpt>
      <trkpt lat="41.809914" lon="2.178127">
        <ele>877.5</ele>
        <time>2011-08-19T14:07:44Z</time>
      </trkpt>
      <trkpt lat="41.810001" lon="2.178185">
        <ele>876.5</ele>
        <time>2011-08-19T14:07:44Z</time>
      </trkpt>
      <trkpt lat="41.810048" lon="2.178269">
        <ele>877.7</ele>
        <time>2011-08-19T14:07:44Z</time>
      </trkpt>
      <trkpt lat="41.810089" lon="2.178350">
        <ele>878.8</ele>
        <time>2011-08-19T14:07:44Z</time>
      </trkpt>
      <trkpt lat="41.810131" lon="2.178448">
        <ele>879.9</ele>
        <time>2011-08-19T14:07:44Z</time>
      </trkpt>
      <trkpt lat="41.810170" lon="2.178574">
        <ele>881.5</ele>
        <time>2011-08-19T14:07:44Z</time>
      </trkpt>
      <trkpt lat="41.810207" lon="2.178675">
        <ele>882.4</ele>
        <time>2011-08-19T14:07:44Z</time>
      </trkpt>
      <trkpt lat="41.810239" lon="2.178756">
        <ele>882.8</ele>
        <time>2011-08-19T14:07:44Z</time>
      </trkpt>
      <trkpt lat="41.810288" lon="2.178871">
        <ele>882.6</ele>
        <time>2011-08-19T14:07:44Z</time>
      </trkpt>
      <trkpt lat="41.810356" lon="2.178943">
        <ele>882.1</ele>
        <time>2011-08-19T14:07:44Z</time>
      </trkpt>
      <trkpt lat="41.810443" lon="2.178973">
        <ele>881.3</ele>
        <time>2011-08-19T14:07:44Z</time>
      </trkpt>
      <trkpt lat="41.810574" lon="2.179036">
        <ele>881.1</ele>
        <time>2011-08-19T14:07:44Z</time>
      </trkpt>
      <trkpt lat="41.810698" lon="2.179088">
        <ele>880.9</ele>
        <time>2011-08-19T14:07:44Z</time>
      </trkpt>
      <trkpt lat="41.810793" lon="2.179134">
        <ele>880.9</ele>
        <time>2011-08-19T14:07:44Z</time>
      </trkpt>
      <trkpt lat="41.810886" lon="2.179167">
        <ele>880.6</ele>
        <time>2011-08-19T14:07:44Z</time>
      </trkpt>
      <trkpt lat="41.810977" lon="2.179197">
        <ele>880.3</ele>
        <time>2011-08-19T14:07:44Z</time>
      </trkpt>
      <trkpt lat="41.811072" lon="2.179227">
        <ele>880.0</ele>
        <time>2011-08-19T14:07:44Z</time>
      </trkpt>
      <trkpt lat="41.811173" lon="2.179270">
        <ele>880.6</ele>
        <time>2011-08-19T14:07:44Z</time>
      </trkpt>
      <trkpt lat="41.811260" lon="2.179292">
        <ele>881.0</ele>
        <time>2011-08-19T14:07:44Z</time>
      </trkpt>
      <trkpt lat="41.811340" lon="2.179293">
        <ele>880.8</ele>
        <time>2011-08-19T14:07:44Z</time>
      </trkpt>
      <trkpt lat="41.811409" lon="2.179273">
        <ele>879.9</ele>
        <time>2011-08-19T14:07:44Z</time>
      </trkpt>
      <trkpt lat="41.811480" lon="2.179266">
        <ele>879.7</ele>
        <time>2011-08-19T14:07:44Z</time>
      </trkpt>
      <trkpt lat="41.811537" lon="2.179260">
        <ele>879.5</ele>
        <time>2011-08-19T14:07:44Z</time>
      </trkpt>
      <trkpt lat="41.811613" lon="2.179256">
        <ele>879.4</ele>
        <time>2011-08-19T14:07:44Z</time>
      </trkpt>
      <trkpt lat="41.811714" lon="2.179252">
        <ele>879.3</ele>
        <time>2011-08-19T14:07:44Z</time>
      </trkpt>
      <trkpt lat="41.811813" lon="2.179265">
        <ele>879.8</ele>
        <time>2011-08-19T14:07:44Z</time>
      </trkpt>
      <trkpt lat="41.811908" lon="2.179278">
        <ele>880.3</ele>
        <time>2011-08-19T14:07:44Z</time>
      </trkpt>
      <trkpt lat="41.812013" lon="2.179290">
        <ele>880.3</ele>
        <time>2011-08-19T14:07:44Z</time>
      </trkpt>
      <trkpt lat="41.812110" lon="2.179317">
        <ele>880.5</ele>
        <time>2011-08-19T14:07:44Z</time>
      </trkpt>
      <trkpt lat="41.812212" lon="2.179350">
        <ele>880.6</ele>
        <time>2011-08-19T14:07:44Z</time>
      </trkpt>
      <trkpt lat="41.812341" lon="2.179407">
        <ele>880.9</ele>
        <time>2011-08-19T14:07:44Z</time>
      </trkpt>
      <trkpt lat="41.812461" lon="2.179437">
        <ele>880.2</ele>
        <time>2011-08-19T14:07:44Z</time>
      </trkpt>
      <trkpt lat="41.812604" lon="2.179424">
        <ele>880.3</ele>
        <time>2011-08-19T14:07:44Z</time>
      </trkpt>
      <trkpt lat="41.812711" lon="2.179391">
        <ele>880.4</ele>
        <time>2011-08-19T14:07:44Z</time>
      </trkpt>
      <trkpt lat="41.812793" lon="2.179388">
        <ele>880.9</ele>
        <time>2011-08-19T14:07:44Z</time>
      </trkpt>
      <trkpt lat="41.812892" lon="2.179372">
        <ele>881.5</ele>
        <time>2011-08-19T14:07:44Z</time>
      </trkpt>
      <trkpt lat="41.812972" lon="2.179366">
        <ele>882.0</ele>
        <time>2011-08-19T14:07:44Z</time>
      </trkpt>
      <trkpt lat="41.813121" lon="2.179375">
        <ele>882.7</ele>
        <time>2011-08-19T14:07:44Z</time>
      </trkpt>
      <trkpt lat="41.813229" lon="2.179376">
        <ele>882.9</ele>
        <time>2011-08-19T14:07:44Z</time>
      </trkpt>
      <trkpt lat="41.813337" lon="2.179417">
        <ele>883.0</ele>
        <time>2011-08-19T14:07:44Z</time>
      </trkpt>
      <trkpt lat="41.813453" lon="2.179452">
        <ele>883.4</ele>
        <time>2011-08-19T14:07:44Z</time>
      </trkpt>
      <trkpt lat="41.813558" lon="2.179502">
        <ele>884.2</ele>
        <time>2011-08-19T14:07:44Z</time>
      </trkpt>
      <trkpt lat="41.813655" lon="2.179551">
        <ele>885.4</ele>
        <time>2011-08-19T14:07:44Z</time>
      </trkpt>
      <trkpt lat="41.813757" lon="2.179586">
        <ele>886.1</ele>
        <time>2011-08-19T14:07:44Z</time>
      </trkpt>
      <trkpt lat="41.813852" lon="2.179588">
        <ele>886.4</ele>
        <time>2011-08-19T14:07:44Z</time>
      </trkpt>
      <trkpt lat="41.813942" lon="2.179533">
        <ele>886.2</ele>
        <time>2011-08-19T14:07:44Z</time>
      </trkpt>
      <trkpt lat="41.813996" lon="2.179445">
        <ele>886.2</ele>
        <time>2011-08-19T14:07:44Z</time>
      </trkpt>
      <trkpt lat="41.814054" lon="2.179394">
        <ele>887.1</ele>
        <time>2011-08-19T14:07:44Z</time>
      </trkpt>
      <trkpt lat="41.814118" lon="2.179404">
        <ele>887.4</ele>
        <time>2011-08-19T14:07:44Z</time>
      </trkpt>
      <trkpt lat="41.814198" lon="2.179431">
        <ele>887.7</ele>
        <time>2011-08-19T14:07:44Z</time>
      </trkpt>
      <trkpt lat="41.814267" lon="2.179439">
        <ele>888.2</ele>
        <time>2011-08-19T14:07:44Z</time>
      </trkpt>
      <trkpt lat="41.814351" lon="2.179427">
        <ele>888.8</ele>
        <time>2011-08-19T14:07:44Z</time>
      </trkpt>
      <trkpt lat="41.814457" lon="2.179431">
        <ele>889.3</ele>
        <time>2011-08-19T14:07:44Z</time>
      </trkpt>
      <trkpt lat="41.814534" lon="2.179413">
        <ele>889.7</ele>
        <time>2011-08-19T14:07:44Z</time>
      </trkpt>
      <trkpt lat="41.814610" lon="2.179384">
        <ele>890.6</ele>
        <time>2011-08-19T14:07:44Z</time>
      </trkpt>
      <trkpt lat="41.814711" lon="2.179335">
        <ele>892.4</ele>
        <time>2011-08-19T14:07:44Z</time>
      </trkpt>
      <trkpt lat="41.814797" lon="2.179278">
        <ele>894.3</ele>
        <time>2011-08-19T14:07:44Z</time>
      </trkpt>
      <trkpt lat="41.814874" lon="2.179231">
        <ele>895.7</ele>
        <time>2011-08-19T14:07:44Z</time>
      </trkpt>
      <trkpt lat="41.814975" lon="2.179182">
        <ele>897.1</ele>
        <time>2011-08-19T14:07:44Z</time>
      </trkpt>
      <trkpt lat="41.815089" lon="2.179158">
        <ele>898.0</ele>
        <time>2011-08-19T14:07:44Z</time>
      </trkpt>
      <trkpt lat="41.815208" lon="2.179117">
        <ele>899.1</ele>
        <time>2011-08-19T14:07:44Z</time>
      </trkpt>
      <trkpt lat="41.815299" lon="2.179083">
        <ele>899.9</ele>
        <time>2011-08-19T14:07:44Z</time>
      </trkpt>
      <trkpt lat="41.815389" lon="2.179042">
        <ele>900.8</ele>
        <time>2011-08-19T14:07:44Z</time>
      </trkpt>
      <trkpt lat="41.815458" lon="2.178996">
        <ele>901.8</ele>
        <time>2011-08-19T14:07:44Z</time>
      </trkpt>
      <trkpt lat="41.815514" lon="2.178939">
        <ele>903.0</ele>
        <time>2011-08-19T14:07:44Z</time>
      </trkpt>
      <trkpt lat="41.815594" lon="2.178879">
        <ele>904.2</ele>
        <time>2011-08-19T14:07:44Z</time>
      </trkpt>
      <trkpt lat="41.815667" lon="2.178836">
        <ele>905.2</ele>
        <time>2011-08-19T14:07:44Z</time>
      </trkpt>
      <trkpt lat="41.815755" lon="2.178795">
        <ele>906.1</ele>
        <time>2011-08-19T14:07:44Z</time>
      </trkpt>
      <trkpt lat="41.815858" lon="2.178774">
        <ele>906.5</ele>
        <time>2011-08-19T14:07:44Z</time>
      </trkpt>
      <trkpt lat="41.815976" lon="2.178719">
        <ele>907.4</ele>
        <time>2011-08-19T14:07:44Z</time>
      </trkpt>
      <trkpt lat="41.816058" lon="2.178673">
        <ele>908.5</ele>
        <time>2011-08-19T14:07:44Z</time>
      </trkpt>
      <trkpt lat="41.816148" lon="2.178624">
        <ele>909.6</ele>
        <time>2011-08-19T14:07:44Z</time>
      </trkpt>
      <trkpt lat="41.816236" lon="2.178595">
        <ele>910.3</ele>
        <time>2011-08-19T14:07:44Z</time>
      </trkpt>
      <trkpt lat="41.816337" lon="2.178588">
        <ele>910.4</ele>
        <time>2011-08-19T14:07:44Z</time>
      </trkpt>
      <trkpt lat="41.816421" lon="2.178547">
        <ele>910.5</ele>
        <time>2011-08-19T14:07:44Z</time>
      </trkpt>
      <trkpt lat="41.816553" lon="2.178481">
        <ele>910.5</ele>
        <time>2011-08-19T14:07:44Z</time>
      </trkpt>
      <trkpt lat="41.816631" lon="2.178438">
        <ele>910.6</ele>
        <time>2011-08-19T14:07:44Z</time>
      </trkpt>
      <trkpt lat="41.816732" lon="2.178386">
        <ele>910.8</ele>
        <time>2011-08-19T14:07:44Z</time>
      </trkpt>
      <trkpt lat="41.816792" lon="2.178343">
        <ele>910.9</ele>
        <time>2011-08-19T14:07:44Z</time>
      </trkpt>
      <trkpt lat="41.816845" lon="2.178314">
        <ele>911.7</ele>
        <time>2011-08-19T14:07:44Z</time>
      </trkpt>
      <trkpt lat="41.816889" lon="2.178283">
        <ele>912.2</ele>
        <time>2011-08-19T14:07:44Z</time>
      </trkpt>
      <trkpt lat="41.816960" lon="2.178228">
        <ele>912.8</ele>
        <time>2011-08-19T14:07:44Z</time>
      </trkpt>
      <trkpt lat="41.817010" lon="2.178160">
        <ele>912.8</ele>
        <time>2011-08-19T14:07:44Z</time>
      </trkpt>
      <trkpt lat="41.817060" lon="2.178081">
        <ele>912.5</ele>
        <time>2011-08-19T14:07:44Z</time>
      </trkpt>
      <trkpt lat="41.817127" lon="2.178001">
        <ele>912.8</ele>
        <time>2011-08-19T14:07:44Z</time>
      </trkpt>
      <trkpt lat="41.817206" lon="2.177921">
        <ele>913.3</ele>
        <time>2011-08-19T14:07:44Z</time>
      </trkpt>
      <trkpt lat="41.817277" lon="2.177847">
        <ele>912.9</ele>
        <time>2011-08-19T14:07:44Z</time>
      </trkpt>
      <trkpt lat="41.817344" lon="2.177767">
        <ele>911.9</ele>
        <time>2011-08-19T14:07:44Z</time>
      </trkpt>
      <trkpt lat="41.817426" lon="2.177721">
        <ele>911.3</ele>
        <time>2011-08-19T14:07:44Z</time>
      </trkpt>
      <trkpt lat="41.817558" lon="2.177672">
        <ele>910.8</ele>
        <time>2011-08-19T14:07:44Z</time>
      </trkpt>
      <trkpt lat="41.817667" lon="2.177631">
        <ele>910.5</ele>
        <time>2011-08-19T14:07:44Z</time>
      </trkpt>
      <trkpt lat="41.817734" lon="2.177588">
        <ele>910.0</ele>
        <time>2011-08-19T14:07:44Z</time>
      </trkpt>
      <trkpt lat="41.817825" lon="2.177545">
        <ele>910.0</ele>
        <time>2011-08-19T14:07:44Z</time>
      </trkpt>
      <trkpt lat="41.817892" lon="2.177499">
        <ele>909.7</ele>
        <time>2011-08-19T14:07:44Z</time>
      </trkpt>
      <trkpt lat="41.817954" lon="2.177444">
        <ele>909.0</ele>
        <time>2011-08-19T14:07:44Z</time>
      </trkpt>
      <trkpt lat="41.818024" lon="2.177412">
        <ele>908.8</ele>
        <time>2011-08-19T14:07:44Z</time>
      </trkpt>
      <trkpt lat="41.818085" lon="2.177378">
        <ele>908.4</ele>
        <time>2011-08-19T14:07:44Z</time>
      </trkpt>
      <trkpt lat="41.818152" lon="2.177360">
        <ele>908.3</ele>
        <time>2011-08-19T14:07:44Z</time>
      </trkpt>
      <trkpt lat="41.818221" lon="2.177362">
        <ele>908.3</ele>
        <time>2011-08-19T14:07:44Z</time>
      </trkpt>
      <trkpt lat="41.818308" lon="2.177370">
        <ele>908.3</ele>
        <time>2011-08-19T14:07:44Z</time>
      </trkpt>
      <trkpt lat="41.818426" lon="2.177388">
        <ele>908.6</ele>
        <time>2011-08-19T14:07:44Z</time>
      </trkpt>
      <trkpt lat="41.818516" lon="2.177395">
        <ele>908.2</ele>
        <time>2011-08-19T14:07:44Z</time>
      </trkpt>
      <trkpt lat="41.818647" lon="2.177419">
        <ele>908.0</ele>
        <time>2011-08-19T14:07:44Z</time>
      </trkpt>
      <trkpt lat="41.818742" lon="2.177443">
        <ele>907.8</ele>
        <time>2011-08-19T14:07:44Z</time>
      </trkpt>
      <trkpt lat="41.818845" lon="2.177495">
        <ele>907.9</ele>
        <time>2011-08-19T14:07:44Z</time>
      </trkpt>
      <trkpt lat="41.818959" lon="2.177519">
        <ele>907.1</ele>
        <time>2011-08-19T14:07:44Z</time>
      </trkpt>
      <trkpt lat="41.819046" lon="2.177529">
        <ele>906.7</ele>
        <time>2011-08-19T14:07:44Z</time>
      </trkpt>
      <trkpt lat="41.819155" lon="2.177553">
        <ele>906.5</ele>
        <time>2011-08-19T14:07:44Z</time>
      </trkpt>
      <trkpt lat="41.819259" lon="2.177582">
        <ele>906.3</ele>
        <time>2011-08-19T14:07:44Z</time>
      </trkpt>
      <trkpt lat="41.819341" lon="2.177598">
        <ele>905.8</ele>
        <time>2011-08-19T14:07:44Z</time>
      </trkpt>
      <trkpt lat="41.819444" lon="2.177611">
        <ele>905.0</ele>
        <time>2011-08-19T14:07:44Z</time>
      </trkpt>
      <trkpt lat="41.819543" lon="2.177604">
        <ele>904.5</ele>
        <time>2011-08-19T14:07:44Z</time>
      </trkpt>
      <trkpt lat="41.819625" lon="2.177583">
        <ele>904.4</ele>
        <time>2011-08-19T14:07:44Z</time>
      </trkpt>
      <trkpt lat="41.819694" lon="2.177557">
        <ele>904.0</ele>
        <time>2011-08-19T14:07:44Z</time>
      </trkpt>
      <trkpt lat="41.819761" lon="2.177523">
        <ele>903.5</ele>
        <time>2011-08-19T14:07:44Z</time>
      </trkpt>
      <trkpt lat="41.819829" lon="2.177496">
        <ele>903.4</ele>
        <time>2011-08-19T14:07:44Z</time>
      </trkpt>
      <trkpt lat="41.819925" lon="2.177487">
        <ele>903.8</ele>
        <time>2011-08-19T14:07:44Z</time>
      </trkpt>
      <trkpt lat="41.820026" lon="2.177466">
        <ele>903.9</ele>
        <time>2011-08-19T14:07:44Z</time>
      </trkpt>
      <trkpt lat="41.820112" lon="2.177428">
        <ele>902.9</ele>
        <time>2011-08-19T14:07:44Z</time>
      </trkpt>
      <trkpt lat="41.820215" lon="2.177376">
        <ele>901.5</ele>
        <time>2011-08-19T14:07:44Z</time>
      </trkpt>
      <trkpt lat="41.820314" lon="2.177358">
        <ele>901.0</ele>
        <time>2011-08-19T14:07:44Z</time>
      </trkpt>
      <trkpt lat="41.820419" lon="2.177351">
        <ele>900.0</ele>
        <time>2011-08-19T14:07:44Z</time>
      </trkpt>
      <trkpt lat="41.820487" lon="2.177358">
        <ele>899.8</ele>
        <time>2011-08-19T14:07:44Z</time>
      </trkpt>
      <trkpt lat="41.820584" lon="2.177408">
        <ele>900.6</ele>
        <time>2011-08-19T14:07:44Z</time>
      </trkpt>
      <trkpt lat="41.820681" lon="2.177415">
        <ele>901.2</ele>
        <time>2011-08-19T14:07:44Z</time>
      </trkpt>
      <trkpt lat="41.820757" lon="2.177397">
        <ele>901.0</ele>
        <time>2011-08-19T14:07:44Z</time>
      </trkpt>
      <trkpt lat="41.820832" lon="2.177357">
        <ele>900.2</ele>
        <time>2011-08-19T14:07:44Z</time>
      </trkpt>
      <trkpt lat="41.820920" lon="2.177280">
        <ele>899.7</ele>
        <time>2011-08-19T14:07:44Z</time>
      </trkpt>
      <trkpt lat="41.820991" lon="2.177200">
        <ele>898.8</ele>
        <time>2011-08-19T14:07:44Z</time>
      </trkpt>
      <trkpt lat="41.821039" lon="2.177143">
        <ele>897.9</ele>
        <time>2011-08-19T14:07:44Z</time>
      </trkpt>
      <trkpt lat="41.821106" lon="2.177097">
        <ele>897.6</ele>
        <time>2011-08-19T14:07:44Z</time>
      </trkpt>
      <trkpt lat="41.821200" lon="2.177051">
        <ele>897.0</ele>
        <time>2011-08-19T14:07:44Z</time>
      </trkpt>
      <trkpt lat="41.821288" lon="2.177002">
        <ele>896.3</ele>
        <time>2011-08-19T14:07:44Z</time>
      </trkpt>
      <trkpt lat="41.821362" lon="2.176959">
        <ele>895.6</ele>
        <time>2011-08-19T14:07:44Z</time>
      </trkpt>
      <trkpt lat="41.821446" lon="2.176913">
        <ele>895.3</ele>
        <time>2011-08-19T14:07:44Z</time>
      </trkpt>
      <trkpt lat="41.821525" lon="2.176861">
        <ele>894.9</ele>
        <time>2011-08-19T14:07:44Z</time>
      </trkpt>
      <trkpt lat="41.821599" lon="2.176818">
        <ele>894.8</ele>
        <time>2011-08-19T14:07:44Z</time>
      </trkpt>
      <trkpt lat="41.821680" lon="2.176769">
        <ele>894.6</ele>
        <time>2011-08-19T14:07:44Z</time>
      </trkpt>
      <trkpt lat="41.821773" lon="2.176717">
        <ele>894.3</ele>
        <time>2011-08-19T14:07:44Z</time>
      </trkpt>
      <trkpt lat="41.821861" lon="2.176651">
        <ele>893.7</ele>
        <time>2011-08-19T14:07:44Z</time>
      </trkpt>
      <trkpt lat="41.821932" lon="2.176594">
        <ele>893.2</ele>
        <time>2011-08-19T14:07:44Z</time>
      </trkpt>
      <trkpt lat="41.822031" lon="2.176551">
        <ele>892.4</ele>
        <time>2011-08-19T14:07:44Z</time>
      </trkpt>
      <trkpt lat="41.822140" lon="2.176529">
        <ele>892.0</ele>
        <time>2011-08-19T14:07:44Z</time>
      </trkpt>
      <trkpt lat="41.822264" lon="2.176505">
        <ele>891.2</ele>
        <time>2011-08-19T14:07:44Z</time>
      </trkpt>
      <trkpt lat="41.822358" lon="2.176496">
        <ele>890.7</ele>
        <time>2011-08-19T14:07:44Z</time>
      </trkpt>
      <trkpt lat="41.822476" lon="2.176494">
        <ele>890.5</ele>
        <time>2011-08-19T14:07:44Z</time>
      </trkpt>
      <trkpt lat="41.822577" lon="2.176479">
        <ele>890.1</ele>
        <time>2011-08-19T14:07:44Z</time>
      </trkpt>
      <trkpt lat="41.822676" lon="2.176472">
        <ele>890.0</ele>
        <time>2011-08-19T14:07:44Z</time>
      </trkpt>
      <trkpt lat="41.822758" lon="2.176445">
        <ele>889.0</ele>
        <time>2011-08-19T14:07:44Z</time>
      </trkpt>
      <trkpt lat="41.822880" lon="2.176422">
        <ele>888.1</ele>
        <time>2011-08-19T14:07:44Z</time>
      </trkpt>
      <trkpt lat="41.822992" lon="2.176420">
        <ele>888.1</ele>
        <time>2011-08-19T14:07:44Z</time>
      </trkpt>
      <trkpt lat="41.823129" lon="2.176407">
        <ele>888.1</ele>
        <time>2011-08-19T14:07:44Z</time>
      </trkpt>
      <trkpt lat="41.823248" lon="2.176391">
        <ele>888.2</ele>
        <time>2011-08-19T14:07:44Z</time>
      </trkpt>
      <trkpt lat="41.823354" lon="2.176365">
        <ele>888.7</ele>
        <time>2011-08-19T14:07:44Z</time>
      </trkpt>
      <trkpt lat="41.823433" lon="2.176330">
        <ele>889.2</ele>
        <time>2011-08-19T14:07:44Z</time>
      </trkpt>
      <trkpt lat="41.823509" lon="2.176304">
        <ele>889.5</ele>
        <time>2011-08-19T14:07:44Z</time>
      </trkpt>
      <trkpt lat="41.823599" lon="2.176238">
        <ele>889.7</ele>
        <time>2011-08-19T14:07:44Z</time>
      </trkpt>
      <trkpt lat="41.823653" lon="2.176169">
        <ele>889.9</ele>
        <time>2011-08-19T14:07:44Z</time>
      </trkpt>
      <trkpt lat="41.823731" lon="2.176126">
        <ele>889.8</ele>
        <time>2011-08-19T14:07:44Z</time>
      </trkpt>
      <trkpt lat="41.823808" lon="2.176077">
        <ele>889.8</ele>
        <time>2011-08-19T14:07:44Z</time>
      </trkpt>
      <trkpt lat="41.823863" lon="2.176037">
        <ele>890.4</ele>
        <time>2011-08-19T14:07:44Z</time>
      </trkpt>
      <trkpt lat="41.823913" lon="2.175958">
        <ele>891.7</ele>
        <time>2011-08-19T14:07:44Z</time>
      </trkpt>
      <trkpt lat="41.823940" lon="2.175884">
        <ele>892.7</ele>
        <time>2011-08-19T14:07:44Z</time>
      </trkpt>
      <trkpt lat="41.823968" lon="2.175785">
        <ele>893.9</ele>
        <time>2011-08-19T14:07:44Z</time>
      </trkpt>
      <trkpt lat="41.824002" lon="2.175706">
        <ele>894.5</ele>
        <time>2011-08-19T14:07:44Z</time>
      </trkpt>
      <trkpt lat="41.824039" lon="2.175593">
        <ele>895.7</ele>
        <time>2011-08-19T14:07:44Z</time>
      </trkpt>
      <trkpt lat="41.824059" lon="2.175472">
        <ele>897.1</ele>
        <time>2011-08-19T14:07:44Z</time>
      </trkpt>
      <trkpt lat="41.824100" lon="2.175378">
        <ele>897.9</ele>
        <time>2011-08-19T14:07:44Z</time>
      </trkpt>
      <trkpt lat="41.824127" lon="2.175305">
        <ele>898.6</ele>
        <time>2011-08-19T14:07:44Z</time>
      </trkpt>
      <trkpt lat="41.824175" lon="2.175192">
        <ele>899.6</ele>
        <time>2011-08-19T14:07:44Z</time>
      </trkpt>
      <trkpt lat="41.824218" lon="2.175081">
        <ele>900.6</ele>
        <time>2011-08-19T14:07:44Z</time>
      </trkpt>
      <trkpt lat="41.824253" lon="2.174996">
        <ele>901.4</ele>
        <time>2011-08-19T14:07:44Z</time>
      </trkpt>
      <trkpt lat="41.824299" lon="2.174926">
        <ele>901.7</ele>
        <time>2011-08-19T14:07:44Z</time>
      </trkpt>
      <trkpt lat="41.824362" lon="2.174837">
        <ele>902.0</ele>
        <time>2011-08-19T14:07:44Z</time>
      </trkpt>
      <trkpt lat="41.824456" lon="2.174774">
        <ele>902.3</ele>
        <time>2011-08-19T14:07:44Z</time>
      </trkpt>
      <trkpt lat="41.824538" lon="2.174717">
        <ele>902.5</ele>
        <time>2011-08-19T14:07:44Z</time>
      </trkpt>
      <trkpt lat="41.824613" lon="2.174705">
        <ele>902.4</ele>
        <time>2011-08-19T14:07:44Z</time>
      </trkpt>
      <trkpt lat="41.824717" lon="2.174769">
        <ele>902.2</ele>
        <time>2011-08-19T14:07:44Z</time>
      </trkpt>
      <trkpt lat="41.824822" lon="2.174834">
        <ele>902.2</ele>
        <time>2011-08-19T14:07:44Z</time>
      </trkpt>
      <trkpt lat="41.824914" lon="2.174906">
        <ele>902.1</ele>
        <time>2011-08-19T14:07:44Z</time>
      </trkpt>
      <trkpt lat="41.825032" lon="2.174967">
        <ele>901.9</ele>
        <time>2011-08-19T14:07:44Z</time>
      </trkpt>
      <trkpt lat="41.825157" lon="2.175026">
        <ele>901.8</ele>
        <time>2011-08-19T14:07:44Z</time>
      </trkpt>
      <trkpt lat="41.825252" lon="2.175083">
        <ele>901.4</ele>
        <time>2011-08-19T14:07:44Z</time>
      </trkpt>
      <trkpt lat="41.825328" lon="2.175121">
        <ele>901.2</ele>
        <time>2011-08-19T14:07:44Z</time>
      </trkpt>
      <trkpt lat="41.825441" lon="2.175188">
        <ele>901.0</ele>
        <time>2011-08-19T14:07:44Z</time>
      </trkpt>
      <trkpt lat="41.825547" lon="2.175256">
        <ele>901.0</ele>
        <time>2011-08-19T14:07:44Z</time>
      </trkpt>
      <trkpt lat="41.825613" lon="2.175281">
        <ele>901.0</ele>
        <time>2011-08-19T14:07:44Z</time>
      </trkpt>
      <trkpt lat="41.825718" lon="2.175329">
        <ele>900.9</ele>
        <time>2011-08-19T14:07:44Z</time>
      </trkpt>
      <trkpt lat="41.825831" lon="2.175386">
        <ele>900.8</ele>
        <time>2011-08-19T14:07:44Z</time>
      </trkpt>
      <trkpt lat="41.825981" lon="2.175440">
        <ele>900.7</ele>
        <time>2011-08-19T14:07:44Z</time>
      </trkpt>
      <trkpt lat="41.826128" lon="2.175461">
        <ele>901.1</ele>
        <time>2011-08-19T14:07:44Z</time>
      </trkpt>
      <trkpt lat="41.826260" lon="2.175492">
        <ele>901.4</ele>
        <time>2011-08-19T14:07:44Z</time>
      </trkpt>
      <trkpt lat="41.826409" lon="2.175522">
        <ele>901.4</ele>
        <time>2011-08-19T14:07:44Z</time>
      </trkpt>
      <trkpt lat="41.826594" lon="2.175570">
        <ele>901.6</ele>
        <time>2011-08-19T14:07:44Z</time>
      </trkpt>
      <trkpt lat="41.826725" lon="2.175604">
        <ele>901.9</ele>
        <time>2011-08-19T14:07:44Z</time>
      </trkpt>
      <trkpt lat="41.826815" lon="2.175629">
        <ele>902.0</ele>
        <time>2011-08-19T14:07:44Z</time>
      </trkpt>
      <trkpt lat="41.826933" lon="2.175660">
        <ele>901.9</ele>
        <time>2011-08-19T14:07:44Z</time>
      </trkpt>
      <trkpt lat="41.827081" lon="2.175671">
        <ele>901.9</ele>
        <time>2011-08-19T14:07:44Z</time>
      </trkpt>
      <trkpt lat="41.827215" lon="2.175663">
        <ele>901.9</ele>
        <time>2011-08-19T14:07:44Z</time>
      </trkpt>
      <trkpt lat="41.827323" lon="2.175664">
        <ele>901.9</ele>
        <time>2011-08-19T14:07:44Z</time>
      </trkpt>
      <trkpt lat="41.827423" lon="2.175684">
        <ele>901.9</ele>
        <time>2011-08-19T14:07:44Z</time>
      </trkpt>
      <trkpt lat="41.827519" lon="2.175680">
        <ele>902.0</ele>
        <time>2011-08-19T14:07:44Z</time>
      </trkpt>
      <trkpt lat="41.827616" lon="2.175681">
        <ele>902.0</ele>
        <time>2011-08-19T14:07:44Z</time>
      </trkpt>
      <trkpt lat="41.827795" lon="2.175658">
        <ele>902.0</ele>
        <time>2011-08-19T14:07:44Z</time>
      </trkpt>
      <trkpt lat="41.827870" lon="2.175665">
        <ele>902.0</ele>
        <time>2011-08-19T14:07:44Z</time>
      </trkpt>
      <trkpt lat="41.828000" lon="2.175614">
        <ele>902.5</ele>
        <time>2011-08-19T14:07:44Z</time>
      </trkpt>
      <trkpt lat="41.828093" lon="2.175561">
        <ele>902.7</ele>
        <time>2011-08-19T14:07:44Z</time>
      </trkpt>
      <trkpt lat="41.828183" lon="2.175403">
        <ele>902.5</ele>
        <time>2011-08-19T14:07:44Z</time>
      </trkpt>
      <trkpt lat="41.828292" lon="2.175356">
        <ele>902.7</ele>
        <time>2011-08-19T14:07:44Z</time>
      </trkpt>
      <trkpt lat="41.828425" lon="2.175294">
        <ele>903.1</ele>
        <time>2011-08-19T14:07:44Z</time>
      </trkpt>
      <trkpt lat="41.828533" lon="2.175252">
        <ele>903.5</ele>
        <time>2011-08-19T14:07:44Z</time>
      </trkpt>
      <trkpt lat="41.828643" lon="2.175205">
        <ele>903.8</ele>
        <time>2011-08-19T14:07:44Z</time>
      </trkpt>
      <trkpt lat="41.828759" lon="2.175178">
        <ele>904.2</ele>
        <time>2011-08-19T14:07:44Z</time>
      </trkpt>
      <trkpt lat="41.828958" lon="2.175091">
        <ele>905.2</ele>
        <time>2011-08-19T14:07:44Z</time>
      </trkpt>
      <trkpt lat="41.829080" lon="2.175053">
        <ele>906.1</ele>
        <time>2011-08-19T14:07:44Z</time>
      </trkpt>
      <trkpt lat="41.829252" lon="2.174989">
        <ele>907.2</ele>
        <time>2011-08-19T14:07:44Z</time>
      </trkpt>
      <trkpt lat="41.829390" lon="2.174931">
        <ele>907.8</ele>
        <time>2011-08-19T14:07:44Z</time>
      </trkpt>
      <trkpt lat="41.829477" lon="2.174887">
        <ele>908.0</ele>
        <time>2011-08-19T14:07:44Z</time>
      </trkpt>
      <trkpt lat="41.829564" lon="2.174849">
        <ele>908.5</ele>
        <time>2011-08-19T14:07:44Z</time>
      </trkpt>
      <trkpt lat="41.829684" lon="2.174811">
        <ele>909.2</ele>
        <time>2011-08-19T14:07:44Z</time>
      </trkpt>
      <trkpt lat="41.829792" lon="2.174775">
        <ele>909.8</ele>
        <time>2011-08-19T14:07:44Z</time>
      </trkpt>
      <trkpt lat="41.829932" lon="2.174736">
        <ele>910.9</ele>
        <time>2011-08-19T14:07:44Z</time>
      </trkpt>
      <trkpt lat="41.830043" lon="2.174716">
        <ele>911.7</ele>
        <time>2011-08-19T14:07:44Z</time>
      </trkpt>
      <trkpt lat="41.830121" lon="2.174710">
        <ele>912.1</ele>
        <time>2011-08-19T14:07:44Z</time>
      </trkpt>
      <trkpt lat="41.830201" lon="2.174729">
        <ele>912.6</ele>
        <time>2011-08-19T14:07:44Z</time>
      </trkpt>
      <trkpt lat="41.830288" lon="2.174758">
        <ele>913.0</ele>
        <time>2011-08-19T14:07:44Z</time>
      </trkpt>
      <trkpt lat="41.830372" lon="2.174798">
        <ele>913.7</ele>
        <time>2011-08-19T14:07:44Z</time>
      </trkpt>
      <trkpt lat="41.830478" lon="2.174846">
        <ele>914.5</ele>
        <time>2011-08-19T14:07:44Z</time>
      </trkpt>
      <trkpt lat="41.830546" lon="2.174892">
        <ele>915.0</ele>
        <time>2011-08-19T14:07:44Z</time>
      </trkpt>
      <trkpt lat="41.830624" lon="2.174941">
        <ele>915.5</ele>
        <time>2011-08-19T14:07:44Z</time>
      </trkpt>
      <trkpt lat="41.830697" lon="2.174987">
        <ele>915.9</ele>
        <time>2011-08-19T14:07:44Z</time>
      </trkpt>
      <trkpt lat="41.830773" lon="2.175025">
        <ele>916.3</ele>
        <time>2011-08-19T14:07:44Z</time>
      </trkpt>
      <trkpt lat="41.830860" lon="2.175045">
        <ele>916.9</ele>
        <time>2011-08-19T14:07:44Z</time>
      </trkpt>
      <trkpt lat="41.830939" lon="2.175047">
        <ele>917.6</ele>
        <time>2011-08-19T14:07:44Z</time>
      </trkpt>
      <trkpt lat="41.831050" lon="2.175041">
        <ele>918.6</ele>
        <time>2011-08-19T14:07:44Z</time>
      </trkpt>
      <trkpt lat="41.831129" lon="2.175066">
        <ele>919.2</ele>
        <time>2011-08-19T14:07:44Z</time>
      </trkpt>
      <trkpt lat="41.831208" lon="2.175095">
        <ele>919.7</ele>
        <time>2011-08-19T14:07:44Z</time>
      </trkpt>
      <trkpt lat="41.831269" lon="2.175045">
        <ele>920.6</ele>
        <time>2011-08-19T14:07:44Z</time>
      </trkpt>
      <trkpt lat="41.831346" lon="2.175048">
        <ele>921.3</ele>
        <time>2011-08-19T14:07:44Z</time>
      </trkpt>
      <trkpt lat="41.831488" lon="2.175046">
        <ele>922.2</ele>
        <time>2011-08-19T14:07:44Z</time>
      </trkpt>
      <trkpt lat="41.831623" lon="2.175044">
        <ele>922.9</ele>
        <time>2011-08-19T14:07:44Z</time>
      </trkpt>
      <trkpt lat="41.831702" lon="2.175054">
        <ele>923.6</ele>
        <time>2011-08-19T14:07:44Z</time>
      </trkpt>
      <trkpt lat="41.831765" lon="2.175051">
        <ele>924.1</ele>
        <time>2011-08-19T14:07:44Z</time>
      </trkpt>
      <trkpt lat="41.831847" lon="2.175080">
        <ele>924.7</ele>
        <time>2011-08-19T14:07:44Z</time>
      </trkpt>
      <trkpt lat="41.831917" lon="2.175107">
        <ele>925.0</ele>
        <time>2011-08-19T14:07:44Z</time>
      </trkpt>
      <trkpt lat="41.832014" lon="2.175153">
        <ele>925.3</ele>
        <time>2011-08-19T14:07:44Z</time>
      </trkpt>
      <trkpt lat="41.832103" lon="2.175206">
        <ele>925.6</ele>
        <time>2011-08-19T14:07:44Z</time>
      </trkpt>
      <trkpt lat="41.832176" lon="2.175265">
        <ele>925.7</ele>
        <time>2011-08-19T14:07:44Z</time>
      </trkpt>
      <trkpt lat="41.832247" lon="2.175340">
        <ele>926.1</ele>
        <time>2011-08-19T14:07:44Z</time>
      </trkpt>
      <trkpt lat="41.832331" lon="2.175421">
        <ele>926.6</ele>
        <time>2011-08-19T14:07:44Z</time>
      </trkpt>
      <trkpt lat="41.832412" lon="2.175488">
        <ele>927.1</ele>
        <time>2011-08-19T14:07:44Z</time>
      </trkpt>
      <trkpt lat="41.832495" lon="2.175550">
        <ele>927.7</ele>
        <time>2011-08-19T14:07:44Z</time>
      </trkpt>
      <trkpt lat="41.832563" lon="2.175605">
        <ele>928.2</ele>
        <time>2011-08-19T14:07:44Z</time>
      </trkpt>
      <trkpt lat="41.832625" lon="2.175656">
        <ele>928.7</ele>
        <time>2011-08-19T14:07:44Z</time>
      </trkpt>
      <trkpt lat="41.832693" lon="2.175698">
        <ele>929.3</ele>
        <time>2011-08-19T14:07:44Z</time>
      </trkpt>
      <trkpt lat="41.832767" lon="2.175736">
        <ele>929.8</ele>
        <time>2011-08-19T14:07:44Z</time>
      </trkpt>
      <trkpt lat="41.832841" lon="2.175769">
        <ele>930.1</ele>
        <time>2011-08-19T14:07:44Z</time>
      </trkpt>
      <trkpt lat="41.832912" lon="2.175803">
        <ele>930.3</ele>
        <time>2011-08-19T14:07:44Z</time>
      </trkpt>
      <trkpt lat="41.832974" lon="2.175822">
        <ele>930.5</ele>
        <time>2011-08-19T14:07:44Z</time>
      </trkpt>
      <trkpt lat="41.833037" lon="2.175840">
        <ele>931.0</ele>
        <time>2011-08-19T14:07:44Z</time>
      </trkpt>
      <trkpt lat="41.833122" lon="2.175867">
        <ele>931.8</ele>
        <time>2011-08-19T14:07:44Z</time>
      </trkpt>
      <trkpt lat="41.833246" lon="2.175876">
        <ele>933.1</ele>
        <time>2011-08-19T14:07:44Z</time>
      </trkpt>
      <trkpt lat="41.833348" lon="2.175877">
        <ele>934.3</ele>
        <time>2011-08-19T14:07:44Z</time>
      </trkpt>
      <trkpt lat="41.833428" lon="2.175878">
        <ele>935.3</ele>
        <time>2011-08-19T14:07:44Z</time>
      </trkpt>
      <trkpt lat="41.833535" lon="2.175870">
        <ele>936.6</ele>
        <time>2011-08-19T14:07:44Z</time>
      </trkpt>
      <trkpt lat="41.833636" lon="2.175871">
        <ele>937.8</ele>
        <time>2011-08-19T14:07:44Z</time>
      </trkpt>
      <trkpt lat="41.833735" lon="2.175876">
        <ele>938.9</ele>
        <time>2011-08-19T14:07:44Z</time>
      </trkpt>
      <trkpt lat="41.833815" lon="2.175886">
        <ele>939.6</ele>
        <time>2011-08-19T14:07:44Z</time>
      </trkpt>
      <trkpt lat="41.833935" lon="2.175890">
        <ele>939.9</ele>
        <time>2011-08-19T14:07:44Z</time>
      </trkpt>
      <trkpt lat="41.834059" lon="2.175880">
        <ele>940.4</ele>
        <time>2011-08-19T14:07:44Z</time>
      </trkpt>
      <trkpt lat="41.834166" lon="2.175845">
        <ele>940.9</ele>
        <time>2011-08-19T14:07:44Z</time>
      </trkpt>
      <trkpt lat="41.834256" lon="2.175795">
        <ele>941.4</ele>
        <time>2011-08-19T14:07:44Z</time>
      </trkpt>
      <trkpt lat="41.834370" lon="2.175723">
        <ele>941.9</ele>
        <time>2011-08-19T14:07:44Z</time>
      </trkpt>
      <trkpt lat="41.834447" lon="2.175663">
        <ele>941.8</ele>
        <time>2011-08-19T14:07:44Z</time>
      </trkpt>
      <trkpt lat="41.834532" lon="2.175560">
        <ele>941.8</ele>
        <time>2011-08-19T14:07:44Z</time>
      </trkpt>
      <trkpt lat="41.834556" lon="2.175512">
        <ele>941.9</ele>
        <time>2011-08-19T14:07:44Z</time>
      </trkpt>
      <trkpt lat="41.834619" lon="2.175476">
        <ele>941.7</ele>
        <time>2011-08-19T14:07:44Z</time>
      </trkpt>
      <trkpt lat="41.834695" lon="2.175475">
        <ele>942.6</ele>
        <time>2011-08-19T14:07:44Z</time>
      </trkpt>
      <trkpt lat="41.834833" lon="2.175549">
        <ele>943.4</ele>
        <time>2011-08-19T14:07:44Z</time>
      </trkpt>
      <trkpt lat="41.834941" lon="2.175637">
        <ele>944.2</ele>
        <time>2011-08-19T14:07:44Z</time>
      </trkpt>
      <trkpt lat="41.835031" lon="2.175693">
        <ele>945.0</ele>
        <time>2011-08-19T14:07:44Z</time>
      </trkpt>
      <trkpt lat="41.835119" lon="2.175750">
        <ele>945.6</ele>
        <time>2011-08-19T14:07:44Z</time>
      </trkpt>
      <trkpt lat="41.835216" lon="2.175810">
        <ele>946.5</ele>
        <time>2011-08-19T14:07:44Z</time>
      </trkpt>
      <trkpt lat="41.835309" lon="2.175877">
        <ele>947.7</ele>
        <time>2011-08-19T14:07:44Z</time>
      </trkpt>
      <trkpt lat="41.835418" lon="2.175963">
        <ele>949.1</ele>
        <time>2011-08-19T14:07:44Z</time>
      </trkpt>
      <trkpt lat="41.835480" lon="2.176036">
        <ele>950.2</ele>
        <time>2011-08-19T14:07:44Z</time>
      </trkpt>
      <trkpt lat="41.835533" lon="2.176144">
        <ele>950.7</ele>
        <time>2011-08-19T14:07:44Z</time>
      </trkpt>
      <trkpt lat="41.835599" lon="2.176262">
        <ele>951.7</ele>
        <time>2011-08-19T14:07:44Z</time>
      </trkpt>
      <trkpt lat="41.835659" lon="2.176381">
        <ele>952.1</ele>
        <time>2011-08-19T14:07:44Z</time>
      </trkpt>
      <trkpt lat="41.835722" lon="2.176454">
        <ele>952.7</ele>
        <time>2011-08-19T14:07:44Z</time>
      </trkpt>
      <trkpt lat="41.835781" lon="2.176515">
        <ele>952.9</ele>
        <time>2011-08-19T14:07:44Z</time>
      </trkpt>
      <trkpt lat="41.835848" lon="2.176557">
        <ele>953.6</ele>
        <time>2011-08-19T14:07:44Z</time>
      </trkpt>
      <trkpt lat="41.835920" lon="2.176573">
        <ele>954.7</ele>
        <time>2011-08-19T14:07:44Z</time>
      </trkpt>
      <trkpt lat="41.836025" lon="2.176580">
        <ele>955.5</ele>
        <time>2011-08-19T14:07:44Z</time>
      </trkpt>
      <trkpt lat="41.836129" lon="2.176549">
        <ele>956.2</ele>
        <time>2011-08-19T14:07:44Z</time>
      </trkpt>
      <trkpt lat="41.836202" lon="2.176497">
        <ele>957.4</ele>
        <time>2011-08-19T14:07:44Z</time>
      </trkpt>
      <trkpt lat="41.836267" lon="2.176445">
        <ele>958.3</ele>
        <time>2011-08-19T14:07:44Z</time>
      </trkpt>
      <trkpt lat="41.836338" lon="2.176372">
        <ele>959.0</ele>
        <time>2011-08-19T14:07:44Z</time>
      </trkpt>
      <trkpt lat="41.836382" lon="2.176310">
        <ele>959.7</ele>
        <time>2011-08-19T14:07:44Z</time>
      </trkpt>
      <trkpt lat="41.836450" lon="2.176258">
        <ele>959.6</ele>
        <time>2011-08-19T14:07:44Z</time>
      </trkpt>
      <trkpt lat="41.836517" lon="2.176229">
        <ele>959.5</ele>
        <time>2011-08-19T14:07:44Z</time>
      </trkpt>
      <trkpt lat="41.836607" lon="2.176220">
        <ele>959.7</ele>
        <time>2011-08-19T14:07:44Z</time>
      </trkpt>
      <trkpt lat="41.836666" lon="2.176219">
        <ele>959.8</ele>
        <time>2011-08-19T14:07:44Z</time>
      </trkpt>
      <trkpt lat="41.836733" lon="2.176222">
        <ele>959.6</ele>
        <time>2011-08-19T14:07:44Z</time>
      </trkpt>
      <trkpt lat="41.836819" lon="2.176253">
        <ele>959.4</ele>
        <time>2011-08-19T14:07:44Z</time>
      </trkpt>
      <trkpt lat="41.836960" lon="2.176277">
        <ele>960.9</ele>
        <time>2011-08-19T14:07:44Z</time>
      </trkpt>
      <trkpt lat="41.837069" lon="2.176305">
        <ele>961.3</ele>
        <time>2011-08-19T14:07:44Z</time>
      </trkpt>
      <trkpt lat="41.837167" lon="2.176302">
        <ele>961.4</ele>
        <time>2011-08-19T14:07:44Z</time>
      </trkpt>
      <trkpt lat="41.837259" lon="2.176286">
        <ele>961.8</ele>
        <time>2011-08-19T14:07:44Z</time>
      </trkpt>
      <trkpt lat="41.837352" lon="2.176272">
        <ele>961.8</ele>
        <time>2011-08-19T14:07:44Z</time>
      </trkpt>
      <trkpt lat="41.837455" lon="2.176247">
        <ele>961.7</ele>
        <time>2011-08-19T14:07:44Z</time>
      </trkpt>
      <trkpt lat="41.837546" lon="2.176199">
        <ele>962.2</ele>
        <time>2011-08-19T14:07:44Z</time>
      </trkpt>
      <trkpt lat="41.837660" lon="2.176134">
        <ele>963.0</ele>
        <time>2011-08-19T14:07:44Z</time>
      </trkpt>
      <trkpt lat="41.837730" lon="2.176088">
        <ele>963.4</ele>
        <time>2011-08-19T14:07:44Z</time>
      </trkpt>
      <trkpt lat="41.837789" lon="2.176043">
        <ele>963.9</ele>
        <time>2011-08-19T14:07:44Z</time>
      </trkpt>
      <trkpt lat="41.837861" lon="2.176004">
        <ele>963.9</ele>
        <time>2011-08-19T14:07:44Z</time>
      </trkpt>
      <trkpt lat="41.837941" lon="2.175956">
        <ele>964.1</ele>
        <time>2011-08-19T14:07:44Z</time>
      </trkpt>
      <trkpt lat="41.838053" lon="2.175878">
        <ele>964.5</ele>
        <time>2011-08-19T14:07:44Z</time>
      </trkpt>
      <trkpt lat="41.838145" lon="2.175830">
        <ele>964.9</ele>
        <time>2011-08-19T14:07:44Z</time>
      </trkpt>
      <trkpt lat="41.838232" lon="2.175786">
        <ele>965.7</ele>
        <time>2011-08-19T14:07:44Z</time>
      </trkpt>
      <trkpt lat="41.838329" lon="2.175740">
        <ele>966.6</ele>
        <time>2011-08-19T14:07:44Z</time>
      </trkpt>
      <trkpt lat="41.838439" lon="2.175684">
        <ele>967.5</ele>
        <time>2011-08-19T14:07:44Z</time>
      </trkpt>
      <trkpt lat="41.838531" lon="2.175610">
        <ele>968.3</ele>
        <time>2011-08-19T14:07:44Z</time>
      </trkpt>
      <trkpt lat="41.838605" lon="2.175548">
        <ele>968.8</ele>
        <time>2011-08-19T14:07:44Z</time>
      </trkpt>
      <trkpt lat="41.838668" lon="2.175481">
        <ele>969.4</ele>
        <time>2011-08-19T14:07:44Z</time>
      </trkpt>
      <trkpt lat="41.838806" lon="2.175369">
        <ele>972.4</ele>
        <time>2011-08-19T14:07:44Z</time>
      </trkpt>
      <trkpt lat="41.838873" lon="2.175315">
        <ele>973.7</ele>
        <time>2011-08-19T14:07:44Z</time>
      </trkpt>
      <trkpt lat="41.838923" lon="2.175293">
        <ele>974.0</ele>
        <time>2011-08-19T14:07:44Z</time>
      </trkpt>
      <trkpt lat="41.839004" lon="2.175249">
        <ele>974.6</ele>
        <time>2011-08-19T14:07:44Z</time>
      </trkpt>
      <trkpt lat="41.839074" lon="2.175210">
        <ele>974.9</ele>
        <time>2011-08-19T14:07:44Z</time>
      </trkpt>
      <trkpt lat="41.839192" lon="2.175151">
        <ele>974.8</ele>
        <time>2011-08-19T14:07:44Z</time>
      </trkpt>
      <trkpt lat="41.839310" lon="2.175077">
        <ele>976.0</ele>
        <time>2011-08-19T14:07:44Z</time>
      </trkpt>
      <trkpt lat="41.839401" lon="2.175008">
        <ele>976.9</ele>
        <time>2011-08-19T14:07:44Z</time>
      </trkpt>
      <trkpt lat="41.839517" lon="2.174913">
        <ele>977.8</ele>
        <time>2011-08-19T14:07:44Z</time>
      </trkpt>
      <trkpt lat="41.839611" lon="2.174833">
        <ele>978.6</ele>
        <time>2011-08-19T14:07:44Z</time>
      </trkpt>
      <trkpt lat="41.839710" lon="2.174764">
        <ele>979.1</ele>
        <time>2011-08-19T14:07:44Z</time>
      </trkpt>
      <trkpt lat="41.839792" lon="2.174718">
        <ele>979.3</ele>
        <time>2011-08-19T14:07:44Z</time>
      </trkpt>
      <trkpt lat="41.839860" lon="2.174662">
        <ele>979.7</ele>
        <time>2011-08-19T14:07:44Z</time>
      </trkpt>
      <trkpt lat="41.839936" lon="2.174576">
        <ele>980.4</ele>
        <time>2011-08-19T14:07:44Z</time>
      </trkpt>
      <trkpt lat="41.839987" lon="2.174492">
        <ele>981.0</ele>
        <time>2011-08-19T14:07:44Z</time>
      </trkpt>
      <trkpt lat="41.840045" lon="2.174398">
        <ele>981.5</ele>
        <time>2011-08-19T14:07:44Z</time>
      </trkpt>
      <trkpt lat="41.840115" lon="2.174295">
        <ele>981.9</ele>
        <time>2011-08-19T14:07:44Z</time>
      </trkpt>
      <trkpt lat="41.840167" lon="2.174214">
        <ele>982.2</ele>
        <time>2011-08-19T14:07:44Z</time>
      </trkpt>
      <trkpt lat="41.840237" lon="2.174100">
        <ele>982.6</ele>
        <time>2011-08-19T14:07:44Z</time>
      </trkpt>
      <trkpt lat="41.840303" lon="2.173959">
        <ele>983.6</ele>
        <time>2011-08-19T14:07:44Z</time>
      </trkpt>
      <trkpt lat="41.840337" lon="2.173871">
        <ele>984.3</ele>
        <time>2011-08-19T14:07:44Z</time>
      </trkpt>
      <trkpt lat="41.840380" lon="2.173745">
        <ele>985.3</ele>
        <time>2011-08-19T14:07:44Z</time>
      </trkpt>
      <trkpt lat="41.840415" lon="2.173671">
        <ele>985.9</ele>
        <time>2011-08-19T14:07:44Z</time>
      </trkpt>
      <trkpt lat="41.840491" lon="2.173538">
        <ele>987.1</ele>
        <time>2011-08-19T14:07:44Z</time>
      </trkpt>
      <trkpt lat="41.840565" lon="2.173503">
        <ele>987.2</ele>
        <time>2011-08-19T14:07:44Z</time>
      </trkpt>
      <trkpt lat="41.840641" lon="2.173474">
        <ele>987.6</ele>
        <time>2011-08-19T14:07:44Z</time>
      </trkpt>
      <trkpt lat="41.840719" lon="2.173454">
        <ele>987.9</ele>
        <time>2011-08-19T14:07:44Z</time>
      </trkpt>
      <trkpt lat="41.840803" lon="2.173425">
        <ele>988.3</ele>
        <time>2011-08-19T14:07:44Z</time>
      </trkpt>
      <trkpt lat="41.840945" lon="2.173383">
        <ele>987.9</ele>
        <time>2011-08-19T14:07:44Z</time>
      </trkpt>
      <trkpt lat="41.841000" lon="2.173344">
        <ele>988.0</ele>
        <time>2011-08-19T14:07:44Z</time>
      </trkpt>
      <trkpt lat="41.841069" lon="2.173290">
        <ele>988.2</ele>
        <time>2011-08-19T14:07:44Z</time>
      </trkpt>
      <trkpt lat="41.841160" lon="2.173240">
        <ele>988.5</ele>
        <time>2011-08-19T14:07:44Z</time>
      </trkpt>
      <trkpt lat="41.841229" lon="2.173180">
        <ele>989.2</ele>
        <time>2011-08-19T14:07:44Z</time>
      </trkpt>
      <trkpt lat="41.841315" lon="2.173121">
        <ele>989.7</ele>
        <time>2011-08-19T14:07:44Z</time>
      </trkpt>
      <trkpt lat="41.841406" lon="2.173052">
        <ele>990.4</ele>
        <time>2011-08-19T14:07:44Z</time>
      </trkpt>
      <trkpt lat="41.841492" lon="2.172991">
        <ele>991.0</ele>
        <time>2011-08-19T14:07:44Z</time>
      </trkpt>
      <trkpt lat="41.841617" lon="2.172930">
        <ele>990.9</ele>
        <time>2011-08-19T14:07:44Z</time>
      </trkpt>
      <trkpt lat="41.841710" lon="2.172884">
        <ele>990.9</ele>
        <time>2011-08-19T14:07:44Z</time>
      </trkpt>
      <trkpt lat="41.841782" lon="2.172837">
        <ele>991.0</ele>
        <time>2011-08-19T14:07:44Z</time>
      </trkpt>
      <trkpt lat="41.841842" lon="2.172785">
        <ele>991.3</ele>
        <time>2011-08-19T14:07:44Z</time>
      </trkpt>
      <trkpt lat="41.841911" lon="2.172739">
        <ele>991.2</ele>
        <time>2011-08-19T14:07:44Z</time>
      </trkpt>
      <trkpt lat="41.841977" lon="2.172672">
        <ele>991.4</ele>
        <time>2011-08-19T14:07:44Z</time>
      </trkpt>
      <trkpt lat="41.842042" lon="2.172595">
        <ele>991.5</ele>
        <time>2011-08-19T14:07:44Z</time>
      </trkpt>
      <trkpt lat="41.842105" lon="2.172511">
        <ele>991.5</ele>
        <time>2011-08-19T14:07:44Z</time>
      </trkpt>
      <trkpt lat="41.842149" lon="2.172436">
        <ele>991.5</ele>
        <time>2011-08-19T14:07:44Z</time>
      </trkpt>
      <trkpt lat="41.842193" lon="2.172366">
        <ele>991.4</ele>
        <time>2011-08-19T14:07:44Z</time>
      </trkpt>
      <trkpt lat="41.842235" lon="2.172271">
        <ele>991.5</ele>
        <time>2011-08-19T14:07:44Z</time>
      </trkpt>
      <trkpt lat="41.842263" lon="2.172167">
        <ele>991.8</ele>
        <time>2011-08-19T14:07:44Z</time>
      </trkpt>
      <trkpt lat="41.842288" lon="2.172050">
        <ele>992.2</ele>
        <time>2011-08-19T14:07:44Z</time>
      </trkpt>
      <trkpt lat="41.842312" lon="2.171918">
        <ele>992.6</ele>
        <time>2011-08-19T14:07:44Z</time>
      </trkpt>
      <trkpt lat="41.842318" lon="2.171809">
        <ele>993.3</ele>
        <time>2011-08-19T14:07:44Z</time>
      </trkpt>
      <trkpt lat="41.842333" lon="2.171634">
        <ele>994.6</ele>
        <time>2011-08-19T14:07:44Z</time>
      </trkpt>
      <trkpt lat="41.842360" lon="2.171526">
        <ele>994.6</ele>
        <time>2011-08-19T14:07:44Z</time>
      </trkpt>
      <trkpt lat="41.842389" lon="2.171323">
        <ele>995.7</ele>
        <time>2011-08-19T14:07:44Z</time>
      </trkpt>
      <trkpt lat="41.842421" lon="2.171127">
        <ele>996.6</ele>
        <time>2011-08-19T14:07:44Z</time>
      </trkpt>
      <trkpt lat="41.842451" lon="2.171016">
        <ele>996.9</ele>
        <time>2011-08-19T14:07:44Z</time>
      </trkpt>
      <trkpt lat="41.842469" lon="2.170912">
        <ele>997.3</ele>
        <time>2011-08-19T14:07:44Z</time>
      </trkpt>
      <trkpt lat="41.842495" lon="2.170780">
        <ele>997.6</ele>
        <time>2011-08-19T14:07:44Z</time>
      </trkpt>
      <trkpt lat="41.842519" lon="2.170637">
        <ele>997.9</ele>
        <time>2011-08-19T14:07:44Z</time>
      </trkpt>
      <trkpt lat="41.842528" lon="2.170505">
        <ele>998.6</ele>
        <time>2011-08-19T14:07:44Z</time>
      </trkpt>
      <trkpt lat="41.842530" lon="2.170384">
        <ele>999.4</ele>
        <time>2011-08-19T14:07:44Z</time>
      </trkpt>
      <trkpt lat="41.842519" lon="2.170212">
        <ele>1000.1</ele>
        <time>2011-08-19T14:07:44Z</time>
      </trkpt>
      <trkpt lat="41.842510" lon="2.170044">
        <ele>1000.7</ele>
        <time>2011-08-19T14:07:44Z</time>
      </trkpt>
      <trkpt lat="41.842522" lon="2.169904">
        <ele>1000.0</ele>
        <time>2011-08-19T14:07:44Z</time>
      </trkpt>
      <trkpt lat="41.842574" lon="2.169797">
        <ele>998.9</ele>
        <time>2011-08-19T14:07:44Z</time>
      </trkpt>
      <trkpt lat="41.842608" lon="2.169720">
        <ele>998.5</ele>
        <time>2011-08-19T14:07:44Z</time>
      </trkpt>
      <trkpt lat="41.842658" lon="2.169655">
        <ele>998.1</ele>
        <time>2011-08-19T14:07:44Z</time>
      </trkpt>
      <trkpt lat="41.842692" lon="2.169616">
        <ele>998.2</ele>
        <time>2011-08-19T14:07:44Z</time>
      </trkpt>
      <trkpt lat="41.842731" lon="2.169503">
        <ele>998.8</ele>
        <time>2011-08-19T14:07:44Z</time>
      </trkpt>
      <trkpt lat="41.842715" lon="2.169372">
        <ele>999.3</ele>
        <time>2011-08-19T14:07:44Z</time>
      </trkpt>
      <trkpt lat="41.842689" lon="2.169272">
        <ele>999.4</ele>
        <time>2011-08-19T14:07:44Z</time>
      </trkpt>
      <trkpt lat="41.842647" lon="2.169168">
        <ele>999.6</ele>
        <time>2011-08-19T14:07:44Z</time>
      </trkpt>
      <trkpt lat="41.842588" lon="2.169073">
        <ele>999.4</ele>
        <time>2011-08-19T14:07:44Z</time>
      </trkpt>
      <trkpt lat="41.842541" lon="2.169034">
        <ele>999.0</ele>
        <time>2011-08-19T14:07:44Z</time>
      </trkpt>
      <trkpt lat="41.842487" lon="2.168979">
        <ele>998.3</ele>
        <time>2011-08-19T14:07:44Z</time>
      </trkpt>
      <trkpt lat="41.842448" lon="2.168941">
        <ele>997.7</ele>
        <time>2011-08-19T14:07:44Z</time>
      </trkpt>
      <trkpt lat="41.842394" lon="2.168876">
        <ele>997.0</ele>
        <time>2011-08-19T14:07:44Z</time>
      </trkpt>
      <trkpt lat="41.842332" lon="2.168762">
        <ele>996.3</ele>
        <time>2011-08-19T14:07:44Z</time>
      </trkpt>
      <trkpt lat="41.842289" lon="2.168678">
        <ele>995.6</ele>
        <time>2011-08-19T14:07:44Z</time>
      </trkpt>
      <trkpt lat="41.842252" lon="2.168565">
        <ele>994.7</ele>
        <time>2011-08-19T14:07:44Z</time>
      </trkpt>
      <trkpt lat="41.842225" lon="2.168393">
        <ele>992.7</ele>
        <time>2011-08-19T14:07:44Z</time>
      </trkpt>
      <trkpt lat="41.842233" lon="2.168272">
        <ele>991.7</ele>
        <time>2011-08-19T14:07:44Z</time>
      </trkpt>
      <trkpt lat="41.842236" lon="2.168128">
        <ele>990.4</ele>
        <time>2011-08-19T14:07:44Z</time>
      </trkpt>
      <trkpt lat="41.842248" lon="2.168019">
        <ele>989.5</ele>
        <time>2011-08-19T14:07:44Z</time>
      </trkpt>
      <trkpt lat="41.842264" lon="2.167891">
        <ele>988.3</ele>
        <time>2011-08-19T14:07:44Z</time>
      </trkpt>
      <trkpt lat="41.842270" lon="2.167759">
        <ele>987.4</ele>
        <time>2011-08-19T14:07:44Z</time>
      </trkpt>
      <trkpt lat="41.842262" lon="2.167626">
        <ele>986.7</ele>
        <time>2011-08-19T14:07:44Z</time>
      </trkpt>
      <trkpt lat="41.842260" lon="2.167492">
        <ele>986.0</ele>
        <time>2011-08-19T14:07:44Z</time>
      </trkpt>
      <trkpt lat="41.842251" lon="2.167362">
        <ele>985.4</ele>
        <time>2011-08-19T14:07:44Z</time>
      </trkpt>
      <trkpt lat="41.842234" lon="2.167237">
        <ele>984.9</ele>
        <time>2011-08-19T14:07:44Z</time>
      </trkpt>
      <trkpt lat="41.842209" lon="2.167110">
        <ele>984.2</ele>
        <time>2011-08-19T14:07:44Z</time>
      </trkpt>
      <trkpt lat="41.842178" lon="2.166959">
        <ele>983.0</ele>
        <time>2011-08-19T14:07:44Z</time>
      </trkpt>
      <trkpt lat="41.842145" lon="2.166766">
        <ele>981.3</ele>
        <time>2011-08-19T14:07:44Z</time>
      </trkpt>
      <trkpt lat="41.842115" lon="2.166643">
        <ele>980.7</ele>
        <time>2011-08-19T14:07:44Z</time>
      </trkpt>
      <trkpt lat="41.842095" lon="2.166518">
        <ele>980.4</ele>
        <time>2011-08-19T14:07:44Z</time>
      </trkpt>
      <trkpt lat="41.842071" lon="2.166408">
        <ele>980.1</ele>
        <time>2011-08-19T14:07:44Z</time>
      </trkpt>
      <trkpt lat="41.842046" lon="2.166340">
        <ele>979.8</ele>
        <time>2011-08-19T14:07:44Z</time>
      </trkpt>
      <trkpt lat="41.842010" lon="2.166170">
        <ele>979.0</ele>
        <time>2011-08-19T14:07:44Z</time>
      </trkpt>
      <trkpt lat="41.841993" lon="2.166049">
        <ele>978.4</ele>
        <time>2011-08-19T14:07:44Z</time>
      </trkpt>
      <trkpt lat="41.841977" lon="2.165956">
        <ele>977.9</ele>
        <time>2011-08-19T14:07:44Z</time>
      </trkpt>
      <trkpt lat="41.841963" lon="2.165801">
        <ele>977.1</ele>
        <time>2011-08-19T14:07:44Z</time>
      </trkpt>
      <trkpt lat="41.841944" lon="2.165661">
        <ele>976.5</ele>
        <time>2011-08-19T14:07:44Z</time>
      </trkpt>
      <trkpt lat="41.841932" lon="2.165519">
        <ele>975.7</ele>
        <time>2011-08-19T14:07:44Z</time>
      </trkpt>
      <trkpt lat="41.841919" lon="2.165406">
        <ele>975.2</ele>
        <time>2011-08-19T14:07:44Z</time>
      </trkpt>
      <trkpt lat="41.841902" lon="2.165260">
        <ele>974.3</ele>
        <time>2011-08-19T14:07:44Z</time>
      </trkpt>
      <trkpt lat="41.841888" lon="2.165139">
        <ele>973.3</ele>
        <time>2011-08-19T14:07:44Z</time>
      </trkpt>
      <trkpt lat="41.841860" lon="2.165022">
        <ele>972.4</ele>
        <time>2011-08-19T14:07:44Z</time>
      </trkpt>
      <trkpt lat="41.841837" lon="2.164895">
        <ele>971.5</ele>
        <time>2011-08-19T14:07:44Z</time>
      </trkpt>
      <trkpt lat="41.841812" lon="2.164776">
        <ele>971.3</ele>
        <time>2011-08-19T14:07:44Z</time>
      </trkpt>
      <trkpt lat="41.841788" lon="2.164683">
        <ele>971.4</ele>
        <time>2011-08-19T14:07:44Z</time>
      </trkpt>
      <trkpt lat="41.841770" lon="2.164617">
        <ele>971.5</ele>
        <time>2011-08-19T14:07:44Z</time>
      </trkpt>
      <trkpt lat="41.841751" lon="2.164473">
        <ele>971.5</ele>
        <time>2011-08-19T14:07:44Z</time>
      </trkpt>
      <trkpt lat="41.841739" lon="2.164360">
        <ele>971.5</ele>
        <time>2011-08-19T14:07:44Z</time>
      </trkpt>
      <trkpt lat="41.841745" lon="2.164279">
        <ele>971.1</ele>
        <time>2011-08-19T14:07:44Z</time>
      </trkpt>
      <trkpt lat="41.841776" lon="2.164164">
        <ele>971.5</ele>
        <time>2011-08-19T14:07:44Z</time>
      </trkpt>
      <trkpt lat="41.841836" lon="2.164059">
        <ele>971.4</ele>
        <time>2011-08-19T14:07:44Z</time>
      </trkpt>
      <trkpt lat="41.841887" lon="2.163948">
        <ele>971.5</ele>
        <time>2011-08-19T14:07:44Z</time>
      </trkpt>
      <trkpt lat="41.841931" lon="2.163831">
        <ele>972.1</ele>
        <time>2011-08-19T14:07:44Z</time>
      </trkpt>
      <trkpt lat="41.841967" lon="2.163760">
        <ele>972.4</ele>
        <time>2011-08-19T14:07:44Z</time>
      </trkpt>
      <trkpt lat="41.842005" lon="2.163702">
        <ele>972.5</ele>
        <time>2011-08-19T14:07:44Z</time>
      </trkpt>
      <trkpt lat="41.842034" lon="2.163627">
        <ele>973.2</ele>
        <time>2011-08-19T14:07:44Z</time>
      </trkpt>
      <trkpt lat="41.842061" lon="2.163540">
        <ele>974.3</ele>
        <time>2011-08-19T14:07:44Z</time>
      </trkpt>
      <trkpt lat="41.842066" lon="2.163393">
        <ele>974.8</ele>
        <time>2011-08-19T14:07:44Z</time>
      </trkpt>
      <trkpt lat="41.842054" lon="2.163280">
        <ele>975.3</ele>
        <time>2011-08-19T14:07:44Z</time>
      </trkpt>
      <trkpt lat="41.842034" lon="2.163147">
        <ele>976.0</ele>
        <time>2011-08-19T14:07:44Z</time>
      </trkpt>
      <trkpt lat="41.842021" lon="2.163058">
        <ele>976.4</ele>
        <time>2011-08-19T14:07:44Z</time>
      </trkpt>
      <trkpt lat="41.842002" lon="2.162900">
        <ele>977.0</ele>
        <time>2011-08-19T14:07:44Z</time>
      </trkpt>
      <trkpt lat="41.841987" lon="2.162762">
        <ele>977.6</ele>
        <time>2011-08-19T14:07:44Z</time>
      </trkpt>
      <trkpt lat="41.841975" lon="2.162616">
        <ele>978.0</ele>
        <time>2011-08-19T14:07:44Z</time>
      </trkpt>
      <trkpt lat="41.841963" lon="2.162491">
        <ele>978.5</ele>
        <time>2011-08-19T14:07:44Z</time>
      </trkpt>
      <trkpt lat="41.841962" lon="2.162350">
        <ele>978.8</ele>
        <time>2011-08-19T14:07:44Z</time>
      </trkpt>
      <trkpt lat="41.841953" lon="2.162229">
        <ele>979.4</ele>
        <time>2011-08-19T14:07:44Z</time>
      </trkpt>
      <trkpt lat="41.841955" lon="2.162110">
        <ele>979.6</ele>
        <time>2011-08-19T14:07:44Z</time>
      </trkpt>
      <trkpt lat="41.841948" lon="2.161972">
        <ele>980.2</ele>
        <time>2011-08-19T14:07:44Z</time>
      </trkpt>
      <trkpt lat="41.841934" lon="2.161813">
        <ele>981.0</ele>
        <time>2011-08-19T14:07:44Z</time>
      </trkpt>
      <trkpt lat="41.841925" lon="2.161673">
        <ele>981.7</ele>
        <time>2011-08-19T14:07:44Z</time>
      </trkpt>
      <trkpt lat="41.841921" lon="2.161545">
        <ele>982.3</ele>
        <time>2011-08-19T14:07:44Z</time>
      </trkpt>
      <trkpt lat="41.841913" lon="2.161409">
        <ele>983.1</ele>
        <time>2011-08-19T14:07:44Z</time>
      </trkpt>
      <trkpt lat="41.841912" lon="2.161271">
        <ele>983.7</ele>
        <time>2011-08-19T14:07:44Z</time>
      </trkpt>
      <trkpt lat="41.841916" lon="2.161116">
        <ele>984.2</ele>
        <time>2011-08-19T14:07:44Z</time>
      </trkpt>
      <trkpt lat="41.841920" lon="2.160980">
        <ele>984.5</ele>
        <time>2011-08-19T14:07:44Z</time>
      </trkpt>
      <trkpt lat="41.841935" lon="2.160881">
        <ele>984.0</ele>
        <time>2011-08-19T14:07:44Z</time>
      </trkpt>
      <trkpt lat="41.841936" lon="2.160784">
        <ele>984.0</ele>
        <time>2011-08-19T14:07:44Z</time>
      </trkpt>
      <trkpt lat="41.841935" lon="2.160665">
        <ele>984.0</ele>
        <time>2011-08-19T14:07:44Z</time>
      </trkpt>
      <trkpt lat="41.841936" lon="2.160573">
        <ele>983.9</ele>
        <time>2011-08-19T14:07:44Z</time>
      </trkpt>
      <trkpt lat="41.841937" lon="2.160461">
        <ele>983.9</ele>
        <time>2011-08-19T14:07:44Z</time>
      </trkpt>
      <trkpt lat="41.841926" lon="2.160252">
        <ele>984.2</ele>
        <time>2011-08-19T14:07:44Z</time>
      </trkpt>
      <trkpt lat="41.841928" lon="2.160084">
        <ele>984.8</ele>
        <time>2011-08-19T14:07:44Z</time>
      </trkpt>
      <trkpt lat="41.841939" lon="2.159937">
        <ele>985.1</ele>
        <time>2011-08-19T14:07:44Z</time>
      </trkpt>
      <trkpt lat="41.841962" lon="2.159803">
        <ele>984.7</ele>
        <time>2011-08-19T14:07:44Z</time>
      </trkpt>
      <trkpt lat="41.841969" lon="2.159693">
        <ele>984.6</ele>
        <time>2011-08-19T14:07:44Z</time>
      </trkpt>
      <trkpt lat="41.841965" lon="2.159571">
        <ele>984.8</ele>
        <time>2011-08-19T14:07:44Z</time>
      </trkpt>
      <trkpt lat="41.841907" lon="2.159440">
        <ele>985.1</ele>
        <time>2011-08-19T14:07:44Z</time>
      </trkpt>
      <trkpt lat="41.841857" lon="2.159337">
        <ele>985.1</ele>
        <time>2011-08-19T14:07:44Z</time>
      </trkpt>
      <trkpt lat="41.841796" lon="2.159236">
        <ele>985.4</ele>
        <time>2011-08-19T14:07:44Z</time>
      </trkpt>
      <trkpt lat="41.841774" lon="2.159136">
        <ele>985.6</ele>
        <time>2011-08-19T14:07:44Z</time>
      </trkpt>
      <trkpt lat="41.841775" lon="2.159072">
        <ele>985.7</ele>
        <time>2011-08-19T14:07:44Z</time>
      </trkpt>
      <trkpt lat="41.841784" lon="2.159004">
        <ele>985.6</ele>
        <time>2011-08-19T14:07:44Z</time>
      </trkpt>
      <trkpt lat="41.841817" lon="2.158912">
        <ele>985.0</ele>
        <time>2011-08-19T14:07:44Z</time>
      </trkpt>
      <trkpt lat="41.841869" lon="2.158811">
        <ele>984.6</ele>
        <time>2011-08-19T14:07:44Z</time>
      </trkpt>
      <trkpt lat="41.841921" lon="2.158741">
        <ele>985.1</ele>
        <time>2011-08-19T14:07:44Z</time>
      </trkpt>
      <trkpt lat="41.841996" lon="2.158631">
        <ele>985.8</ele>
        <time>2011-08-19T14:07:44Z</time>
      </trkpt>
      <trkpt lat="41.842064" lon="2.158556">
        <ele>985.9</ele>
        <time>2011-08-19T14:07:44Z</time>
      </trkpt>
      <trkpt lat="41.842146" lon="2.158421">
        <ele>987.7</ele>
        <time>2011-08-19T14:07:44Z</time>
      </trkpt>
      <trkpt lat="41.842201" lon="2.158354">
        <ele>988.0</ele>
        <time>2011-08-19T14:07:44Z</time>
      </trkpt>
      <trkpt lat="41.842256" lon="2.158273">
        <ele>988.3</ele>
        <time>2011-08-19T14:07:44Z</time>
      </trkpt>
      <trkpt lat="41.842292" lon="2.158202">
        <ele>988.4</ele>
        <time>2011-08-19T14:07:44Z</time>
      </trkpt>
      <trkpt lat="41.842341" lon="2.158106">
        <ele>988.3</ele>
        <time>2011-08-19T14:07:44Z</time>
      </trkpt>
      <trkpt lat="41.842426" lon="2.157969">
        <ele>988.0</ele>
        <time>2011-08-19T14:07:44Z</time>
      </trkpt>
      <trkpt lat="41.842513" lon="2.157802">
        <ele>988.3</ele>
        <time>2011-08-19T14:07:44Z</time>
      </trkpt>
      <trkpt lat="41.842593" lon="2.157671">
        <ele>988.0</ele>
        <time>2011-08-19T14:07:44Z</time>
      </trkpt>
      <trkpt lat="41.842658" lon="2.157547">
        <ele>988.3</ele>
        <time>2011-08-19T14:07:44Z</time>
      </trkpt>
      <trkpt lat="41.842699" lon="2.157485">
        <ele>988.3</ele>
        <time>2011-08-19T14:07:44Z</time>
      </trkpt>
      <trkpt lat="41.842742" lon="2.157376">
        <ele>988.9</ele>
        <time>2011-08-19T14:07:44Z</time>
      </trkpt>
      <trkpt lat="41.842791" lon="2.157222">
        <ele>988.5</ele>
        <time>2011-08-19T14:07:44Z</time>
      </trkpt>
      <trkpt lat="41.842810" lon="2.157143">
        <ele>988.6</ele>
        <time>2011-08-19T14:07:44Z</time>
      </trkpt>
      <trkpt lat="41.842833" lon="2.157009">
        <ele>989.2</ele>
        <time>2011-08-19T14:07:44Z</time>
      </trkpt>
      <trkpt lat="41.842860" lon="2.156894">
        <ele>989.0</ele>
        <time>2011-08-19T14:07:44Z</time>
      </trkpt>
      <trkpt lat="41.842882" lon="2.156742">
        <ele>989.1</ele>
        <time>2011-08-19T14:07:44Z</time>
      </trkpt>
      <trkpt lat="41.842912" lon="2.156644">
        <ele>989.4</ele>
        <time>2011-08-19T14:07:44Z</time>
      </trkpt>
      <trkpt lat="41.842949" lon="2.156535">
        <ele>989.3</ele>
        <time>2011-08-19T14:07:44Z</time>
      </trkpt>
      <trkpt lat="41.842975" lon="2.156416">
        <ele>989.2</ele>
        <time>2011-08-19T14:07:44Z</time>
      </trkpt>
      <trkpt lat="41.842992" lon="2.156301">
        <ele>989.2</ele>
        <time>2011-08-19T14:07:44Z</time>
      </trkpt>
      <trkpt lat="41.843002" lon="2.156150">
        <ele>988.7</ele>
        <time>2011-08-19T14:07:44Z</time>
      </trkpt>
      <trkpt lat="41.842993" lon="2.156012">
        <ele>987.8</ele>
        <time>2011-08-19T14:07:44Z</time>
      </trkpt>
      <trkpt lat="41.842995" lon="2.155875">
        <ele>986.9</ele>
        <time>2011-08-19T14:07:44Z</time>
      </trkpt>
      <trkpt lat="41.842990" lon="2.155756">
        <ele>985.8</ele>
        <time>2011-08-19T14:07:44Z</time>
      </trkpt>
      <trkpt lat="41.843000" lon="2.155637">
        <ele>985.1</ele>
        <time>2011-08-19T14:07:44Z</time>
      </trkpt>
      <trkpt lat="41.843015" lon="2.155507">
        <ele>984.5</ele>
        <time>2011-08-19T14:07:44Z</time>
      </trkpt>
      <trkpt lat="41.843018" lon="2.155352">
        <ele>983.6</ele>
        <time>2011-08-19T14:07:44Z</time>
      </trkpt>
      <trkpt lat="41.843032" lon="2.155203">
        <ele>983.0</ele>
        <time>2011-08-19T14:07:44Z</time>
      </trkpt>
      <trkpt lat="41.843035" lon="2.155078">
        <ele>982.8</ele>
        <time>2011-08-19T14:07:44Z</time>
      </trkpt>
      <trkpt lat="41.843037" lon="2.154918">
        <ele>982.4</ele>
        <time>2011-08-19T14:07:44Z</time>
      </trkpt>
      <trkpt lat="41.843036" lon="2.154774">
        <ele>982.2</ele>
        <time>2011-08-19T14:07:44Z</time>
      </trkpt>
      <trkpt lat="41.843032" lon="2.154642">
        <ele>982.1</ele>
        <time>2011-08-19T14:07:44Z</time>
      </trkpt>
      <trkpt lat="41.843017" lon="2.154480">
        <ele>981.7</ele>
        <time>2011-08-19T14:07:44Z</time>
      </trkpt>
      <trkpt lat="41.843011" lon="2.154368">
        <ele>981.4</ele>
        <time>2011-08-19T14:07:44Z</time>
      </trkpt>
      <trkpt lat="41.843012" lon="2.154242">
        <ele>981.2</ele>
        <time>2011-08-19T14:07:44Z</time>
      </trkpt>
      <trkpt lat="41.843010" lon="2.154047">
        <ele>980.6</ele>
        <time>2011-08-19T14:07:44Z</time>
      </trkpt>
      <trkpt lat="41.843016" lon="2.153951">
        <ele>980.2</ele>
        <time>2011-08-19T14:07:44Z</time>
      </trkpt>
      <trkpt lat="41.843020" lon="2.153860">
        <ele>979.7</ele>
        <time>2011-08-19T14:07:44Z</time>
      </trkpt>
      <trkpt lat="41.843025" lon="2.153696">
        <ele>978.8</ele>
        <time>2011-08-19T14:07:44Z</time>
      </trkpt>
      <trkpt lat="41.843028" lon="2.153564">
        <ele>977.9</ele>
        <time>2011-08-19T14:07:44Z</time>
      </trkpt>
      <trkpt lat="41.843030" lon="2.153468">
        <ele>977.2</ele>
        <time>2011-08-19T14:07:44Z</time>
      </trkpt>
      <trkpt lat="41.843032" lon="2.153345">
        <ele>976.3</ele>
        <time>2011-08-19T14:07:44Z</time>
      </trkpt>
      <trkpt lat="41.843033" lon="2.153217">
        <ele>975.0</ele>
        <time>2011-08-19T14:07:44Z</time>
      </trkpt>
      <trkpt lat="41.843034" lon="2.153105">
        <ele>973.9</ele>
        <time>2011-08-19T14:07:44Z</time>
      </trkpt>
      <trkpt lat="41.843020" lon="2.152964">
        <ele>972.8</ele>
        <time>2011-08-19T14:07:44Z</time>
      </trkpt>
      <trkpt lat="41.843006" lon="2.152812">
        <ele>972.0</ele>
        <time>2011-08-19T14:07:44Z</time>
      </trkpt>
      <trkpt lat="41.842999" lon="2.152707">
        <ele>971.5</ele>
        <time>2011-08-19T14:07:44Z</time>
      </trkpt>
      <trkpt lat="41.842989" lon="2.152582">
        <ele>971.8</ele>
        <time>2011-08-19T14:07:44Z</time>
      </trkpt>
      <trkpt lat="41.842991" lon="2.152472">
        <ele>972.1</ele>
        <time>2011-08-19T14:07:44Z</time>
      </trkpt>
      <trkpt lat="41.843000" lon="2.152397">
        <ele>972.1</ele>
        <time>2011-08-19T14:07:44Z</time>
      </trkpt>
      <trkpt lat="41.843012" lon="2.152293">
        <ele>972.1</ele>
        <time>2011-08-19T14:07:44Z</time>
      </trkpt>
      <trkpt lat="41.843035" lon="2.152169">
        <ele>972.3</ele>
        <time>2011-08-19T14:07:44Z</time>
      </trkpt>
      <trkpt lat="41.843064" lon="2.152084">
        <ele>971.9</ele>
        <time>2011-08-19T14:07:44Z</time>
      </trkpt>
      <trkpt lat="41.843091" lon="2.151994">
        <ele>971.6</ele>
        <time>2011-08-19T14:07:44Z</time>
      </trkpt>
      <trkpt lat="41.843126" lon="2.151877">
        <ele>971.4</ele>
        <time>2011-08-19T14:07:44Z</time>
      </trkpt>
      <trkpt lat="41.843165" lon="2.151763">
        <ele>971.2</ele>
        <time>2011-08-19T14:07:44Z</time>
      </trkpt>
      <trkpt lat="41.843193" lon="2.151635">
        <ele>971.5</ele>
        <time>2011-08-19T14:07:44Z</time>
      </trkpt>
      <trkpt lat="41.843227" lon="2.151454">
        <ele>971.8</ele>
        <time>2011-08-19T14:07:44Z</time>
      </trkpt>
      <trkpt lat="41.843251" lon="2.151318">
        <ele>972.1</ele>
        <time>2011-08-19T14:07:44Z</time>
      </trkpt>
      <trkpt lat="41.843285" lon="2.151164">
        <ele>972.1</ele>
        <time>2011-08-19T14:07:44Z</time>
      </trkpt>
      <trkpt lat="41.843315" lon="2.151098">
        <ele>971.5</ele>
        <time>2011-08-19T14:07:44Z</time>
      </trkpt>
      <trkpt lat="41.843347" lon="2.151034">
        <ele>971.1</ele>
        <time>2011-08-19T14:07:44Z</time>
      </trkpt>
      <trkpt lat="41.843414" lon="2.150958">
        <ele>970.7</ele>
        <time>2011-08-19T14:07:44Z</time>
      </trkpt>
      <trkpt lat="41.843505" lon="2.150887">
        <ele>970.5</ele>
        <time>2011-08-19T14:07:44Z</time>
      </trkpt>
      <trkpt lat="41.843573" lon="2.150829">
        <ele>970.3</ele>
        <time>2011-08-19T14:07:44Z</time>
      </trkpt>
      <trkpt lat="41.843637" lon="2.150785">
        <ele>969.7</ele>
        <time>2011-08-19T14:07:44Z</time>
      </trkpt>
      <trkpt lat="41.843742" lon="2.150693">
        <ele>968.9</ele>
        <time>2011-08-19T14:07:44Z</time>
      </trkpt>
      <trkpt lat="41.843826" lon="2.150611">
        <ele>969.3</ele>
        <time>2011-08-19T14:07:44Z</time>
      </trkpt>
      <trkpt lat="41.843902" lon="2.150538">
        <ele>970.1</ele>
        <time>2011-08-19T14:07:44Z</time>
      </trkpt>
      <trkpt lat="41.843992" lon="2.150462">
        <ele>970.3</ele>
        <time>2011-08-19T14:07:44Z</time>
      </trkpt>
      <trkpt lat="41.844061" lon="2.150399">
        <ele>970.1</ele>
        <time>2011-08-19T14:07:44Z</time>
      </trkpt>
      <trkpt lat="41.844148" lon="2.150298">
        <ele>970.6</ele>
        <time>2011-08-19T14:07:44Z</time>
      </trkpt>
      <trkpt lat="41.844243" lon="2.150231">
        <ele>971.0</ele>
        <time>2011-08-19T14:07:44Z</time>
      </trkpt>
      <trkpt lat="41.844312" lon="2.150162">
        <ele>972.0</ele>
        <time>2011-08-19T14:07:44Z</time>
      </trkpt>
      <trkpt lat="41.844350" lon="2.150085">
        <ele>972.7</ele>
        <time>2011-08-19T14:07:44Z</time>
      </trkpt>
      <trkpt lat="41.844349" lon="2.150013">
        <ele>972.6</ele>
        <time>2011-08-19T14:07:44Z</time>
      </trkpt>
      <trkpt lat="41.844374" lon="2.149898">
        <ele>972.9</ele>
        <time>2011-08-19T14:07:44Z</time>
      </trkpt>
      <trkpt lat="41.844408" lon="2.149746">
        <ele>973.7</ele>
        <time>2011-08-19T14:07:44Z</time>
      </trkpt>
      <trkpt lat="41.844423" lon="2.149655">
        <ele>973.8</ele>
        <time>2011-08-19T14:07:44Z</time>
      </trkpt>
      <trkpt lat="41.844417" lon="2.149519">
        <ele>973.3</ele>
        <time>2011-08-19T14:07:44Z</time>
      </trkpt>
      <trkpt lat="41.844398" lon="2.149406">
        <ele>972.3</ele>
        <time>2011-08-19T14:07:44Z</time>
      </trkpt>
      <trkpt lat="41.844374" lon="2.149302">
        <ele>973.0</ele>
        <time>2011-08-19T14:07:44Z</time>
      </trkpt>
      <trkpt lat="41.844328" lon="2.149212">
        <ele>972.6</ele>
        <time>2011-08-19T14:07:44Z</time>
      </trkpt>
      <trkpt lat="41.844281" lon="2.149099">
        <ele>972.3</ele>
        <time>2011-08-19T14:07:44Z</time>
      </trkpt>
      <trkpt lat="41.844232" lon="2.148983">
        <ele>972.5</ele>
        <time>2011-08-19T14:07:44Z</time>
      </trkpt>
      <trkpt lat="41.844190" lon="2.148892">
        <ele>972.8</ele>
        <time>2011-08-19T14:07:44Z</time>
      </trkpt>
      <trkpt lat="41.844156" lon="2.148835">
        <ele>972.6</ele>
        <time>2011-08-19T14:07:44Z</time>
      </trkpt>
      <trkpt lat="41.844130" lon="2.148763">
        <ele>973.0</ele>
        <time>2011-08-19T14:07:44Z</time>
      </trkpt>
      <trkpt lat="41.844098" lon="2.148672">
        <ele>973.5</ele>
        <time>2011-08-19T14:07:44Z</time>
      </trkpt>
      <trkpt lat="41.844075" lon="2.148600">
        <ele>974.0</ele>
        <time>2011-08-19T14:07:44Z</time>
      </trkpt>
      <trkpt lat="41.844057" lon="2.148530">
        <ele>974.6</ele>
        <time>2011-08-19T14:07:44Z</time>
      </trkpt>
      <trkpt lat="41.844017" lon="2.148444">
        <ele>974.7</ele>
        <time>2011-08-19T14:07:44Z</time>
      </trkpt>
      <trkpt lat="41.843973" lon="2.148340">
        <ele>974.9</ele>
        <time>2011-08-19T14:07:44Z</time>
      </trkpt>
      <trkpt lat="41.843938" lon="2.148275">
        <ele>975.1</ele>
        <time>2011-08-19T14:07:44Z</time>
      </trkpt>
      <trkpt lat="41.843896" lon="2.148218">
        <ele>975.1</ele>
        <time>2011-08-19T14:07:44Z</time>
      </trkpt>
      <trkpt lat="41.843857" lon="2.148169">
        <ele>975.1</ele>
        <time>2011-08-19T14:07:44Z</time>
      </trkpt>
      <trkpt lat="41.843796" lon="2.148100">
        <ele>975.3</ele>
        <time>2011-08-19T14:07:44Z</time>
      </trkpt>
      <trkpt lat="41.843718" lon="2.147999">
        <ele>975.8</ele>
        <time>2011-08-19T14:07:44Z</time>
      </trkpt>
      <trkpt lat="41.843669" lon="2.147932">
        <ele>975.7</ele>
        <time>2011-08-19T14:07:44Z</time>
      </trkpt>
      <trkpt lat="41.843632" lon="2.147841">
        <ele>975.7</ele>
        <time>2011-08-19T14:07:44Z</time>
      </trkpt>
      <trkpt lat="41.843614" lon="2.147743">
        <ele>976.2</ele>
        <time>2011-08-19T14:07:44Z</time>
      </trkpt>
      <trkpt lat="41.843616" lon="2.147635">
        <ele>977.6</ele>
        <time>2011-08-19T14:07:44Z</time>
      </trkpt>
      <trkpt lat="41.843633" lon="2.147545">
        <ele>978.5</ele>
        <time>2011-08-19T14:07:44Z</time>
      </trkpt>
      <trkpt lat="41.843660" lon="2.147449">
        <ele>979.5</ele>
        <time>2011-08-19T14:07:44Z</time>
      </trkpt>
      <trkpt lat="41.843683" lon="2.147355">
        <ele>980.5</ele>
        <time>2011-08-19T14:07:44Z</time>
      </trkpt>
      <trkpt lat="41.843699" lon="2.147262">
        <ele>981.2</ele>
        <time>2011-08-19T14:07:44Z</time>
      </trkpt>
      <trkpt lat="41.843715" lon="2.147172">
        <ele>981.6</ele>
        <time>2011-08-19T14:07:44Z</time>
      </trkpt>
      <trkpt lat="41.843749" lon="2.147027">
        <ele>982.4</ele>
        <time>2011-08-19T14:07:44Z</time>
      </trkpt>
      <trkpt lat="41.843759" lon="2.146921">
        <ele>982.2</ele>
        <time>2011-08-19T14:07:44Z</time>
      </trkpt>
      <trkpt lat="41.843774" lon="2.146840">
        <ele>982.4</ele>
        <time>2011-08-19T14:07:44Z</time>
      </trkpt>
      <trkpt lat="41.843791" lon="2.146746">
        <ele>982.5</ele>
        <time>2011-08-19T14:07:44Z</time>
      </trkpt>
      <trkpt lat="41.843822" lon="2.146588">
        <ele>983.0</ele>
        <time>2011-08-19T14:07:44Z</time>
      </trkpt>
      <trkpt lat="41.843846" lon="2.146482">
        <ele>983.5</ele>
        <time>2011-08-19T14:07:44Z</time>
      </trkpt>
      <trkpt lat="41.843852" lon="2.146379">
        <ele>983.5</ele>
        <time>2011-08-19T14:07:44Z</time>
      </trkpt>
      <trkpt lat="41.843854" lon="2.146228">
        <ele>983.2</ele>
        <time>2011-08-19T14:07:44Z</time>
      </trkpt>
      <trkpt lat="41.843860" lon="2.146139">
        <ele>983.5</ele>
        <time>2011-08-19T14:07:44Z</time>
      </trkpt>
      <trkpt lat="41.843856" lon="2.146014">
        <ele>984.0</ele>
        <time>2011-08-19T14:07:44Z</time>
      </trkpt>
      <trkpt lat="41.843853" lon="2.145907">
        <ele>984.5</ele>
        <time>2011-08-19T14:07:44Z</time>
      </trkpt>
      <trkpt lat="41.843822" lon="2.145782">
        <ele>984.3</ele>
        <time>2011-08-19T14:07:44Z</time>
      </trkpt>
      <trkpt lat="41.843802" lon="2.145683">
        <ele>985.1</ele>
        <time>2011-08-19T14:07:44Z</time>
      </trkpt>
      <trkpt lat="41.843760" lon="2.145570">
        <ele>985.6</ele>
        <time>2011-08-19T14:07:44Z</time>
      </trkpt>
      <trkpt lat="41.843710" lon="2.145486">
        <ele>985.6</ele>
        <time>2011-08-19T14:07:44Z</time>
      </trkpt>
      <trkpt lat="41.843603" lon="2.145377">
        <ele>985.2</ele>
        <time>2011-08-19T14:07:44Z</time>
      </trkpt>
      <trkpt lat="41.843536" lon="2.145320">
        <ele>985.7</ele>
        <time>2011-08-19T14:07:44Z</time>
      </trkpt>
      <trkpt lat="41.843469" lon="2.145287">
        <ele>985.9</ele>
        <time>2011-08-19T14:07:44Z</time>
      </trkpt>
      <trkpt lat="41.843409" lon="2.145244">
        <ele>986.3</ele>
        <time>2011-08-19T14:07:44Z</time>
      </trkpt>
      <trkpt lat="41.843333" lon="2.145176">
        <ele>986.8</ele>
        <time>2011-08-19T14:07:44Z</time>
      </trkpt>
      <trkpt lat="41.843294" lon="2.145128">
        <ele>987.1</ele>
        <time>2011-08-19T14:07:44Z</time>
      </trkpt>
      <trkpt lat="41.843271" lon="2.145001">
        <ele>988.1</ele>
        <time>2011-08-19T14:07:44Z</time>
      </trkpt>
      <trkpt lat="41.843277" lon="2.144926">
        <ele>988.6</ele>
        <time>2011-08-19T14:07:44Z</time>
      </trkpt>
      <trkpt lat="41.843306" lon="2.144841">
        <ele>989.4</ele>
        <time>2011-08-19T14:07:44Z</time>
      </trkpt>
      <trkpt lat="41.843339" lon="2.144755">
        <ele>990.4</ele>
        <time>2011-08-19T14:07:44Z</time>
      </trkpt>
      <trkpt lat="41.843397" lon="2.144644">
        <ele>991.3</ele>
        <time>2011-08-19T14:07:44Z</time>
      </trkpt>
      <trkpt lat="41.843455" lon="2.144535">
        <ele>992.0</ele>
        <time>2011-08-19T14:07:44Z</time>
      </trkpt>
      <trkpt lat="41.843521" lon="2.144413">
        <ele>992.6</ele>
        <time>2011-08-19T14:07:44Z</time>
      </trkpt>
      <trkpt lat="41.843587" lon="2.144274">
        <ele>993.1</ele>
        <time>2011-08-19T14:07:44Z</time>
      </trkpt>
      <trkpt lat="41.843653" lon="2.144181">
        <ele>993.9</ele>
        <time>2011-08-19T14:07:44Z</time>
      </trkpt>
      <trkpt lat="41.843717" lon="2.144040">
        <ele>994.4</ele>
        <time>2011-08-19T14:07:44Z</time>
      </trkpt>
      <trkpt lat="41.843765" lon="2.143935">
        <ele>994.7</ele>
        <time>2011-08-19T14:07:44Z</time>
      </trkpt>
      <trkpt lat="41.843812" lon="2.143837">
        <ele>994.9</ele>
        <time>2011-08-19T14:07:44Z</time>
      </trkpt>
      <trkpt lat="41.843848" lon="2.143751">
        <ele>994.8</ele>
        <time>2011-08-19T14:07:44Z</time>
      </trkpt>
      <trkpt lat="41.843902" lon="2.143651">
        <ele>994.7</ele>
        <time>2011-08-19T14:07:44Z</time>
      </trkpt>
      <trkpt lat="41.843952" lon="2.143550">
        <ele>994.0</ele>
        <time>2011-08-19T14:07:44Z</time>
      </trkpt>
      <trkpt lat="41.844004" lon="2.143467">
        <ele>993.0</ele>
        <time>2011-08-19T14:07:44Z</time>
      </trkpt>
      <trkpt lat="41.844092" lon="2.143442">
        <ele>992.5</ele>
        <time>2011-08-19T14:07:44Z</time>
      </trkpt>
      <trkpt lat="41.844186" lon="2.143434">
        <ele>991.8</ele>
        <time>2011-08-19T14:07:44Z</time>
      </trkpt>
      <trkpt lat="41.844287" lon="2.143459">
        <ele>991.9</ele>
        <time>2011-08-19T14:07:44Z</time>
      </trkpt>
      <trkpt lat="41.844388" lon="2.143487">
        <ele>992.5</ele>
        <time>2011-08-19T14:07:44Z</time>
      </trkpt>
      <trkpt lat="41.844484" lon="2.143496">
        <ele>992.4</ele>
        <time>2011-08-19T14:07:44Z</time>
      </trkpt>
      <trkpt lat="41.844573" lon="2.143495">
        <ele>992.1</ele>
        <time>2011-08-19T14:07:44Z</time>
      </trkpt>
      <trkpt lat="41.844675" lon="2.143481">
        <ele>991.4</ele>
        <time>2011-08-19T14:07:44Z</time>
      </trkpt>
      <trkpt lat="41.844763" lon="2.143450">
        <ele>990.2</ele>
        <time>2011-08-19T14:07:44Z</time>
      </trkpt>
      <trkpt lat="41.844855" lon="2.143419">
        <ele>989.0</ele>
        <time>2011-08-19T14:07:44Z</time>
      </trkpt>
      <trkpt lat="41.844954" lon="2.143384">
        <ele>987.6</ele>
        <time>2011-08-19T14:07:44Z</time>
      </trkpt>
      <trkpt lat="41.845008" lon="2.143366">
        <ele>987.0</ele>
        <time>2011-08-19T14:07:44Z</time>
      </trkpt>
      <trkpt lat="41.845082" lon="2.143359">
        <ele>986.7</ele>
        <time>2011-08-19T14:07:44Z</time>
      </trkpt>
      <trkpt lat="41.845152" lon="2.143345">
        <ele>986.2</ele>
        <time>2011-08-19T14:07:44Z</time>
      </trkpt>
      <trkpt lat="41.845235" lon="2.143340">
        <ele>986.6</ele>
        <time>2011-08-19T14:07:44Z</time>
      </trkpt>
      <trkpt lat="41.845328" lon="2.143315">
        <ele>987.1</ele>
        <time>2011-08-19T14:07:44Z</time>
      </trkpt>
      <trkpt lat="41.845393" lon="2.143261">
        <ele>986.5</ele>
        <time>2011-08-19T14:07:44Z</time>
      </trkpt>
      <trkpt lat="41.845439" lon="2.143169">
        <ele>985.7</ele>
        <time>2011-08-19T14:07:44Z</time>
      </trkpt>
      <trkpt lat="41.845463" lon="2.143047">
        <ele>984.7</ele>
        <time>2011-08-19T14:07:44Z</time>
      </trkpt>
      <trkpt lat="41.845465" lon="2.142930">
        <ele>983.2</ele>
        <time>2011-08-19T14:07:44Z</time>
      </trkpt>
      <trkpt lat="41.845466" lon="2.142811">
        <ele>981.4</ele>
        <time>2011-08-19T14:07:44Z</time>
      </trkpt>
      <trkpt lat="41.845464" lon="2.142705">
        <ele>979.5</ele>
        <time>2011-08-19T14:07:44Z</time>
      </trkpt>
      <trkpt lat="41.845513" lon="2.142566">
        <ele>978.7</ele>
        <time>2011-08-19T14:07:44Z</time>
      </trkpt>
      <trkpt lat="41.845546" lon="2.142493">
        <ele>978.2</ele>
        <time>2011-08-19T14:07:44Z</time>
      </trkpt>
      <trkpt lat="41.845576" lon="2.142453">
        <ele>978.0</ele>
        <time>2011-08-19T14:07:44Z</time>
      </trkpt>
      <trkpt lat="41.845626" lon="2.142358">
        <ele>976.8</ele>
        <time>2011-08-19T14:07:44Z</time>
      </trkpt>
      <trkpt lat="41.845686" lon="2.142300">
        <ele>976.6</ele>
        <time>2011-08-19T14:07:44Z</time>
      </trkpt>
      <trkpt lat="41.845770" lon="2.142233">
        <ele>975.7</ele>
        <time>2011-08-19T14:07:44Z</time>
      </trkpt>
      <trkpt lat="41.845845" lon="2.142187">
        <ele>974.9</ele>
        <time>2011-08-19T14:07:44Z</time>
      </trkpt>
      <trkpt lat="41.845936" lon="2.142150">
        <ele>974.5</ele>
        <time>2011-08-19T14:07:44Z</time>
      </trkpt>
      <trkpt lat="41.846030" lon="2.142128">
        <ele>974.4</ele>
        <time>2011-08-19T14:07:44Z</time>
      </trkpt>
      <trkpt lat="41.846125" lon="2.142114">
        <ele>974.4</ele>
        <time>2011-08-19T14:07:44Z</time>
      </trkpt>
      <trkpt lat="41.846217" lon="2.142081">
        <ele>973.9</ele>
        <time>2011-08-19T14:07:44Z</time>
      </trkpt>
      <trkpt lat="41.846321" lon="2.142068">
        <ele>973.3</ele>
        <time>2011-08-19T14:07:44Z</time>
      </trkpt>
      <trkpt lat="41.846411" lon="2.142067">
        <ele>972.7</ele>
        <time>2011-08-19T14:07:44Z</time>
      </trkpt>
      <trkpt lat="41.846497" lon="2.142070">
        <ele>972.2</ele>
        <time>2011-08-19T14:07:44Z</time>
      </trkpt>
      <trkpt lat="41.846583" lon="2.142082">
        <ele>972.3</ele>
        <time>2011-08-19T14:07:44Z</time>
      </trkpt>
      <trkpt lat="41.846678" lon="2.142068">
        <ele>971.9</ele>
        <time>2011-08-19T14:07:44Z</time>
      </trkpt>
      <trkpt lat="41.846750" lon="2.142039">
        <ele>971.1</ele>
        <time>2011-08-19T14:07:44Z</time>
      </trkpt>
      <trkpt lat="41.846832" lon="2.142028">
        <ele>970.7</ele>
        <time>2011-08-19T14:07:44Z</time>
      </trkpt>
      <trkpt lat="41.846891" lon="2.141997">
        <ele>969.9</ele>
        <time>2011-08-19T14:07:44Z</time>
      </trkpt>
      <trkpt lat="41.846968" lon="2.141953">
        <ele>968.8</ele>
        <time>2011-08-19T14:07:44Z</time>
      </trkpt>
      <trkpt lat="41.847079" lon="2.141912">
        <ele>967.8</ele>
        <time>2011-08-19T14:07:44Z</time>
      </trkpt>
      <trkpt lat="41.847178" lon="2.141897">
        <ele>966.5</ele>
        <time>2011-08-19T14:07:44Z</time>
      </trkpt>
      <trkpt lat="41.847265" lon="2.141920">
        <ele>966.1</ele>
        <time>2011-08-19T14:07:44Z</time>
      </trkpt>
      <trkpt lat="41.847353" lon="2.141984">
        <ele>966.2</ele>
        <time>2011-08-19T14:07:44Z</time>
      </trkpt>
      <trkpt lat="41.847464" lon="2.142049">
        <ele>965.7</ele>
        <time>2011-08-19T14:07:44Z</time>
      </trkpt>
      <trkpt lat="41.847549" lon="2.142050">
        <ele>964.4</ele>
        <time>2011-08-19T14:07:44Z</time>
      </trkpt>
      <trkpt lat="41.847613" lon="2.142038">
        <ele>963.5</ele>
        <time>2011-08-19T14:07:44Z</time>
      </trkpt>
      <trkpt lat="41.847681" lon="2.141995">
        <ele>963.3</ele>
        <time>2011-08-19T14:07:44Z</time>
      </trkpt>
      <trkpt lat="41.847757" lon="2.141935">
        <ele>962.8</ele>
        <time>2011-08-19T14:07:44Z</time>
      </trkpt>
      <trkpt lat="41.847852" lon="2.141867">
        <ele>962.0</ele>
        <time>2011-08-19T14:07:44Z</time>
      </trkpt>
      <trkpt lat="41.847929" lon="2.141807">
        <ele>961.1</ele>
        <time>2011-08-19T14:07:44Z</time>
      </trkpt>
      <trkpt lat="41.848002" lon="2.141738">
        <ele>960.0</ele>
        <time>2011-08-19T14:07:44Z</time>
      </trkpt>
      <trkpt lat="41.848047" lon="2.141667">
        <ele>959.1</ele>
        <time>2011-08-19T14:07:44Z</time>
      </trkpt>
      <trkpt lat="41.848083" lon="2.141586">
        <ele>957.9</ele>
        <time>2011-08-19T14:07:44Z</time>
      </trkpt>
      <trkpt lat="41.848089" lon="2.141494">
        <ele>956.4</ele>
        <time>2011-08-19T14:07:44Z</time>
      </trkpt>
      <trkpt lat="41.848060" lon="2.141397">
        <ele>954.9</ele>
        <time>2011-08-19T14:07:44Z</time>
      </trkpt>
      <trkpt lat="41.847962" lon="2.141343">
        <ele>954.2</ele>
        <time>2011-08-19T14:07:44Z</time>
      </trkpt>
      <trkpt lat="41.847857" lon="2.141336">
        <ele>954.1</ele>
        <time>2011-08-19T14:07:44Z</time>
      </trkpt>
      <trkpt lat="41.847741" lon="2.141312">
        <ele>953.2</ele>
        <time>2011-08-19T14:07:44Z</time>
      </trkpt>
      <trkpt lat="41.847670" lon="2.141317">
        <ele>952.8</ele>
        <time>2011-08-19T14:07:44Z</time>
      </trkpt>
      <trkpt lat="41.847546" lon="2.141310">
        <ele>952.6</ele>
        <time>2011-08-19T14:07:44Z</time>
      </trkpt>
      <trkpt lat="41.847476" lon="2.141307">
        <ele>952.8</ele>
        <time>2011-08-19T14:07:44Z</time>
      </trkpt>
      <trkpt lat="41.847391" lon="2.141274">
        <ele>952.7</ele>
        <time>2011-08-19T14:07:44Z</time>
      </trkpt>
      <trkpt lat="41.847278" lon="2.141263">
        <ele>953.0</ele>
        <time>2011-08-19T14:07:44Z</time>
      </trkpt>
      <trkpt lat="41.847192" lon="2.141253">
        <ele>953.0</ele>
        <time>2011-08-19T14:07:44Z</time>
      </trkpt>
      <trkpt lat="41.847133" lon="2.141241">
        <ele>952.9</ele>
        <time>2011-08-19T14:07:44Z</time>
      </trkpt>
      <trkpt lat="41.847044" lon="2.141230">
        <ele>952.8</ele>
        <time>2011-08-19T14:07:44Z</time>
      </trkpt>
      <trkpt lat="41.846968" lon="2.141241">
        <ele>952.7</ele>
        <time>2011-08-19T14:07:44Z</time>
      </trkpt>
      <trkpt lat="41.846852" lon="2.141232">
        <ele>952.1</ele>
        <time>2011-08-19T14:07:44Z</time>
      </trkpt>
      <trkpt lat="41.846758" lon="2.141233">
        <ele>951.8</ele>
        <time>2011-08-19T14:07:44Z</time>
      </trkpt>
      <trkpt lat="41.846690" lon="2.141236">
        <ele>951.7</ele>
        <time>2011-08-19T14:07:44Z</time>
      </trkpt>
      <trkpt lat="41.846610" lon="2.141235">
        <ele>951.5</ele>
        <time>2011-08-19T14:07:44Z</time>
      </trkpt>
      <trkpt lat="41.846518" lon="2.141226">
        <ele>951.1</ele>
        <time>2011-08-19T14:07:44Z</time>
      </trkpt>
      <trkpt lat="41.846418" lon="2.141223">
        <ele>951.0</ele>
        <time>2011-08-19T14:07:44Z</time>
      </trkpt>
      <trkpt lat="41.846324" lon="2.141222">
        <ele>950.9</ele>
        <time>2011-08-19T14:07:44Z</time>
      </trkpt>
      <trkpt lat="41.846214" lon="2.141215">
        <ele>950.5</ele>
        <time>2011-08-19T14:07:44Z</time>
      </trkpt>
      <trkpt lat="41.846097" lon="2.141232">
        <ele>950.2</ele>
        <time>2011-08-19T14:07:44Z</time>
      </trkpt>
      <trkpt lat="41.846022" lon="2.141252">
        <ele>950.2</ele>
        <time>2011-08-19T14:07:44Z</time>
      </trkpt>
      <trkpt lat="41.845948" lon="2.141280">
        <ele>950.5</ele>
        <time>2011-08-19T14:07:44Z</time>
      </trkpt>
      <trkpt lat="41.845855" lon="2.141290">
        <ele>950.3</ele>
        <time>2011-08-19T14:07:44Z</time>
      </trkpt>
      <trkpt lat="41.845757" lon="2.141308">
        <ele>950.1</ele>
        <time>2011-08-19T14:07:44Z</time>
      </trkpt>
      <trkpt lat="41.845685" lon="2.141324">
        <ele>950.0</ele>
        <time>2011-08-19T14:07:44Z</time>
      </trkpt>
      <trkpt lat="41.845601" lon="2.141340">
        <ele>949.6</ele>
        <time>2011-08-19T14:07:44Z</time>
      </trkpt>
      <trkpt lat="41.845509" lon="2.141358">
        <ele>949.2</ele>
        <time>2011-08-19T14:07:44Z</time>
      </trkpt>
      <trkpt lat="41.845427" lon="2.141377">
        <ele>948.9</ele>
        <time>2011-08-19T14:07:44Z</time>
      </trkpt>
      <trkpt lat="41.845322" lon="2.141395">
        <ele>948.4</ele>
        <time>2011-08-19T14:07:44Z</time>
      </trkpt>
      <trkpt lat="41.845254" lon="2.141400">
        <ele>948.0</ele>
        <time>2011-08-19T14:07:44Z</time>
      </trkpt>
      <trkpt lat="41.845161" lon="2.141389">
        <ele>947.2</ele>
        <time>2011-08-19T14:07:44Z</time>
      </trkpt>
      <trkpt lat="41.845090" lon="2.141390">
        <ele>946.9</ele>
        <time>2011-08-19T14:07:44Z</time>
      </trkpt>
      <trkpt lat="41.844982" lon="2.141378">
        <ele>946.4</ele>
        <time>2011-08-19T14:07:44Z</time>
      </trkpt>
      <trkpt lat="41.844905" lon="2.141367">
        <ele>945.9</ele>
        <time>2011-08-19T14:07:44Z</time>
      </trkpt>
      <trkpt lat="41.844864" lon="2.141361">
        <ele>945.7</ele>
        <time>2011-08-19T14:07:44Z</time>
      </trkpt>
      <trkpt lat="41.844808" lon="2.141344">
        <ele>945.3</ele>
        <time>2011-08-19T14:07:44Z</time>
      </trkpt>
      <trkpt lat="41.844765" lon="2.141313">
        <ele>944.8</ele>
        <time>2011-08-19T14:07:44Z</time>
      </trkpt>
      <trkpt lat="41.844769" lon="2.141268">
        <ele>944.3</ele>
        <time>2011-08-19T14:07:44Z</time>
      </trkpt>
      <trkpt lat="41.844789" lon="2.141202">
        <ele>943.5</ele>
        <time>2011-08-19T14:07:44Z</time>
      </trkpt>
      <trkpt lat="41.844820" lon="2.141096">
        <ele>942.1</ele>
        <time>2011-08-19T14:07:44Z</time>
      </trkpt>
      <trkpt lat="41.844840" lon="2.140966">
        <ele>941.3</ele>
        <time>2011-08-19T14:07:44Z</time>
      </trkpt>
      <trkpt lat="41.844837" lon="2.140895">
        <ele>940.9</ele>
        <time>2011-08-19T14:07:44Z</time>
      </trkpt>
      <trkpt lat="41.844829" lon="2.140796">
        <ele>940.4</ele>
        <time>2011-08-19T14:07:44Z</time>
      </trkpt>
      <trkpt lat="41.844819" lon="2.140694">
        <ele>939.7</ele>
        <time>2011-08-19T14:07:44Z</time>
      </trkpt>
      <trkpt lat="41.844814" lon="2.140641">
        <ele>939.3</ele>
        <time>2011-08-19T14:07:44Z</time>
      </trkpt>
      <trkpt lat="41.844794" lon="2.140535">
        <ele>938.4</ele>
        <time>2011-08-19T14:07:44Z</time>
      </trkpt>
      <trkpt lat="41.844787" lon="2.140428">
        <ele>937.5</ele>
        <time>2011-08-19T14:07:44Z</time>
      </trkpt>
      <trkpt lat="41.844773" lon="2.140331">
        <ele>936.8</ele>
        <time>2011-08-19T14:07:44Z</time>
      </trkpt>
      <trkpt lat="41.844754" lon="2.140227">
        <ele>936.2</ele>
        <time>2011-08-19T14:07:44Z</time>
      </trkpt>
      <trkpt lat="41.844742" lon="2.140133">
        <ele>935.7</ele>
        <time>2011-08-19T14:07:44Z</time>
      </trkpt>
      <trkpt lat="41.844731" lon="2.140042">
        <ele>935.2</ele>
        <time>2011-08-19T14:07:44Z</time>
      </trkpt>
      <trkpt lat="41.844716" lon="2.139934">
        <ele>934.8</ele>
        <time>2011-08-19T14:07:44Z</time>
      </trkpt>
      <trkpt lat="41.844711" lon="2.139866">
        <ele>934.6</ele>
        <time>2011-08-19T14:07:44Z</time>
      </trkpt>
      <trkpt lat="41.844702" lon="2.139762">
        <ele>934.3</ele>
        <time>2011-08-19T14:07:44Z</time>
      </trkpt>
      <trkpt lat="41.844695" lon="2.139673">
        <ele>934.1</ele>
        <time>2011-08-19T14:07:44Z</time>
      </trkpt>
      <trkpt lat="41.844690" lon="2.139550">
        <ele>933.7</ele>
        <time>2011-08-19T14:07:44Z</time>
      </trkpt>
      <trkpt lat="41.844695" lon="2.139456">
        <ele>933.5</ele>
        <time>2011-08-19T14:07:44Z</time>
      </trkpt>
      <trkpt lat="41.844698" lon="2.139341">
        <ele>933.2</ele>
        <time>2011-08-19T14:07:44Z</time>
      </trkpt>
      <trkpt lat="41.844698" lon="2.139241">
        <ele>933.0</ele>
        <time>2011-08-19T14:07:44Z</time>
      </trkpt>
      <trkpt lat="41.844711" lon="2.139139">
        <ele>933.1</ele>
        <time>2011-08-19T14:07:44Z</time>
      </trkpt>
      <trkpt lat="41.844716" lon="2.139005">
        <ele>933.2</ele>
        <time>2011-08-19T14:07:44Z</time>
      </trkpt>
      <trkpt lat="41.844729" lon="2.138873">
        <ele>933.5</ele>
        <time>2011-08-19T14:07:44Z</time>
      </trkpt>
      <trkpt lat="41.844739" lon="2.138751">
        <ele>934.4</ele>
        <time>2011-08-19T14:07:44Z</time>
      </trkpt>
      <trkpt lat="41.844737" lon="2.138628">
        <ele>935.5</ele>
        <time>2011-08-19T14:07:44Z</time>
      </trkpt>
      <trkpt lat="41.844731" lon="2.138524">
        <ele>936.3</ele>
        <time>2011-08-19T14:07:44Z</time>
      </trkpt>
      <trkpt lat="41.844726" lon="2.138429">
        <ele>936.9</ele>
        <time>2011-08-19T14:07:44Z</time>
      </trkpt>
      <trkpt lat="41.844711" lon="2.138350">
        <ele>937.5</ele>
        <time>2011-08-19T14:07:44Z</time>
      </trkpt>
      <trkpt lat="41.844686" lon="2.138184">
        <ele>938.8</ele>
        <time>2011-08-19T14:07:44Z</time>
      </trkpt>
      <trkpt lat="41.844677" lon="2.138100">
        <ele>939.1</ele>
        <time>2011-08-19T14:07:44Z</time>
      </trkpt>
      <trkpt lat="41.844649" lon="2.137981">
        <ele>939.8</ele>
        <time>2011-08-19T14:07:44Z</time>
      </trkpt>
      <trkpt lat="41.844621" lon="2.137817">
        <ele>940.6</ele>
        <time>2011-08-19T14:07:44Z</time>
      </trkpt>
      <trkpt lat="41.844588" lon="2.137720">
        <ele>941.2</ele>
        <time>2011-08-19T14:07:44Z</time>
      </trkpt>
      <trkpt lat="41.844556" lon="2.137572">
        <ele>941.7</ele>
        <time>2011-08-19T14:07:44Z</time>
      </trkpt>
      <trkpt lat="41.844528" lon="2.137457">
        <ele>942.3</ele>
        <time>2011-08-19T14:07:44Z</time>
      </trkpt>
      <trkpt lat="41.844516" lon="2.137383">
        <ele>942.3</ele>
        <time>2011-08-19T14:07:44Z</time>
      </trkpt>
      <trkpt lat="41.844500" lon="2.137319">
        <ele>942.5</ele>
        <time>2011-08-19T14:07:44Z</time>
      </trkpt>
      <trkpt lat="41.844467" lon="2.137201">
        <ele>943.0</ele>
        <time>2011-08-19T14:07:44Z</time>
      </trkpt>
      <trkpt lat="41.844444" lon="2.137097">
        <ele>943.4</ele>
        <time>2011-08-19T14:07:44Z</time>
      </trkpt>
      <trkpt lat="41.844445" lon="2.137001">
        <ele>943.5</ele>
        <time>2011-08-19T14:07:44Z</time>
      </trkpt>
      <trkpt lat="41.844442" lon="2.136889">
        <ele>943.6</ele>
        <time>2011-08-19T14:07:44Z</time>
      </trkpt>
      <trkpt lat="41.844443" lon="2.136784">
        <ele>943.7</ele>
        <time>2011-08-19T14:07:44Z</time>
      </trkpt>
      <trkpt lat="41.844462" lon="2.136712">
        <ele>943.9</ele>
        <time>2011-08-19T14:07:44Z</time>
      </trkpt>
      <trkpt lat="41.844493" lon="2.136611">
        <ele>944.6</ele>
        <time>2011-08-19T14:07:44Z</time>
      </trkpt>
      <trkpt lat="41.844576" lon="2.136521">
        <ele>945.0</ele>
        <time>2011-08-19T14:07:44Z</time>
      </trkpt>
      <trkpt lat="41.844693" lon="2.136452">
        <ele>945.5</ele>
        <time>2011-08-19T14:07:44Z</time>
      </trkpt>
      <trkpt lat="41.844779" lon="2.136391">
        <ele>946.3</ele>
        <time>2011-08-19T14:07:44Z</time>
      </trkpt>
      <trkpt lat="41.844877" lon="2.136298">
        <ele>946.8</ele>
        <time>2011-08-19T14:07:44Z</time>
      </trkpt>
      <trkpt lat="41.844946" lon="2.136206">
        <ele>947.2</ele>
        <time>2011-08-19T14:07:44Z</time>
      </trkpt>
      <trkpt lat="41.845011" lon="2.136135">
        <ele>947.5</ele>
        <time>2011-08-19T14:07:44Z</time>
      </trkpt>
      <trkpt lat="41.845051" lon="2.136060">
        <ele>948.1</ele>
        <time>2011-08-19T14:07:44Z</time>
      </trkpt>
      <trkpt lat="41.845087" lon="2.135930">
        <ele>948.7</ele>
        <time>2011-08-19T14:07:44Z</time>
      </trkpt>
      <trkpt lat="41.845116" lon="2.135808">
        <ele>949.2</ele>
        <time>2011-08-19T14:07:44Z</time>
      </trkpt>
      <trkpt lat="41.845138" lon="2.135684">
        <ele>949.7</ele>
        <time>2011-08-19T14:07:44Z</time>
      </trkpt>
      <trkpt lat="41.845167" lon="2.135537">
        <ele>949.4</ele>
        <time>2011-08-19T14:07:44Z</time>
      </trkpt>
      <trkpt lat="41.845187" lon="2.135441">
        <ele>949.2</ele>
        <time>2011-08-19T14:07:44Z</time>
      </trkpt>
      <trkpt lat="41.845210" lon="2.135328">
        <ele>949.0</ele>
        <time>2011-08-19T14:07:44Z</time>
      </trkpt>
      <trkpt lat="41.845223" lon="2.135222">
        <ele>949.3</ele>
        <time>2011-08-19T14:07:44Z</time>
      </trkpt>
      <trkpt lat="41.845244" lon="2.135090">
        <ele>950.0</ele>
        <time>2011-08-19T14:07:44Z</time>
      </trkpt>
      <trkpt lat="41.845277" lon="2.134994">
        <ele>950.7</ele>
        <time>2011-08-19T14:07:44Z</time>
      </trkpt>
      <trkpt lat="41.845314" lon="2.134859">
        <ele>952.5</ele>
        <time>2011-08-19T14:07:44Z</time>
      </trkpt>
      <trkpt lat="41.845379" lon="2.134820">
        <ele>954.1</ele>
        <time>2011-08-19T14:07:44Z</time>
      </trkpt>
      <trkpt lat="41.845477" lon="2.134797">
        <ele>955.8</ele>
        <time>2011-08-19T14:07:44Z</time>
      </trkpt>
      <trkpt lat="41.845552" lon="2.134788">
        <ele>957.0</ele>
        <time>2011-08-19T14:07:44Z</time>
      </trkpt>
      <trkpt lat="41.845662" lon="2.134782">
        <ele>958.6</ele>
        <time>2011-08-19T14:07:44Z</time>
      </trkpt>
      <trkpt lat="41.845754" lon="2.134777">
        <ele>960.1</ele>
        <time>2011-08-19T14:07:44Z</time>
      </trkpt>
      <trkpt lat="41.845825" lon="2.134771">
        <ele>961.3</ele>
        <time>2011-08-19T14:07:44Z</time>
      </trkpt>
      <trkpt lat="41.845892" lon="2.134754">
        <ele>962.8</ele>
        <time>2011-08-19T14:07:44Z</time>
      </trkpt>
      <trkpt lat="41.845946" lon="2.134751">
        <ele>963.4</ele>
        <time>2011-08-19T14:07:44Z</time>
      </trkpt>
      <trkpt lat="41.845997" lon="2.134744">
        <ele>963.7</ele>
        <time>2011-08-19T14:07:44Z</time>
      </trkpt>
      <trkpt lat="41.846057" lon="2.134734">
        <ele>964.1</ele>
        <time>2011-08-19T14:07:44Z</time>
      </trkpt>
      <trkpt lat="41.846126" lon="2.134716">
        <ele>964.7</ele>
        <time>2011-08-19T14:07:44Z</time>
      </trkpt>
      <trkpt lat="41.846228" lon="2.134664">
        <ele>966.1</ele>
        <time>2011-08-19T14:07:44Z</time>
      </trkpt>
      <trkpt lat="41.846300" lon="2.134623">
        <ele>966.7</ele>
        <time>2011-08-19T14:07:44Z</time>
      </trkpt>
      <trkpt lat="41.846414" lon="2.134545">
        <ele>967.9</ele>
        <time>2011-08-19T14:07:44Z</time>
      </trkpt>
      <trkpt lat="41.846499" lon="2.134490">
        <ele>968.9</ele>
        <time>2011-08-19T14:07:44Z</time>
      </trkpt>
      <trkpt lat="41.846580" lon="2.134425">
        <ele>970.2</ele>
        <time>2011-08-19T14:07:44Z</time>
      </trkpt>
      <trkpt lat="41.846664" lon="2.134380">
        <ele>971.0</ele>
        <time>2011-08-19T14:07:44Z</time>
      </trkpt>
      <trkpt lat="41.846779" lon="2.134348">
        <ele>971.0</ele>
        <time>2011-08-19T14:07:44Z</time>
      </trkpt>
      <trkpt lat="41.846830" lon="2.134330">
        <ele>971.2</ele>
        <time>2011-08-19T14:07:44Z</time>
      </trkpt>
      <trkpt lat="41.846898" lon="2.134300">
        <ele>971.8</ele>
        <time>2011-08-19T14:07:44Z</time>
      </trkpt>
      <trkpt lat="41.846974" lon="2.134258">
        <ele>972.8</ele>
        <time>2011-08-19T14:07:44Z</time>
      </trkpt>
      <trkpt lat="41.847036" lon="2.134221">
        <ele>973.4</ele>
        <time>2011-08-19T14:07:44Z</time>
      </trkpt>
      <trkpt lat="41.847136" lon="2.134154">
        <ele>973.7</ele>
        <time>2011-08-19T14:07:44Z</time>
      </trkpt>
      <trkpt lat="41.847224" lon="2.134083">
        <ele>974.4</ele>
        <time>2011-08-19T14:07:44Z</time>
      </trkpt>
      <trkpt lat="41.847294" lon="2.134022">
        <ele>975.1</ele>
        <time>2011-08-19T14:07:44Z</time>
      </trkpt>
      <trkpt lat="41.847376" lon="2.133936">
        <ele>976.2</ele>
        <time>2011-08-19T14:07:44Z</time>
      </trkpt>
      <trkpt lat="41.847439" lon="2.133882">
        <ele>976.5</ele>
        <time>2011-08-19T14:07:44Z</time>
      </trkpt>
      <trkpt lat="41.847504" lon="2.133807">
        <ele>977.3</ele>
        <time>2011-08-19T14:07:44Z</time>
      </trkpt>
      <trkpt lat="41.847557" lon="2.133749">
        <ele>977.6</ele>
        <time>2011-08-19T14:07:44Z</time>
      </trkpt>
      <trkpt lat="41.847623" lon="2.133650">
        <ele>978.8</ele>
        <time>2011-08-19T14:07:44Z</time>
      </trkpt>
      <trkpt lat="41.847689" lon="2.133560">
        <ele>979.5</ele>
        <time>2011-08-19T14:07:44Z</time>
      </trkpt>
      <trkpt lat="41.847725" lon="2.133496">
        <ele>980.1</ele>
        <time>2011-08-19T14:07:44Z</time>
      </trkpt>
      <trkpt lat="41.847761" lon="2.133429">
        <ele>980.6</ele>
        <time>2011-08-19T14:07:44Z</time>
      </trkpt>
      <trkpt lat="41.847812" lon="2.133346">
        <ele>980.9</ele>
        <time>2011-08-19T14:07:44Z</time>
      </trkpt>
      <trkpt lat="41.847868" lon="2.133272">
        <ele>982.2</ele>
        <time>2011-08-19T14:07:44Z</time>
      </trkpt>
      <trkpt lat="41.847917" lon="2.133195">
        <ele>983.4</ele>
        <time>2011-08-19T14:07:44Z</time>
      </trkpt>
      <trkpt lat="41.847961" lon="2.133118">
        <ele>984.6</ele>
        <time>2011-08-19T14:07:44Z</time>
      </trkpt>
      <trkpt lat="41.847965" lon="2.133054">
        <ele>985.1</ele>
        <time>2011-08-19T14:07:44Z</time>
      </trkpt>
      <trkpt lat="41.847985" lon="2.132967">
        <ele>985.4</ele>
        <time>2011-08-19T14:07:44Z</time>
      </trkpt>
      <trkpt lat="41.847939" lon="2.132929">
        <ele>985.5</ele>
        <time>2011-08-19T14:07:44Z</time>
      </trkpt>
      <trkpt lat="41.847876" lon="2.132873">
        <ele>985.6</ele>
        <time>2011-08-19T14:07:44Z</time>
      </trkpt>
      <trkpt lat="41.847800" lon="2.132801">
        <ele>985.9</ele>
        <time>2011-08-19T14:07:44Z</time>
      </trkpt>
      <trkpt lat="41.847748" lon="2.132734">
        <ele>986.8</ele>
        <time>2011-08-19T14:07:44Z</time>
      </trkpt>
      <trkpt lat="41.847702" lon="2.132652">
        <ele>987.5</ele>
        <time>2011-08-19T14:07:44Z</time>
      </trkpt>
      <trkpt lat="41.847650" lon="2.132538">
        <ele>988.3</ele>
        <time>2011-08-19T14:07:44Z</time>
      </trkpt>
      <trkpt lat="41.847600" lon="2.132419">
        <ele>989.0</ele>
        <time>2011-08-19T14:07:44Z</time>
      </trkpt>
      <trkpt lat="41.847575" lon="2.132315">
        <ele>989.7</ele>
        <time>2011-08-19T14:07:44Z</time>
      </trkpt>
      <trkpt lat="41.847536" lon="2.132176">
        <ele>991.0</ele>
        <time>2011-08-19T14:07:44Z</time>
      </trkpt>
      <trkpt lat="41.847521" lon="2.132080">
        <ele>991.9</ele>
        <time>2011-08-19T14:07:44Z</time>
      </trkpt>
      <trkpt lat="41.847488" lon="2.131959">
        <ele>993.4</ele>
        <time>2011-08-19T14:07:44Z</time>
      </trkpt>
      <trkpt lat="41.847479" lon="2.131828">
        <ele>994.2</ele>
        <time>2011-08-19T14:07:44Z</time>
      </trkpt>
      <trkpt lat="41.847467" lon="2.131730">
        <ele>995.0</ele>
        <time>2011-08-19T14:07:44Z</time>
      </trkpt>
      <trkpt lat="41.847454" lon="2.131649">
        <ele>995.7</ele>
        <time>2011-08-19T14:07:44Z</time>
      </trkpt>
      <trkpt lat="41.847424" lon="2.131526">
        <ele>997.1</ele>
        <time>2011-08-19T14:07:44Z</time>
      </trkpt>
      <trkpt lat="41.847395" lon="2.131433">
        <ele>998.2</ele>
        <time>2011-08-19T14:07:44Z</time>
      </trkpt>
      <trkpt lat="41.847370" lon="2.131314">
        <ele>999.2</ele>
        <time>2011-08-19T14:07:44Z</time>
      </trkpt>
      <trkpt lat="41.847350" lon="2.131189">
        <ele>999.9</ele>
        <time>2011-08-19T14:07:44Z</time>
      </trkpt>
      <trkpt lat="41.847354" lon="2.131023">
        <ele>1000.4</ele>
        <time>2011-08-19T14:07:44Z</time>
      </trkpt>
      <trkpt lat="41.847380" lon="2.130900">
        <ele>1000.8</ele>
        <time>2011-08-19T14:07:44Z</time>
      </trkpt>
      <trkpt lat="41.847406" lon="2.130780">
        <ele>1000.4</ele>
        <time>2011-08-19T14:07:44Z</time>
      </trkpt>
      <trkpt lat="41.847443" lon="2.130656">
        <ele>1000.2</ele>
        <time>2011-08-19T14:07:44Z</time>
      </trkpt>
      <trkpt lat="41.847476" lon="2.130577">
        <ele>1000.4</ele>
        <time>2011-08-19T14:07:44Z</time>
      </trkpt>
      <trkpt lat="41.847531" lon="2.130464">
        <ele>1001.0</ele>
        <time>2011-08-19T14:07:44Z</time>
      </trkpt>
      <trkpt lat="41.847549" lon="2.130381">
        <ele>1000.9</ele>
        <time>2011-08-19T14:07:44Z</time>
      </trkpt>
      <trkpt lat="41.847549" lon="2.130302">
        <ele>1000.9</ele>
        <time>2011-08-19T14:07:44Z</time>
      </trkpt>
      <trkpt lat="41.847546" lon="2.130189">
        <ele>1001.0</ele>
        <time>2011-08-19T14:07:44Z</time>
      </trkpt>
      <trkpt lat="41.847513" lon="2.130052">
        <ele>1001.9</ele>
        <time>2011-08-19T14:07:44Z</time>
      </trkpt>
      <trkpt lat="41.847484" lon="2.129950">
        <ele>1002.1</ele>
        <time>2011-08-19T14:07:44Z</time>
      </trkpt>
      <trkpt lat="41.847446" lon="2.129812">
        <ele>1002.4</ele>
        <time>2011-08-19T14:07:44Z</time>
      </trkpt>
      <trkpt lat="41.847441" lon="2.129691">
        <ele>1002.6</ele>
        <time>2011-08-19T14:07:44Z</time>
      </trkpt>
      <trkpt lat="41.847457" lon="2.129570">
        <ele>1003.2</ele>
        <time>2011-08-19T14:07:44Z</time>
      </trkpt>
      <trkpt lat="41.847498" lon="2.129476">
        <ele>1003.7</ele>
        <time>2011-08-19T14:07:44Z</time>
      </trkpt>
      <trkpt lat="41.847541" lon="2.129371">
        <ele>1003.1</ele>
        <time>2011-08-19T14:07:44Z</time>
      </trkpt>
      <trkpt lat="41.847592" lon="2.129298">
        <ele>1003.2</ele>
        <time>2011-08-19T14:07:44Z</time>
      </trkpt>
      <trkpt lat="41.847651" lon="2.129195">
        <ele>1003.5</ele>
        <time>2011-08-19T14:07:44Z</time>
      </trkpt>
      <trkpt lat="41.847703" lon="2.129107">
        <ele>1004.2</ele>
        <time>2011-08-19T14:07:44Z</time>
      </trkpt>
      <trkpt lat="41.847739" lon="2.129030">
        <ele>1004.1</ele>
        <time>2011-08-19T14:07:44Z</time>
      </trkpt>
      <trkpt lat="41.847783" lon="2.128902">
        <ele>1003.7</ele>
        <time>2011-08-19T14:07:44Z</time>
      </trkpt>
      <trkpt lat="41.847820" lon="2.128810">
        <ele>1003.7</ele>
        <time>2011-08-19T14:07:44Z</time>
      </trkpt>
      <trkpt lat="41.847844" lon="2.128663">
        <ele>1003.4</ele>
        <time>2011-08-19T14:07:44Z</time>
      </trkpt>
      <trkpt lat="41.847886" lon="2.128524">
        <ele>1003.7</ele>
        <time>2011-08-19T14:07:44Z</time>
      </trkpt>
      <trkpt lat="41.847932" lon="2.128396">
        <ele>1003.9</ele>
        <time>2011-08-19T14:07:44Z</time>
      </trkpt>
      <trkpt lat="41.847982" lon="2.128300">
        <ele>1003.8</ele>
        <time>2011-08-19T14:07:44Z</time>
      </trkpt>
      <trkpt lat="41.848018" lon="2.128223">
        <ele>1003.6</ele>
        <time>2011-08-19T14:07:44Z</time>
      </trkpt>
      <trkpt lat="41.848068" lon="2.128101">
        <ele>1003.5</ele>
        <time>2011-08-19T14:07:44Z</time>
      </trkpt>
      <trkpt lat="41.848116" lon="2.128040">
        <ele>1004.1</ele>
        <time>2011-08-19T14:07:44Z</time>
      </trkpt>
      <trkpt lat="41.848205" lon="2.127935">
        <ele>1004.3</ele>
        <time>2011-08-19T14:07:44Z</time>
      </trkpt>
      <trkpt lat="41.848309" lon="2.127838">
        <ele>1004.7</ele>
        <time>2011-08-19T14:07:44Z</time>
      </trkpt>
      <trkpt lat="41.848394" lon="2.127754">
        <ele>1005.2</ele>
        <time>2011-08-19T14:07:44Z</time>
      </trkpt>
      <trkpt lat="41.848470" lon="2.127693">
        <ele>1005.8</ele>
        <time>2011-08-19T14:07:44Z</time>
      </trkpt>
      <trkpt lat="41.848549" lon="2.127620">
        <ele>1006.4</ele>
        <time>2011-08-19T14:07:44Z</time>
      </trkpt>
      <trkpt lat="41.848621" lon="2.127549">
        <ele>1006.9</ele>
        <time>2011-08-19T14:07:44Z</time>
      </trkpt>
      <trkpt lat="41.848710" lon="2.127492">
        <ele>1008.1</ele>
        <time>2011-08-19T14:07:44Z</time>
      </trkpt>
      <trkpt lat="41.848789" lon="2.127440">
        <ele>1009.2</ele>
        <time>2011-08-19T14:07:44Z</time>
      </trkpt>
      <trkpt lat="41.848868" lon="2.127397">
        <ele>1010.5</ele>
        <time>2011-08-19T14:07:44Z</time>
      </trkpt>
      <trkpt lat="41.848949" lon="2.127330">
        <ele>1011.3</ele>
        <time>2011-08-19T14:07:44Z</time>
      </trkpt>
      <trkpt lat="41.849023" lon="2.127267">
        <ele>1012.5</ele>
        <time>2011-08-19T14:07:44Z</time>
      </trkpt>
      <trkpt lat="41.849090" lon="2.127206">
        <ele>1013.9</ele>
        <time>2011-08-19T14:07:44Z</time>
      </trkpt>
      <trkpt lat="41.849157" lon="2.127159">
        <ele>1015.1</ele>
        <time>2011-08-19T14:07:44Z</time>
      </trkpt>
      <trkpt lat="41.849247" lon="2.127079">
        <ele>1016.1</ele>
        <time>2011-08-19T14:07:44Z</time>
      </trkpt>
      <trkpt lat="41.849333" lon="2.127012">
        <ele>1016.6</ele>
        <time>2011-08-19T14:07:44Z</time>
      </trkpt>
      <trkpt lat="41.849410" lon="2.126951">
        <ele>1016.7</ele>
        <time>2011-08-19T14:07:44Z</time>
      </trkpt>
      <trkpt lat="41.849507" lon="2.126882">
        <ele>1017.7</ele>
        <time>2011-08-19T14:07:44Z</time>
      </trkpt>
      <trkpt lat="41.849587" lon="2.126804">
        <ele>1018.7</ele>
        <time>2011-08-19T14:07:44Z</time>
      </trkpt>
      <trkpt lat="41.849646" lon="2.126757">
        <ele>1019.4</ele>
        <time>2011-08-19T14:07:44Z</time>
      </trkpt>
      <trkpt lat="41.849731" lon="2.126687">
        <ele>1020.7</ele>
        <time>2011-08-19T14:07:44Z</time>
      </trkpt>
      <trkpt lat="41.849772" lon="2.126615">
        <ele>1021.3</ele>
        <time>2011-08-19T14:07:44Z</time>
      </trkpt>
      <trkpt lat="41.849819" lon="2.126503">
        <ele>1022.1</ele>
        <time>2011-08-19T14:07:44Z</time>
      </trkpt>
      <trkpt lat="41.849856" lon="2.126431">
        <ele>1022.7</ele>
        <time>2011-08-19T14:07:44Z</time>
      </trkpt>
      <trkpt lat="41.849901" lon="2.126305">
        <ele>1023.6</ele>
        <time>2011-08-19T14:07:44Z</time>
      </trkpt>
      <trkpt lat="41.849977" lon="2.126163">
        <ele>1024.6</ele>
        <time>2011-08-19T14:07:44Z</time>
      </trkpt>
      <trkpt lat="41.850027" lon="2.126056">
        <ele>1025.0</ele>
        <time>2011-08-19T14:07:44Z</time>
      </trkpt>
      <trkpt lat="41.850077" lon="2.125947">
        <ele>1025.5</ele>
        <time>2011-08-19T14:07:44Z</time>
      </trkpt>
      <trkpt lat="41.850110" lon="2.125872">
        <ele>1025.9</ele>
        <time>2011-08-19T14:07:44Z</time>
      </trkpt>
      <trkpt lat="41.850160" lon="2.125752">
        <ele>1026.7</ele>
        <time>2011-08-19T14:07:44Z</time>
      </trkpt>
      <trkpt lat="41.850199" lon="2.125688">
        <ele>1027.0</ele>
        <time>2011-08-19T14:07:44Z</time>
      </trkpt>
      <trkpt lat="41.850246" lon="2.125621">
        <ele>1027.1</ele>
        <time>2011-08-19T14:07:44Z</time>
      </trkpt>
      <trkpt lat="41.850303" lon="2.125578">
        <ele>1027.1</ele>
        <time>2011-08-19T14:07:44Z</time>
      </trkpt>
      <trkpt lat="41.850379" lon="2.125513">
        <ele>1027.1</ele>
        <time>2011-08-19T14:07:44Z</time>
      </trkpt>
      <trkpt lat="41.850451" lon="2.125451">
        <ele>1026.9</ele>
        <time>2011-08-19T14:07:44Z</time>
      </trkpt>
      <trkpt lat="41.850530" lon="2.125386">
        <ele>1026.6</ele>
        <time>2011-08-19T14:07:44Z</time>
      </trkpt>
      <trkpt lat="41.850598" lon="2.125330">
        <ele>1026.2</ele>
        <time>2011-08-19T14:07:44Z</time>
      </trkpt>
      <trkpt lat="41.850685" lon="2.125288">
        <ele>1025.6</ele>
        <time>2011-08-19T14:07:44Z</time>
      </trkpt>
      <trkpt lat="41.850788" lon="2.125240">
        <ele>1025.4</ele>
        <time>2011-08-19T14:07:44Z</time>
      </trkpt>
      <trkpt lat="41.850864" lon="2.125188">
        <ele>1025.1</ele>
        <time>2011-08-19T14:07:44Z</time>
      </trkpt>
      <trkpt lat="41.850942" lon="2.125151">
        <ele>1024.7</ele>
        <time>2011-08-19T14:07:44Z</time>
      </trkpt>
      <trkpt lat="41.851023" lon="2.125116">
        <ele>1024.5</ele>
        <time>2011-08-19T14:07:44Z</time>
      </trkpt>
      <trkpt lat="41.851111" lon="2.125078">
        <ele>1024.5</ele>
        <time>2011-08-19T14:07:44Z</time>
      </trkpt>
      <trkpt lat="41.851175" lon="2.125054">
        <ele>1024.5</ele>
        <time>2011-08-19T14:07:44Z</time>
      </trkpt>
      <trkpt lat="41.851281" lon="2.125025">
        <ele>1024.7</ele>
        <time>2011-08-19T14:07:44Z</time>
      </trkpt>
      <trkpt lat="41.851367" lon="2.124990">
        <ele>1024.6</ele>
        <time>2011-08-19T14:07:44Z</time>
      </trkpt>
      <trkpt lat="41.851433" lon="2.124957">
        <ele>1024.3</ele>
        <time>2011-08-19T14:07:44Z</time>
      </trkpt>
      <trkpt lat="41.851503" lon="2.124930">
        <ele>1024.2</ele>
        <time>2011-08-19T14:07:44Z</time>
      </trkpt>
      <trkpt lat="41.851576" lon="2.124895">
        <ele>1023.8</ele>
        <time>2011-08-19T14:07:44Z</time>
      </trkpt>
      <trkpt lat="41.851660" lon="2.124858">
        <ele>1023.3</ele>
        <time>2011-08-19T14:07:44Z</time>
      </trkpt>
      <trkpt lat="41.851760" lon="2.124825">
        <ele>1022.9</ele>
        <time>2011-08-19T14:07:44Z</time>
      </trkpt>
      <trkpt lat="41.851849" lon="2.124817">
        <ele>1023.3</ele>
        <time>2011-08-19T14:07:44Z</time>
      </trkpt>
      <trkpt lat="41.851931" lon="2.124803">
        <ele>1023.5</ele>
        <time>2011-08-19T14:07:44Z</time>
      </trkpt>
      <trkpt lat="41.852004" lon="2.124787">
        <ele>1023.7</ele>
        <time>2011-08-19T14:07:44Z</time>
      </trkpt>
      <trkpt lat="41.852079" lon="2.124767">
        <ele>1023.8</ele>
        <time>2011-08-19T14:07:44Z</time>
      </trkpt>
      <trkpt lat="41.852168" lon="2.124762">
        <ele>1024.3</ele>
        <time>2011-08-19T14:07:44Z</time>
      </trkpt>
      <trkpt lat="41.852255" lon="2.124735">
        <ele>1024.5</ele>
        <time>2011-08-19T14:07:44Z</time>
      </trkpt>
      <trkpt lat="41.852344" lon="2.124708">
        <ele>1024.6</ele>
        <time>2011-08-19T14:07:44Z</time>
      </trkpt>
      <trkpt lat="41.852444" lon="2.124656">
        <ele>1024.0</ele>
        <time>2011-08-19T14:07:44Z</time>
      </trkpt>
      <trkpt lat="41.852520" lon="2.124606">
        <ele>1023.5</ele>
        <time>2011-08-19T14:07:44Z</time>
      </trkpt>
      <trkpt lat="41.852599" lon="2.124545">
        <ele>1023.0</ele>
        <time>2011-08-19T14:07:44Z</time>
      </trkpt>
      <trkpt lat="41.852681" lon="2.124476">
        <ele>1023.0</ele>
        <time>2011-08-19T14:07:44Z</time>
      </trkpt>
      <trkpt lat="41.852761" lon="2.124403">
        <ele>1023.6</ele>
        <time>2011-08-19T14:07:44Z</time>
      </trkpt>
      <trkpt lat="41.852825" lon="2.124347">
        <ele>1024.5</ele>
        <time>2011-08-19T14:07:44Z</time>
      </trkpt>
      <trkpt lat="41.852888" lon="2.124284">
        <ele>1024.6</ele>
        <time>2011-08-19T14:07:44Z</time>
      </trkpt>
      <trkpt lat="41.852963" lon="2.124224">
        <ele>1024.6</ele>
        <time>2011-08-19T14:07:44Z</time>
      </trkpt>
      <trkpt lat="41.853017" lon="2.124153">
        <ele>1024.7</ele>
        <time>2011-08-19T14:07:44Z</time>
      </trkpt>
      <trkpt lat="41.853072" lon="2.124099">
        <ele>1025.5</ele>
        <time>2011-08-19T14:07:44Z</time>
      </trkpt>
      <trkpt lat="41.853146" lon="2.124013">
        <ele>1027.1</ele>
        <time>2011-08-19T14:07:44Z</time>
      </trkpt>
      <trkpt lat="41.853206" lon="2.123927">
        <ele>1027.0</ele>
        <time>2011-08-19T14:07:44Z</time>
      </trkpt>
      <trkpt lat="41.853263" lon="2.123837">
        <ele>1027.0</ele>
        <time>2011-08-19T14:07:44Z</time>
      </trkpt>
      <trkpt lat="41.853305" lon="2.123749">
        <ele>1027.2</ele>
        <time>2011-08-19T14:07:44Z</time>
      </trkpt>
      <trkpt lat="41.853352" lon="2.123646">
        <ele>1028.0</ele>
        <time>2011-08-19T14:07:44Z</time>
      </trkpt>
      <trkpt lat="41.853389" lon="2.123580">
        <ele>1028.4</ele>
        <time>2011-08-19T14:07:44Z</time>
      </trkpt>
      <trkpt lat="41.853446" lon="2.123466">
        <ele>1027.8</ele>
        <time>2011-08-19T14:07:44Z</time>
      </trkpt>
      <trkpt lat="41.853499" lon="2.123374">
        <ele>1027.4</ele>
        <time>2011-08-19T14:07:44Z</time>
      </trkpt>
      <trkpt lat="41.853556" lon="2.123284">
        <ele>1027.2</ele>
        <time>2011-08-19T14:07:44Z</time>
      </trkpt>
      <trkpt lat="41.853625" lon="2.123183">
        <ele>1027.4</ele>
        <time>2011-08-19T14:07:44Z</time>
      </trkpt>
      <trkpt lat="41.853697" lon="2.123087">
        <ele>1027.4</ele>
        <time>2011-08-19T14:07:44Z</time>
      </trkpt>
      <trkpt lat="41.853768" lon="2.122975">
        <ele>1026.4</ele>
        <time>2011-08-19T14:07:44Z</time>
      </trkpt>
      <trkpt lat="41.853821" lon="2.122866">
        <ele>1025.5</ele>
        <time>2011-08-19T14:07:44Z</time>
      </trkpt>
      <trkpt lat="41.853878" lon="2.122784">
        <ele>1025.6</ele>
        <time>2011-08-19T14:07:44Z</time>
      </trkpt>
      <trkpt lat="41.853918" lon="2.122658">
        <ele>1025.4</ele>
        <time>2011-08-19T14:07:44Z</time>
      </trkpt>
      <trkpt lat="41.853936" lon="2.122528">
        <ele>1024.9</ele>
        <time>2011-08-19T14:07:44Z</time>
      </trkpt>
      <trkpt lat="41.853965" lon="2.122392">
        <ele>1024.3</ele>
        <time>2011-08-19T14:07:44Z</time>
      </trkpt>
      <trkpt lat="41.853976" lon="2.122251">
        <ele>1023.5</ele>
        <time>2011-08-19T14:07:44Z</time>
      </trkpt>
      <trkpt lat="41.853986" lon="2.122158">
        <ele>1023.1</ele>
        <time>2011-08-19T14:07:44Z</time>
      </trkpt>
      <trkpt lat="41.853996" lon="2.122034">
        <ele>1022.4</ele>
        <time>2011-08-19T14:07:44Z</time>
      </trkpt>
      <trkpt lat="41.854005" lon="2.121917">
        <ele>1021.7</ele>
        <time>2011-08-19T14:07:44Z</time>
      </trkpt>
      <trkpt lat="41.854031" lon="2.121795">
        <ele>1021.0</ele>
        <time>2011-08-19T14:07:44Z</time>
      </trkpt>
      <trkpt lat="41.854073" lon="2.121706">
        <ele>1020.7</ele>
        <time>2011-08-19T14:07:44Z</time>
      </trkpt>
      <trkpt lat="41.854130" lon="2.121620">
        <ele>1020.5</ele>
        <time>2011-08-19T14:07:44Z</time>
      </trkpt>
      <trkpt lat="41.854186" lon="2.121538">
        <ele>1020.3</ele>
        <time>2011-08-19T14:07:44Z</time>
      </trkpt>
      <trkpt lat="41.854251" lon="2.121473">
        <ele>1019.5</ele>
        <time>2011-08-19T14:07:44Z</time>
      </trkpt>
      <trkpt lat="41.854333" lon="2.121432">
        <ele>1018.8</ele>
        <time>2011-08-19T14:07:44Z</time>
      </trkpt>
      <trkpt lat="41.854435" lon="2.121422">
        <ele>1017.9</ele>
        <time>2011-08-19T14:07:44Z</time>
      </trkpt>
      <trkpt lat="41.854593" lon="2.121458">
        <ele>1016.1</ele>
        <time>2011-08-19T14:07:44Z</time>
      </trkpt>
      <trkpt lat="41.854698" lon="2.121474">
        <ele>1015.2</ele>
        <time>2011-08-19T14:07:44Z</time>
      </trkpt>
      <trkpt lat="41.854780" lon="2.121477">
        <ele>1014.5</ele>
        <time>2011-08-19T14:07:44Z</time>
      </trkpt>
      <trkpt lat="41.854884" lon="2.121484">
        <ele>1013.5</ele>
        <time>2011-08-19T14:07:44Z</time>
      </trkpt>
      <trkpt lat="41.854959" lon="2.121485">
        <ele>1012.8</ele>
        <time>2011-08-19T14:07:44Z</time>
      </trkpt>
      <trkpt lat="41.855043" lon="2.121488">
        <ele>1012.0</ele>
        <time>2011-08-19T14:07:44Z</time>
      </trkpt>
      <trkpt lat="41.855117" lon="2.121479">
        <ele>1011.5</ele>
        <time>2011-08-19T14:07:44Z</time>
      </trkpt>
      <trkpt lat="41.855187" lon="2.121463">
        <ele>1011.1</ele>
        <time>2011-08-19T14:07:44Z</time>
      </trkpt>
      <trkpt lat="41.855252" lon="2.121456">
        <ele>1010.7</ele>
        <time>2011-08-19T14:07:44Z</time>
      </trkpt>
      <trkpt lat="41.855340" lon="2.121429">
        <ele>1010.4</ele>
        <time>2011-08-19T14:07:44Z</time>
      </trkpt>
      <trkpt lat="41.855435" lon="2.121389">
        <ele>1010.5</ele>
        <time>2011-08-19T14:07:44Z</time>
      </trkpt>
      <trkpt lat="41.855516" lon="2.121360">
        <ele>1010.6</ele>
        <time>2011-08-19T14:07:44Z</time>
      </trkpt>
      <trkpt lat="41.855600" lon="2.121323">
        <ele>1010.7</ele>
        <time>2011-08-19T14:07:44Z</time>
      </trkpt>
      <trkpt lat="41.855692" lon="2.121307">
        <ele>1009.5</ele>
        <time>2011-08-19T14:07:44Z</time>
      </trkpt>
      <trkpt lat="41.855806" lon="2.121291">
        <ele>1008.0</ele>
        <time>2011-08-19T14:07:44Z</time>
      </trkpt>
      <trkpt lat="41.855941" lon="2.121236">
        <ele>1005.7</ele>
        <time>2011-08-19T14:07:44Z</time>
      </trkpt>
      <trkpt lat="41.856004" lon="2.121160">
        <ele>1005.3</ele>
        <time>2011-08-19T14:07:44Z</time>
      </trkpt>
      <trkpt lat="41.856043" lon="2.121051">
        <ele>1005.9</ele>
        <time>2011-08-19T14:07:44Z</time>
      </trkpt>
      <trkpt lat="41.856075" lon="2.120959">
        <ele>1005.7</ele>
        <time>2011-08-19T14:07:44Z</time>
      </trkpt>
      <trkpt lat="41.856102" lon="2.120855">
        <ele>1005.8</ele>
        <time>2011-08-19T14:07:44Z</time>
      </trkpt>
      <trkpt lat="41.856128" lon="2.120761">
        <ele>1005.9</ele>
        <time>2011-08-19T14:07:44Z</time>
      </trkpt>
      <trkpt lat="41.856164" lon="2.120697">
        <ele>1005.5</ele>
        <time>2011-08-19T14:07:44Z</time>
      </trkpt>
      <trkpt lat="41.856205" lon="2.120632">
        <ele>1005.6</ele>
        <time>2011-08-19T14:07:44Z</time>
      </trkpt>
      <trkpt lat="41.856260" lon="2.120572">
        <ele>1005.2</ele>
        <time>2011-08-19T14:07:44Z</time>
      </trkpt>
      <trkpt lat="41.856348" lon="2.120503">
        <ele>1004.1</ele>
        <time>2011-08-19T14:07:44Z</time>
      </trkpt>
      <trkpt lat="41.856418" lon="2.120457">
        <ele>1003.7</ele>
        <time>2011-08-19T14:07:44Z</time>
      </trkpt>
      <trkpt lat="41.856481" lon="2.120418">
        <ele>1003.6</ele>
        <time>2011-08-19T14:07:44Z</time>
      </trkpt>
      <trkpt lat="41.856548" lon="2.120377">
        <ele>1003.7</ele>
        <time>2011-08-19T14:07:44Z</time>
      </trkpt>
      <trkpt lat="41.856643" lon="2.120326">
        <ele>1003.9</ele>
        <time>2011-08-19T14:07:44Z</time>
      </trkpt>
      <trkpt lat="41.856733" lon="2.120297">
        <ele>1004.1</ele>
        <time>2011-08-19T14:07:44Z</time>
      </trkpt>
      <trkpt lat="41.856865" lon="2.120291">
        <ele>1003.3</ele>
        <time>2011-08-19T14:07:44Z</time>
      </trkpt>
      <trkpt lat="41.856932" lon="2.120288">
        <ele>1003.3</ele>
        <time>2011-08-19T14:07:44Z</time>
      </trkpt>
      <trkpt lat="41.857019" lon="2.120306">
        <ele>1002.9</ele>
        <time>2011-08-19T14:07:44Z</time>
      </trkpt>
      <trkpt lat="41.857117" lon="2.120352">
        <ele>1002.0</ele>
        <time>2011-08-19T14:07:44Z</time>
      </trkpt>
      <trkpt lat="41.857198" lon="2.120395">
        <ele>1001.2</ele>
        <time>2011-08-19T14:07:44Z</time>
      </trkpt>
      <trkpt lat="41.857268" lon="2.120418">
        <ele>1000.8</ele>
        <time>2011-08-19T14:07:44Z</time>
      </trkpt>
      <trkpt lat="41.857322" lon="2.120426">
        <ele>1000.8</ele>
        <time>2011-08-19T14:07:44Z</time>
      </trkpt>
      <trkpt lat="41.857407" lon="2.120441">
        <ele>1000.8</ele>
        <time>2011-08-19T14:07:44Z</time>
      </trkpt>
      <trkpt lat="41.857483" lon="2.120436">
        <ele>1000.0</ele>
        <time>2011-08-19T14:07:44Z</time>
      </trkpt>
      <trkpt lat="41.857562" lon="2.120395">
        <ele>998.8</ele>
        <time>2011-08-19T14:07:44Z</time>
      </trkpt>
      <trkpt lat="41.857654" lon="2.120315">
        <ele>997.4</ele>
        <time>2011-08-19T14:07:44Z</time>
      </trkpt>
      <trkpt lat="41.857703" lon="2.120240">
        <ele>997.0</ele>
        <time>2011-08-19T14:07:44Z</time>
      </trkpt>
      <trkpt lat="41.857748" lon="2.120154">
        <ele>996.4</ele>
        <time>2011-08-19T14:07:44Z</time>
      </trkpt>
      <trkpt lat="41.857823" lon="2.120029">
        <ele>995.2</ele>
        <time>2011-08-19T14:07:44Z</time>
      </trkpt>
      <trkpt lat="41.857885" lon="2.119941">
        <ele>994.1</ele>
        <time>2011-08-19T14:07:44Z</time>
      </trkpt>
      <trkpt lat="41.857946" lon="2.119877">
        <ele>992.8</ele>
        <time>2011-08-19T14:07:44Z</time>
      </trkpt>
      <trkpt lat="41.858009" lon="2.119772">
        <ele>992.0</ele>
        <time>2011-08-19T14:07:44Z</time>
      </trkpt>
      <trkpt lat="41.858070" lon="2.119692">
        <ele>991.3</ele>
        <time>2011-08-19T14:07:44Z</time>
      </trkpt>
      <trkpt lat="41.858132" lon="2.119649">
        <ele>990.2</ele>
        <time>2011-08-19T14:07:44Z</time>
      </trkpt>
      <trkpt lat="41.858216" lon="2.119611">
        <ele>988.4</ele>
        <time>2011-08-19T14:07:44Z</time>
      </trkpt>
      <trkpt lat="41.858292" lon="2.119591">
        <ele>987.4</ele>
        <time>2011-08-19T14:07:44Z</time>
      </trkpt>
      <trkpt lat="41.858364" lon="2.119584">
        <ele>986.6</ele>
        <time>2011-08-19T14:07:44Z</time>
      </trkpt>
      <trkpt lat="41.858424" lon="2.119624">
        <ele>985.5</ele>
        <time>2011-08-19T14:07:44Z</time>
      </trkpt>
      <trkpt lat="41.858507" lon="2.119678">
        <ele>984.0</ele>
        <time>2011-08-19T14:07:44Z</time>
      </trkpt>
      <trkpt lat="41.858587" lon="2.119723">
        <ele>983.9</ele>
        <time>2011-08-19T14:07:44Z</time>
      </trkpt>
      <trkpt lat="41.858643" lon="2.119765">
        <ele>983.9</ele>
        <time>2011-08-19T14:07:44Z</time>
      </trkpt>
      <trkpt lat="41.858730" lon="2.119836">
        <ele>983.7</ele>
        <time>2011-08-19T14:07:44Z</time>
      </trkpt>
      <trkpt lat="41.858825" lon="2.119892">
        <ele>983.8</ele>
        <time>2011-08-19T14:07:44Z</time>
      </trkpt>
      <trkpt lat="41.858915" lon="2.119936">
        <ele>983.9</ele>
        <time>2011-08-19T14:07:44Z</time>
      </trkpt>
      <trkpt lat="41.859011" lon="2.119990">
        <ele>983.7</ele>
        <time>2011-08-19T14:07:44Z</time>
      </trkpt>
      <trkpt lat="41.859103" lon="2.120029">
        <ele>983.6</ele>
        <time>2011-08-19T14:07:44Z</time>
      </trkpt>
      <trkpt lat="41.859191" lon="2.120055">
        <ele>983.6</ele>
        <time>2011-08-19T14:07:44Z</time>
      </trkpt>
      <trkpt lat="41.859283" lon="2.120065">
        <ele>983.9</ele>
        <time>2011-08-19T14:07:44Z</time>
      </trkpt>
      <trkpt lat="41.859382" lon="2.120059">
        <ele>983.8</ele>
        <time>2011-08-19T14:07:44Z</time>
      </trkpt>
      <trkpt lat="41.859474" lon="2.120020">
        <ele>983.5</ele>
        <time>2011-08-19T14:07:44Z</time>
      </trkpt>
      <trkpt lat="41.859548" lon="2.119982">
        <ele>983.2</ele>
        <time>2011-08-19T14:07:44Z</time>
      </trkpt>
      <trkpt lat="41.859606" lon="2.119941">
        <ele>982.7</ele>
        <time>2011-08-19T14:07:44Z</time>
      </trkpt>
      <trkpt lat="41.859673" lon="2.119889">
        <ele>981.6</ele>
        <time>2011-08-19T14:07:44Z</time>
      </trkpt>
      <trkpt lat="41.859761" lon="2.119818">
        <ele>980.3</ele>
        <time>2011-08-19T14:07:44Z</time>
      </trkpt>
      <trkpt lat="41.859834" lon="2.119760">
        <ele>979.4</ele>
        <time>2011-08-19T14:07:44Z</time>
      </trkpt>
      <trkpt lat="41.859923" lon="2.119692">
        <ele>978.0</ele>
        <time>2011-08-19T14:07:44Z</time>
      </trkpt>
      <trkpt lat="41.860009" lon="2.119632">
        <ele>976.3</ele>
        <time>2011-08-19T14:07:44Z</time>
      </trkpt>
      <trkpt lat="41.860092" lon="2.119577">
        <ele>974.8</ele>
        <time>2011-08-19T14:07:44Z</time>
      </trkpt>
      <trkpt lat="41.860165" lon="2.119534">
        <ele>973.3</ele>
        <time>2011-08-19T14:07:44Z</time>
      </trkpt>
      <trkpt lat="41.860252" lon="2.119488">
        <ele>971.3</ele>
        <time>2011-08-19T14:07:44Z</time>
      </trkpt>
      <trkpt lat="41.860320" lon="2.119464">
        <ele>970.0</ele>
        <time>2011-08-19T14:07:44Z</time>
      </trkpt>
      <trkpt lat="41.860399" lon="2.119452">
        <ele>968.5</ele>
        <time>2011-08-19T14:07:44Z</time>
      </trkpt>
      <trkpt lat="41.860485" lon="2.119453">
        <ele>968.6</ele>
        <time>2011-08-19T14:07:44Z</time>
      </trkpt>
      <trkpt lat="41.860563" lon="2.119498">
        <ele>969.1</ele>
        <time>2011-08-19T14:07:44Z</time>
      </trkpt>
      <trkpt lat="41.860618" lon="2.119525">
        <ele>969.5</ele>
        <time>2011-08-19T14:07:44Z</time>
      </trkpt>
      <trkpt lat="41.860685" lon="2.119573">
        <ele>969.7</ele>
        <time>2011-08-19T14:07:44Z</time>
      </trkpt>
      <trkpt lat="41.860742" lon="2.119611">
        <ele>969.7</ele>
        <time>2011-08-19T14:07:44Z</time>
      </trkpt>
      <trkpt lat="41.860792" lon="2.119655">
        <ele>969.5</ele>
        <time>2011-08-19T14:07:44Z</time>
      </trkpt>
      <trkpt lat="41.860856" lon="2.119711">
        <ele>969.3</ele>
        <time>2011-08-19T14:07:44Z</time>
      </trkpt>
      <trkpt lat="41.860914" lon="2.119768">
        <ele>968.9</ele>
        <time>2011-08-19T14:07:44Z</time>
      </trkpt>
      <trkpt lat="41.860976" lon="2.119823">
        <ele>968.9</ele>
        <time>2011-08-19T14:07:44Z</time>
      </trkpt>
      <trkpt lat="41.861045" lon="2.119883">
        <ele>969.4</ele>
        <time>2011-08-19T14:07:44Z</time>
      </trkpt>
      <trkpt lat="41.861103" lon="2.119959">
        <ele>969.6</ele>
        <time>2011-08-19T14:07:44Z</time>
      </trkpt>
      <trkpt lat="41.861145" lon="2.120024">
        <ele>969.4</ele>
        <time>2011-08-19T14:07:44Z</time>
      </trkpt>
      <trkpt lat="41.861207" lon="2.120113">
        <ele>969.3</ele>
        <time>2011-08-19T14:07:44Z</time>
      </trkpt>
      <trkpt lat="41.861252" lon="2.120170">
        <ele>969.0</ele>
        <time>2011-08-19T14:07:44Z</time>
      </trkpt>
      <trkpt lat="41.861327" lon="2.120247">
        <ele>968.8</ele>
        <time>2011-08-19T14:07:44Z</time>
      </trkpt>
      <trkpt lat="41.861411" lon="2.120301">
        <ele>969.2</ele>
        <time>2011-08-19T14:07:44Z</time>
      </trkpt>
      <trkpt lat="41.861498" lon="2.120311">
        <ele>970.0</ele>
        <time>2011-08-19T14:07:44Z</time>
      </trkpt>
      <trkpt lat="41.861582" lon="2.120299">
        <ele>968.7</ele>
        <time>2011-08-19T14:07:44Z</time>
      </trkpt>
      <trkpt lat="41.861644" lon="2.120260">
        <ele>968.2</ele>
        <time>2011-08-19T14:07:44Z</time>
      </trkpt>
      <trkpt lat="41.861707" lon="2.120225">
        <ele>967.4</ele>
        <time>2011-08-19T14:07:44Z</time>
      </trkpt>
      <trkpt lat="41.861762" lon="2.120144">
        <ele>967.2</ele>
        <time>2011-08-19T14:07:44Z</time>
      </trkpt>
      <trkpt lat="41.861809" lon="2.120054">
        <ele>966.7</ele>
        <time>2011-08-19T14:07:44Z</time>
      </trkpt>
      <trkpt lat="41.861844" lon="2.119998">
        <ele>966.3</ele>
        <time>2011-08-19T14:07:44Z</time>
      </trkpt>
      <trkpt lat="41.861889" lon="2.119910">
        <ele>965.9</ele>
        <time>2011-08-19T14:07:44Z</time>
      </trkpt>
      <trkpt lat="41.861936" lon="2.119846">
        <ele>964.6</ele>
        <time>2011-08-19T14:07:44Z</time>
      </trkpt>
      <trkpt lat="41.861998" lon="2.119781">
        <ele>962.8</ele>
        <time>2011-08-19T14:07:44Z</time>
      </trkpt>
      <trkpt lat="41.862060" lon="2.119735">
        <ele>961.6</ele>
        <time>2011-08-19T14:07:44Z</time>
      </trkpt>
      <trkpt lat="41.862164" lon="2.119698">
        <ele>960.2</ele>
        <time>2011-08-19T14:07:44Z</time>
      </trkpt>
      <trkpt lat="41.862260" lon="2.119690">
        <ele>959.0</ele>
        <time>2011-08-19T14:07:44Z</time>
      </trkpt>
      <trkpt lat="41.862369" lon="2.119714">
        <ele>958.5</ele>
        <time>2011-08-19T14:07:44Z</time>
      </trkpt>
      <trkpt lat="41.862476" lon="2.119762">
        <ele>958.1</ele>
        <time>2011-08-19T14:07:44Z</time>
      </trkpt>
      <trkpt lat="41.862583" lon="2.119790">
        <ele>957.8</ele>
        <time>2011-08-19T14:07:44Z</time>
      </trkpt>
      <trkpt lat="41.862674" lon="2.119793">
        <ele>957.7</ele>
        <time>2011-08-19T14:07:44Z</time>
      </trkpt>
      <trkpt lat="41.862760" lon="2.119796">
        <ele>957.5</ele>
        <time>2011-08-19T14:07:44Z</time>
      </trkpt>
      <trkpt lat="41.862828" lon="2.119801">
        <ele>957.4</ele>
        <time>2011-08-19T14:07:44Z</time>
      </trkpt>
      <trkpt lat="41.862920" lon="2.119822">
        <ele>956.9</ele>
        <time>2011-08-19T14:07:44Z</time>
      </trkpt>
      <trkpt lat="41.862990" lon="2.119829">
        <ele>956.6</ele>
        <time>2011-08-19T14:07:44Z</time>
      </trkpt>
      <trkpt lat="41.863057" lon="2.119830">
        <ele>956.2</ele>
        <time>2011-08-19T14:07:44Z</time>
      </trkpt>
      <trkpt lat="41.863152" lon="2.119824">
        <ele>955.3</ele>
        <time>2011-08-19T14:07:44Z</time>
      </trkpt>
      <trkpt lat="41.863227" lon="2.119794">
        <ele>954.1</ele>
        <time>2011-08-19T14:07:44Z</time>
      </trkpt>
      <trkpt lat="41.863293" lon="2.119767">
        <ele>953.1</ele>
        <time>2011-08-19T14:07:44Z</time>
      </trkpt>
      <trkpt lat="41.863362" lon="2.119730">
        <ele>951.9</ele>
        <time>2011-08-19T14:07:44Z</time>
      </trkpt>
      <trkpt lat="41.863428" lon="2.119722">
        <ele>950.8</ele>
        <time>2011-08-19T14:07:44Z</time>
      </trkpt>
      <trkpt lat="41.863550" lon="2.119717">
        <ele>949.0</ele>
        <time>2011-08-19T14:07:44Z</time>
      </trkpt>
      <trkpt lat="41.863633" lon="2.119719">
        <ele>947.8</ele>
        <time>2011-08-19T14:07:44Z</time>
      </trkpt>
      <trkpt lat="41.863697" lon="2.119715">
        <ele>946.9</ele>
        <time>2011-08-19T14:07:44Z</time>
      </trkpt>
      <trkpt lat="41.863770" lon="2.119694">
        <ele>945.9</ele>
        <time>2011-08-19T14:07:44Z</time>
      </trkpt>
      <trkpt lat="41.863849" lon="2.119669">
        <ele>944.9</ele>
        <time>2011-08-19T14:07:44Z</time>
      </trkpt>
      <trkpt lat="41.863938" lon="2.119629">
        <ele>944.0</ele>
        <time>2011-08-19T14:07:44Z</time>
      </trkpt>
      <trkpt lat="41.864015" lon="2.119615">
        <ele>944.0</ele>
        <time>2011-08-19T14:07:44Z</time>
      </trkpt>
      <trkpt lat="41.864110" lon="2.119588">
        <ele>944.0</ele>
        <time>2011-08-19T14:07:44Z</time>
      </trkpt>
      <trkpt lat="41.864189" lon="2.119576">
        <ele>944.0</ele>
        <time>2011-08-19T14:07:44Z</time>
      </trkpt>
      <trkpt lat="41.864311" lon="2.119551">
        <ele>943.0</ele>
        <time>2011-08-19T14:07:44Z</time>
      </trkpt>
      <trkpt lat="41.864413" lon="2.119545">
        <ele>942.0</ele>
        <time>2011-08-19T14:07:44Z</time>
      </trkpt>
      <trkpt lat="41.864487" lon="2.119544">
        <ele>941.5</ele>
        <time>2011-08-19T14:07:44Z</time>
      </trkpt>
      <trkpt lat="41.864589" lon="2.119540">
        <ele>940.8</ele>
        <time>2011-08-19T14:07:44Z</time>
      </trkpt>
      <trkpt lat="41.864676" lon="2.119536">
        <ele>940.2</ele>
        <time>2011-08-19T14:07:44Z</time>
      </trkpt>
      <trkpt lat="41.864771" lon="2.119530">
        <ele>939.5</ele>
        <time>2011-08-19T14:07:44Z</time>
      </trkpt>
      <trkpt lat="41.864872" lon="2.119513">
        <ele>938.5</ele>
        <time>2011-08-19T14:07:44Z</time>
      </trkpt>
      <trkpt lat="41.864974" lon="2.119496">
        <ele>937.3</ele>
        <time>2011-08-19T14:07:44Z</time>
      </trkpt>
      <trkpt lat="41.865036" lon="2.119492">
        <ele>936.7</ele>
        <time>2011-08-19T14:07:44Z</time>
      </trkpt>
      <trkpt lat="41.865150" lon="2.119488">
        <ele>935.3</ele>
        <time>2011-08-19T14:07:44Z</time>
      </trkpt>
      <trkpt lat="41.865233" lon="2.119485">
        <ele>934.3</ele>
        <time>2011-08-19T14:07:44Z</time>
      </trkpt>
      <trkpt lat="41.865324" lon="2.119442">
        <ele>931.9</ele>
        <time>2011-08-19T14:07:44Z</time>
      </trkpt>
      <trkpt lat="41.865416" lon="2.119394">
        <ele>929.4</ele>
        <time>2011-08-19T14:07:44Z</time>
      </trkpt>
      <trkpt lat="41.865494" lon="2.119365">
        <ele>927.7</ele>
        <time>2011-08-19T14:07:44Z</time>
      </trkpt>
      <trkpt lat="41.865563" lon="2.119356">
        <ele>926.7</ele>
        <time>2011-08-19T14:07:44Z</time>
      </trkpt>
      <trkpt lat="41.865650" lon="2.119347">
        <ele>925.0</ele>
        <time>2011-08-19T14:07:44Z</time>
      </trkpt>
      <trkpt lat="41.865724" lon="2.119348">
        <ele>923.9</ele>
        <time>2011-08-19T14:07:44Z</time>
      </trkpt>
      <trkpt lat="41.865795" lon="2.119368">
        <ele>923.6</ele>
        <time>2011-08-19T14:07:44Z</time>
      </trkpt>
      <trkpt lat="41.865867" lon="2.119383">
        <ele>922.9</ele>
        <time>2011-08-19T14:07:44Z</time>
      </trkpt>
      <trkpt lat="41.865960" lon="2.119425">
        <ele>923.0</ele>
        <time>2011-08-19T14:07:44Z</time>
      </trkpt>
      <trkpt lat="41.866038" lon="2.119437">
        <ele>922.2</ele>
        <time>2011-08-19T14:07:44Z</time>
      </trkpt>
      <trkpt lat="41.866131" lon="2.119462">
        <ele>921.3</ele>
        <time>2011-08-19T14:07:44Z</time>
      </trkpt>
      <trkpt lat="41.866224" lon="2.119510">
        <ele>920.7</ele>
        <time>2011-08-19T14:07:44Z</time>
      </trkpt>
      <trkpt lat="41.866309" lon="2.119550">
        <ele>920.2</ele>
        <time>2011-08-19T14:07:44Z</time>
      </trkpt>
      <trkpt lat="41.866383" lon="2.119580">
        <ele>919.5</ele>
        <time>2011-08-19T14:07:44Z</time>
      </trkpt>
      <trkpt lat="41.866447" lon="2.119608">
        <ele>918.9</ele>
        <time>2011-08-19T14:07:44Z</time>
      </trkpt>
      <trkpt lat="41.866525" lon="2.119651">
        <ele>918.3</ele>
        <time>2011-08-19T14:07:44Z</time>
      </trkpt>
      <trkpt lat="41.866583" lon="2.119696">
        <ele>918.2</ele>
        <time>2011-08-19T14:07:44Z</time>
      </trkpt>
      <trkpt lat="41.866652" lon="2.119752">
        <ele>918.4</ele>
        <time>2011-08-19T14:07:44Z</time>
      </trkpt>
      <trkpt lat="41.866714" lon="2.119790">
        <ele>918.4</ele>
        <time>2011-08-19T14:07:44Z</time>
      </trkpt>
      <trkpt lat="41.866784" lon="2.119807">
        <ele>917.6</ele>
        <time>2011-08-19T14:07:44Z</time>
      </trkpt>
      <trkpt lat="41.866845" lon="2.119807">
        <ele>916.4</ele>
        <time>2011-08-19T14:07:44Z</time>
      </trkpt>
      <trkpt lat="41.866913" lon="2.119780">
        <ele>915.4</ele>
        <time>2011-08-19T14:07:44Z</time>
      </trkpt>
      <trkpt lat="41.866977" lon="2.119730">
        <ele>915.0</ele>
        <time>2011-08-19T14:07:44Z</time>
      </trkpt>
      <trkpt lat="41.867022" lon="2.119680">
        <ele>914.5</ele>
        <time>2011-08-19T14:07:44Z</time>
      </trkpt>
      <trkpt lat="41.867078" lon="2.119622">
        <ele>913.8</ele>
        <time>2011-08-19T14:07:44Z</time>
      </trkpt>
      <trkpt lat="41.867132" lon="2.119549">
        <ele>912.7</ele>
        <time>2011-08-19T14:07:44Z</time>
      </trkpt>
      <trkpt lat="41.867203" lon="2.119481">
        <ele>912.1</ele>
        <time>2011-08-19T14:07:44Z</time>
      </trkpt>
      <trkpt lat="41.867272" lon="2.119407">
        <ele>910.8</ele>
        <time>2011-08-19T14:07:44Z</time>
      </trkpt>
      <trkpt lat="41.867349" lon="2.119339">
        <ele>909.6</ele>
        <time>2011-08-19T14:07:44Z</time>
      </trkpt>
      <trkpt lat="41.867399" lon="2.119292">
        <ele>908.6</ele>
        <time>2011-08-19T14:07:44Z</time>
      </trkpt>
      <trkpt lat="41.867462" lon="2.119242">
        <ele>907.7</ele>
        <time>2011-08-19T14:07:44Z</time>
      </trkpt>
      <trkpt lat="41.867520" lon="2.119202">
        <ele>907.2</ele>
        <time>2011-08-19T14:07:44Z</time>
      </trkpt>
      <trkpt lat="41.867603" lon="2.119131">
        <ele>905.9</ele>
        <time>2011-08-19T14:07:44Z</time>
      </trkpt>
      <trkpt lat="41.867687" lon="2.119063">
        <ele>904.7</ele>
        <time>2011-08-19T14:07:44Z</time>
      </trkpt>
      <trkpt lat="41.867770" lon="2.118999">
        <ele>903.8</ele>
        <time>2011-08-19T14:07:44Z</time>
      </trkpt>
      <trkpt lat="41.867868" lon="2.118933">
        <ele>902.9</ele>
        <time>2011-08-19T14:07:44Z</time>
      </trkpt>
      <trkpt lat="41.867953" lon="2.118880">
        <ele>902.2</ele>
        <time>2011-08-19T14:07:44Z</time>
      </trkpt>
      <trkpt lat="41.868051" lon="2.118799">
        <ele>901.4</ele>
        <time>2011-08-19T14:07:44Z</time>
      </trkpt>
      <trkpt lat="41.868108" lon="2.118723">
        <ele>900.2</ele>
        <time>2011-08-19T14:07:44Z</time>
      </trkpt>
      <trkpt lat="41.868187" lon="2.118605">
        <ele>898.9</ele>
        <time>2011-08-19T14:07:44Z</time>
      </trkpt>
      <trkpt lat="41.868260" lon="2.118542">
        <ele>898.9</ele>
        <time>2011-08-19T14:07:44Z</time>
      </trkpt>
      <trkpt lat="41.868323" lon="2.118453">
        <ele>898.1</ele>
        <time>2011-08-19T14:07:44Z</time>
      </trkpt>
      <trkpt lat="41.868373" lon="2.118380">
        <ele>897.4</ele>
        <time>2011-08-19T14:07:44Z</time>
      </trkpt>
      <trkpt lat="41.868419" lon="2.118312">
        <ele>897.0</ele>
        <time>2011-08-19T14:07:44Z</time>
      </trkpt>
      <trkpt lat="41.868462" lon="2.118226">
        <ele>895.9</ele>
        <time>2011-08-19T14:07:44Z</time>
      </trkpt>
      <trkpt lat="41.868518" lon="2.118174">
        <ele>896.0</ele>
        <time>2011-08-19T14:07:44Z</time>
      </trkpt>
      <trkpt lat="41.868589" lon="2.118079">
        <ele>895.3</ele>
        <time>2011-08-19T14:07:44Z</time>
      </trkpt>
      <trkpt lat="41.868669" lon="2.117952">
        <ele>893.8</ele>
        <time>2011-08-19T14:07:44Z</time>
      </trkpt>
      <trkpt lat="41.868727" lon="2.117865">
        <ele>892.7</ele>
        <time>2011-08-19T14:07:44Z</time>
      </trkpt>
      <trkpt lat="41.868771" lon="2.117818">
        <ele>892.3</ele>
        <time>2011-08-19T14:07:44Z</time>
      </trkpt>
      <trkpt lat="41.868838" lon="2.117750">
        <ele>891.5</ele>
        <time>2011-08-19T14:07:44Z</time>
      </trkpt>
      <trkpt lat="41.868936" lon="2.117648">
        <ele>889.8</ele>
        <time>2011-08-19T14:07:44Z</time>
      </trkpt>
      <trkpt lat="41.869005" lon="2.117551">
        <ele>888.4</ele>
        <time>2011-08-19T14:07:44Z</time>
      </trkpt>
      <trkpt lat="41.869066" lon="2.117475">
        <ele>887.5</ele>
        <time>2011-08-19T14:07:44Z</time>
      </trkpt>
      <trkpt lat="41.869131" lon="2.117394">
        <ele>886.4</ele>
        <time>2011-08-19T14:07:44Z</time>
      </trkpt>
      <trkpt lat="41.869199" lon="2.117333">
        <ele>885.7</ele>
        <time>2011-08-19T14:07:44Z</time>
      </trkpt>
      <trkpt lat="41.869264" lon="2.117278">
        <ele>885.0</ele>
        <time>2011-08-19T14:07:44Z</time>
      </trkpt>
      <trkpt lat="41.869343" lon="2.117207">
        <ele>884.8</ele>
        <time>2011-08-19T14:07:44Z</time>
      </trkpt>
      <trkpt lat="41.869418" lon="2.117126">
        <ele>884.5</ele>
        <time>2011-08-19T14:07:44Z</time>
      </trkpt>
      <trkpt lat="41.869492" lon="2.117055">
        <ele>884.2</ele>
        <time>2011-08-19T14:07:44Z</time>
      </trkpt>
      <trkpt lat="41.869579" lon="2.116971">
        <ele>883.4</ele>
        <time>2011-08-19T14:07:44Z</time>
      </trkpt>
      <trkpt lat="41.869698" lon="2.116809">
        <ele>881.8</ele>
        <time>2011-08-19T14:07:44Z</time>
      </trkpt>
      <trkpt lat="41.869774" lon="2.116741">
        <ele>881.7</ele>
        <time>2011-08-19T14:07:44Z</time>
      </trkpt>
      <trkpt lat="41.869884" lon="2.116584">
        <ele>879.9</ele>
        <time>2011-08-19T14:07:44Z</time>
      </trkpt>
      <trkpt lat="41.869981" lon="2.116481">
        <ele>879.3</ele>
        <time>2011-08-19T14:07:44Z</time>
      </trkpt>
      <trkpt lat="41.870072" lon="2.116374">
        <ele>878.3</ele>
        <time>2011-08-19T14:07:44Z</time>
      </trkpt>
      <trkpt lat="41.870177" lon="2.116274">
        <ele>877.2</ele>
        <time>2011-08-19T14:07:44Z</time>
      </trkpt>
      <trkpt lat="41.870271" lon="2.116146">
        <ele>875.0</ele>
        <time>2011-08-19T14:07:44Z</time>
      </trkpt>
      <trkpt lat="41.870361" lon="2.116008">
        <ele>873.4</ele>
        <time>2011-08-19T14:07:44Z</time>
      </trkpt>
      <trkpt lat="41.870422" lon="2.115892">
        <ele>871.3</ele>
        <time>2011-08-19T14:07:44Z</time>
      </trkpt>
      <trkpt lat="41.870490" lon="2.115799">
        <ele>869.1</ele>
        <time>2011-08-19T14:07:44Z</time>
      </trkpt>
      <trkpt lat="41.870551" lon="2.115658">
        <ele>867.6</ele>
        <time>2011-08-19T14:07:44Z</time>
      </trkpt>
      <trkpt lat="41.870600" lon="2.115527">
        <ele>866.2</ele>
        <time>2011-08-19T14:07:44Z</time>
      </trkpt>
      <trkpt lat="41.870630" lon="2.115395">
        <ele>865.2</ele>
        <time>2011-08-19T14:07:44Z</time>
      </trkpt>
      <trkpt lat="41.870639" lon="2.115271">
        <ele>865.5</ele>
        <time>2011-08-19T14:07:44Z</time>
      </trkpt>
      <trkpt lat="41.870637" lon="2.115105">
        <ele>865.9</ele>
        <time>2011-08-19T14:07:44Z</time>
      </trkpt>
      <trkpt lat="41.870639" lon="2.115010">
        <ele>866.5</ele>
        <time>2011-08-19T14:07:44Z</time>
      </trkpt>
      <trkpt lat="41.870616" lon="2.114857">
        <ele>867.9</ele>
        <time>2011-08-19T14:07:44Z</time>
      </trkpt>
      <trkpt lat="41.870575" lon="2.114784">
        <ele>868.7</ele>
        <time>2011-08-19T14:07:44Z</time>
      </trkpt>
      <trkpt lat="41.870594" lon="2.114386">
        <ele>873.4</ele>
        <time>2011-08-19T14:41:16Z</time>
      </trkpt>
      <trkpt lat="41.870721" lon="2.114341">
        <ele>874.5</ele>
        <time>2011-08-19T14:41:16Z</time>
      </trkpt>
      <trkpt lat="41.870803" lon="2.114303">
        <ele>875.4</ele>
        <time>2011-08-19T14:41:16Z</time>
      </trkpt>
      <trkpt lat="41.870908" lon="2.114252">
        <ele>876.6</ele>
        <time>2011-08-19T14:41:16Z</time>
      </trkpt>
      <trkpt lat="41.870980" lon="2.114204">
        <ele>876.9</ele>
        <time>2011-08-19T14:41:16Z</time>
      </trkpt>
      <trkpt lat="41.871059" lon="2.114166">
        <ele>877.1</ele>
        <time>2011-08-19T14:41:16Z</time>
      </trkpt>
      <trkpt lat="41.871121" lon="2.114129">
        <ele>877.4</ele>
        <time>2011-08-19T14:41:16Z</time>
      </trkpt>
      <trkpt lat="41.871203" lon="2.114057">
        <ele>878.2</ele>
        <time>2011-08-19T14:41:16Z</time>
      </trkpt>
      <trkpt lat="41.871270" lon="2.113963">
        <ele>879.2</ele>
        <time>2011-08-19T14:41:16Z</time>
      </trkpt>
      <trkpt lat="41.871331" lon="2.113875">
        <ele>879.8</ele>
        <time>2011-08-19T14:41:16Z</time>
      </trkpt>
      <trkpt lat="41.871393" lon="2.113761">
        <ele>880.6</ele>
        <time>2011-08-19T14:41:16Z</time>
      </trkpt>
      <trkpt lat="41.871420" lon="2.113654">
        <ele>881.8</ele>
        <time>2011-08-19T14:41:16Z</time>
      </trkpt>
      <trkpt lat="41.871421" lon="2.113570">
        <ele>882.7</ele>
        <time>2011-08-19T14:41:16Z</time>
      </trkpt>
      <trkpt lat="41.871420" lon="2.113440">
        <ele>884.2</ele>
        <time>2011-08-19T14:41:16Z</time>
      </trkpt>
      <trkpt lat="41.871417" lon="2.113330">
        <ele>885.4</ele>
        <time>2011-08-19T14:41:16Z</time>
      </trkpt>
      <trkpt lat="41.871436" lon="2.113186">
        <ele>886.8</ele>
        <time>2011-08-19T14:41:16Z</time>
      </trkpt>
      <trkpt lat="41.871457" lon="2.113066">
        <ele>888.0</ele>
        <time>2011-08-19T14:41:16Z</time>
      </trkpt>
      <trkpt lat="41.871489" lon="2.112911">
        <ele>889.6</ele>
        <time>2011-08-19T14:41:16Z</time>
      </trkpt>
      <trkpt lat="41.871508" lon="2.112801">
        <ele>891.9</ele>
        <time>2011-08-19T14:41:16Z</time>
      </trkpt>
      <trkpt lat="41.871590" lon="2.112726">
        <ele>893.0</ele>
        <time>2011-08-19T14:41:16Z</time>
      </trkpt>
      <trkpt lat="41.871676" lon="2.112672">
        <ele>893.4</ele>
        <time>2011-08-19T14:41:16Z</time>
      </trkpt>
      <trkpt lat="41.871798" lon="2.112617">
        <ele>894.2</ele>
        <time>2011-08-19T14:41:16Z</time>
      </trkpt>
      <trkpt lat="41.871890" lon="2.112549">
        <ele>895.0</ele>
        <time>2011-08-19T14:41:16Z</time>
      </trkpt>
      <trkpt lat="41.871950" lon="2.112491">
        <ele>895.3</ele>
        <time>2011-08-19T14:41:16Z</time>
      </trkpt>
      <trkpt lat="41.872001" lon="2.112414">
        <ele>895.4</ele>
        <time>2011-08-19T14:41:16Z</time>
      </trkpt>
      <trkpt lat="41.872051" lon="2.112313">
        <ele>895.5</ele>
        <time>2011-08-19T14:41:16Z</time>
      </trkpt>
      <trkpt lat="41.872097" lon="2.112192">
        <ele>895.5</ele>
        <time>2011-08-19T14:41:16Z</time>
      </trkpt>
      <trkpt lat="41.872139" lon="2.112104">
        <ele>895.3</ele>
        <time>2011-08-19T14:41:16Z</time>
      </trkpt>
      <trkpt lat="41.872213" lon="2.112033">
        <ele>894.9</ele>
        <time>2011-08-19T14:41:16Z</time>
      </trkpt>
      <trkpt lat="41.872293" lon="2.112002">
        <ele>895.0</ele>
        <time>2011-08-19T14:41:16Z</time>
      </trkpt>
      <trkpt lat="41.872407" lon="2.111997">
        <ele>895.2</ele>
        <time>2011-08-19T14:41:16Z</time>
      </trkpt>
      <trkpt lat="41.872533" lon="2.112042">
        <ele>895.4</ele>
        <time>2011-08-19T14:41:16Z</time>
      </trkpt>
      <trkpt lat="41.872610" lon="2.112088">
        <ele>896.3</ele>
        <time>2011-08-19T14:41:16Z</time>
      </trkpt>
      <trkpt lat="41.872685" lon="2.112120">
        <ele>897.5</ele>
        <time>2011-08-19T14:41:16Z</time>
      </trkpt>
      <trkpt lat="41.872798" lon="2.112149">
        <ele>899.3</ele>
        <time>2011-08-19T14:41:16Z</time>
      </trkpt>
      <trkpt lat="41.872877" lon="2.112108">
        <ele>900.6</ele>
        <time>2011-08-19T14:41:16Z</time>
      </trkpt>
      <trkpt lat="41.872944" lon="2.112050">
        <ele>901.6</ele>
        <time>2011-08-19T14:41:16Z</time>
      </trkpt>
      <trkpt lat="41.873001" lon="2.112006">
        <ele>902.4</ele>
        <time>2011-08-19T14:41:16Z</time>
      </trkpt>
      <trkpt lat="41.873081" lon="2.111965">
        <ele>903.3</ele>
        <time>2011-08-19T14:41:16Z</time>
      </trkpt>
      <trkpt lat="41.873193" lon="2.111953">
        <ele>904.3</ele>
        <time>2011-08-19T14:41:16Z</time>
      </trkpt>
      <trkpt lat="41.873260" lon="2.111919">
        <ele>904.7</ele>
        <time>2011-08-19T14:41:16Z</time>
      </trkpt>
      <trkpt lat="41.873325" lon="2.111874">
        <ele>904.8</ele>
        <time>2011-08-19T14:41:16Z</time>
      </trkpt>
      <trkpt lat="41.873390" lon="2.111840">
        <ele>904.8</ele>
        <time>2011-08-19T14:41:16Z</time>
      </trkpt>
      <trkpt lat="41.873489" lon="2.111789">
        <ele>904.7</ele>
        <time>2011-08-19T14:41:16Z</time>
      </trkpt>
      <trkpt lat="41.873558" lon="2.111764">
        <ele>904.8</ele>
        <time>2011-08-19T14:41:16Z</time>
      </trkpt>
      <trkpt lat="41.873643" lon="2.111706">
        <ele>904.3</ele>
        <time>2011-08-19T14:41:16Z</time>
      </trkpt>
      <trkpt lat="41.873687" lon="2.111622">
        <ele>903.6</ele>
        <time>2011-08-19T14:41:16Z</time>
      </trkpt>
      <trkpt lat="41.873699" lon="2.111542">
        <ele>903.0</ele>
        <time>2011-08-19T14:41:16Z</time>
      </trkpt>
      <trkpt lat="41.873704" lon="2.111455">
        <ele>902.4</ele>
        <time>2011-08-19T14:41:16Z</time>
      </trkpt>
      <trkpt lat="41.873721" lon="2.111315">
        <ele>901.8</ele>
        <time>2011-08-19T14:41:16Z</time>
      </trkpt>
      <trkpt lat="41.873751" lon="2.111221">
        <ele>901.5</ele>
        <time>2011-08-19T14:41:16Z</time>
      </trkpt>
      <trkpt lat="41.873776" lon="2.111128">
        <ele>901.3</ele>
        <time>2011-08-19T14:41:16Z</time>
      </trkpt>
      <trkpt lat="41.873809" lon="2.111045">
        <ele>901.2</ele>
        <time>2011-08-19T14:41:16Z</time>
      </trkpt>
      <trkpt lat="41.873826" lon="2.110965">
        <ele>901.8</ele>
        <time>2011-08-19T14:41:16Z</time>
      </trkpt>
      <trkpt lat="41.873839" lon="2.110842">
        <ele>902.8</ele>
        <time>2011-08-19T14:41:16Z</time>
      </trkpt>
      <trkpt lat="41.873830" lon="2.110701">
        <ele>903.9</ele>
        <time>2011-08-19T14:41:16Z</time>
      </trkpt>
      <trkpt lat="41.873810" lon="2.110656">
        <ele>904.3</ele>
        <time>2011-08-19T14:41:16Z</time>
      </trkpt>
      <trkpt lat="41.873763" lon="2.110539">
        <ele>905.6</ele>
        <time>2011-08-19T14:41:16Z</time>
      </trkpt>
      <trkpt lat="41.873694" lon="2.110391">
        <ele>906.7</ele>
        <time>2011-08-19T14:41:16Z</time>
      </trkpt>
      <trkpt lat="41.873644" lon="2.110274">
        <ele>907.6</ele>
        <time>2011-08-19T14:41:16Z</time>
      </trkpt>
      <trkpt lat="41.873609" lon="2.110195">
        <ele>908.4</ele>
        <time>2011-08-19T14:41:16Z</time>
      </trkpt>
      <trkpt lat="41.873573" lon="2.110104">
        <ele>909.2</ele>
        <time>2011-08-19T14:41:16Z</time>
      </trkpt>
      <trkpt lat="41.873526" lon="2.110025">
        <ele>909.8</ele>
        <time>2011-08-19T14:41:16Z</time>
      </trkpt>
      <trkpt lat="41.873486" lon="2.109956">
        <ele>910.3</ele>
        <time>2011-08-19T14:41:16Z</time>
      </trkpt>
      <trkpt lat="41.873452" lon="2.109885">
        <ele>911.1</ele>
        <time>2011-08-19T14:41:16Z</time>
      </trkpt>
      <trkpt lat="41.873405" lon="2.109787">
        <ele>912.0</ele>
        <time>2011-08-19T14:41:16Z</time>
      </trkpt>
      <trkpt lat="41.873360" lon="2.109689">
        <ele>912.8</ele>
        <time>2011-08-19T14:41:16Z</time>
      </trkpt>
      <trkpt lat="41.873324" lon="2.109628">
        <ele>913.2</ele>
        <time>2011-08-19T14:41:16Z</time>
      </trkpt>
      <trkpt lat="41.873274" lon="2.109552">
        <ele>914.7</ele>
        <time>2011-08-19T14:41:16Z</time>
      </trkpt>
      <trkpt lat="41.873221" lon="2.109494">
        <ele>915.5</ele>
        <time>2011-08-19T14:41:16Z</time>
      </trkpt>
      <trkpt lat="41.873155" lon="2.109425">
        <ele>915.9</ele>
        <time>2011-08-19T14:41:16Z</time>
      </trkpt>
      <trkpt lat="41.873109" lon="2.109367">
        <ele>916.1</ele>
        <time>2011-08-19T14:41:16Z</time>
      </trkpt>
      <trkpt lat="41.873060" lon="2.109299">
        <ele>916.3</ele>
        <time>2011-08-19T14:41:16Z</time>
      </trkpt>
      <trkpt lat="41.872994" lon="2.109206">
        <ele>917.6</ele>
        <time>2011-08-19T14:41:16Z</time>
      </trkpt>
      <trkpt lat="41.872952" lon="2.109162">
        <ele>918.6</ele>
        <time>2011-08-19T14:41:16Z</time>
      </trkpt>
      <trkpt lat="41.872895" lon="2.109085">
        <ele>920.2</ele>
        <time>2011-08-19T14:41:16Z</time>
      </trkpt>
      <trkpt lat="41.872855" lon="2.109030">
        <ele>921.1</ele>
        <time>2011-08-19T14:41:16Z</time>
      </trkpt>
      <trkpt lat="41.872813" lon="2.108993">
        <ele>921.1</ele>
        <time>2011-08-19T14:41:16Z</time>
      </trkpt>
      <trkpt lat="41.872747" lon="2.108954">
        <ele>920.3</ele>
        <time>2011-08-19T14:41:16Z</time>
      </trkpt>
      <trkpt lat="41.872679" lon="2.108920">
        <ele>920.1</ele>
        <time>2011-08-19T14:41:16Z</time>
      </trkpt>
      <trkpt lat="41.872619" lon="2.108886">
        <ele>920.1</ele>
        <time>2011-08-19T14:41:16Z</time>
      </trkpt>
      <trkpt lat="41.872557" lon="2.108845">
        <ele>920.5</ele>
        <time>2011-08-19T14:41:16Z</time>
      </trkpt>
      <trkpt lat="41.872503" lon="2.108795">
        <ele>921.3</ele>
        <time>2011-08-19T14:41:16Z</time>
      </trkpt>
      <trkpt lat="41.872447" lon="2.108755">
        <ele>921.8</ele>
        <time>2011-08-19T14:41:16Z</time>
      </trkpt>
      <trkpt lat="41.872393" lon="2.108714">
        <ele>922.4</ele>
        <time>2011-08-19T14:41:16Z</time>
      </trkpt>
      <trkpt lat="41.872330" lon="2.108659">
        <ele>923.1</ele>
        <time>2011-08-19T14:41:16Z</time>
      </trkpt>
      <trkpt lat="41.872270" lon="2.108609">
        <ele>923.5</ele>
        <time>2011-08-19T14:41:16Z</time>
      </trkpt>
      <trkpt lat="41.872208" lon="2.108548">
        <ele>923.9</ele>
        <time>2011-08-19T14:41:16Z</time>
      </trkpt>
      <trkpt lat="41.872144" lon="2.108461">
        <ele>924.4</ele>
        <time>2011-08-19T14:41:16Z</time>
      </trkpt>
      <trkpt lat="41.872083" lon="2.108382">
        <ele>924.7</ele>
        <time>2011-08-19T14:41:16Z</time>
      </trkpt>
      <trkpt lat="41.872033" lon="2.108324">
        <ele>924.8</ele>
        <time>2011-08-19T14:41:16Z</time>
      </trkpt>
      <trkpt lat="41.871976" lon="2.108237">
        <ele>925.0</ele>
        <time>2011-08-19T14:41:16Z</time>
      </trkpt>
      <trkpt lat="41.871960" lon="2.108184">
        <ele>925.2</ele>
        <time>2011-08-19T14:41:16Z</time>
      </trkpt>
      <trkpt lat="41.871973" lon="2.108088">
        <ele>924.6</ele>
        <time>2011-08-19T14:41:16Z</time>
      </trkpt>
      <trkpt lat="41.872011" lon="2.108005">
        <ele>924.5</ele>
        <time>2011-08-19T14:41:16Z</time>
      </trkpt>
      <trkpt lat="41.872060" lon="2.107929">
        <ele>924.6</ele>
        <time>2011-08-19T14:41:16Z</time>
      </trkpt>
      <trkpt lat="41.872087" lon="2.107825">
        <ele>924.3</ele>
        <time>2011-08-19T14:41:16Z</time>
      </trkpt>
      <trkpt lat="41.872112" lon="2.107707">
        <ele>923.4</ele>
        <time>2011-08-19T14:41:16Z</time>
      </trkpt>
      <trkpt lat="41.872137" lon="2.107595">
        <ele>922.7</ele>
        <time>2011-08-19T14:41:16Z</time>
      </trkpt>
      <trkpt lat="41.872166" lon="2.107499">
        <ele>922.5</ele>
        <time>2011-08-19T14:41:16Z</time>
      </trkpt>
      <trkpt lat="41.872197" lon="2.107392">
        <ele>921.6</ele>
        <time>2011-08-19T14:41:16Z</time>
      </trkpt>
      <trkpt lat="41.872238" lon="2.107306">
        <ele>920.9</ele>
        <time>2011-08-19T14:41:16Z</time>
      </trkpt>
      <trkpt lat="41.872272" lon="2.107228">
        <ele>920.1</ele>
        <time>2011-08-19T14:41:16Z</time>
      </trkpt>
      <trkpt lat="41.872309" lon="2.107161">
        <ele>919.7</ele>
        <time>2011-08-19T14:41:16Z</time>
      </trkpt>
      <trkpt lat="41.872354" lon="2.107099">
        <ele>919.5</ele>
        <time>2011-08-19T14:41:16Z</time>
      </trkpt>
      <trkpt lat="41.872414" lon="2.107039">
        <ele>919.1</ele>
        <time>2011-08-19T14:41:16Z</time>
      </trkpt>
      <trkpt lat="41.872509" lon="2.106982">
        <ele>918.2</ele>
        <time>2011-08-19T14:41:16Z</time>
      </trkpt>
      <trkpt lat="41.872606" lon="2.106968">
        <ele>916.9</ele>
        <time>2011-08-19T14:41:16Z</time>
      </trkpt>
      <trkpt lat="41.872714" lon="2.107003">
        <ele>917.2</ele>
        <time>2011-08-19T14:41:16Z</time>
      </trkpt>
      <trkpt lat="41.872800" lon="2.107050">
        <ele>917.5</ele>
        <time>2011-08-19T14:41:16Z</time>
      </trkpt>
      <trkpt lat="41.872904" lon="2.107099">
        <ele>917.2</ele>
        <time>2011-08-19T14:41:16Z</time>
      </trkpt>
      <trkpt lat="41.873026" lon="2.107143">
        <ele>916.8</ele>
        <time>2011-08-19T14:41:16Z</time>
      </trkpt>
      <trkpt lat="41.873123" lon="2.107160">
        <ele>917.1</ele>
        <time>2011-08-19T14:41:16Z</time>
      </trkpt>
      <trkpt lat="41.873215" lon="2.107164">
        <ele>917.0</ele>
        <time>2011-08-19T14:41:16Z</time>
      </trkpt>
      <trkpt lat="41.873319" lon="2.107163">
        <ele>917.1</ele>
        <time>2011-08-19T14:41:16Z</time>
      </trkpt>
      <trkpt lat="41.873378" lon="2.107154">
        <ele>917.3</ele>
        <time>2011-08-19T14:41:16Z</time>
      </trkpt>
      <trkpt lat="41.873480" lon="2.107145">
        <ele>917.8</ele>
        <time>2011-08-19T14:41:16Z</time>
      </trkpt>
      <trkpt lat="41.873601" lon="2.107116">
        <ele>918.9</ele>
        <time>2011-08-19T14:41:16Z</time>
      </trkpt>
      <trkpt lat="41.873657" lon="2.107062">
        <ele>918.8</ele>
        <time>2011-08-19T14:41:16Z</time>
      </trkpt>
      <trkpt lat="41.873698" lon="2.106979">
        <ele>918.3</ele>
        <time>2011-08-19T14:41:16Z</time>
      </trkpt>
      <trkpt lat="41.873743" lon="2.106896">
        <ele>918.2</ele>
        <time>2011-08-19T14:41:16Z</time>
      </trkpt>
      <trkpt lat="41.873780" lon="2.106799">
        <ele>917.9</ele>
        <time>2011-08-19T14:41:16Z</time>
      </trkpt>
      <trkpt lat="41.873829" lon="2.106639">
        <ele>917.4</ele>
        <time>2011-08-19T14:41:16Z</time>
      </trkpt>
      <trkpt lat="41.873877" lon="2.106494">
        <ele>916.8</ele>
        <time>2011-08-19T14:41:16Z</time>
      </trkpt>
      <trkpt lat="41.873934" lon="2.106368">
        <ele>916.4</ele>
        <time>2011-08-19T14:41:16Z</time>
      </trkpt>
      <trkpt lat="41.873987" lon="2.106269">
        <ele>915.4</ele>
        <time>2011-08-19T14:41:16Z</time>
      </trkpt>
      <trkpt lat="41.874062" lon="2.106153">
        <ele>914.1</ele>
        <time>2011-08-19T14:41:16Z</time>
      </trkpt>
      <trkpt lat="41.874135" lon="2.106077">
        <ele>913.2</ele>
        <time>2011-08-19T14:41:16Z</time>
      </trkpt>
      <trkpt lat="41.874218" lon="2.105970">
        <ele>911.6</ele>
        <time>2011-08-19T14:41:16Z</time>
      </trkpt>
      <trkpt lat="41.874287" lon="2.105894">
        <ele>910.9</ele>
        <time>2011-08-19T14:41:16Z</time>
      </trkpt>
      <trkpt lat="41.874358" lon="2.105805">
        <ele>909.9</ele>
        <time>2011-08-19T14:41:16Z</time>
      </trkpt>
      <trkpt lat="41.874409" lon="2.105732">
        <ele>907.8</ele>
        <time>2011-08-19T14:41:16Z</time>
      </trkpt>
      <trkpt lat="41.874453" lon="2.105695">
        <ele>906.7</ele>
        <time>2011-08-19T14:41:16Z</time>
      </trkpt>
      <trkpt lat="41.874500" lon="2.105662">
        <ele>905.6</ele>
        <time>2011-08-19T14:41:16Z</time>
      </trkpt>
      <trkpt lat="41.874552" lon="2.105664">
        <ele>905.3</ele>
        <time>2011-08-19T14:41:16Z</time>
      </trkpt>
      <trkpt lat="41.874610" lon="2.105714">
        <ele>905.6</ele>
        <time>2011-08-19T14:41:16Z</time>
      </trkpt>
      <trkpt lat="41.874659" lon="2.105798">
        <ele>905.7</ele>
        <time>2011-08-19T14:41:16Z</time>
      </trkpt>
      <trkpt lat="41.874721" lon="2.105880">
        <ele>904.8</ele>
        <time>2011-08-19T14:41:16Z</time>
      </trkpt>
      <trkpt lat="41.874781" lon="2.105948">
        <ele>903.6</ele>
        <time>2011-08-19T14:41:16Z</time>
      </trkpt>
      <trkpt lat="41.874844" lon="2.106012">
        <ele>902.6</ele>
        <time>2011-08-19T14:41:16Z</time>
      </trkpt>
      <trkpt lat="41.874954" lon="2.106093">
        <ele>901.0</ele>
        <time>2011-08-19T14:41:16Z</time>
      </trkpt>
      <trkpt lat="41.875052" lon="2.106158">
        <ele>899.5</ele>
        <time>2011-08-19T14:41:16Z</time>
      </trkpt>
      <trkpt lat="41.875144" lon="2.106207">
        <ele>897.8</ele>
        <time>2011-08-19T14:41:16Z</time>
      </trkpt>
      <trkpt lat="41.875232" lon="2.106243">
        <ele>899.4</ele>
        <time>2011-08-19T14:41:16Z</time>
      </trkpt>
      <trkpt lat="41.875304" lon="2.106226">
        <ele>900.5</ele>
        <time>2011-08-19T14:41:16Z</time>
      </trkpt>
      <trkpt lat="41.875373" lon="2.106161">
        <ele>900.8</ele>
        <time>2011-08-19T14:41:16Z</time>
      </trkpt>
      <trkpt lat="41.875433" lon="2.106017">
        <ele>899.9</ele>
        <time>2011-08-19T14:41:16Z</time>
      </trkpt>
      <trkpt lat="41.875470" lon="2.105917">
        <ele>900.0</ele>
        <time>2011-08-19T14:41:16Z</time>
      </trkpt>
      <trkpt lat="41.875509" lon="2.105805">
        <ele>899.8</ele>
        <time>2011-08-19T14:41:16Z</time>
      </trkpt>
      <trkpt lat="41.875554" lon="2.105674">
        <ele>899.4</ele>
        <time>2011-08-19T14:41:16Z</time>
      </trkpt>
      <trkpt lat="41.875589" lon="2.105532">
        <ele>897.9</ele>
        <time>2011-08-19T14:41:16Z</time>
      </trkpt>
      <trkpt lat="41.875622" lon="2.105462">
        <ele>897.6</ele>
        <time>2011-08-19T14:41:16Z</time>
      </trkpt>
      <trkpt lat="41.875662" lon="2.105379">
        <ele>897.1</ele>
        <time>2011-08-19T14:41:16Z</time>
      </trkpt>
      <trkpt lat="41.875725" lon="2.105320">
        <ele>897.2</ele>
        <time>2011-08-19T14:41:16Z</time>
      </trkpt>
      <trkpt lat="41.875786" lon="2.105279">
        <ele>896.7</ele>
        <time>2011-08-19T14:41:16Z</time>
      </trkpt>
      <trkpt lat="41.875876" lon="2.105256">
        <ele>896.8</ele>
        <time>2011-08-19T14:41:16Z</time>
      </trkpt>
      <trkpt lat="41.875973" lon="2.105249">
        <ele>897.3</ele>
        <time>2011-08-19T14:41:16Z</time>
      </trkpt>
      <trkpt lat="41.876075" lon="2.105253">
        <ele>896.4</ele>
        <time>2011-08-19T14:41:16Z</time>
      </trkpt>
      <trkpt lat="41.876165" lon="2.105263">
        <ele>895.9</ele>
        <time>2011-08-19T14:41:16Z</time>
      </trkpt>
      <trkpt lat="41.876230" lon="2.105262">
        <ele>895.2</ele>
        <time>2011-08-19T14:41:16Z</time>
      </trkpt>
      <trkpt lat="41.876304" lon="2.105248">
        <ele>895.0</ele>
        <time>2011-08-19T14:41:16Z</time>
      </trkpt>
      <trkpt lat="41.876381" lon="2.105217">
        <ele>894.5</ele>
        <time>2011-08-19T14:41:16Z</time>
      </trkpt>
      <trkpt lat="41.876459" lon="2.105171">
        <ele>894.2</ele>
        <time>2011-08-19T14:41:16Z</time>
      </trkpt>
      <trkpt lat="41.876520" lon="2.105101">
        <ele>894.1</ele>
        <time>2011-08-19T14:41:16Z</time>
      </trkpt>
      <trkpt lat="41.876561" lon="2.105012">
        <ele>894.2</ele>
        <time>2011-08-19T14:41:16Z</time>
      </trkpt>
      <trkpt lat="41.876604" lon="2.104932">
        <ele>894.6</ele>
        <time>2011-08-19T14:41:16Z</time>
      </trkpt>
      <trkpt lat="41.876641" lon="2.104808">
        <ele>894.3</ele>
        <time>2011-08-19T14:41:16Z</time>
      </trkpt>
      <trkpt lat="41.876666" lon="2.104704">
        <ele>894.0</ele>
        <time>2011-08-19T14:41:16Z</time>
      </trkpt>
      <trkpt lat="41.876695" lon="2.104578">
        <ele>893.6</ele>
        <time>2011-08-19T14:41:16Z</time>
      </trkpt>
      <trkpt lat="41.876724" lon="2.104485">
        <ele>893.5</ele>
        <time>2011-08-19T14:41:16Z</time>
      </trkpt>
      <trkpt lat="41.876759" lon="2.104386">
        <ele>892.9</ele>
        <time>2011-08-19T14:41:16Z</time>
      </trkpt>
      <trkpt lat="41.876795" lon="2.104308">
        <ele>892.4</ele>
        <time>2011-08-19T14:41:16Z</time>
      </trkpt>
      <trkpt lat="41.876836" lon="2.104230">
        <ele>891.8</ele>
        <time>2011-08-19T14:41:16Z</time>
      </trkpt>
      <trkpt lat="41.876893" lon="2.104144">
        <ele>891.3</ele>
        <time>2011-08-19T14:41:16Z</time>
      </trkpt>
      <trkpt lat="41.876942" lon="2.104090">
        <ele>890.7</ele>
        <time>2011-08-19T14:41:16Z</time>
      </trkpt>
      <trkpt lat="41.877024" lon="2.104041">
        <ele>891.3</ele>
        <time>2011-08-19T14:41:16Z</time>
      </trkpt>
      <trkpt lat="41.877075" lon="2.104029">
        <ele>890.9</ele>
        <time>2011-08-19T14:41:16Z</time>
      </trkpt>
      <trkpt lat="41.877121" lon="2.104007">
        <ele>889.7</ele>
        <time>2011-08-19T14:41:16Z</time>
      </trkpt>
      <trkpt lat="41.877163" lon="2.104004">
        <ele>889.2</ele>
        <time>2011-08-19T14:41:16Z</time>
      </trkpt>
      <trkpt lat="41.877235" lon="2.104046">
        <ele>889.6</ele>
        <time>2011-08-19T14:41:16Z</time>
      </trkpt>
      <trkpt lat="41.877299" lon="2.104096">
        <ele>890.1</ele>
        <time>2011-08-19T14:41:16Z</time>
      </trkpt>
      <trkpt lat="41.877357" lon="2.104180">
        <ele>890.3</ele>
        <time>2011-08-19T14:41:16Z</time>
      </trkpt>
      <trkpt lat="41.877412" lon="2.104249">
        <ele>890.0</ele>
        <time>2011-08-19T14:41:16Z</time>
      </trkpt>
      <trkpt lat="41.877464" lon="2.104304">
        <ele>889.5</ele>
        <time>2011-08-19T14:41:16Z</time>
      </trkpt>
      <trkpt lat="41.877546" lon="2.104383">
        <ele>888.5</ele>
        <time>2011-08-19T14:41:16Z</time>
      </trkpt>
      <trkpt lat="41.877616" lon="2.104451">
        <ele>887.5</ele>
        <time>2011-08-19T14:41:16Z</time>
      </trkpt>
      <trkpt lat="41.877697" lon="2.104540">
        <ele>886.4</ele>
        <time>2011-08-19T14:41:16Z</time>
      </trkpt>
      <trkpt lat="41.877743" lon="2.104622">
        <ele>886.3</ele>
        <time>2011-08-19T14:41:16Z</time>
      </trkpt>
      <trkpt lat="41.877810" lon="2.104718">
        <ele>885.8</ele>
        <time>2011-08-19T14:41:16Z</time>
      </trkpt>
      <trkpt lat="41.877878" lon="2.104799">
        <ele>885.0</ele>
        <time>2011-08-19T14:41:16Z</time>
      </trkpt>
      <trkpt lat="41.877950" lon="2.104891">
        <ele>884.1</ele>
        <time>2011-08-19T14:41:16Z</time>
      </trkpt>
      <trkpt lat="41.878017" lon="2.105002">
        <ele>883.0</ele>
        <time>2011-08-19T14:41:16Z</time>
      </trkpt>
      <trkpt lat="41.878088" lon="2.105132">
        <ele>881.8</ele>
        <time>2011-08-19T14:41:16Z</time>
      </trkpt>
      <trkpt lat="41.878126" lon="2.105217">
        <ele>881.1</ele>
        <time>2011-08-19T14:41:16Z</time>
      </trkpt>
      <trkpt lat="41.878161" lon="2.105336">
        <ele>881.1</ele>
        <time>2011-08-19T14:41:16Z</time>
      </trkpt>
      <trkpt lat="41.878200" lon="2.105477">
        <ele>881.3</ele>
        <time>2011-08-19T14:41:16Z</time>
      </trkpt>
      <trkpt lat="41.878233" lon="2.105581">
        <ele>881.4</ele>
        <time>2011-08-19T14:41:16Z</time>
      </trkpt>
      <trkpt lat="41.878271" lon="2.105703">
        <ele>882.1</ele>
        <time>2011-08-19T14:41:16Z</time>
      </trkpt>
      <trkpt lat="41.878318" lon="2.105761">
        <ele>881.9</ele>
        <time>2011-08-19T14:41:16Z</time>
      </trkpt>
      <trkpt lat="41.878384" lon="2.105770">
        <ele>880.5</ele>
        <time>2011-08-19T14:41:16Z</time>
      </trkpt>
      <trkpt lat="41.878469" lon="2.105734">
        <ele>880.0</ele>
        <time>2011-08-19T14:41:16Z</time>
      </trkpt>
      <trkpt lat="41.878522" lon="2.105694">
        <ele>879.4</ele>
        <time>2011-08-19T14:41:16Z</time>
      </trkpt>
      <trkpt lat="41.878596" lon="2.105655">
        <ele>878.9</ele>
        <time>2011-08-19T14:41:16Z</time>
      </trkpt>
      <trkpt lat="41.878657" lon="2.105615">
        <ele>877.9</ele>
        <time>2011-08-19T14:41:16Z</time>
      </trkpt>
      <trkpt lat="41.878729" lon="2.105563">
        <ele>877.3</ele>
        <time>2011-08-19T14:41:16Z</time>
      </trkpt>
      <trkpt lat="41.878792" lon="2.105506">
        <ele>877.5</ele>
        <time>2011-08-19T14:41:16Z</time>
      </trkpt>
      <trkpt lat="41.878845" lon="2.105425">
        <ele>877.1</ele>
        <time>2011-08-19T14:41:16Z</time>
      </trkpt>
      <trkpt lat="41.878876" lon="2.105300">
        <ele>875.6</ele>
        <time>2011-08-19T14:41:16Z</time>
      </trkpt>
      <trkpt lat="41.878881" lon="2.105153">
        <ele>873.6</ele>
        <time>2011-08-19T14:41:16Z</time>
      </trkpt>
      <trkpt lat="41.878888" lon="2.104990">
        <ele>872.6</ele>
        <time>2011-08-19T14:41:16Z</time>
      </trkpt>
      <trkpt lat="41.878892" lon="2.104846">
        <ele>871.7</ele>
        <time>2011-08-19T14:41:16Z</time>
      </trkpt>
      <trkpt lat="41.878906" lon="2.104763">
        <ele>871.2</ele>
        <time>2011-08-19T14:41:16Z</time>
      </trkpt>
      <trkpt lat="41.878925" lon="2.104649">
        <ele>870.6</ele>
        <time>2011-08-19T14:41:16Z</time>
      </trkpt>
      <trkpt lat="41.878948" lon="2.104550">
        <ele>870.4</ele>
        <time>2011-08-19T14:41:16Z</time>
      </trkpt>
      <trkpt lat="41.878977" lon="2.104467">
        <ele>870.5</ele>
        <time>2011-08-19T14:41:16Z</time>
      </trkpt>
      <trkpt lat="41.878988" lon="2.104357">
        <ele>871.5</ele>
        <time>2011-08-19T14:41:16Z</time>
      </trkpt>
      <trkpt lat="41.878971" lon="2.104251">
        <ele>871.5</ele>
        <time>2011-08-19T14:41:16Z</time>
      </trkpt>
      <trkpt lat="41.878923" lon="2.104187">
        <ele>870.3</ele>
        <time>2011-08-19T14:41:16Z</time>
      </trkpt>
      <trkpt lat="41.878875" lon="2.104135">
        <ele>868.5</ele>
        <time>2011-08-19T14:41:16Z</time>
      </trkpt>
      <trkpt lat="41.878812" lon="2.104040">
        <ele>866.8</ele>
        <time>2011-08-19T14:41:16Z</time>
      </trkpt>
      <trkpt lat="41.878774" lon="2.103955">
        <ele>866.1</ele>
        <time>2011-08-19T14:41:16Z</time>
      </trkpt>
      <trkpt lat="41.878751" lon="2.103830">
        <ele>866.4</ele>
        <time>2011-08-19T14:41:16Z</time>
      </trkpt>
      <trkpt lat="41.878739" lon="2.103764">
        <ele>866.5</ele>
        <time>2011-08-19T14:41:16Z</time>
      </trkpt>
      <trkpt lat="41.878718" lon="2.103639">
        <ele>866.1</ele>
        <time>2011-08-19T14:41:16Z</time>
      </trkpt>
      <trkpt lat="41.878707" lon="2.103521">
        <ele>866.2</ele>
        <time>2011-08-19T14:41:16Z</time>
      </trkpt>
      <trkpt lat="41.878686" lon="2.103375">
        <ele>865.9</ele>
        <time>2011-08-19T14:41:16Z</time>
      </trkpt>
      <trkpt lat="41.878681" lon="2.103293">
        <ele>865.9</ele>
        <time>2011-08-19T14:41:16Z</time>
      </trkpt>
      <trkpt lat="41.878676" lon="2.103181">
        <ele>865.9</ele>
        <time>2011-08-19T14:41:16Z</time>
      </trkpt>
      <trkpt lat="41.878665" lon="2.102984">
        <ele>865.9</ele>
        <time>2011-08-19T14:41:16Z</time>
      </trkpt>
      <trkpt lat="41.878659" lon="2.102808">
        <ele>866.2</ele>
        <time>2011-08-19T14:41:16Z</time>
      </trkpt>
      <trkpt lat="41.878638" lon="2.102648">
        <ele>865.5</ele>
        <time>2011-08-19T14:41:16Z</time>
      </trkpt>
      <trkpt lat="41.878631" lon="2.102539">
        <ele>865.5</ele>
        <time>2011-08-19T14:41:16Z</time>
      </trkpt>
      <trkpt lat="41.878630" lon="2.102416">
        <ele>865.9</ele>
        <time>2011-08-19T14:41:16Z</time>
      </trkpt>
      <trkpt lat="41.878651" lon="2.102299">
        <ele>867.1</ele>
        <time>2011-08-19T14:41:16Z</time>
      </trkpt>
      <trkpt lat="41.878694" lon="2.102183">
        <ele>866.4</ele>
        <time>2011-08-19T14:41:16Z</time>
      </trkpt>
      <trkpt lat="41.878748" lon="2.102124">
        <ele>867.1</ele>
        <time>2011-08-19T14:41:16Z</time>
      </trkpt>
      <trkpt lat="41.878807" lon="2.102041">
        <ele>867.2</ele>
        <time>2011-08-19T14:41:16Z</time>
      </trkpt>
      <trkpt lat="41.878876" lon="2.101968">
        <ele>867.5</ele>
        <time>2011-08-19T14:41:16Z</time>
      </trkpt>
      <trkpt lat="41.878951" lon="2.101905">
        <ele>868.1</ele>
        <time>2011-08-19T14:41:16Z</time>
      </trkpt>
      <trkpt lat="41.879020" lon="2.101832">
        <ele>868.4</ele>
        <time>2011-08-19T14:41:16Z</time>
      </trkpt>
      <trkpt lat="41.879091" lon="2.101736">
        <ele>868.1</ele>
        <time>2011-08-19T14:41:16Z</time>
      </trkpt>
      <trkpt lat="41.879158" lon="2.101660">
        <ele>868.4</ele>
        <time>2011-08-19T14:41:16Z</time>
      </trkpt>
      <trkpt lat="41.879211" lon="2.101574">
        <ele>868.3</ele>
        <time>2011-08-19T14:41:16Z</time>
      </trkpt>
      <trkpt lat="41.879280" lon="2.101472">
        <ele>870.4</ele>
        <time>2011-08-19T14:41:16Z</time>
      </trkpt>
      <trkpt lat="41.879307" lon="2.101381">
        <ele>870.9</ele>
        <time>2011-08-19T14:41:16Z</time>
      </trkpt>
      <trkpt lat="41.879313" lon="2.101269">
        <ele>870.4</ele>
        <time>2011-08-19T14:41:16Z</time>
      </trkpt>
      <trkpt lat="41.879300" lon="2.101167">
        <ele>869.9</ele>
        <time>2011-08-19T14:41:16Z</time>
      </trkpt>
      <trkpt lat="41.879279" lon="2.101072">
        <ele>869.8</ele>
        <time>2011-08-19T14:41:16Z</time>
      </trkpt>
      <trkpt lat="41.879235" lon="2.100966">
        <ele>868.7</ele>
        <time>2011-08-19T14:41:16Z</time>
      </trkpt>
      <trkpt lat="41.879182" lon="2.100879">
        <ele>867.2</ele>
        <time>2011-08-19T14:41:16Z</time>
      </trkpt>
      <trkpt lat="41.879126" lon="2.100815">
        <ele>866.5</ele>
        <time>2011-08-19T14:41:16Z</time>
      </trkpt>
      <trkpt lat="41.879043" lon="2.100691">
        <ele>867.0</ele>
        <time>2011-08-19T14:41:16Z</time>
      </trkpt>
      <trkpt lat="41.878965" lon="2.100631">
        <ele>865.8</ele>
        <time>2011-08-19T14:41:16Z</time>
      </trkpt>
      <trkpt lat="41.878911" lon="2.100568">
        <ele>865.4</ele>
        <time>2011-08-19T14:41:16Z</time>
      </trkpt>
      <trkpt lat="41.878824" lon="2.100484">
        <ele>864.9</ele>
        <time>2011-08-19T14:41:16Z</time>
      </trkpt>
      <trkpt lat="41.878768" lon="2.100434">
        <ele>863.7</ele>
        <time>2011-08-19T14:41:16Z</time>
      </trkpt>
      <trkpt lat="41.878718" lon="2.100368">
        <ele>862.6</ele>
        <time>2011-08-19T14:41:16Z</time>
      </trkpt>
      <trkpt lat="41.878691" lon="2.100283">
        <ele>862.1</ele>
        <time>2011-08-19T14:41:16Z</time>
      </trkpt>
      <trkpt lat="41.878697" lon="2.100179">
        <ele>863.0</ele>
        <time>2011-08-19T14:41:16Z</time>
      </trkpt>
      <trkpt lat="41.878720" lon="2.100067">
        <ele>863.3</ele>
        <time>2011-08-19T14:41:16Z</time>
      </trkpt>
      <trkpt lat="41.878749" lon="2.099954">
        <ele>862.9</ele>
        <time>2011-08-19T14:41:16Z</time>
      </trkpt>
      <trkpt lat="41.878770" lon="2.099864">
        <ele>862.3</ele>
        <time>2011-08-19T14:41:16Z</time>
      </trkpt>
      <trkpt lat="41.878817" lon="2.099743">
        <ele>862.3</ele>
        <time>2011-08-19T14:41:16Z</time>
      </trkpt>
      <trkpt lat="41.878852" lon="2.099636">
        <ele>862.3</ele>
        <time>2011-08-19T14:41:16Z</time>
      </trkpt>
      <trkpt lat="41.878878" lon="2.099473">
        <ele>861.2</ele>
        <time>2011-08-19T14:41:16Z</time>
      </trkpt>
      <trkpt lat="41.878899" lon="2.099353">
        <ele>861.5</ele>
        <time>2011-08-19T14:41:16Z</time>
      </trkpt>
      <trkpt lat="41.878895" lon="2.099265">
        <ele>861.6</ele>
        <time>2011-08-19T14:41:16Z</time>
      </trkpt>
      <trkpt lat="41.878870" lon="2.099150">
        <ele>860.8</ele>
        <time>2011-08-19T14:41:16Z</time>
      </trkpt>
      <trkpt lat="41.878835" lon="2.099050">
        <ele>859.6</ele>
        <time>2011-08-19T14:41:16Z</time>
      </trkpt>
      <trkpt lat="41.878786" lon="2.098946">
        <ele>859.6</ele>
        <time>2011-08-19T14:41:16Z</time>
      </trkpt>
      <trkpt lat="41.878732" lon="2.098825">
        <ele>860.0</ele>
        <time>2011-08-19T14:41:16Z</time>
      </trkpt>
      <trkpt lat="41.878681" lon="2.098751">
        <ele>859.8</ele>
        <time>2011-08-19T14:41:16Z</time>
      </trkpt>
      <trkpt lat="41.878635" lon="2.098682">
        <ele>859.9</ele>
        <time>2011-08-19T14:41:16Z</time>
      </trkpt>
      <trkpt lat="41.878581" lon="2.098616">
        <ele>860.0</ele>
        <time>2011-08-19T14:41:16Z</time>
      </trkpt>
      <trkpt lat="41.878470" lon="2.098522">
        <ele>859.3</ele>
        <time>2011-08-19T14:41:16Z</time>
      </trkpt>
      <trkpt lat="41.878392" lon="2.098427">
        <ele>859.8</ele>
        <time>2011-08-19T14:41:16Z</time>
      </trkpt>
      <trkpt lat="41.878296" lon="2.098332">
        <ele>860.3</ele>
        <time>2011-08-19T14:41:16Z</time>
      </trkpt>
      <trkpt lat="41.878245" lon="2.098285">
        <ele>860.5</ele>
        <time>2011-08-19T14:41:16Z</time>
      </trkpt>
      <trkpt lat="41.878181" lon="2.098225">
        <ele>860.6</ele>
        <time>2011-08-19T14:41:16Z</time>
      </trkpt>
      <trkpt lat="41.878105" lon="2.098154">
        <ele>860.0</ele>
        <time>2011-08-19T14:41:16Z</time>
      </trkpt>
      <trkpt lat="41.878042" lon="2.098072">
        <ele>860.0</ele>
        <time>2011-08-19T14:41:16Z</time>
      </trkpt>
      <trkpt lat="41.877990" lon="2.097982">
        <ele>860.5</ele>
        <time>2011-08-19T14:41:16Z</time>
      </trkpt>
      <trkpt lat="41.877953" lon="2.097894">
        <ele>860.3</ele>
        <time>2011-08-19T14:41:16Z</time>
      </trkpt>
      <trkpt lat="41.877923" lon="2.097762">
        <ele>860.1</ele>
        <time>2011-08-19T14:41:16Z</time>
      </trkpt>
      <trkpt lat="41.877912" lon="2.097618">
        <ele>860.2</ele>
        <time>2011-08-19T14:41:16Z</time>
      </trkpt>
      <trkpt lat="41.877898" lon="2.097469">
        <ele>859.7</ele>
        <time>2011-08-19T14:41:16Z</time>
      </trkpt>
      <trkpt lat="41.877893" lon="2.097304">
        <ele>859.4</ele>
        <time>2011-08-19T14:41:16Z</time>
      </trkpt>
      <trkpt lat="41.877892" lon="2.097186">
        <ele>859.1</ele>
        <time>2011-08-19T14:41:16Z</time>
      </trkpt>
      <trkpt lat="41.877897" lon="2.097042">
        <ele>858.9</ele>
        <time>2011-08-19T14:41:16Z</time>
      </trkpt>
      <trkpt lat="41.877908" lon="2.096917">
        <ele>859.1</ele>
        <time>2011-08-19T14:41:16Z</time>
      </trkpt>
      <trkpt lat="41.877917" lon="2.096770">
        <ele>859.0</ele>
        <time>2011-08-19T14:41:16Z</time>
      </trkpt>
      <trkpt lat="41.877917" lon="2.096605">
        <ele>858.5</ele>
        <time>2011-08-19T14:41:16Z</time>
      </trkpt>
      <trkpt lat="41.877903" lon="2.096496">
        <ele>857.5</ele>
        <time>2011-08-19T14:41:16Z</time>
      </trkpt>
      <trkpt lat="41.877882" lon="2.096376">
        <ele>856.2</ele>
        <time>2011-08-19T14:41:16Z</time>
      </trkpt>
      <trkpt lat="41.877865" lon="2.096251">
        <ele>855.3</ele>
        <time>2011-08-19T14:41:16Z</time>
      </trkpt>
      <trkpt lat="41.877874" lon="2.096128">
        <ele>854.8</ele>
        <time>2011-08-19T14:41:16Z</time>
      </trkpt>
      <trkpt lat="41.877905" lon="2.096024">
        <ele>854.2</ele>
        <time>2011-08-19T14:41:16Z</time>
      </trkpt>
      <trkpt lat="41.877958" lon="2.095930">
        <ele>853.6</ele>
        <time>2011-08-19T14:41:16Z</time>
      </trkpt>
      <trkpt lat="41.878011" lon="2.095884">
        <ele>853.3</ele>
        <time>2011-08-19T14:41:16Z</time>
      </trkpt>
      <trkpt lat="41.878073" lon="2.095848">
        <ele>852.9</ele>
        <time>2011-08-19T14:41:16Z</time>
      </trkpt>
      <trkpt lat="41.878133" lon="2.095848">
        <ele>853.0</ele>
        <time>2011-08-19T14:41:16Z</time>
      </trkpt>
      <trkpt lat="41.878212" lon="2.095852">
        <ele>853.3</ele>
        <time>2011-08-19T14:41:16Z</time>
      </trkpt>
      <trkpt lat="41.878298" lon="2.095843">
        <ele>853.2</ele>
        <time>2011-08-19T14:41:16Z</time>
      </trkpt>
      <trkpt lat="41.878380" lon="2.095836">
        <ele>853.1</ele>
        <time>2011-08-19T14:41:16Z</time>
      </trkpt>
      <trkpt lat="41.878449" lon="2.095824">
        <ele>852.7</ele>
        <time>2011-08-19T14:41:16Z</time>
      </trkpt>
      <trkpt lat="41.878533" lon="2.095799">
        <ele>851.9</ele>
        <time>2011-08-19T14:41:16Z</time>
      </trkpt>
      <trkpt lat="41.878596" lon="2.095780">
        <ele>851.3</ele>
        <time>2011-08-19T14:41:16Z</time>
      </trkpt>
      <trkpt lat="41.878668" lon="2.095752">
        <ele>851.1</ele>
        <time>2011-08-19T14:41:16Z</time>
      </trkpt>
      <trkpt lat="41.878765" lon="2.095721">
        <ele>851.2</ele>
        <time>2011-08-19T14:41:16Z</time>
      </trkpt>
      <trkpt lat="41.878860" lon="2.095688">
        <ele>851.0</ele>
        <time>2011-08-19T14:41:16Z</time>
      </trkpt>
      <trkpt lat="41.878942" lon="2.095650">
        <ele>850.5</ele>
        <time>2011-08-19T14:41:16Z</time>
      </trkpt>
      <trkpt lat="41.879015" lon="2.095611">
        <ele>850.0</ele>
        <time>2011-08-19T14:41:16Z</time>
      </trkpt>
      <trkpt lat="41.879124" lon="2.095556">
        <ele>849.6</ele>
        <time>2011-08-19T14:41:16Z</time>
      </trkpt>
      <trkpt lat="41.879241" lon="2.095496">
        <ele>849.8</ele>
        <time>2011-08-19T14:41:16Z</time>
      </trkpt>
      <trkpt lat="41.879317" lon="2.095423">
        <ele>849.3</ele>
        <time>2011-08-19T14:41:16Z</time>
      </trkpt>
      <trkpt lat="41.879360" lon="2.095332">
        <ele>849.3</ele>
        <time>2011-08-19T14:41:16Z</time>
      </trkpt>
      <trkpt lat="41.879385" lon="2.095228">
        <ele>848.9</ele>
        <time>2011-08-19T14:41:16Z</time>
      </trkpt>
      <trkpt lat="41.879372" lon="2.095076">
        <ele>847.2</ele>
        <time>2011-08-19T14:41:16Z</time>
      </trkpt>
      <trkpt lat="41.879337" lon="2.094962">
        <ele>846.3</ele>
        <time>2011-08-19T14:41:16Z</time>
      </trkpt>
      <trkpt lat="41.879294" lon="2.094848">
        <ele>845.2</ele>
        <time>2011-08-19T14:41:16Z</time>
      </trkpt>
      <trkpt lat="41.879239" lon="2.094737">
        <ele>843.7</ele>
        <time>2011-08-19T14:41:16Z</time>
      </trkpt>
      <trkpt lat="41.879193" lon="2.094657">
        <ele>842.9</ele>
        <time>2011-08-19T14:41:16Z</time>
      </trkpt>
      <trkpt lat="41.879122" lon="2.094530">
        <ele>841.9</ele>
        <time>2011-08-19T14:41:16Z</time>
      </trkpt>
      <trkpt lat="41.879088" lon="2.094453">
        <ele>841.4</ele>
        <time>2011-08-19T14:41:16Z</time>
      </trkpt>
      <trkpt lat="41.879059" lon="2.094363">
        <ele>841.3</ele>
        <time>2011-08-19T14:41:16Z</time>
      </trkpt>
      <trkpt lat="41.879041" lon="2.094167">
        <ele>841.3</ele>
        <time>2011-08-19T14:41:16Z</time>
      </trkpt>
      <trkpt lat="41.879037" lon="2.094048">
        <ele>841.4</ele>
        <time>2011-08-19T14:41:16Z</time>
      </trkpt>
      <trkpt lat="41.879012" lon="2.093929">
        <ele>841.1</ele>
        <time>2011-08-19T14:41:16Z</time>
      </trkpt>
      <trkpt lat="41.878984" lon="2.093802">
        <ele>841.1</ele>
        <time>2011-08-19T14:41:16Z</time>
      </trkpt>
      <trkpt lat="41.878964" lon="2.093696">
        <ele>841.3</ele>
        <time>2011-08-19T14:41:16Z</time>
      </trkpt>
      <trkpt lat="41.878946" lon="2.093588">
        <ele>841.4</ele>
        <time>2011-08-19T14:41:16Z</time>
      </trkpt>
      <trkpt lat="41.878923" lon="2.093430">
        <ele>841.1</ele>
        <time>2011-08-19T14:41:16Z</time>
      </trkpt>
      <trkpt lat="41.878901" lon="2.093350">
        <ele>840.7</ele>
        <time>2011-08-19T14:41:16Z</time>
      </trkpt>
      <trkpt lat="41.878872" lon="2.093234">
        <ele>840.3</ele>
        <time>2011-08-19T14:41:16Z</time>
      </trkpt>
      <trkpt lat="41.878842" lon="2.093121">
        <ele>840.6</ele>
        <time>2011-08-19T14:41:16Z</time>
      </trkpt>
      <trkpt lat="41.878796" lon="2.093026">
        <ele>839.9</ele>
        <time>2011-08-19T14:41:16Z</time>
      </trkpt>
      <trkpt lat="41.878753" lon="2.092933">
        <ele>839.4</ele>
        <time>2011-08-19T14:41:16Z</time>
      </trkpt>
      <trkpt lat="41.878685" lon="2.092841">
        <ele>838.2</ele>
        <time>2011-08-19T14:41:16Z</time>
      </trkpt>
      <trkpt lat="41.878645" lon="2.092776">
        <ele>837.6</ele>
        <time>2011-08-19T14:41:16Z</time>
      </trkpt>
      <trkpt lat="41.878594" lon="2.092669">
        <ele>836.8</ele>
        <time>2011-08-19T14:41:16Z</time>
      </trkpt>
      <trkpt lat="41.878561" lon="2.092576">
        <ele>836.5</ele>
        <time>2011-08-19T14:41:16Z</time>
      </trkpt>
      <trkpt lat="41.878541" lon="2.092491">
        <ele>836.3</ele>
        <time>2011-08-19T14:41:16Z</time>
      </trkpt>
      <trkpt lat="41.878528" lon="2.092351">
        <ele>836.2</ele>
        <time>2011-08-19T14:41:16Z</time>
      </trkpt>
      <trkpt lat="41.878496" lon="2.092214">
        <ele>835.4</ele>
        <time>2011-08-19T14:41:16Z</time>
      </trkpt>
      <trkpt lat="41.878450" lon="2.092088">
        <ele>835.0</ele>
        <time>2011-08-19T14:41:16Z</time>
      </trkpt>
      <trkpt lat="41.878405" lon="2.092019">
        <ele>834.3</ele>
        <time>2011-08-19T14:41:16Z</time>
      </trkpt>
      <trkpt lat="41.878345" lon="2.091929">
        <ele>833.4</ele>
        <time>2011-08-19T14:41:16Z</time>
      </trkpt>
      <trkpt lat="41.878269" lon="2.091863">
        <ele>832.0</ele>
        <time>2011-08-19T14:41:16Z</time>
      </trkpt>
      <trkpt lat="41.878198" lon="2.091799">
        <ele>831.9</ele>
        <time>2011-08-19T14:41:16Z</time>
      </trkpt>
      <trkpt lat="41.878107" lon="2.091712">
        <ele>832.2</ele>
        <time>2011-08-19T14:41:16Z</time>
      </trkpt>
      <trkpt lat="41.878023" lon="2.091646">
        <ele>831.7</ele>
        <time>2011-08-19T14:41:16Z</time>
      </trkpt>
      <trkpt lat="41.877936" lon="2.091595">
        <ele>830.4</ele>
        <time>2011-08-19T14:41:16Z</time>
      </trkpt>
      <trkpt lat="41.877815" lon="2.091538">
        <ele>828.4</ele>
        <time>2011-08-19T14:41:16Z</time>
      </trkpt>
      <trkpt lat="41.877724" lon="2.091484">
        <ele>827.4</ele>
        <time>2011-08-19T14:41:16Z</time>
      </trkpt>
      <trkpt lat="41.877609" lon="2.091429">
        <ele>826.2</ele>
        <time>2011-08-19T14:41:16Z</time>
      </trkpt>
      <trkpt lat="41.877528" lon="2.091425">
        <ele>824.8</ele>
        <time>2011-08-19T14:41:16Z</time>
      </trkpt>
      <trkpt lat="41.877469" lon="2.091390">
        <ele>824.0</ele>
        <time>2011-08-19T14:41:16Z</time>
      </trkpt>
      <trkpt lat="41.877423" lon="2.091328">
        <ele>823.6</ele>
        <time>2011-08-19T14:41:16Z</time>
      </trkpt>
      <trkpt lat="41.877399" lon="2.091251">
        <ele>823.3</ele>
        <time>2011-08-19T14:41:16Z</time>
      </trkpt>
      <trkpt lat="41.877409" lon="2.091147">
        <ele>823.3</ele>
        <time>2011-08-19T14:41:16Z</time>
      </trkpt>
      <trkpt lat="41.877450" lon="2.091074">
        <ele>822.9</ele>
        <time>2011-08-19T14:41:16Z</time>
      </trkpt>
      <trkpt lat="41.877507" lon="2.090980">
        <ele>822.9</ele>
        <time>2011-08-19T14:41:16Z</time>
      </trkpt>
      <trkpt lat="41.877543" lon="2.090868">
        <ele>822.8</ele>
        <time>2011-08-19T14:41:16Z</time>
      </trkpt>
      <trkpt lat="41.877559" lon="2.090754">
        <ele>822.1</ele>
        <time>2011-08-19T14:41:16Z</time>
      </trkpt>
      <trkpt lat="41.877581" lon="2.090632">
        <ele>821.5</ele>
        <time>2011-08-19T14:41:16Z</time>
      </trkpt>
      <trkpt lat="41.877588" lon="2.090505">
        <ele>820.1</ele>
        <time>2011-08-19T14:41:16Z</time>
      </trkpt>
      <trkpt lat="41.877618" lon="2.090303">
        <ele>820.0</ele>
        <time>2011-08-19T14:41:16Z</time>
      </trkpt>
      <trkpt lat="41.877623" lon="2.090189">
        <ele>820.0</ele>
        <time>2011-08-19T14:41:16Z</time>
      </trkpt>
      <trkpt lat="41.877588" lon="2.089985">
        <ele>817.9</ele>
        <time>2011-08-19T14:41:16Z</time>
      </trkpt>
      <trkpt lat="41.877544" lon="2.089866">
        <ele>816.1</ele>
        <time>2011-08-19T14:41:16Z</time>
      </trkpt>
      <trkpt lat="41.877514" lon="2.089719">
        <ele>815.3</ele>
        <time>2011-08-19T14:41:16Z</time>
      </trkpt>
      <trkpt lat="41.877513" lon="2.089602">
        <ele>815.0</ele>
        <time>2011-08-19T14:41:16Z</time>
      </trkpt>
      <trkpt lat="41.877525" lon="2.089421">
        <ele>814.2</ele>
        <time>2011-08-19T14:41:16Z</time>
      </trkpt>
      <trkpt lat="41.877558" lon="2.089309">
        <ele>814.5</ele>
        <time>2011-08-19T14:41:16Z</time>
      </trkpt>
      <trkpt lat="41.877615" lon="2.089192">
        <ele>814.6</ele>
        <time>2011-08-19T14:41:16Z</time>
      </trkpt>
      <trkpt lat="41.877652" lon="2.089064">
        <ele>813.6</ele>
        <time>2011-08-19T14:41:16Z</time>
      </trkpt>
      <trkpt lat="41.877682" lon="2.088948">
        <ele>812.5</ele>
        <time>2011-08-19T14:41:16Z</time>
      </trkpt>
      <trkpt lat="41.877718" lon="2.088768">
        <ele>811.7</ele>
        <time>2011-08-19T14:41:16Z</time>
      </trkpt>
      <trkpt lat="41.877755" lon="2.088610">
        <ele>811.8</ele>
        <time>2011-08-19T14:41:16Z</time>
      </trkpt>
      <trkpt lat="41.877769" lon="2.088457">
        <ele>812.1</ele>
        <time>2011-08-19T14:41:16Z</time>
      </trkpt>
      <trkpt lat="41.877760" lon="2.088247">
        <ele>811.5</ele>
        <time>2011-08-19T14:41:16Z</time>
      </trkpt>
      <trkpt lat="41.877726" lon="2.088150">
        <ele>811.1</ele>
        <time>2011-08-19T14:41:16Z</time>
      </trkpt>
      <trkpt lat="41.877693" lon="2.088059">
        <ele>811.4</ele>
        <time>2011-08-19T14:41:16Z</time>
      </trkpt>
      <trkpt lat="41.877644" lon="2.087990">
        <ele>811.3</ele>
        <time>2011-08-19T14:41:16Z</time>
      </trkpt>
      <trkpt lat="41.877562" lon="2.087908">
        <ele>811.1</ele>
        <time>2011-08-19T14:41:16Z</time>
      </trkpt>
      <trkpt lat="41.877486" lon="2.087840">
        <ele>811.6</ele>
        <time>2011-08-19T14:41:16Z</time>
      </trkpt>
      <trkpt lat="41.877387" lon="2.087776">
        <ele>812.8</ele>
        <time>2011-08-19T14:41:16Z</time>
      </trkpt>
      <trkpt lat="41.877311" lon="2.087733">
        <ele>813.5</ele>
        <time>2011-08-19T14:41:16Z</time>
      </trkpt>
      <trkpt lat="41.877216" lon="2.087685">
        <ele>814.1</ele>
        <time>2011-08-19T14:41:16Z</time>
      </trkpt>
      <trkpt lat="41.877142" lon="2.087653">
        <ele>814.0</ele>
        <time>2011-08-19T14:41:16Z</time>
      </trkpt>
      <trkpt lat="41.877072" lon="2.087594">
        <ele>814.4</ele>
        <time>2011-08-19T14:41:16Z</time>
      </trkpt>
      <trkpt lat="41.877019" lon="2.087520">
        <ele>815.4</ele>
        <time>2011-08-19T14:41:16Z</time>
      </trkpt>
      <trkpt lat="41.876966" lon="2.087422">
        <ele>816.5</ele>
        <time>2011-08-19T14:41:16Z</time>
      </trkpt>
      <trkpt lat="41.876901" lon="2.087327">
        <ele>817.0</ele>
        <time>2011-08-19T14:41:16Z</time>
      </trkpt>
      <trkpt lat="41.876845" lon="2.087271">
        <ele>817.3</ele>
        <time>2011-08-19T14:41:16Z</time>
      </trkpt>
      <trkpt lat="41.876778" lon="2.087223">
        <ele>817.2</ele>
        <time>2011-08-19T14:41:16Z</time>
      </trkpt>
      <trkpt lat="41.876685" lon="2.087160">
        <ele>816.9</ele>
        <time>2011-08-19T14:41:16Z</time>
      </trkpt>
      <trkpt lat="41.876602" lon="2.087125">
        <ele>815.8</ele>
        <time>2011-08-19T14:41:16Z</time>
      </trkpt>
      <trkpt lat="41.876535" lon="2.087061">
        <ele>815.0</ele>
        <time>2011-08-19T14:41:16Z</time>
      </trkpt>
      <trkpt lat="41.876548" lon="2.086967">
        <ele>814.6</ele>
        <time>2011-08-19T14:41:16Z</time>
      </trkpt>
      <trkpt lat="41.876573" lon="2.086900">
        <ele>814.7</ele>
        <time>2011-08-19T14:41:16Z</time>
      </trkpt>
      <trkpt lat="41.876630" lon="2.086811">
        <ele>816.0</ele>
        <time>2011-08-19T14:41:16Z</time>
      </trkpt>
      <trkpt lat="41.876695" lon="2.086730">
        <ele>816.2</ele>
        <time>2011-08-19T14:41:16Z</time>
      </trkpt>
      <trkpt lat="41.876758" lon="2.086630">
        <ele>815.8</ele>
        <time>2011-08-19T14:41:16Z</time>
      </trkpt>
      <trkpt lat="41.876827" lon="2.086541">
        <ele>816.3</ele>
        <time>2011-08-19T14:41:16Z</time>
      </trkpt>
      <trkpt lat="41.876890" lon="2.086398">
        <ele>816.2</ele>
        <time>2011-08-19T14:41:16Z</time>
      </trkpt>
      <trkpt lat="41.876940" lon="2.086317">
        <ele>817.6</ele>
        <time>2011-08-19T14:41:16Z</time>
      </trkpt>
      <trkpt lat="41.876973" lon="2.086195">
        <ele>817.7</ele>
        <time>2011-08-19T14:41:16Z</time>
      </trkpt>
      <trkpt lat="41.876990" lon="2.086060">
        <ele>816.9</ele>
        <time>2011-08-19T14:41:16Z</time>
      </trkpt>
      <trkpt lat="41.876989" lon="2.085941">
        <ele>816.9</ele>
        <time>2011-08-19T14:41:16Z</time>
      </trkpt>
      <trkpt lat="41.876996" lon="2.085824">
        <ele>817.3</ele>
        <time>2011-08-19T14:41:16Z</time>
      </trkpt>
      <trkpt lat="41.876975" lon="2.085695">
        <ele>816.4</ele>
        <time>2011-08-19T14:41:16Z</time>
      </trkpt>
      <trkpt lat="41.876949" lon="2.085613">
        <ele>816.1</ele>
        <time>2011-08-19T14:41:16Z</time>
      </trkpt>
      <trkpt lat="41.876902" lon="2.085481">
        <ele>815.6</ele>
        <time>2011-08-19T14:41:16Z</time>
      </trkpt>
      <trkpt lat="41.876851" lon="2.085368">
        <ele>814.7</ele>
        <time>2011-08-19T14:41:16Z</time>
      </trkpt>
      <trkpt lat="41.876800" lon="2.085276">
        <ele>813.9</ele>
        <time>2011-08-19T14:41:16Z</time>
      </trkpt>
      <trkpt lat="41.876755" lon="2.085214">
        <ele>812.9</ele>
        <time>2011-08-19T14:41:16Z</time>
      </trkpt>
      <trkpt lat="41.876700" lon="2.085116">
        <ele>812.2</ele>
        <time>2011-08-19T14:41:16Z</time>
      </trkpt>
      <trkpt lat="41.876651" lon="2.085001">
        <ele>812.2</ele>
        <time>2011-08-19T14:41:16Z</time>
      </trkpt>
      <trkpt lat="41.876601" lon="2.084911">
        <ele>811.3</ele>
        <time>2011-08-19T14:41:16Z</time>
      </trkpt>
      <trkpt lat="41.876550" lon="2.084818">
        <ele>810.2</ele>
        <time>2011-08-19T14:41:16Z</time>
      </trkpt>
      <trkpt lat="41.876497" lon="2.084726">
        <ele>808.8</ele>
        <time>2011-08-19T14:41:16Z</time>
      </trkpt>
      <trkpt lat="41.876448" lon="2.084605">
        <ele>807.6</ele>
        <time>2011-08-19T14:41:16Z</time>
      </trkpt>
      <trkpt lat="41.876411" lon="2.084510">
        <ele>806.9</ele>
        <time>2011-08-19T14:41:16Z</time>
      </trkpt>
      <trkpt lat="41.876363" lon="2.084389">
        <ele>806.2</ele>
        <time>2011-08-19T14:41:16Z</time>
      </trkpt>
      <trkpt lat="41.876314" lon="2.084255">
        <ele>806.2</ele>
        <time>2011-08-19T14:41:16Z</time>
      </trkpt>
      <trkpt lat="41.876268" lon="2.084139">
        <ele>806.9</ele>
        <time>2011-08-19T14:41:16Z</time>
      </trkpt>
      <trkpt lat="41.876196" lon="2.084080">
        <ele>806.2</ele>
        <time>2011-08-19T14:41:16Z</time>
      </trkpt>
      <trkpt lat="41.876124" lon="2.084011">
        <ele>806.1</ele>
        <time>2011-08-19T14:41:16Z</time>
      </trkpt>
      <trkpt lat="41.876017" lon="2.083943">
        <ele>806.3</ele>
        <time>2011-08-19T14:41:16Z</time>
      </trkpt>
      <trkpt lat="41.875887" lon="2.083883">
        <ele>806.8</ele>
        <time>2011-08-19T14:41:16Z</time>
      </trkpt>
      <trkpt lat="41.875805" lon="2.083832">
        <ele>807.7</ele>
        <time>2011-08-19T14:41:16Z</time>
      </trkpt>
      <trkpt lat="41.875753" lon="2.083830">
        <ele>807.5</ele>
        <time>2011-08-19T14:41:16Z</time>
      </trkpt>
      <trkpt lat="41.875685" lon="2.083813">
        <ele>807.9</ele>
        <time>2011-08-19T14:41:16Z</time>
      </trkpt>
      <trkpt lat="41.875627" lon="2.083785">
        <ele>808.6</ele>
        <time>2011-08-19T14:41:16Z</time>
      </trkpt>
      <trkpt lat="41.875534" lon="2.083753">
        <ele>809.4</ele>
        <time>2011-08-19T14:41:16Z</time>
      </trkpt>
      <trkpt lat="41.875454" lon="2.083741">
        <ele>809.0</ele>
        <time>2011-08-19T14:41:16Z</time>
      </trkpt>
      <trkpt lat="41.875338" lon="2.083712">
        <ele>808.6</ele>
        <time>2011-08-19T14:41:16Z</time>
      </trkpt>
      <trkpt lat="41.875251" lon="2.083682">
        <ele>808.1</ele>
        <time>2011-08-19T14:41:16Z</time>
      </trkpt>
      <trkpt lat="41.875190" lon="2.083618">
        <ele>807.7</ele>
        <time>2011-08-19T14:41:16Z</time>
      </trkpt>
      <trkpt lat="41.875162" lon="2.083554">
        <ele>807.9</ele>
        <time>2011-08-19T14:41:16Z</time>
      </trkpt>
      <trkpt lat="41.875146" lon="2.083461">
        <ele>807.0</ele>
        <time>2011-08-19T14:41:16Z</time>
      </trkpt>
      <trkpt lat="41.875149" lon="2.083321">
        <ele>806.5</ele>
        <time>2011-08-19T14:41:16Z</time>
      </trkpt>
      <trkpt lat="41.875179" lon="2.083181">
        <ele>807.3</ele>
        <time>2011-08-19T14:41:16Z</time>
      </trkpt>
      <trkpt lat="41.875211" lon="2.083056">
        <ele>807.1</ele>
        <time>2011-08-19T14:41:16Z</time>
      </trkpt>
      <trkpt lat="41.875245" lon="2.082929">
        <ele>807.1</ele>
        <time>2011-08-19T14:41:16Z</time>
      </trkpt>
      <trkpt lat="41.875271" lon="2.082791">
        <ele>806.6</ele>
        <time>2011-08-19T14:41:16Z</time>
      </trkpt>
      <trkpt lat="41.875281" lon="2.082667">
        <ele>805.9</ele>
        <time>2011-08-19T14:41:16Z</time>
      </trkpt>
      <trkpt lat="41.875289" lon="2.082490">
        <ele>804.6</ele>
        <time>2011-08-19T14:41:16Z</time>
      </trkpt>
      <trkpt lat="41.875317" lon="2.082286">
        <ele>803.4</ele>
        <time>2011-08-19T14:41:16Z</time>
      </trkpt>
      <trkpt lat="41.875337" lon="2.082156">
        <ele>802.6</ele>
        <time>2011-08-19T14:41:16Z</time>
      </trkpt>
      <trkpt lat="41.875353" lon="2.081982">
        <ele>801.4</ele>
        <time>2011-08-19T14:41:16Z</time>
      </trkpt>
      <trkpt lat="41.875365" lon="2.081842">
        <ele>800.2</ele>
        <time>2011-08-19T14:41:16Z</time>
      </trkpt>
      <trkpt lat="41.875399" lon="2.081694">
        <ele>799.8</ele>
        <time>2011-08-19T14:41:16Z</time>
      </trkpt>
      <trkpt lat="41.875412" lon="2.081580">
        <ele>799.4</ele>
        <time>2011-08-19T14:41:16Z</time>
      </trkpt>
      <trkpt lat="41.875401" lon="2.081469">
        <ele>798.5</ele>
        <time>2011-08-19T14:41:16Z</time>
      </trkpt>
      <trkpt lat="41.875400" lon="2.081342">
        <ele>797.9</ele>
        <time>2011-08-19T14:41:16Z</time>
      </trkpt>
      <trkpt lat="41.875385" lon="2.081176">
        <ele>797.3</ele>
        <time>2011-08-19T14:41:16Z</time>
      </trkpt>
      <trkpt lat="41.875376" lon="2.080998">
        <ele>797.0</ele>
        <time>2011-08-19T14:41:16Z</time>
      </trkpt>
      <trkpt lat="41.875366" lon="2.080902">
        <ele>797.0</ele>
        <time>2011-08-19T14:41:16Z</time>
      </trkpt>
      <trkpt lat="41.875359" lon="2.080752">
        <ele>797.1</ele>
        <time>2011-08-19T14:41:16Z</time>
      </trkpt>
      <trkpt lat="41.875340" lon="2.080633">
        <ele>797.4</ele>
        <time>2011-08-19T14:41:16Z</time>
      </trkpt>
      <trkpt lat="41.875324" lon="2.080486">
        <ele>797.1</ele>
        <time>2011-08-19T14:41:16Z</time>
      </trkpt>
      <trkpt lat="41.875308" lon="2.080271">
        <ele>796.7</ele>
        <time>2011-08-19T14:41:16Z</time>
      </trkpt>
      <trkpt lat="41.875311" lon="2.080116">
        <ele>796.1</ele>
        <time>2011-08-19T14:41:16Z</time>
      </trkpt>
      <trkpt lat="41.875312" lon="2.080004">
        <ele>795.7</ele>
        <time>2011-08-19T14:41:16Z</time>
      </trkpt>
      <trkpt lat="41.875313" lon="2.079924">
        <ele>795.4</ele>
        <time>2011-08-19T14:41:16Z</time>
      </trkpt>
      <trkpt lat="41.875315" lon="2.079810">
        <ele>795.0</ele>
        <time>2011-08-19T14:41:16Z</time>
      </trkpt>
      <trkpt lat="41.875314" lon="2.079722">
        <ele>794.7</ele>
        <time>2011-08-19T14:41:16Z</time>
      </trkpt>
      <trkpt lat="41.875322" lon="2.079512">
        <ele>794.0</ele>
        <time>2011-08-19T14:41:16Z</time>
      </trkpt>
      <trkpt lat="41.875324" lon="2.079360">
        <ele>794.3</ele>
        <time>2011-08-19T14:41:16Z</time>
      </trkpt>
      <trkpt lat="41.875327" lon="2.079222">
        <ele>794.6</ele>
        <time>2011-08-19T14:41:16Z</time>
      </trkpt>
      <trkpt lat="41.875326" lon="2.079129">
        <ele>794.2</ele>
        <time>2011-08-19T14:41:16Z</time>
      </trkpt>
      <trkpt lat="41.875279" lon="2.079016">
        <ele>795.2</ele>
        <time>2011-08-19T14:41:16Z</time>
      </trkpt>
      <trkpt lat="41.875248" lon="2.078954">
        <ele>795.8</ele>
        <time>2011-08-19T14:41:16Z</time>
      </trkpt>
      <trkpt lat="41.875198" lon="2.078838">
        <ele>796.0</ele>
        <time>2011-08-19T14:41:16Z</time>
      </trkpt>
      <trkpt lat="41.875140" lon="2.078767">
        <ele>795.9</ele>
        <time>2011-08-19T14:41:16Z</time>
      </trkpt>
      <trkpt lat="41.875102" lon="2.078708">
        <ele>795.6</ele>
        <time>2011-08-19T14:41:16Z</time>
      </trkpt>
      <trkpt lat="41.875046" lon="2.078618">
        <ele>795.0</ele>
        <time>2011-08-19T14:41:16Z</time>
      </trkpt>
      <trkpt lat="41.874989" lon="2.078544">
        <ele>794.8</ele>
        <time>2011-08-19T14:41:16Z</time>
      </trkpt>
      <trkpt lat="41.874915" lon="2.078444">
        <ele>794.7</ele>
        <time>2011-08-19T14:41:16Z</time>
      </trkpt>
      <trkpt lat="41.874858" lon="2.078336">
        <ele>794.1</ele>
        <time>2011-08-19T14:41:16Z</time>
      </trkpt>
      <trkpt lat="41.874793" lon="2.078223">
        <ele>793.7</ele>
        <time>2011-08-19T14:41:16Z</time>
      </trkpt>
      <trkpt lat="41.874713" lon="2.078115">
        <ele>793.7</ele>
        <time>2011-08-19T14:41:16Z</time>
      </trkpt>
      <trkpt lat="41.874654" lon="2.078056">
        <ele>794.3</ele>
        <time>2011-08-19T14:41:16Z</time>
      </trkpt>
      <trkpt lat="41.874593" lon="2.077980">
        <ele>794.4</ele>
        <time>2011-08-19T14:41:16Z</time>
      </trkpt>
      <trkpt lat="41.874548" lon="2.077892">
        <ele>794.3</ele>
        <time>2011-08-19T14:41:16Z</time>
      </trkpt>
      <trkpt lat="41.874493" lon="2.077818">
        <ele>794.5</ele>
        <time>2011-08-19T14:41:16Z</time>
      </trkpt>
      <trkpt lat="41.874450" lon="2.077710">
        <ele>794.7</ele>
        <time>2011-08-19T14:41:16Z</time>
      </trkpt>
      <trkpt lat="41.874420" lon="2.077625">
        <ele>795.0</ele>
        <time>2011-08-19T14:41:16Z</time>
      </trkpt>
      <trkpt lat="41.874388" lon="2.077517">
        <ele>795.4</ele>
        <time>2011-08-19T14:41:16Z</time>
      </trkpt>
      <trkpt lat="41.874360" lon="2.077403">
        <ele>795.7</ele>
        <time>2011-08-19T14:41:16Z</time>
      </trkpt>
      <trkpt lat="41.874348" lon="2.077287">
        <ele>796.6</ele>
        <time>2011-08-19T14:41:16Z</time>
      </trkpt>
      <trkpt lat="41.874347" lon="2.077196">
        <ele>797.1</ele>
        <time>2011-08-19T14:41:16Z</time>
      </trkpt>
      <trkpt lat="41.874361" lon="2.077043">
        <ele>797.3</ele>
        <time>2011-08-19T14:41:16Z</time>
      </trkpt>
      <trkpt lat="41.874376" lon="2.076929">
        <ele>797.0</ele>
        <time>2011-08-19T14:41:16Z</time>
      </trkpt>
      <trkpt lat="41.874392" lon="2.076799">
        <ele>796.6</ele>
        <time>2011-08-19T14:41:16Z</time>
      </trkpt>
      <trkpt lat="41.874397" lon="2.076623">
        <ele>797.2</ele>
        <time>2011-08-19T14:41:16Z</time>
      </trkpt>
      <trkpt lat="41.874407" lon="2.076509">
        <ele>797.6</ele>
        <time>2011-08-19T14:41:16Z</time>
      </trkpt>
      <trkpt lat="41.874424" lon="2.076348">
        <ele>798.1</ele>
        <time>2011-08-19T14:41:16Z</time>
      </trkpt>
      <trkpt lat="41.874448" lon="2.076208">
        <ele>798.2</ele>
        <time>2011-08-19T14:41:16Z</time>
      </trkpt>
      <trkpt lat="41.874459" lon="2.076128">
        <ele>798.5</ele>
        <time>2011-08-19T14:41:16Z</time>
      </trkpt>
      <trkpt lat="41.874477" lon="2.075983">
        <ele>799.1</ele>
        <time>2011-08-19T14:41:16Z</time>
      </trkpt>
      <trkpt lat="41.874505" lon="2.075842">
        <ele>799.3</ele>
        <time>2011-08-19T14:41:16Z</time>
      </trkpt>
      <trkpt lat="41.874534" lon="2.075663">
        <ele>799.9</ele>
        <time>2011-08-19T14:41:16Z</time>
      </trkpt>
      <trkpt lat="41.874579" lon="2.075515">
        <ele>799.6</ele>
        <time>2011-08-19T14:41:16Z</time>
      </trkpt>
      <trkpt lat="41.874611" lon="2.075354">
        <ele>799.4</ele>
        <time>2011-08-19T14:41:16Z</time>
      </trkpt>
      <trkpt lat="41.874628" lon="2.075250">
        <ele>799.5</ele>
        <time>2011-08-19T14:41:16Z</time>
      </trkpt>
      <trkpt lat="41.874609" lon="2.075142">
        <ele>799.3</ele>
        <time>2011-08-19T14:41:16Z</time>
      </trkpt>
      <trkpt lat="41.874571" lon="2.074958">
        <ele>799.1</ele>
        <time>2011-08-19T14:41:16Z</time>
      </trkpt>
      <trkpt lat="41.874546" lon="2.074783">
        <ele>797.6</ele>
        <time>2011-08-19T14:41:16Z</time>
      </trkpt>
      <trkpt lat="41.874505" lon="2.074633">
        <ele>796.5</ele>
        <time>2011-08-19T14:41:16Z</time>
      </trkpt>
      <trkpt lat="41.874484" lon="2.074468">
        <ele>795.3</ele>
        <time>2011-08-19T14:41:16Z</time>
      </trkpt>
      <trkpt lat="41.874460" lon="2.074346">
        <ele>795.3</ele>
        <time>2011-08-19T14:41:16Z</time>
      </trkpt>
      <trkpt lat="41.874420" lon="2.074205">
        <ele>795.7</ele>
        <time>2011-08-19T14:41:16Z</time>
      </trkpt>
      <trkpt lat="41.874369" lon="2.074078">
        <ele>796.7</ele>
        <time>2011-08-19T14:41:16Z</time>
      </trkpt>
      <trkpt lat="41.874317" lon="2.073929">
        <ele>796.2</ele>
        <time>2011-08-19T14:41:16Z</time>
      </trkpt>
      <trkpt lat="41.874328" lon="2.073812">
        <ele>795.9</ele>
        <time>2011-08-19T14:41:16Z</time>
      </trkpt>
      <trkpt lat="41.874321" lon="2.073665">
        <ele>794.9</ele>
        <time>2011-08-19T14:41:16Z</time>
      </trkpt>
      <trkpt lat="41.874312" lon="2.073535">
        <ele>794.0</ele>
        <time>2011-08-19T14:41:16Z</time>
      </trkpt>
      <trkpt lat="41.874294" lon="2.073427">
        <ele>793.1</ele>
        <time>2011-08-19T14:41:16Z</time>
      </trkpt>
      <trkpt lat="41.874281" lon="2.073292">
        <ele>792.4</ele>
        <time>2011-08-19T14:41:16Z</time>
      </trkpt>
      <trkpt lat="41.874258" lon="2.073127">
        <ele>791.3</ele>
        <time>2011-08-19T14:41:16Z</time>
      </trkpt>
      <trkpt lat="41.874246" lon="2.073032">
        <ele>790.8</ele>
        <time>2011-08-19T14:41:16Z</time>
      </trkpt>
      <trkpt lat="41.874219" lon="2.072877">
        <ele>790.1</ele>
        <time>2011-08-19T14:41:16Z</time>
      </trkpt>
      <trkpt lat="41.874201" lon="2.072750">
        <ele>789.6</ele>
        <time>2011-08-19T14:41:16Z</time>
      </trkpt>
      <trkpt lat="41.874165" lon="2.072636">
        <ele>788.8</ele>
        <time>2011-08-19T14:41:16Z</time>
      </trkpt>
      <trkpt lat="41.874116" lon="2.072539">
        <ele>787.7</ele>
        <time>2011-08-19T14:41:16Z</time>
      </trkpt>
      <trkpt lat="41.874055" lon="2.072421">
        <ele>786.4</ele>
        <time>2011-08-19T14:41:16Z</time>
      </trkpt>
      <trkpt lat="41.874002" lon="2.072326">
        <ele>785.4</ele>
        <time>2011-08-19T14:41:16Z</time>
      </trkpt>
      <trkpt lat="41.873953" lon="2.072236">
        <ele>784.5</ele>
        <time>2011-08-19T14:41:16Z</time>
      </trkpt>
      <trkpt lat="41.873925" lon="2.072148">
        <ele>784.0</ele>
        <time>2011-08-19T14:41:16Z</time>
      </trkpt>
      <trkpt lat="41.873890" lon="2.072037">
        <ele>783.3</ele>
        <time>2011-08-19T14:41:16Z</time>
      </trkpt>
      <trkpt lat="41.873848" lon="2.071929">
        <ele>782.5</ele>
        <time>2011-08-19T14:41:16Z</time>
      </trkpt>
      <trkpt lat="41.873821" lon="2.071867">
        <ele>782.1</ele>
        <time>2011-08-19T14:41:16Z</time>
      </trkpt>
      <trkpt lat="41.873767" lon="2.071734">
        <ele>781.4</ele>
        <time>2011-08-19T14:41:16Z</time>
      </trkpt>
      <trkpt lat="41.873726" lon="2.071623">
        <ele>780.7</ele>
        <time>2011-08-19T14:41:16Z</time>
      </trkpt>
      <trkpt lat="41.873684" lon="2.071543">
        <ele>779.8</ele>
        <time>2011-08-19T14:41:16Z</time>
      </trkpt>
      <trkpt lat="41.873637" lon="2.071427">
        <ele>779.0</ele>
        <time>2011-08-19T14:41:16Z</time>
      </trkpt>
      <trkpt lat="41.873601" lon="2.071347">
        <ele>778.4</ele>
        <time>2011-08-19T14:41:16Z</time>
      </trkpt>
      <trkpt lat="41.873545" lon="2.071263">
        <ele>777.3</ele>
        <time>2011-08-19T14:41:16Z</time>
      </trkpt>
      <trkpt lat="41.873488" lon="2.071204">
        <ele>776.0</ele>
        <time>2011-08-19T14:41:16Z</time>
      </trkpt>
      <trkpt lat="41.873427" lon="2.071133">
        <ele>774.8</ele>
        <time>2011-08-19T14:41:16Z</time>
      </trkpt>
      <trkpt lat="41.873373" lon="2.071050">
        <ele>774.1</ele>
        <time>2011-08-19T14:41:16Z</time>
      </trkpt>
      <trkpt lat="41.873341" lon="2.070989">
        <ele>774.0</ele>
        <time>2011-08-19T14:41:16Z</time>
      </trkpt>
      <trkpt lat="41.873319" lon="2.070896">
        <ele>774.1</ele>
        <time>2011-08-19T14:41:16Z</time>
      </trkpt>
      <trkpt lat="41.873299" lon="2.070816">
        <ele>773.8</ele>
        <time>2011-08-19T14:41:16Z</time>
      </trkpt>
      <trkpt lat="41.873281" lon="2.070733">
        <ele>773.4</ele>
        <time>2011-08-19T14:41:16Z</time>
      </trkpt>
      <trkpt lat="41.873266" lon="2.070617">
        <ele>773.2</ele>
        <time>2011-08-19T14:41:16Z</time>
      </trkpt>
      <trkpt lat="41.873216" lon="2.070589">
        <ele>771.9</ele>
        <time>2011-08-19T14:41:16Z</time>
      </trkpt>
      <trkpt lat="41.873175" lon="2.070605">
        <ele>770.8</ele>
        <time>2011-08-19T14:41:16Z</time>
      </trkpt>
      <trkpt lat="41.873157" lon="2.070670">
        <ele>770.2</ele>
        <time>2011-08-19T14:41:16Z</time>
      </trkpt>
      <trkpt lat="41.873150" lon="2.070764">
        <ele>769.9</ele>
        <time>2011-08-19T14:41:16Z</time>
      </trkpt>
      <trkpt lat="41.873156" lon="2.070839">
        <ele>770.0</ele>
        <time>2011-08-19T14:41:16Z</time>
      </trkpt>
      <trkpt lat="41.873178" lon="2.070916">
        <ele>770.5</ele>
        <time>2011-08-19T14:41:16Z</time>
      </trkpt>
      <trkpt lat="41.873208" lon="2.071024">
        <ele>770.4</ele>
        <time>2011-08-19T14:41:16Z</time>
      </trkpt>
      <trkpt lat="41.873199" lon="2.071118">
        <ele>769.2</ele>
        <time>2011-08-19T14:41:16Z</time>
      </trkpt>
      <trkpt lat="41.873159" lon="2.071181">
        <ele>767.4</ele>
        <time>2011-08-19T14:41:16Z</time>
      </trkpt>
      <trkpt lat="41.873114" lon="2.071155">
        <ele>766.5</ele>
        <time>2011-08-19T14:41:16Z</time>
      </trkpt>
      <trkpt lat="41.873079" lon="2.071081">
        <ele>766.2</ele>
        <time>2011-08-19T14:41:16Z</time>
      </trkpt>
      <trkpt lat="41.873039" lon="2.071009">
        <ele>765.8</ele>
        <time>2011-08-19T14:41:16Z</time>
      </trkpt>
      <trkpt lat="41.873002" lon="2.070932">
        <ele>765.3</ele>
        <time>2011-08-19T14:41:16Z</time>
      </trkpt>
      <trkpt lat="41.872957" lon="2.070860">
        <ele>764.4</ele>
        <time>2011-08-19T14:41:16Z</time>
      </trkpt>
      <trkpt lat="41.872908" lon="2.070796">
        <ele>763.5</ele>
        <time>2011-08-19T14:41:16Z</time>
      </trkpt>
      <trkpt lat="41.872832" lon="2.070729">
        <ele>762.2</ele>
        <time>2011-08-19T14:41:16Z</time>
      </trkpt>
      <trkpt lat="41.872783" lon="2.070691">
        <ele>761.4</ele>
        <time>2011-08-19T14:41:16Z</time>
      </trkpt>
      <trkpt lat="41.872711" lon="2.070625">
        <ele>760.5</ele>
        <time>2011-08-19T14:41:16Z</time>
      </trkpt>
      <trkpt lat="41.872655" lon="2.070595">
        <ele>759.9</ele>
        <time>2011-08-19T14:41:16Z</time>
      </trkpt>
      <trkpt lat="41.872594" lon="2.070547">
        <ele>759.3</ele>
        <time>2011-08-19T14:41:16Z</time>
      </trkpt>
      <trkpt lat="41.872519" lon="2.070519">
        <ele>758.2</ele>
        <time>2011-08-19T14:41:16Z</time>
      </trkpt>
      <trkpt lat="41.872455" lon="2.070489">
        <ele>757.4</ele>
        <time>2011-08-19T14:41:16Z</time>
      </trkpt>
      <trkpt lat="41.872400" lon="2.070448">
        <ele>757.0</ele>
        <time>2011-08-19T14:41:16Z</time>
      </trkpt>
      <trkpt lat="41.872365" lon="2.070397">
        <ele>756.9</ele>
        <time>2011-08-19T14:41:16Z</time>
      </trkpt>
      <trkpt lat="41.872325" lon="2.070297">
        <ele>756.9</ele>
        <time>2011-08-19T14:41:16Z</time>
      </trkpt>
      <trkpt lat="41.872292" lon="2.070209">
        <ele>756.8</ele>
        <time>2011-08-19T14:41:16Z</time>
      </trkpt>
      <trkpt lat="41.872260" lon="2.070098">
        <ele>756.3</ele>
        <time>2011-08-19T14:41:16Z</time>
      </trkpt>
      <trkpt lat="41.872234" lon="2.070005">
        <ele>755.6</ele>
        <time>2011-08-19T14:41:16Z</time>
      </trkpt>
      <trkpt lat="41.872202" lon="2.069897">
        <ele>754.7</ele>
        <time>2011-08-19T14:41:16Z</time>
      </trkpt>
      <trkpt lat="41.872180" lon="2.069794">
        <ele>754.2</ele>
        <time>2011-08-19T14:41:16Z</time>
      </trkpt>
      <trkpt lat="41.872162" lon="2.069696">
        <ele>753.9</ele>
        <time>2011-08-19T14:41:16Z</time>
      </trkpt>
      <trkpt lat="41.872103" lon="2.069624">
        <ele>753.2</ele>
        <time>2011-08-19T14:41:16Z</time>
      </trkpt>
      <trkpt lat="41.872033" lon="2.069534">
        <ele>752.1</ele>
        <time>2011-08-19T14:41:16Z</time>
      </trkpt>
      <trkpt lat="41.871992" lon="2.069489">
        <ele>751.5</ele>
        <time>2011-08-19T14:41:16Z</time>
      </trkpt>
      <trkpt lat="41.871902" lon="2.069371">
        <ele>750.8</ele>
        <time>2011-08-19T14:41:16Z</time>
      </trkpt>
      <trkpt lat="41.871837" lon="2.069271">
        <ele>749.9</ele>
        <time>2011-08-19T14:41:16Z</time>
      </trkpt>
      <trkpt lat="41.871767" lon="2.069189">
        <ele>748.5</ele>
        <time>2011-08-19T14:41:16Z</time>
      </trkpt>
      <trkpt lat="41.871705" lon="2.069146">
        <ele>747.1</ele>
        <time>2011-08-19T14:41:16Z</time>
      </trkpt>
      <trkpt lat="41.871644" lon="2.069087">
        <ele>746.6</ele>
        <time>2011-08-19T14:41:16Z</time>
      </trkpt>
      <trkpt lat="41.871586" lon="2.069041">
        <ele>746.2</ele>
        <time>2011-08-19T14:41:16Z</time>
      </trkpt>
      <trkpt lat="41.871529" lon="2.068990">
        <ele>746.0</ele>
        <time>2011-08-19T14:41:16Z</time>
      </trkpt>
      <trkpt lat="41.871480" lon="2.068929">
        <ele>746.1</ele>
        <time>2011-08-19T14:41:16Z</time>
      </trkpt>
      <trkpt lat="41.871432" lon="2.068881">
        <ele>746.0</ele>
        <time>2011-08-19T14:41:16Z</time>
      </trkpt>
      <trkpt lat="41.871369" lon="2.068814">
        <ele>745.9</ele>
        <time>2011-08-19T14:41:16Z</time>
      </trkpt>
      <trkpt lat="41.871310" lon="2.068740">
        <ele>745.2</ele>
        <time>2011-08-19T14:41:16Z</time>
      </trkpt>
      <trkpt lat="41.871250" lon="2.068650">
        <ele>744.3</ele>
        <time>2011-08-19T14:41:16Z</time>
      </trkpt>
      <trkpt lat="41.871193" lon="2.068550">
        <ele>743.8</ele>
        <time>2011-08-19T14:41:16Z</time>
      </trkpt>
      <trkpt lat="41.871173" lon="2.068496">
        <ele>743.9</ele>
        <time>2011-08-19T14:41:16Z</time>
      </trkpt>
      <trkpt lat="41.871149" lon="2.068377">
        <ele>744.0</ele>
        <time>2011-08-19T14:41:16Z</time>
      </trkpt>
      <trkpt lat="41.871142" lon="2.068245">
        <ele>743.8</ele>
        <time>2011-08-19T14:41:16Z</time>
      </trkpt>
      <trkpt lat="41.871129" lon="2.068075">
        <ele>743.4</ele>
        <time>2011-08-19T14:41:16Z</time>
      </trkpt>
      <trkpt lat="41.871103" lon="2.067951">
        <ele>742.0</ele>
        <time>2011-08-19T14:41:16Z</time>
      </trkpt>
      <trkpt lat="41.871074" lon="2.067798">
        <ele>740.5</ele>
        <time>2011-08-19T14:41:16Z</time>
      </trkpt>
      <trkpt lat="41.871070" lon="2.067677">
        <ele>739.9</ele>
        <time>2011-08-19T14:41:16Z</time>
      </trkpt>
      <trkpt lat="41.871057" lon="2.067558">
        <ele>739.7</ele>
        <time>2011-08-19T14:41:16Z</time>
      </trkpt>
      <trkpt lat="41.871041" lon="2.067462">
        <ele>739.5</ele>
        <time>2011-08-19T14:41:16Z</time>
      </trkpt>
      <trkpt lat="41.871024" lon="2.067315">
        <ele>739.2</ele>
        <time>2011-08-19T14:41:16Z</time>
      </trkpt>
      <trkpt lat="41.871000" lon="2.067222">
        <ele>739.1</ele>
        <time>2011-08-19T14:41:16Z</time>
      </trkpt>
      <trkpt lat="41.870943" lon="2.067124">
        <ele>738.3</ele>
        <time>2011-08-19T14:41:16Z</time>
      </trkpt>
      <trkpt lat="41.870882" lon="2.067035">
        <ele>737.4</ele>
        <time>2011-08-19T14:41:16Z</time>
      </trkpt>
      <trkpt lat="41.870830" lon="2.066978">
        <ele>736.7</ele>
        <time>2011-08-19T14:41:16Z</time>
      </trkpt>
      <trkpt lat="41.870769" lon="2.066912">
        <ele>735.9</ele>
        <time>2011-08-19T14:41:16Z</time>
      </trkpt>
      <trkpt lat="41.870709" lon="2.066843">
        <ele>735.2</ele>
        <time>2011-08-19T14:41:16Z</time>
      </trkpt>
      <trkpt lat="41.870660" lon="2.066766">
        <ele>734.7</ele>
        <time>2011-08-19T14:41:16Z</time>
      </trkpt>
      <trkpt lat="41.870622" lon="2.066671">
        <ele>734.6</ele>
        <time>2011-08-19T14:41:16Z</time>
      </trkpt>
      <trkpt lat="41.870587" lon="2.066583">
        <ele>734.3</ele>
        <time>2011-08-19T14:41:16Z</time>
      </trkpt>
      <trkpt lat="41.870561" lon="2.066483">
        <ele>734.1</ele>
        <time>2011-08-19T14:41:16Z</time>
      </trkpt>
      <trkpt lat="41.870538" lon="2.066369">
        <ele>734.0</ele>
        <time>2011-08-19T14:41:16Z</time>
      </trkpt>
      <trkpt lat="41.870520" lon="2.066245">
        <ele>733.9</ele>
        <time>2011-08-19T14:41:16Z</time>
      </trkpt>
      <trkpt lat="41.870502" lon="2.066124">
        <ele>733.5</ele>
        <time>2011-08-19T14:41:16Z</time>
      </trkpt>
      <trkpt lat="41.870489" lon="2.066005">
        <ele>733.1</ele>
        <time>2011-08-19T14:41:16Z</time>
      </trkpt>
      <trkpt lat="41.870480" lon="2.065886">
        <ele>732.7</ele>
        <time>2011-08-19T14:41:16Z</time>
      </trkpt>
      <trkpt lat="41.870470" lon="2.065782">
        <ele>732.5</ele>
        <time>2011-08-19T14:41:16Z</time>
      </trkpt>
      <trkpt lat="41.870454" lon="2.065692">
        <ele>732.1</ele>
        <time>2011-08-19T14:41:16Z</time>
      </trkpt>
      <trkpt lat="41.870437" lon="2.065565">
        <ele>731.6</ele>
        <time>2011-08-19T14:41:16Z</time>
      </trkpt>
      <trkpt lat="41.870409" lon="2.065511">
        <ele>731.2</ele>
        <time>2011-08-19T14:41:16Z</time>
      </trkpt>
      <trkpt lat="41.870376" lon="2.065447">
        <ele>730.7</ele>
        <time>2011-08-19T14:41:16Z</time>
      </trkpt>
      <trkpt lat="41.870347" lon="2.065391">
        <ele>730.2</ele>
        <time>2011-08-19T14:41:16Z</time>
      </trkpt>
      <trkpt lat="41.870303" lon="2.065316">
        <ele>729.4</ele>
        <time>2011-08-19T14:41:16Z</time>
      </trkpt>
      <trkpt lat="41.870258" lon="2.065247">
        <ele>728.4</ele>
        <time>2011-08-19T14:41:16Z</time>
      </trkpt>
      <trkpt lat="41.870229" lon="2.065188">
        <ele>727.9</ele>
        <time>2011-08-19T14:41:16Z</time>
      </trkpt>
      <trkpt lat="41.870184" lon="2.065108">
        <ele>727.2</ele>
        <time>2011-08-19T14:41:16Z</time>
      </trkpt>
      <trkpt lat="41.870152" lon="2.065044">
        <ele>726.7</ele>
        <time>2011-08-19T14:41:16Z</time>
      </trkpt>
      <trkpt lat="41.870130" lon="2.064967">
        <ele>726.0</ele>
        <time>2011-08-19T14:41:16Z</time>
      </trkpt>
      <trkpt lat="41.870145" lon="2.064894">
        <ele>725.9</ele>
        <time>2011-08-19T14:41:16Z</time>
      </trkpt>
      <trkpt lat="41.870189" lon="2.064808">
        <ele>726.0</ele>
        <time>2011-08-19T14:41:16Z</time>
      </trkpt>
      <trkpt lat="41.870219" lon="2.064725">
        <ele>725.8</ele>
        <time>2011-08-19T14:41:16Z</time>
      </trkpt>
      <trkpt lat="41.870255" lon="2.064626">
        <ele>725.8</ele>
        <time>2011-08-19T14:41:16Z</time>
      </trkpt>
      <trkpt lat="41.870276" lon="2.064548">
        <ele>725.9</ele>
        <time>2011-08-19T14:41:16Z</time>
      </trkpt>
      <trkpt lat="41.870279" lon="2.064426">
        <ele>725.4</ele>
        <time>2011-08-19T14:41:16Z</time>
      </trkpt>
      <trkpt lat="41.870266" lon="2.064323">
        <ele>725.1</ele>
        <time>2011-08-19T14:41:16Z</time>
      </trkpt>
      <trkpt lat="41.870244" lon="2.064219">
        <ele>724.3</ele>
        <time>2011-08-19T14:41:16Z</time>
      </trkpt>
      <trkpt lat="41.870218" lon="2.064098">
        <ele>723.5</ele>
        <time>2011-08-19T14:41:16Z</time>
      </trkpt>
      <trkpt lat="41.870178" lon="2.063990">
        <ele>722.7</ele>
        <time>2011-08-19T14:41:16Z</time>
      </trkpt>
      <trkpt lat="41.870149" lon="2.063910">
        <ele>722.0</ele>
        <time>2011-08-19T14:41:16Z</time>
      </trkpt>
      <trkpt lat="41.870102" lon="2.063823">
        <ele>720.5</ele>
        <time>2011-08-19T14:41:16Z</time>
      </trkpt>
      <trkpt lat="41.870060" lon="2.063748">
        <ele>719.1</ele>
        <time>2011-08-19T14:41:16Z</time>
      </trkpt>
      <trkpt lat="41.870023" lon="2.063668">
        <ele>717.6</ele>
        <time>2011-08-19T14:41:16Z</time>
      </trkpt>
      <trkpt lat="41.869991" lon="2.063583">
        <ele>716.3</ele>
        <time>2011-08-19T14:41:16Z</time>
      </trkpt>
      <trkpt lat="41.869968" lon="2.063519">
        <ele>715.4</ele>
        <time>2011-08-19T14:41:16Z</time>
      </trkpt>
      <trkpt lat="41.869955" lon="2.063442">
        <ele>714.9</ele>
        <time>2011-08-19T14:41:16Z</time>
      </trkpt>
      <trkpt lat="41.869985" lon="2.063294">
        <ele>715.3</ele>
        <time>2011-08-19T14:41:16Z</time>
      </trkpt>
      <trkpt lat="41.870011" lon="2.063166">
        <ele>715.2</ele>
        <time>2011-08-19T14:41:16Z</time>
      </trkpt>
      <trkpt lat="41.870037" lon="2.063068">
        <ele>715.2</ele>
        <time>2011-08-19T14:41:16Z</time>
      </trkpt>
      <trkpt lat="41.870064" lon="2.062966">
        <ele>715.2</ele>
        <time>2011-08-19T14:41:16Z</time>
      </trkpt>
      <trkpt lat="41.870088" lon="2.062836">
        <ele>714.9</ele>
        <time>2011-08-19T14:41:16Z</time>
      </trkpt>
      <trkpt lat="41.870102" lon="2.062709">
        <ele>714.3</ele>
        <time>2011-08-19T14:41:16Z</time>
      </trkpt>
      <trkpt lat="41.870090" lon="2.062601">
        <ele>713.7</ele>
        <time>2011-08-19T14:41:16Z</time>
      </trkpt>
      <trkpt lat="41.870044" lon="2.062516">
        <ele>712.6</ele>
        <time>2011-08-19T14:41:16Z</time>
      </trkpt>
      <trkpt lat="41.870005" lon="2.062449">
        <ele>711.5</ele>
        <time>2011-08-19T14:41:16Z</time>
      </trkpt>
      <trkpt lat="41.869954" lon="2.062349">
        <ele>710.1</ele>
        <time>2011-08-19T14:41:16Z</time>
      </trkpt>
      <trkpt lat="41.869942" lon="2.062274">
        <ele>709.8</ele>
        <time>2011-08-19T14:41:16Z</time>
      </trkpt>
      <trkpt lat="41.869945" lon="2.062168">
        <ele>709.6</ele>
        <time>2011-08-19T14:41:16Z</time>
      </trkpt>
      <trkpt lat="41.869963" lon="2.062049">
        <ele>709.7</ele>
        <time>2011-08-19T14:41:16Z</time>
      </trkpt>
      <trkpt lat="41.870003" lon="2.061955">
        <ele>710.5</ele>
        <time>2011-08-19T14:41:16Z</time>
      </trkpt>
      <trkpt lat="41.870043" lon="2.061817">
        <ele>709.9</ele>
        <time>2011-08-19T14:41:16Z</time>
      </trkpt>
      <trkpt lat="41.870080" lon="2.061684">
        <ele>709.0</ele>
        <time>2011-08-19T14:41:16Z</time>
      </trkpt>
      <trkpt lat="41.870122" lon="2.061557">
        <ele>708.1</ele>
        <time>2011-08-19T14:41:16Z</time>
      </trkpt>
      <trkpt lat="41.870173" lon="2.061427">
        <ele>707.6</ele>
        <time>2011-08-19T14:41:16Z</time>
      </trkpt>
      <trkpt lat="41.870213" lon="2.061349">
        <ele>707.5</ele>
        <time>2011-08-19T14:41:16Z</time>
      </trkpt>
      <trkpt lat="41.870262" lon="2.061231">
        <ele>706.6</ele>
        <time>2011-08-19T14:41:16Z</time>
      </trkpt>
      <trkpt lat="41.870312" lon="2.061163">
        <ele>706.3</ele>
        <time>2011-08-19T14:41:16Z</time>
      </trkpt>
      <trkpt lat="41.870354" lon="2.061072">
        <ele>705.9</ele>
        <time>2011-08-19T14:41:16Z</time>
      </trkpt>
      <trkpt lat="41.870421" lon="2.061024">
        <ele>706.0</ele>
        <time>2011-08-19T14:41:16Z</time>
      </trkpt>
      <trkpt lat="41.870481" lon="2.060972">
        <ele>706.0</ele>
        <time>2011-08-19T14:41:16Z</time>
      </trkpt>
      <trkpt lat="41.870536" lon="2.060893">
        <ele>704.5</ele>
        <time>2011-08-19T14:41:16Z</time>
      </trkpt>
      <trkpt lat="41.870551" lon="2.060828">
        <ele>703.8</ele>
        <time>2011-08-19T14:41:16Z</time>
      </trkpt>
      <trkpt lat="41.870537" lon="2.060759">
        <ele>703.7</ele>
        <time>2011-08-19T14:41:16Z</time>
      </trkpt>
      <trkpt lat="41.870513" lon="2.060692">
        <ele>703.6</ele>
        <time>2011-08-19T14:41:16Z</time>
      </trkpt>
      <trkpt lat="41.870476" lon="2.060597">
        <ele>703.6</ele>
        <time>2011-08-19T14:41:16Z</time>
      </trkpt>
      <trkpt lat="41.870450" lon="2.060517">
        <ele>703.0</ele>
        <time>2011-08-19T14:41:16Z</time>
      </trkpt>
      <trkpt lat="41.870422" lon="2.060421">
        <ele>702.4</ele>
        <time>2011-08-19T14:41:16Z</time>
      </trkpt>
      <trkpt lat="41.870390" lon="2.060334">
        <ele>702.0</ele>
        <time>2011-08-19T14:41:16Z</time>
      </trkpt>
      <trkpt lat="41.870357" lon="2.060207">
        <ele>701.4</ele>
        <time>2011-08-19T14:41:16Z</time>
      </trkpt>
      <trkpt lat="41.870336" lon="2.060127">
        <ele>701.0</ele>
        <time>2011-08-19T14:41:16Z</time>
      </trkpt>
      <trkpt lat="41.870302" lon="2.059993">
        <ele>700.9</ele>
        <time>2011-08-19T14:41:16Z</time>
      </trkpt>
      <trkpt lat="41.870286" lon="2.059903">
        <ele>700.8</ele>
        <time>2011-08-19T14:41:16Z</time>
      </trkpt>
      <trkpt lat="41.870266" lon="2.059815">
        <ele>700.7</ele>
        <time>2011-08-19T14:41:16Z</time>
      </trkpt>
      <trkpt lat="41.870242" lon="2.059709">
        <ele>700.2</ele>
        <time>2011-08-19T14:41:16Z</time>
      </trkpt>
      <trkpt lat="41.870222" lon="2.059580">
        <ele>699.3</ele>
        <time>2011-08-19T14:41:16Z</time>
      </trkpt>
      <trkpt lat="41.870221" lon="2.059482">
        <ele>698.8</ele>
        <time>2011-08-19T14:41:16Z</time>
      </trkpt>
      <trkpt lat="41.870236" lon="2.059383">
        <ele>698.5</ele>
        <time>2011-08-19T14:41:16Z</time>
      </trkpt>
      <trkpt lat="41.870300" lon="2.059258">
        <ele>698.2</ele>
        <time>2011-08-19T14:41:16Z</time>
      </trkpt>
      <trkpt lat="41.870388" lon="2.059122">
        <ele>697.5</ele>
        <time>2011-08-19T14:41:16Z</time>
      </trkpt>
      <trkpt lat="41.870494" lon="2.059045">
        <ele>697.0</ele>
        <time>2011-08-19T14:41:16Z</time>
      </trkpt>
      <trkpt lat="41.870552" lon="2.059008">
        <ele>696.6</ele>
        <time>2011-08-19T14:41:16Z</time>
      </trkpt>
      <trkpt lat="41.870631" lon="2.058984">
        <ele>696.3</ele>
        <time>2011-08-19T14:41:16Z</time>
      </trkpt>
      <trkpt lat="41.870683" lon="2.058957">
        <ele>696.0</ele>
        <time>2011-08-19T14:41:16Z</time>
      </trkpt>
      <trkpt lat="41.870739" lon="2.058925">
        <ele>695.6</ele>
        <time>2011-08-19T14:41:16Z</time>
      </trkpt>
      <trkpt lat="41.870814" lon="2.058883">
        <ele>693.6</ele>
        <time>2011-08-19T14:41:16Z</time>
      </trkpt>
      <trkpt lat="41.870883" lon="2.058840">
        <ele>692.2</ele>
        <time>2011-08-19T14:41:16Z</time>
      </trkpt>
      <trkpt lat="41.870955" lon="2.058793">
        <ele>691.0</ele>
        <time>2011-08-19T14:41:16Z</time>
      </trkpt>
      <trkpt lat="41.870998" lon="2.058725">
        <ele>690.7</ele>
        <time>2011-08-19T14:41:16Z</time>
      </trkpt>
      <trkpt lat="41.871025" lon="2.058665">
        <ele>690.2</ele>
        <time>2011-08-19T14:41:16Z</time>
      </trkpt>
      <trkpt lat="41.871049" lon="2.058532">
        <ele>689.8</ele>
        <time>2011-08-19T14:41:16Z</time>
      </trkpt>
      <trkpt lat="41.871048" lon="2.058426">
        <ele>690.2</ele>
        <time>2011-08-19T14:41:16Z</time>
      </trkpt>
      <trkpt lat="41.871030" lon="2.058307">
        <ele>690.7</ele>
        <time>2011-08-19T14:41:16Z</time>
      </trkpt>
      <trkpt lat="41.871027" lon="2.058245">
        <ele>690.4</ele>
        <time>2011-08-19T14:41:16Z</time>
      </trkpt>
      <trkpt lat="41.871015" lon="2.058137">
        <ele>690.0</ele>
        <time>2011-08-19T14:41:16Z</time>
      </trkpt>
      <trkpt lat="41.870987" lon="2.058047">
        <ele>689.5</ele>
        <time>2011-08-19T14:41:16Z</time>
      </trkpt>
      <trkpt lat="41.870949" lon="2.057902">
        <ele>688.4</ele>
        <time>2011-08-19T14:41:16Z</time>
      </trkpt>
      <trkpt lat="41.870917" lon="2.057804">
        <ele>687.6</ele>
        <time>2011-08-19T14:41:16Z</time>
      </trkpt>
      <trkpt lat="41.870876" lon="2.057673">
        <ele>686.6</ele>
        <time>2011-08-19T14:41:16Z</time>
      </trkpt>
      <trkpt lat="41.870840" lon="2.057596">
        <ele>686.0</ele>
        <time>2011-08-19T14:41:16Z</time>
      </trkpt>
      <trkpt lat="41.870787" lon="2.057516">
        <ele>685.2</ele>
        <time>2011-08-19T14:41:16Z</time>
      </trkpt>
      <trkpt lat="41.870750" lon="2.057449">
        <ele>684.7</ele>
        <time>2011-08-19T14:41:16Z</time>
      </trkpt>
      <trkpt lat="41.870685" lon="2.057355">
        <ele>684.1</ele>
        <time>2011-08-19T14:41:16Z</time>
      </trkpt>
      <trkpt lat="41.870642" lon="2.057277">
        <ele>683.6</ele>
        <time>2011-08-19T14:41:16Z</time>
      </trkpt>
      <trkpt lat="41.870585" lon="2.057180">
        <ele>683.1</ele>
        <time>2011-08-19T14:41:16Z</time>
      </trkpt>
      <trkpt lat="41.870532" lon="2.057116">
        <ele>683.0</ele>
        <time>2011-08-19T14:41:16Z</time>
      </trkpt>
      <trkpt lat="41.870481" lon="2.057016">
        <ele>683.0</ele>
        <time>2011-08-19T14:41:16Z</time>
      </trkpt>
      <trkpt lat="41.870446" lon="2.056918">
        <ele>683.1</ele>
        <time>2011-08-19T14:41:16Z</time>
      </trkpt>
      <trkpt lat="41.870418" lon="2.056838">
        <ele>683.3</ele>
        <time>2011-08-19T14:41:16Z</time>
      </trkpt>
      <trkpt lat="41.870377" lon="2.056740">
        <ele>684.0</ele>
        <time>2011-08-19T14:41:16Z</time>
      </trkpt>
      <trkpt lat="41.870318" lon="2.056669">
        <ele>684.5</ele>
        <time>2011-08-19T14:41:16Z</time>
      </trkpt>
      <trkpt lat="41.870277" lon="2.056605">
        <ele>684.8</ele>
        <time>2011-08-19T14:41:16Z</time>
      </trkpt>
      <trkpt lat="41.870241" lon="2.056543">
        <ele>685.1</ele>
        <time>2011-08-19T14:41:16Z</time>
      </trkpt>
      <trkpt lat="41.870202" lon="2.056497">
        <ele>685.3</ele>
        <time>2011-08-19T14:41:16Z</time>
      </trkpt>
      <trkpt lat="41.870155" lon="2.056428">
        <ele>685.5</ele>
        <time>2011-08-19T14:41:16Z</time>
      </trkpt>
      <trkpt lat="41.870096" lon="2.056330">
        <ele>685.3</ele>
        <time>2011-08-19T14:41:16Z</time>
      </trkpt>
      <trkpt lat="41.870057" lon="2.056266">
        <ele>685.1</ele>
        <time>2011-08-19T14:41:16Z</time>
      </trkpt>
      <trkpt lat="41.870002" lon="2.056153">
        <ele>684.9</ele>
        <time>2011-08-19T14:41:16Z</time>
      </trkpt>
      <trkpt lat="41.869953" lon="2.056035">
        <ele>683.7</ele>
        <time>2011-08-19T14:41:16Z</time>
      </trkpt>
      <trkpt lat="41.869913" lon="2.055950">
        <ele>683.2</ele>
        <time>2011-08-19T14:41:16Z</time>
      </trkpt>
      <trkpt lat="41.869872" lon="2.055831">
        <ele>682.6</ele>
        <time>2011-08-19T14:41:16Z</time>
      </trkpt>
      <trkpt lat="41.869848" lon="2.055741">
        <ele>681.9</ele>
        <time>2011-08-19T14:41:16Z</time>
      </trkpt>
      <trkpt lat="41.869816" lon="2.055602">
        <ele>680.8</ele>
        <time>2011-08-19T14:41:16Z</time>
      </trkpt>
      <trkpt lat="41.869782" lon="2.055475">
        <ele>680.1</ele>
        <time>2011-08-19T14:41:16Z</time>
      </trkpt>
      <trkpt lat="41.869752" lon="2.055375">
        <ele>679.8</ele>
        <time>2011-08-19T14:41:16Z</time>
      </trkpt>
      <trkpt lat="41.869708" lon="2.055236">
        <ele>679.4</ele>
        <time>2011-08-19T14:41:16Z</time>
      </trkpt>
      <trkpt lat="41.869660" lon="2.055091">
        <ele>679.0</ele>
        <time>2011-08-19T14:41:16Z</time>
      </trkpt>
      <trkpt lat="41.869629" lon="2.055004">
        <ele>679.0</ele>
        <time>2011-08-19T14:41:16Z</time>
      </trkpt>
      <trkpt lat="41.869583" lon="2.054880">
        <ele>678.8</ele>
        <time>2011-08-19T14:41:16Z</time>
      </trkpt>
      <trkpt lat="41.869540" lon="2.054780">
        <ele>678.7</ele>
        <time>2011-08-19T14:41:16Z</time>
      </trkpt>
      <trkpt lat="41.869465" lon="2.054662">
        <ele>678.4</ele>
        <time>2011-08-19T14:41:16Z</time>
      </trkpt>
      <trkpt lat="41.869383" lon="2.054572">
        <ele>678.1</ele>
        <time>2011-08-19T14:41:16Z</time>
      </trkpt>
      <trkpt lat="41.869307" lon="2.054488">
        <ele>677.9</ele>
        <time>2011-08-19T14:41:16Z</time>
      </trkpt>
      <trkpt lat="41.869237" lon="2.054427">
        <ele>677.8</ele>
        <time>2011-08-19T14:41:16Z</time>
      </trkpt>
      <trkpt lat="41.869194" lon="2.054371">
        <ele>678.0</ele>
        <time>2011-08-19T14:41:16Z</time>
      </trkpt>
      <trkpt lat="41.869139" lon="2.054320">
        <ele>677.9</ele>
        <time>2011-08-19T14:41:16Z</time>
      </trkpt>
      <trkpt lat="41.869089" lon="2.054256">
        <ele>677.9</ele>
        <time>2011-08-19T14:41:16Z</time>
      </trkpt>
      <trkpt lat="41.869036" lon="2.054189">
        <ele>677.9</ele>
        <time>2011-08-19T14:41:16Z</time>
      </trkpt>
      <trkpt lat="41.868983" lon="2.054136">
        <ele>677.9</ele>
        <time>2011-08-19T14:41:16Z</time>
      </trkpt>
      <trkpt lat="41.868929" lon="2.054087">
        <ele>678.0</ele>
        <time>2011-08-19T14:41:16Z</time>
      </trkpt>
      <trkpt lat="41.868880" lon="2.054033">
        <ele>678.5</ele>
        <time>2011-08-19T14:41:16Z</time>
      </trkpt>
      <trkpt lat="41.868833" lon="2.053988">
        <ele>678.8</ele>
        <time>2011-08-19T14:41:16Z</time>
      </trkpt>
      <trkpt lat="41.868776" lon="2.053929">
        <ele>678.7</ele>
        <time>2011-08-19T14:41:16Z</time>
      </trkpt>
      <trkpt lat="41.868739" lon="2.053885">
        <ele>678.4</ele>
        <time>2011-08-19T14:41:16Z</time>
      </trkpt>
      <trkpt lat="41.868690" lon="2.053827">
        <ele>678.2</ele>
        <time>2011-08-19T14:41:16Z</time>
      </trkpt>
      <trkpt lat="41.868635" lon="2.053729">
        <ele>678.5</ele>
        <time>2011-08-19T14:41:16Z</time>
      </trkpt>
      <trkpt lat="41.868590" lon="2.053662">
        <ele>678.9</ele>
        <time>2011-08-19T14:41:16Z</time>
      </trkpt>
      <trkpt lat="41.868559" lon="2.053590">
        <ele>679.0</ele>
        <time>2011-08-19T14:41:16Z</time>
      </trkpt>
      <trkpt lat="41.868554" lon="2.053497">
        <ele>679.0</ele>
        <time>2011-08-19T14:41:16Z</time>
      </trkpt>
      <trkpt lat="41.868540" lon="2.053399">
        <ele>679.0</ele>
        <time>2011-08-19T14:41:16Z</time>
      </trkpt>
      <trkpt lat="41.868513" lon="2.053262">
        <ele>678.8</ele>
        <time>2011-08-19T14:41:16Z</time>
      </trkpt>
      <trkpt lat="41.868493" lon="2.053164">
        <ele>678.6</ele>
        <time>2011-08-19T14:41:16Z</time>
      </trkpt>
      <trkpt lat="41.868455" lon="2.053033">
        <ele>678.2</ele>
        <time>2011-08-19T14:41:16Z</time>
      </trkpt>
      <trkpt lat="41.868417" lon="2.052888">
        <ele>677.8</ele>
        <time>2011-08-19T14:41:16Z</time>
      </trkpt>
      <trkpt lat="41.868382" lon="2.052778">
        <ele>677.3</ele>
        <time>2011-08-19T14:41:16Z</time>
      </trkpt>
      <trkpt lat="41.868358" lon="2.052687">
        <ele>676.9</ele>
        <time>2011-08-19T14:41:16Z</time>
      </trkpt>
      <trkpt lat="41.868326" lon="2.052574">
        <ele>676.6</ele>
        <time>2011-08-19T14:41:16Z</time>
      </trkpt>
      <trkpt lat="41.868296" lon="2.052471">
        <ele>676.3</ele>
        <time>2011-08-19T14:41:16Z</time>
      </trkpt>
      <trkpt lat="41.868276" lon="2.052380">
        <ele>676.1</ele>
        <time>2011-08-19T14:41:16Z</time>
      </trkpt>
      <trkpt lat="41.868254" lon="2.052280">
        <ele>676.0</ele>
        <time>2011-08-19T14:41:16Z</time>
      </trkpt>
      <trkpt lat="41.868234" lon="2.052197">
        <ele>675.8</ele>
        <time>2011-08-19T14:41:16Z</time>
      </trkpt>
      <trkpt lat="41.868215" lon="2.052099">
        <ele>674.6</ele>
        <time>2011-08-19T14:41:16Z</time>
      </trkpt>
      <trkpt lat="41.868201" lon="2.051980">
        <ele>673.3</ele>
        <time>2011-08-19T14:41:16Z</time>
      </trkpt>
      <trkpt lat="41.868177" lon="2.051877">
        <ele>672.3</ele>
        <time>2011-08-19T14:41:16Z</time>
      </trkpt>
      <trkpt lat="41.868135" lon="2.051758">
        <ele>670.8</ele>
        <time>2011-08-19T14:41:16Z</time>
      </trkpt>
      <trkpt lat="41.868094" lon="2.051650">
        <ele>669.9</ele>
        <time>2011-08-19T14:41:16Z</time>
      </trkpt>
      <trkpt lat="41.868044" lon="2.051532">
        <ele>669.7</ele>
        <time>2011-08-19T14:41:16Z</time>
      </trkpt>
      <trkpt lat="41.867991" lon="2.051437">
        <ele>669.9</ele>
        <time>2011-08-19T14:41:16Z</time>
      </trkpt>
      <trkpt lat="41.867942" lon="2.051313">
        <ele>669.2</ele>
        <time>2011-08-19T14:41:16Z</time>
      </trkpt>
      <trkpt lat="41.867900" lon="2.051208">
        <ele>668.5</ele>
        <time>2011-08-19T14:41:16Z</time>
      </trkpt>
      <trkpt lat="41.867867" lon="2.051126">
        <ele>668.1</ele>
        <time>2011-08-19T14:41:16Z</time>
      </trkpt>
      <trkpt lat="41.867812" lon="2.051020">
        <ele>668.0</ele>
        <time>2011-08-19T14:41:16Z</time>
      </trkpt>
      <trkpt lat="41.867753" lon="2.050931">
        <ele>668.1</ele>
        <time>2011-08-19T14:41:16Z</time>
      </trkpt>
      <trkpt lat="41.867698" lon="2.050841">
        <ele>668.3</ele>
        <time>2011-08-19T14:41:16Z</time>
      </trkpt>
      <trkpt lat="41.867632" lon="2.050767">
        <ele>667.9</ele>
        <time>2011-08-19T14:41:16Z</time>
      </trkpt>
      <trkpt lat="41.867567" lon="2.050739">
        <ele>667.0</ele>
        <time>2011-08-19T14:41:16Z</time>
      </trkpt>
      <trkpt lat="41.867502" lon="2.050722">
        <ele>666.4</ele>
        <time>2011-08-19T14:41:16Z</time>
      </trkpt>
      <trkpt lat="41.867424" lon="2.050708">
        <ele>665.8</ele>
        <time>2011-08-19T14:41:16Z</time>
      </trkpt>
      <trkpt lat="41.867360" lon="2.050695">
        <ele>666.1</ele>
        <time>2011-08-19T14:41:16Z</time>
      </trkpt>
      <trkpt lat="41.867302" lon="2.050676">
        <ele>666.2</ele>
        <time>2011-08-19T14:41:16Z</time>
      </trkpt>
      <trkpt lat="41.867238" lon="2.050635">
        <ele>666.0</ele>
        <time>2011-08-19T14:41:16Z</time>
      </trkpt>
      <trkpt lat="41.867168" lon="2.050595">
        <ele>666.2</ele>
        <time>2011-08-19T14:41:16Z</time>
      </trkpt>
      <trkpt lat="41.867115" lon="2.050554">
        <ele>666.4</ele>
        <time>2011-08-19T14:41:16Z</time>
      </trkpt>
      <trkpt lat="41.867072" lon="2.050490">
        <ele>666.3</ele>
        <time>2011-08-19T14:41:16Z</time>
      </trkpt>
      <trkpt lat="41.867003" lon="2.050375">
        <ele>666.4</ele>
        <time>2011-08-19T14:41:16Z</time>
      </trkpt>
      <trkpt lat="41.866939" lon="2.050270">
        <ele>666.6</ele>
        <time>2011-08-19T14:41:16Z</time>
      </trkpt>
      <trkpt lat="41.866902" lon="2.050170">
        <ele>666.5</ele>
        <time>2011-08-19T14:41:16Z</time>
      </trkpt>
      <trkpt lat="41.866829" lon="2.049996">
        <ele>666.3</ele>
        <time>2011-08-19T14:41:16Z</time>
      </trkpt>
      <trkpt lat="41.866792" lon="2.049911">
        <ele>666.2</ele>
        <time>2011-08-19T14:41:16Z</time>
      </trkpt>
      <trkpt lat="41.866735" lon="2.049768">
        <ele>666.5</ele>
        <time>2011-08-19T14:41:16Z</time>
      </trkpt>
      <trkpt lat="41.866699" lon="2.049618">
        <ele>666.6</ele>
        <time>2011-08-19T14:41:16Z</time>
      </trkpt>
      <trkpt lat="41.866670" lon="2.049477">
        <ele>666.6</ele>
        <time>2011-08-19T14:41:16Z</time>
      </trkpt>
      <trkpt lat="41.866650" lon="2.049323">
        <ele>666.4</ele>
        <time>2011-08-19T14:41:16Z</time>
      </trkpt>
      <trkpt lat="41.866629" lon="2.049134">
        <ele>666.8</ele>
        <time>2011-08-19T14:41:16Z</time>
      </trkpt>
      <trkpt lat="41.866621" lon="2.048905">
        <ele>666.6</ele>
        <time>2011-08-19T14:41:16Z</time>
      </trkpt>
      <trkpt lat="41.866622" lon="2.048735">
        <ele>666.1</ele>
        <time>2011-08-19T14:41:16Z</time>
      </trkpt>
      <trkpt lat="41.866628" lon="2.048567">
        <ele>665.6</ele>
        <time>2011-08-19T14:41:16Z</time>
      </trkpt>
      <trkpt lat="41.866648" lon="2.048455">
        <ele>665.0</ele>
        <time>2011-08-19T14:41:16Z</time>
      </trkpt>
      <trkpt lat="41.866663" lon="2.048347">
        <ele>664.7</ele>
        <time>2011-08-19T14:41:16Z</time>
      </trkpt>
      <trkpt lat="41.866687" lon="2.048223">
        <ele>664.3</ele>
        <time>2011-08-19T14:41:16Z</time>
      </trkpt>
      <trkpt lat="41.866700" lon="2.048101">
        <ele>664.8</ele>
        <time>2011-08-19T14:41:16Z</time>
      </trkpt>
      <trkpt lat="41.866708" lon="2.047972">
        <ele>665.5</ele>
        <time>2011-08-19T14:41:16Z</time>
      </trkpt>
      <trkpt lat="41.866711" lon="2.047840">
        <ele>666.3</ele>
        <time>2011-08-19T14:41:16Z</time>
      </trkpt>
      <trkpt lat="41.866718" lon="2.047717">
        <ele>666.8</ele>
        <time>2011-08-19T14:41:16Z</time>
      </trkpt>
      <trkpt lat="41.866718" lon="2.047554">
        <ele>667.4</ele>
        <time>2011-08-19T14:41:16Z</time>
      </trkpt>
      <trkpt lat="41.866711" lon="2.047453">
        <ele>667.1</ele>
        <time>2011-08-19T14:41:16Z</time>
      </trkpt>
      <trkpt lat="41.866668" lon="2.047328">
        <ele>667.0</ele>
        <time>2011-08-19T14:41:16Z</time>
      </trkpt>
      <trkpt lat="41.866623" lon="2.047230">
        <ele>667.4</ele>
        <time>2011-08-19T14:41:16Z</time>
      </trkpt>
      <trkpt lat="41.866574" lon="2.047143">
        <ele>667.9</ele>
        <time>2011-08-19T14:41:16Z</time>
      </trkpt>
      <trkpt lat="41.866535" lon="2.047056">
        <ele>667.8</ele>
        <time>2011-08-19T14:41:16Z</time>
      </trkpt>
      <trkpt lat="41.866495" lon="2.046969">
        <ele>667.8</ele>
        <time>2011-08-19T14:41:16Z</time>
      </trkpt>
      <trkpt lat="41.866491" lon="2.046892">
        <ele>667.7</ele>
        <time>2011-08-19T14:41:16Z</time>
      </trkpt>
      <trkpt lat="41.866486" lon="2.046747">
        <ele>667.2</ele>
        <time>2011-08-19T14:41:16Z</time>
      </trkpt>
      <trkpt lat="41.866454" lon="2.046629">
        <ele>666.8</ele>
        <time>2011-08-19T14:41:16Z</time>
      </trkpt>
      <trkpt lat="41.866411" lon="2.046524">
        <ele>667.0</ele>
        <time>2011-08-19T14:41:16Z</time>
      </trkpt>
      <trkpt lat="41.866383" lon="2.046398">
        <ele>666.9</ele>
        <time>2011-08-19T14:41:16Z</time>
      </trkpt>
      <trkpt lat="41.866349" lon="2.046295">
        <ele>667.1</ele>
        <time>2011-08-19T14:41:16Z</time>
      </trkpt>
      <trkpt lat="41.866312" lon="2.046190">
        <ele>667.4</ele>
        <time>2011-08-19T14:41:16Z</time>
      </trkpt>
      <trkpt lat="41.866274" lon="2.046079">
        <ele>666.8</ele>
        <time>2011-08-19T14:41:16Z</time>
      </trkpt>
      <trkpt lat="41.866213" lon="2.045990">
        <ele>665.6</ele>
        <time>2011-08-19T14:41:16Z</time>
      </trkpt>
      <trkpt lat="41.866124" lon="2.045899">
        <ele>664.3</ele>
        <time>2011-08-19T14:41:16Z</time>
      </trkpt>
      <trkpt lat="41.866046" lon="2.045845">
        <ele>663.5</ele>
        <time>2011-08-19T14:41:16Z</time>
      </trkpt>
      <trkpt lat="41.865952" lon="2.045831">
        <ele>662.3</ele>
        <time>2011-08-19T14:41:16Z</time>
      </trkpt>
      <trkpt lat="41.865871" lon="2.045830">
        <ele>661.2</ele>
        <time>2011-08-19T14:41:16Z</time>
      </trkpt>
      <trkpt lat="41.865774" lon="2.045852">
        <ele>660.1</ele>
        <time>2011-08-19T14:41:16Z</time>
      </trkpt>
      <trkpt lat="41.865707" lon="2.045856">
        <ele>659.9</ele>
        <time>2011-08-19T14:41:16Z</time>
      </trkpt>
      <trkpt lat="41.865608" lon="2.045849">
        <ele>659.7</ele>
        <time>2011-08-19T14:41:16Z</time>
      </trkpt>
      <trkpt lat="41.865525" lon="2.045832">
        <ele>659.5</ele>
        <time>2011-08-19T14:41:16Z</time>
      </trkpt>
      <trkpt lat="41.865452" lon="2.045810">
        <ele>659.9</ele>
        <time>2011-08-19T14:41:16Z</time>
      </trkpt>
      <trkpt lat="41.865394" lon="2.045778">
        <ele>660.5</ele>
        <time>2011-08-19T14:41:16Z</time>
      </trkpt>
      <trkpt lat="41.865332" lon="2.045740">
        <ele>661.2</ele>
        <time>2011-08-19T14:41:16Z</time>
      </trkpt>
      <trkpt lat="41.865276" lon="2.045700">
        <ele>660.4</ele>
        <time>2011-08-19T14:41:16Z</time>
      </trkpt>
      <trkpt lat="41.865190" lon="2.045639">
        <ele>659.9</ele>
        <time>2011-08-19T14:41:16Z</time>
      </trkpt>
      <trkpt lat="41.865130" lon="2.045596">
        <ele>660.1</ele>
        <time>2011-08-19T14:41:16Z</time>
      </trkpt>
      <trkpt lat="41.865050" lon="2.045540">
        <ele>660.6</ele>
        <time>2011-08-19T14:41:16Z</time>
      </trkpt>
      <trkpt lat="41.864971" lon="2.045482">
        <ele>661.5</ele>
        <time>2011-08-19T14:41:16Z</time>
      </trkpt>
      <trkpt lat="41.864899" lon="2.045426">
        <ele>662.2</ele>
        <time>2011-08-19T14:41:16Z</time>
      </trkpt>
      <trkpt lat="41.864821" lon="2.045350">
        <ele>662.0</ele>
        <time>2011-08-19T14:41:16Z</time>
      </trkpt>
      <trkpt lat="41.864761" lon="2.045294">
        <ele>661.8</ele>
        <time>2011-08-19T14:41:16Z</time>
      </trkpt>
      <trkpt lat="41.864701" lon="2.045251">
        <ele>662.4</ele>
        <time>2011-08-19T14:41:16Z</time>
      </trkpt>
      <trkpt lat="41.864623" lon="2.045196">
        <ele>662.2</ele>
        <time>2011-08-19T14:41:16Z</time>
      </trkpt>
      <trkpt lat="41.864553" lon="2.045140">
        <ele>661.9</ele>
        <time>2011-08-19T14:41:16Z</time>
      </trkpt>
      <trkpt lat="41.864501" lon="2.045089">
        <ele>661.7</ele>
        <time>2011-08-19T14:41:16Z</time>
      </trkpt>
      <trkpt lat="41.864454" lon="2.045023">
        <ele>661.4</ele>
        <time>2011-08-19T14:41:16Z</time>
      </trkpt>
      <trkpt lat="41.864421" lon="2.044946">
        <ele>660.9</ele>
        <time>2011-08-19T14:41:16Z</time>
      </trkpt>
      <trkpt lat="41.864379" lon="2.044836">
        <ele>659.7</ele>
        <time>2011-08-19T14:41:16Z</time>
      </trkpt>
      <trkpt lat="41.864334" lon="2.044697">
        <ele>657.8</ele>
        <time>2011-08-19T14:41:16Z</time>
      </trkpt>
      <trkpt lat="41.864300" lon="2.044586">
        <ele>656.0</ele>
        <time>2011-08-19T14:41:16Z</time>
      </trkpt>
      <trkpt lat="41.864251" lon="2.044536">
        <ele>655.6</ele>
        <time>2011-08-19T14:41:16Z</time>
      </trkpt>
      <trkpt lat="41.864174" lon="2.044529">
        <ele>656.4</ele>
        <time>2011-08-19T14:41:16Z</time>
      </trkpt>
      <trkpt lat="41.864099" lon="2.044525">
        <ele>656.6</ele>
        <time>2011-08-19T14:41:16Z</time>
      </trkpt>
      <trkpt lat="41.864025" lon="2.044511">
        <ele>655.7</ele>
        <time>2011-08-19T14:41:16Z</time>
      </trkpt>
      <trkpt lat="41.863952" lon="2.044476">
        <ele>654.8</ele>
        <time>2011-08-19T14:41:16Z</time>
      </trkpt>
      <trkpt lat="41.863915" lon="2.044437">
        <ele>654.3</ele>
        <time>2011-08-19T14:41:16Z</time>
      </trkpt>
      <trkpt lat="41.863864" lon="2.044371">
        <ele>654.0</ele>
        <time>2011-08-19T14:41:16Z</time>
      </trkpt>
      <trkpt lat="41.863796" lon="2.044279">
        <ele>653.1</ele>
        <time>2011-08-19T14:41:16Z</time>
      </trkpt>
      <trkpt lat="41.863731" lon="2.044174">
        <ele>651.3</ele>
        <time>2011-08-19T14:41:16Z</time>
      </trkpt>
      <trkpt lat="41.863687" lon="2.044118">
        <ele>650.7</ele>
        <time>2011-08-19T14:41:16Z</time>
      </trkpt>
      <trkpt lat="41.863622" lon="2.044055">
        <ele>650.5</ele>
        <time>2011-08-19T14:41:16Z</time>
      </trkpt>
      <trkpt lat="41.863548" lon="2.043984">
        <ele>650.2</ele>
        <time>2011-08-19T14:41:16Z</time>
      </trkpt>
      <trkpt lat="41.863508" lon="2.043948">
        <ele>649.5</ele>
        <time>2011-08-19T14:41:16Z</time>
      </trkpt>
      <trkpt lat="41.863424" lon="2.043900">
        <ele>648.5</ele>
        <time>2011-08-19T14:41:16Z</time>
      </trkpt>
      <trkpt lat="41.863361" lon="2.043873">
        <ele>648.2</ele>
        <time>2011-08-19T14:41:16Z</time>
      </trkpt>
      <trkpt lat="41.863256" lon="2.043812">
        <ele>647.5</ele>
        <time>2011-08-19T14:41:16Z</time>
      </trkpt>
      <trkpt lat="41.863186" lon="2.043759">
        <ele>647.2</ele>
        <time>2011-08-19T14:41:16Z</time>
      </trkpt>
      <trkpt lat="41.863126" lon="2.043688">
        <ele>647.2</ele>
        <time>2011-08-19T14:41:16Z</time>
      </trkpt>
      <trkpt lat="41.863094" lon="2.043634">
        <ele>647.3</ele>
        <time>2011-08-19T14:41:16Z</time>
      </trkpt>
      <trkpt lat="41.863076" lon="2.043585">
        <ele>647.4</ele>
        <time>2011-08-19T14:41:16Z</time>
      </trkpt>
      <trkpt lat="41.863061" lon="2.043508">
        <ele>647.3</ele>
        <time>2011-08-19T14:41:16Z</time>
      </trkpt>
      <trkpt lat="41.863051" lon="2.043381">
        <ele>647.1</ele>
        <time>2011-08-19T14:41:16Z</time>
      </trkpt>
      <trkpt lat="41.863076" lon="2.043281">
        <ele>646.0</ele>
        <time>2011-08-19T14:41:16Z</time>
      </trkpt>
      <trkpt lat="41.863123" lon="2.043155">
        <ele>644.2</ele>
        <time>2011-08-19T14:41:16Z</time>
      </trkpt>
      <trkpt lat="41.863166" lon="2.043062">
        <ele>642.6</ele>
        <time>2011-08-19T14:41:16Z</time>
      </trkpt>
      <trkpt lat="41.863222" lon="2.042899">
        <ele>640.1</ele>
        <time>2011-08-19T14:41:16Z</time>
      </trkpt>
      <trkpt lat="41.863253" lon="2.042756">
        <ele>638.6</ele>
        <time>2011-08-19T14:41:16Z</time>
      </trkpt>
      <trkpt lat="41.863264" lon="2.042598">
        <ele>637.7</ele>
        <time>2011-08-19T14:41:16Z</time>
      </trkpt>
      <trkpt lat="41.863252" lon="2.042424">
        <ele>638.0</ele>
        <time>2011-08-19T14:41:16Z</time>
      </trkpt>
      <trkpt lat="41.863234" lon="2.042284">
        <ele>638.7</ele>
        <time>2011-08-19T14:41:16Z</time>
      </trkpt>
      <trkpt lat="41.863197" lon="2.042145">
        <ele>639.9</ele>
        <time>2011-08-19T14:41:16Z</time>
      </trkpt>
      <trkpt lat="41.863146" lon="2.042046">
        <ele>640.7</ele>
        <time>2011-08-19T14:41:16Z</time>
      </trkpt>
      <trkpt lat="41.863076" lon="2.041969">
        <ele>641.8</ele>
        <time>2011-08-19T14:41:16Z</time>
      </trkpt>
      <trkpt lat="41.862988" lon="2.041905">
        <ele>642.8</ele>
        <time>2011-08-19T14:41:16Z</time>
      </trkpt>
      <trkpt lat="41.862890" lon="2.041837">
        <ele>643.3</ele>
        <time>2011-08-19T14:41:16Z</time>
      </trkpt>
      <trkpt lat="41.862819" lon="2.041796">
        <ele>643.6</ele>
        <time>2011-08-19T14:41:16Z</time>
      </trkpt>
      <trkpt lat="41.862753" lon="2.041759">
        <ele>644.0</ele>
        <time>2011-08-19T14:41:16Z</time>
      </trkpt>
      <trkpt lat="41.862689" lon="2.041708">
        <ele>644.0</ele>
        <time>2011-08-19T14:41:16Z</time>
      </trkpt>
      <trkpt lat="41.862627" lon="2.041654">
        <ele>643.9</ele>
        <time>2011-08-19T14:41:16Z</time>
      </trkpt>
      <trkpt lat="41.862526" lon="2.041573">
        <ele>643.9</ele>
        <time>2011-08-19T14:41:16Z</time>
      </trkpt>
      <trkpt lat="41.862475" lon="2.041516">
        <ele>643.5</ele>
        <time>2011-08-19T14:41:16Z</time>
      </trkpt>
      <trkpt lat="41.862414" lon="2.041442">
        <ele>642.6</ele>
        <time>2011-08-19T14:41:16Z</time>
      </trkpt>
      <trkpt lat="41.862360" lon="2.041400">
        <ele>642.6</ele>
        <time>2011-08-19T14:41:16Z</time>
      </trkpt>
      <trkpt lat="41.862268" lon="2.041382">
        <ele>643.3</ele>
        <time>2011-08-19T14:41:16Z</time>
      </trkpt>
      <trkpt lat="41.862203" lon="2.041383">
        <ele>644.0</ele>
        <time>2011-08-19T14:41:16Z</time>
      </trkpt>
      <trkpt lat="41.862125" lon="2.041406">
        <ele>643.7</ele>
        <time>2011-08-19T14:41:16Z</time>
      </trkpt>
      <trkpt lat="41.862062" lon="2.041435">
        <ele>643.6</ele>
        <time>2011-08-19T14:41:16Z</time>
      </trkpt>
      <trkpt lat="41.861978" lon="2.041483">
        <ele>643.6</ele>
        <time>2011-08-19T14:41:16Z</time>
      </trkpt>
      <trkpt lat="41.861883" lon="2.041535">
        <ele>643.7</ele>
        <time>2011-08-19T14:41:16Z</time>
      </trkpt>
      <trkpt lat="41.861796" lon="2.041551">
        <ele>643.6</ele>
        <time>2011-08-19T14:41:16Z</time>
      </trkpt>
      <trkpt lat="41.861706" lon="2.041547">
        <ele>643.3</ele>
        <time>2011-08-19T14:41:16Z</time>
      </trkpt>
      <trkpt lat="41.861614" lon="2.041556">
        <ele>643.4</ele>
        <time>2011-08-19T14:41:16Z</time>
      </trkpt>
      <trkpt lat="41.861506" lon="2.041518">
        <ele>643.2</ele>
        <time>2011-08-19T14:41:16Z</time>
      </trkpt>
      <trkpt lat="41.861397" lon="2.041437">
        <ele>642.7</ele>
        <time>2011-08-19T14:41:16Z</time>
      </trkpt>
      <trkpt lat="41.861342" lon="2.041366">
        <ele>642.0</ele>
        <time>2011-08-19T14:41:16Z</time>
      </trkpt>
      <trkpt lat="41.861276" lon="2.041274">
        <ele>641.3</ele>
        <time>2011-08-19T14:41:16Z</time>
      </trkpt>
      <trkpt lat="41.861214" lon="2.041193">
        <ele>641.0</ele>
        <time>2011-08-19T14:41:16Z</time>
      </trkpt>
      <trkpt lat="41.861158" lon="2.041066">
        <ele>640.6</ele>
        <time>2011-08-19T14:41:16Z</time>
      </trkpt>
      <trkpt lat="41.861126" lon="2.040959">
        <ele>640.6</ele>
        <time>2011-08-19T14:41:16Z</time>
      </trkpt>
      <trkpt lat="41.861097" lon="2.040852">
        <ele>640.4</ele>
        <time>2011-08-19T14:41:16Z</time>
      </trkpt>
      <trkpt lat="41.861066" lon="2.040695">
        <ele>640.3</ele>
        <time>2011-08-19T14:41:16Z</time>
      </trkpt>
      <trkpt lat="41.861040" lon="2.040576">
        <ele>640.6</ele>
        <time>2011-08-19T14:41:16Z</time>
      </trkpt>
      <trkpt lat="41.861004" lon="2.040419">
        <ele>641.2</ele>
        <time>2011-08-19T14:41:16Z</time>
      </trkpt>
      <trkpt lat="41.860969" lon="2.040254">
        <ele>642.3</ele>
        <time>2011-08-19T14:41:16Z</time>
      </trkpt>
      <trkpt lat="41.860953" lon="2.040155">
        <ele>642.9</ele>
        <time>2011-08-19T14:41:16Z</time>
      </trkpt>
      <trkpt lat="41.860929" lon="2.040030">
        <ele>643.8</ele>
        <time>2011-08-19T14:41:16Z</time>
      </trkpt>
      <trkpt lat="41.860915" lon="2.039921">
        <ele>644.1</ele>
        <time>2011-08-19T14:41:16Z</time>
      </trkpt>
      <trkpt lat="41.860899" lon="2.039763">
        <ele>644.7</ele>
        <time>2011-08-19T14:41:16Z</time>
      </trkpt>
      <trkpt lat="41.860869" lon="2.039640">
        <ele>645.2</ele>
        <time>2011-08-19T14:41:16Z</time>
      </trkpt>
      <trkpt lat="41.860845" lon="2.039556">
        <ele>645.1</ele>
        <time>2011-08-19T14:41:16Z</time>
      </trkpt>
      <trkpt lat="41.860807" lon="2.039482">
        <ele>644.9</ele>
        <time>2011-08-19T14:41:16Z</time>
      </trkpt>
      <trkpt lat="41.860752" lon="2.039398">
        <ele>645.2</ele>
        <time>2011-08-19T14:41:16Z</time>
      </trkpt>
      <trkpt lat="41.860691" lon="2.039307">
        <ele>645.8</ele>
        <time>2011-08-19T14:41:16Z</time>
      </trkpt>
      <trkpt lat="41.860613" lon="2.039229">
        <ele>645.8</ele>
        <time>2011-08-19T14:41:16Z</time>
      </trkpt>
      <trkpt lat="41.860549" lon="2.039162">
        <ele>645.8</ele>
        <time>2011-08-19T14:41:16Z</time>
      </trkpt>
      <trkpt lat="41.860464" lon="2.039060">
        <ele>645.6</ele>
        <time>2011-08-19T14:41:16Z</time>
      </trkpt>
      <trkpt lat="41.860409" lon="2.039007">
        <ele>646.0</ele>
        <time>2011-08-19T14:41:16Z</time>
      </trkpt>
      <trkpt lat="41.860352" lon="2.038916">
        <ele>646.2</ele>
        <time>2011-08-19T14:41:16Z</time>
      </trkpt>
      <trkpt lat="41.860314" lon="2.038818">
        <ele>645.4</ele>
        <time>2011-08-19T14:41:16Z</time>
      </trkpt>
      <trkpt lat="41.860269" lon="2.038710">
        <ele>644.3</ele>
        <time>2011-08-19T14:41:16Z</time>
      </trkpt>
      <trkpt lat="41.860231" lon="2.038609">
        <ele>643.2</ele>
        <time>2011-08-19T14:41:16Z</time>
      </trkpt>
      <trkpt lat="41.860190" lon="2.038487">
        <ele>642.6</ele>
        <time>2011-08-19T14:41:16Z</time>
      </trkpt>
      <trkpt lat="41.860128" lon="2.038377">
        <ele>642.9</ele>
        <time>2011-08-19T14:41:16Z</time>
      </trkpt>
      <trkpt lat="41.860109" lon="2.038236">
        <ele>642.5</ele>
        <time>2011-08-19T14:41:16Z</time>
      </trkpt>
      <trkpt lat="41.860097" lon="2.038131">
        <ele>642.1</ele>
        <time>2011-08-19T14:41:16Z</time>
      </trkpt>
      <trkpt lat="41.860077" lon="2.038000">
        <ele>641.8</ele>
        <time>2011-08-19T14:41:16Z</time>
      </trkpt>
      <trkpt lat="41.860055" lon="2.037823">
        <ele>641.5</ele>
        <time>2011-08-19T14:41:16Z</time>
      </trkpt>
      <trkpt lat="41.860035" lon="2.037727">
        <ele>642.0</ele>
        <time>2011-08-19T14:41:16Z</time>
      </trkpt>
      <trkpt lat="41.860005" lon="2.037601">
        <ele>642.3</ele>
        <time>2011-08-19T14:41:16Z</time>
      </trkpt>
      <trkpt lat="41.859975" lon="2.037465">
        <ele>641.7</ele>
        <time>2011-08-19T14:41:16Z</time>
      </trkpt>
      <trkpt lat="41.859937" lon="2.037336">
        <ele>640.8</ele>
        <time>2011-08-19T14:41:16Z</time>
      </trkpt>
      <trkpt lat="41.859876" lon="2.037174">
        <ele>640.2</ele>
        <time>2011-08-19T14:41:16Z</time>
      </trkpt>
      <trkpt lat="41.859818" lon="2.037096">
        <ele>640.0</ele>
        <time>2011-08-19T14:41:16Z</time>
      </trkpt>
      <trkpt lat="41.859778" lon="2.037023">
        <ele>639.7</ele>
        <time>2011-08-19T14:41:16Z</time>
      </trkpt>
      <trkpt lat="41.859709" lon="2.036921">
        <ele>639.7</ele>
        <time>2011-08-19T14:41:16Z</time>
      </trkpt>
      <trkpt lat="41.859623" lon="2.036812">
        <ele>639.4</ele>
        <time>2011-08-19T14:41:16Z</time>
      </trkpt>
      <trkpt lat="41.859568" lon="2.036719">
        <ele>639.8</ele>
        <time>2011-08-19T14:41:16Z</time>
      </trkpt>
      <trkpt lat="41.859483" lon="2.036656">
        <ele>641.1</ele>
        <time>2011-08-19T14:41:16Z</time>
      </trkpt>
      <trkpt lat="41.859401" lon="2.036607">
        <ele>641.7</ele>
        <time>2011-08-19T14:41:16Z</time>
      </trkpt>
      <trkpt lat="41.859318" lon="2.036565">
        <ele>642.0</ele>
        <time>2011-08-19T14:41:16Z</time>
      </trkpt>
      <trkpt lat="41.859243" lon="2.036547">
        <ele>642.3</ele>
        <time>2011-08-19T14:41:16Z</time>
      </trkpt>
      <trkpt lat="41.859183" lon="2.036526">
        <ele>642.5</ele>
        <time>2011-08-19T14:41:16Z</time>
      </trkpt>
      <trkpt lat="41.859110" lon="2.036506">
        <ele>642.6</ele>
        <time>2011-08-19T14:41:16Z</time>
      </trkpt>
      <trkpt lat="41.859038" lon="2.036478">
        <ele>642.7</ele>
        <time>2011-08-19T14:41:16Z</time>
      </trkpt>
      <trkpt lat="41.858939" lon="2.036439">
        <ele>643.0</ele>
        <time>2011-08-19T14:41:16Z</time>
      </trkpt>
      <trkpt lat="41.858876" lon="2.036411">
        <ele>643.0</ele>
        <time>2011-08-19T14:41:16Z</time>
      </trkpt>
      <trkpt lat="41.858817" lon="2.036381">
        <ele>642.9</ele>
        <time>2011-08-19T14:41:16Z</time>
      </trkpt>
      <trkpt lat="41.858757" lon="2.036327">
        <ele>643.1</ele>
        <time>2011-08-19T14:41:16Z</time>
      </trkpt>
      <trkpt lat="41.858711" lon="2.036287">
        <ele>643.2</ele>
        <time>2011-08-19T14:41:16Z</time>
      </trkpt>
      <trkpt lat="41.858656" lon="2.036240">
        <ele>643.3</ele>
        <time>2011-08-19T14:41:16Z</time>
      </trkpt>
      <trkpt lat="41.858597" lon="2.036190">
        <ele>643.9</ele>
        <time>2011-08-19T14:41:16Z</time>
      </trkpt>
      <trkpt lat="41.858532" lon="2.036136">
        <ele>644.5</ele>
        <time>2011-08-19T14:41:16Z</time>
      </trkpt>
      <trkpt lat="41.858485" lon="2.036115">
        <ele>644.7</ele>
        <time>2011-08-19T14:41:16Z</time>
      </trkpt>
      <trkpt lat="41.858412" lon="2.036078">
        <ele>645.1</ele>
        <time>2011-08-19T14:41:16Z</time>
      </trkpt>
      <trkpt lat="41.858354" lon="2.036050">
        <ele>645.3</ele>
        <time>2011-08-19T14:41:16Z</time>
      </trkpt>
      <trkpt lat="41.858304" lon="2.036020">
        <ele>645.5</ele>
        <time>2011-08-19T14:41:16Z</time>
      </trkpt>
      <trkpt lat="41.858232" lon="2.035949">
        <ele>645.7</ele>
        <time>2011-08-19T14:41:16Z</time>
      </trkpt>
      <trkpt lat="41.858183" lon="2.035895">
        <ele>645.8</ele>
        <time>2011-08-19T14:41:16Z</time>
      </trkpt>
      <trkpt lat="41.858130" lon="2.035848">
        <ele>645.8</ele>
        <time>2011-08-19T14:41:16Z</time>
      </trkpt>
      <trkpt lat="41.858087" lon="2.035820">
        <ele>645.8</ele>
        <time>2011-08-19T14:41:16Z</time>
      </trkpt>
      <trkpt lat="41.858049" lon="2.035820">
        <ele>645.8</ele>
        <time>2011-08-19T14:41:16Z</time>
      </trkpt>
      <trkpt lat="41.857957" lon="2.035825">
        <ele>645.7</ele>
        <time>2011-08-19T14:41:16Z</time>
      </trkpt>
      <trkpt lat="41.857873" lon="2.035821">
        <ele>645.8</ele>
        <time>2011-08-19T14:41:16Z</time>
      </trkpt>
      <trkpt lat="41.857784" lon="2.035820">
        <ele>645.8</ele>
        <time>2011-08-19T14:41:16Z</time>
      </trkpt>
      <trkpt lat="41.857716" lon="2.035821">
        <ele>645.9</ele>
        <time>2011-08-19T14:41:16Z</time>
      </trkpt>
      <trkpt lat="41.857643" lon="2.035826">
        <ele>645.9</ele>
        <time>2011-08-19T14:41:16Z</time>
      </trkpt>
      <trkpt lat="41.857573" lon="2.035826">
        <ele>646.0</ele>
        <time>2011-08-19T14:41:16Z</time>
      </trkpt>
      <trkpt lat="41.857505" lon="2.035821">
        <ele>646.0</ele>
        <time>2011-08-19T14:41:16Z</time>
      </trkpt>
      <trkpt lat="41.857437" lon="2.035809">
        <ele>646.0</ele>
        <time>2011-08-19T14:41:16Z</time>
      </trkpt>
      <trkpt lat="41.857379" lon="2.035793">
        <ele>646.0</ele>
        <time>2011-08-19T14:41:16Z</time>
      </trkpt>
      <trkpt lat="41.857305" lon="2.035762">
        <ele>646.0</ele>
        <time>2011-08-19T14:41:16Z</time>
      </trkpt>
      <trkpt lat="41.857263" lon="2.035725">
        <ele>645.6</ele>
        <time>2011-08-19T14:41:16Z</time>
      </trkpt>
      <trkpt lat="41.857169" lon="2.035650">
        <ele>644.8</ele>
        <time>2011-08-19T14:41:16Z</time>
      </trkpt>
      <trkpt lat="41.857105" lon="2.035586">
        <ele>644.5</ele>
        <time>2011-08-19T14:41:16Z</time>
      </trkpt>
      <trkpt lat="41.857045" lon="2.035514">
        <ele>644.6</ele>
        <time>2011-08-19T14:41:16Z</time>
      </trkpt>
      <trkpt lat="41.856996" lon="2.035444">
        <ele>644.8</ele>
        <time>2011-08-19T14:41:16Z</time>
      </trkpt>
      <trkpt lat="41.856947" lon="2.035374">
        <ele>645.0</ele>
        <time>2011-08-19T14:41:16Z</time>
      </trkpt>
      <trkpt lat="41.856884" lon="2.035263">
        <ele>645.2</ele>
        <time>2011-08-19T14:41:16Z</time>
      </trkpt>
      <trkpt lat="41.856847" lon="2.035208">
        <ele>645.5</ele>
        <time>2011-08-19T14:41:16Z</time>
      </trkpt>
      <trkpt lat="41.856802" lon="2.035132">
        <ele>646.0</ele>
        <time>2011-08-19T14:41:16Z</time>
      </trkpt>
      <trkpt lat="41.856748" lon="2.035033">
        <ele>647.1</ele>
        <time>2011-08-19T14:41:16Z</time>
      </trkpt>
      <trkpt lat="41.856708" lon="2.034940">
        <ele>647.5</ele>
        <time>2011-08-19T14:41:16Z</time>
      </trkpt>
      <trkpt lat="41.856666" lon="2.034843">
        <ele>648.1</ele>
        <time>2011-08-19T14:41:16Z</time>
      </trkpt>
      <trkpt lat="41.856623" lon="2.034759">
        <ele>648.9</ele>
        <time>2011-08-19T14:41:16Z</time>
      </trkpt>
      <trkpt lat="41.856574" lon="2.034660">
        <ele>649.9</ele>
        <time>2011-08-19T14:41:16Z</time>
      </trkpt>
      <trkpt lat="41.856523" lon="2.034587">
        <ele>650.8</ele>
        <time>2011-08-19T14:41:16Z</time>
      </trkpt>
      <trkpt lat="41.856474" lon="2.034529">
        <ele>651.7</ele>
        <time>2011-08-19T14:41:16Z</time>
      </trkpt>
      <trkpt lat="41.856405" lon="2.034454">
        <ele>653.3</ele>
        <time>2011-08-19T14:41:16Z</time>
      </trkpt>
      <trkpt lat="41.856350" lon="2.034407">
        <ele>654.6</ele>
        <time>2011-08-19T14:41:16Z</time>
      </trkpt>
      <trkpt lat="41.856277" lon="2.034341">
        <ele>656.3</ele>
        <time>2011-08-19T14:41:16Z</time>
      </trkpt>
      <trkpt lat="41.856226" lon="2.034298">
        <ele>657.4</ele>
        <time>2011-08-19T14:41:16Z</time>
      </trkpt>
      <trkpt lat="41.856168" lon="2.034240">
        <ele>658.7</ele>
        <time>2011-08-19T14:41:16Z</time>
      </trkpt>
      <trkpt lat="41.856126" lon="2.034193">
        <ele>659.7</ele>
        <time>2011-08-19T14:41:16Z</time>
      </trkpt>
      <trkpt lat="41.856068" lon="2.034123">
        <ele>661.0</ele>
        <time>2011-08-19T14:41:16Z</time>
      </trkpt>
      <trkpt lat="41.856011" lon="2.034013">
        <ele>662.0</ele>
        <time>2011-08-19T14:41:16Z</time>
      </trkpt>
      <trkpt lat="41.855967" lon="2.033929">
        <ele>662.9</ele>
        <time>2011-08-19T14:41:16Z</time>
      </trkpt>
      <trkpt lat="41.855937" lon="2.033852">
        <ele>663.6</ele>
        <time>2011-08-19T14:41:16Z</time>
      </trkpt>
      <trkpt lat="41.855890" lon="2.033723">
        <ele>664.7</ele>
        <time>2011-08-19T14:41:16Z</time>
      </trkpt>
      <trkpt lat="41.855865" lon="2.033622">
        <ele>665.1</ele>
        <time>2011-08-19T14:41:16Z</time>
      </trkpt>
      <trkpt lat="41.855830" lon="2.033492">
        <ele>666.1</ele>
        <time>2011-08-19T14:41:16Z</time>
      </trkpt>
      <trkpt lat="41.855809" lon="2.033400">
        <ele>666.8</ele>
        <time>2011-08-19T14:41:16Z</time>
      </trkpt>
      <trkpt lat="41.855825" lon="2.033235">
        <ele>666.7</ele>
        <time>2011-08-19T14:41:16Z</time>
      </trkpt>
      <trkpt lat="41.855872" lon="2.033096">
        <ele>666.9</ele>
        <time>2011-08-19T14:41:16Z</time>
      </trkpt>
      <trkpt lat="41.855888" lon="2.032997">
        <ele>667.5</ele>
        <time>2011-08-19T14:41:16Z</time>
      </trkpt>
      <trkpt lat="41.855889" lon="2.032867">
        <ele>668.8</ele>
        <time>2011-08-19T14:41:16Z</time>
      </trkpt>
      <trkpt lat="41.855882" lon="2.032735">
        <ele>669.3</ele>
        <time>2011-08-19T14:41:16Z</time>
      </trkpt>
      <trkpt lat="41.855859" lon="2.032596">
        <ele>670.0</ele>
        <time>2011-08-19T14:41:16Z</time>
      </trkpt>
      <trkpt lat="41.855832" lon="2.032478">
        <ele>670.1</ele>
        <time>2011-08-19T14:41:16Z</time>
      </trkpt>
      <trkpt lat="41.855779" lon="2.032361">
        <ele>669.5</ele>
        <time>2011-08-19T14:41:16Z</time>
      </trkpt>
      <trkpt lat="41.855690" lon="2.032293">
        <ele>670.6</ele>
        <time>2011-08-19T14:41:16Z</time>
      </trkpt>
      <trkpt lat="41.855560" lon="2.032219">
        <ele>671.0</ele>
        <time>2011-08-19T14:41:16Z</time>
      </trkpt>
      <trkpt lat="41.855473" lon="2.032180">
        <ele>670.9</ele>
        <time>2011-08-19T14:41:16Z</time>
      </trkpt>
      <trkpt lat="41.855389" lon="2.032138">
        <ele>670.4</ele>
        <time>2011-08-19T14:41:16Z</time>
      </trkpt>
      <trkpt lat="41.855302" lon="2.032108">
        <ele>669.6</ele>
        <time>2011-08-19T14:41:16Z</time>
      </trkpt>
      <trkpt lat="41.855209" lon="2.032074">
        <ele>668.8</ele>
        <time>2011-08-19T14:41:16Z</time>
      </trkpt>
      <trkpt lat="41.855109" lon="2.032033">
        <ele>667.8</ele>
        <time>2011-08-19T14:41:16Z</time>
      </trkpt>
      <trkpt lat="41.855029" lon="2.031996">
        <ele>666.6</ele>
        <time>2011-08-19T14:41:16Z</time>
      </trkpt>
      <trkpt lat="41.854951" lon="2.031986">
        <ele>666.2</ele>
        <time>2011-08-19T14:41:16Z</time>
      </trkpt>
      <trkpt lat="41.854884" lon="2.032001">
        <ele>666.3</ele>
        <time>2011-08-19T14:41:16Z</time>
      </trkpt>
      <trkpt lat="41.854822" lon="2.032075">
        <ele>666.8</ele>
        <time>2011-08-19T14:41:16Z</time>
      </trkpt>
      <trkpt lat="41.854764" lon="2.032133">
        <ele>666.6</ele>
        <time>2011-08-19T14:41:16Z</time>
      </trkpt>
      <trkpt lat="41.854713" lon="2.032209">
        <ele>666.1</ele>
        <time>2011-08-19T14:41:16Z</time>
      </trkpt>
      <trkpt lat="41.854697" lon="2.032313">
        <ele>665.9</ele>
        <time>2011-08-19T14:41:16Z</time>
      </trkpt>
      <trkpt lat="41.854693" lon="2.032446">
        <ele>665.8</ele>
        <time>2011-08-19T14:41:16Z</time>
      </trkpt>
      <trkpt lat="41.854683" lon="2.032516">
        <ele>665.7</ele>
        <time>2011-08-19T14:41:16Z</time>
      </trkpt>
      <trkpt lat="41.854654" lon="2.032597">
        <ele>665.7</ele>
        <time>2011-08-19T14:41:16Z</time>
      </trkpt>
      <trkpt lat="41.854564" lon="2.032685">
        <ele>665.2</ele>
        <time>2011-08-19T14:41:16Z</time>
      </trkpt>
      <trkpt lat="41.854467" lon="2.032765">
        <ele>665.2</ele>
        <time>2011-08-19T14:41:16Z</time>
      </trkpt>
      <trkpt lat="41.854364" lon="2.032807">
        <ele>665.1</ele>
        <time>2011-08-19T14:41:16Z</time>
      </trkpt>
      <trkpt lat="41.854245" lon="2.032808">
        <ele>664.7</ele>
        <time>2011-08-19T14:41:16Z</time>
      </trkpt>
      <trkpt lat="41.854158" lon="2.032746">
        <ele>663.6</ele>
        <time>2011-08-19T14:41:16Z</time>
      </trkpt>
      <trkpt lat="41.854056" lon="2.032667">
        <ele>662.2</ele>
        <time>2011-08-19T14:41:16Z</time>
      </trkpt>
      <trkpt lat="41.853905" lon="2.032597">
        <ele>661.1</ele>
        <time>2011-08-19T14:41:16Z</time>
      </trkpt>
      <trkpt lat="41.853826" lon="2.032567">
        <ele>660.5</ele>
        <time>2011-08-19T14:41:16Z</time>
      </trkpt>
      <trkpt lat="41.853717" lon="2.032500">
        <ele>659.2</ele>
        <time>2011-08-19T14:41:16Z</time>
      </trkpt>
      <trkpt lat="41.853610" lon="2.032428">
        <ele>657.5</ele>
        <time>2011-08-19T14:41:16Z</time>
      </trkpt>
      <trkpt lat="41.853516" lon="2.032378">
        <ele>655.9</ele>
        <time>2011-08-19T14:41:16Z</time>
      </trkpt>
      <trkpt lat="41.853386" lon="2.032332">
        <ele>655.2</ele>
        <time>2011-08-19T14:41:16Z</time>
      </trkpt>
      <trkpt lat="41.853287" lon="2.032273">
        <ele>654.2</ele>
        <time>2011-08-19T14:41:16Z</time>
      </trkpt>
      <trkpt lat="41.853184" lon="2.032207">
        <ele>652.6</ele>
        <time>2011-08-19T14:41:16Z</time>
      </trkpt>
      <trkpt lat="41.853095" lon="2.032194">
        <ele>652.5</ele>
        <time>2011-08-19T14:41:16Z</time>
      </trkpt>
      <trkpt lat="41.853018" lon="2.032178">
        <ele>652.0</ele>
        <time>2011-08-19T14:41:16Z</time>
      </trkpt>
      <trkpt lat="41.852956" lon="2.032144">
        <ele>650.7</ele>
        <time>2011-08-19T14:41:16Z</time>
      </trkpt>
      <trkpt lat="41.852862" lon="2.032106">
        <ele>649.5</ele>
        <time>2011-08-19T14:41:16Z</time>
      </trkpt>
      <trkpt lat="41.852755" lon="2.032053">
        <ele>648.3</ele>
        <time>2011-08-19T14:41:16Z</time>
      </trkpt>
      <trkpt lat="41.852661" lon="2.031998">
        <ele>647.4</ele>
        <time>2011-08-19T14:41:16Z</time>
      </trkpt>
      <trkpt lat="41.852554" lon="2.031940">
        <ele>645.5</ele>
        <time>2011-08-19T14:41:16Z</time>
      </trkpt>
      <trkpt lat="41.852462" lon="2.031879">
        <ele>643.9</ele>
        <time>2011-08-19T14:41:16Z</time>
      </trkpt>
      <trkpt lat="41.852385" lon="2.031831">
        <ele>642.7</ele>
        <time>2011-08-19T14:41:16Z</time>
      </trkpt>
      <trkpt lat="41.852321" lon="2.031795">
        <ele>641.6</ele>
        <time>2011-08-19T14:41:16Z</time>
      </trkpt>
      <trkpt lat="41.852231" lon="2.031737">
        <ele>639.9</ele>
        <time>2011-08-19T14:41:16Z</time>
      </trkpt>
      <trkpt lat="41.852169" lon="2.031698">
        <ele>638.8</ele>
        <time>2011-08-19T14:41:16Z</time>
      </trkpt>
      <trkpt lat="41.852103" lon="2.031653">
        <ele>637.7</ele>
        <time>2011-08-19T14:41:16Z</time>
      </trkpt>
      <trkpt lat="41.852004" lon="2.031584">
        <ele>636.4</ele>
        <time>2011-08-19T14:41:16Z</time>
      </trkpt>
      <trkpt lat="41.851929" lon="2.031542">
        <ele>635.6</ele>
        <time>2011-08-19T14:41:16Z</time>
      </trkpt>
      <trkpt lat="41.851878" lon="2.031523">
        <ele>635.3</ele>
        <time>2011-08-19T14:41:16Z</time>
      </trkpt>
      <trkpt lat="41.851795" lon="2.031490">
        <ele>635.0</ele>
        <time>2011-08-19T14:41:16Z</time>
      </trkpt>
      <trkpt lat="41.851718" lon="2.031457">
        <ele>635.0</ele>
        <time>2011-08-19T14:41:16Z</time>
      </trkpt>
      <trkpt lat="41.851622" lon="2.031456">
        <ele>635.2</ele>
        <time>2011-08-19T14:41:16Z</time>
      </trkpt>
      <trkpt lat="41.851557" lon="2.031497">
        <ele>634.8</ele>
        <time>2011-08-19T14:41:16Z</time>
      </trkpt>
      <trkpt lat="41.851471" lon="2.031509">
        <ele>634.1</ele>
        <time>2011-08-19T14:41:16Z</time>
      </trkpt>
      <trkpt lat="41.851405" lon="2.031504">
        <ele>633.6</ele>
        <time>2011-08-19T14:41:16Z</time>
      </trkpt>
      <trkpt lat="41.851329" lon="2.031469">
        <ele>633.5</ele>
        <time>2011-08-19T14:41:16Z</time>
      </trkpt>
      <trkpt lat="41.851241" lon="2.031410">
        <ele>633.4</ele>
        <time>2011-08-19T14:41:16Z</time>
      </trkpt>
      <trkpt lat="41.851153" lon="2.031357">
        <ele>633.0</ele>
        <time>2011-08-19T14:41:16Z</time>
      </trkpt>
      <trkpt lat="41.851072" lon="2.031316">
        <ele>632.3</ele>
        <time>2011-08-19T14:41:16Z</time>
      </trkpt>
      <trkpt lat="41.850995" lon="2.031269">
        <ele>631.6</ele>
        <time>2011-08-19T14:41:16Z</time>
      </trkpt>
      <trkpt lat="41.850922" lon="2.031216">
        <ele>630.8</ele>
        <time>2011-08-19T14:41:16Z</time>
      </trkpt>
      <trkpt lat="41.850843" lon="2.031174">
        <ele>629.9</ele>
        <time>2011-08-19T14:41:16Z</time>
      </trkpt>
      <trkpt lat="41.850749" lon="2.031133">
        <ele>628.9</ele>
        <time>2011-08-19T14:41:16Z</time>
      </trkpt>
      <trkpt lat="41.850676" lon="2.031103">
        <ele>628.7</ele>
        <time>2011-08-19T14:41:16Z</time>
      </trkpt>
      <trkpt lat="41.850589" lon="2.031061">
        <ele>628.4</ele>
        <time>2011-08-19T14:41:16Z</time>
      </trkpt>
      <trkpt lat="41.850492" lon="2.031011">
        <ele>627.9</ele>
        <time>2011-08-19T14:41:16Z</time>
      </trkpt>
      <trkpt lat="41.850411" lon="2.030967">
        <ele>627.1</ele>
        <time>2011-08-19T14:41:16Z</time>
      </trkpt>
      <trkpt lat="41.850347" lon="2.030943">
        <ele>626.6</ele>
        <time>2011-08-19T14:41:16Z</time>
      </trkpt>
      <trkpt lat="41.850285" lon="2.030912">
        <ele>626.1</ele>
        <time>2011-08-19T14:41:16Z</time>
      </trkpt>
      <trkpt lat="41.850229" lon="2.030879">
        <ele>625.7</ele>
        <time>2011-08-19T14:41:16Z</time>
      </trkpt>
      <trkpt lat="41.850169" lon="2.030840">
        <ele>625.4</ele>
        <time>2011-08-19T14:41:16Z</time>
      </trkpt>
      <trkpt lat="41.850109" lon="2.030801">
        <ele>625.1</ele>
        <time>2011-08-19T14:41:16Z</time>
      </trkpt>
      <trkpt lat="41.850041" lon="2.030751">
        <ele>624.0</ele>
        <time>2011-08-19T14:41:16Z</time>
      </trkpt>
      <trkpt lat="41.849996" lon="2.030717">
        <ele>623.3</ele>
        <time>2011-08-19T14:41:16Z</time>
      </trkpt>
      <trkpt lat="41.849942" lon="2.030664">
        <ele>622.5</ele>
        <time>2011-08-19T14:41:16Z</time>
      </trkpt>
      <trkpt lat="41.849904" lon="2.030610">
        <ele>622.1</ele>
        <time>2011-08-19T14:41:16Z</time>
      </trkpt>
      <trkpt lat="41.849858" lon="2.030517">
        <ele>621.6</ele>
        <time>2011-08-19T14:41:16Z</time>
      </trkpt>
      <trkpt lat="41.849808" lon="2.030413">
        <ele>621.4</ele>
        <time>2011-08-19T14:41:16Z</time>
      </trkpt>
      <trkpt lat="41.849766" lon="2.030323">
        <ele>621.0</ele>
        <time>2011-08-19T14:41:16Z</time>
      </trkpt>
      <trkpt lat="41.849699" lon="2.030240">
        <ele>621.2</ele>
        <time>2011-08-19T14:41:16Z</time>
      </trkpt>
      <trkpt lat="41.849643" lon="2.030203">
        <ele>621.0</ele>
        <time>2011-08-19T14:41:16Z</time>
      </trkpt>
      <trkpt lat="41.849583" lon="2.030149">
        <ele>620.8</ele>
        <time>2011-08-19T14:41:16Z</time>
      </trkpt>
      <trkpt lat="41.849518" lon="2.030104">
        <ele>620.7</ele>
        <time>2011-08-19T14:41:16Z</time>
      </trkpt>
      <trkpt lat="41.849433" lon="2.030048">
        <ele>620.5</ele>
        <time>2011-08-19T14:41:16Z</time>
      </trkpt>
      <trkpt lat="41.849351" lon="2.030000">
        <ele>620.0</ele>
        <time>2011-08-19T14:41:16Z</time>
      </trkpt>
      <trkpt lat="41.849296" lon="2.029941">
        <ele>619.4</ele>
        <time>2011-08-19T14:41:16Z</time>
      </trkpt>
      <trkpt lat="41.849250" lon="2.029889">
        <ele>619.0</ele>
        <time>2011-08-19T14:41:16Z</time>
      </trkpt>
      <trkpt lat="41.849188" lon="2.029781">
        <ele>618.2</ele>
        <time>2011-08-19T14:41:16Z</time>
      </trkpt>
      <trkpt lat="41.849104" lon="2.029714">
        <ele>617.9</ele>
        <time>2011-08-19T14:41:16Z</time>
      </trkpt>
      <trkpt lat="41.849032" lon="2.029677">
        <ele>617.5</ele>
        <time>2011-08-19T14:41:16Z</time>
      </trkpt>
      <trkpt lat="41.848917" lon="2.029654">
        <ele>617.4</ele>
        <time>2011-08-19T14:41:16Z</time>
      </trkpt>
      <trkpt lat="41.848821" lon="2.029628">
        <ele>617.1</ele>
        <time>2011-08-19T14:41:16Z</time>
      </trkpt>
      <trkpt lat="41.848737" lon="2.029621">
        <ele>617.0</ele>
        <time>2011-08-19T14:41:16Z</time>
      </trkpt>
      <trkpt lat="41.848643" lon="2.029606">
        <ele>616.7</ele>
        <time>2011-08-19T14:41:16Z</time>
      </trkpt>
      <trkpt lat="41.848565" lon="2.029602">
        <ele>616.4</ele>
        <time>2011-08-19T14:41:16Z</time>
      </trkpt>
      <trkpt lat="41.848467" lon="2.029598">
        <ele>616.0</ele>
        <time>2011-08-19T14:41:16Z</time>
      </trkpt>
      <trkpt lat="41.848404" lon="2.029582">
        <ele>615.6</ele>
        <time>2011-08-19T14:41:16Z</time>
      </trkpt>
      <trkpt lat="41.848322" lon="2.029575">
        <ele>615.2</ele>
        <time>2011-08-19T14:41:16Z</time>
      </trkpt>
      <trkpt lat="41.848230" lon="2.029560">
        <ele>614.9</ele>
        <time>2011-08-19T14:41:16Z</time>
      </trkpt>
      <trkpt lat="41.848138" lon="2.029556">
        <ele>614.6</ele>
        <time>2011-08-19T14:41:16Z</time>
      </trkpt>
      <trkpt lat="41.848030" lon="2.029574">
        <ele>614.5</ele>
        <time>2011-08-19T14:41:16Z</time>
      </trkpt>
      <trkpt lat="41.847938" lon="2.029611">
        <ele>614.5</ele>
        <time>2011-08-19T14:41:16Z</time>
      </trkpt>
      <trkpt lat="41.847869" lon="2.029672">
        <ele>614.7</ele>
        <time>2011-08-19T14:41:16Z</time>
      </trkpt>
      <trkpt lat="41.847797" lon="2.029772">
        <ele>615.0</ele>
        <time>2011-08-19T14:41:16Z</time>
      </trkpt>
      <trkpt lat="41.847748" lon="2.029893">
        <ele>614.8</ele>
        <time>2011-08-19T14:41:16Z</time>
      </trkpt>
      <trkpt lat="41.847688" lon="2.029970">
        <ele>614.8</ele>
        <time>2011-08-19T14:41:16Z</time>
      </trkpt>
      <trkpt lat="41.847633" lon="2.030045">
        <ele>614.8</ele>
        <time>2011-08-19T14:41:16Z</time>
      </trkpt>
      <trkpt lat="41.847577" lon="2.030144">
        <ele>614.5</ele>
        <time>2011-08-19T14:41:16Z</time>
      </trkpt>
      <trkpt lat="41.847528" lon="2.030216">
        <ele>614.1</ele>
        <time>2011-08-19T14:41:16Z</time>
      </trkpt>
      <trkpt lat="41.847482" lon="2.030307">
        <ele>614.4</ele>
        <time>2011-08-19T14:41:16Z</time>
      </trkpt>
      <trkpt lat="41.847452" lon="2.030381">
        <ele>614.5</ele>
        <time>2011-08-19T14:41:16Z</time>
      </trkpt>
      <trkpt lat="41.847420" lon="2.030458">
        <ele>614.5</ele>
        <time>2011-08-19T14:41:16Z</time>
      </trkpt>
      <trkpt lat="41.847387" lon="2.030576">
        <ele>614.4</ele>
        <time>2011-08-19T14:41:16Z</time>
      </trkpt>
      <trkpt lat="41.847373" lon="2.030710">
        <ele>613.8</ele>
        <time>2011-08-19T14:41:16Z</time>
      </trkpt>
      <trkpt lat="41.847378" lon="2.030828">
        <ele>612.9</ele>
        <time>2011-08-19T14:41:16Z</time>
      </trkpt>
      <trkpt lat="41.847383" lon="2.030950">
        <ele>612.2</ele>
        <time>2011-08-19T14:41:16Z</time>
      </trkpt>
      <trkpt lat="41.847385" lon="2.031103">
        <ele>611.5</ele>
        <time>2011-08-19T14:41:16Z</time>
      </trkpt>
      <trkpt lat="41.847380" lon="2.031229">
        <ele>610.9</ele>
        <time>2011-08-19T14:41:16Z</time>
      </trkpt>
      <trkpt lat="41.847362" lon="2.031328">
        <ele>610.4</ele>
        <time>2011-08-19T14:41:16Z</time>
      </trkpt>
      <trkpt lat="41.847324" lon="2.031432">
        <ele>609.9</ele>
        <time>2011-08-19T14:41:16Z</time>
      </trkpt>
      <trkpt lat="41.847266" lon="2.031542">
        <ele>609.1</ele>
        <time>2011-08-19T14:41:16Z</time>
      </trkpt>
      <trkpt lat="41.847209" lon="2.031631">
        <ele>609.0</ele>
        <time>2011-08-19T14:41:16Z</time>
      </trkpt>
      <trkpt lat="41.847120" lon="2.031736">
        <ele>609.0</ele>
        <time>2011-08-19T14:41:16Z</time>
      </trkpt>
      <trkpt lat="41.847062" lon="2.031794">
        <ele>609.0</ele>
        <time>2011-08-19T14:41:16Z</time>
      </trkpt>
      <trkpt lat="41.846976" lon="2.031867">
        <ele>608.8</ele>
        <time>2011-08-19T14:41:16Z</time>
      </trkpt>
      <trkpt lat="41.846891" lon="2.031893">
        <ele>608.2</ele>
        <time>2011-08-19T14:41:16Z</time>
      </trkpt>
      <trkpt lat="41.846783" lon="2.031910">
        <ele>607.4</ele>
        <time>2011-08-19T14:41:16Z</time>
      </trkpt>
      <trkpt lat="41.846695" lon="2.031906">
        <ele>606.9</ele>
        <time>2011-08-19T14:41:16Z</time>
      </trkpt>
      <trkpt lat="41.846607" lon="2.031924">
        <ele>606.6</ele>
        <time>2011-08-19T14:41:16Z</time>
      </trkpt>
      <trkpt lat="41.846497" lon="2.031948">
        <ele>606.4</ele>
        <time>2011-08-19T14:41:16Z</time>
      </trkpt>
      <trkpt lat="41.846385" lon="2.031971">
        <ele>605.8</ele>
        <time>2011-08-19T14:41:16Z</time>
      </trkpt>
      <trkpt lat="41.846303" lon="2.032002">
        <ele>605.3</ele>
        <time>2011-08-19T14:41:16Z</time>
      </trkpt>
      <trkpt lat="41.846232" lon="2.032042">
        <ele>605.0</ele>
        <time>2011-08-19T14:41:16Z</time>
      </trkpt>
      <trkpt lat="41.846181" lon="2.032083">
        <ele>605.0</ele>
        <time>2011-08-19T14:41:16Z</time>
      </trkpt>
      <trkpt lat="41.846131" lon="2.032139">
        <ele>605.1</ele>
        <time>2011-08-19T14:41:16Z</time>
      </trkpt>
      <trkpt lat="41.846074" lon="2.032208">
        <ele>605.0</ele>
        <time>2011-08-19T14:41:16Z</time>
      </trkpt>
      <trkpt lat="41.846028" lon="2.032272">
        <ele>604.8</ele>
        <time>2011-08-19T14:41:16Z</time>
      </trkpt>
      <trkpt lat="41.845973" lon="2.032357">
        <ele>604.6</ele>
        <time>2011-08-19T14:41:16Z</time>
      </trkpt>
      <trkpt lat="41.845917" lon="2.032470">
        <ele>604.8</ele>
        <time>2011-08-19T14:41:16Z</time>
      </trkpt>
      <trkpt lat="41.845838" lon="2.032608">
        <ele>605.2</ele>
        <time>2011-08-19T14:41:16Z</time>
      </trkpt>
      <trkpt lat="41.845788" lon="2.032652">
        <ele>604.9</ele>
        <time>2011-08-19T14:41:16Z</time>
      </trkpt>
      <trkpt lat="41.845696" lon="2.032714">
        <ele>604.2</ele>
        <time>2011-08-19T14:41:16Z</time>
      </trkpt>
      <trkpt lat="41.845639" lon="2.032742">
        <ele>603.7</ele>
        <time>2011-08-19T14:41:16Z</time>
      </trkpt>
      <trkpt lat="41.845595" lon="2.032762">
        <ele>603.7</ele>
        <time>2011-08-19T14:41:16Z</time>
      </trkpt>
      <trkpt lat="41.845540" lon="2.032804">
        <ele>603.7</ele>
        <time>2011-08-19T14:41:16Z</time>
      </trkpt>
      <trkpt lat="41.845471" lon="2.032862">
        <ele>603.7</ele>
        <time>2011-08-19T14:41:16Z</time>
      </trkpt>
      <trkpt lat="41.845398" lon="2.032918">
        <ele>603.5</ele>
        <time>2011-08-19T14:41:16Z</time>
      </trkpt>
      <trkpt lat="41.845288" lon="2.033026">
        <ele>602.9</ele>
        <time>2011-08-19T14:41:16Z</time>
      </trkpt>
      <trkpt lat="41.845199" lon="2.033134">
        <ele>603.2</ele>
        <time>2011-08-19T14:41:16Z</time>
      </trkpt>
      <trkpt lat="41.845120" lon="2.033231">
        <ele>603.2</ele>
        <time>2011-08-19T14:41:16Z</time>
      </trkpt>
      <trkpt lat="41.845066" lon="2.033297">
        <ele>603.2</ele>
        <time>2011-08-19T14:41:16Z</time>
      </trkpt>
      <trkpt lat="41.845005" lon="2.033391">
        <ele>603.2</ele>
        <time>2011-08-19T14:41:16Z</time>
      </trkpt>
      <trkpt lat="41.844939" lon="2.033501">
        <ele>603.5</ele>
        <time>2011-08-19T14:41:16Z</time>
      </trkpt>
      <trkpt lat="41.844886" lon="2.033595">
        <ele>603.7</ele>
        <time>2011-08-19T14:41:16Z</time>
      </trkpt>
      <trkpt lat="41.844838" lon="2.033664">
        <ele>603.9</ele>
        <time>2011-08-19T14:41:16Z</time>
      </trkpt>
      <trkpt lat="41.844777" lon="2.033733">
        <ele>604.4</ele>
        <time>2011-08-19T14:41:16Z</time>
      </trkpt>
      <trkpt lat="41.844706" lon="2.033811">
        <ele>605.0</ele>
        <time>2011-08-19T14:41:16Z</time>
      </trkpt>
      <trkpt lat="41.844668" lon="2.033883">
        <ele>605.7</ele>
        <time>2011-08-19T14:41:16Z</time>
      </trkpt>
      <trkpt lat="41.844634" lon="2.033962">
        <ele>606.5</ele>
        <time>2011-08-19T14:41:16Z</time>
      </trkpt>
      <trkpt lat="41.844588" lon="2.034067">
        <ele>607.3</ele>
        <time>2011-08-19T14:41:16Z</time>
      </trkpt>
      <trkpt lat="41.844524" lon="2.034188">
        <ele>608.2</ele>
        <time>2011-08-19T14:41:16Z</time>
      </trkpt>
      <trkpt lat="41.844479" lon="2.034287">
        <ele>608.9</ele>
        <time>2011-08-19T14:41:16Z</time>
      </trkpt>
      <trkpt lat="41.844433" lon="2.034383">
        <ele>609.7</ele>
        <time>2011-08-19T14:41:16Z</time>
      </trkpt>
      <trkpt lat="41.844381" lon="2.034510">
        <ele>610.5</ele>
        <time>2011-08-19T14:41:16Z</time>
      </trkpt>
      <trkpt lat="41.844341" lon="2.034631">
        <ele>609.9</ele>
        <time>2011-08-19T14:41:16Z</time>
      </trkpt>
      <trkpt lat="41.844340" lon="2.034748">
        <ele>609.6</ele>
        <time>2011-08-19T14:41:16Z</time>
      </trkpt>
      <trkpt lat="41.844366" lon="2.034857">
        <ele>609.9</ele>
        <time>2011-08-19T14:41:16Z</time>
      </trkpt>
      <trkpt lat="41.844384" lon="2.035034">
        <ele>608.4</ele>
        <time>2011-08-19T14:41:16Z</time>
      </trkpt>
      <trkpt lat="41.844434" lon="2.035162">
        <ele>608.3</ele>
        <time>2011-08-19T14:41:16Z</time>
      </trkpt>
      <trkpt lat="41.844511" lon="2.035303">
        <ele>608.4</ele>
        <time>2011-08-19T14:41:16Z</time>
      </trkpt>
      <trkpt lat="41.844579" lon="2.035431">
        <ele>607.9</ele>
        <time>2011-08-19T14:41:16Z</time>
      </trkpt>
      <trkpt lat="41.844635" lon="2.035528">
        <ele>607.8</ele>
        <time>2011-08-19T14:41:16Z</time>
      </trkpt>
      <trkpt lat="41.844687" lon="2.035647">
        <ele>607.6</ele>
        <time>2011-08-19T14:41:16Z</time>
      </trkpt>
      <trkpt lat="41.844717" lon="2.035797">
        <ele>606.4</ele>
        <time>2011-08-19T14:41:16Z</time>
      </trkpt>
      <trkpt lat="41.844718" lon="2.035918">
        <ele>604.8</ele>
        <time>2011-08-19T14:41:16Z</time>
      </trkpt>
      <trkpt lat="41.844726" lon="2.036095">
        <ele>603.9</ele>
        <time>2011-08-19T14:41:16Z</time>
      </trkpt>
      <trkpt lat="41.844738" lon="2.036190">
        <ele>603.6</ele>
        <time>2011-08-19T14:41:16Z</time>
      </trkpt>
      <trkpt lat="41.844775" lon="2.036265">
        <ele>603.5</ele>
        <time>2011-08-19T14:41:16Z</time>
      </trkpt>
      <trkpt lat="41.844832" lon="2.036369">
        <ele>603.5</ele>
        <time>2011-08-19T14:41:16Z</time>
      </trkpt>
      <trkpt lat="41.844883" lon="2.036462">
        <ele>603.6</ele>
        <time>2011-08-19T14:41:16Z</time>
      </trkpt>
      <trkpt lat="41.844946" lon="2.036560">
        <ele>604.4</ele>
        <time>2011-08-19T14:41:16Z</time>
      </trkpt>
      <trkpt lat="41.845029" lon="2.036680">
        <ele>605.1</ele>
        <time>2011-08-19T14:41:16Z</time>
      </trkpt>
      <trkpt lat="41.845092" lon="2.036791">
        <ele>605.2</ele>
        <time>2011-08-19T14:41:16Z</time>
      </trkpt>
      <trkpt lat="41.845157" lon="2.036906">
        <ele>605.0</ele>
        <time>2011-08-19T14:41:16Z</time>
      </trkpt>
      <trkpt lat="41.845236" lon="2.037001">
        <ele>605.3</ele>
        <time>2011-08-19T14:41:16Z</time>
      </trkpt>
      <trkpt lat="41.845335" lon="2.037117">
        <ele>605.8</ele>
        <time>2011-08-19T14:41:16Z</time>
      </trkpt>
      <trkpt lat="41.845394" lon="2.037205">
        <ele>605.6</ele>
        <time>2011-08-19T14:41:16Z</time>
      </trkpt>
      <trkpt lat="41.845481" lon="2.037306">
        <ele>605.6</ele>
        <time>2011-08-19T14:41:16Z</time>
      </trkpt>
      <trkpt lat="41.845538" lon="2.037367">
        <ele>605.7</ele>
        <time>2011-08-19T14:41:16Z</time>
      </trkpt>
      <trkpt lat="41.845611" lon="2.037414">
        <ele>606.5</ele>
        <time>2011-08-19T14:41:16Z</time>
      </trkpt>
      <trkpt lat="41.845681" lon="2.037474">
        <ele>606.9</ele>
        <time>2011-08-19T14:41:16Z</time>
      </trkpt>
      <trkpt lat="41.845752" lon="2.037522">
        <ele>607.2</ele>
        <time>2011-08-19T14:41:16Z</time>
      </trkpt>
      <trkpt lat="41.845822" lon="2.037566">
        <ele>607.4</ele>
        <time>2011-08-19T14:41:16Z</time>
      </trkpt>
      <trkpt lat="41.845897" lon="2.037608">
        <ele>607.4</ele>
        <time>2011-08-19T14:41:16Z</time>
      </trkpt>
      <trkpt lat="41.846003" lon="2.037647">
        <ele>607.5</ele>
        <time>2011-08-19T14:41:16Z</time>
      </trkpt>
      <trkpt lat="41.846086" lon="2.037678">
        <ele>607.6</ele>
        <time>2011-08-19T14:41:16Z</time>
      </trkpt>
      <trkpt lat="41.846171" lon="2.037735">
        <ele>607.5</ele>
        <time>2011-08-19T14:41:16Z</time>
      </trkpt>
      <trkpt lat="41.846268" lon="2.037795">
        <ele>608.1</ele>
        <time>2011-08-19T14:41:16Z</time>
      </trkpt>
      <trkpt lat="41.846360" lon="2.037866">
        <ele>608.5</ele>
        <time>2011-08-19T14:41:16Z</time>
      </trkpt>
      <trkpt lat="41.846445" lon="2.037938">
        <ele>608.7</ele>
        <time>2011-08-19T14:41:16Z</time>
      </trkpt>
      <trkpt lat="41.846530" lon="2.038009">
        <ele>608.6</ele>
        <time>2011-08-19T14:41:16Z</time>
      </trkpt>
      <trkpt lat="41.846623" lon="2.038085">
        <ele>608.4</ele>
        <time>2011-08-19T14:41:16Z</time>
      </trkpt>
      <trkpt lat="41.846716" lon="2.038164">
        <ele>608.3</ele>
        <time>2011-08-19T14:41:16Z</time>
      </trkpt>
      <trkpt lat="41.846821" lon="2.038243">
        <ele>608.3</ele>
        <time>2011-08-19T14:41:16Z</time>
      </trkpt>
      <trkpt lat="41.846914" lon="2.038327">
        <ele>608.5</ele>
        <time>2011-08-19T14:41:16Z</time>
      </trkpt>
      <trkpt lat="41.847002" lon="2.038396">
        <ele>608.8</ele>
        <time>2011-08-19T14:41:16Z</time>
      </trkpt>
      <trkpt lat="41.847099" lon="2.038475">
        <ele>609.0</ele>
        <time>2011-08-19T14:41:16Z</time>
      </trkpt>
      <trkpt lat="41.847172" lon="2.038536">
        <ele>609.1</ele>
        <time>2011-08-19T14:41:16Z</time>
      </trkpt>
      <trkpt lat="41.847257" lon="2.038607">
        <ele>609.2</ele>
        <time>2011-08-19T14:41:16Z</time>
      </trkpt>
      <trkpt lat="41.847344" lon="2.038683">
        <ele>609.4</ele>
        <time>2011-08-19T14:41:16Z</time>
      </trkpt>
      <trkpt lat="41.847408" lon="2.038752">
        <ele>609.7</ele>
        <time>2011-08-19T14:41:16Z</time>
      </trkpt>
      <trkpt lat="41.847483" lon="2.038837">
        <ele>610.1</ele>
        <time>2011-08-19T14:41:16Z</time>
      </trkpt>
      <trkpt lat="41.847540" lon="2.038916">
        <ele>610.6</ele>
        <time>2011-08-19T14:41:16Z</time>
      </trkpt>
      <trkpt lat="41.847601" lon="2.039049">
        <ele>611.0</ele>
        <time>2011-08-19T14:41:16Z</time>
      </trkpt>
      <trkpt lat="41.847635" lon="2.039237">
        <ele>611.2</ele>
        <time>2011-08-19T14:41:16Z</time>
      </trkpt>
      <trkpt lat="41.847648" lon="2.039346">
        <ele>611.3</ele>
        <time>2011-08-19T14:41:16Z</time>
      </trkpt>
      <trkpt lat="41.847663" lon="2.039502">
        <ele>611.4</ele>
        <time>2011-08-19T14:41:16Z</time>
      </trkpt>
      <trkpt lat="41.847670" lon="2.039622">
        <ele>612.1</ele>
        <time>2011-08-19T14:41:16Z</time>
      </trkpt>
      <trkpt lat="41.847663" lon="2.039740">
        <ele>612.5</ele>
        <time>2011-08-19T14:41:16Z</time>
      </trkpt>
      <trkpt lat="41.847626" lon="2.039838">
        <ele>612.3</ele>
        <time>2011-08-19T14:41:16Z</time>
      </trkpt>
      <trkpt lat="41.847562" lon="2.039900">
        <ele>612.4</ele>
        <time>2011-08-19T14:41:16Z</time>
      </trkpt>
      <trkpt lat="41.847470" lon="2.039928">
        <ele>612.2</ele>
        <time>2011-08-19T14:41:16Z</time>
      </trkpt>
      <trkpt lat="41.847382" lon="2.039935">
        <ele>611.5</ele>
        <time>2011-08-19T14:41:16Z</time>
      </trkpt>
      <trkpt lat="41.847298" lon="2.039950">
        <ele>611.1</ele>
        <time>2011-08-19T14:41:16Z</time>
      </trkpt>
      <trkpt lat="41.847238" lon="2.039983">
        <ele>611.0</ele>
        <time>2011-08-19T14:41:16Z</time>
      </trkpt>
      <trkpt lat="41.847166" lon="2.040027">
        <ele>610.9</ele>
        <time>2011-08-19T14:41:16Z</time>
      </trkpt>
      <trkpt lat="41.847119" lon="2.040073">
        <ele>610.7</ele>
        <time>2011-08-19T14:41:16Z</time>
      </trkpt>
      <trkpt lat="41.847051" lon="2.040155">
        <ele>610.4</ele>
        <time>2011-08-19T14:41:16Z</time>
      </trkpt>
      <trkpt lat="41.846970" lon="2.040231">
        <ele>610.2</ele>
        <time>2011-08-19T14:41:16Z</time>
      </trkpt>
      <trkpt lat="41.846908" lon="2.040264">
        <ele>610.3</ele>
        <time>2011-08-19T14:41:16Z</time>
      </trkpt>
      <trkpt lat="41.846818" lon="2.040306">
        <ele>610.1</ele>
        <time>2011-08-19T14:41:16Z</time>
      </trkpt>
      <trkpt lat="41.846742" lon="2.040350">
        <ele>610.2</ele>
        <time>2011-08-19T14:41:16Z</time>
      </trkpt>
      <trkpt lat="41.846690" lon="2.040388">
        <ele>610.3</ele>
        <time>2011-08-19T14:41:16Z</time>
      </trkpt>
      <trkpt lat="41.846616" lon="2.040421">
        <ele>610.1</ele>
        <time>2011-08-19T14:41:16Z</time>
      </trkpt>
      <trkpt lat="41.846551" lon="2.040497">
        <ele>610.3</ele>
        <time>2011-08-19T14:41:16Z</time>
      </trkpt>
      <trkpt lat="41.846493" lon="2.040536">
        <ele>610.2</ele>
        <time>2011-08-19T14:41:16Z</time>
      </trkpt>
      <trkpt lat="41.846395" lon="2.040585">
        <ele>609.8</ele>
        <time>2011-08-19T14:41:16Z</time>
      </trkpt>
      <trkpt lat="41.846293" lon="2.040641">
        <ele>609.9</ele>
        <time>2011-08-19T14:41:16Z</time>
      </trkpt>
      <trkpt lat="41.846201" lon="2.040671">
        <ele>610.4</ele>
        <time>2011-08-19T14:41:16Z</time>
      </trkpt>
      <trkpt lat="41.846107" lon="2.040694">
        <ele>611.1</ele>
        <time>2011-08-19T14:41:16Z</time>
      </trkpt>
      <trkpt lat="41.846027" lon="2.040709">
        <ele>611.5</ele>
        <time>2011-08-19T14:41:16Z</time>
      </trkpt>
      <trkpt lat="41.845921" lon="2.040724">
        <ele>612.4</ele>
        <time>2011-08-19T14:41:16Z</time>
      </trkpt>
      <trkpt lat="41.845841" lon="2.040749">
        <ele>613.5</ele>
        <time>2011-08-19T14:41:16Z</time>
      </trkpt>
      <trkpt lat="41.845755" lon="2.040745">
        <ele>614.0</ele>
        <time>2011-08-19T14:41:16Z</time>
      </trkpt>
      <trkpt lat="41.845685" lon="2.040762">
        <ele>614.4</ele>
        <time>2011-08-19T14:41:16Z</time>
      </trkpt>
      <trkpt lat="41.845601" lon="2.040804">
        <ele>614.7</ele>
        <time>2011-08-19T14:41:16Z</time>
      </trkpt>
      <trkpt lat="41.845537" lon="2.040861">
        <ele>615.2</ele>
        <time>2011-08-19T14:41:16Z</time>
      </trkpt>
      <trkpt lat="41.845499" lon="2.040902">
        <ele>615.4</ele>
        <time>2011-08-19T14:41:16Z</time>
      </trkpt>
      <trkpt lat="41.845458" lon="2.040983">
        <ele>616.1</ele>
        <time>2011-08-19T14:41:16Z</time>
      </trkpt>
      <trkpt lat="41.845435" lon="2.041080">
        <ele>617.1</ele>
        <time>2011-08-19T14:41:16Z</time>
      </trkpt>
      <trkpt lat="41.845424" lon="2.041214">
        <ele>618.5</ele>
        <time>2011-08-19T14:41:16Z</time>
      </trkpt>
      <trkpt lat="41.845425" lon="2.041321">
        <ele>619.9</ele>
        <time>2011-08-19T14:41:16Z</time>
      </trkpt>
      <trkpt lat="41.845442" lon="2.041452">
        <ele>620.0</ele>
        <time>2011-08-19T14:41:16Z</time>
      </trkpt>
      <trkpt lat="41.845469" lon="2.041575">
        <ele>620.0</ele>
        <time>2011-08-19T14:41:16Z</time>
      </trkpt>
      <trkpt lat="41.845556" lon="2.041703">
        <ele>622.2</ele>
        <time>2011-08-19T14:41:16Z</time>
      </trkpt>
      <trkpt lat="41.845609" lon="2.041828">
        <ele>621.1</ele>
        <time>2011-08-19T14:41:16Z</time>
      </trkpt>
      <trkpt lat="41.845670" lon="2.041940">
        <ele>620.3</ele>
        <time>2011-08-19T14:41:16Z</time>
      </trkpt>
      <trkpt lat="41.845719" lon="2.042014">
        <ele>619.8</ele>
        <time>2011-08-19T14:41:16Z</time>
      </trkpt>
      <trkpt lat="41.845798" lon="2.042115">
        <ele>619.9</ele>
        <time>2011-08-19T14:41:16Z</time>
      </trkpt>
      <trkpt lat="41.845857" lon="2.042227">
        <ele>618.9</ele>
        <time>2011-08-19T14:41:16Z</time>
      </trkpt>
      <trkpt lat="41.845900" lon="2.042339">
        <ele>617.1</ele>
        <time>2011-08-19T14:41:16Z</time>
      </trkpt>
      <trkpt lat="41.845952" lon="2.042472">
        <ele>615.2</ele>
        <time>2011-08-19T14:41:16Z</time>
      </trkpt>
      <trkpt lat="41.845993" lon="2.042616">
        <ele>613.2</ele>
        <time>2011-08-19T14:41:16Z</time>
      </trkpt>
      <trkpt lat="41.846024" lon="2.042758">
        <ele>610.9</ele>
        <time>2011-08-19T14:41:16Z</time>
      </trkpt>
      <trkpt lat="41.846043" lon="2.042892">
        <ele>609.4</ele>
        <time>2011-08-19T14:41:16Z</time>
      </trkpt>
      <trkpt lat="41.846052" lon="2.043012">
        <ele>607.8</ele>
        <time>2011-08-19T14:41:16Z</time>
      </trkpt>
      <trkpt lat="41.846063" lon="2.043114">
        <ele>606.5</ele>
        <time>2011-08-19T14:41:16Z</time>
      </trkpt>
      <trkpt lat="41.846064" lon="2.043229">
        <ele>605.5</ele>
        <time>2011-08-19T14:41:16Z</time>
      </trkpt>
      <trkpt lat="41.846061" lon="2.043369">
        <ele>604.4</ele>
        <time>2011-08-19T14:41:16Z</time>
      </trkpt>
      <trkpt lat="41.846072" lon="2.043479">
        <ele>603.8</ele>
        <time>2011-08-19T14:41:16Z</time>
      </trkpt>
      <trkpt lat="41.846081" lon="2.043597">
        <ele>602.9</ele>
        <time>2011-08-19T14:41:16Z</time>
      </trkpt>
      <trkpt lat="41.846078" lon="2.043672">
        <ele>602.1</ele>
        <time>2011-08-19T14:41:16Z</time>
      </trkpt>
      <trkpt lat="41.846045" lon="2.043771">
        <ele>601.0</ele>
        <time>2011-08-19T14:41:16Z</time>
      </trkpt>
      <trkpt lat="41.845989" lon="2.043826">
        <ele>600.3</ele>
        <time>2011-08-19T14:41:16Z</time>
      </trkpt>
      <trkpt lat="41.845915" lon="2.043891">
        <ele>599.9</ele>
        <time>2011-08-19T14:41:16Z</time>
      </trkpt>
      <trkpt lat="41.845852" lon="2.043943">
        <ele>599.7</ele>
        <time>2011-08-19T14:41:16Z</time>
      </trkpt>
      <trkpt lat="41.845760" lon="2.043998">
        <ele>599.6</ele>
        <time>2011-08-19T14:41:16Z</time>
      </trkpt>
      <trkpt lat="41.845682" lon="2.044042">
        <ele>599.5</ele>
        <time>2011-08-19T14:41:16Z</time>
      </trkpt>
      <trkpt lat="41.845612" lon="2.044083">
        <ele>599.4</ele>
        <time>2011-08-19T14:41:16Z</time>
      </trkpt>
      <trkpt lat="41.845546" lon="2.044119">
        <ele>599.3</ele>
        <time>2011-08-19T14:41:16Z</time>
      </trkpt>
      <trkpt lat="41.845476" lon="2.044174">
        <ele>599.2</ele>
        <time>2011-08-19T14:41:16Z</time>
      </trkpt>
      <trkpt lat="41.845387" lon="2.044231">
        <ele>599.0</ele>
        <time>2011-08-19T14:41:16Z</time>
      </trkpt>
      <trkpt lat="41.845335" lon="2.044286">
        <ele>598.9</ele>
        <time>2011-08-19T14:41:16Z</time>
      </trkpt>
      <trkpt lat="41.845277" lon="2.044350">
        <ele>598.7</ele>
        <time>2011-08-19T14:41:16Z</time>
      </trkpt>
      <trkpt lat="41.845210" lon="2.044416">
        <ele>598.5</ele>
        <time>2011-08-19T14:41:16Z</time>
      </trkpt>
      <trkpt lat="41.845146" lon="2.044495">
        <ele>598.7</ele>
        <time>2011-08-19T14:41:16Z</time>
      </trkpt>
      <trkpt lat="41.845098" lon="2.044584">
        <ele>598.9</ele>
        <time>2011-08-19T14:41:16Z</time>
      </trkpt>
      <trkpt lat="41.845062" lon="2.044658">
        <ele>598.7</ele>
        <time>2011-08-19T14:41:16Z</time>
      </trkpt>
      <trkpt lat="41.845026" lon="2.044755">
        <ele>598.3</ele>
        <time>2011-08-19T14:41:16Z</time>
      </trkpt>
      <trkpt lat="41.844991" lon="2.044857">
        <ele>597.7</ele>
        <time>2011-08-19T14:41:16Z</time>
      </trkpt>
      <trkpt lat="41.844963" lon="2.044935">
        <ele>597.2</ele>
        <time>2011-08-19T14:41:16Z</time>
      </trkpt>
      <trkpt lat="41.844929" lon="2.045040">
        <ele>597.1</ele>
        <time>2011-08-19T14:41:16Z</time>
      </trkpt>
      <trkpt lat="41.844902" lon="2.045168">
        <ele>597.2</ele>
        <time>2011-08-19T14:41:16Z</time>
      </trkpt>
      <trkpt lat="41.844880" lon="2.045260">
        <ele>597.2</ele>
        <time>2011-08-19T14:41:16Z</time>
      </trkpt>
      <trkpt lat="41.844857" lon="2.045356">
        <ele>597.2</ele>
        <time>2011-08-19T14:41:16Z</time>
      </trkpt>
      <trkpt lat="41.844821" lon="2.045492">
        <ele>597.2</ele>
        <time>2011-08-19T14:41:16Z</time>
      </trkpt>
      <trkpt lat="41.844793" lon="2.045548">
        <ele>597.6</ele>
        <time>2011-08-19T14:41:16Z</time>
      </trkpt>
      <trkpt lat="41.844750" lon="2.045637">
        <ele>597.9</ele>
        <time>2011-08-19T14:41:16Z</time>
      </trkpt>
      <trkpt lat="41.844710" lon="2.045734">
        <ele>598.0</ele>
        <time>2011-08-19T14:41:16Z</time>
      </trkpt>
      <trkpt lat="41.844676" lon="2.045797">
        <ele>598.3</ele>
        <time>2011-08-19T14:41:16Z</time>
      </trkpt>
      <trkpt lat="41.844632" lon="2.045878">
        <ele>598.5</ele>
        <time>2011-08-19T14:41:16Z</time>
      </trkpt>
      <trkpt lat="41.844593" lon="2.045954">
        <ele>598.6</ele>
        <time>2011-08-19T14:41:16Z</time>
      </trkpt>
      <trkpt lat="41.844557" lon="2.046028">
        <ele>598.6</ele>
        <time>2011-08-19T14:41:16Z</time>
      </trkpt>
      <trkpt lat="41.844513" lon="2.046112">
        <ele>598.4</ele>
        <time>2011-08-19T14:41:16Z</time>
      </trkpt>
      <trkpt lat="41.844459" lon="2.046173">
        <ele>598.6</ele>
        <time>2011-08-19T14:41:16Z</time>
      </trkpt>
      <trkpt lat="41.844403" lon="2.046249">
        <ele>598.5</ele>
        <time>2011-08-19T14:41:16Z</time>
      </trkpt>
      <trkpt lat="41.844360" lon="2.046302">
        <ele>598.3</ele>
        <time>2011-08-19T14:41:16Z</time>
      </trkpt>
      <trkpt lat="41.844320" lon="2.046401">
        <ele>597.7</ele>
        <time>2011-08-19T14:41:16Z</time>
      </trkpt>
      <trkpt lat="41.844290" lon="2.046490">
        <ele>598.0</ele>
        <time>2011-08-19T14:41:16Z</time>
      </trkpt>
      <trkpt lat="41.844264" lon="2.046637">
        <ele>598.7</ele>
        <time>2011-08-19T14:41:16Z</time>
      </trkpt>
      <trkpt lat="41.844271" lon="2.046782">
        <ele>598.8</ele>
        <time>2011-08-19T14:41:16Z</time>
      </trkpt>
      <trkpt lat="41.844276" lon="2.046954">
        <ele>599.6</ele>
        <time>2011-08-19T14:41:16Z</time>
      </trkpt>
      <trkpt lat="41.844291" lon="2.047082">
        <ele>600.2</ele>
        <time>2011-08-19T14:41:16Z</time>
      </trkpt>
      <trkpt lat="41.844296" lon="2.047240">
        <ele>600.9</ele>
        <time>2011-08-19T14:41:16Z</time>
      </trkpt>
      <trkpt lat="41.844282" lon="2.047402">
        <ele>601.7</ele>
        <time>2011-08-19T14:41:16Z</time>
      </trkpt>
      <trkpt lat="41.844254" lon="2.047575">
        <ele>602.9</ele>
        <time>2011-08-19T14:41:16Z</time>
      </trkpt>
      <trkpt lat="41.844223" lon="2.047742">
        <ele>604.5</ele>
        <time>2011-08-19T14:41:16Z</time>
      </trkpt>
      <trkpt lat="41.844173" lon="2.047891">
        <ele>606.0</ele>
        <time>2011-08-19T14:41:16Z</time>
      </trkpt>
      <trkpt lat="41.844112" lon="2.048012">
        <ele>607.7</ele>
        <time>2011-08-19T14:41:16Z</time>
      </trkpt>
      <trkpt lat="41.844058" lon="2.048119">
        <ele>609.3</ele>
        <time>2011-08-19T14:41:16Z</time>
      </trkpt>
      <trkpt lat="41.844030" lon="2.048211">
        <ele>610.4</ele>
        <time>2011-08-19T14:41:16Z</time>
      </trkpt>
      <trkpt lat="41.843999" lon="2.048313">
        <ele>611.2</ele>
        <time>2011-08-19T14:41:16Z</time>
      </trkpt>
      <trkpt lat="41.843981" lon="2.048407">
        <ele>611.7</ele>
        <time>2011-08-19T14:41:16Z</time>
      </trkpt>
      <trkpt lat="41.843964" lon="2.048499">
        <ele>612.1</ele>
        <time>2011-08-19T14:41:16Z</time>
      </trkpt>
      <trkpt lat="41.843931" lon="2.048601">
        <ele>612.6</ele>
        <time>2011-08-19T14:41:16Z</time>
      </trkpt>
      <trkpt lat="41.843882" lon="2.048667">
        <ele>612.9</ele>
        <time>2011-08-19T14:41:16Z</time>
      </trkpt>
      <trkpt lat="41.843822" lon="2.048774">
        <ele>613.0</ele>
        <time>2011-08-19T14:41:16Z</time>
      </trkpt>
      <trkpt lat="41.843781" lon="2.048819">
        <ele>613.0</ele>
        <time>2011-08-19T14:41:16Z</time>
      </trkpt>
      <trkpt lat="41.843726" lon="2.048919">
        <ele>612.2</ele>
        <time>2011-08-19T14:41:16Z</time>
      </trkpt>
      <trkpt lat="41.843680" lon="2.048993">
        <ele>611.2</ele>
        <time>2011-08-19T14:41:16Z</time>
      </trkpt>
      <trkpt lat="41.843624" lon="2.049077">
        <ele>609.8</ele>
        <time>2011-08-19T14:41:16Z</time>
      </trkpt>
      <trkpt lat="41.843570" lon="2.049135">
        <ele>609.5</ele>
        <time>2011-08-19T14:41:16Z</time>
      </trkpt>
      <trkpt lat="41.843512" lon="2.049206">
        <ele>608.8</ele>
        <time>2011-08-19T14:41:16Z</time>
      </trkpt>
      <trkpt lat="41.843441" lon="2.049296">
        <ele>607.7</ele>
        <time>2011-08-19T14:41:16Z</time>
      </trkpt>
      <trkpt lat="41.843367" lon="2.049378">
        <ele>606.7</ele>
        <time>2011-08-19T14:41:16Z</time>
      </trkpt>
      <trkpt lat="41.843335" lon="2.049441">
        <ele>606.1</ele>
        <time>2011-08-19T14:41:16Z</time>
      </trkpt>
      <trkpt lat="41.843296" lon="2.049548">
        <ele>604.5</ele>
        <time>2011-08-19T14:41:16Z</time>
      </trkpt>
      <trkpt lat="41.843266" lon="2.049629">
        <ele>603.2</ele>
        <time>2011-08-19T14:41:16Z</time>
      </trkpt>
      <trkpt lat="41.843226" lon="2.049690">
        <ele>602.5</ele>
        <time>2011-08-19T14:41:16Z</time>
      </trkpt>
      <trkpt lat="41.843154" lon="2.049779">
        <ele>600.9</ele>
        <time>2011-08-19T14:41:16Z</time>
      </trkpt>
      <trkpt lat="41.843114" lon="2.049822">
        <ele>600.0</ele>
        <time>2011-08-19T14:41:16Z</time>
      </trkpt>
      <trkpt lat="41.843042" lon="2.049888">
        <ele>599.4</ele>
        <time>2011-08-19T14:41:16Z</time>
      </trkpt>
      <trkpt lat="41.842961" lon="2.049965">
        <ele>599.1</ele>
        <time>2011-08-19T14:41:16Z</time>
      </trkpt>
      <trkpt lat="41.842887" lon="2.050018">
        <ele>599.4</ele>
        <time>2011-08-19T14:41:16Z</time>
      </trkpt>
      <trkpt lat="41.842826" lon="2.050065">
        <ele>599.8</ele>
        <time>2011-08-19T14:41:16Z</time>
      </trkpt>
      <trkpt lat="41.842775" lon="2.050126">
        <ele>600.7</ele>
        <time>2011-08-19T14:41:16Z</time>
      </trkpt>
      <trkpt lat="41.842739" lon="2.050202">
        <ele>600.5</ele>
        <time>2011-08-19T14:41:16Z</time>
      </trkpt>
      <trkpt lat="41.842705" lon="2.050276">
        <ele>600.3</ele>
        <time>2011-08-19T14:41:16Z</time>
      </trkpt>
      <trkpt lat="41.842661" lon="2.050407">
        <ele>598.8</ele>
        <time>2011-08-19T14:41:16Z</time>
      </trkpt>
      <trkpt lat="41.842635" lon="2.050558">
        <ele>597.1</ele>
        <time>2011-08-19T14:41:16Z</time>
      </trkpt>
      <trkpt lat="41.842620" lon="2.050712">
        <ele>594.6</ele>
        <time>2011-08-19T14:41:16Z</time>
      </trkpt>
      <trkpt lat="41.842604" lon="2.050892">
        <ele>592.0</ele>
        <time>2011-08-19T14:41:16Z</time>
      </trkpt>
      <trkpt lat="41.842578" lon="2.051046">
        <ele>590.3</ele>
        <time>2011-08-19T14:41:16Z</time>
      </trkpt>
      <trkpt lat="41.842535" lon="2.051247">
        <ele>589.1</ele>
        <time>2011-08-19T14:41:16Z</time>
      </trkpt>
      <trkpt lat="41.842519" lon="2.051414">
        <ele>587.5</ele>
        <time>2011-08-19T14:41:16Z</time>
      </trkpt>
      <trkpt lat="41.842524" lon="2.051557">
        <ele>585.4</ele>
        <time>2011-08-19T14:41:16Z</time>
      </trkpt>
      <trkpt lat="41.842531" lon="2.051667">
        <ele>583.8</ele>
        <time>2011-08-19T14:41:16Z</time>
      </trkpt>
      <trkpt lat="41.842495" lon="2.051761">
        <ele>583.4</ele>
        <time>2011-08-19T14:41:16Z</time>
      </trkpt>
      <trkpt lat="41.842465" lon="2.051897">
        <ele>582.5</ele>
        <time>2011-08-19T14:41:16Z</time>
      </trkpt>
      <trkpt lat="41.842434" lon="2.052022">
        <ele>581.9</ele>
        <time>2011-08-19T14:41:16Z</time>
      </trkpt>
      <trkpt lat="41.842400" lon="2.052135">
        <ele>581.6</ele>
        <time>2011-08-19T14:41:16Z</time>
      </trkpt>
      <trkpt lat="41.842372" lon="2.052266">
        <ele>580.6</ele>
        <time>2011-08-19T14:41:16Z</time>
      </trkpt>
      <trkpt lat="41.842342" lon="2.052344">
        <ele>580.1</ele>
        <time>2011-08-19T14:41:16Z</time>
      </trkpt>
      <trkpt lat="41.842311" lon="2.052413">
        <ele>579.8</ele>
        <time>2011-08-19T14:41:16Z</time>
      </trkpt>
      <trkpt lat="41.842259" lon="2.052512">
        <ele>579.6</ele>
        <time>2011-08-19T14:41:16Z</time>
      </trkpt>
      <trkpt lat="41.842208" lon="2.052628">
        <ele>578.7</ele>
        <time>2011-08-19T14:41:16Z</time>
      </trkpt>
      <trkpt lat="41.842168" lon="2.052782">
        <ele>575.7</ele>
        <time>2011-08-19T14:41:16Z</time>
      </trkpt>
      <trkpt lat="41.842116" lon="2.052879">
        <ele>574.7</ele>
        <time>2011-08-19T14:41:16Z</time>
      </trkpt>
      <trkpt lat="41.842058" lon="2.052950">
        <ele>574.6</ele>
        <time>2011-08-19T14:41:16Z</time>
      </trkpt>
      <trkpt lat="41.841981" lon="2.053017">
        <ele>573.9</ele>
        <time>2011-08-19T14:41:16Z</time>
      </trkpt>
      <trkpt lat="41.841921" lon="2.053083">
        <ele>572.6</ele>
        <time>2011-08-19T14:41:16Z</time>
      </trkpt>
      <trkpt lat="41.841840" lon="2.053178">
        <ele>570.4</ele>
        <time>2011-08-19T14:41:16Z</time>
      </trkpt>
      <trkpt lat="41.841788" lon="2.053236">
        <ele>569.1</ele>
        <time>2011-08-19T14:41:16Z</time>
      </trkpt>
      <trkpt lat="41.841726" lon="2.053302">
        <ele>567.5</ele>
        <time>2011-08-19T14:41:16Z</time>
      </trkpt>
      <trkpt lat="41.841663" lon="2.053370">
        <ele>565.7</ele>
        <time>2011-08-19T14:41:16Z</time>
      </trkpt>
      <trkpt lat="41.841607" lon="2.053428">
        <ele>564.5</ele>
        <time>2011-08-19T14:41:16Z</time>
      </trkpt>
      <trkpt lat="41.841552" lon="2.053476">
        <ele>563.9</ele>
        <time>2011-08-19T14:41:16Z</time>
      </trkpt>
      <trkpt lat="41.841471" lon="2.053558">
        <ele>562.5</ele>
        <time>2011-08-19T14:41:16Z</time>
      </trkpt>
      <trkpt lat="41.841409" lon="2.053619">
        <ele>561.0</ele>
        <time>2011-08-19T14:41:16Z</time>
      </trkpt>
      <trkpt lat="41.841351" lon="2.053656">
        <ele>560.2</ele>
        <time>2011-08-19T14:41:16Z</time>
      </trkpt>
      <trkpt lat="41.841264" lon="2.053684">
        <ele>560.0</ele>
        <time>2011-08-19T14:41:16Z</time>
      </trkpt>
      <trkpt lat="41.841153" lon="2.053680">
        <ele>558.8</ele>
        <time>2011-08-19T14:41:16Z</time>
      </trkpt>
      <trkpt lat="41.841014" lon="2.053612">
        <ele>558.6</ele>
        <time>2011-08-19T14:41:16Z</time>
      </trkpt>
      <trkpt lat="41.840922" lon="2.053561">
        <ele>558.2</ele>
        <time>2011-08-19T14:41:16Z</time>
      </trkpt>
      <trkpt lat="41.840836" lon="2.053492">
        <ele>558.0</ele>
        <time>2011-08-19T14:41:16Z</time>
      </trkpt>
      <trkpt lat="41.840759" lon="2.053457">
        <ele>556.9</ele>
        <time>2011-08-19T14:41:16Z</time>
      </trkpt>
      <trkpt lat="41.840706" lon="2.053429">
        <ele>556.3</ele>
        <time>2011-08-19T14:41:16Z</time>
      </trkpt>
      <trkpt lat="41.840622" lon="2.053386">
        <ele>555.4</ele>
        <time>2011-08-19T14:41:16Z</time>
      </trkpt>
      <trkpt lat="41.840533" lon="2.053358">
        <ele>553.7</ele>
        <time>2011-08-19T14:41:16Z</time>
      </trkpt>
      <trkpt lat="41.840455" lon="2.053336">
        <ele>552.1</ele>
        <time>2011-08-19T14:41:16Z</time>
      </trkpt>
      <trkpt lat="41.840380" lon="2.053301">
        <ele>550.9</ele>
        <time>2011-08-19T14:41:16Z</time>
      </trkpt>
      <trkpt lat="41.840312" lon="2.053257">
        <ele>549.8</ele>
        <time>2011-08-19T14:41:16Z</time>
      </trkpt>
      <trkpt lat="41.840271" lon="2.053279">
        <ele>548.0</ele>
        <time>2011-08-19T14:41:16Z</time>
      </trkpt>
      <trkpt lat="41.840258" lon="2.053334">
        <ele>546.3</ele>
        <time>2011-08-19T14:41:16Z</time>
      </trkpt>
      <trkpt lat="41.840315" lon="2.053411">
        <ele>546.1</ele>
        <time>2011-08-19T14:41:16Z</time>
      </trkpt>
      <trkpt lat="41.840374" lon="2.053486">
        <ele>545.7</ele>
        <time>2011-08-19T14:41:16Z</time>
      </trkpt>
      <trkpt lat="41.840425" lon="2.053548">
        <ele>545.3</ele>
        <time>2011-08-19T14:41:16Z</time>
      </trkpt>
      <trkpt lat="41.840467" lon="2.053620">
        <ele>544.2</ele>
        <time>2011-08-19T14:41:16Z</time>
      </trkpt>
      <trkpt lat="41.840481" lon="2.053739">
        <ele>541.3</ele>
        <time>2011-08-19T14:41:16Z</time>
      </trkpt>
      <trkpt lat="41.840455" lon="2.053878">
        <ele>537.7</ele>
        <time>2011-08-19T14:41:16Z</time>
      </trkpt>
      <trkpt lat="41.840411" lon="2.053936">
        <ele>536.3</ele>
        <time>2011-08-19T14:41:16Z</time>
      </trkpt>
      <trkpt lat="41.840306" lon="2.053995">
        <ele>534.6</ele>
        <time>2011-08-19T14:41:16Z</time>
      </trkpt>
      <trkpt lat="41.840210" lon="2.053973">
        <ele>534.2</ele>
        <time>2011-08-19T14:41:16Z</time>
      </trkpt>
      <trkpt lat="41.840077" lon="2.053923">
        <ele>532.3</ele>
        <time>2011-08-19T14:41:16Z</time>
      </trkpt>
      <trkpt lat="41.839997" lon="2.053867">
        <ele>530.9</ele>
        <time>2011-08-19T14:41:16Z</time>
      </trkpt>
      <trkpt lat="41.839888" lon="2.053805">
        <ele>529.0</ele>
        <time>2011-08-19T14:41:16Z</time>
      </trkpt>
      <trkpt lat="41.839800" lon="2.053757">
        <ele>527.6</ele>
        <time>2011-08-19T14:41:16Z</time>
      </trkpt>
      <trkpt lat="41.839698" lon="2.053748">
        <ele>525.5</ele>
        <time>2011-08-19T14:41:16Z</time>
      </trkpt>
      <trkpt lat="41.839624" lon="2.053750">
        <ele>523.9</ele>
        <time>2011-08-19T14:41:16Z</time>
      </trkpt>
      <trkpt lat="41.839562" lon="2.053758">
        <ele>522.7</ele>
        <time>2011-08-19T14:41:16Z</time>
      </trkpt>
      <trkpt lat="41.839470" lon="2.053780">
        <ele>521.0</ele>
        <time>2011-08-19T14:41:16Z</time>
      </trkpt>
      <trkpt lat="41.839401" lon="2.053802">
        <ele>519.7</ele>
        <time>2011-08-19T14:41:16Z</time>
      </trkpt>
      <trkpt lat="41.839339" lon="2.053855">
        <ele>518.5</ele>
        <time>2011-08-19T14:41:16Z</time>
      </trkpt>
      <trkpt lat="41.839290" lon="2.053924">
        <ele>517.8</ele>
        <time>2011-08-19T14:41:16Z</time>
      </trkpt>
      <trkpt lat="41.839248" lon="2.054008">
        <ele>517.1</ele>
        <time>2011-08-19T14:41:16Z</time>
      </trkpt>
      <trkpt lat="41.839194" lon="2.054089">
        <ele>516.2</ele>
        <time>2011-08-19T14:41:16Z</time>
      </trkpt>
      <trkpt lat="41.839151" lon="2.054228">
        <ele>514.2</ele>
        <time>2011-08-19T14:41:16Z</time>
      </trkpt>
      <trkpt lat="41.839140" lon="2.054332">
        <ele>512.8</ele>
        <time>2011-08-19T14:41:16Z</time>
      </trkpt>
      <trkpt lat="41.839143" lon="2.054470">
        <ele>511.4</ele>
        <time>2011-08-19T14:41:16Z</time>
      </trkpt>
      <trkpt lat="41.839148" lon="2.054593">
        <ele>510.4</ele>
        <time>2011-08-19T14:41:16Z</time>
      </trkpt>
      <trkpt lat="41.839178" lon="2.054671">
        <ele>510.1</ele>
        <time>2011-08-19T14:41:16Z</time>
      </trkpt>
      <trkpt lat="41.839229" lon="2.054776">
        <ele>509.4</ele>
        <time>2011-08-19T14:41:16Z</time>
      </trkpt>
      <trkpt lat="41.839277" lon="2.054880">
        <ele>509.8</ele>
        <time>2011-08-19T14:41:16Z</time>
      </trkpt>
      <trkpt lat="41.839334" lon="2.054957">
        <ele>510.4</ele>
        <time>2011-08-19T14:41:16Z</time>
      </trkpt>
      <trkpt lat="41.839413" lon="2.055045">
        <ele>510.6</ele>
        <time>2011-08-19T14:41:16Z</time>
      </trkpt>
      <trkpt lat="41.839492" lon="2.055161">
        <ele>510.5</ele>
        <time>2011-08-19T14:41:16Z</time>
      </trkpt>
      <trkpt lat="41.839574" lon="2.055243">
        <ele>511.5</ele>
        <time>2011-08-19T14:41:16Z</time>
      </trkpt>
      <trkpt lat="41.839702" lon="2.055358">
        <ele>512.8</ele>
        <time>2011-08-19T14:41:16Z</time>
      </trkpt>
      <trkpt lat="41.839770" lon="2.055428">
        <ele>513.1</ele>
        <time>2011-08-19T14:41:16Z</time>
      </trkpt>
      <trkpt lat="41.839826" lon="2.055500">
        <ele>512.8</ele>
        <time>2011-08-19T14:41:16Z</time>
      </trkpt>
      <trkpt lat="41.839906" lon="2.055621">
        <ele>514.1</ele>
        <time>2011-08-19T14:41:16Z</time>
      </trkpt>
      <trkpt lat="41.839987" lon="2.055714">
        <ele>515.8</ele>
        <time>2011-08-19T14:41:16Z</time>
      </trkpt>
      <trkpt lat="41.840034" lon="2.055778">
        <ele>515.9</ele>
        <time>2011-08-19T14:41:16Z</time>
      </trkpt>
      <trkpt lat="41.840099" lon="2.055853">
        <ele>514.8</ele>
        <time>2011-08-19T14:41:16Z</time>
      </trkpt>
      <trkpt lat="41.840197" lon="2.055953">
        <ele>515.7</ele>
        <time>2011-08-19T14:41:16Z</time>
      </trkpt>
      <trkpt lat="41.840268" lon="2.056043">
        <ele>517.8</ele>
        <time>2011-08-19T14:41:16Z</time>
      </trkpt>
      <trkpt lat="41.840358" lon="2.056117">
        <ele>517.4</ele>
        <time>2011-08-19T14:41:16Z</time>
      </trkpt>
      <trkpt lat="41.840453" lon="2.056189">
        <ele>514.8</ele>
        <time>2011-08-19T14:41:16Z</time>
      </trkpt>
      <trkpt lat="41.840539" lon="2.056260">
        <ele>515.5</ele>
        <time>2011-08-19T14:41:16Z</time>
      </trkpt>
      <trkpt lat="41.840613" lon="2.056306">
        <ele>516.6</ele>
        <time>2011-08-19T14:41:16Z</time>
      </trkpt>
      <trkpt lat="41.840693" lon="2.056318">
        <ele>516.4</ele>
        <time>2011-08-19T14:41:16Z</time>
      </trkpt>
      <trkpt lat="41.840783" lon="2.056348">
        <ele>516.7</ele>
        <time>2011-08-19T14:41:16Z</time>
      </trkpt>
      <trkpt lat="41.840889" lon="2.056378">
        <ele>517.7</ele>
        <time>2011-08-19T14:41:16Z</time>
      </trkpt>
      <trkpt lat="41.841012" lon="2.056415">
        <ele>519.3</ele>
        <time>2011-08-19T14:41:16Z</time>
      </trkpt>
      <trkpt lat="41.841105" lon="2.056434">
        <ele>520.2</ele>
        <time>2011-08-19T14:41:16Z</time>
      </trkpt>
      <trkpt lat="41.841203" lon="2.056449">
        <ele>521.0</ele>
        <time>2011-08-19T14:41:16Z</time>
      </trkpt>
      <trkpt lat="41.841281" lon="2.056442">
        <ele>521.4</ele>
        <time>2011-08-19T14:41:16Z</time>
      </trkpt>
      <trkpt lat="41.841388" lon="2.056454">
        <ele>521.9</ele>
        <time>2011-08-19T14:41:16Z</time>
      </trkpt>
      <trkpt lat="41.841480" lon="2.056489">
        <ele>521.5</ele>
        <time>2011-08-19T14:41:16Z</time>
      </trkpt>
      <trkpt lat="41.841534" lon="2.056504">
        <ele>521.0</ele>
        <time>2011-08-19T14:41:16Z</time>
      </trkpt>
      <trkpt lat="41.841599" lon="2.056526">
        <ele>520.7</ele>
        <time>2011-08-19T14:41:16Z</time>
      </trkpt>
      <trkpt lat="41.841667" lon="2.056562">
        <ele>519.9</ele>
        <time>2011-08-19T14:41:16Z</time>
      </trkpt>
      <trkpt lat="41.841730" lon="2.056566">
        <ele>520.0</ele>
        <time>2011-08-19T14:41:16Z</time>
      </trkpt>
      <trkpt lat="41.841842" lon="2.056525">
        <ele>521.5</ele>
        <time>2011-08-19T14:41:16Z</time>
      </trkpt>
      <trkpt lat="41.841910" lon="2.056511">
        <ele>521.9</ele>
        <time>2011-08-19T14:41:16Z</time>
      </trkpt>
      <trkpt lat="41.841978" lon="2.056468">
        <ele>522.8</ele>
        <time>2011-08-19T14:41:16Z</time>
      </trkpt>
      <trkpt lat="41.842077" lon="2.056420">
        <ele>523.5</ele>
        <time>2011-08-19T14:41:16Z</time>
      </trkpt>
      <trkpt lat="41.842180" lon="2.056372">
        <ele>524.2</ele>
        <time>2011-08-19T14:41:16Z</time>
      </trkpt>
      <trkpt lat="41.842271" lon="2.056329">
        <ele>523.8</ele>
        <time>2011-08-19T14:41:16Z</time>
      </trkpt>
      <trkpt lat="41.842362" lon="2.056257">
        <ele>522.2</ele>
        <time>2011-08-19T14:41:16Z</time>
      </trkpt>
      <trkpt lat="41.842436" lon="2.056199">
        <ele>522.1</ele>
        <time>2011-08-19T14:41:16Z</time>
      </trkpt>
      <trkpt lat="41.842511" lon="2.056161">
        <ele>523.2</ele>
        <time>2011-08-19T14:41:16Z</time>
      </trkpt>
      <trkpt lat="41.842599" lon="2.056142">
        <ele>523.8</ele>
        <time>2011-08-19T14:41:16Z</time>
      </trkpt>
      <trkpt lat="41.842663" lon="2.056167">
        <ele>523.9</ele>
        <time>2011-08-19T14:41:16Z</time>
      </trkpt>
      <trkpt lat="41.842680" lon="2.056224">
        <ele>524.2</ele>
        <time>2011-08-19T14:41:16Z</time>
      </trkpt>
      <trkpt lat="41.842706" lon="2.056299">
        <ele>524.6</ele>
        <time>2011-08-19T14:41:16Z</time>
      </trkpt>
      <trkpt lat="41.842716" lon="2.056387">
        <ele>525.2</ele>
        <time>2011-08-19T14:41:16Z</time>
      </trkpt>
      <trkpt lat="41.842724" lon="2.056473">
        <ele>525.6</ele>
        <time>2011-08-19T14:41:16Z</time>
      </trkpt>
      <trkpt lat="41.842690" lon="2.056544">
        <ele>526.3</ele>
        <time>2011-08-19T14:41:16Z</time>
      </trkpt>
      <trkpt lat="41.842628" lon="2.056618">
        <ele>526.9</ele>
        <time>2011-08-19T14:41:16Z</time>
      </trkpt>
      <trkpt lat="41.842578" lon="2.056676">
        <ele>527.1</ele>
        <time>2011-08-19T14:41:16Z</time>
      </trkpt>
      <trkpt lat="41.842530" lon="2.056718">
        <ele>527.2</ele>
        <time>2011-08-19T14:41:16Z</time>
      </trkpt>
      <trkpt lat="41.842468" lon="2.056750">
        <ele>527.3</ele>
        <time>2011-08-19T14:41:16Z</time>
      </trkpt>
      <trkpt lat="41.842355" lon="2.056781">
        <ele>527.4</ele>
        <time>2011-08-19T14:41:16Z</time>
      </trkpt>
      <trkpt lat="41.842287" lon="2.056808">
        <ele>527.0</ele>
        <time>2011-08-19T14:41:16Z</time>
      </trkpt>
      <trkpt lat="41.842215" lon="2.056848">
        <ele>526.9</ele>
        <time>2011-08-19T14:41:16Z</time>
      </trkpt>
      <trkpt lat="41.842165" lon="2.056870">
        <ele>527.0</ele>
        <time>2011-08-19T14:41:16Z</time>
      </trkpt>
      <trkpt lat="41.842152" lon="2.056974">
        <ele>527.9</ele>
        <time>2011-08-19T14:41:16Z</time>
      </trkpt>
      <trkpt lat="41.842160" lon="2.057060">
        <ele>528.2</ele>
        <time>2011-08-19T14:41:16Z</time>
      </trkpt>
      <trkpt lat="41.842181" lon="2.057156">
        <ele>528.5</ele>
        <time>2011-08-19T14:41:16Z</time>
      </trkpt>
      <trkpt lat="41.842191" lon="2.057283">
        <ele>529.0</ele>
        <time>2011-08-19T14:41:16Z</time>
      </trkpt>
      <trkpt lat="41.842190" lon="2.057390">
        <ele>529.1</ele>
        <time>2011-08-19T14:41:16Z</time>
      </trkpt>
      <trkpt lat="41.842219" lon="2.057494">
        <ele>529.3</ele>
        <time>2011-08-19T14:41:16Z</time>
      </trkpt>
      <trkpt lat="41.842252" lon="2.057566">
        <ele>529.5</ele>
        <time>2011-08-19T14:41:16Z</time>
      </trkpt>
      <trkpt lat="41.842294" lon="2.057636">
        <ele>529.8</ele>
        <time>2011-08-19T14:41:16Z</time>
      </trkpt>
      <trkpt lat="41.842318" lon="2.057701">
        <ele>530.0</ele>
        <time>2011-08-19T14:41:16Z</time>
      </trkpt>
      <trkpt lat="41.842387" lon="2.057820">
        <ele>530.7</ele>
        <time>2011-08-19T14:41:16Z</time>
      </trkpt>
      <trkpt lat="41.842438" lon="2.057892">
        <ele>531.3</ele>
        <time>2011-08-19T14:41:16Z</time>
      </trkpt>
      <trkpt lat="41.842497" lon="2.057972">
        <ele>531.4</ele>
        <time>2011-08-19T14:41:16Z</time>
      </trkpt>
      <trkpt lat="41.842558" lon="2.058033">
        <ele>531.7</ele>
        <time>2011-08-19T14:41:16Z</time>
      </trkpt>
      <trkpt lat="41.842613" lon="2.058100">
        <ele>532.0</ele>
        <time>2011-08-19T14:41:16Z</time>
      </trkpt>
      <trkpt lat="41.842639" lon="2.058183">
        <ele>532.1</ele>
        <time>2011-08-19T14:41:16Z</time>
      </trkpt>
      <trkpt lat="41.842671" lon="2.058300">
        <ele>532.1</ele>
        <time>2011-08-19T14:41:16Z</time>
      </trkpt>
      <trkpt lat="41.842709" lon="2.058383">
        <ele>532.2</ele>
        <time>2011-08-19T14:41:16Z</time>
      </trkpt>
      <trkpt lat="41.842737" lon="2.058476">
        <ele>533.0</ele>
        <time>2011-08-19T14:41:16Z</time>
      </trkpt>
      <trkpt lat="41.842765" lon="2.058575">
        <ele>533.7</ele>
        <time>2011-08-19T14:41:16Z</time>
      </trkpt>
      <trkpt lat="41.842725" lon="2.058638">
        <ele>534.5</ele>
        <time>2011-08-19T14:41:16Z</time>
      </trkpt>
      <trkpt lat="41.842674" lon="2.058618">
        <ele>534.5</ele>
        <time>2011-08-19T14:41:16Z</time>
      </trkpt>
      <trkpt lat="41.842615" lon="2.058590">
        <ele>534.9</ele>
        <time>2011-08-19T14:41:16Z</time>
      </trkpt>
      <trkpt lat="41.842549" lon="2.058575">
        <ele>536.7</ele>
        <time>2011-08-19T14:41:16Z</time>
      </trkpt>
      <trkpt lat="41.842477" lon="2.058569">
        <ele>538.8</ele>
        <time>2011-08-19T14:41:16Z</time>
      </trkpt>
      <trkpt lat="41.842393" lon="2.058567">
        <ele>541.3</ele>
        <time>2011-08-19T14:41:16Z</time>
      </trkpt>
      <trkpt lat="41.842323" lon="2.058597">
        <ele>544.4</ele>
        <time>2011-08-19T14:41:16Z</time>
      </trkpt>
      <trkpt lat="41.842279" lon="2.058650">
        <ele>547.2</ele>
        <time>2011-08-19T14:41:16Z</time>
      </trkpt>
      <trkpt lat="41.842247" lon="2.058770">
        <ele>549.9</ele>
        <time>2011-08-19T14:41:16Z</time>
      </trkpt>
      <trkpt lat="41.842222" lon="2.058869">
        <ele>550.0</ele>
        <time>2011-08-19T14:41:16Z</time>
      </trkpt>
      <trkpt lat="41.842164" lon="2.058925">
        <ele>551.9</ele>
        <time>2011-08-19T14:41:16Z</time>
      </trkpt>
      <trkpt lat="41.842114" lon="2.058957">
        <ele>553.8</ele>
        <time>2011-08-19T14:41:16Z</time>
      </trkpt>
      <trkpt lat="41.842052" lon="2.058994">
        <ele>555.6</ele>
        <time>2011-08-19T14:41:16Z</time>
      </trkpt>
      <trkpt lat="41.841964" lon="2.059017">
        <ele>557.8</ele>
        <time>2011-08-19T14:41:16Z</time>
      </trkpt>
      <trkpt lat="41.841892" lon="2.059051">
        <ele>559.4</ele>
        <time>2011-08-19T14:41:16Z</time>
      </trkpt>
      <trkpt lat="41.841836" lon="2.059076">
        <ele>560.8</ele>
        <time>2011-08-19T14:41:16Z</time>
      </trkpt>
      <trkpt lat="41.841756" lon="2.059108">
        <ele>562.5</ele>
        <time>2011-08-19T14:41:16Z</time>
      </trkpt>
      <trkpt lat="41.841696" lon="2.059145">
        <ele>563.9</ele>
        <time>2011-08-19T14:41:16Z</time>
      </trkpt>
      <trkpt lat="41.841642" lon="2.059191">
        <ele>565.0</ele>
        <time>2011-08-19T14:41:16Z</time>
      </trkpt>
      <trkpt lat="41.841586" lon="2.059244">
        <ele>566.0</ele>
        <time>2011-08-19T14:41:16Z</time>
      </trkpt>
      <trkpt lat="41.841536" lon="2.059304">
        <ele>566.8</ele>
        <time>2011-08-19T14:41:16Z</time>
      </trkpt>
      <trkpt lat="41.841469" lon="2.059407">
        <ele>568.0</ele>
        <time>2011-08-19T14:41:16Z</time>
      </trkpt>
      <trkpt lat="41.841415" lon="2.059465">
        <ele>569.1</ele>
        <time>2011-08-19T14:41:16Z</time>
      </trkpt>
      <trkpt lat="41.841372" lon="2.059528">
        <ele>570.4</ele>
        <time>2011-08-19T14:41:16Z</time>
      </trkpt>
      <trkpt lat="41.841326" lon="2.059589">
        <ele>571.6</ele>
        <time>2011-08-19T14:41:16Z</time>
      </trkpt>
      <trkpt lat="41.841272" lon="2.059623">
        <ele>572.8</ele>
        <time>2011-08-19T14:41:16Z</time>
      </trkpt>
      <trkpt lat="41.841220" lon="2.059679">
        <ele>574.3</ele>
        <time>2011-08-19T14:41:16Z</time>
      </trkpt>
      <trkpt lat="41.841175" lon="2.059734">
        <ele>575.6</ele>
        <time>2011-08-19T14:41:16Z</time>
      </trkpt>
      <trkpt lat="41.841154" lon="2.059810">
        <ele>576.4</ele>
        <time>2011-08-19T14:41:16Z</time>
      </trkpt>
      <trkpt lat="41.841163" lon="2.059885">
        <ele>577.3</ele>
        <time>2011-08-19T14:41:16Z</time>
      </trkpt>
      <trkpt lat="41.841194" lon="2.059950">
        <ele>578.0</ele>
        <time>2011-08-19T14:41:16Z</time>
      </trkpt>
      <trkpt lat="41.841261" lon="2.059980">
        <ele>577.3</ele>
        <time>2011-08-19T14:41:16Z</time>
      </trkpt>
      <trkpt lat="41.841337" lon="2.060023">
        <ele>577.3</ele>
        <time>2011-08-19T14:41:16Z</time>
      </trkpt>
      <trkpt lat="41.841418" lon="2.060069">
        <ele>577.7</ele>
        <time>2011-08-19T14:41:16Z</time>
      </trkpt>
      <trkpt lat="41.841470" lon="2.060108">
        <ele>578.1</ele>
        <time>2011-08-19T14:41:16Z</time>
      </trkpt>
      <trkpt lat="41.841518" lon="2.060177">
        <ele>579.2</ele>
        <time>2011-08-19T14:41:16Z</time>
      </trkpt>
      <trkpt lat="41.841526" lon="2.060239">
        <ele>580.6</ele>
        <time>2011-08-19T14:41:16Z</time>
      </trkpt>
      <trkpt lat="41.841492" lon="2.060292">
        <ele>582.2</ele>
        <time>2011-08-19T14:41:16Z</time>
      </trkpt>
      <trkpt lat="41.841433" lon="2.060296">
        <ele>582.9</ele>
        <time>2011-08-19T14:41:16Z</time>
      </trkpt>
      <trkpt lat="41.841363" lon="2.060255">
        <ele>582.6</ele>
        <time>2011-08-19T14:41:16Z</time>
      </trkpt>
      <trkpt lat="41.841278" lon="2.060209">
        <ele>582.5</ele>
        <time>2011-08-19T14:41:16Z</time>
      </trkpt>
      <trkpt lat="41.841212" lon="2.060187">
        <ele>583.0</ele>
        <time>2011-08-19T14:41:16Z</time>
      </trkpt>
      <trkpt lat="41.841121" lon="2.060193">
        <ele>584.5</ele>
        <time>2011-08-19T14:41:16Z</time>
      </trkpt>
      <trkpt lat="41.841066" lon="2.060202">
        <ele>585.4</ele>
        <time>2011-08-19T14:41:16Z</time>
      </trkpt>
      <trkpt lat="41.841000" lon="2.060221">
        <ele>586.9</ele>
        <time>2011-08-19T14:41:16Z</time>
      </trkpt>
      <trkpt lat="41.840897" lon="2.060197">
        <ele>588.7</ele>
        <time>2011-08-19T14:41:16Z</time>
      </trkpt>
      <trkpt lat="41.840863" lon="2.060129">
        <ele>588.5</ele>
        <time>2011-08-19T14:41:16Z</time>
      </trkpt>
      <trkpt lat="41.840843" lon="2.060025">
        <ele>587.6</ele>
        <time>2011-08-19T14:41:16Z</time>
      </trkpt>
      <trkpt lat="41.840813" lon="2.059932">
        <ele>587.2</ele>
        <time>2011-08-19T14:41:16Z</time>
      </trkpt>
      <trkpt lat="41.840765" lon="2.059873">
        <ele>587.8</ele>
        <time>2011-08-19T14:41:16Z</time>
      </trkpt>
      <trkpt lat="41.840710" lon="2.059822">
        <ele>588.5</ele>
        <time>2011-08-19T14:41:16Z</time>
      </trkpt>
      <trkpt lat="41.840638" lon="2.059784">
        <ele>589.3</ele>
        <time>2011-08-19T14:41:16Z</time>
      </trkpt>
      <trkpt lat="41.840571" lon="2.059733">
        <ele>589.6</ele>
        <time>2011-08-19T14:41:16Z</time>
      </trkpt>
      <trkpt lat="41.840479" lon="2.059687">
        <ele>590.4</ele>
        <time>2011-08-19T14:41:16Z</time>
      </trkpt>
      <trkpt lat="41.840425" lon="2.059669">
        <ele>590.7</ele>
        <time>2011-08-19T14:41:16Z</time>
      </trkpt>
      <trkpt lat="41.840306" lon="2.059653">
        <ele>591.6</ele>
        <time>2011-08-19T14:41:16Z</time>
      </trkpt>
      <trkpt lat="41.840222" lon="2.059659">
        <ele>592.7</ele>
        <time>2011-08-19T14:41:16Z</time>
      </trkpt>
      <trkpt lat="41.840146" lon="2.059668">
        <ele>593.2</ele>
        <time>2011-08-19T14:41:16Z</time>
      </trkpt>
      <trkpt lat="41.840078" lon="2.059667">
        <ele>593.4</ele>
        <time>2011-08-19T14:41:16Z</time>
      </trkpt>
      <trkpt lat="41.839996" lon="2.059668">
        <ele>593.7</ele>
        <time>2011-08-19T14:41:16Z</time>
      </trkpt>
      <trkpt lat="41.839916" lon="2.059666">
        <ele>593.8</ele>
        <time>2011-08-19T14:41:16Z</time>
      </trkpt>
      <trkpt lat="41.839868" lon="2.059683">
        <ele>593.9</ele>
        <time>2011-08-19T14:41:16Z</time>
      </trkpt>
      <trkpt lat="41.839833" lon="2.059733">
        <ele>594.8</ele>
        <time>2011-08-19T14:41:16Z</time>
      </trkpt>
      <trkpt lat="41.839836" lon="2.059811">
        <ele>596.6</ele>
        <time>2011-08-19T14:41:16Z</time>
      </trkpt>
      <trkpt lat="41.839865" lon="2.059876">
        <ele>598.4</ele>
        <time>2011-08-19T14:41:16Z</time>
      </trkpt>
      <trkpt lat="41.839957" lon="2.059919">
        <ele>599.7</ele>
        <time>2011-08-19T14:41:16Z</time>
      </trkpt>
      <trkpt lat="41.840032" lon="2.059967">
        <ele>600.4</ele>
        <time>2011-08-19T14:41:16Z</time>
      </trkpt>
      <trkpt lat="41.840141" lon="2.060049">
        <ele>601.6</ele>
        <time>2011-08-19T14:41:16Z</time>
      </trkpt>
      <trkpt lat="41.840208" lon="2.060102">
        <ele>602.3</ele>
        <time>2011-08-19T14:41:16Z</time>
      </trkpt>
      <trkpt lat="41.840269" lon="2.060172">
        <ele>603.0</ele>
        <time>2011-08-19T14:41:16Z</time>
      </trkpt>
      <trkpt lat="41.840317" lon="2.060268">
        <ele>604.3</ele>
        <time>2011-08-19T14:41:16Z</time>
      </trkpt>
      <trkpt lat="41.840350" lon="2.060353">
        <ele>605.2</ele>
        <time>2011-08-19T14:41:16Z</time>
      </trkpt>
      <trkpt lat="41.840379" lon="2.060480">
        <ele>606.8</ele>
        <time>2011-08-19T14:41:16Z</time>
      </trkpt>
      <trkpt lat="41.840383" lon="2.060574">
        <ele>608.4</ele>
        <time>2011-08-19T14:41:16Z</time>
      </trkpt>
      <trkpt lat="41.840400" lon="2.060639">
        <ele>608.8</ele>
        <time>2011-08-19T14:41:16Z</time>
      </trkpt>
      <trkpt lat="41.840414" lon="2.060725">
        <ele>609.6</ele>
        <time>2011-08-19T14:41:16Z</time>
      </trkpt>
      <trkpt lat="41.840415" lon="2.060818">
        <ele>611.0</ele>
        <time>2011-08-19T14:41:16Z</time>
      </trkpt>
      <trkpt lat="41.840414" lon="2.060977">
        <ele>613.4</ele>
        <time>2011-08-19T14:41:16Z</time>
      </trkpt>
      <trkpt lat="41.840454" lon="2.061052">
        <ele>614.0</ele>
        <time>2011-08-19T14:41:16Z</time>
      </trkpt>
      <trkpt lat="41.840504" lon="2.061067">
        <ele>613.5</ele>
        <time>2011-08-19T14:41:16Z</time>
      </trkpt>
      <trkpt lat="41.840555" lon="2.061074">
        <ele>613.1</ele>
        <time>2011-08-19T14:41:16Z</time>
      </trkpt>
      <trkpt lat="41.840629" lon="2.061084">
        <ele>612.5</ele>
        <time>2011-08-19T14:41:16Z</time>
      </trkpt>
      <trkpt lat="41.840715" lon="2.061111">
        <ele>612.1</ele>
        <time>2011-08-19T14:41:16Z</time>
      </trkpt>
      <trkpt lat="41.840751" lon="2.061163">
        <ele>612.7</ele>
        <time>2011-08-19T14:41:16Z</time>
      </trkpt>
      <trkpt lat="41.840729" lon="2.061202">
        <ele>613.7</ele>
        <time>2011-08-19T14:41:16Z</time>
      </trkpt>
      <trkpt lat="41.840665" lon="2.061229">
        <ele>614.9</ele>
        <time>2011-08-19T14:41:16Z</time>
      </trkpt>
      <trkpt lat="41.840595" lon="2.061235">
        <ele>615.8</ele>
        <time>2011-08-19T14:41:16Z</time>
      </trkpt>
      <trkpt lat="41.840512" lon="2.061265">
        <ele>617.3</ele>
        <time>2011-08-19T14:41:16Z</time>
      </trkpt>
      <trkpt lat="41.840436" lon="2.061282">
        <ele>618.2</ele>
        <time>2011-08-19T14:41:16Z</time>
      </trkpt>
      <trkpt lat="41.840356" lon="2.061301">
        <ele>619.3</ele>
        <time>2011-08-19T14:41:16Z</time>
      </trkpt>
      <trkpt lat="41.840275" lon="2.061328">
        <ele>620.8</ele>
        <time>2011-08-19T14:41:16Z</time>
      </trkpt>
      <trkpt lat="41.840191" lon="2.061337">
        <ele>622.5</ele>
        <time>2011-08-19T14:41:16Z</time>
      </trkpt>
      <trkpt lat="41.840136" lon="2.061310">
        <ele>623.7</ele>
        <time>2011-08-19T14:41:16Z</time>
      </trkpt>
      <trkpt lat="41.840111" lon="2.061271">
        <ele>624.2</ele>
        <time>2011-08-19T14:41:16Z</time>
      </trkpt>
      <trkpt lat="41.840090" lon="2.061190">
        <ele>624.2</ele>
        <time>2011-08-19T14:41:16Z</time>
      </trkpt>
      <trkpt lat="41.840066" lon="2.061076">
        <ele>624.0</ele>
        <time>2011-08-19T14:41:16Z</time>
      </trkpt>
      <trkpt lat="41.840032" lon="2.060978">
        <ele>624.2</ele>
        <time>2011-08-19T14:41:16Z</time>
      </trkpt>
      <trkpt lat="41.840000" lon="2.060879">
        <ele>624.0</ele>
        <time>2011-08-19T14:41:16Z</time>
      </trkpt>
      <trkpt lat="41.839945" lon="2.060784">
        <ele>624.0</ele>
        <time>2011-08-19T14:41:16Z</time>
      </trkpt>
      <trkpt lat="41.839894" lon="2.060743">
        <ele>623.6</ele>
        <time>2011-08-19T14:41:16Z</time>
      </trkpt>
      <trkpt lat="41.839822" lon="2.060736">
        <ele>623.9</ele>
        <time>2011-08-19T14:41:16Z</time>
      </trkpt>
      <trkpt lat="41.839744" lon="2.060753">
        <ele>624.8</ele>
        <time>2011-08-19T14:41:16Z</time>
      </trkpt>
      <trkpt lat="41.839674" lon="2.060790">
        <ele>626.4</ele>
        <time>2011-08-19T14:41:16Z</time>
      </trkpt>
      <trkpt lat="41.839614" lon="2.060825">
        <ele>627.0</ele>
        <time>2011-08-19T14:41:16Z</time>
      </trkpt>
      <trkpt lat="41.839540" lon="2.060873">
        <ele>627.9</ele>
        <time>2011-08-19T14:41:16Z</time>
      </trkpt>
      <trkpt lat="41.839445" lon="2.060932">
        <ele>628.9</ele>
        <time>2011-08-19T14:41:16Z</time>
      </trkpt>
      <trkpt lat="41.839368" lon="2.061011">
        <ele>630.2</ele>
        <time>2011-08-19T14:41:16Z</time>
      </trkpt>
      <trkpt lat="41.839312" lon="2.061074">
        <ele>631.2</ele>
        <time>2011-08-19T14:41:16Z</time>
      </trkpt>
      <trkpt lat="41.839237" lon="2.061120">
        <ele>631.4</ele>
        <time>2011-08-19T14:41:16Z</time>
      </trkpt>
      <trkpt lat="41.839159" lon="2.061186">
        <ele>632.2</ele>
        <time>2011-08-19T14:41:16Z</time>
      </trkpt>
      <trkpt lat="41.839091" lon="2.061234">
        <ele>633.0</ele>
        <time>2011-08-19T14:41:16Z</time>
      </trkpt>
      <trkpt lat="41.838981" lon="2.061261">
        <ele>633.6</ele>
        <time>2011-08-19T14:41:16Z</time>
      </trkpt>
      <trkpt lat="41.838938" lon="2.061280">
        <ele>634.1</ele>
        <time>2011-08-19T14:41:16Z</time>
      </trkpt>
      <trkpt lat="41.838872" lon="2.061331">
        <ele>635.6</ele>
        <time>2011-08-19T14:41:16Z</time>
      </trkpt>
      <trkpt lat="41.838802" lon="2.061366">
        <ele>637.3</ele>
        <time>2011-08-19T14:41:16Z</time>
      </trkpt>
      <trkpt lat="41.838721" lon="2.061393">
        <ele>638.9</ele>
        <time>2011-08-19T14:41:16Z</time>
      </trkpt>
      <trkpt lat="41.838650" lon="2.061355">
        <ele>638.4</ele>
        <time>2011-08-19T14:41:16Z</time>
      </trkpt>
      <trkpt lat="41.838575" lon="2.061244">
        <ele>638.0</ele>
        <time>2011-08-19T14:41:16Z</time>
      </trkpt>
      <trkpt lat="41.838526" lon="2.061182">
        <ele>639.3</ele>
        <time>2011-08-19T14:41:16Z</time>
      </trkpt>
      <trkpt lat="41.838428" lon="2.061103">
        <ele>641.8</ele>
        <time>2011-08-19T14:41:16Z</time>
      </trkpt>
      <trkpt lat="41.838338" lon="2.061031">
        <ele>643.5</ele>
        <time>2011-08-19T14:41:16Z</time>
      </trkpt>
      <trkpt lat="41.838234" lon="2.060960">
        <ele>644.6</ele>
        <time>2011-08-19T14:41:16Z</time>
      </trkpt>
      <trkpt lat="41.838148" lon="2.060904">
        <ele>645.9</ele>
        <time>2011-08-19T14:41:16Z</time>
      </trkpt>
      <trkpt lat="41.838073" lon="2.060834">
        <ele>646.0</ele>
        <time>2011-08-19T14:41:16Z</time>
      </trkpt>
      <trkpt lat="41.838007" lon="2.060796">
        <ele>646.0</ele>
        <time>2011-08-19T14:41:16Z</time>
      </trkpt>
      <trkpt lat="41.837950" lon="2.060766">
        <ele>646.0</ele>
        <time>2011-08-19T14:41:16Z</time>
      </trkpt>
      <trkpt lat="41.837858" lon="2.060715">
        <ele>645.6</ele>
        <time>2011-08-19T14:41:16Z</time>
      </trkpt>
      <trkpt lat="41.837776" lon="2.060698">
        <ele>646.0</ele>
        <time>2011-08-19T14:41:16Z</time>
      </trkpt>
      <trkpt lat="41.837669" lon="2.060687">
        <ele>645.3</ele>
        <time>2011-08-19T14:41:16Z</time>
      </trkpt>
      <trkpt lat="41.837595" lon="2.060693">
        <ele>645.2</ele>
        <time>2011-08-19T14:41:16Z</time>
      </trkpt>
      <trkpt lat="41.837509" lon="2.060733">
        <ele>646.4</ele>
        <time>2011-08-19T14:41:16Z</time>
      </trkpt>
      <trkpt lat="41.837438" lon="2.060771">
        <ele>646.9</ele>
        <time>2011-08-19T14:41:16Z</time>
      </trkpt>
      <trkpt lat="41.837375" lon="2.060811">
        <ele>647.6</ele>
        <time>2011-08-19T14:41:16Z</time>
      </trkpt>
      <trkpt lat="41.837320" lon="2.060856">
        <ele>648.6</ele>
        <time>2011-08-19T14:41:16Z</time>
      </trkpt>
      <trkpt lat="41.837238" lon="2.060899">
        <ele>649.2</ele>
        <time>2011-08-19T14:41:16Z</time>
      </trkpt>
      <trkpt lat="41.837158" lon="2.060918">
        <ele>649.1</ele>
        <time>2011-08-19T14:41:16Z</time>
      </trkpt>
      <trkpt lat="41.837065" lon="2.060935">
        <ele>648.9</ele>
        <time>2011-08-19T14:41:16Z</time>
      </trkpt>
      <trkpt lat="41.836960" lon="2.060968">
        <ele>649.1</ele>
        <time>2011-08-19T14:41:16Z</time>
      </trkpt>
      <trkpt lat="41.836918" lon="2.061013">
        <ele>649.2</ele>
        <time>2011-08-19T14:41:16Z</time>
      </trkpt>
      <trkpt lat="41.836865" lon="2.061079">
        <ele>649.5</ele>
        <time>2011-08-19T14:41:16Z</time>
      </trkpt>
      <trkpt lat="41.836827" lon="2.061147">
        <ele>650.4</ele>
        <time>2011-08-19T14:41:16Z</time>
      </trkpt>
      <trkpt lat="41.836783" lon="2.061205">
        <ele>651.1</ele>
        <time>2011-08-19T14:41:16Z</time>
      </trkpt>
      <trkpt lat="41.836731" lon="2.061258">
        <ele>651.7</ele>
        <time>2011-08-19T14:41:16Z</time>
      </trkpt>
      <trkpt lat="41.836645" lon="2.061288">
        <ele>651.3</ele>
        <time>2011-08-19T14:41:16Z</time>
      </trkpt>
      <trkpt lat="41.836573" lon="2.061310">
        <ele>650.9</ele>
        <time>2011-08-19T14:41:16Z</time>
      </trkpt>
      <trkpt lat="41.836509" lon="2.061360">
        <ele>651.4</ele>
        <time>2011-08-19T14:41:16Z</time>
      </trkpt>
      <trkpt lat="41.836449" lon="2.061423">
        <ele>652.2</ele>
        <time>2011-08-19T14:41:16Z</time>
      </trkpt>
      <trkpt lat="41.836411" lon="2.061474">
        <ele>653.4</ele>
        <time>2011-08-19T14:41:16Z</time>
      </trkpt>
      <trkpt lat="41.836349" lon="2.061534">
        <ele>654.9</ele>
        <time>2011-08-19T14:41:16Z</time>
      </trkpt>
      <trkpt lat="41.836236" lon="2.061552">
        <ele>655.1</ele>
        <time>2011-08-19T14:41:16Z</time>
      </trkpt>
      <trkpt lat="41.836154" lon="2.061542">
        <ele>655.1</ele>
        <time>2011-08-19T14:41:16Z</time>
      </trkpt>
      <trkpt lat="41.836070" lon="2.061510">
        <ele>656.4</ele>
        <time>2011-08-19T14:41:16Z</time>
      </trkpt>
      <trkpt lat="41.835992" lon="2.061485">
        <ele>657.8</ele>
        <time>2011-08-19T14:41:16Z</time>
      </trkpt>
      <trkpt lat="41.835904" lon="2.061460">
        <ele>659.4</ele>
        <time>2011-08-19T14:41:16Z</time>
      </trkpt>
      <trkpt lat="41.835836" lon="2.061440">
        <ele>660.5</ele>
        <time>2011-08-19T14:41:16Z</time>
      </trkpt>
      <trkpt lat="41.835738" lon="2.061400">
        <ele>662.3</ele>
        <time>2011-08-19T14:41:16Z</time>
      </trkpt>
      <trkpt lat="41.835685" lon="2.061380">
        <ele>663.5</ele>
        <time>2011-08-19T14:41:16Z</time>
      </trkpt>
      <trkpt lat="41.835603" lon="2.061339">
        <ele>666.1</ele>
        <time>2011-08-19T14:41:16Z</time>
      </trkpt>
      <trkpt lat="41.835539" lon="2.061296">
        <ele>669.1</ele>
        <time>2011-08-19T14:41:16Z</time>
      </trkpt>
      <trkpt lat="41.835484" lon="2.061226">
        <ele>671.3</ele>
        <time>2011-08-19T14:41:16Z</time>
      </trkpt>
      <trkpt lat="41.835440" lon="2.061128">
        <ele>672.5</ele>
        <time>2011-08-19T14:41:16Z</time>
      </trkpt>
      <trkpt lat="41.835410" lon="2.061004">
        <ele>672.7</ele>
        <time>2011-08-19T14:41:16Z</time>
      </trkpt>
      <trkpt lat="41.835379" lon="2.060897">
        <ele>672.5</ele>
        <time>2011-08-19T14:41:16Z</time>
      </trkpt>
      <trkpt lat="41.835332" lon="2.060778">
        <ele>672.5</ele>
        <time>2011-08-19T14:41:16Z</time>
      </trkpt>
      <trkpt lat="41.835281" lon="2.060737">
        <ele>673.6</ele>
        <time>2011-08-19T14:41:16Z</time>
      </trkpt>
      <trkpt lat="41.835212" lon="2.060704">
        <ele>675.2</ele>
        <time>2011-08-19T14:41:16Z</time>
      </trkpt>
      <trkpt lat="41.835150" lon="2.060692">
        <ele>676.9</ele>
        <time>2011-08-19T14:41:16Z</time>
      </trkpt>
      <trkpt lat="41.835089" lon="2.060683">
        <ele>678.5</ele>
        <time>2011-08-19T14:41:16Z</time>
      </trkpt>
      <trkpt lat="41.834996" lon="2.060697">
        <ele>681.0</ele>
        <time>2011-08-19T14:41:16Z</time>
      </trkpt>
      <trkpt lat="41.834934" lon="2.060701">
        <ele>682.4</ele>
        <time>2011-08-19T14:41:16Z</time>
      </trkpt>
      <trkpt lat="41.834881" lon="2.060691">
        <ele>683.3</ele>
        <time>2011-08-19T14:41:16Z</time>
      </trkpt>
      <trkpt lat="41.834815" lon="2.060674">
        <ele>684.4</ele>
        <time>2011-08-19T14:41:16Z</time>
      </trkpt>
      <trkpt lat="41.834737" lon="2.060651">
        <ele>685.1</ele>
        <time>2011-08-19T14:41:16Z</time>
      </trkpt>
      <trkpt lat="41.834657" lon="2.060624">
        <ele>685.9</ele>
        <time>2011-08-19T14:41:16Z</time>
      </trkpt>
      <trkpt lat="41.834588" lon="2.060594">
        <ele>686.5</ele>
        <time>2011-08-19T14:41:16Z</time>
      </trkpt>
      <trkpt lat="41.834520" lon="2.060563">
        <ele>687.4</ele>
        <time>2011-08-19T14:41:16Z</time>
      </trkpt>
      <trkpt lat="41.834449" lon="2.060523">
        <ele>688.5</ele>
        <time>2011-08-19T14:41:16Z</time>
      </trkpt>
      <trkpt lat="41.834408" lon="2.060487">
        <ele>688.8</ele>
        <time>2011-08-19T14:41:16Z</time>
      </trkpt>
      <trkpt lat="41.834349" lon="2.060423">
        <ele>688.9</ele>
        <time>2011-08-19T14:41:16Z</time>
      </trkpt>
      <trkpt lat="41.834290" lon="2.060361">
        <ele>688.9</ele>
        <time>2011-08-19T14:41:16Z</time>
      </trkpt>
      <trkpt lat="41.834241" lon="2.060341">
        <ele>689.1</ele>
        <time>2011-08-19T14:41:16Z</time>
      </trkpt>
      <trkpt lat="41.834175" lon="2.060318">
        <ele>689.4</ele>
        <time>2011-08-19T14:41:16Z</time>
      </trkpt>
      <trkpt lat="41.834099" lon="2.060314">
        <ele>690.2</ele>
        <time>2011-08-19T14:41:16Z</time>
      </trkpt>
      <trkpt lat="41.834000" lon="2.060334">
        <ele>691.7</ele>
        <time>2011-08-19T14:41:16Z</time>
      </trkpt>
      <trkpt lat="41.833961" lon="2.060353">
        <ele>692.3</ele>
        <time>2011-08-19T14:41:16Z</time>
      </trkpt>
      <trkpt lat="41.833893" lon="2.060390">
        <ele>693.2</ele>
        <time>2011-08-19T14:41:16Z</time>
      </trkpt>
      <trkpt lat="41.833856" lon="2.060425">
        <ele>694.0</ele>
        <time>2011-08-19T14:41:16Z</time>
      </trkpt>
      <trkpt lat="41.833814" lon="2.060462">
        <ele>694.9</ele>
        <time>2011-08-19T14:41:16Z</time>
      </trkpt>
      <trkpt lat="41.833734" lon="2.060543">
        <ele>696.6</ele>
        <time>2011-08-19T14:41:16Z</time>
      </trkpt>
      <trkpt lat="41.833686" lon="2.060591">
        <ele>697.7</ele>
        <time>2011-08-19T14:41:16Z</time>
      </trkpt>
      <trkpt lat="41.833614" lon="2.060633">
        <ele>698.8</ele>
        <time>2011-08-19T14:41:16Z</time>
      </trkpt>
      <trkpt lat="41.833547" lon="2.060659">
        <ele>699.5</ele>
        <time>2011-08-19T14:41:16Z</time>
      </trkpt>
      <trkpt lat="41.833469" lon="2.060645">
        <ele>699.5</ele>
        <time>2011-08-19T14:41:16Z</time>
      </trkpt>
      <trkpt lat="41.833424" lon="2.060608">
        <ele>699.4</ele>
        <time>2011-08-19T14:41:16Z</time>
      </trkpt>
      <trkpt lat="41.833327" lon="2.060582">
        <ele>700.4</ele>
        <time>2011-08-19T14:41:16Z</time>
      </trkpt>
      <trkpt lat="41.833246" lon="2.060552">
        <ele>701.1</ele>
        <time>2011-08-19T14:41:16Z</time>
      </trkpt>
      <trkpt lat="41.833165" lon="2.060536">
        <ele>702.2</ele>
        <time>2011-08-19T14:41:16Z</time>
      </trkpt>
      <trkpt lat="41.833099" lon="2.060519">
        <ele>703.5</ele>
        <time>2011-08-19T14:41:16Z</time>
      </trkpt>
      <trkpt lat="41.833021" lon="2.060488">
        <ele>704.9</ele>
        <time>2011-08-19T14:41:16Z</time>
      </trkpt>
      <trkpt lat="41.832981" lon="2.060458">
        <ele>705.3</ele>
        <time>2011-08-19T14:41:16Z</time>
      </trkpt>
      <trkpt lat="41.832920" lon="2.060393">
        <ele>705.6</ele>
        <time>2011-08-19T14:41:16Z</time>
      </trkpt>
      <trkpt lat="41.832856" lon="2.060329">
        <ele>706.0</ele>
        <time>2011-08-19T14:41:16Z</time>
      </trkpt>
      <trkpt lat="41.832800" lon="2.060271">
        <ele>706.3</ele>
        <time>2011-08-19T14:41:16Z</time>
      </trkpt>
      <trkpt lat="41.832740" lon="2.060212">
        <ele>706.9</ele>
        <time>2011-08-19T14:41:16Z</time>
      </trkpt>
      <trkpt lat="41.832673" lon="2.060157">
        <ele>707.9</ele>
        <time>2011-08-19T14:41:16Z</time>
      </trkpt>
      <trkpt lat="41.832603" lon="2.060108">
        <ele>708.5</ele>
        <time>2011-08-19T14:41:16Z</time>
      </trkpt>
      <trkpt lat="41.832545" lon="2.060109">
        <ele>709.3</ele>
        <time>2011-08-19T14:41:16Z</time>
      </trkpt>
      <trkpt lat="41.832458" lon="2.060155">
        <ele>711.5</ele>
        <time>2011-08-19T14:41:16Z</time>
      </trkpt>
      <trkpt lat="41.832383" lon="2.060214">
        <ele>713.7</ele>
        <time>2011-08-19T14:41:16Z</time>
      </trkpt>
      <trkpt lat="41.832312" lon="2.060281">
        <ele>715.1</ele>
        <time>2011-08-19T14:41:16Z</time>
      </trkpt>
      <trkpt lat="41.832203" lon="2.060366">
        <ele>716.7</ele>
        <time>2011-08-19T14:41:16Z</time>
      </trkpt>
      <trkpt lat="41.832134" lon="2.060420">
        <ele>717.8</ele>
        <time>2011-08-19T14:41:16Z</time>
      </trkpt>
      <trkpt lat="41.832072" lon="2.060459">
        <ele>718.8</ele>
        <time>2011-08-19T14:41:16Z</time>
      </trkpt>
      <trkpt lat="41.831991" lon="2.060498">
        <ele>720.1</ele>
        <time>2011-08-19T14:41:16Z</time>
      </trkpt>
      <trkpt lat="41.831922" lon="2.060519">
        <ele>721.0</ele>
        <time>2011-08-19T14:41:16Z</time>
      </trkpt>
      <trkpt lat="41.831833" lon="2.060535">
        <ele>722.0</ele>
        <time>2011-08-19T14:41:16Z</time>
      </trkpt>
      <trkpt lat="41.831745" lon="2.060554">
        <ele>723.0</ele>
        <time>2011-08-19T14:41:16Z</time>
      </trkpt>
      <trkpt lat="41.831671" lon="2.060576">
        <ele>724.1</ele>
        <time>2011-08-19T14:41:16Z</time>
      </trkpt>
      <trkpt lat="41.831598" lon="2.060604">
        <ele>725.4</ele>
        <time>2011-08-19T14:41:16Z</time>
      </trkpt>
      <trkpt lat="41.831555" lon="2.060650">
        <ele>726.7</ele>
        <time>2011-08-19T14:41:16Z</time>
      </trkpt>
      <trkpt lat="41.831552" lon="2.060724">
        <ele>728.4</ele>
        <time>2011-08-19T14:41:16Z</time>
      </trkpt>
      <trkpt lat="41.831577" lon="2.060821">
        <ele>730.3</ele>
        <time>2011-08-19T14:41:16Z</time>
      </trkpt>
      <trkpt lat="41.831623" lon="2.060886">
        <ele>731.0</ele>
        <time>2011-08-19T14:41:16Z</time>
      </trkpt>
      <trkpt lat="41.831667" lon="2.060964">
        <ele>731.8</ele>
        <time>2011-08-19T14:41:16Z</time>
      </trkpt>
      <trkpt lat="41.831707" lon="2.061044">
        <ele>732.7</ele>
        <time>2011-08-19T14:41:16Z</time>
      </trkpt>
      <trkpt lat="41.831751" lon="2.061132">
        <ele>733.9</ele>
        <time>2011-08-19T14:41:16Z</time>
      </trkpt>
      <trkpt lat="41.831795" lon="2.061209">
        <ele>734.7</ele>
        <time>2011-08-19T14:41:16Z</time>
      </trkpt>
      <trkpt lat="41.831849" lon="2.061287">
        <ele>735.4</ele>
        <time>2011-08-19T14:41:16Z</time>
      </trkpt>
      <trkpt lat="41.831902" lon="2.061359">
        <ele>736.5</ele>
        <time>2011-08-19T14:41:16Z</time>
      </trkpt>
      <trkpt lat="41.831963" lon="2.061426">
        <ele>737.4</ele>
        <time>2011-08-19T14:41:16Z</time>
      </trkpt>
      <trkpt lat="41.832026" lon="2.061488">
        <ele>738.5</ele>
        <time>2011-08-19T14:41:16Z</time>
      </trkpt>
      <trkpt lat="41.832104" lon="2.061555">
        <ele>739.6</ele>
        <time>2011-08-19T14:41:16Z</time>
      </trkpt>
      <trkpt lat="41.832182" lon="2.061627">
        <ele>741.0</ele>
        <time>2011-08-19T14:41:16Z</time>
      </trkpt>
      <trkpt lat="41.832271" lon="2.061681">
        <ele>741.8</ele>
        <time>2011-08-19T14:41:16Z</time>
      </trkpt>
      <trkpt lat="41.832360" lon="2.061751">
        <ele>742.8</ele>
        <time>2011-08-19T14:41:16Z</time>
      </trkpt>
      <trkpt lat="41.832455" lon="2.061817">
        <ele>743.9</ele>
        <time>2011-08-19T14:41:16Z</time>
      </trkpt>
      <trkpt lat="41.832517" lon="2.061844">
        <ele>744.2</ele>
        <time>2011-08-19T14:41:16Z</time>
      </trkpt>
      <trkpt lat="41.832610" lon="2.061888">
        <ele>744.7</ele>
        <time>2011-08-19T14:41:16Z</time>
      </trkpt>
      <trkpt lat="41.832692" lon="2.061943">
        <ele>745.6</ele>
        <time>2011-08-19T14:41:16Z</time>
      </trkpt>
      <trkpt lat="41.832786" lon="2.062027">
        <ele>747.2</ele>
        <time>2011-08-19T14:41:16Z</time>
      </trkpt>
      <trkpt lat="41.832866" lon="2.062089">
        <ele>748.4</ele>
        <time>2011-08-19T14:41:16Z</time>
      </trkpt>
      <trkpt lat="41.832936" lon="2.062151">
        <ele>749.8</ele>
        <time>2011-08-19T14:41:16Z</time>
      </trkpt>
      <trkpt lat="41.833029" lon="2.062210">
        <ele>751.1</ele>
        <time>2011-08-19T14:41:16Z</time>
      </trkpt>
      <trkpt lat="41.833107" lon="2.062237">
        <ele>751.5</ele>
        <time>2011-08-19T14:41:16Z</time>
      </trkpt>
      <trkpt lat="41.833234" lon="2.062285">
        <ele>752.2</ele>
        <time>2011-08-19T14:41:16Z</time>
      </trkpt>
      <trkpt lat="41.833306" lon="2.062325">
        <ele>752.7</ele>
        <time>2011-08-19T14:41:16Z</time>
      </trkpt>
      <trkpt lat="41.833386" lon="2.062391">
        <ele>753.8</ele>
        <time>2011-08-19T14:41:16Z</time>
      </trkpt>
      <trkpt lat="41.833447" lon="2.062497">
        <ele>755.7</ele>
        <time>2011-08-19T14:41:16Z</time>
      </trkpt>
      <trkpt lat="41.833501" lon="2.062619">
        <ele>756.7</ele>
        <time>2011-08-19T14:41:16Z</time>
      </trkpt>
      <trkpt lat="41.833547" lon="2.062732">
        <ele>757.4</ele>
        <time>2011-08-19T14:41:16Z</time>
      </trkpt>
      <trkpt lat="41.833582" lon="2.062835">
        <ele>758.3</ele>
        <time>2011-08-19T14:41:16Z</time>
      </trkpt>
      <trkpt lat="41.833611" lon="2.062938">
        <ele>759.0</ele>
        <time>2011-08-19T14:41:16Z</time>
      </trkpt>
      <trkpt lat="41.833621" lon="2.063044">
        <ele>760.2</ele>
        <time>2011-08-19T14:41:16Z</time>
      </trkpt>
      <trkpt lat="41.833650" lon="2.063124">
        <ele>760.8</ele>
        <time>2011-08-19T14:41:16Z</time>
      </trkpt>
      <trkpt lat="41.833684" lon="2.063194">
        <ele>761.2</ele>
        <time>2011-08-19T14:41:16Z</time>
      </trkpt>
      <trkpt lat="41.833723" lon="2.063259">
        <ele>760.7</ele>
        <time>2011-08-19T14:41:16Z</time>
      </trkpt>
      <trkpt lat="41.833752" lon="2.063375">
        <ele>760.4</ele>
        <time>2011-08-19T14:41:16Z</time>
      </trkpt>
      <trkpt lat="41.833741" lon="2.063486">
        <ele>761.0</ele>
        <time>2011-08-19T14:41:16Z</time>
      </trkpt>
      <trkpt lat="41.833717" lon="2.063549">
        <ele>761.7</ele>
        <time>2011-08-19T14:41:16Z</time>
      </trkpt>
      <trkpt lat="41.833654" lon="2.063633">
        <ele>762.2</ele>
        <time>2011-08-19T14:41:16Z</time>
      </trkpt>
      <trkpt lat="41.833598" lon="2.063692">
        <ele>762.8</ele>
        <time>2011-08-19T14:41:16Z</time>
      </trkpt>
      <trkpt lat="41.833525" lon="2.063746">
        <ele>763.9</ele>
        <time>2011-08-19T14:41:16Z</time>
      </trkpt>
      <trkpt lat="41.833457" lon="2.063793">
        <ele>765.1</ele>
        <time>2011-08-19T14:41:16Z</time>
      </trkpt>
      <trkpt lat="41.833380" lon="2.063839">
        <ele>766.5</ele>
        <time>2011-08-19T14:41:16Z</time>
      </trkpt>
      <trkpt lat="41.833294" lon="2.063886">
        <ele>768.3</ele>
        <time>2011-08-19T14:41:16Z</time>
      </trkpt>
      <trkpt lat="41.833236" lon="2.063937">
        <ele>769.5</ele>
        <time>2011-08-19T14:41:16Z</time>
      </trkpt>
      <trkpt lat="41.833195" lon="2.063998">
        <ele>770.7</ele>
        <time>2011-08-19T14:41:16Z</time>
      </trkpt>
      <trkpt lat="41.833177" lon="2.064064">
        <ele>771.4</ele>
        <time>2011-08-19T14:41:16Z</time>
      </trkpt>
      <trkpt lat="41.833177" lon="2.064162">
        <ele>771.7</ele>
        <time>2011-08-19T14:41:16Z</time>
      </trkpt>
      <trkpt lat="41.833197" lon="2.064286">
        <ele>771.6</ele>
        <time>2011-08-19T14:41:16Z</time>
      </trkpt>
      <trkpt lat="41.833222" lon="2.064374">
        <ele>772.3</ele>
        <time>2011-08-19T14:41:16Z</time>
      </trkpt>
      <trkpt lat="41.833253" lon="2.064484">
        <ele>773.4</ele>
        <time>2011-08-19T14:41:16Z</time>
      </trkpt>
      <trkpt lat="41.833281" lon="2.064572">
        <ele>774.2</ele>
        <time>2011-08-19T14:41:16Z</time>
      </trkpt>
      <trkpt lat="41.833325" lon="2.064665">
        <ele>774.6</ele>
        <time>2011-08-19T14:41:16Z</time>
      </trkpt>
      <trkpt lat="41.833369" lon="2.064752">
        <ele>774.8</ele>
        <time>2011-08-19T14:41:16Z</time>
      </trkpt>
      <trkpt lat="41.833415" lon="2.064855">
        <ele>775.6</ele>
        <time>2011-08-19T14:41:16Z</time>
      </trkpt>
      <trkpt lat="41.833432" lon="2.064928">
        <ele>776.5</ele>
        <time>2011-08-19T14:41:16Z</time>
      </trkpt>
      <trkpt lat="41.833450" lon="2.065039">
        <ele>778.0</ele>
        <time>2011-08-19T14:41:16Z</time>
      </trkpt>
      <trkpt lat="41.833493" lon="2.065159">
        <ele>779.1</ele>
        <time>2011-08-19T14:41:16Z</time>
      </trkpt>
      <trkpt lat="41.833571" lon="2.065241">
        <ele>780.2</ele>
        <time>2011-08-19T14:41:16Z</time>
      </trkpt>
      <trkpt lat="41.833641" lon="2.065308">
        <ele>781.4</ele>
        <time>2011-08-19T14:41:16Z</time>
      </trkpt>
      <trkpt lat="41.833725" lon="2.065388">
        <ele>782.7</ele>
        <time>2011-08-19T14:41:16Z</time>
      </trkpt>
      <trkpt lat="41.833793" lon="2.065422">
        <ele>782.9</ele>
        <time>2011-08-19T14:41:16Z</time>
      </trkpt>
      <trkpt lat="41.833846" lon="2.065482">
        <ele>783.1</ele>
        <time>2011-08-19T14:41:16Z</time>
      </trkpt>
      <trkpt lat="41.833922" lon="2.065523">
        <ele>783.6</ele>
        <time>2011-08-19T14:41:16Z</time>
      </trkpt>
      <trkpt lat="41.834004" lon="2.065578">
        <ele>784.5</ele>
        <time>2011-08-19T14:41:16Z</time>
      </trkpt>
      <trkpt lat="41.834077" lon="2.065597">
        <ele>785.1</ele>
        <time>2011-08-19T14:41:16Z</time>
      </trkpt>
      <trkpt lat="41.834140" lon="2.065611">
        <ele>785.5</ele>
        <time>2011-08-19T14:41:16Z</time>
      </trkpt>
      <trkpt lat="41.834229" lon="2.065640">
        <ele>786.3</ele>
        <time>2011-08-19T14:41:16Z</time>
      </trkpt>
      <trkpt lat="41.834327" lon="2.065681">
        <ele>787.3</ele>
        <time>2011-08-19T14:41:16Z</time>
      </trkpt>
      <trkpt lat="41.834405" lon="2.065736">
        <ele>787.4</ele>
        <time>2011-08-19T14:41:16Z</time>
      </trkpt>
      <trkpt lat="41.834458" lon="2.065808">
        <ele>787.6</ele>
        <time>2011-08-19T14:41:16Z</time>
      </trkpt>
      <trkpt lat="41.834510" lon="2.065886">
        <ele>788.3</ele>
        <time>2011-08-19T14:41:16Z</time>
      </trkpt>
      <trkpt lat="41.834571" lon="2.065986">
        <ele>789.7</ele>
        <time>2011-08-19T14:41:16Z</time>
      </trkpt>
      <trkpt lat="41.834611" lon="2.066048">
        <ele>790.6</ele>
        <time>2011-08-19T14:41:16Z</time>
      </trkpt>
      <trkpt lat="41.834650" lon="2.066138">
        <ele>791.5</ele>
        <time>2011-08-19T14:41:16Z</time>
      </trkpt>
      <trkpt lat="41.834688" lon="2.066241">
        <ele>792.7</ele>
        <time>2011-08-19T14:41:16Z</time>
      </trkpt>
      <trkpt lat="41.834713" lon="2.066324">
        <ele>793.7</ele>
        <time>2011-08-19T14:41:16Z</time>
      </trkpt>
      <trkpt lat="41.834744" lon="2.066445">
        <ele>795.4</ele>
        <time>2011-08-19T14:41:16Z</time>
      </trkpt>
      <trkpt lat="41.834770" lon="2.066523">
        <ele>796.1</ele>
        <time>2011-08-19T14:41:16Z</time>
      </trkpt>
      <trkpt lat="41.834797" lon="2.066590">
        <ele>796.9</ele>
        <time>2011-08-19T14:41:16Z</time>
      </trkpt>
      <trkpt lat="41.834829" lon="2.066668">
        <ele>797.8</ele>
        <time>2011-08-19T14:41:16Z</time>
      </trkpt>
      <trkpt lat="41.834856" lon="2.066768">
        <ele>798.8</ele>
        <time>2011-08-19T14:41:16Z</time>
      </trkpt>
      <trkpt lat="41.834905" lon="2.066889">
        <ele>799.5</ele>
        <time>2011-08-19T14:41:16Z</time>
      </trkpt>
      <trkpt lat="41.834943" lon="2.066966">
        <ele>799.9</ele>
        <time>2011-08-19T14:41:16Z</time>
      </trkpt>
      <trkpt lat="41.834974" lon="2.067031">
        <ele>800.2</ele>
        <time>2011-08-19T14:41:16Z</time>
      </trkpt>
      <trkpt lat="41.835036" lon="2.067099">
        <ele>800.9</ele>
        <time>2011-08-19T14:41:16Z</time>
      </trkpt>
      <trkpt lat="41.835097" lon="2.067168">
        <ele>801.6</ele>
        <time>2011-08-19T14:41:16Z</time>
      </trkpt>
      <trkpt lat="41.835192" lon="2.067240">
        <ele>802.7</ele>
        <time>2011-08-19T14:41:16Z</time>
      </trkpt>
      <trkpt lat="41.835268" lon="2.067307">
        <ele>803.5</ele>
        <time>2011-08-19T14:41:16Z</time>
      </trkpt>
      <trkpt lat="41.835339" lon="2.067382">
        <ele>804.3</ele>
        <time>2011-08-19T14:41:16Z</time>
      </trkpt>
      <trkpt lat="41.835398" lon="2.067459">
        <ele>804.9</ele>
        <time>2011-08-19T14:41:16Z</time>
      </trkpt>
      <trkpt lat="41.835476" lon="2.067556">
        <ele>805.3</ele>
        <time>2011-08-19T14:41:16Z</time>
      </trkpt>
      <trkpt lat="41.835535" lon="2.067634">
        <ele>805.7</ele>
        <time>2011-08-19T14:41:16Z</time>
      </trkpt>
      <trkpt lat="41.835590" lon="2.067703">
        <ele>806.1</ele>
        <time>2011-08-19T14:41:16Z</time>
      </trkpt>
      <trkpt lat="41.835645" lon="2.067771">
        <ele>806.5</ele>
        <time>2011-08-19T14:41:16Z</time>
      </trkpt>
      <trkpt lat="41.835699" lon="2.067828">
        <ele>806.7</ele>
        <time>2011-08-19T14:41:16Z</time>
      </trkpt>
      <trkpt lat="41.835750" lon="2.067890">
        <ele>807.0</ele>
        <time>2011-08-19T14:41:16Z</time>
      </trkpt>
      <trkpt lat="41.835815" lon="2.067965">
        <ele>807.4</ele>
        <time>2011-08-19T14:41:16Z</time>
      </trkpt>
      <trkpt lat="41.835859" lon="2.068020">
        <ele>807.7</ele>
        <time>2011-08-19T14:41:16Z</time>
      </trkpt>
      <trkpt lat="41.835908" lon="2.068077">
        <ele>808.0</ele>
        <time>2011-08-19T14:41:16Z</time>
      </trkpt>
      <trkpt lat="41.835960" lon="2.068144">
        <ele>808.3</ele>
        <time>2011-08-19T14:41:16Z</time>
      </trkpt>
      <trkpt lat="41.836015" lon="2.068224">
        <ele>808.8</ele>
        <time>2011-08-19T14:41:16Z</time>
      </trkpt>
      <trkpt lat="41.836061" lon="2.068304">
        <ele>809.3</ele>
        <time>2011-08-19T14:41:16Z</time>
      </trkpt>
      <trkpt lat="41.836099" lon="2.068377">
        <ele>809.8</ele>
        <time>2011-08-19T14:41:16Z</time>
      </trkpt>
      <trkpt lat="41.836134" lon="2.068452">
        <ele>810.3</ele>
        <time>2011-08-19T14:41:16Z</time>
      </trkpt>
      <trkpt lat="41.836163" lon="2.068543">
        <ele>810.9</ele>
        <time>2011-08-19T14:41:16Z</time>
      </trkpt>
      <trkpt lat="41.836182" lon="2.068615">
        <ele>811.4</ele>
        <time>2011-08-19T14:41:16Z</time>
      </trkpt>
      <trkpt lat="41.836198" lon="2.068721">
        <ele>811.9</ele>
        <time>2011-08-19T14:41:16Z</time>
      </trkpt>
      <trkpt lat="41.836199" lon="2.068850">
        <ele>812.6</ele>
        <time>2011-08-19T14:41:16Z</time>
      </trkpt>
      <trkpt lat="41.836204" lon="2.068956">
        <ele>813.1</ele>
        <time>2011-08-19T14:41:16Z</time>
      </trkpt>
      <trkpt lat="41.836203" lon="2.069046">
        <ele>813.2</ele>
        <time>2011-08-19T14:41:16Z</time>
      </trkpt>
      <trkpt lat="41.836183" lon="2.069153">
        <ele>813.4</ele>
        <time>2011-08-19T14:41:16Z</time>
      </trkpt>
      <trkpt lat="41.836161" lon="2.069276">
        <ele>813.7</ele>
        <time>2011-08-19T14:41:16Z</time>
      </trkpt>
      <trkpt lat="41.836145" lon="2.069368">
        <ele>814.0</ele>
        <time>2011-08-19T14:41:16Z</time>
      </trkpt>
      <trkpt lat="41.836118" lon="2.069481">
        <ele>814.5</ele>
        <time>2011-08-19T14:41:16Z</time>
      </trkpt>
      <trkpt lat="41.836092" lon="2.069590">
        <ele>815.0</ele>
        <time>2011-08-19T14:41:16Z</time>
      </trkpt>
      <trkpt lat="41.836072" lon="2.069679">
        <ele>815.4</ele>
        <time>2011-08-19T14:41:16Z</time>
      </trkpt>
      <trkpt lat="41.836052" lon="2.069762">
        <ele>815.6</ele>
        <time>2011-08-19T14:41:16Z</time>
      </trkpt>
      <trkpt lat="41.836019" lon="2.069906">
        <ele>816.1</ele>
        <time>2011-08-19T14:41:16Z</time>
      </trkpt>
      <trkpt lat="41.835988" lon="2.070020">
        <ele>816.6</ele>
        <time>2011-08-19T14:41:16Z</time>
      </trkpt>
      <trkpt lat="41.835961" lon="2.070129">
        <ele>816.5</ele>
        <time>2011-08-19T14:41:16Z</time>
      </trkpt>
      <trkpt lat="41.835939" lon="2.070213">
        <ele>816.5</ele>
        <time>2011-08-19T14:41:16Z</time>
      </trkpt>
      <trkpt lat="41.835902" lon="2.070312">
        <ele>816.6</ele>
        <time>2011-08-19T14:41:16Z</time>
      </trkpt>
      <trkpt lat="41.835861" lon="2.070406">
        <ele>816.9</ele>
        <time>2011-08-19T14:41:16Z</time>
      </trkpt>
      <trkpt lat="41.835822" lon="2.070500">
        <ele>816.9</ele>
        <time>2011-08-19T14:41:16Z</time>
      </trkpt>
      <trkpt lat="41.835789" lon="2.070588">
        <ele>816.9</ele>
        <time>2011-08-19T14:41:16Z</time>
      </trkpt>
      <trkpt lat="41.835771" lon="2.070669">
        <ele>816.8</ele>
        <time>2011-08-19T14:41:16Z</time>
      </trkpt>
      <trkpt lat="41.835734" lon="2.070824">
        <ele>816.8</ele>
        <time>2011-08-19T14:41:16Z</time>
      </trkpt>
      <trkpt lat="41.835700" lon="2.070973">
        <ele>816.9</ele>
        <time>2011-08-19T14:41:16Z</time>
      </trkpt>
      <trkpt lat="41.835680" lon="2.071094">
        <ele>816.7</ele>
        <time>2011-08-19T14:41:16Z</time>
      </trkpt>
      <trkpt lat="41.835675" lon="2.071205">
        <ele>816.0</ele>
        <time>2011-08-19T14:41:16Z</time>
      </trkpt>
      <trkpt lat="41.835670" lon="2.071329">
        <ele>815.2</ele>
        <time>2011-08-19T14:41:16Z</time>
      </trkpt>
      <trkpt lat="41.835657" lon="2.071463">
        <ele>814.6</ele>
        <time>2011-08-19T14:41:16Z</time>
      </trkpt>
      <trkpt lat="41.835648" lon="2.071576">
        <ele>814.1</ele>
        <time>2011-08-19T14:41:16Z</time>
      </trkpt>
      <trkpt lat="41.835645" lon="2.071677">
        <ele>813.5</ele>
        <time>2011-08-19T14:41:16Z</time>
      </trkpt>
      <trkpt lat="41.835644" lon="2.071793">
        <ele>812.8</ele>
        <time>2011-08-19T14:41:16Z</time>
      </trkpt>
      <trkpt lat="41.835641" lon="2.071909">
        <ele>811.8</ele>
        <time>2011-08-19T14:41:16Z</time>
      </trkpt>
      <trkpt lat="41.835638" lon="2.072041">
        <ele>810.6</ele>
        <time>2011-08-19T14:41:16Z</time>
      </trkpt>
      <trkpt lat="41.835634" lon="2.072142">
        <ele>809.7</ele>
        <time>2011-08-19T14:41:16Z</time>
      </trkpt>
      <trkpt lat="41.835624" lon="2.072288">
        <ele>808.7</ele>
        <time>2011-08-19T14:41:16Z</time>
      </trkpt>
      <trkpt lat="41.835615" lon="2.072417">
        <ele>808.0</ele>
        <time>2011-08-19T14:41:16Z</time>
      </trkpt>
      <trkpt lat="41.835595" lon="2.072533">
        <ele>807.5</ele>
        <time>2011-08-19T14:41:16Z</time>
      </trkpt>
      <trkpt lat="41.835572" lon="2.072647">
        <ele>807.1</ele>
        <time>2011-08-19T14:41:16Z</time>
      </trkpt>
      <trkpt lat="41.835539" lon="2.072763">
        <ele>806.8</ele>
        <time>2011-08-19T14:41:16Z</time>
      </trkpt>
      <trkpt lat="41.835511" lon="2.072852">
        <ele>806.6</ele>
        <time>2011-08-19T14:41:16Z</time>
      </trkpt>
      <trkpt lat="41.835476" lon="2.072921">
        <ele>806.6</ele>
        <time>2011-08-19T14:41:16Z</time>
      </trkpt>
      <trkpt lat="41.835426" lon="2.073002">
        <ele>806.9</ele>
        <time>2011-08-19T14:41:16Z</time>
      </trkpt>
      <trkpt lat="41.835384" lon="2.073040">
        <ele>806.8</ele>
        <time>2011-08-19T14:41:16Z</time>
      </trkpt>
      <trkpt lat="41.835291" lon="2.073120">
        <ele>806.7</ele>
        <time>2011-08-19T14:41:16Z</time>
      </trkpt>
      <trkpt lat="41.835238" lon="2.073149">
        <ele>806.7</ele>
        <time>2011-08-19T14:41:16Z</time>
      </trkpt>
      <trkpt lat="41.835176" lon="2.073195">
        <ele>806.5</ele>
        <time>2011-08-19T14:41:16Z</time>
      </trkpt>
      <trkpt lat="41.835122" lon="2.073238">
        <ele>806.1</ele>
        <time>2011-08-19T14:41:16Z</time>
      </trkpt>
      <trkpt lat="41.835055" lon="2.073305">
        <ele>805.5</ele>
        <time>2011-08-19T14:41:16Z</time>
      </trkpt>
      <trkpt lat="41.834997" lon="2.073354">
        <ele>805.4</ele>
        <time>2011-08-19T14:41:16Z</time>
      </trkpt>
      <trkpt lat="41.834931" lon="2.073413">
        <ele>805.1</ele>
        <time>2011-08-19T14:41:16Z</time>
      </trkpt>
      <trkpt lat="41.834865" lon="2.073459">
        <ele>804.5</ele>
        <time>2011-08-19T14:41:16Z</time>
      </trkpt>
      <trkpt lat="41.834790" lon="2.073505">
        <ele>803.6</ele>
        <time>2011-08-19T14:41:16Z</time>
      </trkpt>
      <trkpt lat="41.834738" lon="2.073549">
        <ele>803.0</ele>
        <time>2011-08-19T14:41:16Z</time>
      </trkpt>
      <trkpt lat="41.834683" lon="2.073595">
        <ele>802.4</ele>
        <time>2011-08-19T14:41:16Z</time>
      </trkpt>
      <trkpt lat="41.834608" lon="2.073647">
        <ele>801.6</ele>
        <time>2011-08-19T14:41:16Z</time>
      </trkpt>
      <trkpt lat="41.834518" lon="2.073706">
        <ele>800.8</ele>
        <time>2011-08-19T14:41:16Z</time>
      </trkpt>
      <trkpt lat="41.834468" lon="2.073757">
        <ele>800.4</ele>
        <time>2011-08-19T14:41:16Z</time>
      </trkpt>
      <trkpt lat="41.834420" lon="2.073834">
        <ele>800.0</ele>
        <time>2011-08-19T14:41:16Z</time>
      </trkpt>
      <trkpt lat="41.834384" lon="2.073912">
        <ele>799.8</ele>
        <time>2011-08-19T14:41:16Z</time>
      </trkpt>
      <trkpt lat="41.834368" lon="2.073996">
        <ele>799.7</ele>
        <time>2011-08-19T14:41:16Z</time>
      </trkpt>
      <trkpt lat="41.834363" lon="2.074125">
        <ele>799.1</ele>
        <time>2011-08-19T14:41:16Z</time>
      </trkpt>
      <trkpt lat="41.834374" lon="2.074248">
        <ele>798.6</ele>
        <time>2011-08-19T14:41:16Z</time>
      </trkpt>
      <trkpt lat="41.834390" lon="2.074371">
        <ele>798.3</ele>
        <time>2011-08-19T14:41:16Z</time>
      </trkpt>
      <trkpt lat="41.834408" lon="2.074472">
        <ele>798.3</ele>
        <time>2011-08-19T14:41:16Z</time>
      </trkpt>
      <trkpt lat="41.834418" lon="2.074568">
        <ele>798.2</ele>
        <time>2011-08-19T14:41:16Z</time>
      </trkpt>
      <trkpt lat="41.834428" lon="2.074681">
        <ele>798.1</ele>
        <time>2011-08-19T14:41:16Z</time>
      </trkpt>
      <trkpt lat="41.834433" lon="2.074779">
        <ele>798.1</ele>
        <time>2011-08-19T14:41:16Z</time>
      </trkpt>
      <trkpt lat="41.834443" lon="2.074887">
        <ele>798.7</ele>
        <time>2011-08-19T14:41:16Z</time>
      </trkpt>
      <trkpt lat="41.834442" lon="2.074981">
        <ele>799.1</ele>
        <time>2011-08-19T14:41:16Z</time>
      </trkpt>
      <trkpt lat="41.834422" lon="2.075042">
        <ele>799.1</ele>
        <time>2011-08-19T14:41:16Z</time>
      </trkpt>
      <trkpt lat="41.834377" lon="2.075085">
        <ele>798.9</ele>
        <time>2011-08-19T14:41:16Z</time>
      </trkpt>
      <trkpt lat="41.834332" lon="2.075106">
        <ele>799.2</ele>
        <time>2011-08-19T14:41:16Z</time>
      </trkpt>
      <trkpt lat="41.834303" lon="2.075114">
        <ele>799.4</ele>
        <time>2011-08-19T14:41:16Z</time>
      </trkpt>
      <trkpt lat="41.834222" lon="2.075110">
        <ele>799.6</ele>
        <time>2011-08-19T14:41:16Z</time>
      </trkpt>
      <trkpt lat="41.834147" lon="2.075109">
        <ele>799.8</ele>
        <time>2011-08-19T14:41:16Z</time>
      </trkpt>
      <trkpt lat="41.834075" lon="2.075077">
        <ele>800.0</ele>
        <time>2011-08-19T14:41:16Z</time>
      </trkpt>
      <trkpt lat="41.833997" lon="2.075033">
        <ele>800.5</ele>
        <time>2011-08-19T14:41:16Z</time>
      </trkpt>
      <trkpt lat="41.833927" lon="2.074998">
        <ele>801.0</ele>
        <time>2011-08-19T14:41:16Z</time>
      </trkpt>
      <trkpt lat="41.833833" lon="2.074974">
        <ele>801.9</ele>
        <time>2011-08-19T14:41:16Z</time>
      </trkpt>
      <trkpt lat="41.833780" lon="2.074975">
        <ele>802.1</ele>
        <time>2011-08-19T14:41:16Z</time>
      </trkpt>
      <trkpt lat="41.833695" lon="2.074987">
        <ele>802.6</ele>
        <time>2011-08-19T14:41:16Z</time>
      </trkpt>
      <trkpt lat="41.833624" lon="2.075015">
        <ele>803.5</ele>
        <time>2011-08-19T14:41:16Z</time>
      </trkpt>
      <trkpt lat="41.833524" lon="2.075062">
        <ele>804.0</ele>
        <time>2011-08-19T14:41:16Z</time>
      </trkpt>
      <trkpt lat="41.833445" lon="2.075104">
        <ele>804.1</ele>
        <time>2011-08-19T14:41:16Z</time>
      </trkpt>
      <trkpt lat="41.833404" lon="2.075140">
        <ele>804.5</ele>
        <time>2011-08-19T14:41:16Z</time>
      </trkpt>
      <trkpt lat="41.833335" lon="2.075219">
        <ele>805.5</ele>
        <time>2011-08-19T14:41:16Z</time>
      </trkpt>
      <trkpt lat="41.833256" lon="2.075326">
        <ele>806.1</ele>
        <time>2011-08-19T14:41:16Z</time>
      </trkpt>
      <trkpt lat="41.833204" lon="2.075392">
        <ele>806.1</ele>
        <time>2011-08-19T14:41:16Z</time>
      </trkpt>
      <trkpt lat="41.833148" lon="2.075469">
        <ele>806.4</ele>
        <time>2011-08-19T14:41:16Z</time>
      </trkpt>
      <trkpt lat="41.833101" lon="2.075520">
        <ele>806.3</ele>
        <time>2011-08-19T14:41:16Z</time>
      </trkpt>
      <trkpt lat="41.833042" lon="2.075576">
        <ele>806.0</ele>
        <time>2011-08-19T14:41:16Z</time>
      </trkpt>
      <trkpt lat="41.832980" lon="2.075630">
        <ele>806.6</ele>
        <time>2011-08-19T14:41:16Z</time>
      </trkpt>
      <trkpt lat="41.832933" lon="2.075651">
        <ele>806.7</ele>
        <time>2011-08-19T14:41:16Z</time>
      </trkpt>
      <trkpt lat="41.832854" lon="2.075662">
        <ele>806.4</ele>
        <time>2011-08-19T14:41:16Z</time>
      </trkpt>
      <trkpt lat="41.832750" lon="2.075653">
        <ele>805.5</ele>
        <time>2011-08-19T14:41:16Z</time>
      </trkpt>
      <trkpt lat="41.832686" lon="2.075649">
        <ele>805.6</ele>
        <time>2011-08-19T14:41:16Z</time>
      </trkpt>
      <trkpt lat="41.832584" lon="2.075656">
        <ele>806.0</ele>
        <time>2011-08-19T14:41:16Z</time>
      </trkpt>
      <trkpt lat="41.832510" lon="2.075654">
        <ele>806.2</ele>
        <time>2011-08-19T14:41:16Z</time>
      </trkpt>
      <trkpt lat="41.832433" lon="2.075673">
        <ele>806.6</ele>
        <time>2011-08-19T14:41:16Z</time>
      </trkpt>
      <trkpt lat="41.832347" lon="2.075684">
        <ele>806.6</ele>
        <time>2011-08-19T14:41:16Z</time>
      </trkpt>
      <trkpt lat="41.832269" lon="2.075693">
        <ele>806.6</ele>
        <time>2011-08-19T14:41:16Z</time>
      </trkpt>
      <trkpt lat="41.832194" lon="2.075702">
        <ele>806.5</ele>
        <time>2011-08-19T14:41:16Z</time>
      </trkpt>
      <trkpt lat="41.832100" lon="2.075718">
        <ele>806.5</ele>
        <time>2011-08-19T14:41:16Z</time>
      </trkpt>
      <trkpt lat="41.832028" lon="2.075737">
        <ele>806.7</ele>
        <time>2011-08-19T14:41:16Z</time>
      </trkpt>
      <trkpt lat="41.831958" lon="2.075753">
        <ele>806.9</ele>
        <time>2011-08-19T14:41:16Z</time>
      </trkpt>
      <trkpt lat="41.831887" lon="2.075777">
        <ele>807.4</ele>
        <time>2011-08-19T14:41:16Z</time>
      </trkpt>
      <trkpt lat="41.831821" lon="2.075775">
        <ele>806.9</ele>
        <time>2011-08-19T14:41:16Z</time>
      </trkpt>
      <trkpt lat="41.831755" lon="2.075779">
        <ele>806.6</ele>
        <time>2011-08-19T14:41:16Z</time>
      </trkpt>
      <trkpt lat="41.831676" lon="2.075785">
        <ele>806.4</ele>
        <time>2011-08-19T14:41:16Z</time>
      </trkpt>
      <trkpt lat="41.831582" lon="2.075796">
        <ele>806.6</ele>
        <time>2011-08-19T14:41:16Z</time>
      </trkpt>
      <trkpt lat="41.831516" lon="2.075807">
        <ele>806.8</ele>
        <time>2011-08-19T14:41:16Z</time>
      </trkpt>
      <trkpt lat="41.831444" lon="2.075826">
        <ele>807.2</ele>
        <time>2011-08-19T14:41:16Z</time>
      </trkpt>
      <trkpt lat="41.831377" lon="2.075860">
        <ele>807.7</ele>
        <time>2011-08-19T14:41:16Z</time>
      </trkpt>
      <trkpt lat="41.831301" lon="2.075894">
        <ele>807.2</ele>
        <time>2011-08-19T14:41:16Z</time>
      </trkpt>
      <trkpt lat="41.831241" lon="2.075925">
        <ele>806.8</ele>
        <time>2011-08-19T14:41:16Z</time>
      </trkpt>
      <trkpt lat="41.831147" lon="2.075974">
        <ele>806.1</ele>
        <time>2011-08-19T14:41:16Z</time>
      </trkpt>
      <trkpt lat="41.831097" lon="2.076023">
        <ele>806.4</ele>
        <time>2011-08-19T14:41:16Z</time>
      </trkpt>
      <trkpt lat="41.831037" lon="2.076049">
        <ele>806.1</ele>
        <time>2011-08-19T14:41:16Z</time>
      </trkpt>
      <trkpt lat="41.830973" lon="2.076085">
        <ele>805.9</ele>
        <time>2011-08-19T14:41:16Z</time>
      </trkpt>
      <trkpt lat="41.830920" lon="2.076126">
        <ele>806.0</ele>
        <time>2011-08-19T14:41:16Z</time>
      </trkpt>
      <trkpt lat="41.830834" lon="2.076183">
        <ele>806.5</ele>
        <time>2011-08-19T14:41:16Z</time>
      </trkpt>
      <trkpt lat="41.830774" lon="2.076219">
        <ele>807.1</ele>
        <time>2011-08-19T14:41:16Z</time>
      </trkpt>
      <trkpt lat="41.830712" lon="2.076232">
        <ele>807.1</ele>
        <time>2011-08-19T14:41:16Z</time>
      </trkpt>
      <trkpt lat="41.830663" lon="2.076233">
        <ele>807.0</ele>
        <time>2011-08-19T14:41:16Z</time>
      </trkpt>
      <trkpt lat="41.830608" lon="2.076196">
        <ele>806.2</ele>
        <time>2011-08-19T14:41:16Z</time>
      </trkpt>
      <trkpt lat="41.830562" lon="2.076162">
        <ele>806.6</ele>
        <time>2011-08-19T14:41:16Z</time>
      </trkpt>
      <trkpt lat="41.830503" lon="2.076104">
        <ele>806.9</ele>
        <time>2011-08-19T14:41:16Z</time>
      </trkpt>
      <trkpt lat="41.830479" lon="2.076077">
        <ele>807.1</ele>
        <time>2011-08-19T14:41:16Z</time>
      </trkpt>
      <trkpt lat="41.830446" lon="2.076004">
        <ele>806.8</ele>
        <time>2011-08-19T14:41:16Z</time>
      </trkpt>
      <trkpt lat="41.830429" lon="2.075949">
        <ele>806.5</ele>
        <time>2011-08-19T14:41:16Z</time>
      </trkpt>
      <trkpt lat="41.830403" lon="2.075854">
        <ele>806.1</ele>
        <time>2011-08-19T14:41:16Z</time>
      </trkpt>
      <trkpt lat="41.830393" lon="2.075758">
        <ele>805.6</ele>
        <time>2011-08-19T14:41:16Z</time>
      </trkpt>
      <trkpt lat="41.830368" lon="2.075657">
        <ele>805.6</ele>
        <time>2011-08-19T14:41:16Z</time>
      </trkpt>
      <trkpt lat="41.830331" lon="2.075570">
        <ele>806.3</ele>
        <time>2011-08-19T14:41:16Z</time>
      </trkpt>
      <trkpt lat="41.830281" lon="2.075480">
        <ele>805.8</ele>
        <time>2011-08-19T14:41:16Z</time>
      </trkpt>
      <trkpt lat="41.830232" lon="2.075407">
        <ele>805.1</ele>
        <time>2011-08-19T14:41:16Z</time>
      </trkpt>
      <trkpt lat="41.830163" lon="2.075338">
        <ele>804.9</ele>
        <time>2011-08-19T14:41:16Z</time>
      </trkpt>
      <trkpt lat="41.830076" lon="2.075293">
        <ele>805.8</ele>
        <time>2011-08-19T14:41:16Z</time>
      </trkpt>
      <trkpt lat="41.829986" lon="2.075277">
        <ele>806.7</ele>
        <time>2011-08-19T14:41:16Z</time>
      </trkpt>
      <trkpt lat="41.829904" lon="2.075238">
        <ele>807.2</ele>
        <time>2011-08-19T14:41:16Z</time>
      </trkpt>
      <trkpt lat="41.829832" lon="2.075181">
        <ele>807.5</ele>
        <time>2011-08-19T14:41:16Z</time>
      </trkpt>
      <trkpt lat="41.829766" lon="2.075136">
        <ele>806.9</ele>
        <time>2011-08-19T14:41:16Z</time>
      </trkpt>
      <trkpt lat="41.829673" lon="2.075105">
        <ele>806.3</ele>
        <time>2011-08-19T14:41:16Z</time>
      </trkpt>
      <trkpt lat="41.829618" lon="2.075118">
        <ele>807.0</ele>
        <time>2011-08-19T14:41:16Z</time>
      </trkpt>
      <trkpt lat="41.829558" lon="2.075114">
        <ele>807.2</ele>
        <time>2011-08-19T14:41:16Z</time>
      </trkpt>
      <trkpt lat="41.829512" lon="2.075087">
        <ele>806.8</ele>
        <time>2011-08-19T14:41:16Z</time>
      </trkpt>
      <trkpt lat="41.829471" lon="2.075050">
        <ele>806.3</ele>
        <time>2011-08-19T14:41:16Z</time>
      </trkpt>
      <trkpt lat="41.829416" lon="2.075003">
        <ele>805.9</ele>
        <time>2011-08-19T14:41:16Z</time>
      </trkpt>
      <trkpt lat="41.829370" lon="2.074966">
        <ele>805.9</ele>
        <time>2011-08-19T14:41:16Z</time>
      </trkpt>
      <trkpt lat="41.829309" lon="2.074906">
        <ele>805.9</ele>
        <time>2011-08-19T14:41:16Z</time>
      </trkpt>
      <trkpt lat="41.829250" lon="2.074859">
        <ele>806.4</ele>
        <time>2011-08-19T14:41:16Z</time>
      </trkpt>
      <trkpt lat="41.829184" lon="2.074815">
        <ele>806.6</ele>
        <time>2011-08-19T14:41:16Z</time>
      </trkpt>
      <trkpt lat="41.829125" lon="2.074800">
        <ele>807.0</ele>
        <time>2011-08-19T14:41:16Z</time>
      </trkpt>
      <trkpt lat="41.829069" lon="2.074836">
        <ele>808.1</ele>
        <time>2011-08-19T14:41:16Z</time>
      </trkpt>
      <trkpt lat="41.829045" lon="2.074917">
        <ele>808.7</ele>
        <time>2011-08-19T14:41:16Z</time>
      </trkpt>
      <trkpt lat="41.829034" lon="2.074986">
        <ele>809.1</ele>
        <time>2011-08-19T14:41:16Z</time>
      </trkpt>
      <trkpt lat="41.829014" lon="2.075049">
        <ele>809.5</ele>
        <time>2011-08-19T14:41:16Z</time>
      </trkpt>
      <trkpt lat="41.828971" lon="2.075090">
        <ele>809.7</ele>
        <time>2011-08-19T14:41:16Z</time>
      </trkpt>
      <trkpt lat="41.828888" lon="2.075126">
        <ele>809.3</ele>
        <time>2011-08-19T14:41:16Z</time>
      </trkpt>
      <trkpt lat="41.828791" lon="2.075153">
        <ele>808.7</ele>
        <time>2011-08-19T14:41:16Z</time>
      </trkpt>
      <trkpt lat="41.828713" lon="2.075164">
        <ele>808.1</ele>
        <time>2011-08-19T14:41:16Z</time>
      </trkpt>
      <trkpt lat="41.828612" lon="2.075193">
        <ele>807.6</ele>
        <time>2011-08-19T14:41:16Z</time>
      </trkpt>
      <trkpt lat="41.828552" lon="2.075215">
        <ele>807.2</ele>
        <time>2011-08-19T14:41:16Z</time>
      </trkpt>
      <trkpt lat="41.828495" lon="2.075215">
        <ele>806.9</ele>
        <time>2011-08-19T14:41:16Z</time>
      </trkpt>
      <trkpt lat="41.828427" lon="2.075247">
        <ele>806.3</ele>
        <time>2011-08-19T14:41:16Z</time>
      </trkpt>
      <trkpt lat="41.828354" lon="2.075278">
        <ele>806.0</ele>
        <time>2011-08-19T14:41:16Z</time>
      </trkpt>
      <trkpt lat="41.828288" lon="2.075307">
        <ele>805.7</ele>
        <time>2011-08-19T14:41:16Z</time>
      </trkpt>
      <trkpt lat="41.828217" lon="2.075338">
        <ele>805.2</ele>
        <time>2011-08-19T14:41:16Z</time>
      </trkpt>
      <trkpt lat="41.828157" lon="2.075361">
        <ele>804.9</ele>
        <time>2011-08-19T14:41:16Z</time>
      </trkpt>
      <trkpt lat="41.828085" lon="2.075398">
        <ele>804.6</ele>
        <time>2011-08-19T14:41:16Z</time>
      </trkpt>
      <trkpt lat="41.828010" lon="2.075439">
        <ele>804.2</ele>
        <time>2011-08-19T14:41:16Z</time>
      </trkpt>
      <trkpt lat="41.827924" lon="2.075496">
        <ele>803.4</ele>
        <time>2011-08-19T14:41:16Z</time>
      </trkpt>
      <trkpt lat="41.827838" lon="2.075540">
        <ele>802.5</ele>
        <time>2011-08-19T14:41:16Z</time>
      </trkpt>
      <trkpt lat="41.827719" lon="2.075547">
        <ele>802.4</ele>
        <time>2011-08-19T14:41:16Z</time>
      </trkpt>
      <trkpt lat="41.827647" lon="2.075533">
        <ele>802.8</ele>
        <time>2011-08-19T14:41:16Z</time>
      </trkpt>
      <trkpt lat="41.827562" lon="2.075506">
        <ele>802.8</ele>
        <time>2011-08-19T14:41:16Z</time>
      </trkpt>
      <trkpt lat="41.827473" lon="2.075487">
        <ele>802.5</ele>
        <time>2011-08-19T14:41:16Z</time>
      </trkpt>
      <trkpt lat="41.827326" lon="2.075484">
        <ele>801.4</ele>
        <time>2011-08-19T14:41:16Z</time>
      </trkpt>
      <trkpt lat="41.827239" lon="2.075458">
        <ele>801.2</ele>
        <time>2011-08-19T14:41:16Z</time>
      </trkpt>
      <trkpt lat="41.827167" lon="2.075466">
        <ele>800.4</ele>
        <time>2011-08-19T14:41:16Z</time>
      </trkpt>
      <trkpt lat="41.827098" lon="2.075467">
        <ele>799.8</ele>
        <time>2011-08-19T14:41:16Z</time>
      </trkpt>
      <trkpt lat="41.827045" lon="2.075468">
        <ele>799.4</ele>
        <time>2011-08-19T14:41:16Z</time>
      </trkpt>
      <trkpt lat="41.826936" lon="2.075475">
        <ele>798.5</ele>
        <time>2011-08-19T14:41:16Z</time>
      </trkpt>
      <trkpt lat="41.826873" lon="2.075478">
        <ele>798.0</ele>
        <time>2011-08-19T14:41:16Z</time>
      </trkpt>
      <trkpt lat="41.826798" lon="2.075484">
        <ele>797.5</ele>
        <time>2011-08-19T14:41:16Z</time>
      </trkpt>
      <trkpt lat="41.826739" lon="2.075493">
        <ele>797.3</ele>
        <time>2011-08-19T14:41:16Z</time>
      </trkpt>
      <trkpt lat="41.826657" lon="2.075504">
        <ele>797.0</ele>
        <time>2011-08-19T14:41:16Z</time>
      </trkpt>
      <trkpt lat="41.826583" lon="2.075523">
        <ele>796.7</ele>
        <time>2011-08-19T14:41:16Z</time>
      </trkpt>
      <trkpt lat="41.826506" lon="2.075549">
        <ele>796.6</ele>
        <time>2011-08-19T14:41:16Z</time>
      </trkpt>
      <trkpt lat="41.826431" lon="2.075578">
        <ele>796.9</ele>
        <time>2011-08-19T14:41:16Z</time>
      </trkpt>
      <trkpt lat="41.826380" lon="2.075604">
        <ele>797.0</ele>
        <time>2011-08-19T14:41:16Z</time>
      </trkpt>
      <trkpt lat="41.826327" lon="2.075635">
        <ele>796.9</ele>
        <time>2011-08-19T14:41:16Z</time>
      </trkpt>
      <trkpt lat="41.826253" lon="2.075686">
        <ele>796.6</ele>
        <time>2011-08-19T14:41:16Z</time>
      </trkpt>
      <trkpt lat="41.826207" lon="2.075722">
        <ele>796.4</ele>
        <time>2011-08-19T14:41:16Z</time>
      </trkpt>
      <trkpt lat="41.826155" lon="2.075758">
        <ele>796.4</ele>
        <time>2011-08-19T14:41:16Z</time>
      </trkpt>
      <trkpt lat="41.826104" lon="2.075782">
        <ele>796.5</ele>
        <time>2011-08-19T14:41:16Z</time>
      </trkpt>
      <trkpt lat="41.826050" lon="2.075803">
        <ele>796.7</ele>
        <time>2011-08-19T14:41:16Z</time>
      </trkpt>
      <trkpt lat="41.825982" lon="2.075836">
        <ele>796.4</ele>
        <time>2011-08-19T14:41:16Z</time>
      </trkpt>
      <trkpt lat="41.825903" lon="2.075873">
        <ele>795.7</ele>
        <time>2011-08-19T14:41:16Z</time>
      </trkpt>
      <trkpt lat="41.825805" lon="2.075907">
        <ele>795.2</ele>
        <time>2011-08-19T14:41:16Z</time>
      </trkpt>
      <trkpt lat="41.825740" lon="2.075936">
        <ele>795.0</ele>
        <time>2011-08-19T14:41:16Z</time>
      </trkpt>
      <trkpt lat="41.825689" lon="2.075962">
        <ele>794.7</ele>
        <time>2011-08-19T14:41:16Z</time>
      </trkpt>
      <trkpt lat="41.825648" lon="2.075983">
        <ele>794.2</ele>
        <time>2011-08-19T14:41:16Z</time>
      </trkpt>
      <trkpt lat="41.825578" lon="2.076026">
        <ele>793.3</ele>
        <time>2011-08-19T14:41:16Z</time>
      </trkpt>
      <trkpt lat="41.825492" lon="2.076083">
        <ele>792.3</ele>
        <time>2011-08-19T14:41:16Z</time>
      </trkpt>
      <trkpt lat="41.825439" lon="2.076119">
        <ele>791.5</ele>
        <time>2011-08-19T14:41:16Z</time>
      </trkpt>
      <trkpt lat="41.825391" lon="2.076150">
        <ele>790.7</ele>
        <time>2011-08-19T14:41:16Z</time>
      </trkpt>
      <trkpt lat="41.825334" lon="2.076171">
        <ele>790.1</ele>
        <time>2011-08-19T14:41:16Z</time>
      </trkpt>
      <trkpt lat="41.825264" lon="2.076185">
        <ele>789.5</ele>
        <time>2011-08-19T14:41:16Z</time>
      </trkpt>
      <trkpt lat="41.825187" lon="2.076183">
        <ele>789.0</ele>
        <time>2011-08-19T14:41:16Z</time>
      </trkpt>
      <trkpt lat="41.825121" lon="2.076177">
        <ele>788.5</ele>
        <time>2011-08-19T14:41:16Z</time>
      </trkpt>
      <trkpt lat="41.825030" lon="2.076173">
        <ele>787.8</ele>
        <time>2011-08-19T14:41:16Z</time>
      </trkpt>
      <trkpt lat="41.824957" lon="2.076171">
        <ele>787.2</ele>
        <time>2011-08-19T14:41:16Z</time>
      </trkpt>
      <trkpt lat="41.824876" lon="2.076168">
        <ele>786.7</ele>
        <time>2011-08-19T14:41:16Z</time>
      </trkpt>
      <trkpt lat="41.824813" lon="2.076161">
        <ele>786.3</ele>
        <time>2011-08-19T14:41:16Z</time>
      </trkpt>
      <trkpt lat="41.824753" lon="2.076149">
        <ele>786.0</ele>
        <time>2011-08-19T14:41:16Z</time>
      </trkpt>
      <trkpt lat="41.824698" lon="2.076160">
        <ele>785.7</ele>
        <time>2011-08-19T14:41:16Z</time>
      </trkpt>
      <trkpt lat="41.824638" lon="2.076179">
        <ele>785.6</ele>
        <time>2011-08-19T14:41:16Z</time>
      </trkpt>
      <trkpt lat="41.824561" lon="2.076223">
        <ele>785.9</ele>
        <time>2011-08-19T14:41:16Z</time>
      </trkpt>
      <trkpt lat="41.824496" lon="2.076266">
        <ele>786.5</ele>
        <time>2011-08-19T14:41:16Z</time>
      </trkpt>
      <trkpt lat="41.824445" lon="2.076310">
        <ele>787.3</ele>
        <time>2011-08-19T14:41:16Z</time>
      </trkpt>
      <trkpt lat="41.824400" lon="2.076353">
        <ele>787.8</ele>
        <time>2011-08-19T14:41:16Z</time>
      </trkpt>
      <trkpt lat="41.824333" lon="2.076423">
        <ele>786.8</ele>
        <time>2011-08-19T14:41:16Z</time>
      </trkpt>
      <trkpt lat="41.824286" lon="2.076476">
        <ele>786.4</ele>
        <time>2011-08-19T14:41:16Z</time>
      </trkpt>
      <trkpt lat="41.824228" lon="2.076533">
        <ele>786.3</ele>
        <time>2011-08-19T14:41:16Z</time>
      </trkpt>
      <trkpt lat="41.824162" lon="2.076596">
        <ele>786.5</ele>
        <time>2011-08-19T14:41:16Z</time>
      </trkpt>
      <trkpt lat="41.824086" lon="2.076678">
        <ele>786.7</ele>
        <time>2011-08-19T14:41:16Z</time>
      </trkpt>
      <trkpt lat="41.824043" lon="2.076732">
        <ele>786.4</ele>
        <time>2011-08-19T14:41:16Z</time>
      </trkpt>
      <trkpt lat="41.823996" lon="2.076788">
        <ele>786.0</ele>
        <time>2011-08-19T14:41:16Z</time>
      </trkpt>
      <trkpt lat="41.823932" lon="2.076849">
        <ele>786.0</ele>
        <time>2011-08-19T14:41:16Z</time>
      </trkpt>
      <trkpt lat="41.823832" lon="2.076949">
        <ele>785.9</ele>
        <time>2011-08-19T14:41:16Z</time>
      </trkpt>
      <trkpt lat="41.823753" lon="2.077044">
        <ele>785.1</ele>
        <time>2011-08-19T14:41:16Z</time>
      </trkpt>
      <trkpt lat="41.823703" lon="2.077120">
        <ele>784.4</ele>
        <time>2011-08-19T14:41:16Z</time>
      </trkpt>
      <trkpt lat="41.823650" lon="2.077199">
        <ele>783.7</ele>
        <time>2011-08-19T14:41:16Z</time>
      </trkpt>
      <trkpt lat="41.823617" lon="2.077267">
        <ele>783.6</ele>
        <time>2011-08-19T14:41:16Z</time>
      </trkpt>
      <trkpt lat="41.823584" lon="2.077331">
        <ele>783.4</ele>
        <time>2011-08-19T14:41:16Z</time>
      </trkpt>
      <trkpt lat="41.823552" lon="2.077402">
        <ele>782.8</ele>
        <time>2011-08-19T14:41:16Z</time>
      </trkpt>
      <trkpt lat="41.823492" lon="2.077471">
        <ele>781.6</ele>
        <time>2011-08-19T14:41:16Z</time>
      </trkpt>
      <trkpt lat="41.823455" lon="2.077529">
        <ele>780.9</ele>
        <time>2011-08-19T14:41:16Z</time>
      </trkpt>
      <trkpt lat="41.823422" lon="2.077598">
        <ele>780.5</ele>
        <time>2011-08-19T14:41:16Z</time>
      </trkpt>
      <trkpt lat="41.823392" lon="2.077669">
        <ele>780.4</ele>
        <time>2011-08-19T14:41:16Z</time>
      </trkpt>
      <trkpt lat="41.823392" lon="2.077717">
        <ele>780.7</ele>
        <time>2011-08-19T14:41:16Z</time>
      </trkpt>
      <trkpt lat="41.823435" lon="2.077787">
        <ele>781.0</ele>
        <time>2011-08-19T14:41:16Z</time>
      </trkpt>
      <trkpt lat="41.823467" lon="2.077829">
        <ele>780.9</ele>
        <time>2011-08-19T14:41:16Z</time>
      </trkpt>
      <trkpt lat="41.823522" lon="2.077894">
        <ele>780.7</ele>
        <time>2011-08-19T14:41:16Z</time>
      </trkpt>
      <trkpt lat="41.823576" lon="2.077959">
        <ele>780.2</ele>
        <time>2011-08-19T14:41:16Z</time>
      </trkpt>
      <trkpt lat="41.823625" lon="2.078024">
        <ele>779.5</ele>
        <time>2011-08-19T14:41:16Z</time>
      </trkpt>
      <trkpt lat="41.823660" lon="2.078081">
        <ele>778.9</ele>
        <time>2011-08-19T14:41:16Z</time>
      </trkpt>
      <trkpt lat="41.823711" lon="2.078154">
        <ele>778.2</ele>
        <time>2011-08-19T14:41:16Z</time>
      </trkpt>
      <trkpt lat="41.823762" lon="2.078226">
        <ele>777.5</ele>
        <time>2011-08-19T14:41:16Z</time>
      </trkpt>
      <trkpt lat="41.823801" lon="2.078294">
        <ele>776.9</ele>
        <time>2011-08-19T14:41:16Z</time>
      </trkpt>
      <trkpt lat="41.823845" lon="2.078364">
        <ele>776.1</ele>
        <time>2011-08-19T14:41:16Z</time>
      </trkpt>
      <trkpt lat="41.823892" lon="2.078431">
        <ele>775.4</ele>
        <time>2011-08-19T14:41:16Z</time>
      </trkpt>
      <trkpt lat="41.823929" lon="2.078491">
        <ele>774.9</ele>
        <time>2011-08-19T14:41:16Z</time>
      </trkpt>
      <trkpt lat="41.823963" lon="2.078569">
        <ele>774.4</ele>
        <time>2011-08-19T14:41:16Z</time>
      </trkpt>
      <trkpt lat="41.823985" lon="2.078636">
        <ele>774.0</ele>
        <time>2011-08-19T14:41:16Z</time>
      </trkpt>
      <trkpt lat="41.824004" lon="2.078722">
        <ele>773.6</ele>
        <time>2011-08-19T14:41:16Z</time>
      </trkpt>
      <trkpt lat="41.824024" lon="2.078825">
        <ele>773.2</ele>
        <time>2011-08-19T14:41:16Z</time>
      </trkpt>
      <trkpt lat="41.824051" lon="2.078910">
        <ele>773.0</ele>
        <time>2011-08-19T14:41:16Z</time>
      </trkpt>
      <trkpt lat="41.824076" lon="2.078986">
        <ele>773.0</ele>
        <time>2011-08-19T14:41:16Z</time>
      </trkpt>
      <trkpt lat="41.824098" lon="2.079074">
        <ele>773.0</ele>
        <time>2011-08-19T14:41:16Z</time>
      </trkpt>
      <trkpt lat="41.824123" lon="2.079169">
        <ele>773.0</ele>
        <time>2011-08-19T14:41:16Z</time>
      </trkpt>
      <trkpt lat="41.824152" lon="2.079282">
        <ele>773.0</ele>
        <time>2011-08-19T14:41:16Z</time>
      </trkpt>
      <trkpt lat="41.824183" lon="2.079372">
        <ele>773.0</ele>
        <time>2011-08-19T14:41:16Z</time>
      </trkpt>
      <trkpt lat="41.824206" lon="2.079438">
        <ele>773.0</ele>
        <time>2011-08-19T14:41:16Z</time>
      </trkpt>
      <trkpt lat="41.824233" lon="2.079531">
        <ele>773.0</ele>
        <time>2011-08-19T14:41:16Z</time>
      </trkpt>
      <trkpt lat="41.824255" lon="2.079613">
        <ele>772.9</ele>
        <time>2011-08-19T14:41:16Z</time>
      </trkpt>
      <trkpt lat="41.824255" lon="2.079669">
        <ele>772.6</ele>
        <time>2011-08-19T14:41:16Z</time>
      </trkpt>
      <trkpt lat="41.824231" lon="2.079712">
        <ele>772.5</ele>
        <time>2011-08-19T14:41:16Z</time>
      </trkpt>
      <trkpt lat="41.824177" lon="2.079756">
        <ele>772.5</ele>
        <time>2011-08-19T14:41:16Z</time>
      </trkpt>
      <trkpt lat="41.824092" lon="2.079802">
        <ele>772.6</ele>
        <time>2011-08-19T14:41:16Z</time>
      </trkpt>
      <trkpt lat="41.824011" lon="2.079859">
        <ele>772.7</ele>
        <time>2011-08-19T14:41:16Z</time>
      </trkpt>
      <trkpt lat="41.823944" lon="2.079908">
        <ele>772.8</ele>
        <time>2011-08-19T14:41:16Z</time>
      </trkpt>
      <trkpt lat="41.823880" lon="2.079957">
        <ele>773.0</ele>
        <time>2011-08-19T14:41:16Z</time>
      </trkpt>
      <trkpt lat="41.823835" lon="2.079990">
        <ele>772.8</ele>
        <time>2011-08-19T14:41:16Z</time>
      </trkpt>
      <trkpt lat="41.823743" lon="2.080039">
        <ele>772.7</ele>
        <time>2011-08-19T14:41:16Z</time>
      </trkpt>
      <trkpt lat="41.823672" lon="2.080066">
        <ele>772.7</ele>
        <time>2011-08-19T14:41:16Z</time>
      </trkpt>
      <trkpt lat="41.823587" lon="2.080092">
        <ele>772.6</ele>
        <time>2011-08-19T14:41:16Z</time>
      </trkpt>
      <trkpt lat="41.823508" lon="2.080111">
        <ele>772.4</ele>
        <time>2011-08-19T14:41:16Z</time>
      </trkpt>
      <trkpt lat="41.823451" lon="2.080122">
        <ele>772.3</ele>
        <time>2011-08-19T14:41:16Z</time>
      </trkpt>
      <trkpt lat="41.823395" lon="2.080133">
        <ele>772.1</ele>
        <time>2011-08-19T14:41:16Z</time>
      </trkpt>
      <trkpt lat="41.823336" lon="2.080146">
        <ele>772.0</ele>
        <time>2011-08-19T14:41:16Z</time>
      </trkpt>
      <trkpt lat="41.823265" lon="2.080150">
        <ele>771.7</ele>
        <time>2011-08-19T14:41:16Z</time>
      </trkpt>
      <trkpt lat="41.823203" lon="2.080148">
        <ele>771.5</ele>
        <time>2011-08-19T14:41:16Z</time>
      </trkpt>
      <trkpt lat="41.823133" lon="2.080151">
        <ele>771.2</ele>
        <time>2011-08-19T14:41:16Z</time>
      </trkpt>
      <trkpt lat="41.823056" lon="2.080170">
        <ele>770.9</ele>
        <time>2011-08-19T14:41:16Z</time>
      </trkpt>
      <trkpt lat="41.822944" lon="2.080169">
        <ele>769.6</ele>
        <time>2011-08-19T14:41:16Z</time>
      </trkpt>
      <trkpt lat="41.822878" lon="2.080163">
        <ele>768.8</ele>
        <time>2011-08-19T14:41:16Z</time>
      </trkpt>
      <trkpt lat="41.822847" lon="2.080231">
        <ele>768.5</ele>
        <time>2011-08-19T14:41:16Z</time>
      </trkpt>
      <trkpt lat="41.822783" lon="2.080240">
        <ele>767.7</ele>
        <time>2011-08-19T14:41:16Z</time>
      </trkpt>
      <trkpt lat="41.822719" lon="2.080241">
        <ele>767.1</ele>
        <time>2011-08-19T14:41:16Z</time>
      </trkpt>
      <trkpt lat="41.822609" lon="2.080270">
        <ele>765.7</ele>
        <time>2011-08-19T14:41:16Z</time>
      </trkpt>
      <trkpt lat="41.822523" lon="2.080314">
        <ele>764.2</ele>
        <time>2011-08-19T14:41:16Z</time>
      </trkpt>
      <trkpt lat="41.822452" lon="2.080370">
        <ele>763.7</ele>
        <time>2011-08-19T14:41:16Z</time>
      </trkpt>
      <trkpt lat="41.822405" lon="2.080419">
        <ele>763.6</ele>
        <time>2011-08-19T14:41:16Z</time>
      </trkpt>
      <trkpt lat="41.822362" lon="2.080455">
        <ele>763.2</ele>
        <time>2011-08-19T14:41:16Z</time>
      </trkpt>
      <trkpt lat="41.822287" lon="2.080507">
        <ele>762.3</ele>
        <time>2011-08-19T14:41:16Z</time>
      </trkpt>
      <trkpt lat="41.822240" lon="2.080563">
        <ele>761.8</ele>
        <time>2011-08-19T14:41:16Z</time>
      </trkpt>
      <trkpt lat="41.822194" lon="2.080606">
        <ele>761.1</ele>
        <time>2011-08-19T14:41:16Z</time>
      </trkpt>
      <trkpt lat="41.822136" lon="2.080662">
        <ele>759.6</ele>
        <time>2011-08-19T14:41:16Z</time>
      </trkpt>
      <trkpt lat="41.822094" lon="2.080703">
        <ele>758.1</ele>
        <time>2011-08-19T14:41:16Z</time>
      </trkpt>
      <trkpt lat="41.822042" lon="2.080762">
        <ele>756.6</ele>
        <time>2011-08-19T14:41:16Z</time>
      </trkpt>
      <trkpt lat="41.822001" lon="2.080818">
        <ele>755.4</ele>
        <time>2011-08-19T14:41:16Z</time>
      </trkpt>
      <trkpt lat="41.821971" lon="2.080904">
        <ele>755.2</ele>
        <time>2011-08-19T14:41:16Z</time>
      </trkpt>
      <trkpt lat="41.821945" lon="2.080963">
        <ele>754.9</ele>
        <time>2011-08-19T14:41:16Z</time>
      </trkpt>
      <trkpt lat="41.821907" lon="2.081082">
        <ele>753.5</ele>
        <time>2011-08-19T14:41:16Z</time>
      </trkpt>
      <trkpt lat="41.821848" lon="2.081145">
        <ele>752.5</ele>
        <time>2011-08-19T14:41:16Z</time>
      </trkpt>
      <trkpt lat="41.821785" lon="2.081228">
        <ele>750.6</ele>
        <time>2011-08-19T14:41:16Z</time>
      </trkpt>
      <trkpt lat="41.821702" lon="2.081282">
        <ele>749.4</ele>
        <time>2011-08-19T14:41:16Z</time>
      </trkpt>
      <trkpt lat="41.821671" lon="2.081347">
        <ele>748.4</ele>
        <time>2011-08-19T14:41:16Z</time>
      </trkpt>
      <trkpt lat="41.821616" lon="2.081392">
        <ele>747.9</ele>
        <time>2011-08-19T14:41:16Z</time>
      </trkpt>
      <trkpt lat="41.821577" lon="2.081442">
        <ele>747.1</ele>
        <time>2011-08-19T14:41:16Z</time>
      </trkpt>
      <trkpt lat="41.821529" lon="2.081517">
        <ele>746.1</ele>
        <time>2011-08-19T14:41:16Z</time>
      </trkpt>
      <trkpt lat="41.821480" lon="2.081585">
        <ele>745.1</ele>
        <time>2011-08-19T14:41:16Z</time>
      </trkpt>
      <trkpt lat="41.821432" lon="2.081641">
        <ele>744.7</ele>
        <time>2011-08-19T14:41:16Z</time>
      </trkpt>
      <trkpt lat="41.821355" lon="2.081741">
        <ele>743.6</ele>
        <time>2011-08-19T14:41:16Z</time>
      </trkpt>
      <trkpt lat="41.821290" lon="2.081772">
        <ele>743.7</ele>
        <time>2011-08-19T14:41:16Z</time>
      </trkpt>
      <trkpt lat="41.821231" lon="2.081810">
        <ele>743.4</ele>
        <time>2011-08-19T14:41:16Z</time>
      </trkpt>
      <trkpt lat="41.821170" lon="2.081855">
        <ele>743.0</ele>
        <time>2011-08-19T14:41:16Z</time>
      </trkpt>
      <trkpt lat="41.821118" lon="2.081886">
        <ele>742.6</ele>
        <time>2011-08-19T14:41:16Z</time>
      </trkpt>
      <trkpt lat="41.821053" lon="2.081912">
        <ele>742.3</ele>
        <time>2011-08-19T14:41:16Z</time>
      </trkpt>
      <trkpt lat="41.820972" lon="2.081933">
        <ele>742.2</ele>
        <time>2011-08-19T14:41:16Z</time>
      </trkpt>
      <trkpt lat="41.820883" lon="2.081937">
        <ele>742.7</ele>
        <time>2011-08-19T14:41:16Z</time>
      </trkpt>
      <trkpt lat="41.820803" lon="2.081938">
        <ele>743.3</ele>
        <time>2011-08-19T14:41:16Z</time>
      </trkpt>
      <trkpt lat="41.820706" lon="2.081944">
        <ele>743.8</ele>
        <time>2011-08-19T14:41:16Z</time>
      </trkpt>
      <trkpt lat="41.820647" lon="2.081942">
        <ele>744.2</ele>
        <time>2011-08-19T14:41:16Z</time>
      </trkpt>
      <trkpt lat="41.820606" lon="2.081980">
        <ele>742.8</ele>
        <time>2011-08-19T14:41:16Z</time>
      </trkpt>
      <trkpt lat="41.820547" lon="2.082023">
        <ele>741.3</ele>
        <time>2011-08-19T14:41:16Z</time>
      </trkpt>
      <trkpt lat="41.820477" lon="2.082052">
        <ele>740.3</ele>
        <time>2011-08-19T14:41:16Z</time>
      </trkpt>
      <trkpt lat="41.820423" lon="2.082057">
        <ele>740.1</ele>
        <time>2011-08-19T14:41:16Z</time>
      </trkpt>
      <trkpt lat="41.820336" lon="2.082063">
        <ele>739.9</ele>
        <time>2011-08-19T14:41:16Z</time>
      </trkpt>
      <trkpt lat="41.820267" lon="2.082069">
        <ele>739.7</ele>
        <time>2011-08-19T14:41:16Z</time>
      </trkpt>
      <trkpt lat="41.820196" lon="2.082075">
        <ele>739.4</ele>
        <time>2011-08-19T14:41:16Z</time>
      </trkpt>
      <trkpt lat="41.820113" lon="2.082049">
        <ele>740.2</ele>
        <time>2011-08-19T14:41:16Z</time>
      </trkpt>
      <trkpt lat="41.820042" lon="2.082038">
        <ele>740.4</ele>
        <time>2011-08-19T14:41:16Z</time>
      </trkpt>
      <trkpt lat="41.819962" lon="2.082034">
        <ele>740.2</ele>
        <time>2011-08-19T14:41:16Z</time>
      </trkpt>
      <trkpt lat="41.819899" lon="2.082052">
        <ele>739.4</ele>
        <time>2011-08-19T14:41:16Z</time>
      </trkpt>
      <trkpt lat="41.819843" lon="2.082048">
        <ele>739.3</ele>
        <time>2011-08-19T14:41:16Z</time>
      </trkpt>
      <trkpt lat="41.819785" lon="2.082014">
        <ele>739.9</ele>
        <time>2011-08-19T14:41:16Z</time>
      </trkpt>
      <trkpt lat="41.819731" lon="2.082000">
        <ele>739.7</ele>
        <time>2011-08-19T14:41:16Z</time>
      </trkpt>
      <trkpt lat="41.819659" lon="2.082016">
        <ele>738.5</ele>
        <time>2011-08-19T14:41:16Z</time>
      </trkpt>
      <trkpt lat="41.819615" lon="2.082039">
        <ele>737.4</ele>
        <time>2011-08-19T14:41:16Z</time>
      </trkpt>
      <trkpt lat="41.819531" lon="2.082075">
        <ele>735.3</ele>
        <time>2011-08-19T14:41:16Z</time>
      </trkpt>
      <trkpt lat="41.819498" lon="2.082056">
        <ele>735.4</ele>
        <time>2011-08-19T14:41:16Z</time>
      </trkpt>
      <trkpt lat="41.819457" lon="2.082034">
        <ele>735.3</ele>
        <time>2011-08-19T14:41:16Z</time>
      </trkpt>
      <trkpt lat="41.819409" lon="2.082030">
        <ele>734.6</ele>
        <time>2011-08-19T14:41:16Z</time>
      </trkpt>
      <trkpt lat="41.819346" lon="2.082060">
        <ele>733.0</ele>
        <time>2011-08-19T14:41:16Z</time>
      </trkpt>
      <trkpt lat="41.819290" lon="2.082076">
        <ele>732.0</ele>
        <time>2011-08-19T14:41:16Z</time>
      </trkpt>
      <trkpt lat="41.819242" lon="2.082072">
        <ele>731.8</ele>
        <time>2011-08-19T14:41:16Z</time>
      </trkpt>
      <trkpt lat="41.819184" lon="2.082060">
        <ele>731.5</ele>
        <time>2011-08-19T14:41:16Z</time>
      </trkpt>
      <trkpt lat="41.819130" lon="2.082048">
        <ele>731.3</ele>
        <time>2011-08-19T14:41:16Z</time>
      </trkpt>
      <trkpt lat="41.819084" lon="2.082037">
        <ele>731.1</ele>
        <time>2011-08-19T14:41:16Z</time>
      </trkpt>
      <trkpt lat="41.819018" lon="2.082025">
        <ele>730.7</ele>
        <time>2011-08-19T14:41:16Z</time>
      </trkpt>
      <trkpt lat="41.818953" lon="2.082026">
        <ele>730.2</ele>
        <time>2011-08-19T14:41:16Z</time>
      </trkpt>
      <trkpt lat="41.818875" lon="2.082022">
        <ele>729.7</ele>
        <time>2011-08-19T14:41:16Z</time>
      </trkpt>
      <trkpt lat="41.818838" lon="2.082033">
        <ele>729.3</ele>
        <time>2011-08-19T14:41:16Z</time>
      </trkpt>
      <trkpt lat="41.818796" lon="2.082075">
        <ele>728.5</ele>
        <time>2011-08-19T14:41:16Z</time>
      </trkpt>
      <trkpt lat="41.818759" lon="2.082113">
        <ele>727.8</ele>
        <time>2011-08-19T14:41:16Z</time>
      </trkpt>
      <trkpt lat="41.818735" lon="2.082141">
        <ele>727.3</ele>
        <time>2011-08-19T14:41:16Z</time>
      </trkpt>
      <trkpt lat="41.818706" lon="2.082174">
        <ele>726.8</ele>
        <time>2011-08-19T14:41:16Z</time>
      </trkpt>
      <trkpt lat="41.818687" lon="2.082211">
        <ele>726.3</ele>
        <time>2011-08-19T14:41:16Z</time>
      </trkpt>
      <trkpt lat="41.818668" lon="2.082298">
        <ele>725.6</ele>
        <time>2011-08-19T14:41:16Z</time>
      </trkpt>
      <trkpt lat="41.818644" lon="2.082420">
        <ele>724.8</ele>
        <time>2011-08-19T14:41:16Z</time>
      </trkpt>
      <trkpt lat="41.818610" lon="2.082510">
        <ele>724.2</ele>
        <time>2011-08-19T14:41:16Z</time>
      </trkpt>
      <trkpt lat="41.818557" lon="2.082573">
        <ele>724.0</ele>
        <time>2011-08-19T14:41:16Z</time>
      </trkpt>
      <trkpt lat="41.818509" lon="2.082633">
        <ele>724.2</ele>
        <time>2011-08-19T14:41:16Z</time>
      </trkpt>
      <trkpt lat="41.818468" lon="2.082696">
        <ele>724.2</ele>
        <time>2011-08-19T14:41:16Z</time>
      </trkpt>
      <trkpt lat="41.818415" lon="2.082761">
        <ele>724.2</ele>
        <time>2011-08-19T14:41:16Z</time>
      </trkpt>
      <trkpt lat="41.818367" lon="2.082836">
        <ele>724.2</ele>
        <time>2011-08-19T14:41:16Z</time>
      </trkpt>
      <trkpt lat="41.818320" lon="2.082904">
        <ele>724.3</ele>
        <time>2011-08-19T14:41:16Z</time>
      </trkpt>
      <trkpt lat="41.818273" lon="2.082945">
        <ele>724.5</ele>
        <time>2011-08-19T14:41:16Z</time>
      </trkpt>
      <trkpt lat="41.818211" lon="2.082980">
        <ele>725.3</ele>
        <time>2011-08-19T14:41:16Z</time>
      </trkpt>
      <trkpt lat="41.818120" lon="2.083001">
        <ele>726.6</ele>
        <time>2011-08-19T14:41:16Z</time>
      </trkpt>
      <trkpt lat="41.818071" lon="2.083005">
        <ele>727.1</ele>
        <time>2011-08-19T14:41:16Z</time>
      </trkpt>
      <trkpt lat="41.817960" lon="2.082974">
        <ele>727.3</ele>
        <time>2011-08-19T14:41:16Z</time>
      </trkpt>
      <trkpt lat="41.817915" lon="2.082960">
        <ele>727.7</ele>
        <time>2011-08-19T14:41:16Z</time>
      </trkpt>
      <trkpt lat="41.817852" lon="2.082946">
        <ele>728.5</ele>
        <time>2011-08-19T14:41:16Z</time>
      </trkpt>
      <trkpt lat="41.817781" lon="2.082944">
        <ele>729.7</ele>
        <time>2011-08-19T14:41:16Z</time>
      </trkpt>
      <trkpt lat="41.817720" lon="2.082952">
        <ele>731.0</ele>
        <time>2011-08-19T14:41:16Z</time>
      </trkpt>
      <trkpt lat="41.817663" lon="2.082973">
        <ele>732.0</ele>
        <time>2011-08-19T14:41:16Z</time>
      </trkpt>
      <trkpt lat="41.817609" lon="2.082994">
        <ele>732.5</ele>
        <time>2011-08-19T14:41:16Z</time>
      </trkpt>
      <trkpt lat="41.817539" lon="2.083037">
        <ele>733.5</ele>
        <time>2011-08-19T14:41:16Z</time>
      </trkpt>
      <trkpt lat="41.817466" lon="2.083058">
        <ele>734.0</ele>
        <time>2011-08-19T14:41:16Z</time>
      </trkpt>
      <trkpt lat="41.817376" lon="2.083104">
        <ele>734.9</ele>
        <time>2011-08-19T14:41:16Z</time>
      </trkpt>
      <trkpt lat="41.817320" lon="2.083147">
        <ele>735.6</ele>
        <time>2011-08-19T14:41:16Z</time>
      </trkpt>
      <trkpt lat="41.817269" lon="2.083187">
        <ele>736.3</ele>
        <time>2011-08-19T14:41:16Z</time>
      </trkpt>
      <trkpt lat="41.817173" lon="2.083236">
        <ele>737.1</ele>
        <time>2011-08-19T14:41:16Z</time>
      </trkpt>
      <trkpt lat="41.817128" lon="2.083254">
        <ele>737.3</ele>
        <time>2011-08-19T14:41:16Z</time>
      </trkpt>
      <trkpt lat="41.817049" lon="2.083297">
        <ele>737.9</ele>
        <time>2011-08-19T14:41:16Z</time>
      </trkpt>
      <trkpt lat="41.816989" lon="2.083335">
        <ele>738.3</ele>
        <time>2011-08-19T14:41:16Z</time>
      </trkpt>
      <trkpt lat="41.816941" lon="2.083366">
        <ele>738.5</ele>
        <time>2011-08-19T14:41:16Z</time>
      </trkpt>
      <trkpt lat="41.816895" lon="2.083409">
        <ele>738.9</ele>
        <time>2011-08-19T14:41:16Z</time>
      </trkpt>
      <trkpt lat="41.816849" lon="2.083454">
        <ele>739.1</ele>
        <time>2011-08-19T14:41:16Z</time>
      </trkpt>
      <trkpt lat="41.816787" lon="2.083502">
        <ele>739.2</ele>
        <time>2011-08-19T14:41:16Z</time>
      </trkpt>
      <trkpt lat="41.816733" lon="2.083533">
        <ele>739.3</ele>
        <time>2011-08-19T14:41:16Z</time>
      </trkpt>
      <trkpt lat="41.816670" lon="2.083583">
        <ele>739.5</ele>
        <time>2011-08-19T14:41:16Z</time>
      </trkpt>
      <trkpt lat="41.816624" lon="2.083626">
        <ele>739.6</ele>
        <time>2011-08-19T14:41:16Z</time>
      </trkpt>
      <trkpt lat="41.816571" lon="2.083676">
        <ele>739.8</ele>
        <time>2011-08-19T14:41:16Z</time>
      </trkpt>
      <trkpt lat="41.816530" lon="2.083712">
        <ele>740.0</ele>
        <time>2011-08-19T14:41:16Z</time>
      </trkpt>
      <trkpt lat="41.816489" lon="2.083742">
        <ele>740.1</ele>
        <time>2011-08-19T14:41:16Z</time>
      </trkpt>
      <trkpt lat="41.816445" lon="2.083785">
        <ele>740.3</ele>
        <time>2011-08-19T14:41:16Z</time>
      </trkpt>
      <trkpt lat="41.816397" lon="2.083848">
        <ele>740.6</ele>
        <time>2011-08-19T14:41:16Z</time>
      </trkpt>
      <trkpt lat="41.816337" lon="2.083945">
        <ele>741.1</ele>
        <time>2011-08-19T14:41:16Z</time>
      </trkpt>
      <trkpt lat="41.816285" lon="2.084001">
        <ele>741.2</ele>
        <time>2011-08-19T14:41:16Z</time>
      </trkpt>
      <trkpt lat="41.816224" lon="2.084064">
        <ele>741.3</ele>
        <time>2011-08-19T14:41:16Z</time>
      </trkpt>
      <trkpt lat="41.816162" lon="2.084144">
        <ele>741.4</ele>
        <time>2011-08-19T14:41:16Z</time>
      </trkpt>
      <trkpt lat="41.816103" lon="2.084192">
        <ele>741.4</ele>
        <time>2011-08-19T14:41:16Z</time>
      </trkpt>
      <trkpt lat="41.816011" lon="2.084275">
        <ele>741.3</ele>
        <time>2011-08-19T14:41:16Z</time>
      </trkpt>
      <trkpt lat="41.815946" lon="2.084331">
        <ele>741.1</ele>
        <time>2011-08-19T14:41:16Z</time>
      </trkpt>
      <trkpt lat="41.815891" lon="2.084409">
        <ele>740.9</ele>
        <time>2011-08-19T14:41:16Z</time>
      </trkpt>
      <trkpt lat="41.815849" lon="2.084461">
        <ele>740.7</ele>
        <time>2011-08-19T14:41:16Z</time>
      </trkpt>
      <trkpt lat="41.815803" lon="2.084542">
        <ele>740.6</ele>
        <time>2011-08-19T14:41:16Z</time>
      </trkpt>
      <trkpt lat="41.815774" lon="2.084616">
        <ele>740.6</ele>
        <time>2011-08-19T14:41:16Z</time>
      </trkpt>
      <trkpt lat="41.815756" lon="2.084713">
        <ele>740.8</ele>
        <time>2011-08-19T14:41:16Z</time>
      </trkpt>
      <trkpt lat="41.815731" lon="2.084778">
        <ele>740.8</ele>
        <time>2011-08-19T14:41:16Z</time>
      </trkpt>
      <trkpt lat="41.815664" lon="2.084846">
        <ele>740.4</ele>
        <time>2011-08-19T14:41:16Z</time>
      </trkpt>
      <trkpt lat="41.815614" lon="2.084884">
        <ele>739.8</ele>
        <time>2011-08-19T14:41:16Z</time>
      </trkpt>
      <trkpt lat="41.815555" lon="2.084890">
        <ele>738.8</ele>
        <time>2011-08-19T14:41:16Z</time>
      </trkpt>
      <trkpt lat="41.815516" lon="2.084858">
        <ele>738.2</ele>
        <time>2011-08-19T14:41:16Z</time>
      </trkpt>
      <trkpt lat="41.815473" lon="2.084832">
        <ele>737.7</ele>
        <time>2011-08-19T14:41:16Z</time>
      </trkpt>
      <trkpt lat="41.815417" lon="2.084803">
        <ele>737.1</ele>
        <time>2011-08-19T14:41:16Z</time>
      </trkpt>
      <trkpt lat="41.815318" lon="2.084804">
        <ele>736.3</ele>
        <time>2011-08-19T14:41:16Z</time>
      </trkpt>
      <trkpt lat="41.815250" lon="2.084845">
        <ele>735.8</ele>
        <time>2011-08-19T14:41:16Z</time>
      </trkpt>
      <trkpt lat="41.815193" lon="2.084885">
        <ele>735.3</ele>
        <time>2011-08-19T14:41:16Z</time>
      </trkpt>
      <trkpt lat="41.815119" lon="2.084916">
        <ele>734.6</ele>
        <time>2011-08-19T14:41:16Z</time>
      </trkpt>
      <trkpt lat="41.815069" lon="2.084924">
        <ele>734.1</ele>
        <time>2011-08-19T14:41:16Z</time>
      </trkpt>
      <trkpt lat="41.815000" lon="2.084925">
        <ele>733.5</ele>
        <time>2011-08-19T14:41:16Z</time>
      </trkpt>
      <trkpt lat="41.814937" lon="2.084921">
        <ele>733.2</ele>
        <time>2011-08-19T14:41:16Z</time>
      </trkpt>
      <trkpt lat="41.814849" lon="2.084930">
        <ele>732.6</ele>
        <time>2011-08-19T14:41:16Z</time>
      </trkpt>
      <trkpt lat="41.814774" lon="2.084961">
        <ele>732.2</ele>
        <time>2011-08-19T14:41:16Z</time>
      </trkpt>
      <trkpt lat="41.814718" lon="2.084994">
        <ele>731.8</ele>
        <time>2011-08-19T14:41:16Z</time>
      </trkpt>
      <trkpt lat="41.814657" lon="2.085030">
        <ele>731.3</ele>
        <time>2011-08-19T14:41:16Z</time>
      </trkpt>
      <trkpt lat="41.814568" lon="2.085076">
        <ele>730.3</ele>
        <time>2011-08-19T14:41:16Z</time>
      </trkpt>
      <trkpt lat="41.814489" lon="2.085114">
        <ele>729.4</ele>
        <time>2011-08-19T14:41:16Z</time>
      </trkpt>
      <trkpt lat="41.814433" lon="2.085142">
        <ele>729.0</ele>
        <time>2011-08-19T14:41:16Z</time>
      </trkpt>
      <trkpt lat="41.814367" lon="2.085188">
        <ele>729.0</ele>
        <time>2011-08-19T14:41:16Z</time>
      </trkpt>
      <trkpt lat="41.814313" lon="2.085221">
        <ele>728.9</ele>
        <time>2011-08-19T14:41:16Z</time>
      </trkpt>
      <trkpt lat="41.814246" lon="2.085256">
        <ele>728.8</ele>
        <time>2011-08-19T14:41:16Z</time>
      </trkpt>
      <trkpt lat="41.814158" lon="2.085315">
        <ele>728.5</ele>
        <time>2011-08-19T14:41:16Z</time>
      </trkpt>
      <trkpt lat="41.814069" lon="2.085366">
        <ele>728.1</ele>
        <time>2011-08-19T14:41:16Z</time>
      </trkpt>
      <trkpt lat="41.814001" lon="2.085416">
        <ele>727.7</ele>
        <time>2011-08-19T14:41:16Z</time>
      </trkpt>
      <trkpt lat="41.813940" lon="2.085452">
        <ele>727.4</ele>
        <time>2011-08-19T14:41:16Z</time>
      </trkpt>
      <trkpt lat="41.813829" lon="2.085501">
        <ele>727.1</ele>
        <time>2011-08-19T14:41:16Z</time>
      </trkpt>
      <trkpt lat="41.813771" lon="2.085534">
        <ele>726.9</ele>
        <time>2011-08-19T14:41:16Z</time>
      </trkpt>
      <trkpt lat="41.813696" lon="2.085592">
        <ele>726.5</ele>
        <time>2011-08-19T14:41:16Z</time>
      </trkpt>
      <trkpt lat="41.813638" lon="2.085632">
        <ele>725.8</ele>
        <time>2011-08-19T14:41:16Z</time>
      </trkpt>
      <trkpt lat="41.813566" lon="2.085663">
        <ele>724.7</ele>
        <time>2011-08-19T14:41:16Z</time>
      </trkpt>
      <trkpt lat="41.813503" lon="2.085674">
        <ele>723.9</ele>
        <time>2011-08-19T14:41:16Z</time>
      </trkpt>
      <trkpt lat="41.813408" lon="2.085666">
        <ele>723.0</ele>
        <time>2011-08-19T14:41:16Z</time>
      </trkpt>
      <trkpt lat="41.813358" lon="2.085641">
        <ele>722.5</ele>
        <time>2011-08-19T14:41:16Z</time>
      </trkpt>
      <trkpt lat="41.813309" lon="2.085602">
        <ele>722.0</ele>
        <time>2011-08-19T14:41:16Z</time>
      </trkpt>
      <trkpt lat="41.813227" lon="2.085566">
        <ele>720.8</ele>
        <time>2011-08-19T14:41:16Z</time>
      </trkpt>
      <trkpt lat="41.813172" lon="2.085547">
        <ele>719.9</ele>
        <time>2011-08-19T14:41:16Z</time>
      </trkpt>
      <trkpt lat="41.813106" lon="2.085513">
        <ele>719.2</ele>
        <time>2011-08-19T14:41:16Z</time>
      </trkpt>
      <trkpt lat="41.813064" lon="2.085556">
        <ele>718.7</ele>
        <time>2011-08-19T14:41:16Z</time>
      </trkpt>
      <trkpt lat="41.813068" lon="2.085643">
        <ele>718.6</ele>
        <time>2011-08-19T14:41:16Z</time>
      </trkpt>
      <trkpt lat="41.813034" lon="2.085773">
        <ele>718.0</ele>
        <time>2011-08-19T14:41:16Z</time>
      </trkpt>
      <trkpt lat="41.813016" lon="2.085860">
        <ele>717.5</ele>
        <time>2011-08-19T14:41:16Z</time>
      </trkpt>
      <trkpt lat="41.812991" lon="2.085957">
        <ele>717.1</ele>
        <time>2011-08-19T14:41:16Z</time>
      </trkpt>
      <trkpt lat="41.812962" lon="2.086047">
        <ele>716.8</ele>
        <time>2011-08-19T14:41:16Z</time>
      </trkpt>
      <trkpt lat="41.812944" lon="2.086166">
        <ele>716.8</ele>
        <time>2011-08-19T14:41:16Z</time>
      </trkpt>
      <trkpt lat="41.812930" lon="2.086288">
        <ele>716.7</ele>
        <time>2011-08-19T14:41:16Z</time>
      </trkpt>
      <trkpt lat="41.812922" lon="2.086373">
        <ele>716.5</ele>
        <time>2011-08-19T14:41:16Z</time>
      </trkpt>
      <trkpt lat="41.812919" lon="2.086450">
        <ele>716.3</ele>
        <time>2011-08-19T14:41:16Z</time>
      </trkpt>
      <trkpt lat="41.812912" lon="2.086549">
        <ele>716.1</ele>
        <time>2011-08-19T14:41:16Z</time>
      </trkpt>
      <trkpt lat="41.812918" lon="2.086656">
        <ele>716.0</ele>
        <time>2011-08-19T14:41:16Z</time>
      </trkpt>
      <trkpt lat="41.812925" lon="2.086725">
        <ele>716.1</ele>
        <time>2011-08-19T14:41:16Z</time>
      </trkpt>
      <trkpt lat="41.812933" lon="2.086819">
        <ele>716.1</ele>
        <time>2011-08-19T14:41:16Z</time>
      </trkpt>
      <trkpt lat="41.812937" lon="2.086909">
        <ele>716.1</ele>
        <time>2011-08-19T14:41:16Z</time>
      </trkpt>
      <trkpt lat="41.812955" lon="2.087020">
        <ele>716.2</ele>
        <time>2011-08-19T14:41:16Z</time>
      </trkpt>
      <trkpt lat="41.812963" lon="2.087090">
        <ele>716.0</ele>
        <time>2011-08-19T14:41:16Z</time>
      </trkpt>
      <trkpt lat="41.812971" lon="2.087219">
        <ele>715.6</ele>
        <time>2011-08-19T14:41:16Z</time>
      </trkpt>
      <trkpt lat="41.812983" lon="2.087305">
        <ele>715.4</ele>
        <time>2011-08-19T14:41:16Z</time>
      </trkpt>
      <trkpt lat="41.812993" lon="2.087397">
        <ele>715.1</ele>
        <time>2011-08-19T14:41:16Z</time>
      </trkpt>
      <trkpt lat="41.813005" lon="2.087506">
        <ele>714.8</ele>
        <time>2011-08-19T14:41:16Z</time>
      </trkpt>
      <trkpt lat="41.813023" lon="2.087613">
        <ele>714.5</ele>
        <time>2011-08-19T14:41:16Z</time>
      </trkpt>
      <trkpt lat="41.813050" lon="2.087721">
        <ele>714.3</ele>
        <time>2011-08-19T14:41:16Z</time>
      </trkpt>
      <trkpt lat="41.813063" lon="2.087840">
        <ele>714.3</ele>
        <time>2011-08-19T14:41:16Z</time>
      </trkpt>
      <trkpt lat="41.813057" lon="2.087912">
        <ele>714.2</ele>
        <time>2011-08-19T14:41:16Z</time>
      </trkpt>
      <trkpt lat="41.812990" lon="2.087956">
        <ele>713.5</ele>
        <time>2011-08-19T14:41:16Z</time>
      </trkpt>
      <trkpt lat="41.812923" lon="2.087977">
        <ele>712.7</ele>
        <time>2011-08-19T14:41:16Z</time>
      </trkpt>
      <trkpt lat="41.812853" lon="2.088017">
        <ele>712.0</ele>
        <time>2011-08-19T14:41:16Z</time>
      </trkpt>
      <trkpt lat="41.812783" lon="2.088058">
        <ele>711.3</ele>
        <time>2011-08-19T14:41:16Z</time>
      </trkpt>
      <trkpt lat="41.812715" lon="2.088106">
        <ele>710.9</ele>
        <time>2011-08-19T14:41:16Z</time>
      </trkpt>
      <trkpt lat="41.812655" lon="2.088144">
        <ele>710.3</ele>
        <time>2011-08-19T14:41:16Z</time>
      </trkpt>
      <trkpt lat="41.812580" lon="2.088197">
        <ele>709.4</ele>
        <time>2011-08-19T14:41:16Z</time>
      </trkpt>
      <trkpt lat="41.812520" lon="2.088230">
        <ele>708.8</ele>
        <time>2011-08-19T14:41:16Z</time>
      </trkpt>
      <trkpt lat="41.812450" lon="2.088269">
        <ele>708.0</ele>
        <time>2011-08-19T14:41:16Z</time>
      </trkpt>
      <trkpt lat="41.812371" lon="2.088310">
        <ele>707.0</ele>
        <time>2011-08-19T14:41:16Z</time>
      </trkpt>
      <trkpt lat="41.812307" lon="2.088363">
        <ele>706.2</ele>
        <time>2011-08-19T14:41:16Z</time>
      </trkpt>
      <trkpt lat="41.812234" lon="2.088406">
        <ele>705.4</ele>
        <time>2011-08-19T14:41:16Z</time>
      </trkpt>
      <trkpt lat="41.812156" lon="2.088423">
        <ele>704.7</ele>
        <time>2011-08-19T14:41:16Z</time>
      </trkpt>
      <trkpt lat="41.812085" lon="2.088439">
        <ele>704.1</ele>
        <time>2011-08-19T14:41:16Z</time>
      </trkpt>
      <trkpt lat="41.812021" lon="2.088431">
        <ele>703.8</ele>
        <time>2011-08-19T14:41:16Z</time>
      </trkpt>
      <trkpt lat="41.811933" lon="2.088395">
        <ele>703.6</ele>
        <time>2011-08-19T14:41:16Z</time>
      </trkpt>
      <trkpt lat="41.811871" lon="2.088387">
        <ele>703.4</ele>
        <time>2011-08-19T14:41:16Z</time>
      </trkpt>
    </trkseg>
  </trk>
</gpx>
